<?xml version='1.0' encoding='UTF-8'?><gpx version="1.1" creator="JPX - https://github.com/jenetics/jpx" xmlns="http://www.topografix.com/GPX/1/1"><trk><trkseg><trkpt lat="45.960231284855226" lon="12.607420571688658"><ele>30.0</ele><time>2026-03-22T06:44:54Z</time></trkpt><trkpt lat="45.960297252355055" lon="12.60739410731376"><ele>30.0</ele><time>2026-03-22T06:45:03Z</time></trkpt><trkpt lat="45.96023084464828" lon="12.607423047734102"><ele>30.0</ele><time>2026-03-22T06:45:13Z</time></trkpt><trkpt lat="45.96012620601113" lon="12.607462744655265"><ele>30.0</ele><time>2026-03-22T06:47:45.999Z</time></trkpt><trkpt lat="45.96009978341037" lon="12.607342927588995"><ele>30.0</ele><time>2026-03-22T06:47:48.999Z</time></trkpt><trkpt lat="45.9600775524673" lon="12.607225409428223"><ele>30.0</ele><time>2026-03-22T06:47:50.999Z</time></trkpt><trkpt lat="45.9600294179558" lon="12.607152297567223"><ele>29.8</ele><time>2026-03-22T06:47:52.999Z</time></trkpt><trkpt lat="45.959959635004076" lon="12.607082220815188"><ele>29.6</ele><time>2026-03-22T06:47:55.999Z</time></trkpt><trkpt lat="45.95987838058382" lon="12.607105433633974"><ele>29.4</ele><time>2026-03-22T06:47:57.999Z</time></trkpt><trkpt lat="45.959796734943644" lon="12.607260078598442"><ele>29.2</ele><time>2026-03-22T06:47:59.999Z</time></trkpt><trkpt lat="45.9598573519918" lon="12.60741025741707"><ele>29.0</ele><time>2026-03-22T06:48:01.999Z</time></trkpt><trkpt lat="45.95990606973434" lon="12.60751908788001"><ele>28.999999999999996</ele><time>2026-03-22T06:48:03.999Z</time></trkpt><trkpt lat="45.95995059115274" lon="12.607683579085398"><ele>29.0</ele><time>2026-03-22T06:48:05.999Z</time></trkpt><trkpt lat="45.95997598593241" lon="12.607789525264778"><ele>29.0</ele><time>2026-03-22T06:48:06.999Z</time></trkpt><trkpt lat="45.960000759310944" lon="12.60789844271802"><ele>29.0</ele><time>2026-03-22T06:48:07.999Z</time></trkpt><trkpt lat="45.96002269502103" lon="12.608008414802368"><ele>28.999999999999996</ele><time>2026-03-22T06:48:08.999Z</time></trkpt><trkpt lat="45.96004557818424" lon="12.608122277660877"><ele>29.0</ele><time>2026-03-22T06:48:09.999Z</time></trkpt><trkpt lat="45.96006969159659" lon="12.608232488453067"><ele>29.333333333333332</ele><time>2026-03-22T06:48:10.999Z</time></trkpt><trkpt lat="45.96009403004368" lon="12.608344894112332"><ele>29.666666666666664</ele><time>2026-03-22T06:48:11.999Z</time></trkpt><trkpt lat="45.96012612387506" lon="12.608467912348704"><ele>30.0</ele><time>2026-03-22T06:48:12.999Z</time></trkpt><trkpt lat="45.96015001519801" lon="12.608575411570797"><ele>30.333333333333336</ele><time>2026-03-22T06:48:13.999Z</time></trkpt><trkpt lat="45.96017009698446" lon="12.608699472751773"><ele>30.666666666666668</ele><time>2026-03-22T06:48:14.999Z</time></trkpt><trkpt lat="45.96019863142257" lon="12.608832750864199"><ele>31.0</ele><time>2026-03-22T06:48:15.999Z</time></trkpt><trkpt lat="45.96022899721575" lon="12.60896446018051"><ele>31.25</ele><time>2026-03-22T06:48:16.999Z</time></trkpt><trkpt lat="45.96025803121852" lon="12.609111543054825"><ele>31.5</ele><time>2026-03-22T06:48:17.999Z</time></trkpt><trkpt lat="45.960301245153346" lon="12.609279036200807"><ele>31.75</ele><time>2026-03-22T06:48:18.999Z</time></trkpt><trkpt lat="45.96033260841031" lon="12.60944456008151"><ele>32.0</ele><time>2026-03-22T06:48:19.999Z</time></trkpt><trkpt lat="45.960362245695805" lon="12.609608732772498"><ele>32.25</ele><time>2026-03-22T06:48:20.999Z</time></trkpt><trkpt lat="45.96039671023887" lon="12.609769246260694"><ele>32.5</ele><time>2026-03-22T06:48:21.999Z</time></trkpt><trkpt lat="45.96043415125935" lon="12.60992749631139"><ele>32.75</ele><time>2026-03-22T06:48:22.999Z</time></trkpt><trkpt lat="45.96046948068375" lon="12.610079348259898"><ele>33.0</ele><time>2026-03-22T06:48:23.999Z</time></trkpt><trkpt lat="45.96051183695333" lon="12.610230228172714"><ele>33.25</ele><time>2026-03-22T06:48:24.999Z</time></trkpt><trkpt lat="45.96053989079782" lon="12.610389723264674"><ele>33.5</ele><time>2026-03-22T06:48:25.999Z</time></trkpt><trkpt lat="45.96057035615134" lon="12.610550522050902"><ele>33.75</ele><time>2026-03-22T06:48:26.999Z</time></trkpt><trkpt lat="45.960602315749064" lon="12.610714920347553"><ele>34.0</ele><time>2026-03-22T06:48:27.999Z</time></trkpt><trkpt lat="45.96063496187319" lon="12.610866139104692"><ele>34.0</ele><time>2026-03-22T06:48:28.999Z</time></trkpt><trkpt lat="45.96066471747203" lon="12.611018961764783"><ele>34.0</ele><time>2026-03-22T06:48:29.999Z</time></trkpt><trkpt lat="45.9606967561239" lon="12.611157149477993"><ele>34.0</ele><time>2026-03-22T06:48:30.999Z</time></trkpt><trkpt lat="45.96072962406256" lon="12.61128076127972"><ele>34.0</ele><time>2026-03-22T06:48:31.999Z</time></trkpt><trkpt lat="45.96076971528438" lon="12.611390726390683"><ele>34.0</ele><time>2026-03-22T06:48:32.999Z</time></trkpt><trkpt lat="45.96081085755871" lon="12.61148858553372"><ele>33.99999999999999</ele><time>2026-03-22T06:48:33.999Z</time></trkpt><trkpt lat="45.960855110018926" lon="12.611578177211639"><ele>34.0</ele><time>2026-03-22T06:48:34.999Z</time></trkpt><trkpt lat="45.96089696855709" lon="12.61165936430179"><ele>34.0</ele><time>2026-03-22T06:48:35.999Z</time></trkpt><trkpt lat="45.96093164543596" lon="12.611740750877066"><ele>34.0</ele><time>2026-03-22T06:48:36.999Z</time></trkpt><trkpt lat="45.96096622604148" lon="12.611824306344795"><ele>34.0</ele><time>2026-03-22T06:48:37.999Z</time></trkpt><trkpt lat="45.9609915200637" lon="12.611914150751097"><ele>33.99999999999999</ele><time>2026-03-22T06:48:38.999Z</time></trkpt><trkpt lat="45.96101304669369" lon="12.612006562914369"><ele>34.0</ele><time>2026-03-22T06:48:39.999Z</time></trkpt><trkpt lat="45.96106957055995" lon="12.612063825503157"><ele>34.0</ele><time>2026-03-22T06:48:40.999Z</time></trkpt><trkpt lat="45.96103651254368" lon="12.612199366952643"><ele>34.0</ele><time>2026-03-22T06:48:41.999Z</time></trkpt><trkpt lat="45.961021503931285" lon="12.612508700653326"><ele>34.0</ele><time>2026-03-22T06:48:45.999Z</time></trkpt><trkpt lat="45.961044689822856" lon="12.612607990774848"><ele>34.0</ele><time>2026-03-22T06:48:47.998Z</time></trkpt><trkpt lat="45.96113755706337" lon="12.612602064062193"><ele>34.0</ele><time>2026-03-22T06:48:49Z</time></trkpt><trkpt lat="45.96123678791794" lon="12.61258755105715"><ele>34.0</ele><time>2026-03-22T06:48:50Z</time></trkpt><trkpt lat="45.96133555242283" lon="12.612547190361786"><ele>34.0</ele><time>2026-03-22T06:48:51Z</time></trkpt><trkpt lat="45.96144527169479" lon="12.612555116444385"><ele>34.0</ele><time>2026-03-22T06:48:52Z</time></trkpt><trkpt lat="45.96155383098868" lon="12.612537963296198"><ele>34.0</ele><time>2026-03-22T06:48:53Z</time></trkpt><trkpt lat="45.9616630851227" lon="12.612522549967428"><ele>33.8</ele><time>2026-03-22T06:48:54Z</time></trkpt><trkpt lat="45.96176655797191" lon="12.61248591646569"><ele>33.599999999999994</ele><time>2026-03-22T06:48:55Z</time></trkpt><trkpt lat="45.96187185472914" lon="12.612450605908641"><ele>33.4</ele><time>2026-03-22T06:48:56Z</time></trkpt><trkpt lat="45.961978353913345" lon="12.612412273835323"><ele>33.199999999999996</ele><time>2026-03-22T06:48:57Z</time></trkpt><trkpt lat="45.96208526837305" lon="12.612370123884617"><ele>33.0</ele><time>2026-03-22T06:48:58Z</time></trkpt><trkpt lat="45.96218955805081" lon="12.612318120570492"><ele>33.0</ele><time>2026-03-22T06:48:59Z</time></trkpt><trkpt lat="45.962295891405155" lon="12.61226029291853"><ele>33.0</ele><time>2026-03-22T06:49:00Z</time></trkpt><trkpt lat="45.96240272637015" lon="12.612202635595278"><ele>33.0</ele><time>2026-03-22T06:49:01Z</time></trkpt><trkpt lat="45.962512919384935" lon="12.612161113270087"><ele>33.0</ele><time>2026-03-22T06:49:02Z</time></trkpt><trkpt lat="45.9626239163704" lon="12.612109256939503"><ele>33.0</ele><time>2026-03-22T06:49:03Z</time></trkpt><trkpt lat="45.962729688373166" lon="12.61204160729969"><ele>33.0</ele><time>2026-03-22T06:49:04Z</time></trkpt><trkpt lat="45.96283211421564" lon="12.611956574315283"><ele>33.0</ele><time>2026-03-22T06:49:05Z</time></trkpt><trkpt lat="45.96293503727364" lon="12.61187744320564"><ele>33.0</ele><time>2026-03-22T06:49:06Z</time></trkpt><trkpt lat="45.96303483253277" lon="12.61179102418643"><ele>33.0</ele><time>2026-03-22T06:49:07Z</time></trkpt><trkpt lat="45.96315053475734" lon="12.611741941834715"><ele>33.0</ele><time>2026-03-22T06:49:08Z</time></trkpt><trkpt lat="45.96325918328132" lon="12.611664517205025"><ele>33.0</ele><time>2026-03-22T06:49:09Z</time></trkpt><trkpt lat="45.96337654653739" lon="12.611626879792604"><ele>33.0</ele><time>2026-03-22T06:49:10Z</time></trkpt><trkpt lat="45.96349605760135" lon="12.61159471502805"><ele>33.5</ele><time>2026-03-22T06:49:11Z</time></trkpt><trkpt lat="45.96361557304071" lon="12.611572288805354"><ele>34.0</ele><time>2026-03-22T06:49:12Z</time></trkpt><trkpt lat="45.96373341733834" lon="12.611559464308337"><ele>34.5</ele><time>2026-03-22T06:49:13Z</time></trkpt><trkpt lat="45.96385351054399" lon="12.611540005627953"><ele>35.0</ele><time>2026-03-22T06:49:14Z</time></trkpt><trkpt lat="45.963975749340385" lon="12.611522696555742"><ele>35.0</ele><time>2026-03-22T06:49:15Z</time></trkpt><trkpt lat="45.96409963279998" lon="12.611503893560897"><ele>35.0</ele><time>2026-03-22T06:49:16Z</time></trkpt><trkpt lat="45.96422416456884" lon="12.61148163977764"><ele>35.0</ele><time>2026-03-22T06:49:17Z</time></trkpt><trkpt lat="45.964335923077066" lon="12.61146560320053"><ele>35.0</ele><time>2026-03-22T06:49:18Z</time></trkpt><trkpt lat="45.96443433275561" lon="12.611456723681036"><ele>35.33333333333333</ele><time>2026-03-22T06:49:19Z</time></trkpt><trkpt lat="45.96451637871439" lon="12.611449664083832"><ele>35.666666666666664</ele><time>2026-03-22T06:49:20Z</time></trkpt><trkpt lat="45.96458201045691" lon="12.61145855836298"><ele>36.0</ele><time>2026-03-22T06:49:21Z</time></trkpt><trkpt lat="45.96464608658781" lon="12.61147764018581"><ele>36.333333333333336</ele><time>2026-03-22T06:49:22Z</time></trkpt><trkpt lat="45.96472467402481" lon="12.611485731053701"><ele>36.66666666666667</ele><time>2026-03-22T06:49:23Z</time></trkpt><trkpt lat="45.964829969523834" lon="12.611451759201742"><ele>37.0</ele><time>2026-03-22T06:49:24Z</time></trkpt><trkpt lat="45.964974637282644" lon="12.611444773811236"><ele>37.333333333333336</ele><time>2026-03-22T06:49:25Z</time></trkpt><trkpt lat="45.96511764166131" lon="12.611435764025318"><ele>37.666666666666664</ele><time>2026-03-22T06:49:26Z</time></trkpt><trkpt lat="45.96526937263205" lon="12.611410933578611"><ele>38.0</ele><time>2026-03-22T06:49:27Z</time></trkpt><trkpt lat="45.965427673207955" lon="12.611399072883009"><ele>38.0</ele><time>2026-03-22T06:49:28Z</time></trkpt><trkpt lat="45.965583773665074" lon="12.611388171783181"><ele>38.0</ele><time>2026-03-22T06:49:29Z</time></trkpt><trkpt lat="45.965752266812444" lon="12.611383915063435"><ele>38.0</ele><time>2026-03-22T06:49:29.999Z</time></trkpt><trkpt lat="45.96591421803414" lon="12.611370230803631"><ele>38.33333333333333</ele><time>2026-03-22T06:49:30.999Z</time></trkpt><trkpt lat="45.96606996482124" lon="12.611364465125886"><ele>38.666666666666664</ele><time>2026-03-22T06:49:31.999Z</time></trkpt><trkpt lat="45.96621998862013" lon="12.61135768432534"><ele>39.0</ele><time>2026-03-22T06:49:32.999Z</time></trkpt><trkpt lat="45.966363868009296" lon="12.611354076937468"><ele>39.0</ele><time>2026-03-22T06:49:33.999Z</time></trkpt><trkpt lat="45.96650944276263" lon="12.611360400097636"><ele>39.0</ele><time>2026-03-22T06:49:34.999Z</time></trkpt><trkpt lat="45.96667123818635" lon="12.611367232751325"><ele>39.0</ele><time>2026-03-22T06:49:35.999Z</time></trkpt><trkpt lat="45.96682049608721" lon="12.611365022106918"><ele>39.333333333333336</ele><time>2026-03-22T06:49:36.999Z</time></trkpt><trkpt lat="45.966963020592274" lon="12.611355741864383"><ele>39.66666666666667</ele><time>2026-03-22T06:49:37.999Z</time></trkpt><trkpt lat="45.96711463568926" lon="12.611342702804874"><ele>40.0</ele><time>2026-03-22T06:49:38.999Z</time></trkpt><trkpt lat="45.96727280767806" lon="12.611329446243605"><ele>40.0</ele><time>2026-03-22T06:49:39.999Z</time></trkpt><trkpt lat="45.96744184014559" lon="12.611317283962956"><ele>40.0</ele><time>2026-03-22T06:49:40.999Z</time></trkpt><trkpt lat="45.96760063103039" lon="12.611303835721646"><ele>40.0</ele><time>2026-03-22T06:49:41.999Z</time></trkpt><trkpt lat="45.9677903794804" lon="12.611300482233196"><ele>40.5</ele><time>2026-03-22T06:49:42.999Z</time></trkpt><trkpt lat="45.967948674234826" lon="12.61128577439787"><ele>41.0</ele><time>2026-03-22T06:49:43.999Z</time></trkpt><trkpt lat="45.968085822177706" lon="12.611274785334091"><ele>41.5</ele><time>2026-03-22T06:49:44.999Z</time></trkpt><trkpt lat="45.96820761253967" lon="12.611259422232179"><ele>42.0</ele><time>2026-03-22T06:49:45.999Z</time></trkpt><trkpt lat="45.96831483172568" lon="12.611249679019688"><ele>42.166666666666664</ele><time>2026-03-22T06:49:46.999Z</time></trkpt><trkpt lat="45.968415600880924" lon="12.611251251767314"><ele>42.333333333333336</ele><time>2026-03-22T06:49:47.999Z</time></trkpt><trkpt lat="45.96849961522477" lon="12.611271319045333"><ele>42.5</ele><time>2026-03-22T06:49:48.999Z</time></trkpt><trkpt lat="45.968582104271164" lon="12.61130599788582"><ele>42.66666666666667</ele><time>2026-03-22T06:49:49.999Z</time></trkpt><trkpt lat="45.96863932919181" lon="12.611359528646384"><ele>42.833333333333336</ele><time>2026-03-22T06:49:50.999Z</time></trkpt><trkpt lat="45.96870718626758" lon="12.611423938430024"><ele>43.0</ele><time>2026-03-22T06:49:51.999Z</time></trkpt><trkpt lat="45.968755091735495" lon="12.611566908337005"><ele>43.0</ele><time>2026-03-22T06:49:52.999Z</time></trkpt><trkpt lat="45.968820380945914" lon="12.611692713813705"><ele>43.0</ele><time>2026-03-22T06:49:53.999Z</time></trkpt><trkpt lat="45.96884210007732" lon="12.611874535441736"><ele>43.0</ele><time>2026-03-22T06:49:54.999Z</time></trkpt><trkpt lat="45.96885899918983" lon="12.612068805609137"><ele>43.0</ele><time>2026-03-22T06:49:55.999Z</time></trkpt><trkpt lat="45.96878105601749" lon="12.612320850134694"><ele>42.66666666666667</ele><time>2026-03-22T06:49:56.999Z</time></trkpt><trkpt lat="45.96874986128927" lon="12.6125642387099"><ele>42.333333333333336</ele><time>2026-03-22T06:49:57.999Z</time></trkpt><trkpt lat="45.9687206176698" lon="12.61282461610013"><ele>42.0</ele><time>2026-03-22T06:49:58.999Z</time></trkpt><trkpt lat="45.96870231857158" lon="12.613094125993184"><ele>42.0</ele><time>2026-03-22T06:49:59.999Z</time></trkpt><trkpt lat="45.96869290261009" lon="12.613324075457012"><ele>42.0</ele><time>2026-03-22T06:50:00.999Z</time></trkpt><trkpt lat="45.96867743380294" lon="12.613551743969685"><ele>42.0</ele><time>2026-03-22T06:50:01.999Z</time></trkpt><trkpt lat="45.96866175875156" lon="12.613778358344941"><ele>42.0</ele><time>2026-03-22T06:50:02.999Z</time></trkpt><trkpt lat="45.96864872507183" lon="12.614015750332527"><ele>42.0</ele><time>2026-03-22T06:50:03.999Z</time></trkpt><trkpt lat="45.9686373692639" lon="12.614262952362955"><ele>42.0</ele><time>2026-03-22T06:50:04.999Z</time></trkpt><trkpt lat="45.96862117386857" lon="12.614514429976019"><ele>41.666666666666664</ele><time>2026-03-22T06:50:05.999Z</time></trkpt><trkpt lat="45.968603607403296" lon="12.61476854278556"><ele>41.33333333333333</ele><time>2026-03-22T06:50:06.999Z</time></trkpt><trkpt lat="45.968575311743145" lon="12.61503208574204"><ele>41.0</ele><time>2026-03-22T06:50:07.999Z</time></trkpt><trkpt lat="45.96854534634694" lon="12.615297243457592"><ele>41.0</ele><time>2026-03-22T06:50:08.999Z</time></trkpt><trkpt lat="45.96851682349277" lon="12.615567275065066"><ele>41.0</ele><time>2026-03-22T06:50:09.999Z</time></trkpt><trkpt lat="45.96849380730307" lon="12.615841957397983"><ele>41.0</ele><time>2026-03-22T06:50:10.999Z</time></trkpt><trkpt lat="45.96847508654946" lon="12.616123607186719"><ele>41.0</ele><time>2026-03-22T06:50:11.999Z</time></trkpt><trkpt lat="45.96845661140768" lon="12.61640740851486"><ele>41.0</ele><time>2026-03-22T06:50:12.999Z</time></trkpt><trkpt lat="45.96843601181508" lon="12.616696115800993"><ele>41.0</ele><time>2026-03-22T06:50:13.999Z</time></trkpt><trkpt lat="45.96841202653109" lon="12.61698627255954"><ele>41.0</ele><time>2026-03-22T06:50:14.999Z</time></trkpt><trkpt lat="45.96839165133966" lon="12.617279145023781"><ele>41.0</ele><time>2026-03-22T06:50:15.999Z</time></trkpt><trkpt lat="45.968368495001535" lon="12.6175771910372"><ele>41.0</ele><time>2026-03-22T06:50:16.999Z</time></trkpt><trkpt lat="45.96834934763501" lon="12.617878439106576"><ele>40.33333333333333</ele><time>2026-03-22T06:50:17.999Z</time></trkpt><trkpt lat="45.96832607874189" lon="12.618180723364599"><ele>39.666666666666664</ele><time>2026-03-22T06:50:18.999Z</time></trkpt><trkpt lat="45.9682989827415" lon="12.618488997893298"><ele>39.0</ele><time>2026-03-22T06:50:19.999Z</time></trkpt><trkpt lat="45.96827669901112" lon="12.618796946915225"><ele>38.666666666666664</ele><time>2026-03-22T06:50:20.999Z</time></trkpt><trkpt lat="45.96825546709956" lon="12.619104049244662"><ele>38.33333333333333</ele><time>2026-03-22T06:50:21.999Z</time></trkpt><trkpt lat="45.968234991322525" lon="12.619417536938558"><ele>38.0</ele><time>2026-03-22T06:50:22.999Z</time></trkpt><trkpt lat="45.96821066228587" lon="12.619730888515699"><ele>39.0</ele><time>2026-03-22T06:50:23.999Z</time></trkpt><trkpt lat="45.9681850389901" lon="12.620045589925235"><ele>40.0</ele><time>2026-03-22T06:50:24.999Z</time></trkpt><trkpt lat="45.96816206191174" lon="12.620360751102421"><ele>41.0</ele><time>2026-03-22T06:50:25.999Z</time></trkpt><trkpt lat="45.96813966846717" lon="12.620679547018828"><ele>41.0</ele><time>2026-03-22T06:50:26.999Z</time></trkpt><trkpt lat="45.96811338524313" lon="12.6210003085268"><ele>41.0</ele><time>2026-03-22T06:50:27.999Z</time></trkpt><trkpt lat="45.968091742297524" lon="12.621322428593444"><ele>41.0</ele><time>2026-03-22T06:50:28.999Z</time></trkpt><trkpt lat="45.968069015206744" lon="12.621647483779581"><ele>40.5</ele><time>2026-03-22T06:50:29.999Z</time></trkpt><trkpt lat="45.96804444486097" lon="12.621974028424813"><ele>40.0</ele><time>2026-03-22T06:50:30.999Z</time></trkpt><trkpt lat="45.96801830689964" lon="12.622297530094961"><ele>40.0</ele><time>2026-03-22T06:50:31.999Z</time></trkpt><trkpt lat="45.96799175934391" lon="12.62261937154527"><ele>40.0</ele><time>2026-03-22T06:50:32.999Z</time></trkpt><trkpt lat="45.967965132828" lon="12.6229417508038"><ele>40.0</ele><time>2026-03-22T06:50:33.999Z</time></trkpt><trkpt lat="45.96794055516374" lon="12.62326834238345"><ele>40.0</ele><time>2026-03-22T06:50:34.999Z</time></trkpt><trkpt lat="45.96791379753361" lon="12.623598624152399"><ele>39.0</ele><time>2026-03-22T06:50:35.999Z</time></trkpt><trkpt lat="45.967890776279894" lon="12.623933511057567"><ele>38.0</ele><time>2026-03-22T06:50:36.999Z</time></trkpt><trkpt lat="45.9678693684018" lon="12.624274530405692"><ele>38.33333333333333</ele><time>2026-03-22T06:50:37.999Z</time></trkpt><trkpt lat="45.967849190026215" lon="12.62460481478084"><ele>38.666666666666664</ele><time>2026-03-22T06:50:38.999Z</time></trkpt><trkpt lat="45.967838438715376" lon="12.624899856571291"><ele>39.0</ele><time>2026-03-22T06:50:39.999Z</time></trkpt><trkpt lat="45.96782170471423" lon="12.625173335747965"><ele>39.0</ele><time>2026-03-22T06:50:40.999Z</time></trkpt><trkpt lat="45.96780326438805" lon="12.625416782312644"><ele>39.0</ele><time>2026-03-22T06:50:41.999Z</time></trkpt><trkpt lat="45.96778994364714" lon="12.625642016953392"><ele>39.0</ele><time>2026-03-22T06:50:42.999Z</time></trkpt><trkpt lat="45.9677713182594" lon="12.625848981226746"><ele>39.0</ele><time>2026-03-22T06:50:43.999Z</time></trkpt><trkpt lat="45.967746064941416" lon="12.626033316832167"><ele>39.0</ele><time>2026-03-22T06:50:44.999Z</time></trkpt><trkpt lat="45.96770880177392" lon="12.626188851419434"><ele>39.0</ele><time>2026-03-22T06:50:45.999Z</time></trkpt><trkpt lat="45.96767003729345" lon="12.626322740385609"><ele>39.0</ele><time>2026-03-22T06:50:46.999Z</time></trkpt><trkpt lat="45.96765419958576" lon="12.626435154688536"><ele>39.0</ele><time>2026-03-22T06:50:47.999Z</time></trkpt><trkpt lat="45.967662051420376" lon="12.626545792411214"><ele>38.8</ele><time>2026-03-22T06:50:48.999Z</time></trkpt><trkpt lat="45.96769619738643" lon="12.6266300671027"><ele>38.599999999999994</ele><time>2026-03-22T06:50:49.999Z</time></trkpt><trkpt lat="45.967756134346764" lon="12.626711574912063"><ele>38.4</ele><time>2026-03-22T06:50:50.999Z</time></trkpt><trkpt lat="45.96785748807303" lon="12.626782139570734"><ele>38.199999999999996</ele><time>2026-03-22T06:50:51.999Z</time></trkpt><trkpt lat="45.96795347804576" lon="12.626848770380567"><ele>38.0</ele><time>2026-03-22T06:50:52.999Z</time></trkpt><trkpt lat="45.968021732698844" lon="12.626945743330786"><ele>38.33333333333333</ele><time>2026-03-22T06:50:53.999Z</time></trkpt><trkpt lat="45.96807764558191" lon="12.62711177342224"><ele>38.666666666666664</ele><time>2026-03-22T06:50:54.999Z</time></trkpt><trkpt lat="45.96812926230687" lon="12.627328174872249"><ele>39.0</ele><time>2026-03-22T06:50:55.999Z</time></trkpt><trkpt lat="45.96817643377005" lon="12.627568007670572"><ele>39.0</ele><time>2026-03-22T06:50:56.999Z</time></trkpt><trkpt lat="45.96823453549914" lon="12.627808478686115"><ele>39.0</ele><time>2026-03-22T06:50:57.999Z</time></trkpt><trkpt lat="45.96829602565468" lon="12.628020914957375"><ele>39.0</ele><time>2026-03-22T06:50:58.999Z</time></trkpt><trkpt lat="45.96835427262266" lon="12.628219771659893"><ele>39.25</ele><time>2026-03-22T06:50:59.999Z</time></trkpt><trkpt lat="45.96840405543894" lon="12.628402998627024"><ele>39.5</ele><time>2026-03-22T06:51:00.999Z</time></trkpt><trkpt lat="45.96845176878223" lon="12.628580936681395"><ele>39.75</ele><time>2026-03-22T06:51:02Z</time></trkpt><trkpt lat="45.968499589547356" lon="12.628752873402926"><ele>40.0</ele><time>2026-03-22T06:51:03Z</time></trkpt><trkpt lat="45.96854499101997" lon="12.62892442217297"><ele>40.0</ele><time>2026-03-22T06:51:04Z</time></trkpt><trkpt lat="45.968592060008135" lon="12.629099258947981"><ele>40.0</ele><time>2026-03-22T06:51:05Z</time></trkpt><trkpt lat="45.96864037248764" lon="12.629282868332819"><ele>40.0</ele><time>2026-03-22T06:51:06Z</time></trkpt><trkpt lat="45.96869276711275" lon="12.629477242924725"><ele>40.0</ele><time>2026-03-22T06:51:07Z</time></trkpt><trkpt lat="45.968751514655" lon="12.629683683090464"><ele>39.66666666666667</ele><time>2026-03-22T06:51:08Z</time></trkpt><trkpt lat="45.96881722212028" lon="12.629918416758674"><ele>39.333333333333336</ele><time>2026-03-22T06:51:09Z</time></trkpt><trkpt lat="45.968881534384295" lon="12.63016467578645"><ele>39.0</ele><time>2026-03-22T06:51:10Z</time></trkpt><trkpt lat="45.96895686231001" lon="12.630438527306538"><ele>39.0</ele><time>2026-03-22T06:51:11Z</time></trkpt><trkpt lat="45.969033937823966" lon="12.630715464940124"><ele>39.0</ele><time>2026-03-22T06:51:12Z</time></trkpt><trkpt lat="45.96911539201345" lon="12.630998606468362"><ele>39.0</ele><time>2026-03-22T06:51:13Z</time></trkpt><trkpt lat="45.96920156162418" lon="12.631309129039098"><ele>39.0</ele><time>2026-03-22T06:51:14Z</time></trkpt><trkpt lat="45.969289885938124" lon="12.631642247944988"><ele>39.0</ele><time>2026-03-22T06:51:15Z</time></trkpt><trkpt lat="45.9693776265983" lon="12.631971701626425"><ele>39.0</ele><time>2026-03-22T06:51:16Z</time></trkpt><trkpt lat="45.96946657667647" lon="12.63228909335967"><ele>39.0</ele><time>2026-03-22T06:51:17Z</time></trkpt><trkpt lat="45.969557464288094" lon="12.632599382886104"><ele>38.666666666666664</ele><time>2026-03-22T06:51:18Z</time></trkpt><trkpt lat="45.96963883742719" lon="12.632892534393553"><ele>38.33333333333333</ele><time>2026-03-22T06:51:19Z</time></trkpt><trkpt lat="45.96971280932895" lon="12.633163735351848"><ele>38.0</ele><time>2026-03-22T06:51:20Z</time></trkpt><trkpt lat="45.969780110821134" lon="12.633415625655465"><ele>37.666666666666664</ele><time>2026-03-22T06:51:21Z</time></trkpt><trkpt lat="45.96984525386949" lon="12.633655484328282"><ele>37.333333333333336</ele><time>2026-03-22T06:51:22Z</time></trkpt><trkpt lat="45.96991057727289" lon="12.633892510129645"><ele>37.0</ele><time>2026-03-22T06:51:23Z</time></trkpt><trkpt lat="45.969977368704654" lon="12.634130924453215"><ele>38.333333333333336</ele><time>2026-03-22T06:51:24Z</time></trkpt><trkpt lat="45.97004648654073" lon="12.634370350109856"><ele>39.666666666666664</ele><time>2026-03-22T06:51:25Z</time></trkpt><trkpt lat="45.97011559717039" lon="12.63461013022129"><ele>41.0</ele><time>2026-03-22T06:51:25.999Z</time></trkpt><trkpt lat="45.97018377953307" lon="12.634859677260957"><ele>41.0</ele><time>2026-03-22T06:51:26.999Z</time></trkpt><trkpt lat="45.97025520547154" lon="12.635121563306766"><ele>41.0</ele><time>2026-03-22T06:51:27.999Z</time></trkpt><trkpt lat="45.97034245678126" lon="12.635416517349304"><ele>41.0</ele><time>2026-03-22T06:51:28.999Z</time></trkpt><trkpt lat="45.97043294011376" lon="12.635730947187406"><ele>41.0</ele><time>2026-03-22T06:51:29.999Z</time></trkpt><trkpt lat="45.97051557502957" lon="12.636067873636545"><ele>41.0</ele><time>2026-03-22T06:51:30.999Z</time></trkpt><trkpt lat="45.97060397643791" lon="12.636426450365978"><ele>42.0</ele><time>2026-03-22T06:51:31.999Z</time></trkpt><trkpt lat="45.97070088548114" lon="12.636791342131511"><ele>43.0</ele><time>2026-03-22T06:51:32.999Z</time></trkpt><trkpt lat="45.97079898536013" lon="12.637143851150173"><ele>43.0</ele><time>2026-03-22T06:51:33.999Z</time></trkpt><trkpt lat="45.97089389354243" lon="12.637487826997132"><ele>43.0</ele><time>2026-03-22T06:51:34.999Z</time></trkpt><trkpt lat="45.970982650700954" lon="12.637806834193176"><ele>42.333333333333336</ele><time>2026-03-22T06:51:35.999Z</time></trkpt><trkpt lat="45.97106223870776" lon="12.638098144277992"><ele>41.666666666666664</ele><time>2026-03-22T06:51:36.999Z</time></trkpt><trkpt lat="45.97113932489664" lon="12.638380383805776"><ele>41.0</ele><time>2026-03-22T06:51:37.999Z</time></trkpt><trkpt lat="45.97121146387716" lon="12.638649024379337"><ele>41.0</ele><time>2026-03-22T06:51:38.999Z</time></trkpt><trkpt lat="45.97127809714488" lon="12.638894705582954"><ele>41.0</ele><time>2026-03-22T06:51:39.999Z</time></trkpt><trkpt lat="45.971339756286014" lon="12.639116976106886"><ele>41.0</ele><time>2026-03-22T06:51:40.999Z</time></trkpt><trkpt lat="45.97139785881947" lon="12.639321928988648"><ele>41.25</ele><time>2026-03-22T06:51:41.999Z</time></trkpt><trkpt lat="45.971448570379614" lon="12.639511029507268"><ele>41.5</ele><time>2026-03-22T06:51:42.999Z</time></trkpt><trkpt lat="45.97149206831453" lon="12.639680243376617"><ele>41.75</ele><time>2026-03-22T06:51:43.999Z</time></trkpt><trkpt lat="45.97152480976" lon="12.639831057041752"><ele>42.0</ele><time>2026-03-22T06:51:44.999Z</time></trkpt><trkpt lat="45.971548857298636" lon="12.639973763738928"><ele>42.0</ele><time>2026-03-22T06:51:45.999Z</time></trkpt><trkpt lat="45.971558300703656" lon="12.64010402444605"><ele>42.0</ele><time>2026-03-22T06:51:46.999Z</time></trkpt><trkpt lat="45.97154960450471" lon="12.640219318474953"><ele>42.0</ele><time>2026-03-22T06:51:47.999Z</time></trkpt><trkpt lat="45.97154756234467" lon="12.640330509198924"><ele>42.0</ele><time>2026-03-22T06:51:48.999Z</time></trkpt><trkpt lat="45.971580475987686" lon="12.640428817664679"><ele>42.0</ele><time>2026-03-22T06:51:49.999Z</time></trkpt><trkpt lat="45.971644426851576" lon="12.640521363878328"><ele>42.0</ele><time>2026-03-22T06:51:50.999Z</time></trkpt><trkpt lat="45.971732940315896" lon="12.640650311089654"><ele>42.0</ele><time>2026-03-22T06:51:51.999Z</time></trkpt><trkpt lat="45.971794223012544" lon="12.640781637399005"><ele>42.0</ele><time>2026-03-22T06:51:52.999Z</time></trkpt><trkpt lat="45.97183879065987" lon="12.640918924012157"><ele>42.0</ele><time>2026-03-22T06:51:53.999Z</time></trkpt><trkpt lat="45.971879718395726" lon="12.641074870741985"><ele>42.0</ele><time>2026-03-22T06:51:54.999Z</time></trkpt><trkpt lat="45.9719265023706" lon="12.641262545707178"><ele>42.25</ele><time>2026-03-22T06:51:55.999Z</time></trkpt><trkpt lat="45.971974194831404" lon="12.641448885902772"><ele>42.5</ele><time>2026-03-22T06:51:56.999Z</time></trkpt><trkpt lat="45.972026348883524" lon="12.641639447497584"><ele>42.75</ele><time>2026-03-22T06:51:57.999Z</time></trkpt><trkpt lat="45.97207555851166" lon="12.641827263378836"><ele>43.0</ele><time>2026-03-22T06:51:58.999Z</time></trkpt><trkpt lat="45.972127635364934" lon="12.64202014671581"><ele>43.0</ele><time>2026-03-22T06:51:59.999Z</time></trkpt><trkpt lat="45.97218585462636" lon="12.642228828095037"><ele>43.0</ele><time>2026-03-22T06:52:00.999Z</time></trkpt><trkpt lat="45.972248182607345" lon="12.642449670528883"><ele>43.0</ele><time>2026-03-22T06:52:01.999Z</time></trkpt><trkpt lat="45.97230394045342" lon="12.642645718583728"><ele>42.75</ele><time>2026-03-22T06:52:02.999Z</time></trkpt><trkpt lat="45.97235610779918" lon="12.642830047050861"><ele>42.5</ele><time>2026-03-22T06:52:03.999Z</time></trkpt><trkpt lat="45.97240821189845" lon="12.643017221632673"><ele>42.25</ele><time>2026-03-22T06:52:04.999Z</time></trkpt><trkpt lat="45.972462230856124" lon="12.643206693973433"><ele>42.0</ele><time>2026-03-22T06:52:05.999Z</time></trkpt><trkpt lat="45.97251774873726" lon="12.643411059795664"><ele>42.666666666666664</ele><time>2026-03-22T06:52:06.999Z</time></trkpt><trkpt lat="45.972575315174026" lon="12.643621319717143"><ele>43.33333333333333</ele><time>2026-03-22T06:52:07.999Z</time></trkpt><trkpt lat="45.97263672815956" lon="12.643842093210965"><ele>44.0</ele><time>2026-03-22T06:52:08.999Z</time></trkpt><trkpt lat="45.972693050145395" lon="12.644050706718946"><ele>44.25</ele><time>2026-03-22T06:52:09.999Z</time></trkpt><trkpt lat="45.97274192743442" lon="12.644242168283279"><ele>44.5</ele><time>2026-03-22T06:52:10.999Z</time></trkpt><trkpt lat="45.97278680469923" lon="12.644419757415449"><ele>44.75</ele><time>2026-03-22T06:52:11.999Z</time></trkpt><trkpt lat="45.9728338995844" lon="12.644597824546327"><ele>45.0</ele><time>2026-03-22T06:52:12.999Z</time></trkpt><trkpt lat="45.97288835095114" lon="12.644806236911721"><ele>45.0</ele><time>2026-03-22T06:52:13.999Z</time></trkpt><trkpt lat="45.972939762262556" lon="12.645006039990673"><ele>45.0</ele><time>2026-03-22T06:52:14.999Z</time></trkpt><trkpt lat="45.97299272742109" lon="12.645207333591815"><ele>45.0</ele><time>2026-03-22T06:52:15.999Z</time></trkpt><trkpt lat="45.97305792613144" lon="12.645428751890206"><ele>45.0</ele><time>2026-03-22T06:52:16.999Z</time></trkpt><trkpt lat="45.97311767787891" lon="12.645623353577259"><ele>45.0</ele><time>2026-03-22T06:52:17.999Z</time></trkpt><trkpt lat="45.973168271704836" lon="12.645803271206777"><ele>45.0</ele><time>2026-03-22T06:52:18.999Z</time></trkpt><trkpt lat="45.97321547105956" lon="12.645987730202107"><ele>45.0</ele><time>2026-03-22T06:52:19.999Z</time></trkpt><trkpt lat="45.97326820979022" lon="12.64618710467364"><ele>44.75</ele><time>2026-03-22T06:52:20.999Z</time></trkpt><trkpt lat="45.97332163871681" lon="12.646388243073622"><ele>44.5</ele><time>2026-03-22T06:52:21.999Z</time></trkpt><trkpt lat="45.97337325559659" lon="12.64657833315606"><ele>44.25</ele><time>2026-03-22T06:52:22.999Z</time></trkpt><trkpt lat="45.97342223254776" lon="12.646758114962973"><ele>44.0</ele><time>2026-03-22T06:52:23.999Z</time></trkpt><trkpt lat="45.97347492946991" lon="12.64694721773353"><ele>44.33333333333333</ele><time>2026-03-22T06:52:24.999Z</time></trkpt><trkpt lat="45.97353490444359" lon="12.647148937278457"><ele>44.666666666666664</ele><time>2026-03-22T06:52:25.999Z</time></trkpt><trkpt lat="45.97360558858703" lon="12.647387278450735"><ele>45.0</ele><time>2026-03-22T06:52:26.999Z</time></trkpt><trkpt lat="45.973672420745494" lon="12.647629719005286"><ele>45.0</ele><time>2026-03-22T06:52:27.999Z</time></trkpt><trkpt lat="45.973726393458946" lon="12.647835224061634"><ele>45.0</ele><time>2026-03-22T06:52:28.999Z</time></trkpt><trkpt lat="45.973779069417745" lon="12.648018604981578"><ele>45.0</ele><time>2026-03-22T06:52:29.999Z</time></trkpt><trkpt lat="45.973823507813805" lon="12.648189302517066"><ele>45.0</ele><time>2026-03-22T06:52:30.999Z</time></trkpt><trkpt lat="45.9738628871284" lon="12.64833741265806"><ele>45.0</ele><time>2026-03-22T06:52:31.999Z</time></trkpt><trkpt lat="45.973897022656075" lon="12.64846827647677"><ele>45.0</ele><time>2026-03-22T06:52:32.999Z</time></trkpt><trkpt lat="45.97392537862204" lon="12.648589784289786"><ele>45.0</ele><time>2026-03-22T06:52:33.999Z</time></trkpt><trkpt lat="45.97394631673816" lon="12.648693640407735"><ele>45.0</ele><time>2026-03-22T06:52:34.999Z</time></trkpt><trkpt lat="45.97395661075924" lon="12.648882856675456"><ele>45.0</ele><time>2026-03-22T06:52:36.999Z</time></trkpt><trkpt lat="45.97395383381717" lon="12.64897862772735"><ele>44.8</ele><time>2026-03-22T06:52:37.999Z</time></trkpt><trkpt lat="45.973961535989424" lon="12.649083323471697"><ele>44.6</ele><time>2026-03-22T06:52:38.999Z</time></trkpt><trkpt lat="45.97400044645017" lon="12.649207171623543"><ele>44.400000000000006</ele><time>2026-03-22T06:52:39.999Z</time></trkpt><trkpt lat="45.97406710540228" lon="12.649340410990384"><ele>44.2</ele><time>2026-03-22T06:52:40.999Z</time></trkpt><trkpt lat="45.974161493717546" lon="12.649522060455073"><ele>44.0</ele><time>2026-03-22T06:52:41.999Z</time></trkpt><trkpt lat="45.97422967190221" lon="12.64971721853626"><ele>44.0</ele><time>2026-03-22T06:52:42.999Z</time></trkpt><trkpt lat="45.9742920267611" lon="12.649927557490859"><ele>44.0</ele><time>2026-03-22T06:52:43.999Z</time></trkpt><trkpt lat="45.974343036978595" lon="12.650113937525003"><ele>44.0</ele><time>2026-03-22T06:52:44.999Z</time></trkpt><trkpt lat="45.97439122899335" lon="12.65029890396385"><ele>44.0</ele><time>2026-03-22T06:52:45.999Z</time></trkpt><trkpt lat="45.9744395034138" lon="12.650489535532792"><ele>43.75</ele><time>2026-03-22T06:52:46.999Z</time></trkpt><trkpt lat="45.974492420718" lon="12.65068130269325"><ele>43.5</ele><time>2026-03-22T06:52:47.999Z</time></trkpt><trkpt lat="45.97454869339121" lon="12.650873474337573"><ele>43.25</ele><time>2026-03-22T06:52:48.999Z</time></trkpt><trkpt lat="45.974607024267975" lon="12.651076341879333"><ele>43.0</ele><time>2026-03-22T06:52:49.999Z</time></trkpt><trkpt lat="45.974657979986624" lon="12.65127861846831"><ele>42.75</ele><time>2026-03-22T06:52:50.999Z</time></trkpt><trkpt lat="45.97470695631413" lon="12.651460441378328"><ele>42.5</ele><time>2026-03-22T06:52:51.999Z</time></trkpt><trkpt lat="45.9747586893894" lon="12.651648827625213"><ele>42.25</ele><time>2026-03-22T06:52:52.999Z</time></trkpt><trkpt lat="45.974814886185584" lon="12.651841067038795"><ele>42.0</ele><time>2026-03-22T06:52:53.999Z</time></trkpt><trkpt lat="45.97487038583323" lon="12.652034594869981"><ele>41.75</ele><time>2026-03-22T06:52:54.999Z</time></trkpt><trkpt lat="45.974919387924594" lon="12.65221733580971"><ele>41.5</ele><time>2026-03-22T06:52:55.999Z</time></trkpt><trkpt lat="45.9749630657449" lon="12.652387523217975"><ele>41.25</ele><time>2026-03-22T06:52:56.999Z</time></trkpt><trkpt lat="45.9750076354539" lon="12.652564768046885"><ele>41.0</ele><time>2026-03-22T06:52:57.999Z</time></trkpt><trkpt lat="45.97504940987526" lon="12.652751679590697"><ele>41.33333333333333</ele><time>2026-03-22T06:52:58.999Z</time></trkpt><trkpt lat="45.975090411710895" lon="12.652949547727282"><ele>41.666666666666664</ele><time>2026-03-22T06:52:59.999Z</time></trkpt><trkpt lat="45.97513125484152" lon="12.653170317077116"><ele>42.0</ele><time>2026-03-22T06:53:00.999Z</time></trkpt><trkpt lat="45.975173407440906" lon="12.65342309447173"><ele>40.666666666666664</ele><time>2026-03-22T06:53:01.999Z</time></trkpt><trkpt lat="45.9752107045163" lon="12.653668917376374"><ele>39.33333333333333</ele><time>2026-03-22T06:53:02.999Z</time></trkpt><trkpt lat="45.975244145770645" lon="12.653906509265466"><ele>38.0</ele><time>2026-03-22T06:53:03.999Z</time></trkpt><trkpt lat="45.97526884993334" lon="12.654119192639364"><ele>38.0</ele><time>2026-03-22T06:53:04.999Z</time></trkpt><trkpt lat="45.97529106403985" lon="12.654320557034376"><ele>38.0</ele><time>2026-03-22T06:53:05.999Z</time></trkpt><trkpt lat="45.975309867364146" lon="12.654511486210245"><ele>38.0</ele><time>2026-03-22T06:53:06.999Z</time></trkpt><trkpt lat="45.975324009271255" lon="12.654705480467975"><ele>38.0</ele><time>2026-03-22T06:53:07.999Z</time></trkpt><trkpt lat="45.9753322277126" lon="12.654917995096904"><ele>37.666666666666664</ele><time>2026-03-22T06:53:08.999Z</time></trkpt><trkpt lat="45.97534194176924" lon="12.655158662622682"><ele>37.333333333333336</ele><time>2026-03-22T06:53:09.999Z</time></trkpt><trkpt lat="45.97535488959701" lon="12.655414394625822"><ele>37.0</ele><time>2026-03-22T06:53:11Z</time></trkpt><trkpt lat="45.97536340875216" lon="12.655671353082887"><ele>38.333333333333336</ele><time>2026-03-22T06:53:12Z</time></trkpt><trkpt lat="45.97536437672072" lon="12.655917645333945"><ele>39.666666666666664</ele><time>2026-03-22T06:53:13Z</time></trkpt><trkpt lat="45.97535884866598" lon="12.656149025577907"><ele>41.0</ele><time>2026-03-22T06:53:14Z</time></trkpt><trkpt lat="45.97534402096385" lon="12.656378292696587"><ele>41.25</ele><time>2026-03-22T06:53:15Z</time></trkpt><trkpt lat="45.97533141870233" lon="12.656581730319616"><ele>41.5</ele><time>2026-03-22T06:53:16Z</time></trkpt><trkpt lat="45.975319627183175" lon="12.656769391559154"><ele>41.75</ele><time>2026-03-22T06:53:17Z</time></trkpt><trkpt lat="45.97530547713413" lon="12.656959127342793"><ele>42.0</ele><time>2026-03-22T06:53:18Z</time></trkpt><trkpt lat="45.97528617664407" lon="12.657138060721525"><ele>41.4</ele><time>2026-03-22T06:53:19Z</time></trkpt><trkpt lat="45.97526686661994" lon="12.657297798239053"><ele>40.800000000000004</ele><time>2026-03-22T06:53:20Z</time></trkpt><trkpt lat="45.97525271798065" lon="12.657435233980685"><ele>40.2</ele><time>2026-03-22T06:53:21Z</time></trkpt><trkpt lat="45.97524267439254" lon="12.657555748530344"><ele>39.6</ele><time>2026-03-22T06:53:22Z</time></trkpt><trkpt lat="45.97521762909586" lon="12.657660620300812"><ele>39.0</ele><time>2026-03-22T06:53:23Z</time></trkpt><trkpt lat="45.975209618004065" lon="12.657776160443676"><ele>39.0</ele><time>2026-03-22T06:53:25Z</time></trkpt><trkpt lat="45.97549395951373" lon="12.65780377382121"><ele>39.0</ele><time>2026-03-22T06:53:27Z</time></trkpt><trkpt lat="45.97565007773268" lon="12.657767873668044"><ele>39.0</ele><time>2026-03-22T06:53:28Z</time></trkpt><trkpt lat="45.97576308716532" lon="12.657731253280922"><ele>39.0</ele><time>2026-03-22T06:53:29Z</time></trkpt><trkpt lat="45.97586866259964" lon="12.657720889475868"><ele>39.0</ele><time>2026-03-22T06:53:30Z</time></trkpt><trkpt lat="45.97594508729542" lon="12.657766064917672"><ele>39.0</ele><time>2026-03-22T06:53:31Z</time></trkpt><trkpt lat="45.97600623675962" lon="12.657845415727646"><ele>39.0</ele><time>2026-03-22T06:53:32Z</time></trkpt><trkpt lat="45.976055570140446" lon="12.657984344235048"><ele>39.0</ele><time>2026-03-22T06:53:33Z</time></trkpt><trkpt lat="45.97611236588135" lon="12.65818111635168"><ele>39.0</ele><time>2026-03-22T06:53:34Z</time></trkpt><trkpt lat="45.97616468573045" lon="12.65842332201537"><ele>39.0</ele><time>2026-03-22T06:53:35Z</time></trkpt><trkpt lat="45.97622209276559" lon="12.658675682936599"><ele>39.0</ele><time>2026-03-22T06:53:36Z</time></trkpt><trkpt lat="45.97628689626001" lon="12.658953241090307"><ele>39.666666666666664</ele><time>2026-03-22T06:53:36.999Z</time></trkpt><trkpt lat="45.97635041103646" lon="12.65922622166814"><ele>40.33333333333333</ele><time>2026-03-22T06:53:37.999Z</time></trkpt><trkpt lat="45.97641533012878" lon="12.659504369184885"><ele>41.0</ele><time>2026-03-22T06:53:38.999Z</time></trkpt><trkpt lat="45.97648062439539" lon="12.659782972094552"><ele>41.33333333333333</ele><time>2026-03-22T06:53:39.999Z</time></trkpt><trkpt lat="45.976546801556786" lon="12.660056380313433"><ele>41.666666666666664</ele><time>2026-03-22T06:53:40.999Z</time></trkpt><trkpt lat="45.97661459454608" lon="12.660329275941285"><ele>42.0</ele><time>2026-03-22T06:53:41.999Z</time></trkpt><trkpt lat="45.97668297448849" lon="12.660611277068641"><ele>42.0</ele><time>2026-03-22T06:53:42.999Z</time></trkpt><trkpt lat="45.97675262400073" lon="12.660916575284121"><ele>42.0</ele><time>2026-03-22T06:53:43.999Z</time></trkpt><trkpt lat="45.97681694817401" lon="12.661234195901072"><ele>42.0</ele><time>2026-03-22T06:53:44.999Z</time></trkpt><trkpt lat="45.976875717579794" lon="12.661564241729112"><ele>42.0</ele><time>2026-03-22T06:53:45.999Z</time></trkpt><trkpt lat="45.97692474348377" lon="12.661925639912521"><ele>40.5</ele><time>2026-03-22T06:53:46.999Z</time></trkpt><trkpt lat="45.97696709220424" lon="12.662305183770178"><ele>39.0</ele><time>2026-03-22T06:53:47.999Z</time></trkpt><trkpt lat="45.97700065198161" lon="12.662651294293667"><ele>40.5</ele><time>2026-03-22T06:53:48.999Z</time></trkpt><trkpt lat="45.97704555381703" lon="12.662971517821845"><ele>42.0</ele><time>2026-03-22T06:53:49.999Z</time></trkpt><trkpt lat="45.97710208290914" lon="12.663294937811882"><ele>42.0</ele><time>2026-03-22T06:53:50.999Z</time></trkpt><trkpt lat="45.97717511400984" lon="12.663628138727962"><ele>42.0</ele><time>2026-03-22T06:53:51.999Z</time></trkpt><trkpt lat="45.977255207737336" lon="12.663949923162251"><ele>42.0</ele><time>2026-03-22T06:53:52.999Z</time></trkpt><trkpt lat="45.977345614171206" lon="12.664284775560464"><ele>42.0</ele><time>2026-03-22T06:53:53.999Z</time></trkpt><trkpt lat="45.977430332505556" lon="12.66458313660077"><ele>42.0</ele><time>2026-03-22T06:53:54.999Z</time></trkpt><trkpt lat="45.977509982989375" lon="12.664857680041544"><ele>42.0</ele><time>2026-03-22T06:53:55.999Z</time></trkpt><trkpt lat="45.97758504275385" lon="12.665114895449719"><ele>42.0</ele><time>2026-03-22T06:53:56.999Z</time></trkpt><trkpt lat="45.97766573281073" lon="12.665364016155102"><ele>42.666666666666664</ele><time>2026-03-22T06:53:57.999Z</time></trkpt><trkpt lat="45.977765694728156" lon="12.665636365405707"><ele>43.33333333333333</ele><time>2026-03-22T06:53:58.999Z</time></trkpt><trkpt lat="45.977873409978685" lon="12.665913235044544"><ele>44.0</ele><time>2026-03-22T06:53:59.999Z</time></trkpt><trkpt lat="45.977993237052125" lon="12.666216612500273"><ele>44.0</ele><time>2026-03-22T06:54:00.999Z</time></trkpt><trkpt lat="45.9781154040041" lon="12.666543904878775"><ele>44.0</ele><time>2026-03-22T06:54:01.999Z</time></trkpt><trkpt lat="45.97822242520599" lon="12.666867822814536"><ele>43.0</ele><time>2026-03-22T06:54:02.999Z</time></trkpt><trkpt lat="45.978314054778025" lon="12.66720051247643"><ele>42.0</ele><time>2026-03-22T06:54:03.999Z</time></trkpt><trkpt lat="45.978396695433055" lon="12.667570781435087"><ele>42.5</ele><time>2026-03-22T06:54:04.999Z</time></trkpt><trkpt lat="45.97846678631231" lon="12.667957453137682"><ele>43.0</ele><time>2026-03-22T06:54:05.999Z</time></trkpt><trkpt lat="45.978524236944494" lon="12.66837107104765"><ele>42.5</ele><time>2026-03-22T06:54:06.999Z</time></trkpt><trkpt lat="45.97857809452159" lon="12.66877887857477"><ele>42.0</ele><time>2026-03-22T06:54:07.999Z</time></trkpt><trkpt lat="45.9786497529789" lon="12.669177740174677"><ele>42.5</ele><time>2026-03-22T06:54:08.999Z</time></trkpt><trkpt lat="45.97874165459901" lon="12.669588506320038"><ele>43.0</ele><time>2026-03-22T06:54:09.999Z</time></trkpt><trkpt lat="45.978842204646234" lon="12.67001073652871"><ele>43.0</ele><time>2026-03-22T06:54:10.999Z</time></trkpt><trkpt lat="45.97894519445889" lon="12.670443175855578"><ele>43.0</ele><time>2026-03-22T06:54:11.999Z</time></trkpt><trkpt lat="45.97905292403015" lon="12.67089584526638"><ele>43.0</ele><time>2026-03-22T06:54:12.999Z</time></trkpt><trkpt lat="45.97916576184075" lon="12.671378000023818"><ele>43.0</ele><time>2026-03-22T06:54:13.999Z</time></trkpt><trkpt lat="45.9792619625169" lon="12.67180260112118"><ele>43.0</ele><time>2026-03-22T06:54:14.999Z</time></trkpt><trkpt lat="45.97937104212286" lon="12.672258225287953"><ele>43.0</ele><time>2026-03-22T06:54:15.999Z</time></trkpt><trkpt lat="45.979467035174785" lon="12.67265661422206"><ele>42.0</ele><time>2026-03-22T06:54:16.999Z</time></trkpt><trkpt lat="45.97955139711352" lon="12.67302316895344"><ele>41.0</ele><time>2026-03-22T06:54:17.999Z</time></trkpt><trkpt lat="45.97963429094697" lon="12.673369922909064"><ele>41.0</ele><time>2026-03-22T06:54:18.999Z</time></trkpt><trkpt lat="45.97971682743664" lon="12.67372447657717"><ele>41.0</ele><time>2026-03-22T06:54:19.999Z</time></trkpt><trkpt lat="45.97980126528389" lon="12.674060084604728"><ele>41.0</ele><time>2026-03-22T06:54:20.999Z</time></trkpt><trkpt lat="45.979873975880544" lon="12.674366106588298"><ele>41.0</ele><time>2026-03-22T06:54:21.999Z</time></trkpt><trkpt lat="45.97994477999128" lon="12.674649602081848"><ele>41.0</ele><time>2026-03-22T06:54:22.999Z</time></trkpt><trkpt lat="45.98001066858888" lon="12.674914511718312"><ele>43.0</ele><time>2026-03-22T06:54:23.999Z</time></trkpt><trkpt lat="45.98008221244256" lon="12.675185773741754"><ele>45.0</ele><time>2026-03-22T06:54:24.999Z</time></trkpt><trkpt lat="45.9801556274345" lon="12.675470740231864"><ele>47.0</ele><time>2026-03-22T06:54:25.999Z</time></trkpt><trkpt lat="45.98022416273104" lon="12.675731575877732"><ele>47.33333333333333</ele><time>2026-03-22T06:54:26.999Z</time></trkpt><trkpt lat="45.98028380325737" lon="12.675973702483235"><ele>47.666666666666664</ele><time>2026-03-22T06:54:27.999Z</time></trkpt><trkpt lat="45.98035098393565" lon="12.67622634980841"><ele>48.0</ele><time>2026-03-22T06:54:28.999Z</time></trkpt><trkpt lat="45.9804161885284" lon="12.676489871949043"><ele>47.0</ele><time>2026-03-22T06:54:29.999Z</time></trkpt><trkpt lat="45.980489238365614" lon="12.67676236423508"><ele>46.0</ele><time>2026-03-22T06:54:30.999Z</time></trkpt><trkpt lat="45.980554649465475" lon="12.677006775862374"><ele>45.0</ele><time>2026-03-22T06:54:31.999Z</time></trkpt><trkpt lat="45.980627052721744" lon="12.677268423214567"><ele>44.666666666666664</ele><time>2026-03-22T06:54:32.999Z</time></trkpt><trkpt lat="45.98070788504108" lon="12.67756024685741"><ele>44.33333333333333</ele><time>2026-03-22T06:54:33.999Z</time></trkpt><trkpt lat="45.98080169220595" lon="12.677863878887266"><ele>44.0</ele><time>2026-03-22T06:54:34.999Z</time></trkpt><trkpt lat="45.980874678553754" lon="12.678160310089012"><ele>44.0</ele><time>2026-03-22T06:54:35.999Z</time></trkpt><trkpt lat="45.98100140448676" lon="12.678398354834828"><ele>44.0</ele><time>2026-03-22T06:54:36.999Z</time></trkpt><trkpt lat="45.98110837902143" lon="12.678632575557128"><ele>44.0</ele><time>2026-03-22T06:54:37.999Z</time></trkpt><trkpt lat="45.98120958352778" lon="12.678858099670107"><ele>44.0</ele><time>2026-03-22T06:54:38.999Z</time></trkpt><trkpt lat="45.98131506943941" lon="12.679056774560632"><ele>44.0</ele><time>2026-03-22T06:54:39.999Z</time></trkpt><trkpt lat="45.98142030057696" lon="12.679240800370593"><ele>44.0</ele><time>2026-03-22T06:54:40.999Z</time></trkpt><trkpt lat="45.981530162429436" lon="12.679410440579659"><ele>43.666666666666664</ele><time>2026-03-22T06:54:41.999Z</time></trkpt><trkpt lat="45.981644630112406" lon="12.67958475125535"><ele>43.333333333333336</ele><time>2026-03-22T06:54:42.999Z</time></trkpt><trkpt lat="45.98176152087802" lon="12.679758817439753"><ele>43.0</ele><time>2026-03-22T06:54:43.999Z</time></trkpt><trkpt lat="45.98187788703326" lon="12.679926556904844"><ele>43.66666666666667</ele><time>2026-03-22T06:54:44.999Z</time></trkpt><trkpt lat="45.982001827869254" lon="12.680114151926647"><ele>44.333333333333336</ele><time>2026-03-22T06:54:45.999Z</time></trkpt><trkpt lat="45.98212713545327" lon="12.680303718599825"><ele>45.0</ele><time>2026-03-22T06:54:46.999Z</time></trkpt><trkpt lat="45.982252457828864" lon="12.680491762257656"><ele>45.0</ele><time>2026-03-22T06:54:47.999Z</time></trkpt><trkpt lat="45.98236941826998" lon="12.680664768995262"><ele>45.0</ele><time>2026-03-22T06:54:48.999Z</time></trkpt><trkpt lat="45.9824801522151" lon="12.680821788024744"><ele>45.0</ele><time>2026-03-22T06:54:49.999Z</time></trkpt><trkpt lat="45.98257831623072" lon="12.680974277239038"><ele>45.25</ele><time>2026-03-22T06:54:50.999Z</time></trkpt><trkpt lat="45.982678823263456" lon="12.681132490391247"><ele>45.5</ele><time>2026-03-22T06:54:51.999Z</time></trkpt><trkpt lat="45.98277981194597" lon="12.681297957698387"><ele>45.75</ele><time>2026-03-22T06:54:52.999Z</time></trkpt><trkpt lat="45.98287951527975" lon="12.68145234463264"><ele>46.0</ele><time>2026-03-22T06:54:53.999Z</time></trkpt><trkpt lat="45.98298992171321" lon="12.68161574806889"><ele>46.0</ele><time>2026-03-22T06:54:54.999Z</time></trkpt><trkpt lat="45.98310573517764" lon="12.681790206047515"><ele>46.0</ele><time>2026-03-22T06:54:55.999Z</time></trkpt><trkpt lat="45.98321128004346" lon="12.681951266597904"><ele>46.0</ele><time>2026-03-22T06:54:56.999Z</time></trkpt><trkpt lat="45.98330567739715" lon="12.682101314519917"><ele>45.25</ele><time>2026-03-22T06:54:57.999Z</time></trkpt><trkpt lat="45.98339375594359" lon="12.68223699890231"><ele>44.5</ele><time>2026-03-22T06:54:58.999Z</time></trkpt><trkpt lat="45.98347458331133" lon="12.682366063524809"><ele>43.75</ele><time>2026-03-22T06:54:59.999Z</time></trkpt><trkpt lat="45.98354474548916" lon="12.682484377952745"><ele>43.0</ele><time>2026-03-22T06:55:00.999Z</time></trkpt><trkpt lat="45.98360998667112" lon="12.682594342054362"><ele>43.0</ele><time>2026-03-22T06:55:01.999Z</time></trkpt><trkpt lat="45.98367226367578" lon="12.682696669941395"><ele>43.0</ele><time>2026-03-22T06:55:02.999Z</time></trkpt><trkpt lat="45.983727859230825" lon="12.682796595914152"><ele>43.0</ele><time>2026-03-22T06:55:03.999Z</time></trkpt><trkpt lat="45.983785274505536" lon="12.68290056859829"><ele>43.0</ele><time>2026-03-22T06:55:04.999Z</time></trkpt><trkpt lat="45.98383008607084" lon="12.682990011315862"><ele>43.0</ele><time>2026-03-22T06:55:05.999Z</time></trkpt><trkpt lat="45.98384917597054" lon="12.683108991316503"><ele>43.0</ele><time>2026-03-22T06:55:07.999Z</time></trkpt><trkpt lat="45.983757585716475" lon="12.68320469534703"><ele>42.8</ele><time>2026-03-22T06:55:09.999Z</time></trkpt><trkpt lat="45.983694320663076" lon="12.683270962314008"><ele>42.599999999999994</ele><time>2026-03-22T06:55:11Z</time></trkpt><trkpt lat="45.98361986834919" lon="12.683352881031258"><ele>42.400000000000006</ele><time>2026-03-22T06:55:12Z</time></trkpt><trkpt lat="45.983538530986294" lon="12.683445537878614"><ele>42.2</ele><time>2026-03-22T06:55:13Z</time></trkpt><trkpt lat="45.98345441168802" lon="12.683545073402517"><ele>42.0</ele><time>2026-03-22T06:55:14Z</time></trkpt><trkpt lat="45.98337036000749" lon="12.683650804668261"><ele>42.25</ele><time>2026-03-22T06:55:15Z</time></trkpt><trkpt lat="45.98328233556762" lon="12.683764389450923"><ele>42.5</ele><time>2026-03-22T06:55:16Z</time></trkpt><trkpt lat="45.98318683300246" lon="12.68388616472981"><ele>42.75</ele><time>2026-03-22T06:55:17Z</time></trkpt><trkpt lat="45.983092074568845" lon="12.684002546289964"><ele>43.0</ele><time>2026-03-22T06:55:18Z</time></trkpt><trkpt lat="45.98299855423262" lon="12.684110286521468"><ele>43.0</ele><time>2026-03-22T06:55:19Z</time></trkpt><trkpt lat="45.98290762971306" lon="12.684209296175876"><ele>43.0</ele><time>2026-03-22T06:55:20Z</time></trkpt><trkpt lat="45.98281388086921" lon="12.684307528045261"><ele>43.0</ele><time>2026-03-22T06:55:21Z</time></trkpt><trkpt lat="45.982723634981475" lon="12.684404669237082"><ele>43.0</ele><time>2026-03-22T06:55:22Z</time></trkpt><trkpt lat="45.982631798602284" lon="12.684499202539458"><ele>42.833333333333336</ele><time>2026-03-22T06:55:23Z</time></trkpt><trkpt lat="45.98255097458046" lon="12.684587894227565"><ele>42.66666666666667</ele><time>2026-03-22T06:55:24Z</time></trkpt><trkpt lat="45.98247463437262" lon="12.684671169872734"><ele>42.5</ele><time>2026-03-22T06:55:25Z</time></trkpt><trkpt lat="45.9824077009092" lon="12.684750781273324"><ele>42.333333333333336</ele><time>2026-03-22T06:55:26Z</time></trkpt><trkpt lat="45.982349425346904" lon="12.684820603226315"><ele>42.166666666666664</ele><time>2026-03-22T06:55:27Z</time></trkpt><trkpt lat="45.98231156382752" lon="12.684928269475803"><ele>42.0</ele><time>2026-03-22T06:55:29Z</time></trkpt><trkpt lat="45.98235310336973" lon="12.685103965937376"><ele>42.0</ele><time>2026-03-22T06:55:31Z</time></trkpt><trkpt lat="45.98240602289586" lon="12.685245873068691"><ele>42.0</ele><time>2026-03-22T06:55:32Z</time></trkpt><trkpt lat="45.98247881153999" lon="12.685401372160703"><ele>42.0</ele><time>2026-03-22T06:55:33Z</time></trkpt><trkpt lat="45.98254656745064" lon="12.685522550603189"><ele>42.0</ele><time>2026-03-22T06:55:34Z</time></trkpt><trkpt lat="45.982607726793276" lon="12.685627370904768"><ele>42.0</ele><time>2026-03-22T06:55:35Z</time></trkpt><trkpt lat="45.98266948472906" lon="12.6857327360053"><ele>41.75</ele><time>2026-03-22T06:55:36Z</time></trkpt><trkpt lat="45.98274056689479" lon="12.685847112102778"><ele>41.5</ele><time>2026-03-22T06:55:37Z</time></trkpt><trkpt lat="45.98281910575972" lon="12.68596563044589"><ele>41.25</ele><time>2026-03-22T06:55:38Z</time></trkpt><trkpt lat="45.982905822429224" lon="12.686118973739148"><ele>41.0</ele><time>2026-03-22T06:55:39Z</time></trkpt><trkpt lat="45.98299214693475" lon="12.686278428911411"><ele>41.5</ele><time>2026-03-22T06:55:40Z</time></trkpt><trkpt lat="45.983073630459536" lon="12.686426511678338"><ele>42.0</ele><time>2026-03-22T06:55:41Z</time></trkpt><trkpt lat="45.98315111354578" lon="12.686557746972888"><ele>42.5</ele><time>2026-03-22T06:55:42Z</time></trkpt><trkpt lat="45.983229639843515" lon="12.686685800830416"><ele>43.0</ele><time>2026-03-22T06:55:43Z</time></trkpt><trkpt lat="45.98330712878559" lon="12.68681451545904"><ele>44.0</ele><time>2026-03-22T06:55:44Z</time></trkpt><trkpt lat="45.98337878810503" lon="12.68694911857502"><ele>45.0</ele><time>2026-03-22T06:55:45Z</time></trkpt><trkpt lat="45.983447927145235" lon="12.687103189886356"><ele>46.0</ele><time>2026-03-22T06:55:46Z</time></trkpt><trkpt lat="45.983517704175966" lon="12.68726094386881"><ele>47.0</ele><time>2026-03-22T06:55:47Z</time></trkpt><trkpt lat="45.98357372224187" lon="12.687401106360463"><ele>47.0</ele><time>2026-03-22T06:55:48Z</time></trkpt><trkpt lat="45.9836287376628" lon="12.68752317367742"><ele>47.0</ele><time>2026-03-22T06:55:49Z</time></trkpt><trkpt lat="45.98367989471789" lon="12.68764192569988"><ele>47.0</ele><time>2026-03-22T06:55:50Z</time></trkpt><trkpt lat="45.98371538080093" lon="12.68775313348022"><ele>47.0</ele><time>2026-03-22T06:55:50.999Z</time></trkpt><trkpt lat="45.98373384440938" lon="12.687860609136628"><ele>47.0</ele><time>2026-03-22T06:55:51.999Z</time></trkpt><trkpt lat="45.983735866561865" lon="12.687981178227425"><ele>47.0</ele><time>2026-03-22T06:55:52.999Z</time></trkpt><trkpt lat="45.98372734404113" lon="12.688108538964771"><ele>46.6</ele><time>2026-03-22T06:55:53.999Z</time></trkpt><trkpt lat="45.98371377866152" lon="12.688236130680002"><ele>46.2</ele><time>2026-03-22T06:55:54.999Z</time></trkpt><trkpt lat="45.983691270005444" lon="12.688349968926365"><ele>45.8</ele><time>2026-03-22T06:55:55.999Z</time></trkpt><trkpt lat="45.98366945651131" lon="12.688441534315118"><ele>45.4</ele><time>2026-03-22T06:55:56.999Z</time></trkpt><trkpt lat="45.983635165876215" lon="12.688598260441953"><ele>45.0</ele><time>2026-03-22T06:55:58.999Z</time></trkpt><trkpt lat="45.98346721764815" lon="12.688627341076685"><ele>44.75</ele><time>2026-03-22T06:55:59.999Z</time></trkpt><trkpt lat="45.98338124365636" lon="12.688730269434924"><ele>44.5</ele><time>2026-03-22T06:56:00.999Z</time></trkpt><trkpt lat="45.98329794938648" lon="12.68884456483465"><ele>44.25</ele><time>2026-03-22T06:56:01.999Z</time></trkpt><trkpt lat="45.983208009993824" lon="12.688964084451555"><ele>44.0</ele><time>2026-03-22T06:56:02.999Z</time></trkpt><trkpt lat="45.98311428489064" lon="12.68907994102771"><ele>44.0</ele><time>2026-03-22T06:56:03.999Z</time></trkpt><trkpt lat="45.9830171460151" lon="12.689200055481992"><ele>44.0</ele><time>2026-03-22T06:56:04.999Z</time></trkpt><trkpt lat="45.98292423993853" lon="12.689321989560176"><ele>44.0</ele><time>2026-03-22T06:56:05.999Z</time></trkpt><trkpt lat="45.98283639155586" lon="12.68942972360715"><ele>44.0</ele><time>2026-03-22T06:56:06.999Z</time></trkpt><trkpt lat="45.982757822688754" lon="12.689527908343775"><ele>44.0</ele><time>2026-03-22T06:56:07.999Z</time></trkpt><trkpt lat="45.98268269291544" lon="12.689620373453879"><ele>44.0</ele><time>2026-03-22T06:56:08.999Z</time></trkpt><trkpt lat="45.98261074927537" lon="12.689713776428528"><ele>44.0</ele><time>2026-03-22T06:56:09.999Z</time></trkpt><trkpt lat="45.98252749067961" lon="12.68981425831533"><ele>44.0</ele><time>2026-03-22T06:56:10.999Z</time></trkpt><trkpt lat="45.982445663843116" lon="12.689924068617627"><ele>44.0</ele><time>2026-03-22T06:56:11.999Z</time></trkpt><trkpt lat="45.98236901893512" lon="12.69002228359991"><ele>43.6</ele><time>2026-03-22T06:56:12.999Z</time></trkpt><trkpt lat="45.98230296345542" lon="12.690101862434807"><ele>43.2</ele><time>2026-03-22T06:56:13.999Z</time></trkpt><trkpt lat="45.98224300234969" lon="12.690160728650186"><ele>42.800000000000004</ele><time>2026-03-22T06:56:14.999Z</time></trkpt><trkpt lat="45.98218521067465" lon="12.690233829197394"><ele>42.400000000000006</ele><time>2026-03-22T06:56:20.999Z</time></trkpt><trkpt lat="45.982263344321545" lon="12.690451674940622"><ele>42.0</ele><time>2026-03-22T06:56:22.999Z</time></trkpt><trkpt lat="45.982321811455634" lon="12.690539830176359"><ele>42.0</ele><time>2026-03-22T06:56:23.999Z</time></trkpt><trkpt lat="45.98237608603756" lon="12.690609451916322"><ele>42.0</ele><time>2026-03-22T06:56:24.999Z</time></trkpt><trkpt lat="45.982448811444904" lon="12.690692547963222"><ele>42.0</ele><time>2026-03-22T06:56:26.999Z</time></trkpt><trkpt lat="45.982505135389495" lon="12.690740299265531"><ele>42.0</ele><time>2026-03-22T06:57:17.999Z</time></trkpt><trkpt lat="45.982614032200914" lon="12.69083510445352"><ele>42.0</ele><time>2026-03-22T06:57:19.999Z</time></trkpt><trkpt lat="45.982682808266865" lon="12.690902023678035"><ele>42.0</ele><time>2026-03-22T06:57:20.999Z</time></trkpt><trkpt lat="45.98274829078394" lon="12.690972867095208"><ele>42.25</ele><time>2026-03-22T06:57:21.999Z</time></trkpt><trkpt lat="45.982818024202004" lon="12.691062600143985"><ele>42.5</ele><time>2026-03-22T06:57:22.999Z</time></trkpt><trkpt lat="45.98288445506778" lon="12.69118425970161"><ele>42.75</ele><time>2026-03-22T06:57:23.999Z</time></trkpt><trkpt lat="45.98296647991389" lon="12.691348945126183"><ele>43.0</ele><time>2026-03-22T06:57:24.999Z</time></trkpt><trkpt lat="45.98304110406538" lon="12.691519091341153"><ele>43.0</ele><time>2026-03-22T06:57:25.999Z</time></trkpt><trkpt lat="45.98311042962739" lon="12.69166611718785"><ele>43.0</ele><time>2026-03-22T06:57:26.999Z</time></trkpt><trkpt lat="45.98317978558842" lon="12.691797341218091"><ele>43.0</ele><time>2026-03-22T06:57:27.999Z</time></trkpt><trkpt lat="45.98323902449674" lon="12.691919509929413"><ele>43.0</ele><time>2026-03-22T06:57:29Z</time></trkpt><trkpt lat="45.98328987234806" lon="12.692038304409564"><ele>43.0</ele><time>2026-03-22T06:57:30Z</time></trkpt><trkpt lat="45.983336645535466" lon="12.692141861938172"><ele>43.0</ele><time>2026-03-22T06:57:31Z</time></trkpt><trkpt lat="45.98338274910766" lon="12.69223563173"><ele>43.0</ele><time>2026-03-22T06:57:32Z</time></trkpt><trkpt lat="45.983424499026846" lon="12.692324054564688"><ele>43.0</ele><time>2026-03-22T06:57:33Z</time></trkpt><trkpt lat="45.98346134621175" lon="12.692399244717748"><ele>43.0</ele><time>2026-03-22T06:57:34Z</time></trkpt><trkpt lat="45.98353810282504" lon="12.692481610217616"><ele>43.0</ele><time>2026-03-22T06:57:36Z</time></trkpt><trkpt lat="45.983612221371416" lon="12.69242954887953"><ele>43.0</ele><time>2026-03-22T06:57:38Z</time></trkpt><trkpt lat="45.983647253259925" lon="12.692319769019791"><ele>43.0</ele><time>2026-03-22T06:57:39Z</time></trkpt><trkpt lat="45.98369519402304" lon="12.6921890264276"><ele>43.0</ele><time>2026-03-22T06:57:40Z</time></trkpt><trkpt lat="45.98381305645747" lon="12.692084162029554"><ele>43.0</ele><time>2026-03-22T06:57:41Z</time></trkpt><trkpt lat="45.983943944671324" lon="12.691929326047573"><ele>43.0</ele><time>2026-03-22T06:57:42Z</time></trkpt><trkpt lat="45.98408933879383" lon="12.691745140168875"><ele>43.0</ele><time>2026-03-22T06:57:43Z</time></trkpt><trkpt lat="45.984231273645634" lon="12.691531718277783"><ele>43.0</ele><time>2026-03-22T06:57:44Z</time></trkpt><trkpt lat="45.984382708149326" lon="12.691345033031416"><ele>43.0</ele><time>2026-03-22T06:57:45Z</time></trkpt><trkpt lat="45.98452047366073" lon="12.691175392999755"><ele>43.333333333333336</ele><time>2026-03-22T06:57:46Z</time></trkpt><trkpt lat="45.98464933151524" lon="12.691019416373914"><ele>43.666666666666664</ele><time>2026-03-22T06:57:47Z</time></trkpt><trkpt lat="45.98477285387638" lon="12.690872692722673"><ele>44.0</ele><time>2026-03-22T06:57:48Z</time></trkpt><trkpt lat="45.98490180230055" lon="12.690719553121335"><ele>44.33333333333333</ele><time>2026-03-22T06:57:49Z</time></trkpt><trkpt lat="45.98503185483358" lon="12.69055869348973"><ele>44.666666666666664</ele><time>2026-03-22T06:57:50Z</time></trkpt><trkpt lat="45.98517173187788" lon="12.690419983054262"><ele>45.0</ele><time>2026-03-22T06:57:51Z</time></trkpt><trkpt lat="45.985312169481716" lon="12.69028179662166"><ele>45.0</ele><time>2026-03-22T06:57:52Z</time></trkpt><trkpt lat="45.985467459422395" lon="12.69013060179343"><ele>45.0</ele><time>2026-03-22T06:57:53Z</time></trkpt><trkpt lat="45.985602779229204" lon="12.689999511512953"><ele>45.0</ele><time>2026-03-22T06:57:54Z</time></trkpt><trkpt lat="45.98573640591556" lon="12.689873375511828"><ele>45.75</ele><time>2026-03-22T06:57:55Z</time></trkpt><trkpt lat="45.985861275686695" lon="12.689771622397437"><ele>46.5</ele><time>2026-03-22T06:57:56Z</time></trkpt><trkpt lat="45.9859818364752" lon="12.689688598101595"><ele>47.25</ele><time>2026-03-22T06:57:56.999Z</time></trkpt><trkpt lat="45.98610903426362" lon="12.689607784046183"><ele>48.0</ele><time>2026-03-22T06:57:57.999Z</time></trkpt><trkpt lat="45.986253337577566" lon="12.6895183438013"><ele>48.0</ele><time>2026-03-22T06:57:58.999Z</time></trkpt><trkpt lat="45.98641710625757" lon="12.689416837950583"><ele>48.0</ele><time>2026-03-22T06:57:59.999Z</time></trkpt><trkpt lat="45.98657324020956" lon="12.689317427822019"><ele>48.0</ele><time>2026-03-22T06:58:00.999Z</time></trkpt><trkpt lat="45.98671255617574" lon="12.689230068421331"><ele>48.0</ele><time>2026-03-22T06:58:01.999Z</time></trkpt><trkpt lat="45.98684013043207" lon="12.689152443713633"><ele>48.0</ele><time>2026-03-22T06:58:02.999Z</time></trkpt><trkpt lat="45.98694284462019" lon="12.6890619827535"><ele>48.0</ele><time>2026-03-22T06:58:03.999Z</time></trkpt><trkpt lat="45.98702814941459" lon="12.689013431833766"><ele>48.0</ele><time>2026-03-22T06:58:04.999Z</time></trkpt><trkpt lat="45.98709218018836" lon="12.688981519609637"><ele>48.0</ele><time>2026-03-22T06:58:05.999Z</time></trkpt><trkpt lat="45.987183547165" lon="12.689009140089993"><ele>48.0</ele><time>2026-03-22T06:58:08.999Z</time></trkpt><trkpt lat="45.98723061597919" lon="12.689077143652781"><ele>48.0</ele><time>2026-03-22T06:58:09.999Z</time></trkpt><trkpt lat="45.98727911822996" lon="12.6892153449899"><ele>48.0</ele><time>2026-03-22T06:58:10.999Z</time></trkpt><trkpt lat="45.9873492991498" lon="12.689380965658238"><ele>48.0</ele><time>2026-03-22T06:58:11.999Z</time></trkpt><trkpt lat="45.98744615771858" lon="12.689578915797387"><ele>48.33333333333333</ele><time>2026-03-22T06:58:12.999Z</time></trkpt><trkpt lat="45.98755770339007" lon="12.689804077325627"><ele>48.666666666666664</ele><time>2026-03-22T06:58:13.999Z</time></trkpt><trkpt lat="45.9876655695725" lon="12.690049274068073"><ele>49.0</ele><time>2026-03-22T06:58:14.999Z</time></trkpt><trkpt lat="45.987786181389275" lon="12.69032839860611"><ele>48.666666666666664</ele><time>2026-03-22T06:58:15.999Z</time></trkpt><trkpt lat="45.987906172303155" lon="12.690618142922437"><ele>48.33333333333333</ele><time>2026-03-22T06:58:16.999Z</time></trkpt><trkpt lat="45.988009287122075" lon="12.69087970177553"><ele>48.0</ele><time>2026-03-22T06:58:17.999Z</time></trkpt><trkpt lat="45.98811096170139" lon="12.691138538545944"><ele>48.0</ele><time>2026-03-22T06:58:18.999Z</time></trkpt><trkpt lat="45.988222615441636" lon="12.691419949281816"><ele>48.0</ele><time>2026-03-22T06:58:19.999Z</time></trkpt><trkpt lat="45.98833756318998" lon="12.69171148990892"><ele>47.5</ele><time>2026-03-22T06:58:20.999Z</time></trkpt><trkpt lat="45.98845731131294" lon="12.692008873314917"><ele>47.0</ele><time>2026-03-22T06:58:21.999Z</time></trkpt><trkpt lat="45.988576967927024" lon="12.692304866950336"><ele>47.0</ele><time>2026-03-22T06:58:22.999Z</time></trkpt><trkpt lat="45.98869452797142" lon="12.692605687821839"><ele>47.0</ele><time>2026-03-22T06:58:23.999Z</time></trkpt><trkpt lat="45.98881565702211" lon="12.692917270649136"><ele>47.0</ele><time>2026-03-22T06:58:24.999Z</time></trkpt><trkpt lat="45.98892941162246" lon="12.693208434711481"><ele>47.0</ele><time>2026-03-22T06:58:25.999Z</time></trkpt><trkpt lat="45.98903380005119" lon="12.693481304341352"><ele>47.0</ele><time>2026-03-22T06:58:26.999Z</time></trkpt><trkpt lat="45.98913335639685" lon="12.693739432815232"><ele>47.0</ele><time>2026-03-22T06:58:27.999Z</time></trkpt><trkpt lat="45.9892289840411" lon="12.693989681081199"><ele>47.0</ele><time>2026-03-22T06:58:28.999Z</time></trkpt><trkpt lat="45.98931570162848" lon="12.694223516713135"><ele>47.0</ele><time>2026-03-22T06:58:29.999Z</time></trkpt><trkpt lat="45.989400192613765" lon="12.69445016500271"><ele>47.666666666666664</ele><time>2026-03-22T06:58:30.999Z</time></trkpt><trkpt lat="45.989479922633585" lon="12.694661645614126"><ele>48.33333333333333</ele><time>2026-03-22T06:58:31.999Z</time></trkpt><trkpt lat="45.989551901509095" lon="12.694858952036645"><ele>49.0</ele><time>2026-03-22T06:58:32.999Z</time></trkpt><trkpt lat="45.98961832285139" lon="12.695046640288203"><ele>49.0</ele><time>2026-03-22T06:58:33.999Z</time></trkpt><trkpt lat="45.98967316654598" lon="12.695227194580134"><ele>49.0</ele><time>2026-03-22T06:58:34.999Z</time></trkpt><trkpt lat="45.98971913601731" lon="12.695407463441413"><ele>49.0</ele><time>2026-03-22T06:58:35.999Z</time></trkpt><trkpt lat="45.98976231893053" lon="12.695617872603501"><ele>49.0</ele><time>2026-03-22T06:58:36.999Z</time></trkpt><trkpt lat="45.98979292779214" lon="12.695862349246031"><ele>48.0</ele><time>2026-03-22T06:58:37.999Z</time></trkpt><trkpt lat="45.98981699283968" lon="12.696130640009558"><ele>47.0</ele><time>2026-03-22T06:58:38.999Z</time></trkpt><trkpt lat="45.98984337546584" lon="12.696417123950393"><ele>46.0</ele><time>2026-03-22T06:58:39.999Z</time></trkpt><trkpt lat="45.98988103847058" lon="12.69671786549551"><ele>46.0</ele><time>2026-03-22T06:58:40.999Z</time></trkpt><trkpt lat="45.98991707850336" lon="12.697007801402378"><ele>46.0</ele><time>2026-03-22T06:58:41.999Z</time></trkpt><trkpt lat="45.9899550522148" lon="12.69727213641625"><ele>46.0</ele><time>2026-03-22T06:58:42.999Z</time></trkpt><trkpt lat="45.989998347117115" lon="12.697519683717323"><ele>46.0</ele><time>2026-03-22T06:58:43.999Z</time></trkpt><trkpt lat="45.9900565907511" lon="12.697774997477799"><ele>46.0</ele><time>2026-03-22T06:58:44.999Z</time></trkpt><trkpt lat="45.9901238175112" lon="12.698045600589838"><ele>46.0</ele><time>2026-03-22T06:58:45.999Z</time></trkpt><trkpt lat="45.9901910486704" lon="12.698307537196063"><ele>46.0</ele><time>2026-03-22T06:58:46.999Z</time></trkpt><trkpt lat="45.99027163349804" lon="12.698575962952305"><ele>46.0</ele><time>2026-03-22T06:58:47.999Z</time></trkpt><trkpt lat="45.990358985411035" lon="12.69884248791156"><ele>46.0</ele><time>2026-03-22T06:58:48.999Z</time></trkpt><trkpt lat="45.99044196759034" lon="12.699080746208416"><ele>46.0</ele><time>2026-03-22T06:58:49.999Z</time></trkpt><trkpt lat="45.990511902731534" lon="12.699297505191554"><ele>46.0</ele><time>2026-03-22T06:58:50.999Z</time></trkpt><trkpt lat="45.990567330307975" lon="12.699499346093653"><ele>46.0</ele><time>2026-03-22T06:58:51.999Z</time></trkpt><trkpt lat="45.990611192162184" lon="12.699691996304015"><ele>46.0</ele><time>2026-03-22T06:58:52.999Z</time></trkpt><trkpt lat="45.99064533741158" lon="12.69993441136052"><ele>46.0</ele><time>2026-03-22T06:58:53.999Z</time></trkpt><trkpt lat="45.990673013926454" lon="12.70022734047473"><ele>46.0</ele><time>2026-03-22T06:58:54.999Z</time></trkpt><trkpt lat="45.99070521985939" lon="12.700543832927282"><ele>45.333333333333336</ele><time>2026-03-22T06:58:55.999Z</time></trkpt><trkpt lat="45.9907283399702" lon="12.70081566302196"><ele>44.666666666666664</ele><time>2026-03-22T06:58:56.999Z</time></trkpt><trkpt lat="45.990759647287994" lon="12.70105609116021"><ele>44.0</ele><time>2026-03-22T06:58:57.999Z</time></trkpt><trkpt lat="45.99078209166195" lon="12.701246712093116"><ele>43.800000000000004</ele><time>2026-03-22T06:58:58.999Z</time></trkpt><trkpt lat="45.990807650963696" lon="12.701395880531965"><ele>43.6</ele><time>2026-03-22T06:58:59.999Z</time></trkpt><trkpt lat="45.990827768187366" lon="12.701510411497445"><ele>43.4</ele><time>2026-03-22T06:59:00.999Z</time></trkpt><trkpt lat="45.99085641810679" lon="12.701598482818302"><ele>43.2</ele><time>2026-03-22T06:59:01.999Z</time></trkpt><trkpt lat="45.990971943082975" lon="12.701690633548989"><ele>43.0</ele><time>2026-03-22T06:59:03.999Z</time></trkpt><trkpt lat="45.99105778574141" lon="12.701718969751225"><ele>43.75</ele><time>2026-03-22T06:59:04.999Z</time></trkpt><trkpt lat="45.991109238684054" lon="12.701789240462539"><ele>44.5</ele><time>2026-03-22T06:59:05.999Z</time></trkpt><trkpt lat="45.991172261045335" lon="12.701933728331511"><ele>45.25</ele><time>2026-03-22T06:59:06.999Z</time></trkpt><trkpt lat="45.99124197760394" lon="12.70212510289546"><ele>46.0</ele><time>2026-03-22T06:59:07.999Z</time></trkpt><trkpt lat="45.99132834450512" lon="12.702346901783617"><ele>46.0</ele><time>2026-03-22T06:59:08.999Z</time></trkpt><trkpt lat="45.99142565952685" lon="12.702577252074848"><ele>46.0</ele><time>2026-03-22T06:59:09.999Z</time></trkpt><trkpt lat="45.99154117297973" lon="12.7028300788645"><ele>46.0</ele><time>2026-03-22T06:59:10.999Z</time></trkpt><trkpt lat="45.99163919602005" lon="12.70308585045146"><ele>45.66666666666667</ele><time>2026-03-22T06:59:11.999Z</time></trkpt><trkpt lat="45.99171739471213" lon="12.703329618672056"><ele>45.333333333333336</ele><time>2026-03-22T06:59:12.999Z</time></trkpt><trkpt lat="45.99181557090335" lon="12.703573826080286"><ele>45.0</ele><time>2026-03-22T06:59:13.999Z</time></trkpt><trkpt lat="45.99195632035103" lon="12.703813805770332"><ele>45.0</ele><time>2026-03-22T06:59:14.999Z</time></trkpt><trkpt lat="45.99209263106923" lon="12.704026365259356"><ele>45.0</ele><time>2026-03-22T06:59:15.999Z</time></trkpt><trkpt lat="45.99221785753656" lon="12.704216050668547"><ele>45.0</ele><time>2026-03-22T06:59:16.999Z</time></trkpt><trkpt lat="45.99234487584267" lon="12.70439071677864"><ele>45.333333333333336</ele><time>2026-03-22T06:59:17.999Z</time></trkpt><trkpt lat="45.99248517229339" lon="12.704556623877947"><ele>45.66666666666667</ele><time>2026-03-22T06:59:19Z</time></trkpt><trkpt lat="45.99264752399015" lon="12.704741812268047"><ele>46.0</ele><time>2026-03-22T06:59:20Z</time></trkpt><trkpt lat="45.99283245804987" lon="12.704931150326146"><ele>46.0</ele><time>2026-03-22T06:59:21Z</time></trkpt><trkpt lat="45.99302381948697" lon="12.70511979418166"><ele>46.0</ele><time>2026-03-22T06:59:22Z</time></trkpt><trkpt lat="45.99319700567751" lon="12.705295362677395"><ele>46.0</ele><time>2026-03-22T06:59:23Z</time></trkpt><trkpt lat="45.99334645778861" lon="12.705459586327624"><ele>46.25</ele><time>2026-03-22T06:59:24Z</time></trkpt><trkpt lat="45.99347967399376" lon="12.705616208204606"><ele>46.5</ele><time>2026-03-22T06:59:25Z</time></trkpt><trkpt lat="45.9935984148674" lon="12.705744900825954"><ele>46.75</ele><time>2026-03-22T06:59:26Z</time></trkpt><trkpt lat="45.99369198066075" lon="12.70586285291664"><ele>47.0</ele><time>2026-03-22T06:59:27Z</time></trkpt><trkpt lat="45.99376508320381" lon="12.705984911183327"><ele>46.666666666666664</ele><time>2026-03-22T06:59:28Z</time></trkpt><trkpt lat="45.99380512902428" lon="12.706147674567873"><ele>46.333333333333336</ele><time>2026-03-22T06:59:29Z</time></trkpt><trkpt lat="45.99387401653361" lon="12.706351087241268"><ele>46.0</ele><time>2026-03-22T06:59:30Z</time></trkpt><trkpt lat="45.99397244443446" lon="12.706596873175219"><ele>46.0</ele><time>2026-03-22T06:59:31Z</time></trkpt><trkpt lat="45.99406880003246" lon="12.706893134080804"><ele>46.0</ele><time>2026-03-22T06:59:32Z</time></trkpt><trkpt lat="45.994165760890326" lon="12.70721883369122"><ele>46.66666666666667</ele><time>2026-03-22T06:59:33Z</time></trkpt><trkpt lat="45.994243572757775" lon="12.7075065687274"><ele>47.333333333333336</ele><time>2026-03-22T06:59:34Z</time></trkpt><trkpt lat="45.99430972317244" lon="12.707755087886692"><ele>48.0</ele><time>2026-03-22T06:59:35Z</time></trkpt><trkpt lat="45.9943650912946" lon="12.70796831200899"><ele>48.0</ele><time>2026-03-22T06:59:36Z</time></trkpt><trkpt lat="45.99440786594103" lon="12.708152643399904"><ele>48.0</ele><time>2026-03-22T06:59:37Z</time></trkpt><trkpt lat="45.994434855704306" lon="12.708304251218824"><ele>48.0</ele><time>2026-03-22T06:59:38Z</time></trkpt><trkpt lat="45.99445549539176" lon="12.708423511136498"><ele>48.0</ele><time>2026-03-22T06:59:39Z</time></trkpt><trkpt lat="45.994454772774645" lon="12.708533536125886"><ele>48.0</ele><time>2026-03-22T06:59:40Z</time></trkpt><trkpt lat="45.994485130476086" lon="12.708706536114812"><ele>48.33333333333333</ele><time>2026-03-22T06:59:41Z</time></trkpt><trkpt lat="45.99454214021095" lon="12.708941912818968"><ele>48.666666666666664</ele><time>2026-03-22T06:59:42Z</time></trkpt><trkpt lat="45.99461743301434" lon="12.709212084717302"><ele>49.0</ele><time>2026-03-22T06:59:43Z</time></trkpt><trkpt lat="45.99468707903899" lon="12.709484392482377"><ele>48.33333333333333</ele><time>2026-03-22T06:59:44Z</time></trkpt><trkpt lat="45.99473784482162" lon="12.70972962340433"><ele>47.666666666666664</ele><time>2026-03-22T06:59:45Z</time></trkpt><trkpt lat="45.99479331232374" lon="12.709953683959725"><ele>47.0</ele><time>2026-03-22T06:59:46Z</time></trkpt><trkpt lat="45.994843231013164" lon="12.71016248861453"><ele>47.0</ele><time>2026-03-22T06:59:47Z</time></trkpt><trkpt lat="45.99487937559792" lon="12.710341297162186"><ele>47.0</ele><time>2026-03-22T06:59:48Z</time></trkpt><trkpt lat="45.99490809988141" lon="12.710489253011984"><ele>47.0</ele><time>2026-03-22T06:59:49Z</time></trkpt><trkpt lat="45.99492964267558" lon="12.710597227669503"><ele>47.0</ele><time>2026-03-22T06:59:50Z</time></trkpt><trkpt lat="45.994939857123576" lon="12.710705172036949"><ele>47.0</ele><time>2026-03-22T06:59:52Z</time></trkpt><trkpt lat="45.99491148147995" lon="12.710860644084992"><ele>47.0</ele><time>2026-03-22T06:59:55Z</time></trkpt><trkpt lat="45.99496897443932" lon="12.710995628709405"><ele>47.0</ele><time>2026-03-22T06:59:57Z</time></trkpt><trkpt lat="45.9950841700307" lon="12.711109739630874"><ele>47.0</ele><time>2026-03-22T06:59:58Z</time></trkpt><trkpt lat="45.99520028318099" lon="12.711242339969044"><ele>47.0</ele><time>2026-03-22T06:59:59Z</time></trkpt><trkpt lat="45.995326645495425" lon="12.711390301161604"><ele>48.0</ele><time>2026-03-22T07:00:00Z</time></trkpt><trkpt lat="45.995493752321245" lon="12.711571157015038"><ele>49.0</ele><time>2026-03-22T07:00:01Z</time></trkpt><trkpt lat="45.995672120259606" lon="12.711750557540904"><ele>50.0</ele><time>2026-03-22T07:00:02Z</time></trkpt><trkpt lat="45.99583722449015" lon="12.711906285370421"><ele>50.66666666666667</ele><time>2026-03-22T07:00:03Z</time></trkpt><trkpt lat="45.99599158735667" lon="12.7120609957369"><ele>51.33333333333333</ele><time>2026-03-22T07:00:04Z</time></trkpt><trkpt lat="45.996144079593805" lon="12.712212581102678"><ele>52.0</ele><time>2026-03-22T07:00:05Z</time></trkpt><trkpt lat="45.99628955423221" lon="12.712353984134227"><ele>52.0</ele><time>2026-03-22T07:00:06Z</time></trkpt><trkpt lat="45.9964428641396" lon="12.712472414648726"><ele>52.0</ele><time>2026-03-22T07:00:07Z</time></trkpt><trkpt lat="45.99658085802301" lon="12.712593127907962"><ele>52.0</ele><time>2026-03-22T07:00:08Z</time></trkpt><trkpt lat="45.99670696295482" lon="12.712708754086922"><ele>51.5</ele><time>2026-03-22T07:00:09Z</time></trkpt><trkpt lat="45.99683348238805" lon="12.712833797180977"><ele>51.0</ele><time>2026-03-22T07:00:10Z</time></trkpt><trkpt lat="45.99695064820227" lon="12.71296105675622"><ele>50.5</ele><time>2026-03-22T07:00:11Z</time></trkpt><trkpt lat="45.9970689813798" lon="12.713088101652385"><ele>50.0</ele><time>2026-03-22T07:00:12Z</time></trkpt><trkpt lat="45.99719257976578" lon="12.713217683961307"><ele>50.0</ele><time>2026-03-22T07:00:13Z</time></trkpt><trkpt lat="45.99731710792899" lon="12.7133620553599"><ele>50.0</ele><time>2026-03-22T07:00:14Z</time></trkpt><trkpt lat="45.997427346544" lon="12.713505033460399"><ele>50.0</ele><time>2026-03-22T07:00:15Z</time></trkpt><trkpt lat="45.99752629459617" lon="12.713661708202597"><ele>49.333333333333336</ele><time>2026-03-22T07:00:16Z</time></trkpt><trkpt lat="45.99762203107598" lon="12.713838303707108"><ele>48.66666666666667</ele><time>2026-03-22T07:00:17Z</time></trkpt><trkpt lat="45.997733188901975" lon="12.714039979493375"><ele>48.0</ele><time>2026-03-22T07:00:18Z</time></trkpt><trkpt lat="45.997849245163096" lon="12.71426389256875"><ele>48.66666666666667</ele><time>2026-03-22T07:00:19Z</time></trkpt><trkpt lat="45.997972378023256" lon="12.71450127626264"><ele>49.333333333333336</ele><time>2026-03-22T07:00:20Z</time></trkpt><trkpt lat="45.99808569162979" lon="12.714721371075697"><ele>50.0</ele><time>2026-03-22T07:00:21Z</time></trkpt><trkpt lat="45.99818644097004" lon="12.71491070992714"><ele>50.0</ele><time>2026-03-22T07:00:22Z</time></trkpt><trkpt lat="45.99828311329895" lon="12.715081133676765"><ele>50.0</ele><time>2026-03-22T07:00:23Z</time></trkpt><trkpt lat="45.998373128640736" lon="12.715245702857207"><ele>50.0</ele><time>2026-03-22T07:00:24Z</time></trkpt><trkpt lat="45.99843873252017" lon="12.715384443719028"><ele>50.0</ele><time>2026-03-22T07:00:25Z</time></trkpt><trkpt lat="45.99850097154523" lon="12.715495417487109"><ele>50.5</ele><time>2026-03-22T07:00:26Z</time></trkpt><trkpt lat="45.998544159835454" lon="12.715601419060015"><ele>51.0</ele><time>2026-03-22T07:00:27Z</time></trkpt><trkpt lat="45.998669082817194" lon="12.71565778872564"><ele>51.5</ele><time>2026-03-22T07:00:28Z</time></trkpt><trkpt lat="45.99879929159297" lon="12.715766552756387"><ele>52.0</ele><time>2026-03-22T07:00:29Z</time></trkpt><trkpt lat="45.99894924433134" lon="12.7159124312626"><ele>52.0</ele><time>2026-03-22T07:00:30Z</time></trkpt><trkpt lat="45.99911416404541" lon="12.716080264101977"><ele>52.0</ele><time>2026-03-22T07:00:31Z</time></trkpt><trkpt lat="45.99926494743212" lon="12.71624267457215"><ele>52.0</ele><time>2026-03-22T07:00:32Z</time></trkpt><trkpt lat="45.99939797266684" lon="12.71639827264085"><ele>52.0</ele><time>2026-03-22T07:00:33Z</time></trkpt><trkpt lat="45.99952011565086" lon="12.716535799881667"><ele>52.0</ele><time>2026-03-22T07:00:33.999Z</time></trkpt><trkpt lat="45.99962659034527" lon="12.716654895577566"><ele>52.0</ele><time>2026-03-22T07:00:34.999Z</time></trkpt><trkpt lat="45.99972203236563" lon="12.716762970555687"><ele>52.0</ele><time>2026-03-22T07:00:35.999Z</time></trkpt><trkpt lat="45.99980724729012" lon="12.716855391010544"><ele>51.83333333333333</ele><time>2026-03-22T07:00:36.999Z</time></trkpt><trkpt lat="45.99988146822109" lon="12.71694010391251"><ele>51.666666666666664</ele><time>2026-03-22T07:00:37.999Z</time></trkpt><trkpt lat="45.999941692079474" lon="12.717017873730741"><ele>51.5</ele><time>2026-03-22T07:00:38.999Z</time></trkpt><trkpt lat="45.9999901458156" lon="12.717092144164848"><ele>51.33333333333333</ele><time>2026-03-22T07:00:39.999Z</time></trkpt><trkpt lat="46.00005401255039" lon="12.717188143577772"><ele>51.166666666666664</ele><time>2026-03-22T07:00:41.999Z</time></trkpt><trkpt lat="46.000129748833636" lon="12.717281204499166"><ele>51.0</ele><time>2026-03-22T07:01:03.999Z</time></trkpt><trkpt lat="46.000193848556236" lon="12.717351671933763"><ele>51.0</ele><time>2026-03-22T07:01:04.999Z</time></trkpt><trkpt lat="46.00026862824642" lon="12.71746061689515"><ele>51.0</ele><time>2026-03-22T07:01:05.999Z</time></trkpt><trkpt lat="46.00037087587293" lon="12.71760369460282"><ele>51.0</ele><time>2026-03-22T07:01:06.999Z</time></trkpt><trkpt lat="46.00048942006225" lon="12.717765034500385"><ele>51.0</ele><time>2026-03-22T07:01:07.999Z</time></trkpt><trkpt lat="46.00061728701905" lon="12.717940835282096"><ele>51.0</ele><time>2026-03-22T07:01:08.999Z</time></trkpt><trkpt lat="46.000714865165136" lon="12.718114958954178"><ele>51.0</ele><time>2026-03-22T07:01:09.999Z</time></trkpt><trkpt lat="46.000804285173395" lon="12.718273499612595"><ele>51.0</ele><time>2026-03-22T07:01:10.999Z</time></trkpt><trkpt lat="46.00090642307852" lon="12.718466278589242"><ele>51.33333333333333</ele><time>2026-03-22T07:01:11.999Z</time></trkpt><trkpt lat="46.001022972270064" lon="12.718666880013002"><ele>51.666666666666664</ele><time>2026-03-22T07:01:12.999Z</time></trkpt><trkpt lat="46.00113435180136" lon="12.718900216666352"><ele>52.0</ele><time>2026-03-22T07:01:13.999Z</time></trkpt><trkpt lat="46.00123182377465" lon="12.719112824042055"><ele>52.0</ele><time>2026-03-22T07:01:14.999Z</time></trkpt><trkpt lat="46.001319090777415" lon="12.719307775897953"><ele>52.0</ele><time>2026-03-22T07:01:15.999Z</time></trkpt><trkpt lat="46.00140061165995" lon="12.719484660876025"><ele>52.0</ele><time>2026-03-22T07:01:16.999Z</time></trkpt><trkpt lat="46.001488309811236" lon="12.71966769378803"><ele>52.0</ele><time>2026-03-22T07:01:17.999Z</time></trkpt><trkpt lat="46.00157167018934" lon="12.719830443868668"><ele>52.0</ele><time>2026-03-22T07:01:18.999Z</time></trkpt><trkpt lat="46.001643540154284" lon="12.719972429077796"><ele>52.0</ele><time>2026-03-22T07:01:19.999Z</time></trkpt><trkpt lat="46.00169373795666" lon="12.720093317996046"><ele>52.0</ele><time>2026-03-22T07:01:20.999Z</time></trkpt><trkpt lat="46.00173316185117" lon="12.720204866291233"><ele>52.0</ele><time>2026-03-22T07:01:21.999Z</time></trkpt><trkpt lat="46.00176715951025" lon="12.720303714672854"><ele>51.99999999999999</ele><time>2026-03-22T07:01:22.999Z</time></trkpt><trkpt lat="46.00181362846727" lon="12.720371993800306"><ele>52.0</ele><time>2026-03-22T07:01:23.999Z</time></trkpt><trkpt lat="46.001900918976425" lon="12.720434613007546"><ele>52.0</ele><time>2026-03-22T07:01:26Z</time></trkpt><trkpt lat="46.00196648790785" lon="12.720427300953542"><ele>52.0</ele><time>2026-03-22T07:01:27Z</time></trkpt><trkpt lat="46.00205014897977" lon="12.720420423291413"><ele>51.99999999999999</ele><time>2026-03-22T07:01:28Z</time></trkpt><trkpt lat="46.00216474531339" lon="12.720359906334192"><ele>52.0</ele><time>2026-03-22T07:01:29Z</time></trkpt><trkpt lat="46.00229818604318" lon="12.720262173088376"><ele>51.8</ele><time>2026-03-22T07:01:30Z</time></trkpt><trkpt lat="46.00241527629852" lon="12.72014811356348"><ele>51.6</ele><time>2026-03-22T07:01:31Z</time></trkpt><trkpt lat="46.00249513273727" lon="12.720074961279384"><ele>51.4</ele><time>2026-03-22T07:01:32Z</time></trkpt><trkpt lat="46.00256072546158" lon="12.720035369730288"><ele>51.199999999999996</ele><time>2026-03-22T07:01:33Z</time></trkpt><trkpt lat="46.00262579447788" lon="12.720039118214679"><ele>51.0</ele><time>2026-03-22T07:01:34Z</time></trkpt><trkpt lat="46.00270336747492" lon="12.720066747445127"><ele>51.0</ele><time>2026-03-22T07:01:35Z</time></trkpt><trkpt lat="46.002755294700066" lon="12.720161957596122"><ele>51.0</ele><time>2026-03-22T07:01:36Z</time></trkpt><trkpt lat="46.00283876543633" lon="12.72023677822778"><ele>51.0</ele><time>2026-03-22T07:01:37Z</time></trkpt><trkpt lat="46.002919524711565" lon="12.720274549019827"><ele>51.0</ele><time>2026-03-22T07:01:38Z</time></trkpt><trkpt lat="46.002994493808" lon="12.720322050268923"><ele>51.0</ele><time>2026-03-22T07:01:39Z</time></trkpt><trkpt lat="46.00309570551782" lon="12.720238151269312"><ele>50.66666666666667</ele><time>2026-03-22T07:01:40Z</time></trkpt><trkpt lat="46.00321210285684" lon="12.720199851806615"><ele>50.333333333333336</ele><time>2026-03-22T07:01:41Z</time></trkpt><trkpt lat="46.00335352624549" lon="12.720154205232811"><ele>50.0</ele><time>2026-03-22T07:01:42Z</time></trkpt><trkpt lat="46.00353370009365" lon="12.720071920765347"><ele>50.75</ele><time>2026-03-22T07:01:43Z</time></trkpt><trkpt lat="46.003707367959414" lon="12.720009547092593"><ele>51.5</ele><time>2026-03-22T07:01:44Z</time></trkpt><trkpt lat="46.0038503456691" lon="12.71996207763827"><ele>52.25</ele><time>2026-03-22T07:01:45Z</time></trkpt><trkpt lat="46.003963435644245" lon="12.719920441626359"><ele>53.0</ele><time>2026-03-22T07:01:46Z</time></trkpt><trkpt lat="46.00407127138276" lon="12.719891668434487"><ele>52.75</ele><time>2026-03-22T07:01:47Z</time></trkpt><trkpt lat="46.00419096998808" lon="12.719896883576672"><ele>52.5</ele><time>2026-03-22T07:01:48Z</time></trkpt><trkpt lat="46.00433520814727" lon="12.719935014956214"><ele>52.25</ele><time>2026-03-22T07:01:49Z</time></trkpt><trkpt lat="46.00450262982444" lon="12.719981962401082"><ele>52.0</ele><time>2026-03-22T07:01:50Z</time></trkpt><trkpt lat="46.00468258823655" lon="12.720021218304874"><ele>52.0</ele><time>2026-03-22T07:01:51Z</time></trkpt><trkpt lat="46.00486241755168" lon="12.720053547525803"><ele>52.0</ele><time>2026-03-22T07:01:52Z</time></trkpt><trkpt lat="46.005032703009725" lon="12.720076910952395"><ele>52.0</ele><time>2026-03-22T07:01:53Z</time></trkpt><trkpt lat="46.005188784413434" lon="12.720136682269189"><ele>52.75</ele><time>2026-03-22T07:01:54Z</time></trkpt><trkpt lat="46.00533390589049" lon="12.720169876884565"><ele>53.5</ele><time>2026-03-22T07:01:55Z</time></trkpt><trkpt lat="46.005469483832165" lon="12.720206288310802"><ele>54.25</ele><time>2026-03-22T07:01:56Z</time></trkpt><trkpt lat="46.0056119215101" lon="12.720237081481791"><ele>55.0</ele><time>2026-03-22T07:01:57Z</time></trkpt><trkpt lat="46.00577400164717" lon="12.720281898307649"><ele>55.33333333333333</ele><time>2026-03-22T07:01:58Z</time></trkpt><trkpt lat="46.0059321783414" lon="12.720333328852565"><ele>55.66666666666667</ele><time>2026-03-22T07:01:59Z</time></trkpt><trkpt lat="46.006083067078464" lon="12.720374264013845"><ele>56.0</ele><time>2026-03-22T07:02:00Z</time></trkpt><trkpt lat="46.00626124515393" lon="12.72042342551679"><ele>56.0</ele><time>2026-03-22T07:02:01Z</time></trkpt><trkpt lat="46.00644995754094" lon="12.720478579562755"><ele>56.0</ele><time>2026-03-22T07:02:02Z</time></trkpt><trkpt lat="46.0066243228118" lon="12.720523904452486"><ele>56.0</ele><time>2026-03-22T07:02:03Z</time></trkpt><trkpt lat="46.0068028108406" lon="12.720564565771635"><ele>56.333333333333336</ele><time>2026-03-22T07:02:04Z</time></trkpt><trkpt lat="46.00697409668296" lon="12.72060120138163"><ele>56.66666666666667</ele><time>2026-03-22T07:02:05Z</time></trkpt><trkpt lat="46.00713484704234" lon="12.720643210621638"><ele>57.0</ele><time>2026-03-22T07:02:06Z</time></trkpt><trkpt lat="46.00729924180616" lon="12.720688520839815"><ele>57.0</ele><time>2026-03-22T07:02:07Z</time></trkpt><trkpt lat="46.00745451795638" lon="12.720732362147027"><ele>57.0</ele><time>2026-03-22T07:02:08Z</time></trkpt><trkpt lat="46.007607942825196" lon="12.720780209079837"><ele>57.0</ele><time>2026-03-22T07:02:09Z</time></trkpt><trkpt lat="46.0077625170696" lon="12.720823989370464"><ele>57.33333333333333</ele><time>2026-03-22T07:02:10Z</time></trkpt><trkpt lat="46.00792097534638" lon="12.720871003414578"><ele>57.666666666666664</ele><time>2026-03-22T07:02:11Z</time></trkpt><trkpt lat="46.00808382263727" lon="12.72090616547488"><ele>58.0</ele><time>2026-03-22T07:02:12Z</time></trkpt><trkpt lat="46.008268651686635" lon="12.720967043953527"><ele>58.0</ele><time>2026-03-22T07:02:13Z</time></trkpt><trkpt lat="46.008462193040494" lon="12.721017113103773"><ele>58.0</ele><time>2026-03-22T07:02:14Z</time></trkpt><trkpt lat="46.008645428795155" lon="12.721064537690404"><ele>58.0</ele><time>2026-03-22T07:02:15Z</time></trkpt><trkpt lat="46.00883009991286" lon="12.721109068247545"><ele>58.0</ele><time>2026-03-22T07:02:16Z</time></trkpt><trkpt lat="46.00902799244069" lon="12.721153823679812"><ele>58.0</ele><time>2026-03-22T07:02:17Z</time></trkpt><trkpt lat="46.009241616909044" lon="12.721181424251796"><ele>58.0</ele><time>2026-03-22T07:02:18Z</time></trkpt><trkpt lat="46.00946545879511" lon="12.72123907975831"><ele>59.0</ele><time>2026-03-22T07:02:19Z</time></trkpt><trkpt lat="46.0096635068358" lon="12.721284202897598"><ele>60.0</ele><time>2026-03-22T07:02:20Z</time></trkpt><trkpt lat="46.00985016765852" lon="12.721331696174513"><ele>61.0</ele><time>2026-03-22T07:02:21Z</time></trkpt><trkpt lat="46.01003658709491" lon="12.72138155112923"><ele>61.33333333333333</ele><time>2026-03-22T07:02:22Z</time></trkpt><trkpt lat="46.010217011491086" lon="12.721428088458723"><ele>61.66666666666667</ele><time>2026-03-22T07:02:23Z</time></trkpt><trkpt lat="46.01040291200898" lon="12.721479341237755"><ele>62.0</ele><time>2026-03-22T07:02:24Z</time></trkpt><trkpt lat="46.01059163986444" lon="12.72152735822742"><ele>62.0</ele><time>2026-03-22T07:02:25Z</time></trkpt><trkpt lat="46.01077930177366" lon="12.72157582171366"><ele>62.0</ele><time>2026-03-22T07:02:26Z</time></trkpt><trkpt lat="46.01098113701433" lon="12.721623405072819"><ele>62.0</ele><time>2026-03-22T07:02:27Z</time></trkpt><trkpt lat="46.01117054942567" lon="12.721674023629376"><ele>62.25</ele><time>2026-03-22T07:02:28Z</time></trkpt><trkpt lat="46.011324792253184" lon="12.721713805725217"><ele>62.5</ele><time>2026-03-22T07:02:29Z</time></trkpt><trkpt lat="46.01145852591041" lon="12.721745309627288"><ele>62.75</ele><time>2026-03-22T07:02:30Z</time></trkpt><trkpt lat="46.011586033999215" lon="12.721773063687245"><ele>63.0</ele><time>2026-03-22T07:02:31Z</time></trkpt><trkpt lat="46.01170942061055" lon="12.721805119490053"><ele>63.0</ele><time>2026-03-22T07:02:32Z</time></trkpt><trkpt lat="46.01183812018442" lon="12.721835224213269"><ele>63.0</ele><time>2026-03-22T07:02:33Z</time></trkpt><trkpt lat="46.011990075903874" lon="12.721875678563814"><ele>63.0</ele><time>2026-03-22T07:02:34Z</time></trkpt><trkpt lat="46.01215620736132" lon="12.721914419342845"><ele>63.0</ele><time>2026-03-22T07:02:35Z</time></trkpt><trkpt lat="46.01231396175449" lon="12.72195298912972"><ele>63.0</ele><time>2026-03-22T07:02:36Z</time></trkpt><trkpt lat="46.012448763841455" lon="12.721992049410916"><ele>63.0</ele><time>2026-03-22T07:02:37Z</time></trkpt><trkpt lat="46.01258620120625" lon="12.722025356296808"><ele>63.0</ele><time>2026-03-22T07:02:38Z</time></trkpt><trkpt lat="46.01272805777099" lon="12.722073272358658"><ele>64.25</ele><time>2026-03-22T07:02:39Z</time></trkpt><trkpt lat="46.01286438258878" lon="12.722108506545759"><ele>65.5</ele><time>2026-03-22T07:02:40Z</time></trkpt><trkpt lat="46.01298598781241" lon="12.72213345487545"><ele>66.75</ele><time>2026-03-22T07:02:41Z</time></trkpt><trkpt lat="46.01309149599252" lon="12.722154641874424"><ele>68.0</ele><time>2026-03-22T07:02:42Z</time></trkpt><trkpt lat="46.01319113197701" lon="12.722203884515004"><ele>68.0</ele><time>2026-03-22T07:02:43Z</time></trkpt><trkpt lat="46.013308810716985" lon="12.722233617563532"><ele>68.0</ele><time>2026-03-22T07:02:44Z</time></trkpt><trkpt lat="46.01344130914048" lon="12.722251441176763"><ele>68.0</ele><time>2026-03-22T07:02:45Z</time></trkpt><trkpt lat="46.01357727317552" lon="12.722283629599996"><ele>68.0</ele><time>2026-03-22T07:02:46Z</time></trkpt><trkpt lat="46.01371742026993" lon="12.722320921471685"><ele>68.0</ele><time>2026-03-22T07:02:47Z</time></trkpt><trkpt lat="46.01386363107795" lon="12.722372309911565"><ele>68.0</ele><time>2026-03-22T07:02:48Z</time></trkpt><trkpt lat="46.014020574522554" lon="12.722412148923134"><ele>68.0</ele><time>2026-03-22T07:02:49Z</time></trkpt><trkpt lat="46.014204316790945" lon="12.722446804082159"><ele>68.0</ele><time>2026-03-22T07:02:50Z</time></trkpt><trkpt lat="46.014387086661024" lon="12.722510516328956"><ele>68.0</ele><time>2026-03-22T07:02:51Z</time></trkpt><trkpt lat="46.01457194849091" lon="12.722530301538809"><ele>68.0</ele><time>2026-03-22T07:02:52Z</time></trkpt><trkpt lat="46.01474073138616" lon="12.722576548226204"><ele>68.0</ele><time>2026-03-22T07:02:53Z</time></trkpt><trkpt lat="46.01490147988925" lon="12.722614570492976"><ele>68.0</ele><time>2026-03-22T07:02:54Z</time></trkpt><trkpt lat="46.01506816357374" lon="12.722639829749214"><ele>68.0</ele><time>2026-03-22T07:02:55Z</time></trkpt><trkpt lat="46.0152286136648" lon="12.72266032501991"><ele>68.5</ele><time>2026-03-22T07:02:56Z</time></trkpt><trkpt lat="46.01538389825078" lon="12.722684172950144"><ele>69.0</ele><time>2026-03-22T07:02:57Z</time></trkpt><trkpt lat="46.01552900614355" lon="12.722706710132277"><ele>69.5</ele><time>2026-03-22T07:02:58Z</time></trkpt><trkpt lat="46.015660824696546" lon="12.722722221586874"><ele>70.0</ele><time>2026-03-22T07:02:59Z</time></trkpt><trkpt lat="46.01581105777535" lon="12.722731040242182"><ele>70.33333333333333</ele><time>2026-03-22T07:03:00Z</time></trkpt><trkpt lat="46.01598422758024" lon="12.722745800278501"><ele>70.66666666666667</ele><time>2026-03-22T07:03:01Z</time></trkpt><trkpt lat="46.016154154848564" lon="12.7227656099047"><ele>71.0</ele><time>2026-03-22T07:03:02Z</time></trkpt><trkpt lat="46.016300780247896" lon="12.722787740392045"><ele>71.0</ele><time>2026-03-22T07:03:03Z</time></trkpt><trkpt lat="46.01644736511925" lon="12.722809606308449"><ele>71.0</ele><time>2026-03-22T07:03:04Z</time></trkpt><trkpt lat="46.01659537593298" lon="12.722827864377809"><ele>71.0</ele><time>2026-03-22T07:03:05Z</time></trkpt><trkpt lat="46.0167398283404" lon="12.722842741920225"><ele>71.0</ele><time>2026-03-22T07:03:06Z</time></trkpt><trkpt lat="46.01687526270033" lon="12.722862527365889"><ele>71.25</ele><time>2026-03-22T07:03:07Z</time></trkpt><trkpt lat="46.017004792275515" lon="12.722882571698525"><ele>71.5</ele><time>2026-03-22T07:03:08Z</time></trkpt><trkpt lat="46.01711343958719" lon="12.722900335956696"><ele>71.75</ele><time>2026-03-22T07:03:09Z</time></trkpt><trkpt lat="46.01722295015636" lon="12.722907190155722"><ele>72.0</ele><time>2026-03-22T07:03:10Z</time></trkpt><trkpt lat="46.01734106903821" lon="12.722934137921738"><ele>72.0</ele><time>2026-03-22T07:03:11Z</time></trkpt><trkpt lat="46.01748250934721" lon="12.722958219993547"><ele>72.0</ele><time>2026-03-22T07:03:12Z</time></trkpt><trkpt lat="46.01761014005642" lon="12.722973387188983"><ele>72.0</ele><time>2026-03-22T07:03:13Z</time></trkpt><trkpt lat="46.01774519652123" lon="12.722990763063176"><ele>72.0</ele><time>2026-03-22T07:03:14Z</time></trkpt><trkpt lat="46.017882573923025" lon="12.723006846381026"><ele>72.4</ele><time>2026-03-22T07:03:15Z</time></trkpt><trkpt lat="46.01801500310537" lon="12.723022840232174"><ele>72.80000000000001</ele><time>2026-03-22T07:03:16Z</time></trkpt><trkpt lat="46.018125427727334" lon="12.723038659979503"><ele>73.2</ele><time>2026-03-22T07:03:17Z</time></trkpt><trkpt lat="46.01822237173685" lon="12.723054948439612"><ele>73.60000000000001</ele><time>2026-03-22T07:03:18Z</time></trkpt><trkpt lat="46.018308398781386" lon="12.723057598955554"><ele>74.0</ele><time>2026-03-22T07:03:18.999Z</time></trkpt><trkpt lat="46.01838043604456" lon="12.723083557248367"><ele>74.25</ele><time>2026-03-22T07:03:19.999Z</time></trkpt><trkpt lat="46.01846627944123" lon="12.723084533462869"><ele>74.5</ele><time>2026-03-22T07:03:20.999Z</time></trkpt><trkpt lat="46.01857450481822" lon="12.723062961978817"><ele>74.75</ele><time>2026-03-22T07:03:21.999Z</time></trkpt><trkpt lat="46.01871291627987" lon="12.72301198703798"><ele>75.0</ele><time>2026-03-22T07:03:22.999Z</time></trkpt><trkpt lat="46.018850990062134" lon="12.722940336731222"><ele>75.0</ele><time>2026-03-22T07:03:23.999Z</time></trkpt><trkpt lat="46.01897543635738" lon="12.722873609364429"><ele>75.0</ele><time>2026-03-22T07:03:24.999Z</time></trkpt><trkpt lat="46.019103071715456" lon="12.722829130210702"><ele>75.0</ele><time>2026-03-22T07:03:25.999Z</time></trkpt><trkpt lat="46.01923536753801" lon="12.722806363055387"><ele>75.0</ele><time>2026-03-22T07:03:26.999Z</time></trkpt><trkpt lat="46.019365741856234" lon="12.722796765773698"><ele>75.75</ele><time>2026-03-22T07:03:27.999Z</time></trkpt><trkpt lat="46.019500872653325" lon="12.722813619383482"><ele>76.5</ele><time>2026-03-22T07:03:28.999Z</time></trkpt><trkpt lat="46.01964056426425" lon="12.722809920870299"><ele>77.25</ele><time>2026-03-22T07:03:29.999Z</time></trkpt><trkpt lat="46.019788344604144" lon="12.722808677115674"><ele>78.0</ele><time>2026-03-22T07:03:31Z</time></trkpt><trkpt lat="46.01992576852919" lon="12.722772026693601"><ele>78.2</ele><time>2026-03-22T07:03:32Z</time></trkpt><trkpt lat="46.020038629034765" lon="12.722725904704138"><ele>78.4</ele><time>2026-03-22T07:03:33Z</time></trkpt><trkpt lat="46.02013875323051" lon="12.722682318855039"><ele>78.60000000000001</ele><time>2026-03-22T07:03:34Z</time></trkpt><trkpt lat="46.02023830842093" lon="12.722637859968676"><ele>78.8</ele><time>2026-03-22T07:03:35Z</time></trkpt><trkpt lat="46.020343102711664" lon="12.72259797366959"><ele>79.0</ele><time>2026-03-22T07:03:36Z</time></trkpt><trkpt lat="46.020439291032886" lon="12.722526984777287"><ele>79.0</ele><time>2026-03-22T07:03:37Z</time></trkpt><trkpt lat="46.02051593078493" lon="12.722475824327123"><ele>79.0</ele><time>2026-03-22T07:03:38Z</time></trkpt><trkpt lat="46.020543401166044" lon="12.722384284919256"><ele>79.0</ele><time>2026-03-22T07:03:39Z</time></trkpt><trkpt lat="46.02058794843291" lon="12.722297809236332"><ele>79.0</ele><time>2026-03-22T07:03:40Z</time></trkpt><trkpt lat="46.02067078843813" lon="12.72216849843769"><ele>79.0</ele><time>2026-03-22T07:03:42Z</time></trkpt><trkpt lat="46.02099581718978" lon="12.722486672608886"><ele>79.33333333333333</ele><time>2026-03-22T07:03:43Z</time></trkpt><trkpt lat="46.02106469081623" lon="12.722521326782164"><ele>79.66666666666666</ele><time>2026-03-22T07:03:44Z</time></trkpt><trkpt lat="46.021115981925334" lon="12.722588148680998"><ele>80.0</ele><time>2026-03-22T07:03:45Z</time></trkpt><trkpt lat="46.021138186762414" lon="12.722761239554645"><ele>80.33333333333333</ele><time>2026-03-22T07:03:47Z</time></trkpt><trkpt lat="46.02113412512567" lon="12.72287438346287"><ele>80.66666666666667</ele><time>2026-03-22T07:03:48Z</time></trkpt><trkpt lat="46.021127527404765" lon="12.723022532438408"><ele>81.0</ele><time>2026-03-22T07:03:49Z</time></trkpt><trkpt lat="46.021134143982266" lon="12.723152717822476"><ele>81.33333333333333</ele><time>2026-03-22T07:03:50Z</time></trkpt><trkpt lat="46.02112625095908" lon="12.723252645256483"><ele>81.66666666666667</ele><time>2026-03-22T07:03:51Z</time></trkpt><trkpt lat="46.02111672677038" lon="12.723367644138127"><ele>82.0</ele><time>2026-03-22T07:03:52Z</time></trkpt><trkpt lat="46.02111551800211" lon="12.723472473942492"><ele>82.33333333333334</ele><time>2026-03-22T07:03:53Z</time></trkpt><trkpt lat="46.02108516777969" lon="12.723625024583383"><ele>82.66666666666667</ele><time>2026-03-22T07:03:55Z</time></trkpt><trkpt lat="46.02103845292936" lon="12.72370887645781"><ele>83.0</ele><time>2026-03-22T07:03:57Z</time></trkpt><trkpt lat="46.02103207389964" lon="12.72384158719053"><ele>83.0</ele><time>2026-03-22T07:03:59Z</time></trkpt><trkpt lat="46.021030231374546" lon="12.723937358484251"><ele>83.0</ele><time>2026-03-22T07:04:01Z</time></trkpt><trkpt lat="46.021001627741214" lon="12.724058060749936"><ele>83.0</ele><time>2026-03-22T07:04:03Z</time></trkpt><trkpt lat="46.02098284052967" lon="12.724146331589257"><ele>83.0</ele><time>2026-03-22T07:04:04Z</time></trkpt><trkpt lat="46.020955596135" lon="12.724249983937781"><ele>83.0</ele><time>2026-03-22T07:04:05Z</time></trkpt><trkpt lat="46.020935057984026" lon="12.724406198264143"><ele>83.0</ele><time>2026-03-22T07:04:07Z</time></trkpt><trkpt lat="46.02090729612909" lon="12.724534874847775"><ele>83.0</ele><time>2026-03-22T07:04:09Z</time></trkpt><trkpt lat="46.020881809809225" lon="12.724687756214005"><ele>83.0</ele><time>2026-03-22T07:04:11Z</time></trkpt><trkpt lat="46.0208153539024" lon="12.724862942069342"><ele>83.0</ele><time>2026-03-22T07:04:13Z</time></trkpt><trkpt lat="46.02078241818574" lon="12.724970174338079"><ele>83.0</ele><time>2026-03-22T07:04:14Z</time></trkpt><trkpt lat="46.020751592198025" lon="12.725060948486036"><ele>83.0</ele><time>2026-03-22T07:04:15Z</time></trkpt><trkpt lat="46.020723004588724" lon="12.725160128996881"><ele>82.66666666666667</ele><time>2026-03-22T07:04:16Z</time></trkpt><trkpt lat="46.020697268010785" lon="12.725242909633568"><ele>82.33333333333334</ele><time>2026-03-22T07:04:17Z</time></trkpt><trkpt lat="46.02067359266719" lon="12.725329600733927"><ele>82.0</ele><time>2026-03-22T07:04:18Z</time></trkpt><trkpt lat="46.02064650102758" lon="12.725427976717185"><ele>81.66666666666667</ele><time>2026-03-22T07:04:19Z</time></trkpt><trkpt lat="46.020624231050675" lon="12.725522793052845"><ele>81.33333333333333</ele><time>2026-03-22T07:04:20Z</time></trkpt><trkpt lat="46.02058194576389" lon="12.72565813104425"><ele>81.0</ele><time>2026-03-22T07:04:22Z</time></trkpt><trkpt lat="46.02061214369954" lon="12.725771462689416"><ele>81.0</ele><time>2026-03-22T07:04:26Z</time></trkpt><trkpt lat="46.02067838615041" lon="12.725798882163403"><ele>81.0</ele><time>2026-03-22T07:04:29Z</time></trkpt><trkpt lat="46.02073791920759" lon="12.725865286119681"><ele>81.0</ele><time>2026-03-22T07:05:21Z</time></trkpt><trkpt lat="46.02079735248834" lon="12.725938765100882"><ele>81.0</ele><time>2026-03-22T07:05:23.999Z</time></trkpt><trkpt lat="46.02089433491306" lon="12.725829462351578"><ele>81.0</ele><time>2026-03-22T07:05:28.999Z</time></trkpt><trkpt lat="46.02098533843375" lon="12.725858768143413"><ele>81.0</ele><time>2026-03-22T07:05:30.999Z</time></trkpt><trkpt lat="46.021070079473944" lon="12.72588657987362"><ele>81.0</ele><time>2026-03-22T07:05:32.999Z</time></trkpt><trkpt lat="46.021132964802874" lon="12.725923407699666"><ele>81.0</ele><time>2026-03-22T07:05:34.999Z</time></trkpt><trkpt lat="46.02120300410423" lon="12.725920773639777"><ele>81.0</ele><time>2026-03-22T07:05:37Z</time></trkpt><trkpt lat="46.02129978073564" lon="12.725935650583923"><ele>81.0</ele><time>2026-03-22T07:05:39Z</time></trkpt><trkpt lat="46.02138026807344" lon="12.725954288659189"><ele>81.0</ele><time>2026-03-22T07:05:41Z</time></trkpt><trkpt lat="46.021488917371826" lon="12.726010437324895"><ele>81.0</ele><time>2026-03-22T07:05:43Z</time></trkpt><trkpt lat="46.02157666159237" lon="12.726017452821466"><ele>81.0</ele><time>2026-03-22T07:05:44Z</time></trkpt><trkpt lat="46.02166649509568" lon="12.726061199811443"><ele>81.0</ele><time>2026-03-22T07:05:45Z</time></trkpt><trkpt lat="46.021762913757975" lon="12.72610876311278"><ele>81.0</ele><time>2026-03-22T07:05:46Z</time></trkpt><trkpt lat="46.02187336705477" lon="12.726147731461614"><ele>81.0</ele><time>2026-03-22T07:05:47Z</time></trkpt><trkpt lat="46.021956405544024" lon="12.726207346394677"><ele>81.0</ele><time>2026-03-22T07:05:48Z</time></trkpt><trkpt lat="46.02207604998401" lon="12.72624614192967"><ele>81.33333333333333</ele><time>2026-03-22T07:05:49Z</time></trkpt><trkpt lat="46.02220764002563" lon="12.726332760339858"><ele>81.66666666666666</ele><time>2026-03-22T07:05:50Z</time></trkpt><trkpt lat="46.02235258702853" lon="12.726413009072221"><ele>82.0</ele><time>2026-03-22T07:05:51Z</time></trkpt><trkpt lat="46.02250113027736" lon="12.726522398334376"><ele>82.33333333333333</ele><time>2026-03-22T07:05:52Z</time></trkpt><trkpt lat="46.022646275359655" lon="12.726648297781946"><ele>82.66666666666667</ele><time>2026-03-22T07:05:53Z</time></trkpt><trkpt lat="46.02280397187479" lon="12.726758255856085"><ele>83.0</ele><time>2026-03-22T07:05:54Z</time></trkpt><trkpt lat="46.02295011249702" lon="12.726860156291481"><ele>83.25</ele><time>2026-03-22T07:05:55Z</time></trkpt><trkpt lat="46.02308515177542" lon="12.726953871312395"><ele>83.5</ele><time>2026-03-22T07:05:56Z</time></trkpt><trkpt lat="46.023217802707876" lon="12.727043271008423"><ele>83.75</ele><time>2026-03-22T07:05:57Z</time></trkpt><trkpt lat="46.02334886572217" lon="12.727127357937329"><ele>84.0</ele><time>2026-03-22T07:05:58Z</time></trkpt><trkpt lat="46.02348522009418" lon="12.727208904308425"><ele>84.0</ele><time>2026-03-22T07:05:59Z</time></trkpt><trkpt lat="46.02362725325487" lon="12.727270792586532"><ele>84.0</ele><time>2026-03-22T07:06:00Z</time></trkpt><trkpt lat="46.02375884627423" lon="12.727347722346225"><ele>84.0</ele><time>2026-03-22T07:06:01Z</time></trkpt><trkpt lat="46.02389180104077" lon="12.727417539435994"><ele>84.0</ele><time>2026-03-22T07:06:02Z</time></trkpt><trkpt lat="46.02403035647742" lon="12.72747731333636"><ele>84.75</ele><time>2026-03-22T07:06:03Z</time></trkpt><trkpt lat="46.02416743607242" lon="12.727536737861167"><ele>85.5</ele><time>2026-03-22T07:06:04Z</time></trkpt><trkpt lat="46.024300395178884" lon="12.727582536499899"><ele>86.25</ele><time>2026-03-22T07:06:05Z</time></trkpt><trkpt lat="46.0244448653911" lon="12.727601231328373"><ele>87.0</ele><time>2026-03-22T07:06:06Z</time></trkpt><trkpt lat="46.024579852074325" lon="12.727607975810434"><ele>87.0</ele><time>2026-03-22T07:06:07Z</time></trkpt><trkpt lat="46.02470043357071" lon="12.727588284274201"><ele>87.0</ele><time>2026-03-22T07:06:08Z</time></trkpt><trkpt lat="46.02482532058354" lon="12.727548804522241"><ele>87.0</ele><time>2026-03-22T07:06:09Z</time></trkpt><trkpt lat="46.024938914005915" lon="12.727550453076567"><ele>87.0</ele><time>2026-03-22T07:06:10Z</time></trkpt><trkpt lat="46.02503353123104" lon="12.727522874226377"><ele>87.25</ele><time>2026-03-22T07:06:11Z</time></trkpt><trkpt lat="46.02514237454828" lon="12.727495366865123"><ele>87.5</ele><time>2026-03-22T07:06:12Z</time></trkpt><trkpt lat="46.02526486906502" lon="12.727476362828188"><ele>87.75</ele><time>2026-03-22T07:06:13Z</time></trkpt><trkpt lat="46.025395020359774" lon="12.72745263130084"><ele>88.0</ele><time>2026-03-22T07:06:14Z</time></trkpt><trkpt lat="46.025536619635275" lon="12.727431977343624"><ele>88.0</ele><time>2026-03-22T07:06:15Z</time></trkpt><trkpt lat="46.02567926055241" lon="12.727409983551409"><ele>88.0</ele><time>2026-03-22T07:06:16Z</time></trkpt><trkpt lat="46.025817955144205" lon="12.727385858568736"><ele>88.0</ele><time>2026-03-22T07:06:17Z</time></trkpt><trkpt lat="46.02595534910037" lon="12.727362807226056"><ele>88.0</ele><time>2026-03-22T07:06:18Z</time></trkpt><trkpt lat="46.026083569773185" lon="12.727340554367897"><ele>88.5</ele><time>2026-03-22T07:06:19Z</time></trkpt><trkpt lat="46.0262136351561" lon="12.72732722257653"><ele>89.0</ele><time>2026-03-22T07:06:20Z</time></trkpt><trkpt lat="46.02634884564707" lon="12.727307830047026"><ele>89.5</ele><time>2026-03-22T07:06:21Z</time></trkpt><trkpt lat="46.02648352774196" lon="12.727293956371236"><ele>90.0</ele><time>2026-03-22T07:06:22Z</time></trkpt><trkpt lat="46.02663358181467" lon="12.727264141847265"><ele>90.0</ele><time>2026-03-22T07:06:23Z</time></trkpt><trkpt lat="46.02677869010567" lon="12.727241446913602"><ele>90.0</ele><time>2026-03-22T07:06:24Z</time></trkpt><trkpt lat="46.02690598708882" lon="12.727222902132896"><ele>90.0</ele><time>2026-03-22T07:06:25Z</time></trkpt><trkpt lat="46.027042108160806" lon="12.727216043311314"><ele>90.0</ele><time>2026-03-22T07:06:26Z</time></trkpt><trkpt lat="46.027175918688535" lon="12.727191304740284"><ele>90.0</ele><time>2026-03-22T07:06:27Z</time></trkpt><trkpt lat="46.02731832875598" lon="12.727171411092081"><ele>90.0</ele><time>2026-03-22T07:06:28Z</time></trkpt><trkpt lat="46.02743999816426" lon="12.727149440451733"><ele>90.0</ele><time>2026-03-22T07:06:29Z</time></trkpt><trkpt lat="46.027568067792245" lon="12.72712980410726"><ele>90.0</ele><time>2026-03-22T07:06:30Z</time></trkpt><trkpt lat="46.02768969907085" lon="12.7270956114687"><ele>90.75</ele><time>2026-03-22T07:06:31Z</time></trkpt><trkpt lat="46.027809346232935" lon="12.727073661945301"><ele>91.5</ele><time>2026-03-22T07:06:32Z</time></trkpt><trkpt lat="46.027938462701464" lon="12.727069004286426"><ele>92.25</ele><time>2026-03-22T07:06:33Z</time></trkpt><trkpt lat="46.02806904475598" lon="12.727049234652286"><ele>93.0</ele><time>2026-03-22T07:06:34Z</time></trkpt><trkpt lat="46.02820204355971" lon="12.727006280653702"><ele>93.25</ele><time>2026-03-22T07:06:35Z</time></trkpt><trkpt lat="46.02833827599629" lon="12.726987378167792"><ele>93.5</ele><time>2026-03-22T07:06:36Z</time></trkpt><trkpt lat="46.02847358812898" lon="12.726974466199962"><ele>93.75</ele><time>2026-03-22T07:06:37Z</time></trkpt><trkpt lat="46.02861033509874" lon="12.726938976258548"><ele>94.0</ele><time>2026-03-22T07:06:38Z</time></trkpt><trkpt lat="46.02874118893169" lon="12.726890986341196"><ele>94.0</ele><time>2026-03-22T07:06:39Z</time></trkpt><trkpt lat="46.02884841498387" lon="12.726873890213577"><ele>94.0</ele><time>2026-03-22T07:06:40Z</time></trkpt><trkpt lat="46.02895034913311" lon="12.726845729718317"><ele>94.0</ele><time>2026-03-22T07:06:41Z</time></trkpt><trkpt lat="46.02905270144697" lon="12.72686009104154"><ele>94.0</ele><time>2026-03-22T07:06:42Z</time></trkpt><trkpt lat="46.02915079371221" lon="12.726894422823417"><ele>94.0</ele><time>2026-03-22T07:06:43Z</time></trkpt><trkpt lat="46.02924817421831" lon="12.726947483387159"><ele>94.5</ele><time>2026-03-22T07:06:44Z</time></trkpt><trkpt lat="46.02935838225676" lon="12.727021425891975"><ele>95.0</ele><time>2026-03-22T07:06:45Z</time></trkpt><trkpt lat="46.02946853205092" lon="12.727117061251464"><ele>95.5</ele><time>2026-03-22T07:06:46Z</time></trkpt><trkpt lat="46.02959934321274" lon="12.727221039058763"><ele>96.0</ele><time>2026-03-22T07:06:47Z</time></trkpt><trkpt lat="46.02973961236731" lon="12.727331172653576"><ele>96.0</ele><time>2026-03-22T07:06:48Z</time></trkpt><trkpt lat="46.02988587371584" lon="12.727444503389403"><ele>96.0</ele><time>2026-03-22T07:06:49Z</time></trkpt><trkpt lat="46.03006622724427" lon="12.727530447125"><ele>96.0</ele><time>2026-03-22T07:06:50Z</time></trkpt><trkpt lat="46.030236891389244" lon="12.72760699675032"><ele>96.33333333333334</ele><time>2026-03-22T07:06:51Z</time></trkpt><trkpt lat="46.030398127313134" lon="12.727680920880148"><ele>96.66666666666667</ele><time>2026-03-22T07:06:52Z</time></trkpt><trkpt lat="46.03054275858667" lon="12.727753859923439"><ele>97.0</ele><time>2026-03-22T07:06:53Z</time></trkpt><trkpt lat="46.03067717171269" lon="12.727856079863308"><ele>98.0</ele><time>2026-03-22T07:06:54Z</time></trkpt><trkpt lat="46.03082112485729" lon="12.727942055806253"><ele>99.0</ele><time>2026-03-22T07:06:55Z</time></trkpt><trkpt lat="46.030978356351454" lon="12.728017029710541"><ele>100.0</ele><time>2026-03-22T07:06:56Z</time></trkpt><trkpt lat="46.0311222677269" lon="12.72810862303909"><ele>100.0</ele><time>2026-03-22T07:06:57Z</time></trkpt><trkpt lat="46.03127144689092" lon="12.728199243966673"><ele>100.0</ele><time>2026-03-22T07:06:58Z</time></trkpt><trkpt lat="46.03143182578018" lon="12.728287686243316"><ele>100.0</ele><time>2026-03-22T07:06:59Z</time></trkpt><trkpt lat="46.031581773012974" lon="12.728372099498404"><ele>100.25</ele><time>2026-03-22T07:07:00Z</time></trkpt><trkpt lat="46.03171941877553" lon="12.72845009237087"><ele>100.5</ele><time>2026-03-22T07:07:01Z</time></trkpt><trkpt lat="46.031854891464704" lon="12.728526667682265"><ele>100.75</ele><time>2026-03-22T07:07:02Z</time></trkpt><trkpt lat="46.03199164568763" lon="12.72859541017529"><ele>101.0</ele><time>2026-03-22T07:07:03Z</time></trkpt><trkpt lat="46.03211090019573" lon="12.728643552912159"><ele>101.0</ele><time>2026-03-22T07:07:04Z</time></trkpt><trkpt lat="46.03222285234069" lon="12.728671256505798"><ele>101.0</ele><time>2026-03-22T07:07:05Z</time></trkpt><trkpt lat="46.03231649531595" lon="12.728698948907764"><ele>101.0</ele><time>2026-03-22T07:07:06Z</time></trkpt><trkpt lat="46.03237965847127" lon="12.728749590489045"><ele>101.0</ele><time>2026-03-22T07:07:07Z</time></trkpt><trkpt lat="46.0324458145553" lon="12.728766758569243"><ele>101.0</ele><time>2026-03-22T07:07:08Z</time></trkpt><trkpt lat="46.03254586663168" lon="12.72885985454662"><ele>101.4</ele><time>2026-03-22T07:07:10Z</time></trkpt><trkpt lat="46.03262493701086" lon="12.7289502068777"><ele>101.8</ele><time>2026-03-22T07:07:11Z</time></trkpt><trkpt lat="46.032705359885355" lon="12.72900497410048"><ele>102.2</ele><time>2026-03-22T07:07:12Z</time></trkpt><trkpt lat="46.03279267180626" lon="12.72905626471762"><ele>102.60000000000001</ele><time>2026-03-22T07:07:13Z</time></trkpt><trkpt lat="46.03286844769564" lon="12.7290899231119"><ele>103.0</ele><time>2026-03-22T07:07:14Z</time></trkpt><trkpt lat="46.032965733272874" lon="12.729142039375796"><ele>103.0</ele><time>2026-03-22T07:07:16Z</time></trkpt><trkpt lat="46.03305959227256" lon="12.72920394286935"><ele>103.0</ele><time>2026-03-22T07:07:26Z</time></trkpt><trkpt lat="46.03319674495386" lon="12.729245830604674"><ele>103.0</ele><time>2026-03-22T07:07:28Z</time></trkpt><trkpt lat="46.03328571986364" lon="12.7293095435496"><ele>103.0</ele><time>2026-03-22T07:07:29Z</time></trkpt><trkpt lat="46.033394158274454" lon="12.729333446507427"><ele>103.25</ele><time>2026-03-22T07:07:30Z</time></trkpt><trkpt lat="46.033514472067765" lon="12.729411994809427"><ele>103.5</ele><time>2026-03-22T07:07:31Z</time></trkpt><trkpt lat="46.03364356122667" lon="12.729474961636855"><ele>103.75</ele><time>2026-03-22T07:07:32Z</time></trkpt><trkpt lat="46.033756694818095" lon="12.729532378350898"><ele>104.0</ele><time>2026-03-22T07:07:33Z</time></trkpt><trkpt lat="46.03386424571486" lon="12.729564822428669"><ele>104.0</ele><time>2026-03-22T07:07:34Z</time></trkpt><trkpt lat="46.033962173073135" lon="12.729645769552592"><ele>104.0</ele><time>2026-03-22T07:07:35Z</time></trkpt><trkpt lat="46.03406530829015" lon="12.72970861987701"><ele>104.0</ele><time>2026-03-22T07:07:36Z</time></trkpt><trkpt lat="46.03415914921942" lon="12.72977570758676"><ele>104.0</ele><time>2026-03-22T07:07:37Z</time></trkpt><trkpt lat="46.03424546447105" lon="12.729853373209023"><ele>104.0</ele><time>2026-03-22T07:07:38Z</time></trkpt><trkpt lat="46.03431438044933" lon="12.729926224295173"><ele>104.2</ele><time>2026-03-22T07:07:38.999Z</time></trkpt><trkpt lat="46.03438137714104" lon="12.729992174440143"><ele>104.4</ele><time>2026-03-22T07:07:39.999Z</time></trkpt><trkpt lat="46.03443806034892" lon="12.730069602757244"><ele>104.6</ele><time>2026-03-22T07:07:40.999Z</time></trkpt><trkpt lat="46.034524224547056" lon="12.730128193502932"><ele>104.8</ele><time>2026-03-22T07:07:41.999Z</time></trkpt><trkpt lat="46.03463061211249" lon="12.730171490010907"><ele>105.0</ele><time>2026-03-22T07:07:43Z</time></trkpt><trkpt lat="46.03474865958891" lon="12.73022544951496"><ele>105.25</ele><time>2026-03-22T07:07:44Z</time></trkpt><trkpt lat="46.03487991786142" lon="12.73028590071705"><ele>105.5</ele><time>2026-03-22T07:07:45Z</time></trkpt><trkpt lat="46.03500753369476" lon="12.730348147651783"><ele>105.75</ele><time>2026-03-22T07:07:46Z</time></trkpt><trkpt lat="46.03513924688375" lon="12.730409629834462"><ele>106.0</ele><time>2026-03-22T07:07:47Z</time></trkpt><trkpt lat="46.035292667263214" lon="12.730465792385715"><ele>106.66666666666667</ele><time>2026-03-22T07:07:48Z</time></trkpt><trkpt lat="46.03544749575775" lon="12.730525228144757"><ele>107.33333333333334</ele><time>2026-03-22T07:07:49Z</time></trkpt><trkpt lat="46.035591527494866" lon="12.730581079797455"><ele>108.0</ele><time>2026-03-22T07:07:50Z</time></trkpt><trkpt lat="46.03574065342401" lon="12.73064087243509"><ele>108.75</ele><time>2026-03-22T07:07:51Z</time></trkpt><trkpt lat="46.035889576023955" lon="12.730703644859583"><ele>109.5</ele><time>2026-03-22T07:07:52Z</time></trkpt><trkpt lat="46.03603267000119" lon="12.73076159019068"><ele>110.25</ele><time>2026-03-22T07:07:53Z</time></trkpt><trkpt lat="46.036169660765516" lon="12.730810436109621"><ele>111.0</ele><time>2026-03-22T07:07:54Z</time></trkpt><trkpt lat="46.03630650560099" lon="12.730854947788233"><ele>111.0</ele><time>2026-03-22T07:07:55Z</time></trkpt><trkpt lat="46.0364521049607" lon="12.730910171634775"><ele>111.0</ele><time>2026-03-22T07:07:56Z</time></trkpt><trkpt lat="46.03660396814484" lon="12.73095541803987"><ele>111.0</ele><time>2026-03-22T07:07:57Z</time></trkpt><trkpt lat="46.03676089566888" lon="12.731003056575517"><ele>111.33333333333334</ele><time>2026-03-22T07:07:58Z</time></trkpt><trkpt lat="46.03693490682402" lon="12.731044530103983"><ele>111.66666666666667</ele><time>2026-03-22T07:07:59Z</time></trkpt><trkpt lat="46.03709501574498" lon="12.731100952801253"><ele>112.0</ele><time>2026-03-22T07:08:00Z</time></trkpt><trkpt lat="46.03724585086467" lon="12.731159563790497"><ele>111.75</ele><time>2026-03-22T07:08:01Z</time></trkpt><trkpt lat="46.03739160431027" lon="12.731225168552752"><ele>111.5</ele><time>2026-03-22T07:08:02Z</time></trkpt><trkpt lat="46.03752468119731" lon="12.731280303391433"><ele>111.25</ele><time>2026-03-22T07:08:03Z</time></trkpt><trkpt lat="46.03765202381145" lon="12.731331756880138"><ele>111.0</ele><time>2026-03-22T07:08:04Z</time></trkpt><trkpt lat="46.037785345124036" lon="12.731380948160954"><ele>111.0</ele><time>2026-03-22T07:08:05Z</time></trkpt><trkpt lat="46.03791954567077" lon="12.731413566630396"><ele>111.0</ele><time>2026-03-22T07:08:06Z</time></trkpt><trkpt lat="46.038048040869356" lon="12.731436726525844"><ele>111.0</ele><time>2026-03-22T07:08:07Z</time></trkpt><trkpt lat="46.038187811266845" lon="12.731422626576318"><ele>111.0</ele><time>2026-03-22T07:08:08Z</time></trkpt><trkpt lat="46.03834061946275" lon="12.731382188176168"><ele>111.5</ele><time>2026-03-22T07:08:09Z</time></trkpt><trkpt lat="46.03848921578606" lon="12.731344262001576"><ele>112.0</ele><time>2026-03-22T07:08:10Z</time></trkpt><trkpt lat="46.03861963286658" lon="12.731320172910074"><ele>112.5</ele><time>2026-03-22T07:08:11Z</time></trkpt><trkpt lat="46.03875586708744" lon="12.731298427010728"><ele>113.0</ele><time>2026-03-22T07:08:12Z</time></trkpt><trkpt lat="46.038886834967904" lon="12.731278376816242"><ele>113.0</ele><time>2026-03-22T07:08:13Z</time></trkpt><trkpt lat="46.03901206512579" lon="12.731249278014042"><ele>113.0</ele><time>2026-03-22T07:08:14Z</time></trkpt><trkpt lat="46.03913652859886" lon="12.73121369896833"><ele>113.0</ele><time>2026-03-22T07:08:15Z</time></trkpt><trkpt lat="46.03927890682599" lon="12.731178304903183"><ele>113.0</ele><time>2026-03-22T07:08:16Z</time></trkpt><trkpt lat="46.039401170358744" lon="12.731148426656953"><ele>113.0</ele><time>2026-03-22T07:08:17Z</time></trkpt><trkpt lat="46.03951189217547" lon="12.731118036113052"><ele>113.0</ele><time>2026-03-22T07:08:18Z</time></trkpt><trkpt lat="46.03963054781799" lon="12.731098771580468"><ele>113.0</ele><time>2026-03-22T07:08:19Z</time></trkpt><trkpt lat="46.03975383573063" lon="12.731077412089356"><ele>113.0</ele><time>2026-03-22T07:08:20Z</time></trkpt><trkpt lat="46.03987995953913" lon="12.731058965618885"><ele>113.75</ele><time>2026-03-22T07:08:21Z</time></trkpt><trkpt lat="46.03999821492116" lon="12.731043279623167"><ele>114.5</ele><time>2026-03-22T07:08:22Z</time></trkpt><trkpt lat="46.04012397126191" lon="12.731018189277805"><ele>115.25</ele><time>2026-03-22T07:08:23Z</time></trkpt><trkpt lat="46.040260872497406" lon="12.73099183772695"><ele>116.0</ele><time>2026-03-22T07:08:24Z</time></trkpt><trkpt lat="46.04040215268396" lon="12.73096554759023"><ele>116.0</ele><time>2026-03-22T07:08:25Z</time></trkpt><trkpt lat="46.04054516710997" lon="12.730938878686255"><ele>116.0</ele><time>2026-03-22T07:08:26Z</time></trkpt><trkpt lat="46.040685696392465" lon="12.73091317240634"><ele>116.0</ele><time>2026-03-22T07:08:27Z</time></trkpt><trkpt lat="46.04083217006271" lon="12.730886689077893"><ele>116.0</ele><time>2026-03-22T07:08:28Z</time></trkpt><trkpt lat="46.04098947044252" lon="12.730858455822988"><ele>116.66666666666666</ele><time>2026-03-22T07:08:29Z</time></trkpt><trkpt lat="46.04116460358524" lon="12.73082349255434"><ele>117.33333333333334</ele><time>2026-03-22T07:08:30Z</time></trkpt><trkpt lat="46.04132810227519" lon="12.730793396588354"><ele>118.0</ele><time>2026-03-22T07:08:31Z</time></trkpt><trkpt lat="46.04147945912899" lon="12.73077695658789"><ele>118.0</ele><time>2026-03-22T07:08:32Z</time></trkpt><trkpt lat="46.041627341989276" lon="12.730752474491423"><ele>118.0</ele><time>2026-03-22T07:08:33Z</time></trkpt><trkpt lat="46.04178995935559" lon="12.730725200104652"><ele>118.0</ele><time>2026-03-22T07:08:34Z</time></trkpt><trkpt lat="46.04194372645718" lon="12.730709258392235"><ele>118.33333333333334</ele><time>2026-03-22T07:08:35Z</time></trkpt><trkpt lat="46.04211038646939" lon="12.730687950419025"><ele>118.66666666666666</ele><time>2026-03-22T07:08:36Z</time></trkpt><trkpt lat="46.04228626390564" lon="12.730663863869527"><ele>119.0</ele><time>2026-03-22T07:08:37Z</time></trkpt><trkpt lat="46.0424722518355" lon="12.730630322058635"><ele>119.66666666666666</ele><time>2026-03-22T07:08:38Z</time></trkpt><trkpt lat="46.042652230546345" lon="12.730600030432976"><ele>120.33333333333334</ele><time>2026-03-22T07:08:39Z</time></trkpt><trkpt lat="46.04280642330994" lon="12.730577749842633"><ele>121.0</ele><time>2026-03-22T07:08:40Z</time></trkpt><trkpt lat="46.04296475519297" lon="12.73054847247093"><ele>121.0</ele><time>2026-03-22T07:08:41Z</time></trkpt><trkpt lat="46.0431245243322" lon="12.730526224635414"><ele>121.0</ele><time>2026-03-22T07:08:42Z</time></trkpt><trkpt lat="46.04328821576656" lon="12.73050381209005"><ele>121.0</ele><time>2026-03-22T07:08:43Z</time></trkpt><trkpt lat="46.04344159549049" lon="12.730492091850074"><ele>121.66666666666667</ele><time>2026-03-22T07:08:44Z</time></trkpt><trkpt lat="46.043610514414446" lon="12.730494061831104"><ele>122.33333333333334</ele><time>2026-03-22T07:08:45Z</time></trkpt><trkpt lat="46.04378809693714" lon="12.73049520926304"><ele>123.0</ele><time>2026-03-22T07:08:46Z</time></trkpt><trkpt lat="46.04396136211108" lon="12.730483082710105"><ele>123.0</ele><time>2026-03-22T07:08:47Z</time></trkpt><trkpt lat="46.0441270301721" lon="12.730470110300871"><ele>123.0</ele><time>2026-03-22T07:08:48Z</time></trkpt><trkpt lat="46.04429425360439" lon="12.730470179540843"><ele>123.0</ele><time>2026-03-22T07:08:49Z</time></trkpt><trkpt lat="46.04445947190695" lon="12.730473484986575"><ele>123.0</ele><time>2026-03-22T07:08:50Z</time></trkpt><trkpt lat="46.04462968149115" lon="12.730468591243637"><ele>123.0</ele><time>2026-03-22T07:08:51Z</time></trkpt><trkpt lat="46.044805372894245" lon="12.730456437676336"><ele>123.0</ele><time>2026-03-22T07:08:52Z</time></trkpt><trkpt lat="46.044990119417335" lon="12.730438986646154"><ele>123.0</ele><time>2026-03-22T07:08:53Z</time></trkpt><trkpt lat="46.045165025788016" lon="12.730453885008211"><ele>123.0</ele><time>2026-03-22T07:08:54Z</time></trkpt><trkpt lat="46.0453249077649" lon="12.730426228059716"><ele>123.0</ele><time>2026-03-22T07:08:55Z</time></trkpt><trkpt lat="46.04547682229783" lon="12.730450100931128"><ele>123.0</ele><time>2026-03-22T07:08:56Z</time></trkpt><trkpt lat="46.04563409647158" lon="12.730453182450212"><ele>123.0</ele><time>2026-03-22T07:08:57Z</time></trkpt><trkpt lat="46.04577662089713" lon="12.730456050867598"><ele>123.0</ele><time>2026-03-22T07:08:58Z</time></trkpt><trkpt lat="46.04590976724425" lon="12.730457900758253"><ele>123.0</ele><time>2026-03-22T07:08:59Z</time></trkpt><trkpt lat="46.04604398732498" lon="12.730457037708515"><ele>123.5</ele><time>2026-03-22T07:09:00Z</time></trkpt><trkpt lat="46.046176329508214" lon="12.73045618673837"><ele>124.0</ele><time>2026-03-22T07:09:01Z</time></trkpt><trkpt lat="46.046307157504394" lon="12.730455247305168"><ele>124.5</ele><time>2026-03-22T07:09:02Z</time></trkpt><trkpt lat="46.04643405825871" lon="12.730432638003201"><ele>125.0</ele><time>2026-03-22T07:09:03Z</time></trkpt><trkpt lat="46.04656321207386" lon="12.730450648558419"><ele>125.5</ele><time>2026-03-22T07:09:04Z</time></trkpt><trkpt lat="46.04669857525819" lon="12.730422081036739"><ele>126.0</ele><time>2026-03-22T07:09:05Z</time></trkpt><trkpt lat="46.046842187945906" lon="12.730413164416776"><ele>126.5</ele><time>2026-03-22T07:09:06Z</time></trkpt><trkpt lat="46.04697263858971" lon="12.73042275410277"><ele>127.0</ele><time>2026-03-22T07:09:07Z</time></trkpt><trkpt lat="46.04710307383338" lon="12.73040873927089"><ele>127.0</ele><time>2026-03-22T07:09:08Z</time></trkpt><trkpt lat="46.04725925634075" lon="12.73036681999839"><ele>127.0</ele><time>2026-03-22T07:09:09Z</time></trkpt><trkpt lat="46.047420813955" lon="12.730342280841612"><ele>127.0</ele><time>2026-03-22T07:09:10Z</time></trkpt><trkpt lat="46.047591327108144" lon="12.730320139415424"><ele>127.0</ele><time>2026-03-22T07:09:11Z</time></trkpt><trkpt lat="46.047758495065594" lon="12.730297287773256"><ele>127.0</ele><time>2026-03-22T07:09:12Z</time></trkpt><trkpt lat="46.047912442339836" lon="12.730276097120925"><ele>127.0</ele><time>2026-03-22T07:09:13Z</time></trkpt><trkpt lat="46.04805534042021" lon="12.730236833578036"><ele>127.25</ele><time>2026-03-22T07:09:14Z</time></trkpt><trkpt lat="46.04818872369265" lon="12.730219801567797"><ele>127.5</ele><time>2026-03-22T07:09:15Z</time></trkpt><trkpt lat="46.048324692590874" lon="12.730205910987744"><ele>127.75</ele><time>2026-03-22T07:09:16Z</time></trkpt><trkpt lat="46.04845353641102" lon="12.730195980545293"><ele>128.0</ele><time>2026-03-22T07:09:17Z</time></trkpt><trkpt lat="46.048580497709295" lon="12.730186367424889"><ele>128.5</ele><time>2026-03-22T07:09:18Z</time></trkpt><trkpt lat="46.048709160202385" lon="12.730176715813334"><ele>129.0</ele><time>2026-03-22T07:09:19Z</time></trkpt><trkpt lat="46.048847617249756" lon="12.730166329457072"><ele>129.5</ele><time>2026-03-22T07:09:20Z</time></trkpt><trkpt lat="46.04899342491677" lon="12.730131500031868"><ele>130.0</ele><time>2026-03-22T07:09:21Z</time></trkpt><trkpt lat="46.049143221971306" lon="12.73012446513607"><ele>130.5</ele><time>2026-03-22T07:09:22Z</time></trkpt><trkpt lat="46.04928088661208" lon="12.730118889494962"><ele>131.0</ele><time>2026-03-22T07:09:23Z</time></trkpt><trkpt lat="46.04941969523907" lon="12.730145360458335"><ele>131.5</ele><time>2026-03-22T07:09:24Z</time></trkpt><trkpt lat="46.049553324330596" lon="12.73015169731459"><ele>132.0</ele><time>2026-03-22T07:09:25Z</time></trkpt><trkpt lat="46.04968257254825" lon="12.730163697852074"><ele>132.0</ele><time>2026-03-22T07:09:26Z</time></trkpt><trkpt lat="46.04980843035095" lon="12.73018020545512"><ele>132.0</ele><time>2026-03-22T07:09:27Z</time></trkpt><trkpt lat="46.04993780617603" lon="12.730201671050644"><ele>132.0</ele><time>2026-03-22T07:09:28Z</time></trkpt><trkpt lat="46.05007585888371" lon="12.73022845513913"><ele>132.0</ele><time>2026-03-22T07:09:29Z</time></trkpt><trkpt lat="46.05022983506585" lon="12.730265462368495"><ele>132.25</ele><time>2026-03-22T07:09:30Z</time></trkpt><trkpt lat="46.050381213604695" lon="12.730290133396942"><ele>132.5</ele><time>2026-03-22T07:09:30.999Z</time></trkpt><trkpt lat="46.05051396624885" lon="12.730331776643977"><ele>132.75</ele><time>2026-03-22T07:09:31.999Z</time></trkpt><trkpt lat="46.050647243037226" lon="12.73036435912268"><ele>133.0</ele><time>2026-03-22T07:09:32.999Z</time></trkpt><trkpt lat="46.050788931785306" lon="12.730398991768682"><ele>133.5</ele><time>2026-03-22T07:09:33.999Z</time></trkpt><trkpt lat="46.05092261557054" lon="12.730434353476879"><ele>134.0</ele><time>2026-03-22T07:09:34.999Z</time></trkpt><trkpt lat="46.05104532075407" lon="12.73046304959311"><ele>134.5</ele><time>2026-03-22T07:09:35.999Z</time></trkpt><trkpt lat="46.051160820183895" lon="12.730466811417115"><ele>135.0</ele><time>2026-03-22T07:09:36.999Z</time></trkpt><trkpt lat="46.05128103303096" lon="12.730482894577705"><ele>135.0</ele><time>2026-03-22T07:09:37.999Z</time></trkpt><trkpt lat="46.05140731074334" lon="12.730493375101156"><ele>135.0</ele><time>2026-03-22T07:09:38.999Z</time></trkpt><trkpt lat="46.05151981152333" lon="12.730501850056298"><ele>135.0</ele><time>2026-03-22T07:09:39.999Z</time></trkpt><trkpt lat="46.05161268681781" lon="12.730520125784198"><ele>135.0</ele><time>2026-03-22T07:09:40.999Z</time></trkpt><trkpt lat="46.051699645582964" lon="12.73052705153416"><ele>135.0</ele><time>2026-03-22T07:09:41.999Z</time></trkpt><trkpt lat="46.05177131952394" lon="12.730538469920605"><ele>135.0</ele><time>2026-03-22T07:09:42.999Z</time></trkpt><trkpt lat="46.051896680236965" lon="12.730539074661271"><ele>135.0</ele><time>2026-03-22T07:09:44.999Z</time></trkpt><trkpt lat="46.051968764203025" lon="12.730527618974829"><ele>135.0</ele><time>2026-03-22T07:09:45.999Z</time></trkpt><trkpt lat="46.05207583425525" lon="12.730508546765863"><ele>135.0</ele><time>2026-03-22T07:09:47.999Z</time></trkpt><trkpt lat="46.0522021878095" lon="12.73048263026721"><ele>135.0</ele><time>2026-03-22T07:09:50Z</time></trkpt><trkpt lat="46.05229306846839" lon="12.73046272204664"><ele>135.0</ele><time>2026-03-22T07:09:51Z</time></trkpt><trkpt lat="46.05240864950775" lon="12.730437403069137"><ele>135.0</ele><time>2026-03-22T07:09:52Z</time></trkpt><trkpt lat="46.0525259635693" lon="12.730409375702228"><ele>135.0</ele><time>2026-03-22T07:09:53Z</time></trkpt><trkpt lat="46.052661527782064" lon="12.730377106920448"><ele>135.0</ele><time>2026-03-22T07:09:54Z</time></trkpt><trkpt lat="46.05280225816771" lon="12.730349450861718"><ele>134.66666666666666</ele><time>2026-03-22T07:09:55Z</time></trkpt><trkpt lat="46.05296568388618" lon="12.730300490545256"><ele>134.33333333333331</ele><time>2026-03-22T07:09:56Z</time></trkpt><trkpt lat="46.053128351974195" lon="12.730240192421048"><ele>134.0</ele><time>2026-03-22T07:09:57Z</time></trkpt><trkpt lat="46.05329799849823" lon="12.730173239163069"><ele>135.33333333333331</ele><time>2026-03-22T07:09:58Z</time></trkpt><trkpt lat="46.05346785007353" lon="12.730112840110397"><ele>136.66666666666666</ele><time>2026-03-22T07:09:59Z</time></trkpt><trkpt lat="46.05361788194838" lon="12.730074099796866"><ele>138.0</ele><time>2026-03-22T07:10:00Z</time></trkpt><trkpt lat="46.05376404375581" lon="12.73005152757858"><ele>138.0</ele><time>2026-03-22T07:10:01Z</time></trkpt><trkpt lat="46.053926721342" lon="12.730023508253577"><ele>138.0</ele><time>2026-03-22T07:10:02Z</time></trkpt><trkpt lat="46.05408820544929" lon="12.730013862149624"><ele>138.0</ele><time>2026-03-22T07:10:03Z</time></trkpt><trkpt lat="46.05423794736726" lon="12.730006274147316"><ele>138.25</ele><time>2026-03-22T07:10:04Z</time></trkpt><trkpt lat="46.05436882324169" lon="12.730002601740015"><ele>138.5</ele><time>2026-03-22T07:10:05Z</time></trkpt><trkpt lat="46.05449238223605" lon="12.72999426926931"><ele>138.75</ele><time>2026-03-22T07:10:06Z</time></trkpt><trkpt lat="46.054616784648424" lon="12.729975163487987"><ele>139.0</ele><time>2026-03-22T07:10:07Z</time></trkpt><trkpt lat="46.054737398259" lon="12.729983367626618"><ele>139.0</ele><time>2026-03-22T07:10:08Z</time></trkpt><trkpt lat="46.05486119978697" lon="12.72997392634498"><ele>139.0</ele><time>2026-03-22T07:10:09Z</time></trkpt><trkpt lat="46.05497489127037" lon="12.72996935798845"><ele>139.0</ele><time>2026-03-22T07:10:10Z</time></trkpt><trkpt lat="46.05509057894157" lon="12.729957853993996"><ele>139.0</ele><time>2026-03-22T07:10:11Z</time></trkpt><trkpt lat="46.05520448914801" lon="12.729959792937837"><ele>139.5</ele><time>2026-03-22T07:10:12Z</time></trkpt><trkpt lat="46.05532176658871" lon="12.729946135673753"><ele>140.0</ele><time>2026-03-22T07:10:13Z</time></trkpt><trkpt lat="46.055439257369564" lon="12.729924373200683"><ele>140.5</ele><time>2026-03-22T07:10:14Z</time></trkpt><trkpt lat="46.05555577164954" lon="12.729897030530855"><ele>141.0</ele><time>2026-03-22T07:10:15Z</time></trkpt><trkpt lat="46.05567574983597" lon="12.729861122934572"><ele>141.75</ele><time>2026-03-22T07:10:16Z</time></trkpt><trkpt lat="46.05579961259118" lon="12.729820160877402"><ele>142.5</ele><time>2026-03-22T07:10:17Z</time></trkpt><trkpt lat="46.05593098395211" lon="12.7298092733082"><ele>143.25</ele><time>2026-03-22T07:10:18Z</time></trkpt><trkpt lat="46.05606036174036" lon="12.729774437133216"><ele>144.0</ele><time>2026-03-22T07:10:19Z</time></trkpt><trkpt lat="46.056188743465384" lon="12.729739226678719"><ele>144.0</ele><time>2026-03-22T07:10:20Z</time></trkpt><trkpt lat="46.056326461917784" lon="12.72970145542362"><ele>144.0</ele><time>2026-03-22T07:10:21Z</time></trkpt><trkpt lat="46.056483613206936" lon="12.72966087346228"><ele>144.0</ele><time>2026-03-22T07:10:22Z</time></trkpt><trkpt lat="46.05664414506001" lon="12.729621915552713"><ele>143.75</ele><time>2026-03-22T07:10:23Z</time></trkpt><trkpt lat="46.05679326970278" lon="12.729590842546113"><ele>143.5</ele><time>2026-03-22T07:10:24Z</time></trkpt><trkpt lat="46.05693605927949" lon="12.729561654996997"><ele>143.25</ele><time>2026-03-22T07:10:25Z</time></trkpt><trkpt lat="46.057067519053405" lon="12.729535110182132"><ele>143.0</ele><time>2026-03-22T07:10:26Z</time></trkpt><trkpt lat="46.05719654523963" lon="12.729509056817005"><ele>143.0</ele><time>2026-03-22T07:10:27Z</time></trkpt><trkpt lat="46.057321973522676" lon="12.729468473003708"><ele>143.0</ele><time>2026-03-22T07:10:28Z</time></trkpt><trkpt lat="46.057448794401104" lon="12.729458121936517"><ele>143.0</ele><time>2026-03-22T07:10:29Z</time></trkpt><trkpt lat="46.05756841487041" lon="12.72941288953992"><ele>143.0</ele><time>2026-03-22T07:10:30Z</time></trkpt><trkpt lat="46.05768343795782" lon="12.729396113254033"><ele>143.6</ele><time>2026-03-22T07:10:31Z</time></trkpt><trkpt lat="46.05778398575068" lon="12.729374041236998"><ele>144.20000000000002</ele><time>2026-03-22T07:10:32Z</time></trkpt><trkpt lat="46.05789340290352" lon="12.72937093278229"><ele>144.8</ele><time>2026-03-22T07:10:33Z</time></trkpt><trkpt lat="46.0579874346489" lon="12.729335257755714"><ele>145.4</ele><time>2026-03-22T07:10:34Z</time></trkpt><trkpt lat="46.05807489742563" lon="12.729320755996017"><ele>146.0</ele><time>2026-03-22T07:10:35Z</time></trkpt><trkpt lat="46.05818031548423" lon="12.729300970234705"><ele>146.25</ele><time>2026-03-22T07:10:36Z</time></trkpt><trkpt lat="46.058294727023934" lon="12.729273740697895"><ele>146.5</ele><time>2026-03-22T07:10:37Z</time></trkpt><trkpt lat="46.058393871790585" lon="12.7292591210101"><ele>146.75</ele><time>2026-03-22T07:10:38Z</time></trkpt><trkpt lat="46.05851102608575" lon="12.729266241412615"><ele>147.0</ele><time>2026-03-22T07:10:39Z</time></trkpt><trkpt lat="46.05863695960446" lon="12.729252833582779"><ele>147.0</ele><time>2026-03-22T07:10:40Z</time></trkpt><trkpt lat="46.058759983252294" lon="12.729242272530442"><ele>147.0</ele><time>2026-03-22T07:10:41Z</time></trkpt><trkpt lat="46.05887290894096" lon="12.72923772916017"><ele>147.0</ele><time>2026-03-22T07:10:42Z</time></trkpt><trkpt lat="46.05898263455081" lon="12.729234383844036"><ele>147.0</ele><time>2026-03-22T07:10:43Z</time></trkpt><trkpt lat="46.059107598116604" lon="12.729237878624174"><ele>146.75</ele><time>2026-03-22T07:10:44Z</time></trkpt><trkpt lat="46.05922476595332" lon="12.72924705672131"><ele>146.5</ele><time>2026-03-22T07:10:45Z</time></trkpt><trkpt lat="46.05934824823345" lon="12.729236923826297"><ele>146.25</ele><time>2026-03-22T07:10:46Z</time></trkpt><trkpt lat="46.05948374787361" lon="12.729272248864579"><ele>146.0</ele><time>2026-03-22T07:10:47Z</time></trkpt><trkpt lat="46.05959820671935" lon="12.729270761308232"><ele>146.0</ele><time>2026-03-22T07:10:48Z</time></trkpt><trkpt lat="46.059696429861134" lon="12.729281917479964"><ele>146.0</ele><time>2026-03-22T07:10:49Z</time></trkpt><trkpt lat="46.059785826144555" lon="12.729274752976746"><ele>146.0</ele><time>2026-03-22T07:10:50Z</time></trkpt><trkpt lat="46.0598741726474" lon="12.72925271186713"><ele>146.0</ele><time>2026-03-22T07:10:51Z</time></trkpt><trkpt lat="46.0599579999573" lon="12.729259926778823"><ele>146.0</ele><time>2026-03-22T07:10:52Z</time></trkpt><trkpt lat="46.06004287597976" lon="12.729257263752249"><ele>146.0</ele><time>2026-03-22T07:10:53Z</time></trkpt><trkpt lat="46.060136009114245" lon="12.729247745261866"><ele>146.4</ele><time>2026-03-22T07:10:54Z</time></trkpt><trkpt lat="46.060213596994515" lon="12.729240209452977"><ele>146.8</ele><time>2026-03-22T07:10:55Z</time></trkpt><trkpt lat="46.0602914902145" lon="12.729229552793509"><ele>147.20000000000002</ele><time>2026-03-22T07:10:56Z</time></trkpt><trkpt lat="46.060392652902266" lon="12.729219686338158"><ele>147.6</ele><time>2026-03-22T07:10:57Z</time></trkpt><trkpt lat="46.06050759060687" lon="12.729202953774715"><ele>148.0</ele><time>2026-03-22T07:10:58Z</time></trkpt><trkpt lat="46.06064085899291" lon="12.729177421870766"><ele>148.0</ele><time>2026-03-22T07:10:59Z</time></trkpt><trkpt lat="46.06076021002828" lon="12.729154063260095"><ele>148.0</ele><time>2026-03-22T07:11:00Z</time></trkpt><trkpt lat="46.060869685357595" lon="12.729128286863666"><ele>148.0</ele><time>2026-03-22T07:11:01Z</time></trkpt><trkpt lat="46.06097342838711" lon="12.729097802134907"><ele>148.0</ele><time>2026-03-22T07:11:02Z</time></trkpt><trkpt lat="46.06107104234895" lon="12.729094633360384"><ele>148.0</ele><time>2026-03-22T07:11:03Z</time></trkpt><trkpt lat="46.06114820154806" lon="12.729066446090854"><ele>148.0</ele><time>2026-03-22T07:11:04Z</time></trkpt><trkpt lat="46.06124204601696" lon="12.729015374215663"><ele>148.0</ele><time>2026-03-22T07:11:06Z</time></trkpt><trkpt lat="46.06129329636087" lon="12.728930248792752"><ele>148.0</ele><time>2026-03-22T07:11:10Z</time></trkpt><trkpt lat="46.061279185017625" lon="12.728820721659893"><ele>148.0</ele><time>2026-03-22T07:11:11Z</time></trkpt><trkpt lat="46.061232616561284" lon="12.728726915540959"><ele>148.0</ele><time>2026-03-22T07:11:12Z</time></trkpt><trkpt lat="46.06119245840189" lon="12.728629638541756"><ele>148.0</ele><time>2026-03-22T07:11:13Z</time></trkpt><trkpt lat="46.06117492533413" lon="12.728509633831264"><ele>148.0</ele><time>2026-03-22T07:11:14Z</time></trkpt><trkpt lat="46.06114206889275" lon="12.728391047397292"><ele>148.0</ele><time>2026-03-22T07:11:15Z</time></trkpt><trkpt lat="46.06110487651419" lon="12.728256811255473"><ele>148.0</ele><time>2026-03-22T07:11:16Z</time></trkpt><trkpt lat="46.06106286511124" lon="12.728103850605544"><ele>148.0</ele><time>2026-03-22T07:11:17Z</time></trkpt><trkpt lat="46.06101877486758" lon="12.727942283943404"><ele>148.0</ele><time>2026-03-22T07:11:18Z</time></trkpt><trkpt lat="46.06097286091418" lon="12.727769613043478"><ele>148.25</ele><time>2026-03-22T07:11:19Z</time></trkpt><trkpt lat="46.06092893259488" lon="12.727599090459346"><ele>148.5</ele><time>2026-03-22T07:11:20Z</time></trkpt><trkpt lat="46.060889794634065" lon="12.727435621872377"><ele>148.75</ele><time>2026-03-22T07:11:21Z</time></trkpt><trkpt lat="46.0608382450241" lon="12.72728257440735"><ele>149.0</ele><time>2026-03-22T07:11:22Z</time></trkpt><trkpt lat="46.060811238846206" lon="12.727139268323715"><ele>149.0</ele><time>2026-03-22T07:11:23Z</time></trkpt><trkpt lat="46.060786022775716" lon="12.727009867368372"><ele>149.0</ele><time>2026-03-22T07:11:23.999Z</time></trkpt><trkpt lat="46.060763671822954" lon="12.726895976624897"><ele>149.0</ele><time>2026-03-22T07:11:24.999Z</time></trkpt><trkpt lat="46.06074694444255" lon="12.726796465275905"><ele>149.0</ele><time>2026-03-22T07:11:25.999Z</time></trkpt><trkpt lat="46.06075312362501" lon="12.72670475173745"><ele>149.0</ele><time>2026-03-22T07:11:26.999Z</time></trkpt><trkpt lat="46.06077251510094" lon="12.72655278683691"><ele>149.0</ele><time>2026-03-22T07:11:28.999Z</time></trkpt><trkpt lat="46.06085675645234" lon="12.726544834623935"><ele>149.5</ele><time>2026-03-22T07:11:30.999Z</time></trkpt><trkpt lat="46.06093921106008" lon="12.726500517913484"><ele>150.0</ele><time>2026-03-22T07:11:33.999Z</time></trkpt><trkpt lat="46.06100976800787" lon="12.726494529064043"><ele>150.5</ele><time>2026-03-22T07:11:34.999Z</time></trkpt><trkpt lat="46.061105122078324" lon="12.726472782293467"><ele>151.0</ele><time>2026-03-22T07:11:35.999Z</time></trkpt><trkpt lat="46.061186090664606" lon="12.726450019820769"><ele>151.5</ele><time>2026-03-22T07:11:36.999Z</time></trkpt><trkpt lat="46.061277412985625" lon="12.726451114760504"><ele>152.0</ele><time>2026-03-22T07:11:37.999Z</time></trkpt><trkpt lat="46.06135931510823" lon="12.726442430310135"><ele>152.0</ele><time>2026-03-22T07:11:38.999Z</time></trkpt><trkpt lat="46.0614366642531" lon="12.726445407309113"><ele>152.0</ele><time>2026-03-22T07:11:39.999Z</time></trkpt><trkpt lat="46.061546227757134" lon="12.726439694237545"><ele>152.0</ele><time>2026-03-22T07:11:40.999Z</time></trkpt><trkpt lat="46.06165699360698" lon="12.726503240655038"><ele>152.0</ele><time>2026-03-22T07:11:41.999Z</time></trkpt><trkpt lat="46.061750092843695" lon="12.726562264574696"><ele>152.0</ele><time>2026-03-22T07:11:42.999Z</time></trkpt><trkpt lat="46.06185825421192" lon="12.726597679398315"><ele>152.0</ele><time>2026-03-22T07:11:43.999Z</time></trkpt><trkpt lat="46.0619645600736" lon="12.726712212192977"><ele>152.0</ele><time>2026-03-22T07:11:44.999Z</time></trkpt><trkpt lat="46.0620599692586" lon="12.726843151837741"><ele>152.0</ele><time>2026-03-22T07:11:45.999Z</time></trkpt><trkpt lat="46.06216018339072" lon="12.72700761788532"><ele>152.0</ele><time>2026-03-22T07:11:46.999Z</time></trkpt><trkpt lat="46.062227723278944" lon="12.727204344849664"><ele>152.0</ele><time>2026-03-22T07:11:47.999Z</time></trkpt><trkpt lat="46.06231023475816" lon="12.727347613339962"><ele>152.0</ele><time>2026-03-22T07:11:48.999Z</time></trkpt><trkpt lat="46.06238355565158" lon="12.72747148271978"><ele>152.0</ele><time>2026-03-22T07:11:49.999Z</time></trkpt><trkpt lat="46.06246344502575" lon="12.727603972947474"><ele>152.0</ele><time>2026-03-22T07:11:50.999Z</time></trkpt><trkpt lat="46.062544653996476" lon="12.727737572524509"><ele>152.0</ele><time>2026-03-22T07:11:51.999Z</time></trkpt><trkpt lat="46.062643574737926" lon="12.727867566936313"><ele>152.0</ele><time>2026-03-22T07:11:52.999Z</time></trkpt><trkpt lat="46.06272747223357" lon="12.728025012316394"><ele>152.0</ele><time>2026-03-22T07:11:53.999Z</time></trkpt><trkpt lat="46.06280708036216" lon="12.728168270596454"><ele>152.0</ele><time>2026-03-22T07:11:55Z</time></trkpt><trkpt lat="46.06289495888143" lon="12.728309214746469"><ele>152.0</ele><time>2026-03-22T07:11:56Z</time></trkpt><trkpt lat="46.06301243569727" lon="12.728442006226894"><ele>152.0</ele><time>2026-03-22T07:11:57Z</time></trkpt><trkpt lat="46.063134126322055" lon="12.7285518105293"><ele>152.0</ele><time>2026-03-22T07:11:58Z</time></trkpt><trkpt lat="46.063248221045704" lon="12.728618264673123"><ele>152.0</ele><time>2026-03-22T07:11:59Z</time></trkpt><trkpt lat="46.06335474545201" lon="12.728662006068445"><ele>151.75</ele><time>2026-03-22T07:12:00Z</time></trkpt><trkpt lat="46.06347631573783" lon="12.728676436923829"><ele>151.5</ele><time>2026-03-22T07:12:01Z</time></trkpt><trkpt lat="46.06362163435568" lon="12.728669301900794"><ele>151.25</ele><time>2026-03-22T07:12:02Z</time></trkpt><trkpt lat="46.06378411532302" lon="12.728626426570177"><ele>151.0</ele><time>2026-03-22T07:12:03Z</time></trkpt><trkpt lat="46.06395953002159" lon="12.728577370943226"><ele>151.66666666666669</ele><time>2026-03-22T07:12:04Z</time></trkpt><trkpt lat="46.064138309537675" lon="12.728576694320573"><ele>152.33333333333334</ele><time>2026-03-22T07:12:05Z</time></trkpt><trkpt lat="46.06432970576281" lon="12.728559150462203"><ele>153.0</ele><time>2026-03-22T07:12:06Z</time></trkpt><trkpt lat="46.06450895249013" lon="12.728522861972454"><ele>153.0</ele><time>2026-03-22T07:12:07Z</time></trkpt><trkpt lat="46.0646904953319" lon="12.728513951942798"><ele>153.0</ele><time>2026-03-22T07:12:08Z</time></trkpt><trkpt lat="46.06486227007817" lon="12.728505359582748"><ele>153.0</ele><time>2026-03-22T07:12:09Z</time></trkpt><trkpt lat="46.06502070340661" lon="12.72850379162475"><ele>153.25</ele><time>2026-03-22T07:12:10Z</time></trkpt><trkpt lat="46.0651600764979" lon="12.728504944204698"><ele>153.5</ele><time>2026-03-22T07:12:11Z</time></trkpt><trkpt lat="46.06530135624679" lon="12.728505461355265"><ele>153.75</ele><time>2026-03-22T07:12:12Z</time></trkpt><trkpt lat="46.065448051978585" lon="12.728502489207886"><ele>154.0</ele><time>2026-03-22T07:12:13Z</time></trkpt><trkpt lat="46.06559546083587" lon="12.728486880107152"><ele>154.0</ele><time>2026-03-22T07:12:14Z</time></trkpt><trkpt lat="46.065753761907224" lon="12.72846270074593"><ele>154.0</ele><time>2026-03-22T07:12:15Z</time></trkpt><trkpt lat="46.06591261875997" lon="12.728452929681296"><ele>154.0</ele><time>2026-03-22T07:12:16Z</time></trkpt><trkpt lat="46.06605664899828" lon="12.728451207526954"><ele>154.66666666666669</ele><time>2026-03-22T07:12:17Z</time></trkpt><trkpt lat="46.06620227667849" lon="12.728450494984017"><ele>155.33333333333334</ele><time>2026-03-22T07:12:18Z</time></trkpt><trkpt lat="46.06635536644038" lon="12.728432873744408"><ele>156.0</ele><time>2026-03-22T07:12:19Z</time></trkpt><trkpt lat="46.06652182166153" lon="12.72840670884714"><ele>156.25</ele><time>2026-03-22T07:12:20Z</time></trkpt><trkpt lat="46.06667561176117" lon="12.728378015377132"><ele>156.5</ele><time>2026-03-22T07:12:21Z</time></trkpt><trkpt lat="46.066811914692444" lon="12.72834363760255"><ele>156.75</ele><time>2026-03-22T07:12:22Z</time></trkpt><trkpt lat="46.06695176947666" lon="12.728295749272462"><ele>157.0</ele><time>2026-03-22T07:12:23Z</time></trkpt><trkpt lat="46.06709519367295" lon="12.728220727002151"><ele>157.0</ele><time>2026-03-22T07:12:24Z</time></trkpt><trkpt lat="46.06723644599509" lon="12.72814444810584"><ele>157.0</ele><time>2026-03-22T07:12:25Z</time></trkpt><trkpt lat="46.06737649669593" lon="12.728065766187088"><ele>157.0</ele><time>2026-03-22T07:12:26Z</time></trkpt><trkpt lat="46.067504409003696" lon="12.727994480885043"><ele>157.0</ele><time>2026-03-22T07:12:27Z</time></trkpt><trkpt lat="46.067632755671944" lon="12.727920377344834"><ele>157.0</ele><time>2026-03-22T07:12:28Z</time></trkpt><trkpt lat="46.067758500218964" lon="12.727838501344019"><ele>157.0</ele><time>2026-03-22T07:12:29Z</time></trkpt><trkpt lat="46.06788733554223" lon="12.727756238741307"><ele>157.0</ele><time>2026-03-22T07:12:30Z</time></trkpt><trkpt lat="46.068016170148695" lon="12.72766878026687"><ele>157.0</ele><time>2026-03-22T07:12:31Z</time></trkpt><trkpt lat="46.0681516093933" lon="12.72758059231278"><ele>157.33333333333334</ele><time>2026-03-22T07:12:32Z</time></trkpt><trkpt lat="46.068289929681875" lon="12.727482361467453"><ele>157.66666666666666</ele><time>2026-03-22T07:12:33Z</time></trkpt><trkpt lat="46.06842782080013" lon="12.727376849420201"><ele>158.0</ele><time>2026-03-22T07:12:34Z</time></trkpt><trkpt lat="46.06856124945025" lon="12.727281354681217"><ele>158.0</ele><time>2026-03-22T07:12:35Z</time></trkpt><trkpt lat="46.06868264408369" lon="12.72720617822931"><ele>158.0</ele><time>2026-03-22T07:12:36Z</time></trkpt><trkpt lat="46.068792296806635" lon="12.727142637497652"><ele>158.0</ele><time>2026-03-22T07:12:37Z</time></trkpt><trkpt lat="46.06888996169945" lon="12.727083641909102"><ele>158.0</ele><time>2026-03-22T07:12:38Z</time></trkpt><trkpt lat="46.068973437149154" lon="12.727027322993377"><ele>158.0</ele><time>2026-03-22T07:12:39Z</time></trkpt><trkpt lat="46.06904946316246" lon="12.726974023927188"><ele>158.16666666666666</ele><time>2026-03-22T07:12:40Z</time></trkpt><trkpt lat="46.06911491362777" lon="12.726931196799462"><ele>158.33333333333331</ele><time>2026-03-22T07:12:41Z</time></trkpt><trkpt lat="46.06920827051762" lon="12.726895762334362"><ele>158.5</ele><time>2026-03-22T07:12:43Z</time></trkpt><trkpt lat="46.069267885409204" lon="12.7268532352095"><ele>158.66666666666666</ele><time>2026-03-22T07:12:46Z</time></trkpt><trkpt lat="46.06935890984159" lon="12.726758444816523"><ele>158.83333333333334</ele><time>2026-03-22T07:12:48Z</time></trkpt><trkpt lat="46.069417350265454" lon="12.726707245400592"><ele>159.0</ele><time>2026-03-22T07:12:49Z</time></trkpt><trkpt lat="46.06949289264274" lon="12.72665536322492"><ele>159.25</ele><time>2026-03-22T07:12:50Z</time></trkpt><trkpt lat="46.0695918839931" lon="12.726612540542902"><ele>159.5</ele><time>2026-03-22T07:12:51Z</time></trkpt><trkpt lat="46.06969562314325" lon="12.72654333424726"><ele>159.75</ele><time>2026-03-22T07:12:52Z</time></trkpt><trkpt lat="46.0697980210854" lon="12.726475022735379"><ele>160.0</ele><time>2026-03-22T07:12:53Z</time></trkpt><trkpt lat="46.06990738127405" lon="12.72640206658949"><ele>160.0</ele><time>2026-03-22T07:12:54Z</time></trkpt><trkpt lat="46.07001028310393" lon="12.72633341889842"><ele>160.0</ele><time>2026-03-22T07:12:55Z</time></trkpt><trkpt lat="46.070113440347285" lon="12.726241251609451"><ele>160.0</ele><time>2026-03-22T07:12:56Z</time></trkpt><trkpt lat="46.07022130555247" lon="12.726171839946122"><ele>160.0</ele><time>2026-03-22T07:12:57Z</time></trkpt><trkpt lat="46.07032416412195" lon="12.726104691920913"><ele>160.2</ele><time>2026-03-22T07:12:58Z</time></trkpt><trkpt lat="46.070423588096595" lon="12.726050686046834"><ele>160.4</ele><time>2026-03-22T07:12:59Z</time></trkpt><trkpt lat="46.070520519328056" lon="12.725994085011626"><ele>160.60000000000002</ele><time>2026-03-22T07:13:00Z</time></trkpt><trkpt lat="46.07061766788548" lon="12.725933943023936"><ele>160.8</ele><time>2026-03-22T07:13:01Z</time></trkpt><trkpt lat="46.070709577365115" lon="12.725873065268033"><ele>161.0</ele><time>2026-03-22T07:13:02Z</time></trkpt><trkpt lat="46.07078415037967" lon="12.72581191102726"><ele>161.0</ele><time>2026-03-22T07:13:03Z</time></trkpt><trkpt lat="46.07085147446976" lon="12.72576105012047"><ele>161.0</ele><time>2026-03-22T07:13:04Z</time></trkpt><trkpt lat="46.07092832566014" lon="12.725714941980812"><ele>161.0</ele><time>2026-03-22T07:13:05Z</time></trkpt><trkpt lat="46.07100235889545" lon="12.72567971447035"><ele>161.0</ele><time>2026-03-22T07:13:06Z</time></trkpt><trkpt lat="46.071076578793566" lon="12.725634471522765"><ele>161.0</ele><time>2026-03-22T07:13:07Z</time></trkpt><trkpt lat="46.07115179145752" lon="12.725579430325888"><ele>161.0</ele><time>2026-03-22T07:13:08Z</time></trkpt><trkpt lat="46.071232389514776" lon="12.725506920573126"><ele>161.0</ele><time>2026-03-22T07:13:09Z</time></trkpt><trkpt lat="46.07132938786722" lon="12.725419631758392"><ele>161.0</ele><time>2026-03-22T07:13:10Z</time></trkpt><trkpt lat="46.071441724465146" lon="12.725364267470292"><ele>161.0</ele><time>2026-03-22T07:13:11Z</time></trkpt><trkpt lat="46.07153738996481" lon="12.725274741501774"><ele>161.0</ele><time>2026-03-22T07:13:12Z</time></trkpt><trkpt lat="46.07163815270706" lon="12.725216688565844"><ele>162.0</ele><time>2026-03-22T07:13:13Z</time></trkpt><trkpt lat="46.07174133517579" lon="12.725153488618675"><ele>163.0</ele><time>2026-03-22T07:13:14Z</time></trkpt><trkpt lat="46.071847720490894" lon="12.725082842506552"><ele>164.0</ele><time>2026-03-22T07:13:15Z</time></trkpt><trkpt lat="46.07195202698136" lon="12.725010542036411"><ele>165.0</ele><time>2026-03-22T07:13:16Z</time></trkpt><trkpt lat="46.0720547924086" lon="12.724940801224566"><ele>165.0</ele><time>2026-03-22T07:13:17Z</time></trkpt><trkpt lat="46.07216088932863" lon="12.724871535361462"><ele>165.0</ele><time>2026-03-22T07:13:18Z</time></trkpt><trkpt lat="46.07226998977116" lon="12.724799664289089"><ele>165.0</ele><time>2026-03-22T07:13:19Z</time></trkpt><trkpt lat="46.07237803623405" lon="12.724731875613756"><ele>165.0</ele><time>2026-03-22T07:13:20Z</time></trkpt><trkpt lat="46.07248597940286" lon="12.724654825418686"><ele>165.0</ele><time>2026-03-22T07:13:21Z</time></trkpt><trkpt lat="46.07259453711288" lon="12.72458601523505"><ele>165.0</ele><time>2026-03-22T07:13:22Z</time></trkpt><trkpt lat="46.07270028464756" lon="12.72452338174467"><ele>165.0</ele><time>2026-03-22T07:13:23Z</time></trkpt><trkpt lat="46.07280317741977" lon="12.724454476323125"><ele>165.0</ele><time>2026-03-22T07:13:24Z</time></trkpt><trkpt lat="46.072898906040656" lon="12.72438434506852"><ele>165.0</ele><time>2026-03-22T07:13:25Z</time></trkpt><trkpt lat="46.07299543893655" lon="12.72431859613869"><ele>165.0</ele><time>2026-03-22T07:13:25.999Z</time></trkpt><trkpt lat="46.07309130910222" lon="12.724258256510192"><ele>165.0</ele><time>2026-03-22T07:13:26.999Z</time></trkpt><trkpt lat="46.07318216142073" lon="12.724197819520791"><ele>165.0</ele><time>2026-03-22T07:13:27.999Z</time></trkpt><trkpt lat="46.073266615585176" lon="12.724136994702002"><ele>165.0</ele><time>2026-03-22T07:13:28.999Z</time></trkpt><trkpt lat="46.07335934648032" lon="12.724072145033812"><ele>165.25</ele><time>2026-03-22T07:13:29.999Z</time></trkpt><trkpt lat="46.073462062865566" lon="12.72400762870497"><ele>165.5</ele><time>2026-03-22T07:13:30.999Z</time></trkpt><trkpt lat="46.07356718916676" lon="12.723936622309743"><ele>165.75</ele><time>2026-03-22T07:13:31.999Z</time></trkpt><trkpt lat="46.073672162465854" lon="12.72386772180128"><ele>166.0</ele><time>2026-03-22T07:13:32.999Z</time></trkpt><trkpt lat="46.07377980281135" lon="12.723801001751518"><ele>166.0</ele><time>2026-03-22T07:13:33.999Z</time></trkpt><trkpt lat="46.07387933268026" lon="12.72373354354851"><ele>166.0</ele><time>2026-03-22T07:13:34.999Z</time></trkpt><trkpt lat="46.07397277768795" lon="12.723670300609854"><ele>166.0</ele><time>2026-03-22T07:13:35.999Z</time></trkpt><trkpt lat="46.07406461481848" lon="12.72360612512339"><ele>166.0</ele><time>2026-03-22T07:13:36.999Z</time></trkpt><trkpt lat="46.07415664623255" lon="12.723544394623207"><ele>166.0</ele><time>2026-03-22T07:13:37.999Z</time></trkpt><trkpt lat="46.07424848036986" lon="12.723478417471737"><ele>166.0</ele><time>2026-03-22T07:13:38.999Z</time></trkpt><trkpt lat="46.074339817974284" lon="12.723411170927143"><ele>166.0</ele><time>2026-03-22T07:13:39.999Z</time></trkpt><trkpt lat="46.074435821121526" lon="12.72334780999532"><ele>166.0</ele><time>2026-03-22T07:13:40.999Z</time></trkpt><trkpt lat="46.07452682246793" lon="12.723291008983715"><ele>166.0</ele><time>2026-03-22T07:13:41.999Z</time></trkpt><trkpt lat="46.074625982047976" lon="12.723228176994628"><ele>166.0</ele><time>2026-03-22T07:13:42.999Z</time></trkpt><trkpt lat="46.07472147682505" lon="12.723161216811143"><ele>166.0</ele><time>2026-03-22T07:13:43.999Z</time></trkpt><trkpt lat="46.074820828237236" lon="12.723085217712917"><ele>166.0</ele><time>2026-03-22T07:13:44.999Z</time></trkpt><trkpt lat="46.07491721394224" lon="12.723015296777797"><ele>166.0</ele><time>2026-03-22T07:13:45.999Z</time></trkpt><trkpt lat="46.07500461054461" lon="12.722966372146256"><ele>166.0</ele><time>2026-03-22T07:13:46.999Z</time></trkpt><trkpt lat="46.07509800975861" lon="12.722914414971092"><ele>166.0</ele><time>2026-03-22T07:13:47.999Z</time></trkpt><trkpt lat="46.07518240685113" lon="12.722853389094475"><ele>166.0</ele><time>2026-03-22T07:13:48.999Z</time></trkpt><trkpt lat="46.07525827966534" lon="12.722788330959588"><ele>166.0</ele><time>2026-03-22T07:13:49.999Z</time></trkpt><trkpt lat="46.075340584805176" lon="12.722732640534227"><ele>166.0</ele><time>2026-03-22T07:13:50.999Z</time></trkpt><trkpt lat="46.07542486586255" lon="12.72268599976718"><ele>166.0</ele><time>2026-03-22T07:13:51.999Z</time></trkpt><trkpt lat="46.075496639671904" lon="12.722635503308137"><ele>166.0</ele><time>2026-03-22T07:13:52.999Z</time></trkpt><trkpt lat="46.07558316497521" lon="12.722573043445731"><ele>166.0</ele><time>2026-03-22T07:13:53.999Z</time></trkpt><trkpt lat="46.07567228355248" lon="12.72251169964523"><ele>166.20000000000002</ele><time>2026-03-22T07:13:54.999Z</time></trkpt><trkpt lat="46.07575837327181" lon="12.722451531581623"><ele>166.4</ele><time>2026-03-22T07:13:55.999Z</time></trkpt><trkpt lat="46.07585127396554" lon="12.722393884533975"><ele>166.6</ele><time>2026-03-22T07:13:56.999Z</time></trkpt><trkpt lat="46.07593510777751" lon="12.722338725934794"><ele>166.8</ele><time>2026-03-22T07:13:57.999Z</time></trkpt><trkpt lat="46.07602671079075" lon="12.722280488017567"><ele>167.0</ele><time>2026-03-22T07:13:58.999Z</time></trkpt><trkpt lat="46.07610957651709" lon="12.722231751037166"><ele>167.16666666666666</ele><time>2026-03-22T07:13:59.999Z</time></trkpt><trkpt lat="46.07618767853159" lon="12.722183809580802"><ele>167.33333333333331</ele><time>2026-03-22T07:14:01Z</time></trkpt><trkpt lat="46.07626972135741" lon="12.722133027423979"><ele>167.5</ele><time>2026-03-22T07:14:02Z</time></trkpt><trkpt lat="46.07635671741695" lon="12.722078114227562"><ele>167.66666666666666</ele><time>2026-03-22T07:14:03Z</time></trkpt><trkpt lat="46.07644246788507" lon="12.722022144725493"><ele>167.83333333333334</ele><time>2026-03-22T07:14:04Z</time></trkpt><trkpt lat="46.076516008665536" lon="12.721969072282036"><ele>168.0</ele><time>2026-03-22T07:14:05Z</time></trkpt><trkpt lat="46.076592086922425" lon="12.721911267983314"><ele>168.4</ele><time>2026-03-22T07:14:06Z</time></trkpt><trkpt lat="46.076670011807174" lon="12.721852792740288"><ele>168.8</ele><time>2026-03-22T07:14:07Z</time></trkpt><trkpt lat="46.07675243695994" lon="12.721797348009506"><ele>169.2</ele><time>2026-03-22T07:14:08Z</time></trkpt><trkpt lat="46.07684488958476" lon="12.721742761864501"><ele>169.6</ele><time>2026-03-22T07:14:09Z</time></trkpt><trkpt lat="46.07693789512677" lon="12.721675611823512"><ele>170.0</ele><time>2026-03-22T07:14:10Z</time></trkpt><trkpt lat="46.0770235969472" lon="12.72159991842741"><ele>170.0</ele><time>2026-03-22T07:14:11Z</time></trkpt><trkpt lat="46.07711957553218" lon="12.721557656835337"><ele>170.0</ele><time>2026-03-22T07:14:12Z</time></trkpt><trkpt lat="46.07720912981211" lon="12.721476975788034"><ele>170.0</ele><time>2026-03-22T07:14:13Z</time></trkpt><trkpt lat="46.0773035285788" lon="12.721414899342902"><ele>170.0</ele><time>2026-03-22T07:14:14Z</time></trkpt><trkpt lat="46.077403739491956" lon="12.721350394620682"><ele>170.0</ele><time>2026-03-22T07:14:15Z</time></trkpt><trkpt lat="46.07749996582881" lon="12.721286431429832"><ele>170.0</ele><time>2026-03-22T07:14:16Z</time></trkpt><trkpt lat="46.077595362345974" lon="12.721220438564695"><ele>170.0</ele><time>2026-03-22T07:14:17Z</time></trkpt><trkpt lat="46.07768923315348" lon="12.721152326633048"><ele>170.0</ele><time>2026-03-22T07:14:18Z</time></trkpt><trkpt lat="46.077771546067886" lon="12.721093629338906"><ele>170.0</ele><time>2026-03-22T07:14:19Z</time></trkpt><trkpt lat="46.077859475879784" lon="12.721042757905549"><ele>170.0</ele><time>2026-03-22T07:14:20Z</time></trkpt><trkpt lat="46.07792772602471" lon="12.720989183651092"><ele>170.33333333333331</ele><time>2026-03-22T07:14:21Z</time></trkpt><trkpt lat="46.07799564518586" lon="12.72095320805568"><ele>170.66666666666666</ele><time>2026-03-22T07:14:22Z</time></trkpt><trkpt lat="46.078063072684586" lon="12.720920717802061"><ele>171.0</ele><time>2026-03-22T07:14:23Z</time></trkpt><trkpt lat="46.07813566789429" lon="12.720883358466873"><ele>171.33333333333334</ele><time>2026-03-22T07:14:24Z</time></trkpt><trkpt lat="46.07820942802873" lon="12.720844354313119"><ele>171.66666666666669</ele><time>2026-03-22T07:14:25Z</time></trkpt><trkpt lat="46.0782760505172" lon="12.720792798782295"><ele>172.0</ele><time>2026-03-22T07:14:26Z</time></trkpt><trkpt lat="46.07835033103091" lon="12.720728406885812"><ele>172.0</ele><time>2026-03-22T07:14:27Z</time></trkpt><trkpt lat="46.07843610070202" lon="12.720660945708005"><ele>172.0</ele><time>2026-03-22T07:14:28Z</time></trkpt><trkpt lat="46.07852957247189" lon="12.720588857319289"><ele>172.0</ele><time>2026-03-22T07:14:29Z</time></trkpt><trkpt lat="46.07862050411841" lon="12.720521514603409"><ele>172.0</ele><time>2026-03-22T07:14:30Z</time></trkpt><trkpt lat="46.07872316369368" lon="12.720459074826723"><ele>172.0</ele><time>2026-03-22T07:14:31Z</time></trkpt><trkpt lat="46.07883052746243" lon="12.720399977789564"><ele>172.0</ele><time>2026-03-22T07:14:32Z</time></trkpt><trkpt lat="46.078935661684724" lon="12.720346951875458"><ele>172.0</ele><time>2026-03-22T07:14:33Z</time></trkpt><trkpt lat="46.079018536057156" lon="12.720292095988214"><ele>172.0</ele><time>2026-03-22T07:14:34Z</time></trkpt><trkpt lat="46.07910686316226" lon="12.720227170847666"><ele>172.0</ele><time>2026-03-22T07:14:35Z</time></trkpt><trkpt lat="46.07920455018441" lon="12.720153900749544"><ele>172.0</ele><time>2026-03-22T07:14:36Z</time></trkpt><trkpt lat="46.07929817185741" lon="12.720076842638214"><ele>172.5</ele><time>2026-03-22T07:14:37Z</time></trkpt><trkpt lat="46.07939892783873" lon="12.71999491634991"><ele>173.0</ele><time>2026-03-22T07:14:38Z</time></trkpt><trkpt lat="46.079508108048145" lon="12.719921944641348"><ele>173.5</ele><time>2026-03-22T07:14:39Z</time></trkpt><trkpt lat="46.07963004974" lon="12.719863374756182"><ele>174.0</ele><time>2026-03-22T07:14:40Z</time></trkpt><trkpt lat="46.07974988221515" lon="12.719781897149602"><ele>174.0</ele><time>2026-03-22T07:14:41Z</time></trkpt><trkpt lat="46.07986747114091" lon="12.719676480001734"><ele>174.0</ele><time>2026-03-22T07:14:42Z</time></trkpt><trkpt lat="46.07998754018757" lon="12.719601925677969"><ele>174.0</ele><time>2026-03-22T07:14:43Z</time></trkpt><trkpt lat="46.08009112703211" lon="12.719549874804043"><ele>174.0</ele><time>2026-03-22T07:14:44Z</time></trkpt><trkpt lat="46.080162126853914" lon="12.719501599951471"><ele>174.25</ele><time>2026-03-22T07:14:45Z</time></trkpt><trkpt lat="46.080232321958995" lon="12.719463213855773"><ele>174.5</ele><time>2026-03-22T07:14:47Z</time></trkpt><trkpt lat="46.08031378887697" lon="12.719445361442421"><ele>174.75</ele><time>2026-03-22T07:14:51Z</time></trkpt><trkpt lat="46.08036495290462" lon="12.719390149964893"><ele>175.0</ele><time>2026-03-22T07:14:55Z</time></trkpt><trkpt lat="46.08045870551357" lon="12.719822352494049"><ele>175.0</ele><time>2026-03-22T07:15:06Z</time></trkpt><trkpt lat="46.08051800174671" lon="12.719699287890744"><ele>175.0</ele><time>2026-03-22T07:15:20Z</time></trkpt><trkpt lat="46.08063075253529" lon="12.71962543510172"><ele>175.0</ele><time>2026-03-22T07:15:22Z</time></trkpt><trkpt lat="46.08069859481526" lon="12.719607996172636"><ele>175.0</ele><time>2026-03-22T07:15:23Z</time></trkpt><trkpt lat="46.08076436323065" lon="12.719579904370965"><ele>175.0</ele><time>2026-03-22T07:15:24Z</time></trkpt><trkpt lat="46.080859991868856" lon="12.719513234569945"><ele>175.0</ele><time>2026-03-22T07:15:26Z</time></trkpt><trkpt lat="46.08095570455934" lon="12.719457539366786"><ele>175.0</ele><time>2026-03-22T07:15:27.999Z</time></trkpt><trkpt lat="46.08102675688138" lon="12.719453339456619"><ele>175.0</ele><time>2026-03-22T07:15:30.999Z</time></trkpt><trkpt lat="46.0809027872135" lon="12.719482862050716"><ele>175.0</ele><time>2026-03-22T07:15:46.999Z</time></trkpt><trkpt lat="46.080839863729246" lon="12.71954631024004"><ele>175.0</ele><time>2026-03-22T07:15:47.999Z</time></trkpt><trkpt lat="46.08077634103256" lon="12.719586359659655"><ele>175.0</ele><time>2026-03-22T07:15:48.999Z</time></trkpt><trkpt lat="46.08070480857905" lon="12.719624230800953"><ele>175.0</ele><time>2026-03-22T07:15:49.999Z</time></trkpt><trkpt lat="46.080583150194016" lon="12.719680268809643"><ele>175.0</ele><time>2026-03-22T07:15:51.999Z</time></trkpt><trkpt lat="46.08051940014025" lon="12.719701290542822"><ele>175.0</ele><time>2026-03-22T07:15:52.999Z</time></trkpt><trkpt lat="46.080404603358936" lon="12.719762060862486"><ele>175.0</ele><time>2026-03-22T07:15:54.999Z</time></trkpt><trkpt lat="46.08030376743042" lon="12.719843731820456"><ele>175.0</ele><time>2026-03-22T07:15:56.999Z</time></trkpt><trkpt lat="46.080246740758334" lon="12.719898060424127"><ele>175.0</ele><time>2026-03-22T07:15:57.999Z</time></trkpt><trkpt lat="46.080195442049686" lon="12.719956909459423"><ele>175.0</ele><time>2026-03-22T07:15:58.999Z</time></trkpt><trkpt lat="46.08014340618885" lon="12.720012798847362"><ele>175.0</ele><time>2026-03-22T07:15:59.999Z</time></trkpt><trkpt lat="46.08006386862641" lon="12.720103041758014"><ele>175.0</ele><time>2026-03-22T07:16:01.999Z</time></trkpt><trkpt lat="46.07995318872214" lon="12.720178338311115"><ele>175.0</ele><time>2026-03-22T07:16:03.999Z</time></trkpt><trkpt lat="46.079897193779566" lon="12.72022659966548"><ele>175.0</ele><time>2026-03-22T07:16:04.999Z</time></trkpt><trkpt lat="46.07985310745301" lon="12.72031973879747"><ele>174.66666666666669</ele><time>2026-03-22T07:16:07Z</time></trkpt><trkpt lat="46.07983839123221" lon="12.720418929471041"><ele>174.33333333333334</ele><time>2026-03-22T07:16:10Z</time></trkpt><trkpt lat="46.07974977993731" lon="12.72048190957005"><ele>174.0</ele><time>2026-03-22T07:16:16Z</time></trkpt><trkpt lat="46.07964686481871" lon="12.720479682662871"><ele>173.66666666666666</ele><time>2026-03-22T07:16:18Z</time></trkpt><trkpt lat="46.07957147106796" lon="12.720480309334391"><ele>173.33333333333331</ele><time>2026-03-22T07:16:20Z</time></trkpt><trkpt lat="46.079523529360145" lon="12.720564312131328"><ele>173.0</ele><time>2026-03-22T07:16:23Z</time></trkpt><trkpt lat="46.07952786738649" lon="12.720656803945591"><ele>173.0</ele><time>2026-03-22T07:16:25Z</time></trkpt><trkpt lat="46.07945547991927" lon="12.720657314418297"><ele>173.0</ele><time>2026-03-22T07:16:29Z</time></trkpt><trkpt lat="46.07942062247454" lon="12.720742423743859"><ele>173.0</ele><time>2026-03-22T07:16:32Z</time></trkpt><trkpt lat="46.079473859353534" lon="12.720813150644876"><ele>173.0</ele><time>2026-03-22T07:16:42Z</time></trkpt><trkpt lat="46.07957171042236" lon="12.720805369746317"><ele>173.0</ele><time>2026-03-22T07:16:44Z</time></trkpt><trkpt lat="46.07962915506549" lon="12.720765315660316"><ele>173.0</ele><time>2026-03-22T07:16:46Z</time></trkpt><trkpt lat="46.07970290542075" lon="12.720773829254025"><ele>173.0</ele><time>2026-03-22T07:16:48Z</time></trkpt><trkpt lat="46.079815194374014" lon="12.720800193813584"><ele>173.0</ele><time>2026-03-22T07:16:50Z</time></trkpt><trkpt lat="46.07990733754872" lon="12.720817775255307"><ele>173.0</ele><time>2026-03-22T07:16:52Z</time></trkpt><trkpt lat="46.08000124614643" lon="12.720822107949887"><ele>173.0</ele><time>2026-03-22T07:16:54Z</time></trkpt><trkpt lat="46.08008230300141" lon="12.720785502173003"><ele>173.0</ele><time>2026-03-22T07:16:56Z</time></trkpt><trkpt lat="46.080190463650645" lon="12.720710887626808"><ele>173.0</ele><time>2026-03-22T07:16:58Z</time></trkpt><trkpt lat="46.08025552236929" lon="12.720678168074611"><ele>173.14285714285714</ele><time>2026-03-22T07:16:59Z</time></trkpt><trkpt lat="46.08032543521494" lon="12.720650752012222"><ele>173.2857142857143</ele><time>2026-03-22T07:17:00Z</time></trkpt><trkpt lat="46.08038806936267" lon="12.72063342295573"><ele>173.42857142857144</ele><time>2026-03-22T07:17:01Z</time></trkpt><trkpt lat="46.08045438484142" lon="12.720609992819991"><ele>173.57142857142856</ele><time>2026-03-22T07:17:02Z</time></trkpt><trkpt lat="46.08052007054757" lon="12.72057884306262"><ele>173.71428571428572</ele><time>2026-03-22T07:17:03Z</time></trkpt><trkpt lat="46.080583333001066" lon="12.720540987704469"><ele>173.85714285714286</ele><time>2026-03-22T07:17:04Z</time></trkpt><trkpt lat="46.08066215760367" lon="12.720490028842791"><ele>174.0</ele><time>2026-03-22T07:17:05Z</time></trkpt><trkpt lat="46.080743698661806" lon="12.720437634658548"><ele>174.28571428571428</ele><time>2026-03-22T07:17:06Z</time></trkpt><trkpt lat="46.080811922944726" lon="12.720395009558587"><ele>174.57142857142858</ele><time>2026-03-22T07:17:07Z</time></trkpt><trkpt lat="46.08088822856663" lon="12.720352619400773"><ele>174.85714285714286</ele><time>2026-03-22T07:17:08Z</time></trkpt><trkpt lat="46.08095411318624" lon="12.72032639348303"><ele>175.14285714285714</ele><time>2026-03-22T07:17:09Z</time></trkpt><trkpt lat="46.081028717343735" lon="12.720297111589252"><ele>175.42857142857142</ele><time>2026-03-22T07:17:10Z</time></trkpt><trkpt lat="46.08109258866327" lon="12.720267017868542"><ele>175.71428571428572</ele><time>2026-03-22T07:17:11Z</time></trkpt><trkpt lat="46.08116199921022" lon="12.720246486903239"><ele>176.0</ele><time>2026-03-22T07:17:12Z</time></trkpt><trkpt lat="46.08122444064751" lon="12.72023189366612"><ele>176.16666666666666</ele><time>2026-03-22T07:17:13Z</time></trkpt><trkpt lat="46.0812870715872" lon="12.720218942987792"><ele>176.33333333333331</ele><time>2026-03-22T07:17:14Z</time></trkpt><trkpt lat="46.08136110975412" lon="12.720198338568018"><ele>176.5</ele><time>2026-03-22T07:17:15Z</time></trkpt><trkpt lat="46.08144013414014" lon="12.720166542426995"><ele>176.66666666666666</ele><time>2026-03-22T07:17:16Z</time></trkpt><trkpt lat="46.08151206900318" lon="12.720142885261279"><ele>176.83333333333334</ele><time>2026-03-22T07:17:17Z</time></trkpt><trkpt lat="46.08158673777715" lon="12.720115260413284"><ele>177.0</ele><time>2026-03-22T07:17:18Z</time></trkpt><trkpt lat="46.08167364962024" lon="12.72009480582798"><ele>177.14285714285714</ele><time>2026-03-22T07:17:19Z</time></trkpt><trkpt lat="46.08173893698841" lon="12.720073777592127"><ele>177.28571428571428</ele><time>2026-03-22T07:17:20Z</time></trkpt><trkpt lat="46.081804943840794" lon="12.720054959589698"><ele>177.42857142857142</ele><time>2026-03-22T07:17:21Z</time></trkpt><trkpt lat="46.081876557881905" lon="12.720031706203802"><ele>177.57142857142856</ele><time>2026-03-22T07:17:22Z</time></trkpt><trkpt lat="46.0819511895023" lon="12.720009769281708"><ele>177.71428571428572</ele><time>2026-03-22T07:17:23Z</time></trkpt><trkpt lat="46.082030451257886" lon="12.719986236774883"><ele>177.85714285714283</ele><time>2026-03-22T07:17:24Z</time></trkpt><trkpt lat="46.082111513171526" lon="12.71996596284906"><ele>178.0</ele><time>2026-03-22T07:17:25Z</time></trkpt><trkpt lat="46.08218521238919" lon="12.719943585998031"><ele>178.0</ele><time>2026-03-22T07:17:26Z</time></trkpt><trkpt lat="46.08226460851975" lon="12.71991533689243"><ele>178.0</ele><time>2026-03-22T07:17:27Z</time></trkpt><trkpt lat="46.08233208407488" lon="12.719886498740173"><ele>178.0</ele><time>2026-03-22T07:17:28Z</time></trkpt><trkpt lat="46.08239619554578" lon="12.71982981062683"><ele>178.0</ele><time>2026-03-22T07:17:29Z</time></trkpt><trkpt lat="46.08247280012284" lon="12.719757804949543"><ele>178.0</ele><time>2026-03-22T07:17:30Z</time></trkpt><trkpt lat="46.08253753179105" lon="12.719693545161237"><ele>178.0</ele><time>2026-03-22T07:17:31Z</time></trkpt><trkpt lat="46.08259237493516" lon="12.719646306093594"><ele>178.0</ele><time>2026-03-22T07:17:32Z</time></trkpt><trkpt lat="46.082653748524706" lon="12.719593604880401"><ele>178.0</ele><time>2026-03-22T07:17:33Z</time></trkpt><trkpt lat="46.08271435482917" lon="12.719552473547738"><ele>178.0</ele><time>2026-03-22T07:17:34Z</time></trkpt><trkpt lat="46.082841316297866" lon="12.719526246565696"><ele>178.0</ele><time>2026-03-22T07:17:36Z</time></trkpt><trkpt lat="46.08292317957973" lon="12.719528749952884"><ele>178.0</ele><time>2026-03-22T07:17:37Z</time></trkpt><trkpt lat="46.08299384161416" lon="12.719522679133508"><ele>178.0</ele><time>2026-03-22T07:17:38Z</time></trkpt><trkpt lat="46.08306639883696" lon="12.719522305791136"><ele>177.99999999999997</ele><time>2026-03-22T07:17:38.999Z</time></trkpt><trkpt lat="46.08313577734952" lon="12.719539629923903"><ele>178.0</ele><time>2026-03-22T07:17:39.999Z</time></trkpt><trkpt lat="46.08320130007433" lon="12.719565081576562"><ele>178.0</ele><time>2026-03-22T07:17:40.999Z</time></trkpt><trkpt lat="46.08327281182718" lon="12.719585558455018"><ele>178.0</ele><time>2026-03-22T07:17:41.999Z</time></trkpt><trkpt lat="46.08334247589517" lon="12.719612463055876"><ele>178.0</ele><time>2026-03-22T07:17:42.999Z</time></trkpt><trkpt lat="46.083408196282235" lon="12.719622450922033"><ele>177.99999999999997</ele><time>2026-03-22T07:17:43.999Z</time></trkpt><trkpt lat="46.083500346987094" lon="12.719615538335423"><ele>178.0</ele><time>2026-03-22T07:17:44.999Z</time></trkpt><trkpt lat="46.083603190038986" lon="12.719614506609721"><ele>177.83333333333334</ele><time>2026-03-22T07:17:45.999Z</time></trkpt><trkpt lat="46.083679555592504" lon="12.719623477495782"><ele>177.66666666666669</ele><time>2026-03-22T07:17:46.999Z</time></trkpt><trkpt lat="46.08379885378506" lon="12.719598134860803"><ele>177.5</ele><time>2026-03-22T07:17:48.999Z</time></trkpt><trkpt lat="46.08387197225531" lon="12.719576554361936"><ele>177.33333333333334</ele><time>2026-03-22T07:17:49.999Z</time></trkpt><trkpt lat="46.08394511386805" lon="12.719563579791085"><ele>177.16666666666666</ele><time>2026-03-22T07:17:50.999Z</time></trkpt><trkpt lat="46.084040179504946" lon="12.719563364582255"><ele>177.0</ele><time>2026-03-22T07:17:52.999Z</time></trkpt><trkpt lat="46.08414375119597" lon="12.719606422097684"><ele>177.33333333333334</ele><time>2026-03-22T07:17:54.999Z</time></trkpt><trkpt lat="46.08421263582711" lon="12.719619801822397"><ele>177.66666666666666</ele><time>2026-03-22T07:17:55.999Z</time></trkpt><trkpt lat="46.084281707807506" lon="12.719621147774042"><ele>178.0</ele><time>2026-03-22T07:17:56.999Z</time></trkpt><trkpt lat="46.08434845939719" lon="12.719631548037787"><ele>178.33333333333331</ele><time>2026-03-22T07:17:57.999Z</time></trkpt><trkpt lat="46.08445879196633" lon="12.719674404930327"><ele>178.66666666666666</ele><time>2026-03-22T07:17:59.999Z</time></trkpt><trkpt lat="46.084560882845274" lon="12.71974481183364"><ele>179.0</ele><time>2026-03-22T07:18:01.999Z</time></trkpt><trkpt lat="46.084621600645974" lon="12.719770338337307"><ele>179.0</ele><time>2026-03-22T07:18:02.999Z</time></trkpt><trkpt lat="46.08468589712218" lon="12.719783173115395"><ele>179.0</ele><time>2026-03-22T07:18:03.999Z</time></trkpt><trkpt lat="46.084768507639005" lon="12.71977651229256"><ele>179.0</ele><time>2026-03-22T07:18:04.999Z</time></trkpt><trkpt lat="46.08484425264001" lon="12.719762019482426"><ele>179.0</ele><time>2026-03-22T07:18:05.999Z</time></trkpt><trkpt lat="46.08491773221027" lon="12.719749813127148"><ele>179.0</ele><time>2026-03-22T07:18:06.999Z</time></trkpt><trkpt lat="46.08499226280561" lon="12.719743173167055"><ele>179.0</ele><time>2026-03-22T07:18:07.999Z</time></trkpt><trkpt lat="46.085073672953655" lon="12.719739495898184"><ele>179.14285714285717</ele><time>2026-03-22T07:18:08.999Z</time></trkpt><trkpt lat="46.085147094524025" lon="12.719731928304569"><ele>179.28571428571428</ele><time>2026-03-22T07:18:09.999Z</time></trkpt><trkpt lat="46.0852157264906" lon="12.719719553189305"><ele>179.42857142857144</ele><time>2026-03-22T07:18:10.999Z</time></trkpt><trkpt lat="46.0852827130609" lon="12.719707247952483"><ele>179.57142857142858</ele><time>2026-03-22T07:18:11.999Z</time></trkpt><trkpt lat="46.085347701503096" lon="12.71969807135614"><ele>179.71428571428572</ele><time>2026-03-22T07:18:13Z</time></trkpt><trkpt lat="46.08541071719427" lon="12.719676061845036"><ele>179.85714285714286</ele><time>2026-03-22T07:18:14Z</time></trkpt><trkpt lat="46.08548569520798" lon="12.719662378027689"><ele>180.0</ele><time>2026-03-22T07:18:15Z</time></trkpt><trkpt lat="46.08560959533394" lon="12.719631058737852"><ele>180.0</ele><time>2026-03-22T07:18:17Z</time></trkpt><trkpt lat="46.085740439258075" lon="12.71958159913023"><ele>180.0</ele><time>2026-03-22T07:18:19Z</time></trkpt><trkpt lat="46.08580573476302" lon="12.719542191487252"><ele>180.0</ele><time>2026-03-22T07:18:20Z</time></trkpt><trkpt lat="46.08586753973832" lon="12.719492139693104"><ele>180.0</ele><time>2026-03-22T07:18:21Z</time></trkpt><trkpt lat="46.085977901355676" lon="12.719416655582554"><ele>180.0</ele><time>2026-03-22T07:18:23Z</time></trkpt><trkpt lat="46.086080322623665" lon="12.719352590306007"><ele>180.4</ele><time>2026-03-22T07:18:25Z</time></trkpt><trkpt lat="46.08619727437076" lon="12.719288031849041"><ele>180.8</ele><time>2026-03-22T07:18:27Z</time></trkpt><trkpt lat="46.08630026749092" lon="12.719201726040978"><ele>181.2</ele><time>2026-03-22T07:18:29Z</time></trkpt><trkpt lat="46.08636009587391" lon="12.71913569390378"><ele>181.6</ele><time>2026-03-22T07:18:30Z</time></trkpt><trkpt lat="46.08642445493002" lon="12.719067086498931"><ele>182.0</ele><time>2026-03-22T07:18:31Z</time></trkpt><trkpt lat="46.086481855649005" lon="12.71899589909909"><ele>182.0</ele><time>2026-03-22T07:18:32Z</time></trkpt><trkpt lat="46.08653134350883" lon="12.71891674743232"><ele>182.0</ele><time>2026-03-22T07:18:33Z</time></trkpt><trkpt lat="46.08658155196553" lon="12.71879986057428"><ele>182.0</ele><time>2026-03-22T07:18:34Z</time></trkpt><trkpt lat="46.086633698095824" lon="12.718687838278694"><ele>182.0</ele><time>2026-03-22T07:18:35Z</time></trkpt><trkpt lat="46.08668207082532" lon="12.718603245178308"><ele>182.0</ele><time>2026-03-22T07:18:36Z</time></trkpt><trkpt lat="46.086745207899256" lon="12.718509801965403"><ele>182.0</ele><time>2026-03-22T07:18:37Z</time></trkpt><trkpt lat="46.08679778352621" lon="12.718432556644295"><ele>182.16666666666666</ele><time>2026-03-22T07:18:38Z</time></trkpt><trkpt lat="46.086851944396486" lon="12.718359912303864"><ele>182.33333333333331</ele><time>2026-03-22T07:18:39Z</time></trkpt><trkpt lat="46.08690904488122" lon="12.718276535341307"><ele>182.5</ele><time>2026-03-22T07:18:40Z</time></trkpt><trkpt lat="46.08696404535295" lon="12.718189746578666"><ele>182.66666666666666</ele><time>2026-03-22T07:18:41Z</time></trkpt><trkpt lat="46.08701076970977" lon="12.718114732843144"><ele>182.83333333333334</ele><time>2026-03-22T07:18:42Z</time></trkpt><trkpt lat="46.0870600820515" lon="12.718030740993937"><ele>183.0</ele><time>2026-03-22T07:18:43Z</time></trkpt><trkpt lat="46.08711393530041" lon="12.71795884778814"><ele>183.0</ele><time>2026-03-22T07:18:44Z</time></trkpt><trkpt lat="46.087172653653575" lon="12.717902085233892"><ele>183.0</ele><time>2026-03-22T07:18:45Z</time></trkpt><trkpt lat="46.087236008841195" lon="12.717847980503118"><ele>183.0</ele><time>2026-03-22T07:18:46Z</time></trkpt><trkpt lat="46.08729208674605" lon="12.717790040392023"><ele>183.0</ele><time>2026-03-22T07:18:47Z</time></trkpt><trkpt lat="46.08736587009403" lon="12.717722094269776"><ele>183.0</ele><time>2026-03-22T07:18:48Z</time></trkpt><trkpt lat="46.087435673568244" lon="12.717667644686301"><ele>183.0</ele><time>2026-03-22T07:18:49Z</time></trkpt><trkpt lat="46.087499389351095" lon="12.71760881061076"><ele>183.16666666666666</ele><time>2026-03-22T07:18:50Z</time></trkpt><trkpt lat="46.08754743371859" lon="12.717534745489909"><ele>183.33333333333334</ele><time>2026-03-22T07:18:51Z</time></trkpt><trkpt lat="46.08760205209099" lon="12.7174383724807"><ele>183.5</ele><time>2026-03-22T07:18:52Z</time></trkpt><trkpt lat="46.087661961747344" lon="12.717364747536873"><ele>183.66666666666669</ele><time>2026-03-22T07:18:53Z</time></trkpt><trkpt lat="46.08771964612214" lon="12.717293937324166"><ele>183.83333333333334</ele><time>2026-03-22T07:18:54Z</time></trkpt><trkpt lat="46.08776941764684" lon="12.717216735915551"><ele>184.0</ele><time>2026-03-22T07:18:55Z</time></trkpt><trkpt lat="46.08784964104296" lon="12.717071757302367"><ele>184.0</ele><time>2026-03-22T07:18:57Z</time></trkpt><trkpt lat="46.08790907286085" lon="12.71697452910877"><ele>184.0</ele><time>2026-03-22T07:18:58Z</time></trkpt><trkpt lat="46.08796270629294" lon="12.716885638255901"><ele>184.0</ele><time>2026-03-22T07:18:59Z</time></trkpt><trkpt lat="46.08800928315424" lon="12.716802043024936"><ele>184.0</ele><time>2026-03-22T07:19:00Z</time></trkpt><trkpt lat="46.0880974921828" lon="12.716638777369448"><ele>184.0</ele><time>2026-03-22T07:19:02Z</time></trkpt><trkpt lat="46.08820007353625" lon="12.71652950679711"><ele>184.0</ele><time>2026-03-22T07:19:04Z</time></trkpt><trkpt lat="46.08827962538452" lon="12.716490138821646"><ele>184.0</ele><time>2026-03-22T07:19:05Z</time></trkpt><trkpt lat="46.0883591477675" lon="12.716454241777706"><ele>184.0</ele><time>2026-03-22T07:19:06Z</time></trkpt><trkpt lat="46.088424307809866" lon="12.71642967043691"><ele>184.0</ele><time>2026-03-22T07:19:07Z</time></trkpt><trkpt lat="46.0884926616026" lon="12.716425789920288"><ele>184.0</ele><time>2026-03-22T07:19:08Z</time></trkpt><trkpt lat="46.08857922968667" lon="12.716439335120038"><ele>184.0</ele><time>2026-03-22T07:19:09Z</time></trkpt><trkpt lat="46.08866695035321" lon="12.71642944511064"><ele>184.0</ele><time>2026-03-22T07:19:10Z</time></trkpt><trkpt lat="46.0887408472856" lon="12.716403451501755"><ele>184.0</ele><time>2026-03-22T07:19:11Z</time></trkpt><trkpt lat="46.08881287490367" lon="12.71636086392912"><ele>184.0</ele><time>2026-03-22T07:19:12Z</time></trkpt><trkpt lat="46.08887401820278" lon="12.716295682581984"><ele>184.0</ele><time>2026-03-22T07:19:13Z</time></trkpt><trkpt lat="46.08895467784794" lon="12.71626108710773"><ele>184.0</ele><time>2026-03-22T07:19:14Z</time></trkpt><trkpt lat="46.08903509862933" lon="12.716251350460865"><ele>184.0</ele><time>2026-03-22T07:19:15Z</time></trkpt><trkpt lat="46.08911459520142" lon="12.71622806250889"><ele>184.33333333333334</ele><time>2026-03-22T07:19:16Z</time></trkpt><trkpt lat="46.08918676090657" lon="12.716184038736575"><ele>184.66666666666669</ele><time>2026-03-22T07:19:17Z</time></trkpt><trkpt lat="46.089246165875714" lon="12.716145632701954"><ele>185.0</ele><time>2026-03-22T07:19:18Z</time></trkpt><trkpt lat="46.08931672686148" lon="12.716089871498754"><ele>185.33333333333334</ele><time>2026-03-22T07:19:19Z</time></trkpt><trkpt lat="46.08938424051261" lon="12.716013370252336"><ele>185.66666666666666</ele><time>2026-03-22T07:19:20Z</time></trkpt><trkpt lat="46.08945333878217" lon="12.715965837387197"><ele>186.0</ele><time>2026-03-22T07:19:21Z</time></trkpt><trkpt lat="46.08952629876353" lon="12.715953118234447"><ele>186.20000000000002</ele><time>2026-03-22T07:19:22Z</time></trkpt><trkpt lat="46.08959064988924" lon="12.715946785441105"><ele>186.4</ele><time>2026-03-22T07:19:23Z</time></trkpt><trkpt lat="46.089658152329775" lon="12.715951084794078"><ele>186.6</ele><time>2026-03-22T07:19:24Z</time></trkpt><trkpt lat="46.08976585861539" lon="12.71598393306855"><ele>186.8</ele><time>2026-03-22T07:19:26Z</time></trkpt><trkpt lat="46.08986050817956" lon="12.716025784571167"><ele>187.0</ele><time>2026-03-22T07:19:28Z</time></trkpt><trkpt lat="46.08995938470837" lon="12.716105023631494"><ele>187.0</ele><time>2026-03-22T07:19:30Z</time></trkpt><trkpt lat="46.09003220212306" lon="12.71613507138852"><ele>187.0</ele><time>2026-03-22T07:19:31Z</time></trkpt><trkpt lat="46.09011174836328" lon="12.716134649578914"><ele>187.0</ele><time>2026-03-22T07:19:32Z</time></trkpt><trkpt lat="46.0901862770864" lon="12.716118558603643"><ele>187.0</ele><time>2026-03-22T07:19:33Z</time></trkpt><trkpt lat="46.090249840666985" lon="12.716079531977194"><ele>187.0</ele><time>2026-03-22T07:19:34Z</time></trkpt><trkpt lat="46.09032417705581" lon="12.716018073997883"><ele>187.0</ele><time>2026-03-22T07:19:35Z</time></trkpt><trkpt lat="46.090379694557505" lon="12.715956713841223"><ele>187.16666666666669</ele><time>2026-03-22T07:19:36Z</time></trkpt><trkpt lat="46.090444219503226" lon="12.71589661896354"><ele>187.33333333333334</ele><time>2026-03-22T07:19:37Z</time></trkpt><trkpt lat="46.090513642334734" lon="12.715842809925611"><ele>187.5</ele><time>2026-03-22T07:19:38Z</time></trkpt><trkpt lat="46.090625442462766" lon="12.71579841892767"><ele>187.66666666666666</ele><time>2026-03-22T07:19:40Z</time></trkpt><trkpt lat="46.09070937243076" lon="12.715765721979212"><ele>187.83333333333331</ele><time>2026-03-22T07:19:41.999Z</time></trkpt><trkpt lat="46.09077563492158" lon="12.71568030572802"><ele>188.0</ele><time>2026-03-22T07:20:19Z</time></trkpt><trkpt lat="46.09087732728875" lon="12.715585593924693"><ele>188.0</ele><time>2026-03-22T07:20:21Z</time></trkpt><trkpt lat="46.09095630646101" lon="12.7155139869411"><ele>188.0</ele><time>2026-03-22T07:20:23Z</time></trkpt><trkpt lat="46.09105638799092" lon="12.715409684693116"><ele>188.0</ele><time>2026-03-22T07:20:25Z</time></trkpt><trkpt lat="46.09111186078942" lon="12.715339805716654"><ele>188.0</ele><time>2026-03-22T07:20:26Z</time></trkpt><trkpt lat="46.091191095277594" lon="12.71522860363276"><ele>188.0</ele><time>2026-03-22T07:20:28Z</time></trkpt><trkpt lat="46.091245851518906" lon="12.715085569958372"><ele>188.2</ele><time>2026-03-22T07:20:30Z</time></trkpt><trkpt lat="46.09128855655787" lon="12.714951499685093"><ele>188.4</ele><time>2026-03-22T07:20:32Z</time></trkpt><trkpt lat="46.09135720276582" lon="12.714856890482741"><ele>188.6</ele><time>2026-03-22T07:20:34Z</time></trkpt><trkpt lat="46.09142603998418" lon="12.714740380635726"><ele>188.79999999999998</ele><time>2026-03-22T07:20:36Z</time></trkpt><trkpt lat="46.09149251011429" lon="12.71463019607987"><ele>189.0</ele><time>2026-03-22T07:20:38Z</time></trkpt><trkpt lat="46.09154355335621" lon="12.714536924421074"><ele>189.0</ele><time>2026-03-22T07:20:40Z</time></trkpt><trkpt lat="46.09162036078491" lon="12.714467925198079"><ele>189.0</ele><time>2026-03-22T07:20:42Z</time></trkpt><trkpt lat="46.09167803380285" lon="12.714291071918888"><ele>189.0</ele><time>2026-03-22T07:20:44Z</time></trkpt><trkpt lat="46.09170975718547" lon="12.714200321432166"><ele>189.0</ele><time>2026-03-22T07:20:45Z</time></trkpt><trkpt lat="46.09174990424309" lon="12.714096231917777"><ele>189.0</ele><time>2026-03-22T07:20:47Z</time></trkpt><trkpt lat="46.09177832158841" lon="12.713984490342732"><ele>189.0</ele><time>2026-03-22T07:20:49Z</time></trkpt><trkpt lat="46.09177309218246" lon="12.713879838732959"><ele>189.0</ele><time>2026-03-22T07:20:51Z</time></trkpt><trkpt lat="46.09174663508262" lon="12.713751277952147"><ele>189.0</ele><time>2026-03-22T07:20:53Z</time></trkpt><trkpt lat="46.09175047766188" lon="12.713639330268483"><ele>189.0</ele><time>2026-03-22T07:20:55Z</time></trkpt><trkpt lat="46.091788066056516" lon="12.713540634308423"><ele>189.0</ele><time>2026-03-22T07:20:57Z</time></trkpt><trkpt lat="46.091836452260644" lon="12.713422162239569"><ele>189.0</ele><time>2026-03-22T07:20:59Z</time></trkpt><trkpt lat="46.09189055517046" lon="12.713324800530321"><ele>189.2</ele><time>2026-03-22T07:21:01Z</time></trkpt><trkpt lat="46.091976408910625" lon="12.713270168977882"><ele>189.39999999999998</ele><time>2026-03-22T07:21:03Z</time></trkpt><trkpt lat="46.09210163042594" lon="12.71327748838723"><ele>189.6</ele><time>2026-03-22T07:21:05Z</time></trkpt><trkpt lat="46.09216780592297" lon="12.713279523451417"><ele>189.8</ele><time>2026-03-22T07:21:06Z</time></trkpt><trkpt lat="46.09228278653882" lon="12.713273898479425"><ele>190.0</ele><time>2026-03-22T07:21:08Z</time></trkpt><trkpt lat="46.09238706194369" lon="12.713268059654391"><ele>190.16666666666669</ele><time>2026-03-22T07:21:10Z</time></trkpt><trkpt lat="46.09251563587583" lon="12.71325240602146"><ele>190.33333333333334</ele><time>2026-03-22T07:21:12Z</time></trkpt><trkpt lat="46.09258428871123" lon="12.713226769233756"><ele>190.5</ele><time>2026-03-22T07:21:13Z</time></trkpt><trkpt lat="46.09264950872343" lon="12.713203968886457"><ele>190.66666666666666</ele><time>2026-03-22T07:21:14Z</time></trkpt><trkpt lat="46.092714496679676" lon="12.713182590683223"><ele>190.83333333333331</ele><time>2026-03-22T07:21:15Z</time></trkpt><trkpt lat="46.09281180117633" lon="12.71315102835028"><ele>191.0</ele><time>2026-03-22T07:21:17Z</time></trkpt><trkpt lat="46.092900327815514" lon="12.713099669189457"><ele>191.0</ele><time>2026-03-22T07:21:19Z</time></trkpt><trkpt lat="46.09298464998057" lon="12.713009507546806"><ele>191.0</ele><time>2026-03-22T07:21:21Z</time></trkpt><trkpt lat="46.09300669481826" lon="12.712855600472226"><ele>191.0</ele><time>2026-03-22T07:21:23Z</time></trkpt><trkpt lat="46.092989784753165" lon="12.712742915950264"><ele>191.0</ele><time>2026-03-22T07:21:25Z</time></trkpt><trkpt lat="46.09298372303526" lon="12.712605036496829"><ele>191.0</ele><time>2026-03-22T07:21:28Z</time></trkpt><trkpt lat="46.093010386794035" lon="12.712499881174997"><ele>191.16666666666666</ele><time>2026-03-22T07:21:31Z</time></trkpt><trkpt lat="46.09310255400779" lon="12.71244534670488"><ele>191.33333333333331</ele><time>2026-03-22T07:21:34Z</time></trkpt><trkpt lat="46.093156797783635" lon="12.712362439356502"><ele>191.5</ele><time>2026-03-22T07:21:36Z</time></trkpt><trkpt lat="46.09313509474773" lon="12.71225313715315"><ele>191.66666666666666</ele><time>2026-03-22T07:21:38Z</time></trkpt><trkpt lat="46.09309544292531" lon="12.712145441322964"><ele>191.83333333333334</ele><time>2026-03-22T07:21:41Z</time></trkpt><trkpt lat="46.09308205586176" lon="12.712051535364047"><ele>192.0</ele><time>2026-03-22T07:21:43Z</time></trkpt><trkpt lat="46.09306837404714" lon="12.711941519700341"><ele>192.5</ele><time>2026-03-22T07:21:44.999Z</time></trkpt><trkpt lat="46.0930474453897" lon="12.711814208522124"><ele>193.0</ele><time>2026-03-22T07:21:46.999Z</time></trkpt><trkpt lat="46.093025710928195" lon="12.711698789352202"><ele>193.5</ele><time>2026-03-22T07:21:48.999Z</time></trkpt><trkpt lat="46.092993720801466" lon="12.711593861330982"><ele>194.0</ele><time>2026-03-22T07:21:52.999Z</time></trkpt><trkpt lat="46.09305294442385" lon="12.711516160363887"><ele>194.5</ele><time>2026-03-22T07:22:37Z</time></trkpt><trkpt lat="46.093112869358954" lon="12.711474993640818"><ele>195.0</ele><time>2026-03-22T07:22:38Z</time></trkpt><trkpt lat="46.09320609129441" lon="12.711372774240896"><ele>195.0</ele><time>2026-03-22T07:22:40Z</time></trkpt><trkpt lat="46.09329279780615" lon="12.711238514160732"><ele>195.0</ele><time>2026-03-22T07:22:42Z</time></trkpt><trkpt lat="46.09334661315513" lon="12.711144799044972"><ele>195.0</ele><time>2026-03-22T07:22:43Z</time></trkpt><trkpt lat="46.093412440875944" lon="12.711033885668577"><ele>195.0</ele><time>2026-03-22T07:22:44Z</time></trkpt><trkpt lat="46.093472757416905" lon="12.710934252716624"><ele>195.0</ele><time>2026-03-22T07:22:45Z</time></trkpt><trkpt lat="46.09352688182445" lon="12.710855334478834"><ele>195.0</ele><time>2026-03-22T07:22:46Z</time></trkpt><trkpt lat="46.09358304755246" lon="12.710795545631449"><ele>195.0</ele><time>2026-03-22T07:22:47Z</time></trkpt><trkpt lat="46.09364701595914" lon="12.710749814085824"><ele>195.0</ele><time>2026-03-22T07:22:48Z</time></trkpt><trkpt lat="46.09373343848983" lon="12.710701450754259"><ele>195.0</ele><time>2026-03-22T07:22:49Z</time></trkpt><trkpt lat="46.09382765887713" lon="12.710643476520032"><ele>195.0</ele><time>2026-03-22T07:22:50Z</time></trkpt><trkpt lat="46.093928517585425" lon="12.710586875343783"><ele>195.0</ele><time>2026-03-22T07:22:51Z</time></trkpt><trkpt lat="46.09402401829774" lon="12.710536748465397"><ele>195.2</ele><time>2026-03-22T07:22:52Z</time></trkpt><trkpt lat="46.09412479217041" lon="12.71048989852465"><ele>195.4</ele><time>2026-03-22T07:22:53Z</time></trkpt><trkpt lat="46.094217946991726" lon="12.71046411189875"><ele>195.60000000000002</ele><time>2026-03-22T07:22:54Z</time></trkpt><trkpt lat="46.09430924294071" lon="12.710431811783238"><ele>195.8</ele><time>2026-03-22T07:22:55Z</time></trkpt><trkpt lat="46.09440597071782" lon="12.71039500201244"><ele>196.0</ele><time>2026-03-22T07:22:56Z</time></trkpt><trkpt lat="46.09449553331171" lon="12.71036380408894"><ele>196.0</ele><time>2026-03-22T07:22:57Z</time></trkpt><trkpt lat="46.09458523616553" lon="12.710319097399847"><ele>196.0</ele><time>2026-03-22T07:22:58Z</time></trkpt><trkpt lat="46.094667315903635" lon="12.710258908419737"><ele>196.0</ele><time>2026-03-22T07:22:59Z</time></trkpt><trkpt lat="46.094740783001306" lon="12.710175571322322"><ele>196.0</ele><time>2026-03-22T07:23:00Z</time></trkpt><trkpt lat="46.0948205320737" lon="12.710080533708163"><ele>196.0</ele><time>2026-03-22T07:23:01Z</time></trkpt><trkpt lat="46.0948963691637" lon="12.709989181995024"><ele>196.20000000000002</ele><time>2026-03-22T07:23:02Z</time></trkpt><trkpt lat="46.094974367711636" lon="12.709899552445867"><ele>196.4</ele><time>2026-03-22T07:23:03Z</time></trkpt><trkpt lat="46.09505837512919" lon="12.709815995127364"><ele>196.6</ele><time>2026-03-22T07:23:04Z</time></trkpt><trkpt lat="46.09514888929061" lon="12.70972574881682"><ele>196.8</ele><time>2026-03-22T07:23:05Z</time></trkpt><trkpt lat="46.09523890952286" lon="12.709643518566619"><ele>197.0</ele><time>2026-03-22T07:23:06Z</time></trkpt><trkpt lat="46.09532284342737" lon="12.709582631552557"><ele>197.0</ele><time>2026-03-22T07:23:07Z</time></trkpt><trkpt lat="46.09541004226476" lon="12.709539302455905"><ele>197.0</ele><time>2026-03-22T07:23:08Z</time></trkpt><trkpt lat="46.095500496634095" lon="12.709496091150708"><ele>197.0</ele><time>2026-03-22T07:23:09Z</time></trkpt><trkpt lat="46.0955805815904" lon="12.709460007473535"><ele>197.0</ele><time>2026-03-22T07:23:10Z</time></trkpt><trkpt lat="46.09572158072877" lon="12.709419117130198"><ele>197.0</ele><time>2026-03-22T07:23:12Z</time></trkpt><trkpt lat="46.09582815781746" lon="12.709395953565977"><ele>197.8</ele><time>2026-03-22T07:23:13Z</time></trkpt><trkpt lat="46.095932167524154" lon="12.709376996758497"><ele>198.6</ele><time>2026-03-22T07:23:14Z</time></trkpt><trkpt lat="46.096044036305535" lon="12.709362513849756"><ele>199.4</ele><time>2026-03-22T07:23:15Z</time></trkpt><trkpt lat="46.096152362725874" lon="12.70936230675496"><ele>200.20000000000002</ele><time>2026-03-22T07:23:16Z</time></trkpt><trkpt lat="46.096264923977145" lon="12.709354628619883"><ele>201.0</ele><time>2026-03-22T07:23:17Z</time></trkpt><trkpt lat="46.096370811152674" lon="12.709348971501365"><ele>201.0</ele><time>2026-03-22T07:23:18Z</time></trkpt><trkpt lat="46.096483134614594" lon="12.709353222649538"><ele>201.0</ele><time>2026-03-22T07:23:19Z</time></trkpt><trkpt lat="46.09658742527582" lon="12.70935545342966"><ele>201.0</ele><time>2026-03-22T07:23:20Z</time></trkpt><trkpt lat="46.09668934002249" lon="12.709353497169309"><ele>201.0</ele><time>2026-03-22T07:23:21Z</time></trkpt><trkpt lat="46.09678354618277" lon="12.709351880257431"><ele>201.0</ele><time>2026-03-22T07:23:22Z</time></trkpt><trkpt lat="46.0968825388927" lon="12.709344136220881"><ele>200.8</ele><time>2026-03-22T07:23:23Z</time></trkpt><trkpt lat="46.09697160594253" lon="12.709346886113378"><ele>200.60000000000002</ele><time>2026-03-22T07:23:24Z</time></trkpt><trkpt lat="46.097062563916865" lon="12.709343271068189"><ele>200.4</ele><time>2026-03-22T07:23:25Z</time></trkpt><trkpt lat="46.09713884389932" lon="12.70930899564305"><ele>200.2</ele><time>2026-03-22T07:23:26Z</time></trkpt><trkpt lat="46.09723899551462" lon="12.709275652557267"><ele>200.0</ele><time>2026-03-22T07:23:27Z</time></trkpt><trkpt lat="46.09733353555083" lon="12.709259826442281"><ele>200.2</ele><time>2026-03-22T07:23:28Z</time></trkpt><trkpt lat="46.09743397368418" lon="12.709237773934417"><ele>200.4</ele><time>2026-03-22T07:23:29Z</time></trkpt><trkpt lat="46.097528629473196" lon="12.709214567769134"><ele>200.60000000000002</ele><time>2026-03-22T07:23:30Z</time></trkpt><trkpt lat="46.097631758290426" lon="12.7091934654004"><ele>200.8</ele><time>2026-03-22T07:23:31Z</time></trkpt><trkpt lat="46.09771428167909" lon="12.709175948256647"><ele>201.0</ele><time>2026-03-22T07:23:32Z</time></trkpt><trkpt lat="46.097786562991544" lon="12.709159704778928"><ele>201.0</ele><time>2026-03-22T07:23:33Z</time></trkpt><trkpt lat="46.09789434745007" lon="12.70914021687155"><ele>201.0</ele><time>2026-03-22T07:23:35Z</time></trkpt><trkpt lat="46.09796228609641" lon="12.709129494154242"><ele>201.0</ele><time>2026-03-22T07:23:36Z</time></trkpt><trkpt lat="46.09805485155283" lon="12.709101948610027"><ele>201.0</ele><time>2026-03-22T07:23:37Z</time></trkpt><trkpt lat="46.09812856891683" lon="12.709084681416433"><ele>201.0</ele><time>2026-03-22T07:23:38Z</time></trkpt><trkpt lat="46.09820438511644" lon="12.709051208870024"><ele>201.0</ele><time>2026-03-22T07:23:39Z</time></trkpt><trkpt lat="46.098279269022065" lon="12.709002851124627"><ele>200.8</ele><time>2026-03-22T07:23:40Z</time></trkpt><trkpt lat="46.098342702926274" lon="12.708973438299338"><ele>200.60000000000002</ele><time>2026-03-22T07:23:41Z</time></trkpt><trkpt lat="46.09842238611461" lon="12.708912413979633"><ele>200.4</ele><time>2026-03-22T07:23:42Z</time></trkpt><trkpt lat="46.09850690638575" lon="12.708823116887167"><ele>200.2</ele><time>2026-03-22T07:23:43Z</time></trkpt><trkpt lat="46.09859008154759" lon="12.708728943315805"><ele>200.0</ele><time>2026-03-22T07:23:44Z</time></trkpt><trkpt lat="46.09867465793503" lon="12.708617942172674"><ele>200.4</ele><time>2026-03-22T07:23:45Z</time></trkpt><trkpt lat="46.09877137113998" lon="12.708503970670026"><ele>200.8</ele><time>2026-03-22T07:23:46Z</time></trkpt><trkpt lat="46.09886377035055" lon="12.708409430921893"><ele>201.2</ele><time>2026-03-22T07:23:47Z</time></trkpt><trkpt lat="46.098949447885424" lon="12.708320294098591"><ele>201.6</ele><time>2026-03-22T07:23:48Z</time></trkpt><trkpt lat="46.09902930471061" lon="12.708240478707157"><ele>202.0</ele><time>2026-03-22T07:23:49Z</time></trkpt><trkpt lat="46.09912822870498" lon="12.708143668935538"><ele>202.0</ele><time>2026-03-22T07:23:50Z</time></trkpt><trkpt lat="46.09923160572321" lon="12.708051815318253"><ele>202.0</ele><time>2026-03-22T07:23:51Z</time></trkpt><trkpt lat="46.09932826409572" lon="12.707969851736772"><ele>202.0</ele><time>2026-03-22T07:23:52Z</time></trkpt><trkpt lat="46.09941609249759" lon="12.707899106018138"><ele>202.0</ele><time>2026-03-22T07:23:53Z</time></trkpt><trkpt lat="46.09951283907137" lon="12.707825148094415"><ele>202.0</ele><time>2026-03-22T07:23:54Z</time></trkpt><trkpt lat="46.09960867460017" lon="12.707752312143093"><ele>202.0</ele><time>2026-03-22T07:23:55Z</time></trkpt><trkpt lat="46.09969923035791" lon="12.707682679736507"><ele>202.0</ele><time>2026-03-22T07:23:56Z</time></trkpt><trkpt lat="46.09980162066209" lon="12.707617857885195"><ele>202.0</ele><time>2026-03-22T07:23:57Z</time></trkpt><trkpt lat="46.09989855125702" lon="12.70756251600287"><ele>202.0</ele><time>2026-03-22T07:23:58Z</time></trkpt><trkpt lat="46.099986675088424" lon="12.707514011198022"><ele>202.0</ele><time>2026-03-22T07:23:59Z</time></trkpt><trkpt lat="46.10007150658275" lon="12.707466305924026"><ele>202.0</ele><time>2026-03-22T07:24:00Z</time></trkpt><trkpt lat="46.10016180057575" lon="12.707418358101354"><ele>202.0</ele><time>2026-03-22T07:24:01Z</time></trkpt><trkpt lat="46.10025292275365" lon="12.707368900283884"><ele>202.0</ele><time>2026-03-22T07:24:02Z</time></trkpt><trkpt lat="46.10033644780499" lon="12.707325327322165"><ele>202.0</ele><time>2026-03-22T07:24:03Z</time></trkpt><trkpt lat="46.1004246370792" lon="12.70727066324242"><ele>202.0</ele><time>2026-03-22T07:24:04Z</time></trkpt><trkpt lat="46.10051730519853" lon="12.707217612670359"><ele>202.0</ele><time>2026-03-22T07:24:05Z</time></trkpt><trkpt lat="46.100603833539786" lon="12.70716802918572"><ele>202.0</ele><time>2026-03-22T07:24:06Z</time></trkpt><trkpt lat="46.10068985746661" lon="12.707117981033274"><ele>202.0</ele><time>2026-03-22T07:24:07Z</time></trkpt><trkpt lat="46.100783516167795" lon="12.707069031479401"><ele>202.0</ele><time>2026-03-22T07:24:08Z</time></trkpt><trkpt lat="46.100878134363874" lon="12.707016787116835"><ele>202.0</ele><time>2026-03-22T07:24:09Z</time></trkpt><trkpt lat="46.10097156392071" lon="12.706974277530886"><ele>202.0</ele><time>2026-03-22T07:24:10Z</time></trkpt><trkpt lat="46.101066886524805" lon="12.706935818308269"><ele>202.0</ele><time>2026-03-22T07:24:11Z</time></trkpt><trkpt lat="46.1011378663203" lon="12.706905398346684"><ele>202.0</ele><time>2026-03-22T07:24:12Z</time></trkpt><trkpt lat="46.10124213832346" lon="12.706855514658804"><ele>202.0</ele><time>2026-03-22T07:24:13Z</time></trkpt><trkpt lat="46.10134814470539" lon="12.706819089446599"><ele>202.0</ele><time>2026-03-22T07:24:14Z</time></trkpt><trkpt lat="46.10145709753976" lon="12.706790134900158"><ele>202.39999999999998</ele><time>2026-03-22T07:24:15Z</time></trkpt><trkpt lat="46.10156785541382" lon="12.706779160367809"><ele>202.79999999999998</ele><time>2026-03-22T07:24:16Z</time></trkpt><trkpt lat="46.10167997053561" lon="12.706768847052997"><ele>203.2</ele><time>2026-03-22T07:24:17Z</time></trkpt><trkpt lat="46.10178432165667" lon="12.706765193320937"><ele>203.6</ele><time>2026-03-22T07:24:18Z</time></trkpt><trkpt lat="46.101896136451224" lon="12.706747237519306"><ele>204.0</ele><time>2026-03-22T07:24:19Z</time></trkpt><trkpt lat="46.10199440513977" lon="12.7067347479311"><ele>204.0</ele><time>2026-03-22T07:24:20Z</time></trkpt><trkpt lat="46.10207274319628" lon="12.706727096926478"><ele>204.0</ele><time>2026-03-22T07:24:20.999Z</time></trkpt><trkpt lat="46.10215695392879" lon="12.70671457835529"><ele>204.0</ele><time>2026-03-22T07:24:21.999Z</time></trkpt><trkpt lat="46.10224557406894" lon="12.706700420673723"><ele>204.0</ele><time>2026-03-22T07:24:22.999Z</time></trkpt><trkpt lat="46.102342779102614" lon="12.706683728630221"><ele>204.0</ele><time>2026-03-22T07:24:23.999Z</time></trkpt><trkpt lat="46.10243084042556" lon="12.70666957577837"><ele>204.0</ele><time>2026-03-22T07:24:24.999Z</time></trkpt><trkpt lat="46.102531934537055" lon="12.706653641545783"><ele>204.33333333333334</ele><time>2026-03-22T07:24:25.999Z</time></trkpt><trkpt lat="46.10261965391391" lon="12.706640852520975"><ele>204.66666666666669</ele><time>2026-03-22T07:24:26.999Z</time></trkpt><trkpt lat="46.102691362575655" lon="12.70662588299569"><ele>205.0</ele><time>2026-03-22T07:24:27.999Z</time></trkpt><trkpt lat="46.102771098225524" lon="12.70660819850107"><ele>205.33333333333334</ele><time>2026-03-22T07:24:29.999Z</time></trkpt><trkpt lat="46.10285109048475" lon="12.706641468047973"><ele>205.66666666666669</ele><time>2026-03-22T07:24:32Z</time></trkpt><trkpt lat="46.10292702951315" lon="12.706654447304025"><ele>206.0</ele><time>2026-03-22T07:24:34Z</time></trkpt><trkpt lat="46.10298810945919" lon="12.706680608427641"><ele>206.00000000000003</ele><time>2026-03-22T07:24:35Z</time></trkpt><trkpt lat="46.1030795195496" lon="12.706685350064564"><ele>206.0</ele><time>2026-03-22T07:24:37Z</time></trkpt><trkpt lat="46.10316789215791" lon="12.706586884223617"><ele>206.0</ele><time>2026-03-22T07:24:39Z</time></trkpt><trkpt lat="46.10321822234394" lon="12.706519967648596"><ele>206.0</ele><time>2026-03-22T07:24:40Z</time></trkpt><trkpt lat="46.10328202275828" lon="12.706436788772486"><ele>206.00000000000003</ele><time>2026-03-22T07:24:42Z</time></trkpt><trkpt lat="46.10330866095447" lon="12.706317022125976"><ele>206.0</ele><time>2026-03-22T07:24:44Z</time></trkpt><trkpt lat="46.1033152894055" lon="12.706180873486737"><ele>206.00000000000003</ele><time>2026-03-22T07:24:46Z</time></trkpt><trkpt lat="46.1033141936717" lon="12.706070764879236"><ele>206.0</ele><time>2026-03-22T07:24:47Z</time></trkpt><trkpt lat="46.103321176430086" lon="12.705952138983763"><ele>206.0</ele><time>2026-03-22T07:24:48Z</time></trkpt><trkpt lat="46.10333730608882" lon="12.705838841136213"><ele>206.0</ele><time>2026-03-22T07:24:49Z</time></trkpt><trkpt lat="46.10335380153941" lon="12.705723460937294"><ele>206.00000000000003</ele><time>2026-03-22T07:24:50Z</time></trkpt><trkpt lat="46.10335355499223" lon="12.705611638096604"><ele>206.0</ele><time>2026-03-22T07:24:51Z</time></trkpt><trkpt lat="46.1033390078938" lon="12.70548141968673"><ele>206.00000000000003</ele><time>2026-03-22T07:24:52Z</time></trkpt><trkpt lat="46.10333267706564" lon="12.705365348585099"><ele>206.0</ele><time>2026-03-22T07:24:53Z</time></trkpt><trkpt lat="46.1033358758063" lon="12.7052422855589"><ele>206.0</ele><time>2026-03-22T07:24:54Z</time></trkpt><trkpt lat="46.10331799636324" lon="12.705106506841005"><ele>206.0</ele><time>2026-03-22T07:24:55Z</time></trkpt><trkpt lat="46.1032869821288" lon="12.704976415972416"><ele>206.00000000000003</ele><time>2026-03-22T07:24:56Z</time></trkpt><trkpt lat="46.103263133170856" lon="12.704860392550035"><ele>206.0</ele><time>2026-03-22T07:24:57Z</time></trkpt><trkpt lat="46.10322467183299" lon="12.70474235876985"><ele>206.83333333333334</ele><time>2026-03-22T07:24:58Z</time></trkpt><trkpt lat="46.10317934948538" lon="12.704618690564072"><ele>207.66666666666669</ele><time>2026-03-22T07:24:59Z</time></trkpt><trkpt lat="46.10314832772205" lon="12.704515513539006"><ele>208.5</ele><time>2026-03-22T07:25:00Z</time></trkpt><trkpt lat="46.103108931618706" lon="12.704419371968996"><ele>209.33333333333331</ele><time>2026-03-22T07:25:01Z</time></trkpt><trkpt lat="46.10309341337191" lon="12.704313968555237"><ele>210.16666666666666</ele><time>2026-03-22T07:25:03Z</time></trkpt><trkpt lat="46.103195771990165" lon="12.704235240996624"><ele>211.0</ele><time>2026-03-22T07:25:06Z</time></trkpt><trkpt lat="46.10325876105158" lon="12.704169137201653"><ele>212.5</ele><time>2026-03-22T07:25:07Z</time></trkpt><trkpt lat="46.10336692475574" lon="12.704116241751915"><ele>214.0</ele><time>2026-03-22T07:25:08Z</time></trkpt><trkpt lat="46.10348333738284" lon="12.70400889412598"><ele>215.5</ele><time>2026-03-22T07:25:09Z</time></trkpt><trkpt lat="46.10360424928249" lon="12.70392043051783"><ele>217.0</ele><time>2026-03-22T07:25:10Z</time></trkpt><trkpt lat="46.10374200341986" lon="12.703836178651136"><ele>217.0</ele><time>2026-03-22T07:25:11Z</time></trkpt><trkpt lat="46.10385555793979" lon="12.7037316225313"><ele>217.0</ele><time>2026-03-22T07:25:12Z</time></trkpt><trkpt lat="46.10396989772809" lon="12.703674919972029"><ele>217.0</ele><time>2026-03-22T07:25:13Z</time></trkpt><trkpt lat="46.104068352877036" lon="12.70358430947686"><ele>217.0</ele><time>2026-03-22T07:25:14Z</time></trkpt><trkpt lat="46.10415809870578" lon="12.703517978422656"><ele>217.2</ele><time>2026-03-22T07:25:15Z</time></trkpt><trkpt lat="46.104243308841426" lon="12.703441916617114"><ele>217.39999999999998</ele><time>2026-03-22T07:25:16Z</time></trkpt><trkpt lat="46.104333046700056" lon="12.703373395958664"><ele>217.60000000000002</ele><time>2026-03-22T07:25:17Z</time></trkpt><trkpt lat="46.10443619746691" lon="12.703318154080414"><ele>217.8</ele><time>2026-03-22T07:25:18Z</time></trkpt><trkpt lat="46.10453762096365" lon="12.703240961213206"><ele>218.0</ele><time>2026-03-22T07:25:19Z</time></trkpt><trkpt lat="46.10462730423232" lon="12.703172703822496"><ele>218.00000000000003</ele><time>2026-03-22T07:25:20Z</time></trkpt><trkpt lat="46.104712852570565" lon="12.703107593502404"><ele>218.0</ele><time>2026-03-22T07:25:21Z</time></trkpt><trkpt lat="46.10478987207872" lon="12.703019944279058"><ele>218.0</ele><time>2026-03-22T07:25:22Z</time></trkpt><trkpt lat="46.10486545764172" lon="12.702968127039194"><ele>218.0</ele><time>2026-03-22T07:25:23Z</time></trkpt><trkpt lat="46.104935606680876" lon="12.702926604067242"><ele>218.00000000000003</ele><time>2026-03-22T07:25:24Z</time></trkpt><trkpt lat="46.10501607221435" lon="12.702884454765105"><ele>218.0</ele><time>2026-03-22T07:25:25Z</time></trkpt><trkpt lat="46.10511534828081" lon="12.702826859875056"><ele>218.5</ele><time>2026-03-22T07:25:26Z</time></trkpt><trkpt lat="46.10524286651149" lon="12.702746658691437"><ele>219.0</ele><time>2026-03-22T07:25:27Z</time></trkpt><trkpt lat="46.10536449203817" lon="12.702677642532624"><ele>219.5</ele><time>2026-03-22T07:25:28Z</time></trkpt><trkpt lat="46.10548450190397" lon="12.702600345223084"><ele>220.0</ele><time>2026-03-22T07:25:29Z</time></trkpt><trkpt lat="46.105618634460264" lon="12.702520058187789"><ele>220.0</ele><time>2026-03-22T07:25:30Z</time></trkpt><trkpt lat="46.10573823052301" lon="12.702440050267374"><ele>220.0</ele><time>2026-03-22T07:25:31Z</time></trkpt><trkpt lat="46.10585471376524" lon="12.702352114830122"><ele>220.0</ele><time>2026-03-22T07:25:32Z</time></trkpt><trkpt lat="46.105999698925174" lon="12.702265132474395"><ele>220.0</ele><time>2026-03-22T07:25:33Z</time></trkpt><trkpt lat="46.10615567291009" lon="12.702184866793957"><ele>220.0</ele><time>2026-03-22T07:25:34Z</time></trkpt><trkpt lat="46.106281241578124" lon="12.702106960503707"><ele>220.0</ele><time>2026-03-22T07:25:35Z</time></trkpt><trkpt lat="46.10638426089992" lon="12.702046255062596"><ele>220.0</ele><time>2026-03-22T07:25:36Z</time></trkpt><trkpt lat="46.106492183163" lon="12.701973843774063"><ele>220.0</ele><time>2026-03-22T07:25:37Z</time></trkpt><trkpt lat="46.106600584889314" lon="12.701889982360145"><ele>220.0</ele><time>2026-03-22T07:25:38Z</time></trkpt><trkpt lat="46.1067028059763" lon="12.701816130233569"><ele>220.0</ele><time>2026-03-22T07:25:39Z</time></trkpt><trkpt lat="46.10682587195166" lon="12.701748171897508"><ele>220.0</ele><time>2026-03-22T07:25:40Z</time></trkpt><trkpt lat="46.10694204595861" lon="12.701688249135845"><ele>220.0</ele><time>2026-03-22T07:25:41Z</time></trkpt><trkpt lat="46.1070642229655" lon="12.70161400601153"><ele>220.0</ele><time>2026-03-22T07:25:42Z</time></trkpt><trkpt lat="46.10718574357434" lon="12.70152484762892"><ele>220.0</ele><time>2026-03-22T07:25:43Z</time></trkpt><trkpt lat="46.107328778847595" lon="12.70142698324028"><ele>220.0</ele><time>2026-03-22T07:25:44Z</time></trkpt><trkpt lat="46.1074602987384" lon="12.701312938328545"><ele>220.0</ele><time>2026-03-22T07:25:45Z</time></trkpt><trkpt lat="46.10758770755227" lon="12.701207873230093"><ele>218.66666666666666</ele><time>2026-03-22T07:25:46Z</time></trkpt><trkpt lat="46.10773523223416" lon="12.701112550666563"><ele>217.33333333333331</ele><time>2026-03-22T07:25:47Z</time></trkpt><trkpt lat="46.10789574713386" lon="12.701010538716803"><ele>216.0</ele><time>2026-03-22T07:25:48Z</time></trkpt><trkpt lat="46.10805650518774" lon="12.700883348954692"><ele>216.0</ele><time>2026-03-22T07:25:49Z</time></trkpt><trkpt lat="46.10822577168067" lon="12.700740886036074"><ele>216.0</ele><time>2026-03-22T07:25:50Z</time></trkpt><trkpt lat="46.108401070285815" lon="12.700602288418768"><ele>216.0</ele><time>2026-03-22T07:25:51Z</time></trkpt><trkpt lat="46.10858079190371" lon="12.700463302119939"><ele>216.0</ele><time>2026-03-22T07:25:52Z</time></trkpt><trkpt lat="46.10876090442501" lon="12.70032312011648"><ele>216.0</ele><time>2026-03-22T07:25:53Z</time></trkpt><trkpt lat="46.10891925277605" lon="12.700196665453356"><ele>216.0</ele><time>2026-03-22T07:25:54Z</time></trkpt><trkpt lat="46.10906377012425" lon="12.700083426610966"><ele>217.25</ele><time>2026-03-22T07:25:55Z</time></trkpt><trkpt lat="46.1091973431902" lon="12.699983544614787"><ele>218.5</ele><time>2026-03-22T07:25:56Z</time></trkpt><trkpt lat="46.10932366654772" lon="12.699887934660588"><ele>219.75</ele><time>2026-03-22T07:25:57Z</time></trkpt><trkpt lat="46.10944115470316" lon="12.699803855259187"><ele>221.0</ele><time>2026-03-22T07:25:58Z</time></trkpt><trkpt lat="46.10955570180278" lon="12.699719677731764"><ele>221.0</ele><time>2026-03-22T07:25:59Z</time></trkpt><trkpt lat="46.10966112994256" lon="12.699637806893307"><ele>221.0</ele><time>2026-03-22T07:26:00Z</time></trkpt><trkpt lat="46.10975441960947" lon="12.69956030081564"><ele>221.0</ele><time>2026-03-22T07:26:01Z</time></trkpt><trkpt lat="46.10985985600406" lon="12.699473907784899"><ele>221.0</ele><time>2026-03-22T07:26:02Z</time></trkpt><trkpt lat="46.10996912479387" lon="12.6993914542029"><ele>222.60000000000002</ele><time>2026-03-22T07:26:03Z</time></trkpt><trkpt lat="46.11006915294538" lon="12.699326573871929"><ele>224.20000000000002</ele><time>2026-03-22T07:26:04Z</time></trkpt><trkpt lat="46.110173617323774" lon="12.69925812866801"><ele>225.79999999999998</ele><time>2026-03-22T07:26:05Z</time></trkpt><trkpt lat="46.11026288721656" lon="12.699200109795898"><ele>227.39999999999998</ele><time>2026-03-22T07:26:06Z</time></trkpt><trkpt lat="46.11034691551547" lon="12.699169855263946"><ele>229.0</ele><time>2026-03-22T07:26:07Z</time></trkpt><trkpt lat="46.11045806432462" lon="12.699138358432803"><ele>228.99999999999997</ele><time>2026-03-22T07:26:08Z</time></trkpt><trkpt lat="46.11055048343907" lon="12.699123041723807"><ele>229.0</ele><time>2026-03-22T07:26:09Z</time></trkpt><trkpt lat="46.11064333754644" lon="12.699125296564448"><ele>229.0</ele><time>2026-03-22T07:26:11Z</time></trkpt><trkpt lat="46.11065767627503" lon="12.69921717419401"><ele>229.0</ele><time>2026-03-22T07:26:14Z</time></trkpt><trkpt lat="46.110748789930966" lon="12.699136621852253"><ele>228.99999999999997</ele><time>2026-03-22T07:28:38.999Z</time></trkpt><trkpt lat="46.11079417785294" lon="12.699070503002325"><ele>229.0</ele><time>2026-03-22T07:28:39.999Z</time></trkpt><trkpt lat="46.110904777934884" lon="12.698964847553972"><ele>227.33333333333331</ele><time>2026-03-22T07:28:41.999Z</time></trkpt><trkpt lat="46.11097205257033" lon="12.69891311028415"><ele>225.66666666666666</ele><time>2026-03-22T07:28:43Z</time></trkpt><trkpt lat="46.11104186949047" lon="12.698863246994186"><ele>224.0</ele><time>2026-03-22T07:28:44Z</time></trkpt><trkpt lat="46.111116327447114" lon="12.698811500827034"><ele>222.33333333333331</ele><time>2026-03-22T07:28:45Z</time></trkpt><trkpt lat="46.11119340504819" lon="12.698750574755177"><ele>220.66666666666666</ele><time>2026-03-22T07:28:46Z</time></trkpt><trkpt lat="46.111260472594246" lon="12.698699166327344"><ele>219.0</ele><time>2026-03-22T07:28:47Z</time></trkpt><trkpt lat="46.1113374665948" lon="12.698640737618454"><ele>219.0</ele><time>2026-03-22T07:28:48Z</time></trkpt><trkpt lat="46.11141585597667" lon="12.698586763235859"><ele>218.99999999999997</ele><time>2026-03-22T07:28:49Z</time></trkpt><trkpt lat="46.1114974472233" lon="12.698529044331549"><ele>218.99999999999997</ele><time>2026-03-22T07:28:50Z</time></trkpt><trkpt lat="46.111587282176615" lon="12.698465804129695"><ele>219.0</ele><time>2026-03-22T07:28:51Z</time></trkpt><trkpt lat="46.11166726985254" lon="12.698406738287753"><ele>219.0</ele><time>2026-03-22T07:28:52Z</time></trkpt><trkpt lat="46.11174910411153" lon="12.698350640419937"><ele>219.39999999999998</ele><time>2026-03-22T07:28:53Z</time></trkpt><trkpt lat="46.11183589813896" lon="12.698292918242842"><ele>219.79999999999998</ele><time>2026-03-22T07:28:54Z</time></trkpt><trkpt lat="46.11191935909987" lon="12.698234199890281"><ele>220.20000000000002</ele><time>2026-03-22T07:28:55Z</time></trkpt><trkpt lat="46.11200888143326" lon="12.698165877687977"><ele>220.60000000000002</ele><time>2026-03-22T07:28:56Z</time></trkpt><trkpt lat="46.112097198475084" lon="12.698099133922954"><ele>221.0</ele><time>2026-03-22T07:28:57Z</time></trkpt><trkpt lat="46.1121851040463" lon="12.698023477566469"><ele>221.0</ele><time>2026-03-22T07:28:58Z</time></trkpt><trkpt lat="46.112288957128946" lon="12.697929252918843"><ele>221.0</ele><time>2026-03-22T07:28:59Z</time></trkpt><trkpt lat="46.11239769394053" lon="12.697819491639594"><ele>221.0</ele><time>2026-03-22T07:29:00Z</time></trkpt><trkpt lat="46.11250996431956" lon="12.697706345915162"><ele>221.0</ele><time>2026-03-22T07:29:01Z</time></trkpt><trkpt lat="46.112606152958364" lon="12.697617951308752"><ele>222.25</ele><time>2026-03-22T07:29:02Z</time></trkpt><trkpt lat="46.11268567082506" lon="12.697535040287368"><ele>223.5</ele><time>2026-03-22T07:29:03Z</time></trkpt><trkpt lat="46.11277732394153" lon="12.697445793989253"><ele>224.75</ele><time>2026-03-22T07:29:04Z</time></trkpt><trkpt lat="46.11289879581078" lon="12.697353452433921"><ele>226.0</ele><time>2026-03-22T07:29:05Z</time></trkpt><trkpt lat="46.11301737146397" lon="12.697270065803036"><ele>226.0</ele><time>2026-03-22T07:29:06Z</time></trkpt><trkpt lat="46.11313522934081" lon="12.697198539667538"><ele>226.0</ele><time>2026-03-22T07:29:07Z</time></trkpt><trkpt lat="46.11325668341694" lon="12.697127826970458"><ele>226.0</ele><time>2026-03-22T07:29:08Z</time></trkpt><trkpt lat="46.11336343725549" lon="12.697062883068982"><ele>226.0</ele><time>2026-03-22T07:29:09Z</time></trkpt><trkpt lat="46.11345386204587" lon="12.697000104154013"><ele>226.4</ele><time>2026-03-22T07:29:10Z</time></trkpt><trkpt lat="46.11354193912975" lon="12.696936122634709"><ele>226.8</ele><time>2026-03-22T07:29:11Z</time></trkpt><trkpt lat="46.1136259611257" lon="12.69686660546332"><ele>227.20000000000002</ele><time>2026-03-22T07:29:12Z</time></trkpt><trkpt lat="46.113703148975326" lon="12.696794861082886"><ele>227.60000000000002</ele><time>2026-03-22T07:29:13Z</time></trkpt><trkpt lat="46.113755087301335" lon="12.696725330405389"><ele>228.0</ele><time>2026-03-22T07:29:14Z</time></trkpt><trkpt lat="46.11381188039874" lon="12.696587593425187"><ele>228.0</ele><time>2026-03-22T07:29:16Z</time></trkpt><trkpt lat="46.113878750369125" lon="12.696488276215323"><ele>228.0</ele><time>2026-03-22T07:29:18Z</time></trkpt><trkpt lat="46.11394729447798" lon="12.696442834308982"><ele>228.0</ele><time>2026-03-22T07:29:19Z</time></trkpt><trkpt lat="46.11404540358828" lon="12.696383640239302"><ele>228.0</ele><time>2026-03-22T07:29:20Z</time></trkpt><trkpt lat="46.11416995970041" lon="12.696314450571833"><ele>228.0</ele><time>2026-03-22T07:29:21Z</time></trkpt><trkpt lat="46.11429673007227" lon="12.696214392828084"><ele>227.0</ele><time>2026-03-22T07:29:22Z</time></trkpt><trkpt lat="46.1144199866336" lon="12.696087996323515"><ele>226.0</ele><time>2026-03-22T07:29:23Z</time></trkpt><trkpt lat="46.11452991587952" lon="12.695974510380683"><ele>225.0</ele><time>2026-03-22T07:29:24Z</time></trkpt><trkpt lat="46.11464135934283" lon="12.6958905122508"><ele>224.0</ele><time>2026-03-22T07:29:25Z</time></trkpt><trkpt lat="46.1147797950818" lon="12.695819906805825"><ele>224.33333333333334</ele><time>2026-03-22T07:29:26Z</time></trkpt><trkpt lat="46.11494107388836" lon="12.695710570107233"><ele>224.66666666666669</ele><time>2026-03-22T07:29:27Z</time></trkpt><trkpt lat="46.11510875388246" lon="12.695582073871257"><ele>225.0</ele><time>2026-03-22T07:29:28Z</time></trkpt><trkpt lat="46.11528400874594" lon="12.695459251482017"><ele>225.0</ele><time>2026-03-22T07:29:29Z</time></trkpt><trkpt lat="46.115440065838456" lon="12.695359404235868"><ele>225.0</ele><time>2026-03-22T07:29:30Z</time></trkpt><trkpt lat="46.11559253265598" lon="12.69526785067643"><ele>225.0</ele><time>2026-03-22T07:29:31Z</time></trkpt><trkpt lat="46.11573326633649" lon="12.695191793914594"><ele>225.75</ele><time>2026-03-22T07:29:32Z</time></trkpt><trkpt lat="46.11585931848323" lon="12.695122420865491"><ele>226.5</ele><time>2026-03-22T07:29:33Z</time></trkpt><trkpt lat="46.11597614892065" lon="12.69505359821623"><ele>227.25</ele><time>2026-03-22T07:29:34Z</time></trkpt><trkpt lat="46.11608846351697" lon="12.694978552190781"><ele>228.0</ele><time>2026-03-22T07:29:35Z</time></trkpt><trkpt lat="46.116217904450764" lon="12.694884745530628"><ele>228.0</ele><time>2026-03-22T07:29:36Z</time></trkpt><trkpt lat="46.116347712824094" lon="12.694803419348952"><ele>228.0</ele><time>2026-03-22T07:29:37Z</time></trkpt><trkpt lat="46.11647523429876" lon="12.694723766023019"><ele>228.0</ele><time>2026-03-22T07:29:38Z</time></trkpt><trkpt lat="46.11658703943315" lon="12.694652129372448"><ele>228.0</ele><time>2026-03-22T07:29:39Z</time></trkpt><trkpt lat="46.11670249875582" lon="12.694576618700482"><ele>227.25</ele><time>2026-03-22T07:29:40Z</time></trkpt><trkpt lat="46.116818396709206" lon="12.694490352586417"><ele>226.5</ele><time>2026-03-22T07:29:41Z</time></trkpt><trkpt lat="46.11693620081031" lon="12.694401848111545"><ele>225.75</ele><time>2026-03-22T07:29:42Z</time></trkpt><trkpt lat="46.11705971555167" lon="12.694326239031888"><ele>225.0</ele><time>2026-03-22T07:29:43Z</time></trkpt><trkpt lat="46.11718916700782" lon="12.694249283109036"><ele>225.0</ele><time>2026-03-22T07:29:44Z</time></trkpt><trkpt lat="46.117304582887165" lon="12.694169337590923"><ele>225.0</ele><time>2026-03-22T07:29:45Z</time></trkpt><trkpt lat="46.11741783888619" lon="12.694082736573613"><ele>225.0</ele><time>2026-03-22T07:29:46Z</time></trkpt><trkpt lat="46.117519385685654" lon="12.693998579675679"><ele>225.0</ele><time>2026-03-22T07:29:47Z</time></trkpt><trkpt lat="46.117624205145944" lon="12.693912738399561"><ele>225.0</ele><time>2026-03-22T07:29:48Z</time></trkpt><trkpt lat="46.117733205307715" lon="12.693831824396442"><ele>225.0</ele><time>2026-03-22T07:29:49Z</time></trkpt><trkpt lat="46.11784647572659" lon="12.693751551097376"><ele>225.0</ele><time>2026-03-22T07:29:50Z</time></trkpt><trkpt lat="46.11795535597997" lon="12.69367349751894"><ele>225.0</ele><time>2026-03-22T07:29:51Z</time></trkpt><trkpt lat="46.11806515041228" lon="12.693584598210697"><ele>225.75</ele><time>2026-03-22T07:29:52Z</time></trkpt><trkpt lat="46.11818617109782" lon="12.693482635345855"><ele>226.5</ele><time>2026-03-22T07:29:53Z</time></trkpt><trkpt lat="46.1183093274024" lon="12.69338082573168"><ele>227.25</ele><time>2026-03-22T07:29:54Z</time></trkpt><trkpt lat="46.118427736395994" lon="12.6932863726591"><ele>228.0</ele><time>2026-03-22T07:29:55Z</time></trkpt><trkpt lat="46.11853764958223" lon="12.69319705336508"><ele>228.0</ele><time>2026-03-22T07:29:56Z</time></trkpt><trkpt lat="46.11865250188203" lon="12.693102236596149"><ele>228.0</ele><time>2026-03-22T07:29:57Z</time></trkpt><trkpt lat="46.11876517878218" lon="12.69301211250864"><ele>228.0</ele><time>2026-03-22T07:29:58Z</time></trkpt><trkpt lat="46.11887489734217" lon="12.69292415958007"><ele>228.0</ele><time>2026-03-22T07:29:59Z</time></trkpt><trkpt lat="46.118975938815666" lon="12.692843154681647"><ele>228.0</ele><time>2026-03-22T07:30:00Z</time></trkpt><trkpt lat="46.11908343867434" lon="12.692763586959947"><ele>228.0</ele><time>2026-03-22T07:30:01Z</time></trkpt><trkpt lat="46.11920114339974" lon="12.692675315618033"><ele>228.0</ele><time>2026-03-22T07:30:02Z</time></trkpt><trkpt lat="46.119331366142546" lon="12.692578679163933"><ele>228.0</ele><time>2026-03-22T07:30:03Z</time></trkpt><trkpt lat="46.119459553385795" lon="12.692485579578527"><ele>229.0</ele><time>2026-03-22T07:30:04Z</time></trkpt><trkpt lat="46.11959090384954" lon="12.692383774280785"><ele>230.0</ele><time>2026-03-22T07:30:05Z</time></trkpt><trkpt lat="46.11972335245465" lon="12.692285168955946"><ele>231.0</ele><time>2026-03-22T07:30:06Z</time></trkpt><trkpt lat="46.11985923750254" lon="12.692186919820656"><ele>230.25</ele><time>2026-03-22T07:30:07Z</time></trkpt><trkpt lat="46.11998741529727" lon="12.692096605621241"><ele>229.5</ele><time>2026-03-22T07:30:08Z</time></trkpt><trkpt lat="46.12011446504051" lon="12.692009763459932"><ele>228.75</ele><time>2026-03-22T07:30:09Z</time></trkpt><trkpt lat="46.12024218238589" lon="12.691925672951161"><ele>228.0</ele><time>2026-03-22T07:30:10Z</time></trkpt><trkpt lat="46.12037051868845" lon="12.691835720421478"><ele>229.0</ele><time>2026-03-22T07:30:11Z</time></trkpt><trkpt lat="46.120500994482036" lon="12.69174603238526"><ele>230.0</ele><time>2026-03-22T07:30:12Z</time></trkpt><trkpt lat="46.12061746429225" lon="12.691662222997447"><ele>231.0</ele><time>2026-03-22T07:30:13Z</time></trkpt><trkpt lat="46.120724243477376" lon="12.691578335051299"><ele>232.0</ele><time>2026-03-22T07:30:14Z</time></trkpt><trkpt lat="46.12083465030324" lon="12.691478523020242"><ele>232.0</ele><time>2026-03-22T07:30:15Z</time></trkpt><trkpt lat="46.120948189371354" lon="12.691378337489258"><ele>232.0</ele><time>2026-03-22T07:30:16Z</time></trkpt><trkpt lat="46.121068158769795" lon="12.691282466667264"><ele>232.0</ele><time>2026-03-22T07:30:17Z</time></trkpt><trkpt lat="46.12119164338021" lon="12.691206719308077"><ele>232.0</ele><time>2026-03-22T07:30:18Z</time></trkpt><trkpt lat="46.121315549748466" lon="12.691127408074232"><ele>232.25</ele><time>2026-03-22T07:30:19Z</time></trkpt><trkpt lat="46.12142366413868" lon="12.691051724092752"><ele>232.5</ele><time>2026-03-22T07:30:20Z</time></trkpt><trkpt lat="46.121533520795786" lon="12.690973833510009"><ele>232.75</ele><time>2026-03-22T07:30:21Z</time></trkpt><trkpt lat="46.12165014653471" lon="12.690877947116531"><ele>233.0</ele><time>2026-03-22T07:30:22Z</time></trkpt><trkpt lat="46.12176172178098" lon="12.690775956134463"><ele>233.0</ele><time>2026-03-22T07:30:23Z</time></trkpt><trkpt lat="46.12187027074955" lon="12.690670360915188"><ele>233.0</ele><time>2026-03-22T07:30:24Z</time></trkpt><trkpt lat="46.12197759578684" lon="12.690583358682153"><ele>233.0</ele><time>2026-03-22T07:30:25Z</time></trkpt><trkpt lat="46.12208055583156" lon="12.690513913154838"><ele>233.0</ele><time>2026-03-22T07:30:26Z</time></trkpt><trkpt lat="46.1221714640466" lon="12.690443262347177"><ele>233.0</ele><time>2026-03-22T07:30:27Z</time></trkpt><trkpt lat="46.12225278199587" lon="12.69036495141328"><ele>233.0</ele><time>2026-03-22T07:30:28Z</time></trkpt><trkpt lat="46.12231999142664" lon="12.690280126003339"><ele>233.0</ele><time>2026-03-22T07:30:29Z</time></trkpt><trkpt lat="46.12236790806759" lon="12.690172443628176"><ele>233.0</ele><time>2026-03-22T07:30:30Z</time></trkpt><trkpt lat="46.12242167641498" lon="12.690037340194742"><ele>233.0</ele><time>2026-03-22T07:30:31Z</time></trkpt><trkpt lat="46.12247825293891" lon="12.689939812762812"><ele>233.2</ele><time>2026-03-22T07:30:32Z</time></trkpt><trkpt lat="46.12255296238593" lon="12.68988132548681"><ele>233.4</ele><time>2026-03-22T07:30:33Z</time></trkpt><trkpt lat="46.1226300914727" lon="12.689831522007394"><ele>233.59999999999997</ele><time>2026-03-22T07:30:34Z</time></trkpt><trkpt lat="46.12272633777659" lon="12.68977209225818"><ele>233.79999999999998</ele><time>2026-03-22T07:30:35Z</time></trkpt><trkpt lat="46.12283269282951" lon="12.689704919347022"><ele>234.0</ele><time>2026-03-22T07:30:36Z</time></trkpt><trkpt lat="46.12294614587766" lon="12.689636450128177"><ele>234.0</ele><time>2026-03-22T07:30:37Z</time></trkpt><trkpt lat="46.12306014733389" lon="12.689562119735044"><ele>234.0</ele><time>2026-03-22T07:30:38Z</time></trkpt><trkpt lat="46.123174324128826" lon="12.689471464461645"><ele>234.0</ele><time>2026-03-22T07:30:39Z</time></trkpt><trkpt lat="46.12329793814643" lon="12.689370316836117"><ele>234.0</ele><time>2026-03-22T07:30:40Z</time></trkpt><trkpt lat="46.12343208767793" lon="12.689264534298626"><ele>235.5</ele><time>2026-03-22T07:30:41Z</time></trkpt><trkpt lat="46.12355104843629" lon="12.689179807339357"><ele>237.0</ele><time>2026-03-22T07:30:42Z</time></trkpt><trkpt lat="46.123658623277734" lon="12.68909592383546"><ele>238.5</ele><time>2026-03-22T07:30:43Z</time></trkpt><trkpt lat="46.123766359494816" lon="12.689016972222351"><ele>240.0</ele><time>2026-03-22T07:30:44Z</time></trkpt><trkpt lat="46.12387422124994" lon="12.688942075931685"><ele>240.0</ele><time>2026-03-22T07:30:45Z</time></trkpt><trkpt lat="46.12398216364175" lon="12.688870164672288"><ele>240.0</ele><time>2026-03-22T07:30:46Z</time></trkpt><trkpt lat="46.12410013079079" lon="12.688788984258474"><ele>240.0</ele><time>2026-03-22T07:30:47Z</time></trkpt><trkpt lat="46.12422182153229" lon="12.68870278738272"><ele>240.0</ele><time>2026-03-22T07:30:48Z</time></trkpt><trkpt lat="46.12434694117689" lon="12.688614566257625"><ele>241.75</ele><time>2026-03-22T07:30:49Z</time></trkpt><trkpt lat="46.124472562761476" lon="12.688526399142788"><ele>243.5</ele><time>2026-03-22T07:30:50Z</time></trkpt><trkpt lat="46.12460400731626" lon="12.688435173362858"><ele>245.25</ele><time>2026-03-22T07:30:51Z</time></trkpt><trkpt lat="46.124727548906655" lon="12.688364765552606"><ele>247.0</ele><time>2026-03-22T07:30:52Z</time></trkpt><trkpt lat="46.12484060616342" lon="12.688313452977077"><ele>245.0</ele><time>2026-03-22T07:30:53Z</time></trkpt><trkpt lat="46.12495146733745" lon="12.688247094780342"><ele>243.0</ele><time>2026-03-22T07:30:54Z</time></trkpt><trkpt lat="46.12505996299427" lon="12.688160514593442"><ele>241.0</ele><time>2026-03-22T07:30:55Z</time></trkpt><trkpt lat="46.12517342788333" lon="12.688080426413968"><ele>239.0</ele><time>2026-03-22T07:30:56Z</time></trkpt><trkpt lat="46.12529043883531" lon="12.688002315221937"><ele>239.0</ele><time>2026-03-22T07:30:57Z</time></trkpt><trkpt lat="46.125419395439565" lon="12.687935186996135"><ele>239.0</ele><time>2026-03-22T07:30:58Z</time></trkpt><trkpt lat="46.125549409906604" lon="12.68788493100638"><ele>239.0</ele><time>2026-03-22T07:30:59Z</time></trkpt><trkpt lat="46.12567920521186" lon="12.687817048629308"><ele>239.0</ele><time>2026-03-22T07:31:00Z</time></trkpt><trkpt lat="46.12580694560997" lon="12.687728340368261"><ele>240.33333333333334</ele><time>2026-03-22T07:31:01Z</time></trkpt><trkpt lat="46.12594799170892" lon="12.68761823742244"><ele>241.66666666666669</ele><time>2026-03-22T07:31:02Z</time></trkpt><trkpt lat="46.1260928077034" lon="12.687498704026046"><ele>243.0</ele><time>2026-03-22T07:31:03Z</time></trkpt><trkpt lat="46.126218021674326" lon="12.687398890751073"><ele>243.0</ele><time>2026-03-22T07:31:04Z</time></trkpt><trkpt lat="46.126339229638944" lon="12.687305165880488"><ele>243.0</ele><time>2026-03-22T07:31:05Z</time></trkpt><trkpt lat="46.12646182923021" lon="12.68720997410041"><ele>243.0</ele><time>2026-03-22T07:31:06Z</time></trkpt><trkpt lat="46.12657895510086" lon="12.687118182362918"><ele>243.0</ele><time>2026-03-22T07:31:07Z</time></trkpt><trkpt lat="46.126692367783754" lon="12.687025606404093"><ele>244.0</ele><time>2026-03-22T07:31:08Z</time></trkpt><trkpt lat="46.126812718649965" lon="12.686926465791805"><ele>245.0</ele><time>2026-03-22T07:31:09Z</time></trkpt><trkpt lat="46.126932151528976" lon="12.686835581854341"><ele>246.0</ele><time>2026-03-22T07:31:10Z</time></trkpt><trkpt lat="46.12705535292915" lon="12.686751419378865"><ele>247.0</ele><time>2026-03-22T07:31:11Z</time></trkpt><trkpt lat="46.12717993875614" lon="12.68666558555374"><ele>247.0</ele><time>2026-03-22T07:31:12Z</time></trkpt><trkpt lat="46.12730966572079" lon="12.686567873257655"><ele>247.0</ele><time>2026-03-22T07:31:13Z</time></trkpt><trkpt lat="46.12743793085879" lon="12.686465133534881"><ele>247.0</ele><time>2026-03-22T07:31:14Z</time></trkpt><trkpt lat="46.127561474286864" lon="12.686375451128406"><ele>247.0</ele><time>2026-03-22T07:31:15Z</time></trkpt><trkpt lat="46.12767006567596" lon="12.686301823374084"><ele>248.0</ele><time>2026-03-22T07:31:16Z</time></trkpt><trkpt lat="46.12776800059356" lon="12.686236291617016"><ele>249.0</ele><time>2026-03-22T07:31:17Z</time></trkpt><trkpt lat="46.127863041806755" lon="12.686176527598269"><ele>250.0</ele><time>2026-03-22T07:31:18Z</time></trkpt><trkpt lat="46.12795521646821" lon="12.686119330629424"><ele>251.0</ele><time>2026-03-22T07:31:19Z</time></trkpt><trkpt lat="46.12805500231343" lon="12.686064637148963"><ele>252.0</ele><time>2026-03-22T07:31:20Z</time></trkpt><trkpt lat="46.128138196525825" lon="12.686022257882204"><ele>252.0</ele><time>2026-03-22T07:31:21Z</time></trkpt><trkpt lat="46.12821395023919" lon="12.685983791335415"><ele>252.0</ele><time>2026-03-22T07:31:22Z</time></trkpt><trkpt lat="46.12829698201594" lon="12.685943170601528"><ele>252.0</ele><time>2026-03-22T07:31:23Z</time></trkpt><trkpt lat="46.128371425197116" lon="12.685898991489184"><ele>252.0</ele><time>2026-03-22T07:31:24Z</time></trkpt><trkpt lat="46.12843155081368" lon="12.685853059106082"><ele>252.0</ele><time>2026-03-22T07:31:25Z</time></trkpt><trkpt lat="46.12848545379307" lon="12.685803008656675"><ele>252.0</ele><time>2026-03-22T07:31:26Z</time></trkpt><trkpt lat="46.128547363886454" lon="12.685750384510506"><ele>249.5</ele><time>2026-03-22T07:31:27Z</time></trkpt><trkpt lat="46.12864412555678" lon="12.685677749529383"><ele>247.0</ele><time>2026-03-22T07:31:28Z</time></trkpt><trkpt lat="46.12874692454625" lon="12.685600718805304"><ele>244.5</ele><time>2026-03-22T07:31:29Z</time></trkpt><trkpt lat="46.12886636408104" lon="12.685523021116776"><ele>242.0</ele><time>2026-03-22T07:31:30Z</time></trkpt><trkpt lat="46.128999783720296" lon="12.685446060737425"><ele>241.75</ele><time>2026-03-22T07:31:31Z</time></trkpt><trkpt lat="46.12912076572138" lon="12.685367969883254"><ele>241.5</ele><time>2026-03-22T07:31:32Z</time></trkpt><trkpt lat="46.12922708909122" lon="12.685299123819476"><ele>241.25</ele><time>2026-03-22T07:31:33Z</time></trkpt><trkpt lat="46.1293325527998" lon="12.685227436193296"><ele>241.0</ele><time>2026-03-22T07:31:34Z</time></trkpt><trkpt lat="46.12943706185455" lon="12.68515879794709"><ele>241.4</ele><time>2026-03-22T07:31:35Z</time></trkpt><trkpt lat="46.12955455035524" lon="12.685078433132723"><ele>241.8</ele><time>2026-03-22T07:31:36Z</time></trkpt><trkpt lat="46.129656970391906" lon="12.68501171023531"><ele>242.20000000000002</ele><time>2026-03-22T07:31:37Z</time></trkpt><trkpt lat="46.12974092236612" lon="12.684957219986847"><ele>242.60000000000002</ele><time>2026-03-22T07:31:38Z</time></trkpt><trkpt lat="46.12983300587548" lon="12.68489940334354"><ele>243.0</ele><time>2026-03-22T07:31:39Z</time></trkpt><trkpt lat="46.12995356532378" lon="12.684827917999291"><ele>243.0</ele><time>2026-03-22T07:31:40Z</time></trkpt><trkpt lat="46.130054591166015" lon="12.684766055889728"><ele>243.0</ele><time>2026-03-22T07:31:41Z</time></trkpt><trkpt lat="46.13013675009714" lon="12.684693503806633"><ele>243.0</ele><time>2026-03-22T07:31:42Z</time></trkpt><trkpt lat="46.13019962663736" lon="12.684641273234986"><ele>243.0</ele><time>2026-03-22T07:31:43Z</time></trkpt><trkpt lat="46.130263554426364" lon="12.684630498514482"><ele>243.0</ele><time>2026-03-22T07:31:44Z</time></trkpt><trkpt lat="46.130332301012636" lon="12.684667877314725"><ele>243.0</ele><time>2026-03-22T07:31:45Z</time></trkpt><trkpt lat="46.13040266142583" lon="12.684731114775378"><ele>243.0</ele><time>2026-03-22T07:31:46Z</time></trkpt><trkpt lat="46.13045358651487" lon="12.684823033848225"><ele>243.0</ele><time>2026-03-22T07:31:47Z</time></trkpt><trkpt lat="46.13051968350939" lon="12.684965181043289"><ele>243.0</ele><time>2026-03-22T07:31:48Z</time></trkpt><trkpt lat="46.13059842713903" lon="12.68510835867568"><ele>243.0</ele><time>2026-03-22T07:31:49Z</time></trkpt><trkpt lat="46.130666428717696" lon="12.685256726436418"><ele>242.8</ele><time>2026-03-22T07:31:50Z</time></trkpt><trkpt lat="46.13073161711086" lon="12.68539255188083"><ele>242.60000000000002</ele><time>2026-03-22T07:31:51Z</time></trkpt><trkpt lat="46.130781612436216" lon="12.685517477527409"><ele>242.39999999999998</ele><time>2026-03-22T07:31:52Z</time></trkpt><trkpt lat="46.1308178942639" lon="12.685618406207267"><ele>242.2</ele><time>2026-03-22T07:31:53Z</time></trkpt><trkpt lat="46.13092432328681" lon="12.685693687455622"><ele>242.0</ele><time>2026-03-22T07:31:55Z</time></trkpt><trkpt lat="46.130994547789314" lon="12.685709670723508"><ele>242.00000000000003</ele><time>2026-03-22T07:31:56Z</time></trkpt><trkpt lat="46.131075514276915" lon="12.685626880389504"><ele>242.0</ele><time>2026-03-22T07:31:58Z</time></trkpt><trkpt lat="46.1310939071118" lon="12.685523401443119"><ele>242.0</ele><time>2026-03-22T07:31:59Z</time></trkpt><trkpt lat="46.13108627870259" lon="12.685410747993997"><ele>242.0</ele><time>2026-03-22T07:32:00Z</time></trkpt><trkpt lat="46.13106441446932" lon="12.685280153698855"><ele>242.00000000000003</ele><time>2026-03-22T07:32:01Z</time></trkpt><trkpt lat="46.13104995881863" lon="12.685163332782226"><ele>242.0</ele><time>2026-03-22T07:32:02Z</time></trkpt><trkpt lat="46.13107326821204" lon="12.685077007214161"><ele>242.16666666666669</ele><time>2026-03-22T07:32:03Z</time></trkpt><trkpt lat="46.13111167831913" lon="12.684997527391335"><ele>242.33333333333334</ele><time>2026-03-22T07:32:04Z</time></trkpt><trkpt lat="46.131108953486695" lon="12.684833359401356"><ele>242.5</ele><time>2026-03-22T07:32:06Z</time></trkpt><trkpt lat="46.131072305823565" lon="12.684704451045032"><ele>242.66666666666669</ele><time>2026-03-22T07:32:07Z</time></trkpt><trkpt lat="46.131041210627195" lon="12.684580167757947"><ele>242.83333333333334</ele><time>2026-03-22T07:32:08Z</time></trkpt><trkpt lat="46.13103809843444" lon="12.684477577557155"><ele>243.0</ele><time>2026-03-22T07:32:09Z</time></trkpt><trkpt lat="46.13107766686359" lon="12.684305535613007"><ele>244.2</ele><time>2026-03-22T07:32:11Z</time></trkpt><trkpt lat="46.13111207653684" lon="12.684221962421772"><ele>245.4</ele><time>2026-03-22T07:32:12Z</time></trkpt><trkpt lat="46.131160005270786" lon="12.684145995789573"><ele>246.59999999999997</ele><time>2026-03-22T07:32:13Z</time></trkpt><trkpt lat="46.13123628901818" lon="12.684093113435523"><ele>247.79999999999998</ele><time>2026-03-22T07:32:14Z</time></trkpt><trkpt lat="46.131348783861704" lon="12.684043074642082"><ele>249.0</ele><time>2026-03-22T07:32:15Z</time></trkpt><trkpt lat="46.131478345375065" lon="12.683991526085762"><ele>247.33333333333331</ele><time>2026-03-22T07:32:16Z</time></trkpt><trkpt lat="46.131632304037765" lon="12.68392091454267"><ele>245.66666666666666</ele><time>2026-03-22T07:32:17Z</time></trkpt><trkpt lat="46.1318094490379" lon="12.683837642690397"><ele>244.0</ele><time>2026-03-22T07:32:18Z</time></trkpt><trkpt lat="46.13195302530185" lon="12.683780104305573"><ele>244.0</ele><time>2026-03-22T07:32:19Z</time></trkpt><trkpt lat="46.132076815239195" lon="12.683743130578696"><ele>243.99999999999997</ele><time>2026-03-22T07:32:20Z</time></trkpt><trkpt lat="46.132183625809716" lon="12.683714486036438"><ele>243.99999999999997</ele><time>2026-03-22T07:32:21Z</time></trkpt><trkpt lat="46.13228267014581" lon="12.683688058921325"><ele>244.0</ele><time>2026-03-22T07:32:22Z</time></trkpt><trkpt lat="46.13236442201944" lon="12.68366471474229"><ele>244.0</ele><time>2026-03-22T07:32:23Z</time></trkpt><trkpt lat="46.13243784391118" lon="12.683646825596051"><ele>244.83333333333331</ele><time>2026-03-22T07:32:24Z</time></trkpt><trkpt lat="46.13253607042097" lon="12.683575911648205"><ele>245.66666666666666</ele><time>2026-03-22T07:32:26Z</time></trkpt><trkpt lat="46.1325756222038" lon="12.683489810409522"><ele>246.5</ele><time>2026-03-22T07:32:27Z</time></trkpt><trkpt lat="46.132624415754165" lon="12.68334793676308"><ele>247.33333333333331</ele><time>2026-03-22T07:32:28.999Z</time></trkpt><trkpt lat="46.13269517072433" lon="12.683305980302032"><ele>248.16666666666666</ele><time>2026-03-22T07:32:29.999Z</time></trkpt><trkpt lat="46.13275953075338" lon="12.68326766526185"><ele>249.0</ele><time>2026-03-22T07:32:30.999Z</time></trkpt><trkpt lat="46.13285531059032" lon="12.683230362872978"><ele>249.0</ele><time>2026-03-22T07:32:32.999Z</time></trkpt><trkpt lat="46.13295653347838" lon="12.683216091736867"><ele>248.99999999999997</ele><time>2026-03-22T07:32:34.999Z</time></trkpt><trkpt lat="46.133041375905464" lon="12.683094970731384"><ele>248.99999999999997</ele><time>2026-03-22T07:32:36.999Z</time></trkpt><trkpt lat="46.13308367975846" lon="12.68299523506212"><ele>249.0</ele><time>2026-03-22T07:32:37.999Z</time></trkpt><trkpt lat="46.133123195278586" lon="12.68289930610827"><ele>249.0</ele><time>2026-03-22T07:32:38.999Z</time></trkpt><trkpt lat="46.1331726564827" lon="12.682788589235308"><ele>250.39999999999998</ele><time>2026-03-22T07:32:40.999Z</time></trkpt><trkpt lat="46.133275214838115" lon="12.682736755787781"><ele>251.79999999999998</ele><time>2026-03-22T07:32:43.999Z</time></trkpt><trkpt lat="46.13335616969348" lon="12.682718852323834"><ele>253.20000000000002</ele><time>2026-03-22T07:32:44.999Z</time></trkpt><trkpt lat="46.13345356324307" lon="12.682681315544052"><ele>254.60000000000002</ele><time>2026-03-22T07:32:45.999Z</time></trkpt><trkpt lat="46.1335543624869" lon="12.682617683309875"><ele>256.0</ele><time>2026-03-22T07:32:46.999Z</time></trkpt><trkpt lat="46.13366700916117" lon="12.682527300198675"><ele>256.0</ele><time>2026-03-22T07:32:47.999Z</time></trkpt><trkpt lat="46.133804950201394" lon="12.682407419119132"><ele>256.0</ele><time>2026-03-22T07:32:48.999Z</time></trkpt><trkpt lat="46.13395811692289" lon="12.682288711243604"><ele>256.0</ele><time>2026-03-22T07:32:49.999Z</time></trkpt><trkpt lat="46.13409831621647" lon="12.682197636988098"><ele>257.0</ele><time>2026-03-22T07:32:50.999Z</time></trkpt><trkpt lat="46.13422375285293" lon="12.682121412421669"><ele>258.0</ele><time>2026-03-22T07:32:51.999Z</time></trkpt><trkpt lat="46.1343397196143" lon="12.682054209511247"><ele>259.0</ele><time>2026-03-22T07:32:52.999Z</time></trkpt><trkpt lat="46.13445363942761" lon="12.68199035223125"><ele>260.0</ele><time>2026-03-22T07:32:53.999Z</time></trkpt><trkpt lat="46.13456639761545" lon="12.681926152235512"><ele>260.0</ele><time>2026-03-22T07:32:55Z</time></trkpt><trkpt lat="46.13467852613428" lon="12.681860777407806"><ele>260.0</ele><time>2026-03-22T07:32:56Z</time></trkpt><trkpt lat="46.13478761182232" lon="12.681798182470446"><ele>260.0</ele><time>2026-03-22T07:32:57Z</time></trkpt><trkpt lat="46.13489112398888" lon="12.681738473979696"><ele>260.0</ele><time>2026-03-22T07:32:58Z</time></trkpt><trkpt lat="46.13500154491437" lon="12.68168251035591"><ele>258.0</ele><time>2026-03-22T07:32:59Z</time></trkpt><trkpt lat="46.13512164252162" lon="12.681621606197202"><ele>256.0</ele><time>2026-03-22T07:33:00Z</time></trkpt><trkpt lat="46.135245594714696" lon="12.68155575205244"><ele>254.0</ele><time>2026-03-22T07:33:01Z</time></trkpt><trkpt lat="46.13537295000283" lon="12.681487951833002"><ele>252.0</ele><time>2026-03-22T07:33:02Z</time></trkpt><trkpt lat="46.13550429234272" lon="12.681422750653912"><ele>252.0</ele><time>2026-03-22T07:33:03Z</time></trkpt><trkpt lat="46.13563710531982" lon="12.681360381852802"><ele>252.0</ele><time>2026-03-22T07:33:04Z</time></trkpt><trkpt lat="46.13577108970091" lon="12.681297344664799"><ele>252.0</ele><time>2026-03-22T07:33:05Z</time></trkpt><trkpt lat="46.13590134809255" lon="12.681239346434548"><ele>252.0</ele><time>2026-03-22T07:33:06Z</time></trkpt><trkpt lat="46.13602098238" lon="12.681187541205176"><ele>251.5</ele><time>2026-03-22T07:33:07Z</time></trkpt><trkpt lat="46.13614454479439" lon="12.681123657176904"><ele>251.0</ele><time>2026-03-22T07:33:08Z</time></trkpt><trkpt lat="46.136265364942176" lon="12.681046653374029"><ele>250.5</ele><time>2026-03-22T07:33:09Z</time></trkpt><trkpt lat="46.13639253312399" lon="12.68096708633907"><ele>250.0</ele><time>2026-03-22T07:33:10Z</time></trkpt><trkpt lat="46.13651871960763" lon="12.680889912700247"><ele>250.5</ele><time>2026-03-22T07:33:11Z</time></trkpt><trkpt lat="46.1366480661013" lon="12.68080536031902"><ele>251.0</ele><time>2026-03-22T07:33:12Z</time></trkpt><trkpt lat="46.13677869122293" lon="12.680712643182376"><ele>251.5</ele><time>2026-03-22T07:33:13Z</time></trkpt><trkpt lat="46.136909630251694" lon="12.680616470385313"><ele>252.0</ele><time>2026-03-22T07:33:14Z</time></trkpt><trkpt lat="46.13703877469638" lon="12.680525081918317"><ele>252.0</ele><time>2026-03-22T07:33:15Z</time></trkpt><trkpt lat="46.13716928879507" lon="12.680438631196651"><ele>252.0</ele><time>2026-03-22T07:33:16Z</time></trkpt><trkpt lat="46.137299069156526" lon="12.68036209401193"><ele>252.0</ele><time>2026-03-22T07:33:17Z</time></trkpt><trkpt lat="46.13742680787337" lon="12.680299250215896"><ele>252.0</ele><time>2026-03-22T07:33:18Z</time></trkpt><trkpt lat="46.13755823500497" lon="12.680241957094989"><ele>254.5</ele><time>2026-03-22T07:33:19Z</time></trkpt><trkpt lat="46.13768427826579" lon="12.680191371172288"><ele>257.0</ele><time>2026-03-22T07:33:20Z</time></trkpt><trkpt lat="46.13781428668376" lon="12.680144936013596"><ele>259.5</ele><time>2026-03-22T07:33:21Z</time></trkpt><trkpt lat="46.13794959794329" lon="12.68011159678514"><ele>262.0</ele><time>2026-03-22T07:33:22Z</time></trkpt><trkpt lat="46.13808714672267" lon="12.68007801793377"><ele>260.5</ele><time>2026-03-22T07:33:23Z</time></trkpt><trkpt lat="46.13822555068369" lon="12.680033245552718"><ele>259.0</ele><time>2026-03-22T07:33:24Z</time></trkpt><trkpt lat="46.1383646301548" lon="12.67997857390618"><ele>257.5</ele><time>2026-03-22T07:33:25Z</time></trkpt><trkpt lat="46.13850266865611" lon="12.679928795621375"><ele>256.0</ele><time>2026-03-22T07:33:26Z</time></trkpt><trkpt lat="46.13863921643104" lon="12.67988354233286"><ele>256.0</ele><time>2026-03-22T07:33:27Z</time></trkpt><trkpt lat="46.13877597481022" lon="12.6798386498036"><ele>256.0</ele><time>2026-03-22T07:33:28Z</time></trkpt><trkpt lat="46.138908556569326" lon="12.679794968970874"><ele>256.0</ele><time>2026-03-22T07:33:29Z</time></trkpt><trkpt lat="46.13903615664942" lon="12.679755607245749"><ele>256.0</ele><time>2026-03-22T07:33:30Z</time></trkpt><trkpt lat="46.139163176160686" lon="12.679712770432955"><ele>254.5</ele><time>2026-03-22T07:33:31Z</time></trkpt><trkpt lat="46.13928803741661" lon="12.679657447544933"><ele>253.0</ele><time>2026-03-22T07:33:32Z</time></trkpt><trkpt lat="46.13939986045694" lon="12.679595465505345"><ele>251.5</ele><time>2026-03-22T07:33:33Z</time></trkpt><trkpt lat="46.139499463500705" lon="12.67953252205125"><ele>250.0</ele><time>2026-03-22T07:33:34Z</time></trkpt><trkpt lat="46.1395857529622" lon="12.67947242250062"><ele>250.2</ele><time>2026-03-22T07:33:35Z</time></trkpt><trkpt lat="46.13965578642992" lon="12.67941757263662"><ele>250.4</ele><time>2026-03-22T07:33:36Z</time></trkpt><trkpt lat="46.13972531840599" lon="12.67935947279578"><ele>250.60000000000002</ele><time>2026-03-22T07:33:37Z</time></trkpt><trkpt lat="46.139807969942645" lon="12.679282312310756"><ele>250.8</ele><time>2026-03-22T07:33:38Z</time></trkpt><trkpt lat="46.13989718211389" lon="12.679174470631935"><ele>251.0</ele><time>2026-03-22T07:33:39Z</time></trkpt><trkpt lat="46.139989761657255" lon="12.679059298058885"><ele>251.0</ele><time>2026-03-22T07:33:40Z</time></trkpt><trkpt lat="46.14009054639507" lon="12.678922152465123"><ele>251.0</ele><time>2026-03-22T07:33:41Z</time></trkpt><trkpt lat="46.140192184399844" lon="12.678774961271221"><ele>251.0</ele><time>2026-03-22T07:33:42Z</time></trkpt><trkpt lat="46.140291507732776" lon="12.67862418118199"><ele>251.0</ele><time>2026-03-22T07:33:43Z</time></trkpt><trkpt lat="46.140384927889315" lon="12.67848577921199"><ele>251.5</ele><time>2026-03-22T07:33:44Z</time></trkpt><trkpt lat="46.14048043511813" lon="12.678355912175848"><ele>252.0</ele><time>2026-03-22T07:33:45Z</time></trkpt><trkpt lat="46.140577647498546" lon="12.678234872004195"><ele>252.5</ele><time>2026-03-22T07:33:46Z</time></trkpt><trkpt lat="46.14068007835775" lon="12.678124830932175"><ele>253.0</ele><time>2026-03-22T07:33:47Z</time></trkpt><trkpt lat="46.140791269315685" lon="12.678031198087012"><ele>253.0</ele><time>2026-03-22T07:33:48Z</time></trkpt><trkpt lat="46.14091485880167" lon="12.677951746615268"><ele>253.0</ele><time>2026-03-22T07:33:49Z</time></trkpt><trkpt lat="46.14105468664945" lon="12.677879560790508"><ele>253.0</ele><time>2026-03-22T07:33:50Z</time></trkpt><trkpt lat="46.141214527511245" lon="12.677805491812329"><ele>254.33333333333331</ele><time>2026-03-22T07:33:51Z</time></trkpt><trkpt lat="46.141386199481566" lon="12.677721345298835"><ele>255.66666666666669</ele><time>2026-03-22T07:33:52Z</time></trkpt><trkpt lat="46.141573606626594" lon="12.67761475195509"><ele>257.0</ele><time>2026-03-22T07:33:53Z</time></trkpt><trkpt lat="46.141754223590674" lon="12.677509848678019"><ele>257.0</ele><time>2026-03-22T07:33:54Z</time></trkpt><trkpt lat="46.14192321651046" lon="12.677416218236841"><ele>257.0</ele><time>2026-03-22T07:33:55Z</time></trkpt><trkpt lat="46.14207984993452" lon="12.677328334188802"><ele>257.0</ele><time>2026-03-22T07:33:56Z</time></trkpt><trkpt lat="46.14222737840897" lon="12.677252446818258"><ele>257.0</ele><time>2026-03-22T07:33:57Z</time></trkpt><trkpt lat="46.142365389594964" lon="12.677191559429998"><ele>257.0</ele><time>2026-03-22T07:33:58Z</time></trkpt><trkpt lat="46.14249412789172" lon="12.677128746620879"><ele>257.0</ele><time>2026-03-22T07:33:59Z</time></trkpt><trkpt lat="46.142623219058194" lon="12.677061587291643"><ele>257.0</ele><time>2026-03-22T07:34:00Z</time></trkpt><trkpt lat="46.142749092617244" lon="12.677003044684383"><ele>256.5</ele><time>2026-03-22T07:34:01Z</time></trkpt><trkpt lat="46.14287100426842" lon="12.67694582714954"><ele>256.0</ele><time>2026-03-22T07:34:02Z</time></trkpt><trkpt lat="46.14298892042994" lon="12.676887238608018"><ele>255.5</ele><time>2026-03-22T07:34:03Z</time></trkpt><trkpt lat="46.1430966153028" lon="12.676828079968168"><ele>255.0</ele><time>2026-03-22T07:34:04Z</time></trkpt><trkpt lat="46.14320136030183" lon="12.67676735710331"><ele>255.4</ele><time>2026-03-22T07:34:05Z</time></trkpt><trkpt lat="46.14329915499714" lon="12.67671259870241"><ele>255.8</ele><time>2026-03-22T07:34:06Z</time></trkpt><trkpt lat="46.14339007323403" lon="12.6766562767124"><ele>256.2</ele><time>2026-03-22T07:34:07Z</time></trkpt><trkpt lat="46.14346565362106" lon="12.676603331766183"><ele>256.6</ele><time>2026-03-22T07:34:08Z</time></trkpt><trkpt lat="46.143542605700276" lon="12.676549723906438"><ele>257.0</ele><time>2026-03-22T07:34:09Z</time></trkpt><trkpt lat="46.14362003078371" lon="12.676500775529563"><ele>257.0</ele><time>2026-03-22T07:34:10Z</time></trkpt><trkpt lat="46.143697355103065" lon="12.676460018415376"><ele>257.0</ele><time>2026-03-22T07:34:11Z</time></trkpt><trkpt lat="46.14377356201998" lon="12.67642223757821"><ele>257.0</ele><time>2026-03-22T07:34:12Z</time></trkpt><trkpt lat="46.14385170224809" lon="12.676385216978431"><ele>257.0</ele><time>2026-03-22T07:34:13Z</time></trkpt><trkpt lat="46.143914770043025" lon="12.676374432332501"><ele>257.0</ele><time>2026-03-22T07:34:14Z</time></trkpt><trkpt lat="46.14402180319723" lon="12.676459986552477"><ele>257.0</ele><time>2026-03-22T07:34:16Z</time></trkpt><trkpt lat="46.14406625523083" lon="12.676537821562789"><ele>257.2</ele><time>2026-03-22T07:34:17Z</time></trkpt><trkpt lat="46.14411631601818" lon="12.676603209616175"><ele>257.4</ele><time>2026-03-22T07:34:18Z</time></trkpt><trkpt lat="46.144192070854444" lon="12.676628299516361"><ele>257.6</ele><time>2026-03-22T07:34:19Z</time></trkpt><trkpt lat="46.144277456899495" lon="12.67661031389918"><ele>257.8</ele><time>2026-03-22T07:34:20Z</time></trkpt><trkpt lat="46.14437165021118" lon="12.676547967140559"><ele>258.0</ele><time>2026-03-22T07:34:21Z</time></trkpt><trkpt lat="46.144466132432335" lon="12.676450737949255"><ele>258.0</ele><time>2026-03-22T07:34:21.999Z</time></trkpt><trkpt lat="46.14454115784649" lon="12.676352564891344"><ele>258.0</ele><time>2026-03-22T07:34:22.999Z</time></trkpt><trkpt lat="46.14460643120491" lon="12.676300231001536"><ele>258.0</ele><time>2026-03-22T07:34:23.999Z</time></trkpt><trkpt lat="46.144690119595644" lon="12.676289434828373"><ele>258.0</ele><time>2026-03-22T07:34:24.999Z</time></trkpt><trkpt lat="46.14477789980029" lon="12.676314220478666"><ele>258.0</ele><time>2026-03-22T07:34:25.999Z</time></trkpt><trkpt lat="46.14487642874451" lon="12.676378169337646"><ele>258.2</ele><time>2026-03-22T07:34:26.999Z</time></trkpt><trkpt lat="46.14498218331989" lon="12.676470229826213"><ele>258.4</ele><time>2026-03-22T07:34:27.999Z</time></trkpt><trkpt lat="46.14506145998328" lon="12.676524671600625"><ele>258.59999999999997</ele><time>2026-03-22T07:34:28.999Z</time></trkpt><trkpt lat="46.14514166267894" lon="12.676541847062175"><ele>258.8</ele><time>2026-03-22T07:34:29.999Z</time></trkpt><trkpt lat="46.145224782651745" lon="12.676519045135608"><ele>259.0</ele><time>2026-03-22T07:34:30.999Z</time></trkpt><trkpt lat="46.14531303996958" lon="12.676472173441658"><ele>259.0</ele><time>2026-03-22T07:34:31.999Z</time></trkpt><trkpt lat="46.145396634037844" lon="12.676399598893147"><ele>259.0</ele><time>2026-03-22T07:34:32.999Z</time></trkpt><trkpt lat="46.14548320224181" lon="12.676282765885489"><ele>259.0</ele><time>2026-03-22T07:34:33.999Z</time></trkpt><trkpt lat="46.145563319520704" lon="12.676126127271818"><ele>259.0</ele><time>2026-03-22T07:34:34.999Z</time></trkpt><trkpt lat="46.1456293375234" lon="12.675937338058223"><ele>259.0</ele><time>2026-03-22T07:34:35.999Z</time></trkpt><trkpt lat="46.145683473607015" lon="12.67577490938487"><ele>259.0</ele><time>2026-03-22T07:34:36.999Z</time></trkpt><trkpt lat="46.1457388899058" lon="12.675671809257917"><ele>259.0</ele><time>2026-03-22T07:34:37.999Z</time></trkpt><trkpt lat="46.14580011421685" lon="12.675619937747875"><ele>259.0</ele><time>2026-03-22T07:34:38.999Z</time></trkpt><trkpt lat="46.14587421540616" lon="12.675576887911717"><ele>259.0</ele><time>2026-03-22T07:34:39.999Z</time></trkpt><trkpt lat="46.14596547340991" lon="12.67552751723346"><ele>259.0</ele><time>2026-03-22T07:34:40.999Z</time></trkpt><trkpt lat="46.14605386065126" lon="12.675505025989771"><ele>259.0</ele><time>2026-03-22T07:34:41.999Z</time></trkpt><trkpt lat="46.146128247056375" lon="12.675494932218887"><ele>259.0</ele><time>2026-03-22T07:34:42.999Z</time></trkpt><trkpt lat="46.146190173037816" lon="12.675459460637622"><ele>259.0</ele><time>2026-03-22T07:34:43.999Z</time></trkpt><trkpt lat="46.146241207802554" lon="12.675389546773776"><ele>259.0</ele><time>2026-03-22T07:34:44.999Z</time></trkpt><trkpt lat="46.14629821957399" lon="12.675288109951289"><ele>259.0</ele><time>2026-03-22T07:34:45.999Z</time></trkpt><trkpt lat="46.14634034543972" lon="12.675176731956318"><ele>258.59999999999997</ele><time>2026-03-22T07:34:46.999Z</time></trkpt><trkpt lat="46.1463712347939" lon="12.675005426492922"><ele>258.2</ele><time>2026-03-22T07:34:47.999Z</time></trkpt><trkpt lat="46.146404216070685" lon="12.674833339774993"><ele>257.79999999999995</ele><time>2026-03-22T07:34:48.999Z</time></trkpt><trkpt lat="46.146424978209055" lon="12.674697464524739"><ele>257.4</ele><time>2026-03-22T07:34:49.999Z</time></trkpt><trkpt lat="46.146427235104305" lon="12.674548085072997"><ele>257.0</ele><time>2026-03-22T07:34:50.999Z</time></trkpt><trkpt lat="46.14642212235504" lon="12.674393464550858"><ele>257.6666666666667</ele><time>2026-03-22T07:34:51.999Z</time></trkpt><trkpt lat="46.14642144441208" lon="12.674261283774202"><ele>258.33333333333337</ele><time>2026-03-22T07:34:52.999Z</time></trkpt><trkpt lat="46.14644718972288" lon="12.67413859968373"><ele>259.0</ele><time>2026-03-22T07:34:53.999Z</time></trkpt><trkpt lat="46.14648624257176" lon="12.674014425433807"><ele>259.6666666666667</ele><time>2026-03-22T07:34:54.999Z</time></trkpt><trkpt lat="46.146540170863574" lon="12.673918911549535"><ele>260.3333333333333</ele><time>2026-03-22T07:34:55.999Z</time></trkpt><trkpt lat="46.146605835744666" lon="12.673846003262064"><ele>261.0</ele><time>2026-03-22T07:34:56.999Z</time></trkpt><trkpt lat="46.146694070057514" lon="12.673777739514328"><ele>261.0</ele><time>2026-03-22T07:34:57.999Z</time></trkpt><trkpt lat="46.1468098185613" lon="12.673716048419891"><ele>261.0</ele><time>2026-03-22T07:34:58.999Z</time></trkpt><trkpt lat="46.1469558114814" lon="12.67365502743221"><ele>261.0</ele><time>2026-03-22T07:34:59.999Z</time></trkpt><trkpt lat="46.14710192128175" lon="12.67358202297054"><ele>261.0</ele><time>2026-03-22T07:35:01Z</time></trkpt><trkpt lat="46.14724638705895" lon="12.673484635765274"><ele>260.6666666666667</ele><time>2026-03-22T07:35:02Z</time></trkpt><trkpt lat="46.14740072639195" lon="12.673368251719547"><ele>260.33333333333337</ele><time>2026-03-22T07:35:03Z</time></trkpt><trkpt lat="46.147563127987425" lon="12.673239595173266"><ele>260.0</ele><time>2026-03-22T07:35:04Z</time></trkpt><trkpt lat="46.14772139517858" lon="12.673112487551538"><ele>260.0</ele><time>2026-03-22T07:35:05Z</time></trkpt><trkpt lat="46.147855549819134" lon="12.673001695736824"><ele>260.0</ele><time>2026-03-22T07:35:06Z</time></trkpt><trkpt lat="46.147979665820955" lon="12.672908689424547"><ele>260.0</ele><time>2026-03-22T07:35:07Z</time></trkpt><trkpt lat="46.14809584841687" lon="12.672843598729067"><ele>260.0</ele><time>2026-03-22T07:35:08Z</time></trkpt><trkpt lat="46.148205735306085" lon="12.672802028220456"><ele>260.75</ele><time>2026-03-22T07:35:09Z</time></trkpt><trkpt lat="46.148335443687685" lon="12.672749893066984"><ele>261.5</ele><time>2026-03-22T07:35:10Z</time></trkpt><trkpt lat="46.148465674508884" lon="12.672706529695887"><ele>262.25</ele><time>2026-03-22T07:35:11Z</time></trkpt><trkpt lat="46.14861009108199" lon="12.67265065678068"><ele>263.0</ele><time>2026-03-22T07:35:12Z</time></trkpt><trkpt lat="46.14876771895508" lon="12.672584643372755"><ele>263.0</ele><time>2026-03-22T07:35:13Z</time></trkpt><trkpt lat="46.14890951959018" lon="12.672506926913869"><ele>263.0</ele><time>2026-03-22T07:35:14Z</time></trkpt><trkpt lat="46.149048053719966" lon="12.672418856746846"><ele>263.0</ele><time>2026-03-22T07:35:15Z</time></trkpt><trkpt lat="46.14919029221263" lon="12.672318602219164"><ele>263.6666666666667</ele><time>2026-03-22T07:35:16Z</time></trkpt><trkpt lat="46.149344471791494" lon="12.672187600705847"><ele>264.3333333333333</ele><time>2026-03-22T07:35:17Z</time></trkpt><trkpt lat="46.149508510556984" lon="12.672041842221452"><ele>265.0</ele><time>2026-03-22T07:35:18Z</time></trkpt><trkpt lat="46.14967877561344" lon="12.671889612716301"><ele>265.0</ele><time>2026-03-22T07:35:19Z</time></trkpt><trkpt lat="46.14984988988296" lon="12.671730566324909"><ele>265.0</ele><time>2026-03-22T07:35:20Z</time></trkpt><trkpt lat="46.14999643534579" lon="12.671604864521392"><ele>265.0</ele><time>2026-03-22T07:35:21Z</time></trkpt><trkpt lat="46.15013713968119" lon="12.671491014650801"><ele>264.66666666666663</ele><time>2026-03-22T07:35:22Z</time></trkpt><trkpt lat="46.15027721732124" lon="12.671390410201719"><ele>264.3333333333333</ele><time>2026-03-22T07:35:23Z</time></trkpt><trkpt lat="46.15042286910233" lon="12.6712940980885"><ele>264.0</ele><time>2026-03-22T07:35:24Z</time></trkpt><trkpt lat="46.150568692611635" lon="12.671206080380665"><ele>264.0</ele><time>2026-03-22T07:35:25Z</time></trkpt><trkpt lat="46.15071050199347" lon="12.67112466024484"><ele>264.0</ele><time>2026-03-22T07:35:26Z</time></trkpt><trkpt lat="46.15083744716347" lon="12.671049520474003"><ele>264.0</ele><time>2026-03-22T07:35:27Z</time></trkpt><trkpt lat="46.150960525561935" lon="12.670984920064436"><ele>264.0</ele><time>2026-03-22T07:35:28Z</time></trkpt><trkpt lat="46.15107381711277" lon="12.670930549135871"><ele>264.2</ele><time>2026-03-22T07:35:29Z</time></trkpt><trkpt lat="46.151178754815405" lon="12.670886729870803"><ele>264.4</ele><time>2026-03-22T07:35:30Z</time></trkpt><trkpt lat="46.15127303500423" lon="12.670852946794723"><ele>264.6</ele><time>2026-03-22T07:35:31Z</time></trkpt><trkpt lat="46.15137025721953" lon="12.670817648616788"><ele>264.8</ele><time>2026-03-22T07:35:32Z</time></trkpt><trkpt lat="46.15147610007313" lon="12.670779881354902"><ele>265.0</ele><time>2026-03-22T07:35:33Z</time></trkpt><trkpt lat="46.15156459310271" lon="12.670749088304813"><ele>266.0</ele><time>2026-03-22T07:35:34Z</time></trkpt><trkpt lat="46.15163804810863" lon="12.670705952696434"><ele>267.0</ele><time>2026-03-22T07:35:35Z</time></trkpt><trkpt lat="46.15170267793377" lon="12.670651974457597"><ele>268.0</ele><time>2026-03-22T07:35:36Z</time></trkpt><trkpt lat="46.151773813526574" lon="12.670584162025918"><ele>269.0</ele><time>2026-03-22T07:35:37Z</time></trkpt><trkpt lat="46.151828508108835" lon="12.670536900734858"><ele>270.0</ele><time>2026-03-22T07:35:38Z</time></trkpt><trkpt lat="46.15194400416968" lon="12.67047240778801"><ele>271.0</ele><time>2026-03-22T07:35:40Z</time></trkpt><trkpt lat="46.152001940155394" lon="12.670435971373488"><ele>271.0</ele><time>2026-03-22T07:35:41.022Z</time></trkpt><trkpt lat="46.15206853241862" lon="12.670388822286522"><ele>271.0</ele><time>2026-03-22T07:35:42.023Z</time></trkpt><trkpt lat="46.152139541825306" lon="12.670338532728863"><ele>271.0</ele><time>2026-03-22T07:35:43.022Z</time></trkpt><trkpt lat="46.152200952419776" lon="12.670296618944796"><ele>271.0</ele><time>2026-03-22T07:35:44.021Z</time></trkpt><trkpt lat="46.152261517994994" lon="12.670255924520841"><ele>271.0</ele><time>2026-03-22T07:35:45.026Z</time></trkpt><trkpt lat="46.15236646446186" lon="12.67017848829566"><ele>271.0</ele><time>2026-03-22T07:35:47Z</time></trkpt><trkpt lat="46.15244105576376" lon="12.670104684548342"><ele>271.3333333333333</ele><time>2026-03-22T07:35:48Z</time></trkpt><trkpt lat="46.152513069872136" lon="12.670041525935595"><ele>271.66666666666663</ele><time>2026-03-22T07:35:49Z</time></trkpt><trkpt lat="46.15258639782571" lon="12.669996398747015"><ele>272.0</ele><time>2026-03-22T07:35:50Z</time></trkpt><trkpt lat="46.15266620791539" lon="12.669967793063247"><ele>272.3333333333333</ele><time>2026-03-22T07:35:51Z</time></trkpt><trkpt lat="46.15275236176069" lon="12.669930799570485"><ele>272.6666666666667</ele><time>2026-03-22T07:35:52Z</time></trkpt><trkpt lat="46.15283094687985" lon="12.669875253741145"><ele>273.0</ele><time>2026-03-22T07:35:53Z</time></trkpt><trkpt lat="46.1529119569764" lon="12.66981152582192"><ele>273.0</ele><time>2026-03-22T07:35:54Z</time></trkpt><trkpt lat="46.15300482154717" lon="12.669747987923323"><ele>273.0</ele><time>2026-03-22T07:35:55Z</time></trkpt><trkpt lat="46.153096779293584" lon="12.66971260763649"><ele>273.0</ele><time>2026-03-22T07:35:56Z</time></trkpt><trkpt lat="46.153184953104194" lon="12.669670868431638"><ele>273.0</ele><time>2026-03-22T07:35:57Z</time></trkpt><trkpt lat="46.15328376197323" lon="12.669601342245096"><ele>273.0</ele><time>2026-03-22T07:35:58Z</time></trkpt><trkpt lat="46.15337320217683" lon="12.669512780913266"><ele>273.6</ele><time>2026-03-22T07:35:59Z</time></trkpt><trkpt lat="46.153452198928456" lon="12.669414376709023"><ele>274.20000000000005</ele><time>2026-03-22T07:36:00Z</time></trkpt><trkpt lat="46.15353767640089" lon="12.66931438619219"><ele>274.8</ele><time>2026-03-22T07:36:01Z</time></trkpt><trkpt lat="46.15363363094395" lon="12.669217267043841"><ele>275.40000000000003</ele><time>2026-03-22T07:36:02Z</time></trkpt><trkpt lat="46.153729297681984" lon="12.669133559669318"><ele>276.0</ele><time>2026-03-22T07:36:03Z</time></trkpt><trkpt lat="46.15382413902287" lon="12.669055239437393"><ele>276.0</ele><time>2026-03-22T07:36:04Z</time></trkpt><trkpt lat="46.15392268178559" lon="12.668987851179928"><ele>276.0</ele><time>2026-03-22T07:36:05Z</time></trkpt><trkpt lat="46.154018037980826" lon="12.668927375244294"><ele>276.0</ele><time>2026-03-22T07:36:06Z</time></trkpt><trkpt lat="46.15411024128602" lon="12.668872924687195"><ele>276.0</ele><time>2026-03-22T07:36:07Z</time></trkpt><trkpt lat="46.154202715579196" lon="12.66880842457534"><ele>276.0</ele><time>2026-03-22T07:36:08Z</time></trkpt><trkpt lat="46.15428780629159" lon="12.668755773705962"><ele>276.6</ele><time>2026-03-22T07:36:09Z</time></trkpt><trkpt lat="46.15438314894241" lon="12.66870496109397"><ele>277.20000000000005</ele><time>2026-03-22T07:36:10Z</time></trkpt><trkpt lat="46.15447560609566" lon="12.668651398777234"><ele>277.79999999999995</ele><time>2026-03-22T07:36:11Z</time></trkpt><trkpt lat="46.15456127155142" lon="12.6685995869643"><ele>278.4</ele><time>2026-03-22T07:36:12Z</time></trkpt><trkpt lat="46.15465126392512" lon="12.668552706397563"><ele>279.0</ele><time>2026-03-22T07:36:13Z</time></trkpt><trkpt lat="46.15474034872824" lon="12.668503167621928"><ele>279.0</ele><time>2026-03-22T07:36:14Z</time></trkpt><trkpt lat="46.15482489061174" lon="12.668462746814246"><ele>279.0</ele><time>2026-03-22T07:36:15Z</time></trkpt><trkpt lat="46.154914896480754" lon="12.668417724838017"><ele>279.0</ele><time>2026-03-22T07:36:16Z</time></trkpt><trkpt lat="46.15500508657374" lon="12.668370238138689"><ele>279.0</ele><time>2026-03-22T07:36:17Z</time></trkpt><trkpt lat="46.15509491604183" lon="12.668314203051533"><ele>279.0</ele><time>2026-03-22T07:36:18Z</time></trkpt><trkpt lat="46.15517903468597" lon="12.668242820945684"><ele>277.6666666666667</ele><time>2026-03-22T07:36:19Z</time></trkpt><trkpt lat="46.15526104369821" lon="12.668176555220711"><ele>276.3333333333333</ele><time>2026-03-22T07:36:20Z</time></trkpt><trkpt lat="46.15533966204979" lon="12.668131942716634"><ele>275.0</ele><time>2026-03-22T07:36:21Z</time></trkpt><trkpt lat="46.15542576102094" lon="12.66809727832509"><ele>273.66666666666663</ele><time>2026-03-22T07:36:22Z</time></trkpt><trkpt lat="46.155506125792044" lon="12.668056596499843"><ele>272.3333333333333</ele><time>2026-03-22T07:36:23Z</time></trkpt><trkpt lat="46.15558898834477" lon="12.668010941223038"><ele>271.0</ele><time>2026-03-22T07:36:24Z</time></trkpt><trkpt lat="46.155679010434206" lon="12.667960732861683"><ele>270.6</ele><time>2026-03-22T07:36:25Z</time></trkpt><trkpt lat="46.15576482451265" lon="12.667906540249952"><ele>270.20000000000005</ele><time>2026-03-22T07:36:26Z</time></trkpt><trkpt lat="46.15585571621901" lon="12.667851276366656"><ele>269.79999999999995</ele><time>2026-03-22T07:36:27Z</time></trkpt><trkpt lat="46.15595188180657" lon="12.667801025312688"><ele>269.4</ele><time>2026-03-22T07:36:28Z</time></trkpt><trkpt lat="46.15605142519206" lon="12.66774451143148"><ele>269.0</ele><time>2026-03-22T07:36:29Z</time></trkpt><trkpt lat="46.156159685802336" lon="12.667679251846396"><ele>270.25</ele><time>2026-03-22T07:36:30Z</time></trkpt><trkpt lat="46.15627568392161" lon="12.667620783619741"><ele>271.5</ele><time>2026-03-22T07:36:31Z</time></trkpt><trkpt lat="46.15637772734043" lon="12.667558048624485"><ele>272.75</ele><time>2026-03-22T07:36:32Z</time></trkpt><trkpt lat="46.156480344547276" lon="12.667498011312215"><ele>274.0</ele><time>2026-03-22T07:36:33Z</time></trkpt><trkpt lat="46.15658615325319" lon="12.667431773898368"><ele>274.0</ele><time>2026-03-22T07:36:34Z</time></trkpt><trkpt lat="46.156685962166605" lon="12.667352408561456"><ele>274.0</ele><time>2026-03-22T07:36:35Z</time></trkpt><trkpt lat="46.15679310542492" lon="12.66728251076904"><ele>274.0</ele><time>2026-03-22T07:36:36Z</time></trkpt><trkpt lat="46.15690864470989" lon="12.667236916170307"><ele>274.0</ele><time>2026-03-22T07:36:37Z</time></trkpt><trkpt lat="46.157017652008726" lon="12.66719719274486"><ele>274.0</ele><time>2026-03-22T07:36:38Z</time></trkpt><trkpt lat="46.15713213099861" lon="12.667125967165383"><ele>274.0</ele><time>2026-03-22T07:36:38.999Z</time></trkpt><trkpt lat="46.157244218175386" lon="12.667024129621707"><ele>274.0</ele><time>2026-03-22T07:36:39.999Z</time></trkpt><trkpt lat="46.15733252907657" lon="12.666941254917564"><ele>274.0</ele><time>2026-03-22T07:36:40.999Z</time></trkpt><trkpt lat="46.15740721033752" lon="12.666862166561076"><ele>275.4</ele><time>2026-03-22T07:36:41.999Z</time></trkpt><trkpt lat="46.157466809233846" lon="12.66677569096716"><ele>276.79999999999995</ele><time>2026-03-22T07:36:42.999Z</time></trkpt><trkpt lat="46.15753651009789" lon="12.66667912469351"><ele>278.20000000000005</ele><time>2026-03-22T07:36:43.999Z</time></trkpt><trkpt lat="46.15761498246472" lon="12.666598716332212"><ele>279.6</ele><time>2026-03-22T07:36:44.999Z</time></trkpt><trkpt lat="46.15768235808313" lon="12.666509461598494"><ele>281.0</ele><time>2026-03-22T07:36:45.999Z</time></trkpt><trkpt lat="46.157744298576674" lon="12.666372655548768"><ele>281.0</ele><time>2026-03-22T07:36:46.999Z</time></trkpt><trkpt lat="46.15780034611567" lon="12.666196315663912"><ele>281.0</ele><time>2026-03-22T07:36:47.999Z</time></trkpt><trkpt lat="46.1578482264943" lon="12.666049237588716"><ele>281.0</ele><time>2026-03-22T07:36:48.999Z</time></trkpt><trkpt lat="46.157899726338016" lon="12.665933255464934"><ele>281.0</ele><time>2026-03-22T07:36:49.999Z</time></trkpt><trkpt lat="46.15799745270691" lon="12.665838082197633"><ele>281.8</ele><time>2026-03-22T07:36:51.999Z</time></trkpt><trkpt lat="46.15808263516272" lon="12.665807019159523"><ele>282.6</ele><time>2026-03-22T07:36:52.999Z</time></trkpt><trkpt lat="46.15817824601033" lon="12.665780871398631"><ele>283.4</ele><time>2026-03-22T07:36:53.999Z</time></trkpt><trkpt lat="46.15827676612694" lon="12.665741858299844"><ele>284.2</ele><time>2026-03-22T07:36:54.999Z</time></trkpt><trkpt lat="46.158376729333774" lon="12.6656814337289"><ele>285.0</ele><time>2026-03-22T07:36:55.999Z</time></trkpt><trkpt lat="46.158454252860196" lon="12.66564026228516"><ele>285.0</ele><time>2026-03-22T07:36:56.999Z</time></trkpt><trkpt lat="46.15852929550766" lon="12.665606050847579"><ele>285.0</ele><time>2026-03-22T07:36:57.999Z</time></trkpt><trkpt lat="46.15860489314145" lon="12.66560420308085"><ele>285.0</ele><time>2026-03-22T07:36:58.999Z</time></trkpt><trkpt lat="46.158693165283324" lon="12.665628369758057"><ele>285.0</ele><time>2026-03-22T07:36:59.999Z</time></trkpt><trkpt lat="46.15878952904273" lon="12.665689127682572"><ele>285.0</ele><time>2026-03-22T07:37:00.999Z</time></trkpt><trkpt lat="46.15889567107863" lon="12.665766080812702"><ele>285.0</ele><time>2026-03-22T07:37:01.999Z</time></trkpt><trkpt lat="46.15899744253597" lon="12.665834234644116"><ele>285.0</ele><time>2026-03-22T07:37:02.999Z</time></trkpt><trkpt lat="46.15910199957225" lon="12.665891503468302"><ele>285.0</ele><time>2026-03-22T07:37:03.999Z</time></trkpt><trkpt lat="46.159213489983756" lon="12.665916380223734"><ele>285.0</ele><time>2026-03-22T07:37:04.999Z</time></trkpt><trkpt lat="46.159344304962445" lon="12.665908239255758"><ele>282.75</ele><time>2026-03-22T07:37:05.999Z</time></trkpt><trkpt lat="46.15949601089682" lon="12.665872266130334"><ele>280.5</ele><time>2026-03-22T07:37:07Z</time></trkpt><trkpt lat="46.15964356578992" lon="12.665833595141809"><ele>278.25</ele><time>2026-03-22T07:37:08Z</time></trkpt><trkpt lat="46.159781079722826" lon="12.665848032497816"><ele>276.0</ele><time>2026-03-22T07:37:09Z</time></trkpt><trkpt lat="46.15992436195345" lon="12.665834992089714"><ele>275.6666666666667</ele><time>2026-03-22T07:37:10Z</time></trkpt><trkpt lat="46.16006373057376" lon="12.665828199556039"><ele>275.33333333333337</ele><time>2026-03-22T07:37:11Z</time></trkpt><trkpt lat="46.16022460704098" lon="12.665817468139352"><ele>275.0</ele><time>2026-03-22T07:37:12Z</time></trkpt><trkpt lat="46.16038749017393" lon="12.665803063707193"><ele>275.0</ele><time>2026-03-22T07:37:13Z</time></trkpt><trkpt lat="46.160531862976185" lon="12.665772682551427"><ele>275.0</ele><time>2026-03-22T07:37:14Z</time></trkpt><trkpt lat="46.16065909605708" lon="12.665766847236592"><ele>275.0</ele><time>2026-03-22T07:37:15Z</time></trkpt><trkpt lat="46.16077029847616" lon="12.665766894914526"><ele>275.0</ele><time>2026-03-22T07:37:16Z</time></trkpt><trkpt lat="46.16087368306002" lon="12.665756835558918"><ele>275.25</ele><time>2026-03-22T07:37:17Z</time></trkpt><trkpt lat="46.16099738429407" lon="12.665738412027048"><ele>275.5</ele><time>2026-03-22T07:37:18Z</time></trkpt><trkpt lat="46.16113953146505" lon="12.665708624846909"><ele>275.75</ele><time>2026-03-22T07:37:19Z</time></trkpt><trkpt lat="46.16128440084189" lon="12.665642712271138"><ele>276.0</ele><time>2026-03-22T07:37:20Z</time></trkpt><trkpt lat="46.161423702178396" lon="12.665562751805261"><ele>276.0</ele><time>2026-03-22T07:37:21Z</time></trkpt><trkpt lat="46.16156614119786" lon="12.665508678152307"><ele>276.0</ele><time>2026-03-22T07:37:22Z</time></trkpt><trkpt lat="46.16171623766017" lon="12.66544187332097"><ele>276.0</ele><time>2026-03-22T07:37:23Z</time></trkpt><trkpt lat="46.16186127253164" lon="12.6653928440553"><ele>276.0</ele><time>2026-03-22T07:37:24Z</time></trkpt><trkpt lat="46.16199141401951" lon="12.665360828158189"><ele>276.0</ele><time>2026-03-22T07:37:25Z</time></trkpt><trkpt lat="46.162134331868764" lon="12.665305842070069"><ele>276.0</ele><time>2026-03-22T07:37:26Z</time></trkpt><trkpt lat="46.1622727808157" lon="12.665246882787192"><ele>276.0</ele><time>2026-03-22T07:37:27Z</time></trkpt><trkpt lat="46.16239841261305" lon="12.665237428992217"><ele>276.25</ele><time>2026-03-22T07:37:28Z</time></trkpt><trkpt lat="46.16250882604432" lon="12.665204200158687"><ele>276.5</ele><time>2026-03-22T07:37:29Z</time></trkpt><trkpt lat="46.162617156236365" lon="12.66514896442506"><ele>276.75</ele><time>2026-03-22T07:37:30Z</time></trkpt><trkpt lat="46.162747398875275" lon="12.665087921106457"><ele>277.0</ele><time>2026-03-22T07:37:31Z</time></trkpt><trkpt lat="46.16288465192217" lon="12.665012399664432"><ele>277.0</ele><time>2026-03-22T07:37:32Z</time></trkpt><trkpt lat="46.16300535119987" lon="12.66495602596919"><ele>277.0</ele><time>2026-03-22T07:37:33Z</time></trkpt><trkpt lat="46.16310779099129" lon="12.664915973015374"><ele>277.0</ele><time>2026-03-22T07:37:34Z</time></trkpt><trkpt lat="46.16321535582269" lon="12.664891842132322"><ele>277.0</ele><time>2026-03-22T07:37:35Z</time></trkpt><trkpt lat="46.163317266591605" lon="12.664840774996442"><ele>277.4</ele><time>2026-03-22T07:37:36Z</time></trkpt><trkpt lat="46.163427098607414" lon="12.66480142170313"><ele>277.79999999999995</ele><time>2026-03-22T07:37:37Z</time></trkpt><trkpt lat="46.163535382439484" lon="12.66476516558339"><ele>278.2</ele><time>2026-03-22T07:37:38Z</time></trkpt><trkpt lat="46.163640069539035" lon="12.664715046040076"><ele>278.59999999999997</ele><time>2026-03-22T07:37:39Z</time></trkpt><trkpt lat="46.163741872550794" lon="12.664678194233137"><ele>279.0</ele><time>2026-03-22T07:37:40Z</time></trkpt><trkpt lat="46.163815615996924" lon="12.664650062196376"><ele>279.0</ele><time>2026-03-22T07:37:41Z</time></trkpt><trkpt lat="46.16387993257213" lon="12.664628684623912"><ele>279.0</ele><time>2026-03-22T07:37:42Z</time></trkpt><trkpt lat="46.163967488446254" lon="12.664546680884229"><ele>279.0</ele><time>2026-03-22T07:37:44Z</time></trkpt><trkpt lat="46.163963781758845" lon="12.664406731017394"><ele>279.0</ele><time>2026-03-22T07:37:45Z</time></trkpt><trkpt lat="46.163973580136435" lon="12.66426651033435"><ele>279.0</ele><time>2026-03-22T07:37:46Z</time></trkpt><trkpt lat="46.16396314111287" lon="12.664103523443176"><ele>280.4</ele><time>2026-03-22T07:37:47Z</time></trkpt><trkpt lat="46.16394603833164" lon="12.663930174354668"><ele>281.79999999999995</ele><time>2026-03-22T07:37:48Z</time></trkpt><trkpt lat="46.163928042403185" lon="12.663806988327654"><ele>283.20000000000005</ele><time>2026-03-22T07:37:49Z</time></trkpt><trkpt lat="46.16392713185206" lon="12.663704709793896"><ele>284.6</ele><time>2026-03-22T07:37:50Z</time></trkpt><trkpt lat="46.163891292718354" lon="12.663618754461352"><ele>286.0</ele><time>2026-03-22T07:37:51Z</time></trkpt><trkpt lat="46.16377654276549" lon="12.663559349624975"><ele>286.0</ele><time>2026-03-22T07:37:53Z</time></trkpt><trkpt lat="46.1636926443784" lon="12.663570053931869"><ele>286.0</ele><time>2026-03-22T07:37:54Z</time></trkpt><trkpt lat="46.16359522948404" lon="12.663600883576548"><ele>286.0</ele><time>2026-03-22T07:37:55Z</time></trkpt><trkpt lat="46.16349804605858" lon="12.663652086950705"><ele>286.0</ele><time>2026-03-22T07:37:56Z</time></trkpt><trkpt lat="46.16339417583133" lon="12.663716579123308"><ele>286.0</ele><time>2026-03-22T07:37:57Z</time></trkpt><trkpt lat="46.16331052073133" lon="12.663776647751073"><ele>286.0</ele><time>2026-03-22T07:37:58Z</time></trkpt><trkpt lat="46.163226839618176" lon="12.663803980630904"><ele>286.0</ele><time>2026-03-22T07:37:59Z</time></trkpt><trkpt lat="46.163114362191465" lon="12.663812339926922"><ele>286.0</ele><time>2026-03-22T07:38:00Z</time></trkpt><trkpt lat="46.16296965078802" lon="12.663821547789862"><ele>286.0</ele><time>2026-03-22T07:38:01Z</time></trkpt><trkpt lat="46.1628482237648" lon="12.66383028052834"><ele>286.66666666666663</ele><time>2026-03-22T07:38:02Z</time></trkpt><trkpt lat="46.16275761683792" lon="12.66383175552567"><ele>287.3333333333333</ele><time>2026-03-22T07:38:03Z</time></trkpt><trkpt lat="46.162675069859375" lon="12.66383566218758"><ele>288.0</ele><time>2026-03-22T07:38:04Z</time></trkpt><trkpt lat="46.16259258707719" lon="12.663841400324145"><ele>288.6666666666667</ele><time>2026-03-22T07:38:05Z</time></trkpt><trkpt lat="46.16249923745239" lon="12.663838651182731"><ele>289.33333333333337</ele><time>2026-03-22T07:38:06Z</time></trkpt><trkpt lat="46.16240150191038" lon="12.663818854678475"><ele>290.0</ele><time>2026-03-22T07:38:07Z</time></trkpt><trkpt lat="46.16230961585837" lon="12.663802791491754"><ele>291.25</ele><time>2026-03-22T07:38:08Z</time></trkpt><trkpt lat="46.162205839170255" lon="12.663800118034274"><ele>292.5</ele><time>2026-03-22T07:38:09Z</time></trkpt><trkpt lat="46.16206843051795" lon="12.6637974881656"><ele>293.75</ele><time>2026-03-22T07:38:10Z</time></trkpt><trkpt lat="46.161919370010246" lon="12.663804847253402"><ele>295.0</ele><time>2026-03-22T07:38:11Z</time></trkpt><trkpt lat="46.161746970639065" lon="12.663807320896316"><ele>295.0</ele><time>2026-03-22T07:38:12Z</time></trkpt><trkpt lat="46.161619110305445" lon="12.663813940447072"><ele>295.0</ele><time>2026-03-22T07:38:13Z</time></trkpt><trkpt lat="46.161516261255336" lon="12.66382007089383"><ele>295.0</ele><time>2026-03-22T07:38:14Z</time></trkpt><trkpt lat="46.161418800603954" lon="12.663814619490386"><ele>295.0</ele><time>2026-03-22T07:38:15Z</time></trkpt><trkpt lat="46.16131881046663" lon="12.663819852692834"><ele>295.0</ele><time>2026-03-22T07:38:16Z</time></trkpt><trkpt lat="46.16120829332376" lon="12.663851966997184"><ele>297.25</ele><time>2026-03-22T07:38:17Z</time></trkpt><trkpt lat="46.16106802898152" lon="12.663906461366134"><ele>299.5</ele><time>2026-03-22T07:38:18Z</time></trkpt><trkpt lat="46.160938959640255" lon="12.663950629394549"><ele>301.75</ele><time>2026-03-22T07:38:19Z</time></trkpt><trkpt lat="46.1608398156053" lon="12.66397873134707"><ele>304.0</ele><time>2026-03-22T07:38:20Z</time></trkpt><trkpt lat="46.1607560885952" lon="12.663980118039195"><ele>304.5</ele><time>2026-03-22T07:38:21Z</time></trkpt><trkpt lat="46.16068053167579" lon="12.66396761027562"><ele>305.0</ele><time>2026-03-22T07:38:22Z</time></trkpt><trkpt lat="46.16062084597003" lon="12.663909626355494"><ele>305.5</ele><time>2026-03-22T07:38:23Z</time></trkpt><trkpt lat="46.16054325004412" lon="12.66386871365203"><ele>306.0</ele><time>2026-03-22T07:38:24Z</time></trkpt><trkpt lat="46.160465220015546" lon="12.663775947698651"><ele>306.5</ele><time>2026-03-22T07:38:25Z</time></trkpt><trkpt lat="46.160403181461774" lon="12.663659496277837"><ele>307.0</ele><time>2026-03-22T07:38:26Z</time></trkpt><trkpt lat="46.160354094313625" lon="12.66350100396473"><ele>308.8</ele><time>2026-03-22T07:38:27Z</time></trkpt><trkpt lat="46.16030562117716" lon="12.663397627106384"><ele>310.6</ele><time>2026-03-22T07:38:28Z</time></trkpt><trkpt lat="46.160263498565286" lon="12.663320758251675"><ele>312.40000000000003</ele><time>2026-03-22T07:38:29Z</time></trkpt><trkpt lat="46.160194622497144" lon="12.663168566447398"><ele>314.2</ele><time>2026-03-22T07:38:31Z</time></trkpt><trkpt lat="46.16016556381113" lon="12.663026441228341"><ele>316.0</ele><time>2026-03-22T07:38:33Z</time></trkpt><trkpt lat="46.16016663872619" lon="12.662929755416354"><ele>316.0</ele><time>2026-03-22T07:38:35Z</time></trkpt><trkpt lat="46.1602632484953" lon="12.662835279507627"><ele>316.0</ele><time>2026-03-22T07:38:55.999Z</time></trkpt><trkpt lat="46.16038467371993" lon="12.662793899794194"><ele>316.0</ele><time>2026-03-22T07:38:57.999Z</time></trkpt><trkpt lat="46.160505434768275" lon="12.662737079308808"><ele>316.0</ele><time>2026-03-22T07:38:59.999Z</time></trkpt><trkpt lat="46.160572359057745" lon="12.662698330104408"><ele>316.0</ele><time>2026-03-22T07:39:00.999Z</time></trkpt><trkpt lat="46.16065023563297" lon="12.662687738776675"><ele>316.16666666666663</ele><time>2026-03-22T07:39:01.999Z</time></trkpt><trkpt lat="46.16072950969968" lon="12.662656876486523"><ele>316.3333333333333</ele><time>2026-03-22T07:39:02.999Z</time></trkpt><trkpt lat="46.160801240098024" lon="12.662625674939553"><ele>316.5</ele><time>2026-03-22T07:39:03.999Z</time></trkpt><trkpt lat="46.16087613855342" lon="12.6625938020828"><ele>316.6666666666667</ele><time>2026-03-22T07:39:04.999Z</time></trkpt><trkpt lat="46.16094930953449" lon="12.662562664376281"><ele>316.83333333333337</ele><time>2026-03-22T07:39:05.999Z</time></trkpt><trkpt lat="46.161022956295135" lon="12.662529214041099"><ele>317.0</ele><time>2026-03-22T07:39:06.999Z</time></trkpt><trkpt lat="46.16109727225942" lon="12.662493297323225"><ele>317.0</ele><time>2026-03-22T07:39:07.999Z</time></trkpt><trkpt lat="46.16116349572569" lon="12.66245992262039"><ele>317.0</ele><time>2026-03-22T07:39:08.999Z</time></trkpt><trkpt lat="46.16122444312812" lon="12.662429206876174"><ele>317.0</ele><time>2026-03-22T07:39:09.999Z</time></trkpt><trkpt lat="46.161280559600485" lon="12.66237762917646"><ele>317.0</ele><time>2026-03-22T07:39:10.999Z</time></trkpt><trkpt lat="46.16134700879909" lon="12.662374384207583"><ele>317.0</ele><time>2026-03-22T07:39:11.999Z</time></trkpt><trkpt lat="46.16141080153373" lon="12.662327239086283"><ele>317.0</ele><time>2026-03-22T07:39:13Z</time></trkpt><trkpt lat="46.16147747270018" lon="12.662298041174807"><ele>317.0</ele><time>2026-03-22T07:39:14Z</time></trkpt><trkpt lat="46.16154785129444" lon="12.662262586084557"><ele>317.33333333333337</ele><time>2026-03-22T07:39:15Z</time></trkpt><trkpt lat="46.16162030654166" lon="12.662223537050778"><ele>317.6666666666667</ele><time>2026-03-22T07:39:16Z</time></trkpt><trkpt lat="46.16169885577733" lon="12.662183008032443"><ele>318.0</ele><time>2026-03-22T07:39:17Z</time></trkpt><trkpt lat="46.161786189683575" lon="12.662161176236802"><ele>318.3333333333333</ele><time>2026-03-22T07:39:18Z</time></trkpt><trkpt lat="46.16187197781028" lon="12.66211734975596"><ele>318.66666666666663</ele><time>2026-03-22T07:39:19Z</time></trkpt><trkpt lat="46.16195749528812" lon="12.662049045378247"><ele>319.0</ele><time>2026-03-22T07:39:20Z</time></trkpt><trkpt lat="46.162048857854806" lon="12.662004116260944"><ele>319.0</ele><time>2026-03-22T07:39:21Z</time></trkpt><trkpt lat="46.16213284463396" lon="12.66193504101392"><ele>319.0</ele><time>2026-03-22T07:39:22Z</time></trkpt><trkpt lat="46.1622202360862" lon="12.661864255736594"><ele>319.0</ele><time>2026-03-22T07:39:23Z</time></trkpt><trkpt lat="46.162308167799374" lon="12.66178881290399"><ele>319.0</ele><time>2026-03-22T07:39:24Z</time></trkpt><trkpt lat="46.16239745049447" lon="12.661711061085606"><ele>319.0</ele><time>2026-03-22T07:39:25Z</time></trkpt><trkpt lat="46.162487298655954" lon="12.661631095188485"><ele>319.0</ele><time>2026-03-22T07:39:26Z</time></trkpt><trkpt lat="46.162580505932496" lon="12.661553350951268"><ele>319.0</ele><time>2026-03-22T07:39:27Z</time></trkpt><trkpt lat="46.16267573434567" lon="12.66147884953222"><ele>319.0</ele><time>2026-03-22T07:39:28Z</time></trkpt><trkpt lat="46.162768454272154" lon="12.661412999712581"><ele>319.0</ele><time>2026-03-22T07:39:29Z</time></trkpt><trkpt lat="46.16285090247049" lon="12.66135627687245"><ele>319.0</ele><time>2026-03-22T07:39:30Z</time></trkpt><trkpt lat="46.16292742747336" lon="12.661304101627557"><ele>319.0</ele><time>2026-03-22T07:39:31Z</time></trkpt><trkpt lat="46.16300684821903" lon="12.661279635656001"><ele>319.0</ele><time>2026-03-22T07:39:32Z</time></trkpt><trkpt lat="46.16306388023764" lon="12.661220401646172"><ele>319.0</ele><time>2026-03-22T07:39:33Z</time></trkpt><trkpt lat="46.16311431821907" lon="12.66116485697277"><ele>319.0</ele><time>2026-03-22T07:39:34Z</time></trkpt><trkpt lat="46.16310689525513" lon="12.660992465636504"><ele>319.0</ele><time>2026-03-22T07:39:35Z</time></trkpt><trkpt lat="46.16312335841846" lon="12.660884452594823"><ele>319.0</ele><time>2026-03-22T07:39:36Z</time></trkpt><trkpt lat="46.163135629799385" lon="12.66077014079915"><ele>319.16666666666663</ele><time>2026-03-22T07:39:37Z</time></trkpt><trkpt lat="46.163143108284515" lon="12.660647991881248"><ele>319.3333333333333</ele><time>2026-03-22T07:39:38Z</time></trkpt><trkpt lat="46.16315677113073" lon="12.660519747202711"><ele>319.5</ele><time>2026-03-22T07:39:39Z</time></trkpt><trkpt lat="46.16317546948954" lon="12.660391027923671"><ele>319.6666666666667</ele><time>2026-03-22T07:39:40Z</time></trkpt><trkpt lat="46.16319828220789" lon="12.660261903340656"><ele>319.83333333333337</ele><time>2026-03-22T07:39:41Z</time></trkpt><trkpt lat="46.16321855944853" lon="12.660151229126308"><ele>320.0</ele><time>2026-03-22T07:39:42Z</time></trkpt><trkpt lat="46.16323706638955" lon="12.66005193574189"><ele>320.5</ele><time>2026-03-22T07:39:43Z</time></trkpt><trkpt lat="46.16330109293086" lon="12.659948156529564"><ele>321.0</ele><time>2026-03-22T07:39:45Z</time></trkpt><trkpt lat="46.16339108302652" lon="12.659982103981017"><ele>321.5</ele><time>2026-03-22T07:39:47Z</time></trkpt><trkpt lat="46.16346066466988" lon="12.660019470061101"><ele>322.0</ele><time>2026-03-22T07:39:48Z</time></trkpt><trkpt lat="46.163542701361635" lon="12.660040214418899"><ele>322.5</ele><time>2026-03-22T07:39:49Z</time></trkpt><trkpt lat="46.16361755599458" lon="12.66008988329214"><ele>323.0</ele><time>2026-03-22T07:39:50Z</time></trkpt><trkpt lat="46.16370688548888" lon="12.660134466325538"><ele>323.0</ele><time>2026-03-22T07:39:51Z</time></trkpt><trkpt lat="46.163801659721955" lon="12.660183724022207"><ele>323.0</ele><time>2026-03-22T07:39:52Z</time></trkpt><trkpt lat="46.16388921223835" lon="12.660227003570595"><ele>323.0</ele><time>2026-03-22T07:39:53Z</time></trkpt><trkpt lat="46.163964278113085" lon="12.660282531141844"><ele>323.0</ele><time>2026-03-22T07:39:54Z</time></trkpt><trkpt lat="46.16404877578206" lon="12.66031135685623"><ele>323.0</ele><time>2026-03-22T07:39:55Z</time></trkpt><trkpt lat="46.164140622817335" lon="12.660328259480103"><ele>322.79999999999995</ele><time>2026-03-22T07:39:56Z</time></trkpt><trkpt lat="46.16423906559807" lon="12.660321827348389"><ele>322.6</ele><time>2026-03-22T07:39:57Z</time></trkpt><trkpt lat="46.164339018246245" lon="12.660341527251548"><ele>322.4</ele><time>2026-03-22T07:39:58Z</time></trkpt><trkpt lat="46.164439662532004" lon="12.660359632687474"><ele>322.20000000000005</ele><time>2026-03-22T07:39:59Z</time></trkpt><trkpt lat="46.16453918374623" lon="12.66037177702779"><ele>322.0</ele><time>2026-03-22T07:40:00Z</time></trkpt><trkpt lat="46.16463339383236" lon="12.66040972998114"><ele>322.0</ele><time>2026-03-22T07:40:01Z</time></trkpt><trkpt lat="46.164728093759386" lon="12.660425550687862"><ele>322.0</ele><time>2026-03-22T07:40:02Z</time></trkpt><trkpt lat="46.164824525759734" lon="12.66041724846947"><ele>322.0</ele><time>2026-03-22T07:40:03Z</time></trkpt><trkpt lat="46.164909576267505" lon="12.660431158112134"><ele>322.0</ele><time>2026-03-22T07:40:04Z</time></trkpt><trkpt lat="46.1649850826328" lon="12.660450374416163"><ele>322.0</ele><time>2026-03-22T07:40:05Z</time></trkpt><trkpt lat="46.16506272728243" lon="12.660462514622399"><ele>322.0</ele><time>2026-03-22T07:40:06Z</time></trkpt><trkpt lat="46.16514095919514" lon="12.660474486567411"><ele>322.5</ele><time>2026-03-22T07:40:07Z</time></trkpt><trkpt lat="46.16522418050049" lon="12.660485830953029"><ele>323.0</ele><time>2026-03-22T07:40:08Z</time></trkpt><trkpt lat="46.16530974862548" lon="12.660517388057078"><ele>323.5</ele><time>2026-03-22T07:40:09Z</time></trkpt><trkpt lat="46.16539742402957" lon="12.660532323370147"><ele>324.0</ele><time>2026-03-22T07:40:10Z</time></trkpt><trkpt lat="46.16548561158655" lon="12.66053342336088"><ele>324.5</ele><time>2026-03-22T07:40:11Z</time></trkpt><trkpt lat="46.16556075708211" lon="12.660553103077078"><ele>325.0</ele><time>2026-03-22T07:40:12Z</time></trkpt><trkpt lat="46.165629353704745" lon="12.660565941259808"><ele>325.8</ele><time>2026-03-22T07:40:13Z</time></trkpt><trkpt lat="46.16573634856374" lon="12.660592465272222"><ele>326.6</ele><time>2026-03-22T07:40:15Z</time></trkpt><trkpt lat="46.16577456084201" lon="12.660714326416779"><ele>327.4</ele><time>2026-03-22T07:40:17Z</time></trkpt><trkpt lat="46.165778715529605" lon="12.660868045008298"><ele>328.2</ele><time>2026-03-22T07:40:19Z</time></trkpt><trkpt lat="46.16591395304606" lon="12.66089955482444"><ele>329.0</ele><time>2026-03-22T07:40:25Z</time></trkpt><trkpt lat="46.16603142924751" lon="12.6608752299192"><ele>329.0</ele><time>2026-03-22T07:40:26Z</time></trkpt><trkpt lat="46.16612728456881" lon="12.660820042061292"><ele>329.0</ele><time>2026-03-22T07:40:27Z</time></trkpt><trkpt lat="46.166238832925806" lon="12.660784335937807"><ele>329.0</ele><time>2026-03-22T07:40:28Z</time></trkpt><trkpt lat="46.16634907040609" lon="12.660775356462196"><ele>329.0</ele><time>2026-03-22T07:40:29Z</time></trkpt><trkpt lat="46.16647480115463" lon="12.660794017546426"><ele>329.75</ele><time>2026-03-22T07:40:30Z</time></trkpt><trkpt lat="46.1665850568899" lon="12.660809429577087"><ele>330.5</ele><time>2026-03-22T07:40:31Z</time></trkpt><trkpt lat="46.16669896483134" lon="12.66083372904916"><ele>331.25</ele><time>2026-03-22T07:40:32Z</time></trkpt><trkpt lat="46.16682216849453" lon="12.660858834475908"><ele>332.0</ele><time>2026-03-22T07:40:33Z</time></trkpt><trkpt lat="46.166943385312976" lon="12.660883851995292"><ele>332.0</ele><time>2026-03-22T07:40:34Z</time></trkpt><trkpt lat="46.16706343301291" lon="12.660886830311807"><ele>332.0</ele><time>2026-03-22T07:40:35Z</time></trkpt><trkpt lat="46.16718793060285" lon="12.660913787927523"><ele>332.0</ele><time>2026-03-22T07:40:36Z</time></trkpt><trkpt lat="46.16731595403114" lon="12.66094723390071"><ele>332.0</ele><time>2026-03-22T07:40:37Z</time></trkpt><trkpt lat="46.16744496158169" lon="12.660982114468196"><ele>333.25</ele><time>2026-03-22T07:40:38Z</time></trkpt><trkpt lat="46.167580575467305" lon="12.661019523221286"><ele>334.5</ele><time>2026-03-22T07:40:39Z</time></trkpt><trkpt lat="46.16771847716929" lon="12.661061562599885"><ele>335.75</ele><time>2026-03-22T07:40:40Z</time></trkpt><trkpt lat="46.16785536533618" lon="12.661101450013962"><ele>337.0</ele><time>2026-03-22T07:40:41Z</time></trkpt><trkpt lat="46.167987555239485" lon="12.661139564845461"><ele>331.0</ele><time>2026-03-22T07:40:42Z</time></trkpt><trkpt lat="46.16811745185579" lon="12.661176054599858"><ele>325.0</ele><time>2026-03-22T07:40:43Z</time></trkpt><trkpt lat="46.168246035644465" lon="12.661214664468496"><ele>319.0</ele><time>2026-03-22T07:40:44Z</time></trkpt><trkpt lat="46.16837274132732" lon="12.661255166376057"><ele>313.0</ele><time>2026-03-22T07:40:45Z</time></trkpt><trkpt lat="46.16849844904623" lon="12.661289460555073"><ele>312.5</ele><time>2026-03-22T07:40:46Z</time></trkpt><trkpt lat="46.168625350147636" lon="12.661317433655318"><ele>312.0</ele><time>2026-03-22T07:40:47Z</time></trkpt><trkpt lat="46.168750385034585" lon="12.661349134517405"><ele>311.5</ele><time>2026-03-22T07:40:48Z</time></trkpt><trkpt lat="46.16887776326519" lon="12.661379607211451"><ele>311.0</ele><time>2026-03-22T07:40:49Z</time></trkpt><trkpt lat="46.16900796344353" lon="12.661406644319936"><ele>313.5</ele><time>2026-03-22T07:40:50Z</time></trkpt><trkpt lat="46.16913981275685" lon="12.66143677266465"><ele>316.0</ele><time>2026-03-22T07:40:51Z</time></trkpt><trkpt lat="46.16927194825802" lon="12.661472118833359"><ele>318.5</ele><time>2026-03-22T07:40:52Z</time></trkpt><trkpt lat="46.169404372910456" lon="12.661513692034308"><ele>321.0</ele><time>2026-03-22T07:40:53Z</time></trkpt><trkpt lat="46.16953902815891" lon="12.661560286477078"><ele>321.0</ele><time>2026-03-22T07:40:54Z</time></trkpt><trkpt lat="46.16967329985177" lon="12.66160499478494"><ele>321.0</ele><time>2026-03-22T07:40:55Z</time></trkpt><trkpt lat="46.169807494792714" lon="12.66164223988469"><ele>321.0</ele><time>2026-03-22T07:40:56Z</time></trkpt><trkpt lat="46.16993424442302" lon="12.661679698097267"><ele>321.0</ele><time>2026-03-22T07:40:57Z</time></trkpt><trkpt lat="46.170058960486315" lon="12.661733161849856"><ele>323.0</ele><time>2026-03-22T07:40:58Z</time></trkpt><trkpt lat="46.17017515277224" lon="12.661802382327867"><ele>325.0</ele><time>2026-03-22T07:40:59Z</time></trkpt><trkpt lat="46.17029058099845" lon="12.661887154790863"><ele>327.0</ele><time>2026-03-22T07:41:00Z</time></trkpt><trkpt lat="46.17040328285061" lon="12.661980890307111"><ele>329.0</ele><time>2026-03-22T07:41:01Z</time></trkpt><trkpt lat="46.17051496595628" lon="12.662081346501838"><ele>324.75</ele><time>2026-03-22T07:41:02Z</time></trkpt><trkpt lat="46.170625425719535" lon="12.662181113198924"><ele>320.5</ele><time>2026-03-22T07:41:03Z</time></trkpt><trkpt lat="46.1707365434273" lon="12.66227540437835"><ele>316.25</ele><time>2026-03-22T07:41:04Z</time></trkpt><trkpt lat="46.170851771224164" lon="12.662357905313913"><ele>312.0</ele><time>2026-03-22T07:41:05Z</time></trkpt><trkpt lat="46.17097344907643" lon="12.66241800684144"><ele>312.0</ele><time>2026-03-22T07:41:06Z</time></trkpt><trkpt lat="46.171093611595694" lon="12.662467210572784"><ele>312.0</ele><time>2026-03-22T07:41:07Z</time></trkpt><trkpt lat="46.17121353813287" lon="12.662519337364206"><ele>312.0</ele><time>2026-03-22T07:41:08Z</time></trkpt><trkpt lat="46.17132604201779" lon="12.662582138771189"><ele>312.0</ele><time>2026-03-22T07:41:09Z</time></trkpt><trkpt lat="46.171428332369" lon="12.662621906972715"><ele>312.0</ele><time>2026-03-22T07:41:10Z</time></trkpt><trkpt lat="46.17152773239801" lon="12.662647653483342"><ele>312.0</ele><time>2026-03-22T07:41:11Z</time></trkpt><trkpt lat="46.171636601209556" lon="12.662604522267563"><ele>312.0</ele><time>2026-03-22T07:41:12Z</time></trkpt><trkpt lat="46.1717488601364" lon="12.662527851349353"><ele>312.0</ele><time>2026-03-22T07:41:13Z</time></trkpt><trkpt lat="46.17186599747613" lon="12.662477084473247"><ele>312.0</ele><time>2026-03-22T07:41:14Z</time></trkpt><trkpt lat="46.17197859286176" lon="12.66243719943329"><ele>312.0</ele><time>2026-03-22T07:41:15Z</time></trkpt><trkpt lat="46.17208028852195" lon="12.662393699780722"><ele>312.0</ele><time>2026-03-22T07:41:16Z</time></trkpt><trkpt lat="46.17217339285221" lon="12.662332406827964"><ele>312.0</ele><time>2026-03-22T07:41:17Z</time></trkpt><trkpt lat="46.17225483150071" lon="12.662266768026388"><ele>312.0</ele><time>2026-03-22T07:41:18Z</time></trkpt><trkpt lat="46.172325787518396" lon="12.662122225568421"><ele>311.0</ele><time>2026-03-22T07:41:19Z</time></trkpt><trkpt lat="46.17237897294156" lon="12.661966201688662"><ele>310.0</ele><time>2026-03-22T07:41:20Z</time></trkpt><trkpt lat="46.172431385628414" lon="12.66181456485358"><ele>309.0</ele><time>2026-03-22T07:41:21Z</time></trkpt><trkpt lat="46.17250264215016" lon="12.661691333037375"><ele>308.0</ele><time>2026-03-22T07:41:22Z</time></trkpt><trkpt lat="46.17258625145466" lon="12.661586534866847"><ele>308.0</ele><time>2026-03-22T07:41:23Z</time></trkpt><trkpt lat="46.172668328966076" lon="12.661477589151728"><ele>308.0</ele><time>2026-03-22T07:41:24Z</time></trkpt><trkpt lat="46.17274762262255" lon="12.661367618363393"><ele>308.0</ele><time>2026-03-22T07:41:25Z</time></trkpt><trkpt lat="46.17282159345745" lon="12.661263366155572"><ele>308.0</ele><time>2026-03-22T07:41:26Z</time></trkpt><trkpt lat="46.17288547807765" lon="12.661183620161317"><ele>308.0</ele><time>2026-03-22T07:41:27Z</time></trkpt><trkpt lat="46.17294688691178" lon="12.661140071271124"><ele>308.0</ele><time>2026-03-22T07:41:28Z</time></trkpt><trkpt lat="46.17305070838957" lon="12.661175074820857"><ele>308.0</ele><time>2026-03-22T07:41:30Z</time></trkpt><trkpt lat="46.17313113447373" lon="12.661179965473957"><ele>308.0</ele><time>2026-03-22T07:41:31Z</time></trkpt><trkpt lat="46.17320195041483" lon="12.66123289254716"><ele>308.0</ele><time>2026-03-22T07:41:32Z</time></trkpt><trkpt lat="46.17327409442383" lon="12.66126292921725"><ele>308.0</ele><time>2026-03-22T07:41:33Z</time></trkpt><trkpt lat="46.173340161267255" lon="12.661290435705965"><ele>308.0</ele><time>2026-03-22T07:41:34Z</time></trkpt><trkpt lat="46.17340431944653" lon="12.66131714752506"><ele>305.5</ele><time>2026-03-22T07:41:35Z</time></trkpt><trkpt lat="46.173470405296094" lon="12.66134466194744"><ele>303.0</ele><time>2026-03-22T07:41:36Z</time></trkpt><trkpt lat="46.17353965816821" lon="12.66137349490817"><ele>300.5</ele><time>2026-03-22T07:41:37Z</time></trkpt><trkpt lat="46.173621637427736" lon="12.661407721549388"><ele>298.0</ele><time>2026-03-22T07:41:38Z</time></trkpt><trkpt lat="46.17371128032629" lon="12.661443555594529"><ele>295.5</ele><time>2026-03-22T07:41:39Z</time></trkpt><trkpt lat="46.17378480411752" lon="12.661472330722539"><ele>293.0</ele><time>2026-03-22T07:41:40Z</time></trkpt><trkpt lat="46.17384913702016" lon="12.661536663957186"><ele>293.0</ele><time>2026-03-22T07:41:42Z</time></trkpt><trkpt lat="46.17384025437857" lon="12.661631172463107"><ele>293.0</ele><time>2026-03-22T07:41:43Z</time></trkpt><trkpt lat="46.173783835839316" lon="12.661776042610096"><ele>293.0</ele><time>2026-03-22T07:41:44Z</time></trkpt><trkpt lat="46.173761463267425" lon="12.661904207055844"><ele>293.0</ele><time>2026-03-22T07:41:45Z</time></trkpt><trkpt lat="46.173744830082384" lon="12.662113802038068"><ele>293.0</ele><time>2026-03-22T07:41:46Z</time></trkpt><trkpt lat="46.17372518189319" lon="12.662302009130954"><ele>294.4</ele><time>2026-03-22T07:41:47Z</time></trkpt><trkpt lat="46.173691942272825" lon="12.662460960555823"><ele>295.8</ele><time>2026-03-22T07:41:48Z</time></trkpt><trkpt lat="46.173650016642526" lon="12.66259845020403"><ele>297.2</ele><time>2026-03-22T07:41:49Z</time></trkpt><trkpt lat="46.1736032995104" lon="12.662704693210578"><ele>298.6</ele><time>2026-03-22T07:41:50Z</time></trkpt><trkpt lat="46.173546876013354" lon="12.662775981076484"><ele>300.0</ele><time>2026-03-22T07:41:51Z</time></trkpt><trkpt lat="46.17347681591117" lon="12.662869512862898"><ele>302.8</ele><time>2026-03-22T07:41:52Z</time></trkpt><trkpt lat="46.17341728791715" lon="12.662960830896038"><ele>305.6</ele><time>2026-03-22T07:41:53Z</time></trkpt><trkpt lat="46.173370065852865" lon="12.663094575890419"><ele>308.4</ele><time>2026-03-22T07:41:54Z</time></trkpt><trkpt lat="46.17330975543945" lon="12.663196344139468"><ele>311.2</ele><time>2026-03-22T07:41:55Z</time></trkpt><trkpt lat="46.173260885689736" lon="12.663310649416436"><ele>314.0</ele><time>2026-03-22T07:41:56Z</time></trkpt><trkpt lat="46.173217974120895" lon="12.6634359469221"><ele>307.25</ele><time>2026-03-22T07:41:57Z</time></trkpt><trkpt lat="46.17317615335965" lon="12.663611955866877"><ele>300.5</ele><time>2026-03-22T07:41:58Z</time></trkpt><trkpt lat="46.17314885798708" lon="12.663793778702491"><ele>293.75</ele><time>2026-03-22T07:41:59Z</time></trkpt><trkpt lat="46.17311926375408" lon="12.663978033491038"><ele>287.0</ele><time>2026-03-22T07:42:00Z</time></trkpt><trkpt lat="46.17307477629508" lon="12.664176243972882"><ele>286.6666666666667</ele><time>2026-03-22T07:42:01Z</time></trkpt><trkpt lat="46.173007244733604" lon="12.664409655897703"><ele>286.3333333333333</ele><time>2026-03-22T07:42:02Z</time></trkpt><trkpt lat="46.17294158978653" lon="12.664638861554678"><ele>286.0</ele><time>2026-03-22T07:42:03Z</time></trkpt><trkpt lat="46.172874497602294" lon="12.664857622063426"><ele>290.0</ele><time>2026-03-22T07:42:04Z</time></trkpt><trkpt lat="46.17277720423649" lon="12.665087916788748"><ele>294.0</ele><time>2026-03-22T07:42:05Z</time></trkpt><trkpt lat="46.172661866892966" lon="12.66533394256526"><ele>298.0</ele><time>2026-03-22T07:42:06Z</time></trkpt><trkpt lat="46.172534180195996" lon="12.665590054146664"><ele>299.66666666666663</ele><time>2026-03-22T07:42:07Z</time></trkpt><trkpt lat="46.17239538923211" lon="12.665821894134917"><ele>301.3333333333333</ele><time>2026-03-22T07:42:08Z</time></trkpt><trkpt lat="46.172254541267336" lon="12.666068708664023"><ele>303.0</ele><time>2026-03-22T07:42:09Z</time></trkpt><trkpt lat="46.17216570492387" lon="12.666320103868133"><ele>303.0</ele><time>2026-03-22T07:42:10Z</time></trkpt><trkpt lat="46.17205251206038" lon="12.666525091646921"><ele>303.0</ele><time>2026-03-22T07:42:11Z</time></trkpt><trkpt lat="46.17192309255184" lon="12.666678771632249"><ele>303.0</ele><time>2026-03-22T07:42:12Z</time></trkpt><trkpt lat="46.1717991241271" lon="12.666849754768652"><ele>299.0</ele><time>2026-03-22T07:42:13Z</time></trkpt><trkpt lat="46.171684265792756" lon="12.667055696919602"><ele>295.0</ele><time>2026-03-22T07:42:14Z</time></trkpt><trkpt lat="46.171559308042625" lon="12.667282567398088"><ele>291.0</ele><time>2026-03-22T07:42:15Z</time></trkpt><trkpt lat="46.171390440760085" lon="12.66745519057633"><ele>291.0</ele><time>2026-03-22T07:42:16Z</time></trkpt><trkpt lat="46.17122795502366" lon="12.667670562684549"><ele>291.0</ele><time>2026-03-22T07:42:17Z</time></trkpt><trkpt lat="46.17108491727968" lon="12.6678989010787"><ele>291.0</ele><time>2026-03-22T07:42:18Z</time></trkpt><trkpt lat="46.170935081280746" lon="12.668091875806855"><ele>290.3333333333333</ele><time>2026-03-22T07:42:19Z</time></trkpt><trkpt lat="46.1708005363854" lon="12.668263781085264"><ele>289.66666666666663</ele><time>2026-03-22T07:42:20Z</time></trkpt><trkpt lat="46.1706810779617" lon="12.668406045861007"><ele>289.0</ele><time>2026-03-22T07:42:21Z</time></trkpt><trkpt lat="46.1705621357842" lon="12.668515386287904"><ele>295.5</ele><time>2026-03-22T07:42:22Z</time></trkpt><trkpt lat="46.17044289068282" lon="12.668614277581048"><ele>302.0</ele><time>2026-03-22T07:42:23Z</time></trkpt><trkpt lat="46.17031991420271" lon="12.668731611272356"><ele>308.5</ele><time>2026-03-22T07:42:24Z</time></trkpt><trkpt lat="46.17018336476195" lon="12.668857189351632"><ele>315.0</ele><time>2026-03-22T07:42:25Z</time></trkpt><trkpt lat="46.17007206801795" lon="12.668983027842765"><ele>315.0</ele><time>2026-03-22T07:42:26Z</time></trkpt><trkpt lat="46.16997241587373" lon="12.669095822706048"><ele>315.0</ele><time>2026-03-22T07:42:27Z</time></trkpt><trkpt lat="46.16986364544095" lon="12.669219491939709"><ele>315.0</ele><time>2026-03-22T07:42:28Z</time></trkpt><trkpt lat="46.1697493181053" lon="12.66935418529355"><ele>315.0</ele><time>2026-03-22T07:42:29Z</time></trkpt><trkpt lat="46.1696465471319" lon="12.669513568808815"><ele>313.6666666666667</ele><time>2026-03-22T07:42:30Z</time></trkpt><trkpt lat="46.1695356806426" lon="12.669671045321525"><ele>312.33333333333337</ele><time>2026-03-22T07:42:31Z</time></trkpt><trkpt lat="46.16941615377508" lon="12.669838651374906"><ele>311.0</ele><time>2026-03-22T07:42:32Z</time></trkpt><trkpt lat="46.169292869697045" lon="12.66999949320675"><ele>311.0</ele><time>2026-03-22T07:42:33Z</time></trkpt><trkpt lat="46.169158822200025" lon="12.670108208377945"><ele>311.0</ele><time>2026-03-22T07:42:34Z</time></trkpt><trkpt lat="46.16903993172425" lon="12.670229263778769"><ele>311.0</ele><time>2026-03-22T07:42:35Z</time></trkpt><trkpt lat="46.168940447047774" lon="12.670381496584934"><ele>311.0</ele><time>2026-03-22T07:42:36Z</time></trkpt><trkpt lat="46.16883410657481" lon="12.670537236698326"><ele>310.33333333333337</ele><time>2026-03-22T07:42:37Z</time></trkpt><trkpt lat="46.16873264479377" lon="12.670702601089763"><ele>309.6666666666667</ele><time>2026-03-22T07:42:38Z</time></trkpt><trkpt lat="46.16862365096379" lon="12.670856125559121"><ele>309.0</ele><time>2026-03-22T07:42:39Z</time></trkpt><trkpt lat="46.16850844207756" lon="12.670992846566987"><ele>309.0</ele><time>2026-03-22T07:42:40Z</time></trkpt><trkpt lat="46.16837162481507" lon="12.671097567871763"><ele>309.0</ele><time>2026-03-22T07:42:41Z</time></trkpt><trkpt lat="46.1682358443686" lon="12.671229003309465"><ele>309.0</ele><time>2026-03-22T07:42:42Z</time></trkpt><trkpt lat="46.16809398169336" lon="12.671363926221385"><ele>309.6666666666667</ele><time>2026-03-22T07:42:43Z</time></trkpt><trkpt lat="46.16794837750535" lon="12.671502485614296"><ele>310.33333333333337</ele><time>2026-03-22T07:42:44Z</time></trkpt><trkpt lat="46.16781183515043" lon="12.671661130229264"><ele>311.0</ele><time>2026-03-22T07:42:45Z</time></trkpt><trkpt lat="46.167666078519886" lon="12.67179932715483"><ele>311.0</ele><time>2026-03-22T07:42:46Z</time></trkpt><trkpt lat="46.1675210955312" lon="12.671934554816856"><ele>311.0</ele><time>2026-03-22T07:42:47Z</time></trkpt><trkpt lat="46.167378237769135" lon="12.6720491490409"><ele>311.0</ele><time>2026-03-22T07:42:48Z</time></trkpt><trkpt lat="46.16723936984105" lon="12.672148816534994"><ele>312.0</ele><time>2026-03-22T07:42:49Z</time></trkpt><trkpt lat="46.16709148553263" lon="12.672195605657954"><ele>313.0</ele><time>2026-03-22T07:42:50Z</time></trkpt><trkpt lat="46.16695979962961" lon="12.67227761762329"><ele>314.0</ele><time>2026-03-22T07:42:51Z</time></trkpt><trkpt lat="46.166818556845655" lon="12.672335612626243"><ele>315.0</ele><time>2026-03-22T07:42:52Z</time></trkpt><trkpt lat="46.16668221535706" lon="12.672402557208716"><ele>315.0</ele><time>2026-03-22T07:42:53Z</time></trkpt><trkpt lat="46.166544519507895" lon="12.672468994481168"><ele>315.0</ele><time>2026-03-22T07:42:54Z</time></trkpt><trkpt lat="46.166409637220106" lon="12.672540682708805"><ele>315.0</ele><time>2026-03-22T07:42:55Z</time></trkpt><trkpt lat="46.16627748598049" lon="12.672624968079822"><ele>315.0</ele><time>2026-03-22T07:42:56Z</time></trkpt><trkpt lat="46.16615141539534" lon="12.672714909660087"><ele>316.75</ele><time>2026-03-22T07:42:57Z</time></trkpt><trkpt lat="46.166036050215055" lon="12.672823408252873"><ele>318.5</ele><time>2026-03-22T07:42:58Z</time></trkpt><trkpt lat="46.16592361045416" lon="12.672934010021699"><ele>320.25</ele><time>2026-03-22T07:42:59Z</time></trkpt><trkpt lat="46.16581121671184" lon="12.673038503415743"><ele>322.0</ele><time>2026-03-22T07:43:00Z</time></trkpt><trkpt lat="46.16569872735124" lon="12.673135728429465"><ele>321.0</ele><time>2026-03-22T07:43:01Z</time></trkpt><trkpt lat="46.16558232452512" lon="12.673221737880054"><ele>320.0</ele><time>2026-03-22T07:43:02Z</time></trkpt><trkpt lat="46.16545592792423" lon="12.673280348466191"><ele>319.0</ele><time>2026-03-22T07:43:03Z</time></trkpt><trkpt lat="46.165324606035796" lon="12.6733054207866"><ele>318.0</ele><time>2026-03-22T07:43:04Z</time></trkpt><trkpt lat="46.165193844457775" lon="12.673290233962884"><ele>318.0</ele><time>2026-03-22T07:43:05Z</time></trkpt><trkpt lat="46.165064084737715" lon="12.673268267271531"><ele>318.0</ele><time>2026-03-22T07:43:06Z</time></trkpt><trkpt lat="46.16493077100896" lon="12.673273898480083"><ele>318.0</ele><time>2026-03-22T07:43:07Z</time></trkpt><trkpt lat="46.16480024817101" lon="12.67331322870494"><ele>318.0</ele><time>2026-03-22T07:43:08Z</time></trkpt><trkpt lat="46.16467482291077" lon="12.673382811651793"><ele>317.5</ele><time>2026-03-22T07:43:09Z</time></trkpt><trkpt lat="46.16455997210145" lon="12.673476923941086"><ele>317.0</ele><time>2026-03-22T07:43:10Z</time></trkpt><trkpt lat="46.16444642773962" lon="12.67358698960102"><ele>316.5</ele><time>2026-03-22T07:43:11Z</time></trkpt><trkpt lat="46.164347435127056" lon="12.673726799963683"><ele>316.0</ele><time>2026-03-22T07:43:12Z</time></trkpt><trkpt lat="46.16424637718192" lon="12.673871043980826"><ele>316.0</ele><time>2026-03-22T07:43:13Z</time></trkpt><trkpt lat="46.164162408489595" lon="12.674038331359696"><ele>316.0</ele><time>2026-03-22T07:43:14Z</time></trkpt><trkpt lat="46.16408709399106" lon="12.67421627657928"><ele>316.0</ele><time>2026-03-22T07:43:15Z</time></trkpt><trkpt lat="46.16403564104811" lon="12.674414067220454"><ele>316.0</ele><time>2026-03-22T07:43:16Z</time></trkpt><trkpt lat="46.16398608473188" lon="12.674609821797748"><ele>312.25</ele><time>2026-03-22T07:43:17Z</time></trkpt><trkpt lat="46.16395504711708" lon="12.674795870998492"><ele>308.5</ele><time>2026-03-22T07:43:18Z</time></trkpt><trkpt lat="46.163920598680505" lon="12.674965823473377"><ele>304.75</ele><time>2026-03-22T07:43:19Z</time></trkpt><trkpt lat="46.163864620249946" lon="12.675125171933175"><ele>301.0</ele><time>2026-03-22T07:43:20Z</time></trkpt><trkpt lat="46.16378161097475" lon="12.675260753899355"><ele>303.5</ele><time>2026-03-22T07:43:21Z</time></trkpt><trkpt lat="46.163707706560146" lon="12.675403559301463"><ele>306.0</ele><time>2026-03-22T07:43:22Z</time></trkpt><trkpt lat="46.1636434853876" lon="12.675569054826257"><ele>308.5</ele><time>2026-03-22T07:43:23Z</time></trkpt><trkpt lat="46.163564880300676" lon="12.675718407720128"><ele>311.0</ele><time>2026-03-22T07:43:24Z</time></trkpt><trkpt lat="46.16348364271067" lon="12.675868095158613"><ele>311.0</ele><time>2026-03-22T07:43:25Z</time></trkpt><trkpt lat="46.163403599700445" lon="12.6760208972341"><ele>311.0</ele><time>2026-03-22T07:43:26Z</time></trkpt><trkpt lat="46.163324596795704" lon="12.676176722749544"><ele>311.0</ele><time>2026-03-22T07:43:27Z</time></trkpt><trkpt lat="46.1632451012021" lon="12.676333613323957"><ele>311.0</ele><time>2026-03-22T07:43:28Z</time></trkpt><trkpt lat="46.16316999252542" lon="12.676483694276367"><ele>310.6</ele><time>2026-03-22T07:43:29Z</time></trkpt><trkpt lat="46.163098599277575" lon="12.676622792096445"><ele>310.20000000000005</ele><time>2026-03-22T07:43:30Z</time></trkpt><trkpt lat="46.1630294269687" lon="12.676753516023822"><ele>309.79999999999995</ele><time>2026-03-22T07:43:31Z</time></trkpt><trkpt lat="46.162962763233956" lon="12.676878777202381"><ele>309.4</ele><time>2026-03-22T07:43:32Z</time></trkpt><trkpt lat="46.16290181949099" lon="12.677002334235889"><ele>309.0</ele><time>2026-03-22T07:43:33Z</time></trkpt><trkpt lat="46.16284203983031" lon="12.677120578519377"><ele>309.0</ele><time>2026-03-22T07:43:34Z</time></trkpt><trkpt lat="46.162798944758876" lon="12.67720989484134"><ele>309.0</ele><time>2026-03-22T07:43:35Z</time></trkpt><trkpt lat="46.16275051941397" lon="12.677312050941214"><ele>309.0</ele><time>2026-03-22T07:43:37Z</time></trkpt><trkpt lat="46.162691410098915" lon="12.677395887691727"><ele>309.0</ele><time>2026-03-22T07:43:41Z</time></trkpt><trkpt lat="46.16278687463906" lon="12.677541204197095"><ele>309.0</ele><time>2026-03-22T07:43:42Z</time></trkpt><trkpt lat="46.16280128800111" lon="12.677648098189945"><ele>309.2</ele><time>2026-03-22T07:43:43Z</time></trkpt><trkpt lat="46.1628318883853" lon="12.677780174892147"><ele>309.4</ele><time>2026-03-22T07:43:44Z</time></trkpt><trkpt lat="46.16286209022052" lon="12.677901455071552"><ele>309.6</ele><time>2026-03-22T07:43:45Z</time></trkpt><trkpt lat="46.16291088918795" lon="12.678021645888872"><ele>309.8</ele><time>2026-03-22T07:43:46Z</time></trkpt><trkpt lat="46.16294515551728" lon="12.678156344411814"><ele>310.0</ele><time>2026-03-22T07:43:47Z</time></trkpt><trkpt lat="46.162968797560794" lon="12.6783013877297"><ele>310.0</ele><time>2026-03-22T07:43:48Z</time></trkpt><trkpt lat="46.163003657598544" lon="12.678436390978788"><ele>310.0</ele><time>2026-03-22T07:43:49Z</time></trkpt><trkpt lat="46.163051321291235" lon="12.678559730056387"><ele>310.0</ele><time>2026-03-22T07:43:50Z</time></trkpt><trkpt lat="46.16308366449835" lon="12.678683286047171"><ele>310.0</ele><time>2026-03-22T07:43:51Z</time></trkpt><trkpt lat="46.163112908197306" lon="12.678800850261643"><ele>310.0</ele><time>2026-03-22T07:43:52Z</time></trkpt><trkpt lat="46.16314084603393" lon="12.67891883476297"><ele>310.16666666666663</ele><time>2026-03-22T07:43:53Z</time></trkpt><trkpt lat="46.16317066527194" lon="12.6790358071331"><ele>310.3333333333333</ele><time>2026-03-22T07:43:54Z</time></trkpt><trkpt lat="46.163204640341505" lon="12.67915059265598"><ele>310.5</ele><time>2026-03-22T07:43:55Z</time></trkpt><trkpt lat="46.16323297523724" lon="12.67926404666415"><ele>310.6666666666667</ele><time>2026-03-22T07:43:56Z</time></trkpt><trkpt lat="46.16326235335872" lon="12.679374823219325"><ele>310.83333333333337</ele><time>2026-03-22T07:43:57Z</time></trkpt><trkpt lat="46.163290576541776" lon="12.67948914734512"><ele>311.0</ele><time>2026-03-22T07:43:58Z</time></trkpt><trkpt lat="46.16331910271077" lon="12.679596861881716"><ele>311.83333333333337</ele><time>2026-03-22T07:43:59Z</time></trkpt><trkpt lat="46.16334767756335" lon="12.679705218351293"><ele>312.6666666666667</ele><time>2026-03-22T07:44:00Z</time></trkpt><trkpt lat="46.16337720411388" lon="12.679812886901132"><ele>313.5</ele><time>2026-03-22T07:44:01Z</time></trkpt><trkpt lat="46.16341272088225" lon="12.67991794529389"><ele>314.3333333333333</ele><time>2026-03-22T07:44:02Z</time></trkpt><trkpt lat="46.16344077479305" lon="12.680038645536062"><ele>315.16666666666663</ele><time>2026-03-22T07:44:03Z</time></trkpt><trkpt lat="46.16351844375419" lon="12.6801475086265"><ele>316.0</ele><time>2026-03-22T07:44:04Z</time></trkpt><trkpt lat="46.16356841550543" lon="12.68026726886707"><ele>316.0</ele><time>2026-03-22T07:44:05Z</time></trkpt><trkpt lat="46.16361539380572" lon="12.680388863949378"><ele>316.0</ele><time>2026-03-22T07:44:06Z</time></trkpt><trkpt lat="46.16365558387743" lon="12.68051440403517"><ele>316.0</ele><time>2026-03-22T07:44:07Z</time></trkpt><trkpt lat="46.16368809767981" lon="12.6806431381258"><ele>316.0</ele><time>2026-03-22T07:44:08Z</time></trkpt><trkpt lat="46.16371970953548" lon="12.680763905000308"><ele>316.0</ele><time>2026-03-22T07:44:09Z</time></trkpt><trkpt lat="46.16375096485661" lon="12.680869557492496"><ele>316.0</ele><time>2026-03-22T07:44:10Z</time></trkpt><trkpt lat="46.163775925703725" lon="12.680957876937583"><ele>316.0</ele><time>2026-03-22T07:44:11Z</time></trkpt><trkpt lat="46.163798995894844" lon="12.681085716460878"><ele>316.0</ele><time>2026-03-22T07:44:13Z</time></trkpt><trkpt lat="46.16397799749036" lon="12.680995920200763"><ele>316.0</ele><time>2026-03-22T07:44:17Z</time></trkpt><trkpt lat="46.16404552436371" lon="12.680869156815804"><ele>316.6</ele><time>2026-03-22T07:44:18Z</time></trkpt><trkpt lat="46.16410767132828" lon="12.680786114741522"><ele>317.20000000000005</ele><time>2026-03-22T07:44:19Z</time></trkpt><trkpt lat="46.164170682213104" lon="12.680701711151325"><ele>317.79999999999995</ele><time>2026-03-22T07:44:20Z</time></trkpt><trkpt lat="46.16422417677765" lon="12.680609510681426"><ele>318.4</ele><time>2026-03-22T07:44:21Z</time></trkpt><trkpt lat="46.16427501645174" lon="12.680503898713518"><ele>319.0</ele><time>2026-03-22T07:44:22Z</time></trkpt><trkpt lat="46.16433509395168" lon="12.680376126344868"><ele>320.4</ele><time>2026-03-22T07:44:23Z</time></trkpt><trkpt lat="46.1643945573184" lon="12.680261990346054"><ele>321.79999999999995</ele><time>2026-03-22T07:44:24Z</time></trkpt><trkpt lat="46.164443883311876" lon="12.680144250554484"><ele>323.20000000000005</ele><time>2026-03-22T07:44:25Z</time></trkpt><trkpt lat="46.16448915369099" lon="12.680024711767052"><ele>324.6</ele><time>2026-03-22T07:44:26Z</time></trkpt><trkpt lat="46.164520828754" lon="12.679891528428275"><ele>326.0</ele><time>2026-03-22T07:44:27Z</time></trkpt><trkpt lat="46.164561690289275" lon="12.679702967459363"><ele>326.0</ele><time>2026-03-22T07:44:28Z</time></trkpt><trkpt lat="46.164586285605914" lon="12.67956618889686"><ele>326.0</ele><time>2026-03-22T07:44:29Z</time></trkpt><trkpt lat="46.164624310040274" lon="12.679465982393296"><ele>326.0</ele><time>2026-03-22T07:44:30Z</time></trkpt><trkpt lat="46.16472678013635" lon="12.679403954204833"><ele>326.0</ele><time>2026-03-22T07:44:32Z</time></trkpt><trkpt lat="46.16478861156774" lon="12.679430193522764"><ele>326.0</ele><time>2026-03-22T07:44:33Z</time></trkpt><trkpt lat="46.16487382992089" lon="12.679461506658832"><ele>326.0</ele><time>2026-03-22T07:44:34Z</time></trkpt><trkpt lat="46.164978007154495" lon="12.67943808018602"><ele>329.6</ele><time>2026-03-22T07:44:36Z</time></trkpt><trkpt lat="46.16507342689716" lon="12.679332747662102"><ele>333.20000000000005</ele><time>2026-03-22T07:44:38Z</time></trkpt><trkpt lat="46.165092879205915" lon="12.679195376305062"><ele>336.79999999999995</ele><time>2026-03-22T07:44:39Z</time></trkpt><trkpt lat="46.16510846205854" lon="12.67904920470444"><ele>340.4</ele><time>2026-03-22T07:44:40Z</time></trkpt><trkpt lat="46.16513116603916" lon="12.678923011837968"><ele>344.0</ele><time>2026-03-22T07:44:41Z</time></trkpt><trkpt lat="46.16514903915082" lon="12.67880384026117"><ele>344.0</ele><time>2026-03-22T07:44:42Z</time></trkpt><trkpt lat="46.16516461780223" lon="12.678669995645658"><ele>344.0</ele><time>2026-03-22T07:44:43Z</time></trkpt><trkpt lat="46.165172305252646" lon="12.67852713235485"><ele>344.0</ele><time>2026-03-22T07:44:44Z</time></trkpt><trkpt lat="46.16517421978891" lon="12.678325411056855"><ele>344.0</ele><time>2026-03-22T07:44:45Z</time></trkpt><trkpt lat="46.16520536038915" lon="12.67814164285258"><ele>345.0</ele><time>2026-03-22T07:44:46Z</time></trkpt><trkpt lat="46.16521744685227" lon="12.678001445135111"><ele>346.0</ele><time>2026-03-22T07:44:47Z</time></trkpt><trkpt lat="46.16521356699815" lon="12.677910238637532"><ele>347.0</ele><time>2026-03-22T07:44:48Z</time></trkpt><trkpt lat="46.16528156742435" lon="12.677847648962471"><ele>348.0</ele><time>2026-03-22T07:44:50Z</time></trkpt><trkpt lat="46.165393733223844" lon="12.677916952318691"><ele>349.0</ele><time>2026-03-22T07:44:52Z</time></trkpt><trkpt lat="46.16546941510998" lon="12.677963906007216"><ele>350.0</ele><time>2026-03-22T07:44:53Z</time></trkpt><trkpt lat="46.16555705246633" lon="12.677989289750718"><ele>350.0</ele><time>2026-03-22T07:44:54Z</time></trkpt><trkpt lat="46.165639142273236" lon="12.678050904916804"><ele>350.0</ele><time>2026-03-22T07:44:55Z</time></trkpt><trkpt lat="46.165730070424594" lon="12.678096213362736"><ele>350.0</ele><time>2026-03-22T07:44:56Z</time></trkpt><trkpt lat="46.16584023404114" lon="12.678156019446362"><ele>350.0</ele><time>2026-03-22T07:44:57Z</time></trkpt><trkpt lat="46.16600296206174" lon="12.678239598527101"><ele>352.75</ele><time>2026-03-22T07:44:58Z</time></trkpt><trkpt lat="46.16617300453876" lon="12.678323684540757"><ele>355.5</ele><time>2026-03-22T07:44:59Z</time></trkpt><trkpt lat="46.166293883617215" lon="12.678416337059595"><ele>358.25</ele><time>2026-03-22T07:45:00Z</time></trkpt><trkpt lat="46.16639302245188" lon="12.678502649465972"><ele>361.0</ele><time>2026-03-22T07:45:01Z</time></trkpt><trkpt lat="46.166489835133895" lon="12.678586726032231"><ele>364.6</ele><time>2026-03-22T07:45:02Z</time></trkpt><trkpt lat="46.1665642530246" lon="12.678687979665627"><ele>368.20000000000005</ele><time>2026-03-22T07:45:03Z</time></trkpt><trkpt lat="46.16663677994849" lon="12.678774138539998"><ele>371.79999999999995</ele><time>2026-03-22T07:45:04Z</time></trkpt><trkpt lat="46.16671063068527" lon="12.678852157640137"><ele>375.4</ele><time>2026-03-22T07:45:05Z</time></trkpt><trkpt lat="46.16678829031466" lon="12.678933984537121"><ele>379.0</ele><time>2026-03-22T07:45:06Z</time></trkpt><trkpt lat="46.16689349406535" lon="12.679048573708332"><ele>379.0</ele><time>2026-03-22T07:45:07Z</time></trkpt><trkpt lat="46.16700124397014" lon="12.679152242023203"><ele>379.0</ele><time>2026-03-22T07:45:08Z</time></trkpt><trkpt lat="46.16707508816521" lon="12.679259149525352"><ele>379.0</ele><time>2026-03-22T07:45:09Z</time></trkpt><trkpt lat="46.16712857480268" lon="12.679379904505387"><ele>379.0</ele><time>2026-03-22T07:45:10Z</time></trkpt><trkpt lat="46.167171767272244" lon="12.67950347892418"><ele>379.0</ele><time>2026-03-22T07:45:11Z</time></trkpt><trkpt lat="46.167211666242636" lon="12.679621258449654"><ele>382.4</ele><time>2026-03-22T07:45:12Z</time></trkpt><trkpt lat="46.167273256857776" lon="12.679698240956453"><ele>385.79999999999995</ele><time>2026-03-22T07:45:13Z</time></trkpt><trkpt lat="46.16736770172275" lon="12.679748990636192"><ele>389.20000000000005</ele><time>2026-03-22T07:45:14Z</time></trkpt><trkpt lat="46.1674689246102" lon="12.679811889618382"><ele>392.6</ele><time>2026-03-22T07:45:15Z</time></trkpt><trkpt lat="46.167535451117374" lon="12.679863371113608"><ele>396.0</ele><time>2026-03-22T07:45:16Z</time></trkpt><trkpt lat="46.16755578853291" lon="12.67999396700396"><ele>396.0</ele><time>2026-03-22T07:45:18Z</time></trkpt><trkpt lat="46.167499448728755" lon="12.680039529993618"><ele>396.0</ele><time>2026-03-22T07:45:19Z</time></trkpt><trkpt lat="46.16741577904418" lon="12.680070043720406"><ele>396.0</ele><time>2026-03-22T07:45:20Z</time></trkpt><trkpt lat="46.1673264921587" lon="12.680081501057368"><ele>396.0</ele><time>2026-03-22T07:45:21Z</time></trkpt><trkpt lat="46.16727068556709" lon="12.680128069623334"><ele>396.0</ele><time>2026-03-22T07:45:22Z</time></trkpt><trkpt lat="46.167262917647385" lon="12.680295239891018"><ele>396.0</ele><time>2026-03-22T07:45:24Z</time></trkpt><trkpt lat="46.16733446604158" lon="12.680384685226155"><ele>399.25</ele><time>2026-03-22T07:45:25Z</time></trkpt><trkpt lat="46.16746646862098" lon="12.680425111710045"><ele>402.5</ele><time>2026-03-22T07:45:26Z</time></trkpt><trkpt lat="46.16758873434497" lon="12.680485875438608"><ele>405.75</ele><time>2026-03-22T07:45:27Z</time></trkpt><trkpt lat="46.16765305580883" lon="12.680599795493414"><ele>409.0</ele><time>2026-03-22T07:45:28Z</time></trkpt><trkpt lat="46.167726417793176" lon="12.6807204268827"><ele>409.0</ele><time>2026-03-22T07:45:29Z</time></trkpt><trkpt lat="46.16780768411807" lon="12.68079364295994"><ele>409.0</ele><time>2026-03-22T07:45:30Z</time></trkpt><trkpt lat="46.167924121312836" lon="12.680805183465662"><ele>409.0</ele><time>2026-03-22T07:45:32Z</time></trkpt><trkpt lat="46.16801840813357" lon="12.680712463572846"><ele>409.0</ele><time>2026-03-22T07:45:33Z</time></trkpt><trkpt lat="46.16809863812752" lon="12.680630704838695"><ele>409.0</ele><time>2026-03-22T07:45:34Z</time></trkpt><trkpt lat="46.16819002359285" lon="12.68055080801569"><ele>409.0</ele><time>2026-03-22T07:45:36Z</time></trkpt><trkpt lat="46.168265501908095" lon="12.68063910767084"><ele>409.0</ele><time>2026-03-22T07:45:38Z</time></trkpt><trkpt lat="46.168233210171344" lon="12.680823274129613"><ele>409.0</ele><time>2026-03-22T07:45:40Z</time></trkpt><trkpt lat="46.16817473043447" lon="12.680946611130704"><ele>409.0</ele><time>2026-03-22T07:45:41Z</time></trkpt><trkpt lat="46.168161007791475" lon="12.681057411776433"><ele>409.0</ele><time>2026-03-22T07:45:42Z</time></trkpt><trkpt lat="46.16819718400587" lon="12.681141830939145"><ele>412.4</ele><time>2026-03-22T07:45:43Z</time></trkpt><trkpt lat="46.168281122256744" lon="12.68123138695513"><ele>415.79999999999995</ele><time>2026-03-22T07:45:44Z</time></trkpt><trkpt lat="46.1683705095137" lon="12.681338954053013"><ele>419.20000000000005</ele><time>2026-03-22T07:45:45Z</time></trkpt><trkpt lat="46.168424499657505" lon="12.681410356867085"><ele>422.6</ele><time>2026-03-22T07:45:46Z</time></trkpt><trkpt lat="46.16845531684961" lon="12.681496973672639"><ele>426.0</ele><time>2026-03-22T07:45:47Z</time></trkpt><trkpt lat="46.16852213109078" lon="12.681630192254426"><ele>426.0</ele><time>2026-03-22T07:45:49Z</time></trkpt><trkpt lat="46.16855898380795" lon="12.681710178971576"><ele>426.0</ele><time>2026-03-22T07:45:50Z</time></trkpt><trkpt lat="46.16860513463649" lon="12.6817909870098"><ele>426.0</ele><time>2026-03-22T07:45:51Z</time></trkpt><trkpt lat="46.16863200898477" lon="12.681896665512777"><ele>426.0</ele><time>2026-03-22T07:45:52Z</time></trkpt><trkpt lat="46.1686810320678" lon="12.682032598264104"><ele>426.0</ele><time>2026-03-22T07:45:53Z</time></trkpt><trkpt lat="46.16875465235397" lon="12.682204548256513"><ele>428.0</ele><time>2026-03-22T07:45:54Z</time></trkpt><trkpt lat="46.16881358600522" lon="12.682380722903593"><ele>430.0</ele><time>2026-03-22T07:45:55Z</time></trkpt><trkpt lat="46.16885962438147" lon="12.68257955370172"><ele>432.0</ele><time>2026-03-22T07:45:56Z</time></trkpt><trkpt lat="46.16888005515209" lon="12.682796480018274"><ele>434.0</ele><time>2026-03-22T07:45:57Z</time></trkpt><trkpt lat="46.16890009852559" lon="12.683021156816544"><ele>434.0</ele><time>2026-03-22T07:45:58Z</time></trkpt><trkpt lat="46.168914913708626" lon="12.683232000685873"><ele>434.0</ele><time>2026-03-22T07:45:59Z</time></trkpt><trkpt lat="46.168940079755174" lon="12.683424738323096"><ele>434.0</ele><time>2026-03-22T07:46:00Z</time></trkpt><trkpt lat="46.168968965386696" lon="12.683589874857946"><ele>434.0</ele><time>2026-03-22T07:46:01Z</time></trkpt><trkpt lat="46.16899877382459" lon="12.683735416551489"><ele>433.8333333333333</ele><time>2026-03-22T07:46:02Z</time></trkpt><trkpt lat="46.16902549888464" lon="12.683864736402912"><ele>433.66666666666663</ele><time>2026-03-22T07:46:03Z</time></trkpt><trkpt lat="46.1690603733293" lon="12.68397259756884"><ele>433.5</ele><time>2026-03-22T07:46:04Z</time></trkpt><trkpt lat="46.16909806402196" lon="12.684045523612376"><ele>433.33333333333337</ele><time>2026-03-22T07:46:05Z</time></trkpt><trkpt lat="46.16917033182131" lon="12.684109760845688"><ele>433.1666666666667</ele><time>2026-03-22T07:46:07Z</time></trkpt><trkpt lat="46.16923189838504" lon="12.684085310946207"><ele>433.0</ele><time>2026-03-22T07:46:08Z</time></trkpt><trkpt lat="46.16928492872497" lon="12.68400502647853"><ele>433.0</ele><time>2026-03-22T07:46:09Z</time></trkpt><trkpt lat="46.16929714510017" lon="12.683839331369859"><ele>433.0</ele><time>2026-03-22T07:46:10Z</time></trkpt><trkpt lat="46.16930357730819" lon="12.683658115962823"><ele>433.0</ele><time>2026-03-22T07:46:11Z</time></trkpt><trkpt lat="46.16929707695673" lon="12.683458739354155"><ele>433.0</ele><time>2026-03-22T07:46:12Z</time></trkpt><trkpt lat="46.16926976936951" lon="12.683256565590712"><ele>433.79999999999995</ele><time>2026-03-22T07:46:13Z</time></trkpt><trkpt lat="46.16923001992902" lon="12.68307720871647"><ele>434.59999999999997</ele><time>2026-03-22T07:46:14Z</time></trkpt><trkpt lat="46.16920719945933" lon="12.682949762610845"><ele>435.40000000000003</ele><time>2026-03-22T07:46:15Z</time></trkpt><trkpt lat="46.169198544402136" lon="12.682857576531678"><ele>436.20000000000005</ele><time>2026-03-22T07:46:16Z</time></trkpt><trkpt lat="46.16924176151865" lon="12.682780840522199"><ele>437.0</ele><time>2026-03-22T07:46:18Z</time></trkpt><trkpt lat="46.169333076769576" lon="12.682886202116462"><ele>437.0</ele><time>2026-03-22T07:46:20Z</time></trkpt><trkpt lat="46.16936779474841" lon="12.6830636778123"><ele>437.0</ele><time>2026-03-22T07:46:21Z</time></trkpt><trkpt lat="46.16942932183255" lon="12.683229041489128"><ele>437.0</ele><time>2026-03-22T07:46:22Z</time></trkpt><trkpt lat="46.16950744533199" lon="12.683432998512092"><ele>437.0</ele><time>2026-03-22T07:46:23Z</time></trkpt><trkpt lat="46.16958714831206" lon="12.683653423626152"><ele>436.0</ele><time>2026-03-22T07:46:24Z</time></trkpt><trkpt lat="46.169655793002626" lon="12.683874134402707"><ele>435.0</ele><time>2026-03-22T07:46:25Z</time></trkpt><trkpt lat="46.16971828975096" lon="12.684055798503964"><ele>434.0</ele><time>2026-03-22T07:46:26Z</time></trkpt><trkpt lat="46.16977081897395" lon="12.684206234889656"><ele>433.0</ele><time>2026-03-22T07:46:27Z</time></trkpt><trkpt lat="46.16982208881576" lon="12.684335224207171"><ele>435.50000000000006</ele><time>2026-03-22T07:46:28Z</time></trkpt><trkpt lat="46.169868666768345" lon="12.684410726880138"><ele>438.0</ele><time>2026-03-22T07:46:29Z</time></trkpt><trkpt lat="46.16993949316471" lon="12.684454934793118"><ele>440.5</ele><time>2026-03-22T07:46:30Z</time></trkpt><trkpt lat="46.17001421886355" lon="12.6844759106308"><ele>443.0</ele><time>2026-03-22T07:46:31Z</time></trkpt><trkpt lat="46.170098492554146" lon="12.684432748144788"><ele>445.50000000000006</ele><time>2026-03-22T07:46:32Z</time></trkpt><trkpt lat="46.17014821546981" lon="12.684371833923809"><ele>448.0</ele><time>2026-03-22T07:46:33Z</time></trkpt><trkpt lat="46.17018447654915" lon="12.684273930718842"><ele>448.79999999999995</ele><time>2026-03-22T07:46:34Z</time></trkpt><trkpt lat="46.170185942290814" lon="12.684137628440693"><ele>449.59999999999997</ele><time>2026-03-22T07:46:35Z</time></trkpt><trkpt lat="46.170150585328074" lon="12.684001590888922"><ele>450.40000000000003</ele><time>2026-03-22T07:46:36Z</time></trkpt><trkpt lat="46.17013672040035" lon="12.683890105003712"><ele>451.20000000000005</ele><time>2026-03-22T07:46:37Z</time></trkpt><trkpt lat="46.1701642331554" lon="12.683796501844046"><ele>452.0</ele><time>2026-03-22T07:46:39Z</time></trkpt><trkpt lat="46.17027007119288" lon="12.683802612048202"><ele>452.0</ele><time>2026-03-22T07:46:41Z</time></trkpt><trkpt lat="46.17034777411704" lon="12.683964311405287"><ele>452.0</ele><time>2026-03-22T07:46:43Z</time></trkpt><trkpt lat="46.170397939558654" lon="12.684093949435873"><ele>452.0</ele><time>2026-03-22T07:46:44Z</time></trkpt><trkpt lat="46.17046007138871" lon="12.684274990633886"><ele>452.0</ele><time>2026-03-22T07:46:45Z</time></trkpt><trkpt lat="46.17053716020166" lon="12.684496429914564"><ele>450.66666666666663</ele><time>2026-03-22T07:46:46Z</time></trkpt><trkpt lat="46.17062966330738" lon="12.684765852934357"><ele>449.33333333333337</ele><time>2026-03-22T07:46:47Z</time></trkpt><trkpt lat="46.17072989117732" lon="12.685062215588413"><ele>448.0</ele><time>2026-03-22T07:46:48Z</time></trkpt><trkpt lat="46.1708101483075" lon="12.685295859546082"><ele>451.75</ele><time>2026-03-22T07:46:49Z</time></trkpt><trkpt lat="46.1708805854215" lon="12.68549970464372"><ele>455.5</ele><time>2026-03-22T07:46:50Z</time></trkpt><trkpt lat="46.17093803589625" lon="12.685656075854167"><ele>459.25</ele><time>2026-03-22T07:46:51Z</time></trkpt><trkpt lat="46.171012753920856" lon="12.68575908946438"><ele>463.0</ele><time>2026-03-22T07:46:52Z</time></trkpt><trkpt lat="46.17109394149669" lon="12.685870361851729"><ele>463.0</ele><time>2026-03-22T07:46:53Z</time></trkpt><trkpt lat="46.17116889588616" lon="12.685945162946958"><ele>463.0</ele><time>2026-03-22T07:46:54Z</time></trkpt><trkpt lat="46.17129246387592" lon="12.686125749897121"><ele>463.0</ele><time>2026-03-22T07:46:55Z</time></trkpt><trkpt lat="46.17134282569524" lon="12.686241837071007"><ele>463.0</ele><time>2026-03-22T07:46:56Z</time></trkpt><trkpt lat="46.17140507251204" lon="12.686434141072576"><ele>463.25</ele><time>2026-03-22T07:46:57Z</time></trkpt><trkpt lat="46.17143129572656" lon="12.686631570924037"><ele>463.5</ele><time>2026-03-22T07:46:58Z</time></trkpt><trkpt lat="46.1714734795648" lon="12.686781439076434"><ele>463.75</ele><time>2026-03-22T07:46:59Z</time></trkpt><trkpt lat="46.17151061349794" lon="12.686912692441487"><ele>464.0</ele><time>2026-03-22T07:47:00Z</time></trkpt><trkpt lat="46.17158098004014" lon="12.687045894487289"><ele>467.79999999999995</ele><time>2026-03-22T07:47:01Z</time></trkpt><trkpt lat="46.17165850088028" lon="12.687175384793132"><ele>471.59999999999997</ele><time>2026-03-22T07:47:02Z</time></trkpt><trkpt lat="46.17172336093968" lon="12.68729714828844"><ele>475.4</ele><time>2026-03-22T07:47:03Z</time></trkpt><trkpt lat="46.17177702975391" lon="12.687416490272943"><ele>479.2</ele><time>2026-03-22T07:47:04Z</time></trkpt><trkpt lat="46.17181529332733" lon="12.687545023637425"><ele>483.0</ele><time>2026-03-22T07:47:05Z</time></trkpt><trkpt lat="46.17180550326919" lon="12.6876752262447"><ele>481.75</ele><time>2026-03-22T07:47:06Z</time></trkpt><trkpt lat="46.171797967434706" lon="12.687833323558285"><ele>480.5</ele><time>2026-03-22T07:47:07Z</time></trkpt><trkpt lat="46.17179335187921" lon="12.688020887586626"><ele>479.25</ele><time>2026-03-22T07:47:08Z</time></trkpt><trkpt lat="46.171800480291516" lon="12.688234765605177"><ele>478.0</ele><time>2026-03-22T07:47:09Z</time></trkpt><trkpt lat="46.17178911028028" lon="12.688461533907901"><ele>476.6666666666667</ele><time>2026-03-22T07:47:10Z</time></trkpt><trkpt lat="46.17177716048202" lon="12.688688213063756"><ele>475.33333333333337</ele><time>2026-03-22T07:47:11Z</time></trkpt><trkpt lat="46.17175869181722" lon="12.688903048653707"><ele>474.0</ele><time>2026-03-22T07:47:12Z</time></trkpt><trkpt lat="46.17177463959508" lon="12.689157610313503"><ele>474.0</ele><time>2026-03-22T07:47:13Z</time></trkpt><trkpt lat="46.17179891873421" lon="12.68938454964109"><ele>474.0</ele><time>2026-03-22T07:47:14Z</time></trkpt><trkpt lat="46.171816664589656" lon="12.689587416886468"><ele>474.0</ele><time>2026-03-22T07:47:15Z</time></trkpt><trkpt lat="46.171834587548936" lon="12.689776267131702"><ele>474.0</ele><time>2026-03-22T07:47:16Z</time></trkpt><trkpt lat="46.17185348159647" lon="12.689964716842331"><ele>474.2</ele><time>2026-03-22T07:47:17Z</time></trkpt><trkpt lat="46.171885609844416" lon="12.690147792842941"><ele>474.4</ele><time>2026-03-22T07:47:18Z</time></trkpt><trkpt lat="46.17191738522926" lon="12.69030149791093"><ele>474.6</ele><time>2026-03-22T07:47:19Z</time></trkpt><trkpt lat="46.171942069045656" lon="12.690428966536805"><ele>474.8</ele><time>2026-03-22T07:47:20Z</time></trkpt><trkpt lat="46.171977248401674" lon="12.69053951082239"><ele>475.0</ele><time>2026-03-22T07:47:21Z</time></trkpt><trkpt lat="46.17199890807675" lon="12.690647048997805"><ele>474.6</ele><time>2026-03-22T07:47:22Z</time></trkpt><trkpt lat="46.172080150807325" lon="12.690733507198098"><ele>474.2</ele><time>2026-03-22T07:47:23Z</time></trkpt><trkpt lat="46.17214799543282" lon="12.690832660002895"><ele>473.79999999999995</ele><time>2026-03-22T07:47:24Z</time></trkpt><trkpt lat="46.17223679933625" lon="12.690939086059656"><ele>473.4</ele><time>2026-03-22T07:47:25Z</time></trkpt><trkpt lat="46.17230982758229" lon="12.691047902021612"><ele>473.0</ele><time>2026-03-22T07:47:26Z</time></trkpt><trkpt lat="46.1723704841172" lon="12.691142091031443"><ele>473.0</ele><time>2026-03-22T07:47:27Z</time></trkpt><trkpt lat="46.17242046715305" lon="12.691237170300944"><ele>472.99999999999994</ele><time>2026-03-22T07:47:28Z</time></trkpt><trkpt lat="46.17246057820496" lon="12.691324330187014"><ele>472.99999999999994</ele><time>2026-03-22T07:47:29Z</time></trkpt><trkpt lat="46.172500524751776" lon="12.69142224173885"><ele>473.0</ele><time>2026-03-22T07:47:31Z</time></trkpt><trkpt lat="46.1726319222748" lon="12.691429865323329"><ele>473.0</ele><time>2026-03-22T07:48:42Z</time></trkpt><trkpt lat="46.17273395795263" lon="12.691364230738404"><ele>472.99999999999994</ele><time>2026-03-22T07:48:44Z</time></trkpt><trkpt lat="46.17285024255938" lon="12.691299045697141"><ele>473.0</ele><time>2026-03-22T07:48:46Z</time></trkpt><trkpt lat="46.172922845062224" lon="12.691260537224695"><ele>473.0</ele><time>2026-03-22T07:48:47Z</time></trkpt><trkpt lat="46.17298455221336" lon="12.691204363166378"><ele>473.0</ele><time>2026-03-22T07:48:48Z</time></trkpt><trkpt lat="46.17306247858597" lon="12.69117148336488"><ele>472.99999999999994</ele><time>2026-03-22T07:48:49Z</time></trkpt><trkpt lat="46.17313515288218" lon="12.691107318082858"><ele>473.0</ele><time>2026-03-22T07:48:50Z</time></trkpt><trkpt lat="46.173197383313465" lon="12.691063418992027"><ele>475.8333333333333</ele><time>2026-03-22T07:48:51Z</time></trkpt><trkpt lat="46.1732531400854" lon="12.691017600369566"><ele>478.66666666666663</ele><time>2026-03-22T07:48:52Z</time></trkpt><trkpt lat="46.17331911073336" lon="12.69088586735212"><ele>481.5</ele><time>2026-03-22T07:48:54Z</time></trkpt><trkpt lat="46.17333898235458" lon="12.69079399437492"><ele>484.33333333333337</ele><time>2026-03-22T07:48:55Z</time></trkpt><trkpt lat="46.17336882309292" lon="12.690674768143797"><ele>487.1666666666667</ele><time>2026-03-22T07:48:56Z</time></trkpt><trkpt lat="46.17337927063702" lon="12.690559482657408"><ele>490.0</ele><time>2026-03-22T07:48:57Z</time></trkpt><trkpt lat="46.17338430714834" lon="12.69044018874269"><ele>490.0</ele><time>2026-03-22T07:48:58Z</time></trkpt><trkpt lat="46.17337751593886" lon="12.690307112567526"><ele>490.0</ele><time>2026-03-22T07:48:59Z</time></trkpt><trkpt lat="46.173351633314816" lon="12.690170720875326"><ele>490.0</ele><time>2026-03-22T07:49:00Z</time></trkpt><trkpt lat="46.17332216943182" lon="12.690030548526044"><ele>490.0</ele><time>2026-03-22T07:49:01Z</time></trkpt><trkpt lat="46.17327973313222" lon="12.689898722160319"><ele>490.0</ele><time>2026-03-22T07:49:02Z</time></trkpt><trkpt lat="46.17324405448437" lon="12.689763605819083"><ele>489.4</ele><time>2026-03-22T07:49:03Z</time></trkpt><trkpt lat="46.17322894951308" lon="12.68962002934517"><ele>488.8</ele><time>2026-03-22T07:49:04Z</time></trkpt><trkpt lat="46.17320075707073" lon="12.689493631380593"><ele>488.20000000000005</ele><time>2026-03-22T07:49:05Z</time></trkpt><trkpt lat="46.17317471636906" lon="12.689356490884824"><ele>487.6</ele><time>2026-03-22T07:49:06Z</time></trkpt><trkpt lat="46.1731351212956" lon="12.689226047313479"><ele>487.0</ele><time>2026-03-22T07:49:07Z</time></trkpt><trkpt lat="46.17310615763811" lon="12.689094354444403"><ele>487.0</ele><time>2026-03-22T07:49:08Z</time></trkpt><trkpt lat="46.17307688086377" lon="12.688964001696844"><ele>487.00000000000006</ele><time>2026-03-22T07:49:09Z</time></trkpt><trkpt lat="46.173041903149034" lon="12.688819151095007"><ele>487.00000000000006</ele><time>2026-03-22T07:49:10Z</time></trkpt><trkpt lat="46.173014851108476" lon="12.688676792272513"><ele>487.0</ele><time>2026-03-22T07:49:11Z</time></trkpt><trkpt lat="46.17298427343054" lon="12.688526770892928"><ele>487.0</ele><time>2026-03-22T07:49:12Z</time></trkpt><trkpt lat="46.17296663903568" lon="12.688363615408313"><ele>488.5</ele><time>2026-03-22T07:49:13Z</time></trkpt><trkpt lat="46.172933840039974" lon="12.688205523178556"><ele>490.0</ele><time>2026-03-22T07:49:14Z</time></trkpt><trkpt lat="46.17290467243092" lon="12.688044496417966"><ele>491.5</ele><time>2026-03-22T07:49:15Z</time></trkpt><trkpt lat="46.172863534966154" lon="12.687886019341933"><ele>493.0</ele><time>2026-03-22T07:49:16Z</time></trkpt><trkpt lat="46.1728439870646" lon="12.687707797712505"><ele>495.0</ele><time>2026-03-22T07:49:17Z</time></trkpt><trkpt lat="46.17281722283325" lon="12.687527062927305"><ele>497.0</ele><time>2026-03-22T07:49:18Z</time></trkpt><trkpt lat="46.17281137050352" lon="12.687352863452599"><ele>499.0</ele><time>2026-03-22T07:49:19Z</time></trkpt><trkpt lat="46.172776621874426" lon="12.68718635885096"><ele>501.0</ele><time>2026-03-22T07:49:20Z</time></trkpt><trkpt lat="46.1727683514153" lon="12.687000764899"><ele>503.0</ele><time>2026-03-22T07:49:21Z</time></trkpt><trkpt lat="46.17273952981856" lon="12.686828314178541"><ele>505.0</ele><time>2026-03-22T07:49:22Z</time></trkpt><trkpt lat="46.17271091537483" lon="12.686664206459458"><ele>507.0</ele><time>2026-03-22T07:49:23Z</time></trkpt><trkpt lat="46.17269979302779" lon="12.686491591870437"><ele>509.0</ele><time>2026-03-22T07:49:24Z</time></trkpt><trkpt lat="46.17266944062565" lon="12.686301353896575"><ele>509.0</ele><time>2026-03-22T07:49:25Z</time></trkpt><trkpt lat="46.172660483282634" lon="12.6861119826245"><ele>509.0</ele><time>2026-03-22T07:49:26Z</time></trkpt><trkpt lat="46.172634892703414" lon="12.68592801262874"><ele>509.0</ele><time>2026-03-22T07:49:27Z</time></trkpt><trkpt lat="46.17262831006806" lon="12.685737670870116"><ele>509.0</ele><time>2026-03-22T07:49:28Z</time></trkpt><trkpt lat="46.17261090534375" lon="12.68555281237695"><ele>511.75</ele><time>2026-03-22T07:49:29Z</time></trkpt><trkpt lat="46.1725831956167" lon="12.685372375051276"><ele>514.5</ele><time>2026-03-22T07:49:30Z</time></trkpt><trkpt lat="46.17255664749469" lon="12.685180528397145"><ele>517.25</ele><time>2026-03-22T07:49:31Z</time></trkpt><trkpt lat="46.17254539340903" lon="12.68498255368852"><ele>520.0</ele><time>2026-03-22T07:49:32Z</time></trkpt><trkpt lat="46.17252633404215" lon="12.684784005585945"><ele>523.5</ele><time>2026-03-22T07:49:33Z</time></trkpt><trkpt lat="46.17250913333999" lon="12.684591987351556"><ele>527.0</ele><time>2026-03-22T07:49:34Z</time></trkpt><trkpt lat="46.17249117653034" lon="12.684404634630557"><ele>530.5</ele><time>2026-03-22T07:49:35Z</time></trkpt><trkpt lat="46.17245800222861" lon="12.684217549067144"><ele>534.0</ele><time>2026-03-22T07:49:36Z</time></trkpt><trkpt lat="46.172433620824435" lon="12.684039789559526"><ele>536.25</ele><time>2026-03-22T07:49:37Z</time></trkpt><trkpt lat="46.17242120885398" lon="12.68386640305725"><ele>538.5</ele><time>2026-03-22T07:49:38Z</time></trkpt><trkpt lat="46.17239007243549" lon="12.683687305034839"><ele>540.75</ele><time>2026-03-22T07:49:39Z</time></trkpt><trkpt lat="46.17237440490794" lon="12.683514492063562"><ele>543.0</ele><time>2026-03-22T07:49:40Z</time></trkpt><trkpt lat="46.17236032583554" lon="12.683340643600692"><ele>545.75</ele><time>2026-03-22T07:49:41Z</time></trkpt><trkpt lat="46.17235184495537" lon="12.683169799893484"><ele>548.5</ele><time>2026-03-22T07:49:42Z</time></trkpt><trkpt lat="46.172357948530966" lon="12.682999347644685"><ele>551.25</ele><time>2026-03-22T07:49:43Z</time></trkpt><trkpt lat="46.17235403944585" lon="12.682843617810233"><ele>554.0</ele><time>2026-03-22T07:49:44Z</time></trkpt><trkpt lat="46.17235511423491" lon="12.68267830540365"><ele>554.0</ele><time>2026-03-22T07:49:45Z</time></trkpt><trkpt lat="46.17235448598964" lon="12.68250039954208"><ele>554.0</ele><time>2026-03-22T07:49:46Z</time></trkpt><trkpt lat="46.17235179867306" lon="12.682348852993577"><ele>554.0</ele><time>2026-03-22T07:49:47Z</time></trkpt><trkpt lat="46.17236164017504" lon="12.682257307131568"><ele>554.0</ele><time>2026-03-22T07:49:48Z</time></trkpt><trkpt lat="46.172374798310464" lon="12.682164193364159"><ele>554.0</ele><time>2026-03-22T07:49:49Z</time></trkpt><trkpt lat="46.17244938290115" lon="12.682124025923628"><ele>554.0</ele><time>2026-03-22T07:49:51Z</time></trkpt><trkpt lat="46.17249814764065" lon="12.682218450526404"><ele>554.0</ele><time>2026-03-22T07:49:53Z</time></trkpt><trkpt lat="46.17247285798558" lon="12.68241373582464"><ele>554.0</ele><time>2026-03-22T07:49:55Z</time></trkpt><trkpt lat="46.17247052469503" lon="12.682548256571202"><ele>554.0</ele><time>2026-03-22T07:49:56Z</time></trkpt><trkpt lat="46.17248571102007" lon="12.682696556822094"><ele>554.0</ele><time>2026-03-22T07:49:57Z</time></trkpt><trkpt lat="46.1724980037224" lon="12.682872452920273"><ele>554.0</ele><time>2026-03-22T07:49:58Z</time></trkpt><trkpt lat="46.17252597955273" lon="12.683023690490673"><ele>554.0</ele><time>2026-03-22T07:49:59Z</time></trkpt><trkpt lat="46.17256336312138" lon="12.683186921119146"><ele>554.0</ele><time>2026-03-22T07:50:00Z</time></trkpt><trkpt lat="46.172610637602126" lon="12.683349269687215"><ele>554.0</ele><time>2026-03-22T07:50:01Z</time></trkpt><trkpt lat="46.172665904336" lon="12.68352552808563"><ele>551.25</ele><time>2026-03-22T07:50:02Z</time></trkpt><trkpt lat="46.17273536523699" lon="12.683696095860098"><ele>548.5</ele><time>2026-03-22T07:50:03Z</time></trkpt><trkpt lat="46.17279993246004" lon="12.68387855808347"><ele>545.75</ele><time>2026-03-22T07:50:04Z</time></trkpt><trkpt lat="46.17284233095223" lon="12.684048899403926"><ele>543.0</ele><time>2026-03-22T07:50:05Z</time></trkpt><trkpt lat="46.1728863155662" lon="12.68420138892268"><ele>543.0</ele><time>2026-03-22T07:50:06Z</time></trkpt><trkpt lat="46.17294812031348" lon="12.684348284183958"><ele>543.0</ele><time>2026-03-22T07:50:07Z</time></trkpt><trkpt lat="46.173006070592955" lon="12.684501498564492"><ele>543.0</ele><time>2026-03-22T07:50:08Z</time></trkpt><trkpt lat="46.17308445261552" lon="12.684640393874464"><ele>543.0</ele><time>2026-03-22T07:50:09Z</time></trkpt><trkpt lat="46.1731458925153" lon="12.684801959534743"><ele>550.25</ele><time>2026-03-22T07:50:10Z</time></trkpt><trkpt lat="46.173208693201325" lon="12.684956461517073"><ele>557.5</ele><time>2026-03-22T07:50:11Z</time></trkpt><trkpt lat="46.17327148575146" lon="12.685113053498146"><ele>564.75</ele><time>2026-03-22T07:50:12Z</time></trkpt><trkpt lat="46.1733345552366" lon="12.685277287310985"><ele>572.0</ele><time>2026-03-22T07:50:13Z</time></trkpt><trkpt lat="46.17339670583058" lon="12.685435599043856"><ele>572.0</ele><time>2026-03-22T07:50:14Z</time></trkpt><trkpt lat="46.17347450183931" lon="12.685595139628354"><ele>572.0</ele><time>2026-03-22T07:50:15Z</time></trkpt><trkpt lat="46.17356612502726" lon="12.685747014397135"><ele>572.0</ele><time>2026-03-22T07:50:16Z</time></trkpt><trkpt lat="46.17365637626945" lon="12.685891792962108"><ele>572.0</ele><time>2026-03-22T07:50:17Z</time></trkpt><trkpt lat="46.17371915969738" lon="12.686040376896917"><ele>568.25</ele><time>2026-03-22T07:50:18Z</time></trkpt><trkpt lat="46.17377177240408" lon="12.686193886551173"><ele>564.5</ele><time>2026-03-22T07:50:19Z</time></trkpt><trkpt lat="46.17381578448816" lon="12.686348358417387"><ele>560.75</ele><time>2026-03-22T07:50:20Z</time></trkpt><trkpt lat="46.173874308964926" lon="12.6864985629045"><ele>557.0</ele><time>2026-03-22T07:50:21Z</time></trkpt><trkpt lat="46.17393949804782" lon="12.686659138480286"><ele>557.0</ele><time>2026-03-22T07:50:22Z</time></trkpt><trkpt lat="46.17401280130132" lon="12.686810393062625"><ele>557.0</ele><time>2026-03-22T07:50:23Z</time></trkpt><trkpt lat="46.174076617255444" lon="12.686957691764524"><ele>557.0</ele><time>2026-03-22T07:50:24Z</time></trkpt><trkpt lat="46.174142191345744" lon="12.687114822245197"><ele>557.0</ele><time>2026-03-22T07:50:25Z</time></trkpt><trkpt lat="46.17419177098925" lon="12.687303402222666"><ele>563.75</ele><time>2026-03-22T07:50:26Z</time></trkpt><trkpt lat="46.17424639107676" lon="12.687476093293862"><ele>570.5</ele><time>2026-03-22T07:50:27Z</time></trkpt><trkpt lat="46.174288707382814" lon="12.687660079683672"><ele>577.25</ele><time>2026-03-22T07:50:28Z</time></trkpt><trkpt lat="46.17432988377871" lon="12.687845467009517"><ele>584.0</ele><time>2026-03-22T07:50:29Z</time></trkpt><trkpt lat="46.174402305252606" lon="12.687982091359434"><ele>584.0</ele><time>2026-03-22T07:50:30Z</time></trkpt><trkpt lat="46.17446311328706" lon="12.688151792556788"><ele>584.0</ele><time>2026-03-22T07:50:31Z</time></trkpt><trkpt lat="46.17449864683919" lon="12.6883060764355"><ele>584.0</ele><time>2026-03-22T07:50:32Z</time></trkpt><trkpt lat="46.174549199636886" lon="12.688438179036485"><ele>584.0</ele><time>2026-03-22T07:50:33Z</time></trkpt><trkpt lat="46.17460645642478" lon="12.688564103523634"><ele>580.6</ele><time>2026-03-22T07:50:34Z</time></trkpt><trkpt lat="46.17467394813877" lon="12.688693478209606"><ele>577.2</ele><time>2026-03-22T07:50:35Z</time></trkpt><trkpt lat="46.17474284078983" lon="12.688786158299497"><ele>573.8000000000001</ele><time>2026-03-22T07:50:36Z</time></trkpt><trkpt lat="46.174796933894825" lon="12.688885253444631"><ele>570.4</ele><time>2026-03-22T07:50:37Z</time></trkpt><trkpt lat="46.1748496286373" lon="12.688964384915339"><ele>567.0</ele><time>2026-03-22T07:50:38Z</time></trkpt><trkpt lat="46.174918513288986" lon="12.689033396468975"><ele>574.1666666666666</ele><time>2026-03-22T07:50:39Z</time></trkpt><trkpt lat="46.17500527610187" lon="12.68907476081414"><ele>581.3333333333334</ele><time>2026-03-22T07:50:40Z</time></trkpt><trkpt lat="46.17509763710892" lon="12.68908761485353"><ele>588.5</ele><time>2026-03-22T07:50:41Z</time></trkpt><trkpt lat="46.17519312630295" lon="12.689086179610984"><ele>595.6666666666667</ele><time>2026-03-22T07:50:42Z</time></trkpt><trkpt lat="46.17528390872815" lon="12.68906598162475"><ele>602.8333333333334</ele><time>2026-03-22T07:50:43Z</time></trkpt><trkpt lat="46.175361495010755" lon="12.689062278140531"><ele>610.0</ele><time>2026-03-22T07:50:44Z</time></trkpt><trkpt lat="46.175436805876096" lon="12.689096075142974"><ele>610.0</ele><time>2026-03-22T07:50:45Z</time></trkpt><trkpt lat="46.17546498394202" lon="12.689177561388608"><ele>610.0</ele><time>2026-03-22T07:50:46Z</time></trkpt><trkpt lat="46.17551572235504" lon="12.689366276723103"><ele>610.0</ele><time>2026-03-22T07:50:48Z</time></trkpt><trkpt lat="46.17556408868445" lon="12.689511034289085"><ele>610.0</ele><time>2026-03-22T07:50:49Z</time></trkpt><trkpt lat="46.175620093377546" lon="12.689675870597597"><ele>610.0</ele><time>2026-03-22T07:50:50Z</time></trkpt><trkpt lat="46.17568555423606" lon="12.68982193003731"><ele>613.2</ele><time>2026-03-22T07:50:51Z</time></trkpt><trkpt lat="46.17575678424511" lon="12.689921489838683"><ele>616.4</ele><time>2026-03-22T07:50:52Z</time></trkpt><trkpt lat="46.17580488908787" lon="12.690026761316647"><ele>619.6</ele><time>2026-03-22T07:50:53Z</time></trkpt><trkpt lat="46.175856427187846" lon="12.690117849489132"><ele>622.8</ele><time>2026-03-22T07:50:54Z</time></trkpt><trkpt lat="46.17587595435008" lon="12.69029621752386"><ele>626.0</ele><time>2026-03-22T07:50:56Z</time></trkpt><trkpt lat="46.17586556776187" lon="12.690401279123902"><ele>626.0</ele><time>2026-03-22T07:50:57Z</time></trkpt><trkpt lat="46.17585888231844" lon="12.69054442067736"><ele>626.0</ele><time>2026-03-22T07:50:58Z</time></trkpt><trkpt lat="46.17587529134299" lon="12.690685545440555"><ele>626.0</ele><time>2026-03-22T07:50:59Z</time></trkpt><trkpt lat="46.17590856209903" lon="12.690805130658022"><ele>626.0</ele><time>2026-03-22T07:51:00Z</time></trkpt><trkpt lat="46.17594500339954" lon="12.690935015343403"><ele>626.0</ele><time>2026-03-22T07:51:01Z</time></trkpt><trkpt lat="46.17598770185144" lon="12.691082780254376"><ele>623.4</ele><time>2026-03-22T07:51:02Z</time></trkpt><trkpt lat="46.17602667719791" lon="12.691211586853306"><ele>620.8</ele><time>2026-03-22T07:51:03Z</time></trkpt><trkpt lat="46.17606880096437" lon="12.691336020067705"><ele>618.1999999999999</ele><time>2026-03-22T07:51:04Z</time></trkpt><trkpt lat="46.17612077238155" lon="12.691447361483942"><ele>615.6</ele><time>2026-03-22T07:51:05Z</time></trkpt><trkpt lat="46.17618158213003" lon="12.691545654315629"><ele>613.0</ele><time>2026-03-22T07:51:06Z</time></trkpt><trkpt lat="46.17623763807619" lon="12.6916484912743"><ele>613.0</ele><time>2026-03-22T07:51:07Z</time></trkpt><trkpt lat="46.176303876978494" lon="12.691738668047787"><ele>613.0</ele><time>2026-03-22T07:51:08Z</time></trkpt><trkpt lat="46.17637158994814" lon="12.691816489649069"><ele>613.0</ele><time>2026-03-22T07:51:09Z</time></trkpt><trkpt lat="46.17645885960841" lon="12.691894833532098"><ele>613.0</ele><time>2026-03-22T07:51:10Z</time></trkpt><trkpt lat="46.176536693998955" lon="12.691945712488543"><ele>613.0</ele><time>2026-03-22T07:51:11Z</time></trkpt><trkpt lat="46.17660313160419" lon="12.691983228695433"><ele>613.0</ele><time>2026-03-22T07:51:12Z</time></trkpt><trkpt lat="46.17668221445073" lon="12.692070475876191"><ele>622.25</ele><time>2026-03-22T07:51:14Z</time></trkpt><trkpt lat="46.17664692547902" lon="12.692260295553174"><ele>631.5</ele><time>2026-03-22T07:51:16Z</time></trkpt><trkpt lat="46.17663485559221" lon="12.692421390313257"><ele>640.75</ele><time>2026-03-22T07:51:17Z</time></trkpt><trkpt lat="46.17661517026821" lon="12.692563058799275"><ele>650.0</ele><time>2026-03-22T07:51:18Z</time></trkpt><trkpt lat="46.17662071371303" lon="12.692715261623414"><ele>647.5</ele><time>2026-03-22T07:51:19Z</time></trkpt><trkpt lat="46.176635286908024" lon="12.692840188211767"><ele>645.0</ele><time>2026-03-22T07:51:20Z</time></trkpt><trkpt lat="46.17663874029725" lon="12.692963933066046"><ele>642.5</ele><time>2026-03-22T07:51:21Z</time></trkpt><trkpt lat="46.17668345717173" lon="12.69306661276453"><ele>640.0</ele><time>2026-03-22T07:51:22Z</time></trkpt><trkpt lat="46.17676330529006" lon="12.693138495748935"><ele>637.5</ele><time>2026-03-22T07:51:23Z</time></trkpt><trkpt lat="46.1768326571418" lon="12.693227392522408"><ele>635.0</ele><time>2026-03-22T07:51:24Z</time></trkpt><trkpt lat="46.1769074107084" lon="12.693298111825712"><ele>635.0</ele><time>2026-03-22T07:51:25Z</time></trkpt><trkpt lat="46.17695864690966" lon="12.693369077655507"><ele>635.0</ele><time>2026-03-22T07:51:26Z</time></trkpt><trkpt lat="46.177027873174204" lon="12.693377305294723"><ele>635.0</ele><time>2026-03-22T07:51:27Z</time></trkpt><trkpt lat="46.17715461531666" lon="12.693344785799908"><ele>635.0</ele><time>2026-03-22T07:51:29Z</time></trkpt><trkpt lat="46.17722785224451" lon="12.693298486418277"><ele>635.0</ele><time>2026-03-22T07:51:30Z</time></trkpt><trkpt lat="46.177313800219274" lon="12.693255513124118"><ele>635.0</ele><time>2026-03-22T07:51:31Z</time></trkpt><trkpt lat="46.177406536751796" lon="12.693228040010899"><ele>639.4285714285713</ele><time>2026-03-22T07:51:32Z</time></trkpt><trkpt lat="46.17749301801579" lon="12.693178923443728"><ele>643.8571428571429</ele><time>2026-03-22T07:51:33Z</time></trkpt><trkpt lat="46.17756070886758" lon="12.693156030000054"><ele>648.2857142857142</ele><time>2026-03-22T07:51:34Z</time></trkpt><trkpt lat="46.177627060500946" lon="12.69314334598769"><ele>652.7142857142857</ele><time>2026-03-22T07:51:35Z</time></trkpt><trkpt lat="46.177692179360704" lon="12.69316726136739"><ele>657.1428571428571</ele><time>2026-03-22T07:51:36Z</time></trkpt><trkpt lat="46.177736831112604" lon="12.693232397612489"><ele>661.5714285714286</ele><time>2026-03-22T07:51:37Z</time></trkpt><trkpt lat="46.17775610309257" lon="12.693331758649009"><ele>666.0</ele><time>2026-03-22T07:51:38Z</time></trkpt><trkpt lat="46.177831604019325" lon="12.693453430323938"><ele>666.0</ele><time>2026-03-22T07:51:39Z</time></trkpt><trkpt lat="46.177894248603266" lon="12.693561263162325"><ele>666.0</ele><time>2026-03-22T07:51:40Z</time></trkpt><trkpt lat="46.17795446145945" lon="12.693674113420425"><ele>666.0</ele><time>2026-03-22T07:51:41Z</time></trkpt><trkpt lat="46.17804579375858" lon="12.69374668258514"><ele>666.0</ele><time>2026-03-22T07:51:42Z</time></trkpt><trkpt lat="46.17812070619703" lon="12.693825258998398"><ele>666.0</ele><time>2026-03-22T07:51:43Z</time></trkpt><trkpt lat="46.178188037882286" lon="12.693858684403521"><ele>666.1666666666666</ele><time>2026-03-22T07:51:44Z</time></trkpt><trkpt lat="46.17826630075427" lon="12.69390126551649"><ele>666.3333333333334</ele><time>2026-03-22T07:51:45Z</time></trkpt><trkpt lat="46.17833782996343" lon="12.693967134777285"><ele>666.5</ele><time>2026-03-22T07:51:46Z</time></trkpt><trkpt lat="46.17839651348092" lon="12.694031438367174"><ele>666.6666666666667</ele><time>2026-03-22T07:51:47Z</time></trkpt><trkpt lat="46.178461036725814" lon="12.694089403918332"><ele>666.8333333333334</ele><time>2026-03-22T07:51:48Z</time></trkpt><trkpt lat="46.17852772568806" lon="12.694109893959727"><ele>667.0</ele><time>2026-03-22T07:51:49Z</time></trkpt><trkpt lat="46.17859312620672" lon="12.694152279473661"><ele>667.0000000000001</ele><time>2026-03-22T07:51:50Z</time></trkpt><trkpt lat="46.178647884085976" lon="12.69420960005868"><ele>667.0</ele><time>2026-03-22T07:51:51Z</time></trkpt><trkpt lat="46.17869594499782" lon="12.694269295717062"><ele>667.0</ele><time>2026-03-22T07:51:52Z</time></trkpt><trkpt lat="46.17873742147105" lon="12.69435127783617"><ele>667.0</ele><time>2026-03-22T07:51:53Z</time></trkpt><trkpt lat="46.17878534111991" lon="12.694434645044426"><ele>667.0</ele><time>2026-03-22T07:51:54Z</time></trkpt><trkpt lat="46.17884595322515" lon="12.694521724123536"><ele>667.0000000000001</ele><time>2026-03-22T07:51:55Z</time></trkpt><trkpt lat="46.17889515044038" lon="12.694604809130034"><ele>667.0</ele><time>2026-03-22T07:51:56Z</time></trkpt><trkpt lat="46.178971944848584" lon="12.694706837931804"><ele>670.25</ele><time>2026-03-22T07:51:57Z</time></trkpt><trkpt lat="46.17903051532561" lon="12.694823054926406"><ele>673.5</ele><time>2026-03-22T07:51:58Z</time></trkpt><trkpt lat="46.17911036894788" lon="12.694938617644125"><ele>676.75</ele><time>2026-03-22T07:51:59Z</time></trkpt><trkpt lat="46.17921064091261" lon="12.69505285996892"><ele>680.0</ele><time>2026-03-22T07:52:00Z</time></trkpt><trkpt lat="46.17931323147013" lon="12.695143861063864"><ele>680.0</ele><time>2026-03-22T07:52:01Z</time></trkpt><trkpt lat="46.17939768763425" lon="12.695239892895454"><ele>680.0</ele><time>2026-03-22T07:52:02Z</time></trkpt><trkpt lat="46.17947541612514" lon="12.695330415996198"><ele>680.0</ele><time>2026-03-22T07:52:03Z</time></trkpt><trkpt lat="46.179557379240954" lon="12.69542975463476"><ele>680.0</ele><time>2026-03-22T07:52:04Z</time></trkpt><trkpt lat="46.17963435076189" lon="12.695500578585909"><ele>680.0</ele><time>2026-03-22T07:52:05Z</time></trkpt><trkpt lat="46.179695402195115" lon="12.695559835573917"><ele>677.6666666666666</ele><time>2026-03-22T07:52:06Z</time></trkpt><trkpt lat="46.17976147863712" lon="12.695607796377189"><ele>675.3333333333333</ele><time>2026-03-22T07:52:07Z</time></trkpt><trkpt lat="46.179826994003044" lon="12.695625074701582"><ele>673.0</ele><time>2026-03-22T07:52:08Z</time></trkpt><trkpt lat="46.17989062300657" lon="12.695606409092795"><ele>670.6666666666666</ele><time>2026-03-22T07:52:09Z</time></trkpt><trkpt lat="46.17994879687478" lon="12.695547166492004"><ele>668.3333333333334</ele><time>2026-03-22T07:52:10Z</time></trkpt><trkpt lat="46.18002408219455" lon="12.695481169568847"><ele>666.0</ele><time>2026-03-22T07:52:11Z</time></trkpt><trkpt lat="46.18009264633687" lon="12.695381367260858"><ele>666.0</ele><time>2026-03-22T07:52:12Z</time></trkpt><trkpt lat="46.18017042131734" lon="12.695269055296768"><ele>666.0</ele><time>2026-03-22T07:52:13Z</time></trkpt><trkpt lat="46.18025269701928" lon="12.695162672836245"><ele>666.0</ele><time>2026-03-22T07:52:14Z</time></trkpt><trkpt lat="46.18031627239189" lon="12.69508038985152"><ele>666.0</ele><time>2026-03-22T07:52:15Z</time></trkpt><trkpt lat="46.18038869489061" lon="12.694974580994513"><ele>666.0</ele><time>2026-03-22T07:52:16Z</time></trkpt><trkpt lat="46.18045098075099" lon="12.694890432062046"><ele>672.0</ele><time>2026-03-22T07:52:17Z</time></trkpt><trkpt lat="46.180504979566805" lon="12.694779447906368"><ele>678.0</ele><time>2026-03-22T07:52:18Z</time></trkpt><trkpt lat="46.18055138121909" lon="12.694650776092605"><ele>684.0</ele><time>2026-03-22T07:52:19Z</time></trkpt><trkpt lat="46.180589721503246" lon="12.69452366155861"><ele>690.0</ele><time>2026-03-22T07:52:20Z</time></trkpt><trkpt lat="46.180638063550035" lon="12.694434019218928"><ele>696.0</ele><time>2026-03-22T07:52:21Z</time></trkpt><trkpt lat="46.18065924081656" lon="12.694340359667962"><ele>702.0</ele><time>2026-03-22T07:52:22Z</time></trkpt><trkpt lat="46.18066208049765" lon="12.694223404107715"><ele>702.0</ele><time>2026-03-22T07:52:24Z</time></trkpt><trkpt lat="46.1805563029666" lon="12.694202742689061"><ele>702.0</ele><time>2026-03-22T07:52:26Z</time></trkpt><trkpt lat="46.18052504176741" lon="12.694284442959178"><ele>702.0</ele><time>2026-03-22T07:52:27Z</time></trkpt><trkpt lat="46.180506621874464" lon="12.694382873849912"><ele>702.0</ele><time>2026-03-22T07:52:28Z</time></trkpt><trkpt lat="46.18046724810175" lon="12.694489995825979"><ele>702.0</ele><time>2026-03-22T07:52:29Z</time></trkpt><trkpt lat="46.18042299413488" lon="12.694594537441493"><ele>702.0</ele><time>2026-03-22T07:52:30Z</time></trkpt><trkpt lat="46.180367232102455" lon="12.694689387680674"><ele>702.0</ele><time>2026-03-22T07:52:31Z</time></trkpt><trkpt lat="46.18030227983806" lon="12.69475364808065"><ele>702.0</ele><time>2026-03-22T07:52:32Z</time></trkpt><trkpt lat="46.180231742327635" lon="12.694822088352698"><ele>702.0</ele><time>2026-03-22T07:52:33Z</time></trkpt><trkpt lat="46.180136639686474" lon="12.694882981722559"><ele>702.0</ele><time>2026-03-22T07:52:34Z</time></trkpt><trkpt lat="46.18003190792199" lon="12.694939564588777"><ele>702.0</ele><time>2026-03-22T07:52:35Z</time></trkpt><trkpt lat="46.17995119176758" lon="12.694973540590272"><ele>697.6</ele><time>2026-03-22T07:52:36Z</time></trkpt><trkpt lat="46.1798385380318" lon="12.694996805409135"><ele>693.2</ele><time>2026-03-22T07:52:38Z</time></trkpt><trkpt lat="46.17972662173318" lon="12.694933757108686"><ele>688.8</ele><time>2026-03-22T07:52:40Z</time></trkpt><trkpt lat="46.1796705250492" lon="12.69486866385745"><ele>684.4</ele><time>2026-03-22T07:52:41Z</time></trkpt><trkpt lat="46.17960380611014" lon="12.694785392050873"><ele>680.0</ele><time>2026-03-22T07:52:42Z</time></trkpt><trkpt lat="46.179549919821504" lon="12.694679891835625"><ele>680.0</ele><time>2026-03-22T07:52:43Z</time></trkpt><trkpt lat="46.17949526863725" lon="12.694557661345764"><ele>680.0</ele><time>2026-03-22T07:52:44Z</time></trkpt><trkpt lat="46.17943146486561" lon="12.69441708259726"><ele>680.0</ele><time>2026-03-22T07:52:45Z</time></trkpt><trkpt lat="46.17936141587665" lon="12.694238485716246"><ele>680.0</ele><time>2026-03-22T07:52:46Z</time></trkpt><trkpt lat="46.17928452016162" lon="12.694059558985726"><ele>684.5</ele><time>2026-03-22T07:52:47Z</time></trkpt><trkpt lat="46.17921696422693" lon="12.69387486831365"><ele>689.0</ele><time>2026-03-22T07:52:48Z</time></trkpt><trkpt lat="46.179148571905515" lon="12.693718824745947"><ele>693.5</ele><time>2026-03-22T07:52:49Z</time></trkpt><trkpt lat="46.17908462073751" lon="12.693586717908692"><ele>698.0</ele><time>2026-03-22T07:52:50Z</time></trkpt><trkpt lat="46.17899421868737" lon="12.693449236697218"><ele>698.0</ele><time>2026-03-22T07:52:51Z</time></trkpt><trkpt lat="46.178892523671145" lon="12.693324179774939"><ele>698.0</ele><time>2026-03-22T07:52:52Z</time></trkpt><trkpt lat="46.17879381824694" lon="12.69321278734042"><ele>698.0</ele><time>2026-03-22T07:52:53Z</time></trkpt><trkpt lat="46.17870092127219" lon="12.693096639057412"><ele>698.0</ele><time>2026-03-22T07:52:54Z</time></trkpt><trkpt lat="46.178633503028685" lon="12.693006647934604"><ele>698.0</ele><time>2026-03-22T07:52:55Z</time></trkpt><trkpt lat="46.178588887383015" lon="12.692927483943647"><ele>698.0</ele><time>2026-03-22T07:52:56Z</time></trkpt><trkpt lat="46.178552434621054" lon="12.692834752895017"><ele>698.0</ele><time>2026-03-22T07:52:57Z</time></trkpt><trkpt lat="46.178528130863356" lon="12.692731095831967"><ele>698.0</ele><time>2026-03-22T07:52:58Z</time></trkpt><trkpt lat="46.17849952129221" lon="12.692586168315172"><ele>698.0</ele><time>2026-03-22T07:52:59Z</time></trkpt><trkpt lat="46.17847974872437" lon="12.69242933313091"><ele>698.0</ele><time>2026-03-22T07:53:00Z</time></trkpt><trkpt lat="46.17845508079109" lon="12.692257148604789"><ele>706.0</ele><time>2026-03-22T07:53:01Z</time></trkpt><trkpt lat="46.17842723521181" lon="12.69207829881335"><ele>714.0</ele><time>2026-03-22T07:53:02Z</time></trkpt><trkpt lat="46.17839984415958" lon="12.691918891350202"><ele>722.0</ele><time>2026-03-22T07:53:03Z</time></trkpt><trkpt lat="46.178375837623314" lon="12.691771636432357"><ele>730.0</ele><time>2026-03-22T07:53:04Z</time></trkpt><trkpt lat="46.1783523967882" lon="12.691624754923584"><ele>728.4</ele><time>2026-03-22T07:53:05Z</time></trkpt><trkpt lat="46.17831418848771" lon="12.691476816860714"><ele>726.8</ele><time>2026-03-22T07:53:06Z</time></trkpt><trkpt lat="46.17827616237177" lon="12.691330905381099"><ele>725.2</ele><time>2026-03-22T07:53:07Z</time></trkpt><trkpt lat="46.178242687005934" lon="12.691188572445686"><ele>723.6</ele><time>2026-03-22T07:53:08Z</time></trkpt><trkpt lat="46.17820881970028" lon="12.691043344546348"><ele>722.0</ele><time>2026-03-22T07:53:09Z</time></trkpt><trkpt lat="46.17817441192577" lon="12.690898384751279"><ele>722.0</ele><time>2026-03-22T07:53:10Z</time></trkpt><trkpt lat="46.17812829593487" lon="12.69076988860639"><ele>722.0</ele><time>2026-03-22T07:53:11Z</time></trkpt><trkpt lat="46.17807485457683" lon="12.690670520032684"><ele>722.0</ele><time>2026-03-22T07:53:12Z</time></trkpt><trkpt lat="46.17800166029414" lon="12.690560858483861"><ele>722.0</ele><time>2026-03-22T07:53:13Z</time></trkpt><trkpt lat="46.17792360972329" lon="12.690458075180976"><ele>722.0</ele><time>2026-03-22T07:53:14Z</time></trkpt><trkpt lat="46.1778607899956" lon="12.69038825038165"><ele>722.0</ele><time>2026-03-22T07:53:15Z</time></trkpt><trkpt lat="46.17779103708923" lon="12.690305689429803"><ele>722.0</ele><time>2026-03-22T07:53:16Z</time></trkpt><trkpt lat="46.17774114348951" lon="12.69022764718568"><ele>722.0</ele><time>2026-03-22T07:53:17Z</time></trkpt><trkpt lat="46.17770564061351" lon="12.690151335563396"><ele>722.0</ele><time>2026-03-22T07:53:18Z</time></trkpt><trkpt lat="46.17766908652918" lon="12.690060124128813"><ele>722.0</ele><time>2026-03-22T07:53:19Z</time></trkpt><trkpt lat="46.177657718067785" lon="12.689965616745582"><ele>722.0</ele><time>2026-03-22T07:53:20Z</time></trkpt><trkpt lat="46.177643148727235" lon="12.689867786524681"><ele>722.0</ele><time>2026-03-22T07:53:21Z</time></trkpt><trkpt lat="46.177656498953894" lon="12.689675352905114"><ele>725.4000000000001</ele><time>2026-03-22T07:53:23Z</time></trkpt><trkpt lat="46.17767878710419" lon="12.689536664391973"><ele>728.8000000000001</ele><time>2026-03-22T07:53:24Z</time></trkpt><trkpt lat="46.17770539007386" lon="12.689385537179076"><ele>732.2</ele><time>2026-03-22T07:53:25Z</time></trkpt><trkpt lat="46.177732258013926" lon="12.689230621789218"><ele>735.6</ele><time>2026-03-22T07:53:26Z</time></trkpt><trkpt lat="46.177748601124826" lon="12.689079058834256"><ele>739.0</ele><time>2026-03-22T07:53:27Z</time></trkpt><trkpt lat="46.17776121323784" lon="12.688931059168084"><ele>739.2</ele><time>2026-03-22T07:53:28Z</time></trkpt><trkpt lat="46.17779547484547" lon="12.688791321083098"><ele>739.4000000000001</ele><time>2026-03-22T07:53:29Z</time></trkpt><trkpt lat="46.1778331587598" lon="12.68866438060488"><ele>739.6</ele><time>2026-03-22T07:53:30Z</time></trkpt><trkpt lat="46.17787796000437" lon="12.688561075677514"><ele>739.8</ele><time>2026-03-22T07:53:31Z</time></trkpt><trkpt lat="46.17792142168518" lon="12.68845667323857"><ele>740.0</ele><time>2026-03-22T07:53:32Z</time></trkpt><trkpt lat="46.177966785175514" lon="12.68834941152585"><ele>740.0</ele><time>2026-03-22T07:53:33Z</time></trkpt><trkpt lat="46.17802886763621" lon="12.688243066354854"><ele>740.0</ele><time>2026-03-22T07:53:35Z</time></trkpt><trkpt lat="46.17813000469019" lon="12.688225338600153"><ele>740.0</ele><time>2026-03-22T07:53:37Z</time></trkpt><trkpt lat="46.17819561936742" lon="12.688198171519256"><ele>740.0</ele><time>2026-03-22T07:53:38Z</time></trkpt><trkpt lat="46.178311294413305" lon="12.688132783884079"><ele>740.0</ele><time>2026-03-22T07:53:40Z</time></trkpt><trkpt lat="46.17836667913181" lon="12.688069094718953"><ele>743.6</ele><time>2026-03-22T07:53:41Z</time></trkpt><trkpt lat="46.17838330026799" lon="12.687914627127187"><ele>747.2</ele><time>2026-03-22T07:53:42Z</time></trkpt><trkpt lat="46.17839079658115" lon="12.687740665338074"><ele>750.8</ele><time>2026-03-22T07:53:43Z</time></trkpt><trkpt lat="46.17838578226367" lon="12.687567190380879"><ele>754.4</ele><time>2026-03-22T07:53:44Z</time></trkpt><trkpt lat="46.17836006487255" lon="12.687430219327835"><ele>758.0</ele><time>2026-03-22T07:53:45Z</time></trkpt><trkpt lat="46.1783622695825" lon="12.687271545061787"><ele>758.0</ele><time>2026-03-22T07:53:46Z</time></trkpt><trkpt lat="46.17834212902447" lon="12.687068082975134"><ele>758.0</ele><time>2026-03-22T07:53:47Z</time></trkpt><trkpt lat="46.17832361007881" lon="12.68686678397078"><ele>758.0</ele><time>2026-03-22T07:53:48Z</time></trkpt><trkpt lat="46.17828984785713" lon="12.686685386339361"><ele>758.0</ele><time>2026-03-22T07:53:49Z</time></trkpt><trkpt lat="46.178276507273324" lon="12.686520243288594"><ele>757.0</ele><time>2026-03-22T07:53:50Z</time></trkpt><trkpt lat="46.178262443269986" lon="12.686373863119565"><ele>756.0</ele><time>2026-03-22T07:53:51Z</time></trkpt><trkpt lat="46.17824952286982" lon="12.686219721476776"><ele>755.0</ele><time>2026-03-22T07:53:52Z</time></trkpt><trkpt lat="46.17822234247762" lon="12.686068307977093"><ele>754.0</ele><time>2026-03-22T07:53:53Z</time></trkpt><trkpt lat="46.17817046803717" lon="12.685915512780372"><ele>753.0</ele><time>2026-03-22T07:53:54Z</time></trkpt><trkpt lat="46.178145126262734" lon="12.685755473126173"><ele>753.0</ele><time>2026-03-22T07:53:55Z</time></trkpt><trkpt lat="46.178126798529995" lon="12.685614792109803"><ele>753.0</ele><time>2026-03-22T07:53:56Z</time></trkpt><trkpt lat="46.17811260129291" lon="12.685498043243873"><ele>753.0</ele><time>2026-03-22T07:53:57Z</time></trkpt><trkpt lat="46.17809516514682" lon="12.685399700001536"><ele>753.0</ele><time>2026-03-22T07:53:58Z</time></trkpt><trkpt lat="46.17811227057527" lon="12.68519154442251"><ele>753.0</ele><time>2026-03-22T07:54:00Z</time></trkpt><trkpt lat="46.178132501328705" lon="12.68506961332599"><ele>753.1666666666666</ele><time>2026-03-22T07:54:01Z</time></trkpt><trkpt lat="46.17814123906597" lon="12.684951081326755"><ele>753.3333333333334</ele><time>2026-03-22T07:54:02Z</time></trkpt><trkpt lat="46.17814846090127" lon="12.684803036397575"><ele>753.5</ele><time>2026-03-22T07:54:03Z</time></trkpt><trkpt lat="46.178139470336305" lon="12.684673583084274"><ele>753.6666666666667</ele><time>2026-03-22T07:54:04Z</time></trkpt><trkpt lat="46.17813321261495" lon="12.684560877456319"><ele>753.8333333333334</ele><time>2026-03-22T07:54:05Z</time></trkpt><trkpt lat="46.17813356574334" lon="12.684439014949143"><ele>754.0</ele><time>2026-03-22T07:54:06Z</time></trkpt><trkpt lat="46.17813048692935" lon="12.684329185166813"><ele>754.0</ele><time>2026-03-22T07:54:07Z</time></trkpt><trkpt lat="46.178136652422744" lon="12.684224396317859"><ele>754.0</ele><time>2026-03-22T07:54:08Z</time></trkpt><trkpt lat="46.17812803618427" lon="12.684109067639064"><ele>754.0</ele><time>2026-03-22T07:54:09Z</time></trkpt><trkpt lat="46.178132737935954" lon="12.6839894042723"><ele>754.0</ele><time>2026-03-22T07:54:10Z</time></trkpt><trkpt lat="46.17812934255063" lon="12.683872982534332"><ele>754.0</ele><time>2026-03-22T07:54:11Z</time></trkpt><trkpt lat="46.17811937671755" lon="12.683739334745624"><ele>754.0</ele><time>2026-03-22T07:54:12Z</time></trkpt><trkpt lat="46.17811332313498" lon="12.683624822207486"><ele>753.8000000000001</ele><time>2026-03-22T07:54:13Z</time></trkpt><trkpt lat="46.178101838190905" lon="12.683491972992861"><ele>753.6</ele><time>2026-03-22T07:54:14Z</time></trkpt><trkpt lat="46.178103084598106" lon="12.683351579088507"><ele>753.4</ele><time>2026-03-22T07:54:15Z</time></trkpt><trkpt lat="46.178078674302235" lon="12.683185379610915"><ele>753.2</ele><time>2026-03-22T07:54:16Z</time></trkpt><trkpt lat="46.17803832301333" lon="12.682996845234324"><ele>753.0</ele><time>2026-03-22T07:54:17Z</time></trkpt><trkpt lat="46.178003642375636" lon="12.682822527729279"><ele>754.4</ele><time>2026-03-22T07:54:18Z</time></trkpt><trkpt lat="46.177965736649135" lon="12.682686779705536"><ele>755.8</ele><time>2026-03-22T07:54:19Z</time></trkpt><trkpt lat="46.17793783061403" lon="12.682549615179292"><ele>757.2</ele><time>2026-03-22T07:54:20Z</time></trkpt><trkpt lat="46.17791622886783" lon="12.682415251815378"><ele>758.6</ele><time>2026-03-22T07:54:21Z</time></trkpt><trkpt lat="46.17788769028727" lon="12.682283369564251"><ele>760.0</ele><time>2026-03-22T07:54:22Z</time></trkpt><trkpt lat="46.17785769456885" lon="12.682154470600452"><ele>760.0</ele><time>2026-03-22T07:54:23Z</time></trkpt><trkpt lat="46.17783138157293" lon="12.682026808194388"><ele>760.0</ele><time>2026-03-22T07:54:24Z</time></trkpt><trkpt lat="46.17781489422548" lon="12.681896282352916"><ele>760.0</ele><time>2026-03-22T07:54:25Z</time></trkpt><trkpt lat="46.17778414731439" lon="12.681762177030572"><ele>760.0</ele><time>2026-03-22T07:54:26Z</time></trkpt><trkpt lat="46.1777563028828" lon="12.681635169485753"><ele>760.0</ele><time>2026-03-22T07:54:27Z</time></trkpt><trkpt lat="46.17773487845258" lon="12.68150843348926"><ele>762.5</ele><time>2026-03-22T07:54:28Z</time></trkpt><trkpt lat="46.17770829740624" lon="12.681377759360192"><ele>765.0</ele><time>2026-03-22T07:54:29Z</time></trkpt><trkpt lat="46.17767408874605" lon="12.681248475566198"><ele>767.5</ele><time>2026-03-22T07:54:30Z</time></trkpt><trkpt lat="46.17764097635356" lon="12.681135385314349"><ele>770.0</ele><time>2026-03-22T07:54:31Z</time></trkpt><trkpt lat="46.17760861638053" lon="12.68103711059218"><ele>772.4999999999999</ele><time>2026-03-22T07:54:32Z</time></trkpt><trkpt lat="46.17756929224518" lon="12.68095282392602"><ele>775.0</ele><time>2026-03-22T07:54:33Z</time></trkpt><trkpt lat="46.17755349726967" lon="12.680846673414344"><ele>777.3333333333333</ele><time>2026-03-22T07:54:34Z</time></trkpt><trkpt lat="46.17753549478099" lon="12.680739626085074"><ele>779.6666666666666</ele><time>2026-03-22T07:54:35Z</time></trkpt><trkpt lat="46.177517273387664" lon="12.680640629649895"><ele>782.0</ele><time>2026-03-22T07:54:36Z</time></trkpt><trkpt lat="46.17751134249682" lon="12.680542980057327"><ele>784.3333333333333</ele><time>2026-03-22T07:54:37Z</time></trkpt><trkpt lat="46.177498783957155" lon="12.680424459631164"><ele>786.6666666666666</ele><time>2026-03-22T07:54:38Z</time></trkpt><trkpt lat="46.17748019704643" lon="12.680302051167764"><ele>789.0</ele><time>2026-03-22T07:54:39Z</time></trkpt><trkpt lat="46.17745524964561" lon="12.680176208202653"><ele>791.6</ele><time>2026-03-22T07:54:40Z</time></trkpt><trkpt lat="46.177430514861726" lon="12.680051584052313"><ele>794.2</ele><time>2026-03-22T07:54:41Z</time></trkpt><trkpt lat="46.177421161513315" lon="12.679912571812464"><ele>796.8000000000001</ele><time>2026-03-22T07:54:42Z</time></trkpt><trkpt lat="46.17739803864452" lon="12.679776388419409"><ele>799.4000000000001</ele><time>2026-03-22T07:54:43Z</time></trkpt><trkpt lat="46.17735998854902" lon="12.679640186510104"><ele>802.0</ele><time>2026-03-22T07:54:44Z</time></trkpt><trkpt lat="46.17730291985323" lon="12.679509021058585"><ele>799.6666666666666</ele><time>2026-03-22T07:54:45Z</time></trkpt><trkpt lat="46.17724288990174" lon="12.679408388055634"><ele>797.3333333333333</ele><time>2026-03-22T07:54:46Z</time></trkpt><trkpt lat="46.1772055446499" lon="12.679309955616901"><ele>795.0</ele><time>2026-03-22T07:54:47Z</time></trkpt><trkpt lat="46.177176937114524" lon="12.679224804299212"><ele>792.6666666666667</ele><time>2026-03-22T07:54:48Z</time></trkpt><trkpt lat="46.177147272179916" lon="12.679127862995498"><ele>790.3333333333334</ele><time>2026-03-22T07:54:49Z</time></trkpt><trkpt lat="46.177114701844275" lon="12.679005403698588"><ele>788.0</ele><time>2026-03-22T07:54:50Z</time></trkpt><trkpt lat="46.17706640191629" lon="12.678862546931603"><ele>788.0</ele><time>2026-03-22T07:54:51Z</time></trkpt><trkpt lat="46.17700172669432" lon="12.67873906549242"><ele>788.0</ele><time>2026-03-22T07:54:52Z</time></trkpt><trkpt lat="46.17694941728417" lon="12.678614267496814"><ele>788.0</ele><time>2026-03-22T07:54:53Z</time></trkpt><trkpt lat="46.17690022118851" lon="12.67848295346698"><ele>788.0</ele><time>2026-03-22T07:54:54Z</time></trkpt><trkpt lat="46.176823792679485" lon="12.678347443191807"><ele>788.0</ele><time>2026-03-22T07:54:55Z</time></trkpt><trkpt lat="46.176763995762634" lon="12.678244364640243"><ele>790.3333333333334</ele><time>2026-03-22T07:54:56Z</time></trkpt><trkpt lat="46.17671550603022" lon="12.678123154444787"><ele>792.6666666666667</ele><time>2026-03-22T07:54:58Z</time></trkpt><trkpt lat="46.17677533105187" lon="12.6780431878511"><ele>795.0</ele><time>2026-03-22T07:55:00Z</time></trkpt><trkpt lat="46.1768651882068" lon="12.678080623502678"><ele>797.3333333333333</ele><time>2026-03-22T07:55:02Z</time></trkpt><trkpt lat="46.17691076228001" lon="12.678167102336525"><ele>799.6666666666666</ele><time>2026-03-22T07:55:03Z</time></trkpt><trkpt lat="46.176953189297656" lon="12.678287995950923"><ele>802.0</ele><time>2026-03-22T07:55:04Z</time></trkpt><trkpt lat="46.17700783805583" lon="12.678401086957487"><ele>802.0</ele><time>2026-03-22T07:55:05Z</time></trkpt><trkpt lat="46.177076131204686" lon="12.67852619547765"><ele>802.0</ele><time>2026-03-22T07:55:06Z</time></trkpt><trkpt lat="46.17699666420731" lon="12.678784234830436"><ele>802.0</ele><time>2026-03-22T07:55:07Z</time></trkpt><trkpt lat="46.17705250156744" lon="12.678926073533923"><ele>802.0</ele><time>2026-03-22T07:55:08Z</time></trkpt><trkpt lat="46.177094782761685" lon="12.67904613493212"><ele>799.2</ele><time>2026-03-22T07:55:09Z</time></trkpt><trkpt lat="46.177125191420664" lon="12.67917407740157"><ele>796.4000000000001</ele><time>2026-03-22T07:55:10Z</time></trkpt><trkpt lat="46.17720515000873" lon="12.679397523088895"><ele>793.5999999999999</ele><time>2026-03-22T07:55:11Z</time></trkpt><trkpt lat="46.17726738055209" lon="12.679515498360887"><ele>790.8</ele><time>2026-03-22T07:55:12Z</time></trkpt><trkpt lat="46.177305796867095" lon="12.67960051833419"><ele>788.0</ele><time>2026-03-22T07:55:13Z</time></trkpt><trkpt lat="46.17734362041273" lon="12.679692420428275"><ele>788.1666666666667</ele><time>2026-03-22T07:55:14Z</time></trkpt><trkpt lat="46.17737107102622" lon="12.679780001924927"><ele>788.3333333333334</ele><time>2026-03-22T07:55:15Z</time></trkpt><trkpt lat="46.17739135309427" lon="12.679868336066138"><ele>788.5</ele><time>2026-03-22T07:55:16Z</time></trkpt><trkpt lat="46.177423308826356" lon="12.68004220151906"><ele>788.6666666666667</ele><time>2026-03-22T07:55:18Z</time></trkpt><trkpt lat="46.17745520732242" lon="12.680150811516397"><ele>788.8333333333334</ele><time>2026-03-22T07:55:19Z</time></trkpt><trkpt lat="46.17748954827877" lon="12.680264819841883"><ele>789.0</ele><time>2026-03-22T07:55:20Z</time></trkpt><trkpt lat="46.17753950983077" lon="12.680374548504357"><ele>789.0</ele><time>2026-03-22T07:55:21Z</time></trkpt><trkpt lat="46.177540545634294" lon="12.680494475185496"><ele>789.0</ele><time>2026-03-22T07:55:22Z</time></trkpt><trkpt lat="46.17754182108869" lon="12.680634404821049"><ele>789.0</ele><time>2026-03-22T07:55:23Z</time></trkpt><trkpt lat="46.177553476796234" lon="12.680809001284418"><ele>789.0</ele><time>2026-03-22T07:55:24Z</time></trkpt><trkpt lat="46.17758217949725" lon="12.681013043779148"><ele>789.0</ele><time>2026-03-22T07:55:25Z</time></trkpt><trkpt lat="46.177647947737185" lon="12.681115777031955"><ele>826.0</ele><time>2026-03-22T07:55:26Z</time></trkpt><trkpt lat="46.17829977949886" lon="12.680739741452081"><ele>825.9999999999999</ele><time>2026-03-22T07:55:27Z</time></trkpt><trkpt lat="46.178360745853055" lon="12.680689976471395"><ele>826.0</ele><time>2026-03-22T07:55:28Z</time></trkpt><trkpt lat="46.178399108937604" lon="12.680605493384533"><ele>826.0</ele><time>2026-03-22T07:55:29Z</time></trkpt><trkpt lat="46.17840859011528" lon="12.680509475757814"><ele>826.0</ele><time>2026-03-22T07:55:30Z</time></trkpt><trkpt lat="46.17840163559949" lon="12.68040214429674"><ele>825.9999999999999</ele><time>2026-03-22T07:55:31Z</time></trkpt><trkpt lat="46.17836396091562" lon="12.68029046265933"><ele>826.0</ele><time>2026-03-22T07:55:32Z</time></trkpt><trkpt lat="46.17832076809324" lon="12.68015357331906"><ele>827.5999999999999</ele><time>2026-03-22T07:55:32.999Z</time></trkpt><trkpt lat="46.178276066573886" lon="12.680014092736846"><ele>829.2</ele><time>2026-03-22T07:55:33.999Z</time></trkpt><trkpt lat="46.17824116240912" lon="12.67991810948587"><ele>830.8</ele><time>2026-03-22T07:55:34.999Z</time></trkpt><trkpt lat="46.17817156887313" lon="12.679827499694971"><ele>832.4000000000001</ele><time>2026-03-22T07:55:35.999Z</time></trkpt><trkpt lat="46.17808862081721" lon="12.679736914628567"><ele>834.0</ele><time>2026-03-22T07:55:36.999Z</time></trkpt><trkpt lat="46.17802162569927" lon="12.679598495135519"><ele>831.0</ele><time>2026-03-22T07:55:37.999Z</time></trkpt><trkpt lat="46.17796404958733" lon="12.679477052480749"><ele>828.0</ele><time>2026-03-22T07:55:38.999Z</time></trkpt><trkpt lat="46.177906039673424" lon="12.679341129755272"><ele>825.0</ele><time>2026-03-22T07:55:39.999Z</time></trkpt><trkpt lat="46.1778553843507" lon="12.679190357224737"><ele>822.0</ele><time>2026-03-22T07:55:40.999Z</time></trkpt><trkpt lat="46.17779598829824" lon="12.679046023878145"><ele>819.0</ele><time>2026-03-22T07:55:41.999Z</time></trkpt><trkpt lat="46.17772547953893" lon="12.678870384787395"><ele>819.0</ele><time>2026-03-22T07:55:42.999Z</time></trkpt><trkpt lat="46.177656213940715" lon="12.678699301886981"><ele>819.0</ele><time>2026-03-22T07:55:43.999Z</time></trkpt><trkpt lat="46.177591552051105" lon="12.67853858703326"><ele>819.0</ele><time>2026-03-22T07:55:44.999Z</time></trkpt><trkpt lat="46.177525322811796" lon="12.67837598744281"><ele>819.0</ele><time>2026-03-22T07:55:45.999Z</time></trkpt><trkpt lat="46.17746701183316" lon="12.678205944180394"><ele>822.8000000000001</ele><time>2026-03-22T07:55:46.999Z</time></trkpt><trkpt lat="46.17743023716358" lon="12.678059947128029"><ele>826.6</ele><time>2026-03-22T07:55:47.999Z</time></trkpt><trkpt lat="46.177407799714764" lon="12.677915974412775"><ele>830.4</ele><time>2026-03-22T07:55:48.999Z</time></trkpt><trkpt lat="46.17739574033234" lon="12.677774777244617"><ele>834.2</ele><time>2026-03-22T07:55:49.999Z</time></trkpt><trkpt lat="46.17740617780579" lon="12.67760977882023"><ele>838.0</ele><time>2026-03-22T07:55:50.999Z</time></trkpt><trkpt lat="46.177422187781076" lon="12.67741923562341"><ele>840.75</ele><time>2026-03-22T07:55:51.999Z</time></trkpt><trkpt lat="46.177430776742824" lon="12.677224160023387"><ele>843.5</ele><time>2026-03-22T07:55:52.999Z</time></trkpt><trkpt lat="46.17740778503885" lon="12.677050030243194"><ele>846.25</ele><time>2026-03-22T07:55:53.999Z</time></trkpt><trkpt lat="46.177381262607014" lon="12.676872185933757"><ele>849.0</ele><time>2026-03-22T07:55:54.999Z</time></trkpt><trkpt lat="46.177354677844626" lon="12.676693318266866"><ele>843.25</ele><time>2026-03-22T07:55:55.999Z</time></trkpt><trkpt lat="46.1773308102866" lon="12.676506646253502"><ele>837.5</ele><time>2026-03-22T07:55:56.999Z</time></trkpt><trkpt lat="46.17731665862235" lon="12.676309438206344"><ele>831.75</ele><time>2026-03-22T07:55:57.999Z</time></trkpt><trkpt lat="46.177300176171634" lon="12.676090434845655"><ele>826.0</ele><time>2026-03-22T07:55:58.999Z</time></trkpt><trkpt lat="46.17729721257462" lon="12.675935773267822"><ele>826.0</ele><time>2026-03-22T07:55:59.999Z</time></trkpt><trkpt lat="46.177296180698775" lon="12.67576265439292"><ele>826.0</ele><time>2026-03-22T07:56:01Z</time></trkpt><trkpt lat="46.177314056245216" lon="12.67560783173793"><ele>826.0</ele><time>2026-03-22T07:56:02Z</time></trkpt><trkpt lat="46.17731591889003" lon="12.675422087401428"><ele>826.0</ele><time>2026-03-22T07:56:03Z</time></trkpt><trkpt lat="46.17732310464808" lon="12.675242241910032"><ele>826.3333333333333</ele><time>2026-03-22T07:56:04Z</time></trkpt><trkpt lat="46.177323233122245" lon="12.675066081548588"><ele>826.6666666666666</ele><time>2026-03-22T07:56:05Z</time></trkpt><trkpt lat="46.17732296083213" lon="12.674937622855829"><ele>827.0</ele><time>2026-03-22T07:56:06Z</time></trkpt><trkpt lat="46.17729972692678" lon="12.674841764682608"><ele>827.3333333333333</ele><time>2026-03-22T07:56:07Z</time></trkpt><trkpt lat="46.17732442600468" lon="12.674740216723077"><ele>827.6666666666666</ele><time>2026-03-22T07:56:09Z</time></trkpt><trkpt lat="46.17740737619658" lon="12.674760014236549"><ele>828.0</ele><time>2026-03-22T07:56:11Z</time></trkpt><trkpt lat="46.177420679099015" lon="12.674942724736859"><ele>836.4</ele><time>2026-03-22T07:56:13Z</time></trkpt><trkpt lat="46.17742552967653" lon="12.675067356809844"><ele>844.8</ele><time>2026-03-22T07:56:14Z</time></trkpt><trkpt lat="46.17744236267165" lon="12.675210218536439"><ele>853.2</ele><time>2026-03-22T07:56:15Z</time></trkpt><trkpt lat="46.17747340033125" lon="12.675347836525255"><ele>861.6</ele><time>2026-03-22T07:56:16Z</time></trkpt><trkpt lat="46.177520405278095" lon="12.67547375741724"><ele>870.0</ele><time>2026-03-22T07:56:17Z</time></trkpt><trkpt lat="46.17756262613874" lon="12.675622145479307"><ele>870.0</ele><time>2026-03-22T07:56:18Z</time></trkpt><trkpt lat="46.17758647618735" lon="12.675751984587913"><ele>870.0</ele><time>2026-03-22T07:56:19Z</time></trkpt><trkpt lat="46.17763722025944" lon="12.675896575270075"><ele>870.0</ele><time>2026-03-22T07:56:20Z</time></trkpt><trkpt lat="46.17767996851604" lon="12.67604975802923"><ele>870.0</ele><time>2026-03-22T07:56:21Z</time></trkpt><trkpt lat="46.17771896120104" lon="12.676205919240921"><ele>870.0</ele><time>2026-03-22T07:56:22Z</time></trkpt><trkpt lat="46.177763347293464" lon="12.676370037108724"><ele>867.6</ele><time>2026-03-22T07:56:23Z</time></trkpt><trkpt lat="46.17781548645494" lon="12.676505605191348"><ele>865.2</ele><time>2026-03-22T07:56:24Z</time></trkpt><trkpt lat="46.1778627363441" lon="12.676638315099678"><ele>862.8</ele><time>2026-03-22T07:56:25Z</time></trkpt><trkpt lat="46.177912535207604" lon="12.676779805852894"><ele>860.4</ele><time>2026-03-22T07:56:26Z</time></trkpt><trkpt lat="46.17798077628721" lon="12.676930060540526"><ele>858.0</ele><time>2026-03-22T07:56:27Z</time></trkpt><trkpt lat="46.17806698668933" lon="12.677089925401512"><ele>855.75</ele><time>2026-03-22T07:56:28Z</time></trkpt><trkpt lat="46.178153771795714" lon="12.67724947166911"><ele>853.5</ele><time>2026-03-22T07:56:29Z</time></trkpt><trkpt lat="46.17822597918299" lon="12.677386997640573"><ele>851.25</ele><time>2026-03-22T07:56:30Z</time></trkpt><trkpt lat="46.17829196375656" lon="12.677510796173326"><ele>849.0</ele><time>2026-03-22T07:56:31Z</time></trkpt><trkpt lat="46.178361450007465" lon="12.677637052187478"><ele>853.8000000000001</ele><time>2026-03-22T07:56:32Z</time></trkpt><trkpt lat="46.17845085032072" lon="12.677738096587607"><ele>858.6</ele><time>2026-03-22T07:56:33Z</time></trkpt><trkpt lat="46.178532415877314" lon="12.677847926895895"><ele>863.4</ele><time>2026-03-22T07:56:34Z</time></trkpt><trkpt lat="46.17860977338114" lon="12.677971378024512"><ele>868.2</ele><time>2026-03-22T07:56:35Z</time></trkpt><trkpt lat="46.17867967206183" lon="12.67808271625414"><ele>873.0</ele><time>2026-03-22T07:56:36Z</time></trkpt><trkpt lat="46.17876068006429" lon="12.678195476093357"><ele>873.0</ele><time>2026-03-22T07:56:37Z</time></trkpt><trkpt lat="46.178866376044965" lon="12.678299567629134"><ele>873.0</ele><time>2026-03-22T07:56:38Z</time></trkpt><trkpt lat="46.1789581380849" lon="12.678389483103619"><ele>873.0</ele><time>2026-03-22T07:56:39Z</time></trkpt><trkpt lat="46.17904932055582" lon="12.67847622785014"><ele>873.0</ele><time>2026-03-22T07:56:40Z</time></trkpt><trkpt lat="46.17913894493989" lon="12.67855766875319"><ele>875.0</ele><time>2026-03-22T07:56:41Z</time></trkpt><trkpt lat="46.17923999025212" lon="12.678609929042967"><ele>877.0</ele><time>2026-03-22T07:56:42Z</time></trkpt><trkpt lat="46.17933258913784" lon="12.678653980495847"><ele>879.0</ele><time>2026-03-22T07:56:43Z</time></trkpt><trkpt lat="46.17945048201389" lon="12.678693622695535"><ele>881.0</ele><time>2026-03-22T07:56:44Z</time></trkpt><trkpt lat="46.179566985543445" lon="12.678755419012388"><ele>881.0</ele><time>2026-03-22T07:56:45Z</time></trkpt><trkpt lat="46.17967527678629" lon="12.678857309529217"><ele>881.0</ele><time>2026-03-22T07:56:46Z</time></trkpt><trkpt lat="46.17980295341046" lon="12.678968578962667"><ele>881.0</ele><time>2026-03-22T07:56:47Z</time></trkpt><trkpt lat="46.17992145919139" lon="12.679076416064458"><ele>881.0</ele><time>2026-03-22T07:56:48Z</time></trkpt><trkpt lat="46.180026788671604" lon="12.679177724977292"><ele>882.8</ele><time>2026-03-22T07:56:49Z</time></trkpt><trkpt lat="46.180127095090555" lon="12.679249918106688"><ele>884.5999999999999</ele><time>2026-03-22T07:56:50Z</time></trkpt><trkpt lat="46.18021520797184" lon="12.679309065518112"><ele>886.4</ele><time>2026-03-22T07:56:51Z</time></trkpt><trkpt lat="46.180319355207885" lon="12.679363407486408"><ele>888.2</ele><time>2026-03-22T07:56:52Z</time></trkpt><trkpt lat="46.18043263767352" lon="12.679410079244631"><ele>890.0</ele><time>2026-03-22T07:56:53Z</time></trkpt><trkpt lat="46.18054417553858" lon="12.679472148733703"><ele>890.0</ele><time>2026-03-22T07:56:54Z</time></trkpt><trkpt lat="46.180620799032994" lon="12.67954221483473"><ele>890.0</ele><time>2026-03-22T07:56:55Z</time></trkpt><trkpt lat="46.18072142470581" lon="12.679663306263722"><ele>890.0</ele><time>2026-03-22T07:56:56Z</time></trkpt><trkpt lat="46.18082772580652" lon="12.679800693055101"><ele>890.0</ele><time>2026-03-22T07:56:57Z</time></trkpt><trkpt lat="46.18092816205217" lon="12.679904980430592"><ele>890.4</ele><time>2026-03-22T07:56:58Z</time></trkpt><trkpt lat="46.18103066032005" lon="12.679989266985972"><ele>890.8</ele><time>2026-03-22T07:56:59Z</time></trkpt><trkpt lat="46.181127397689394" lon="12.680055523543842"><ele>891.2</ele><time>2026-03-22T07:57:00Z</time></trkpt><trkpt lat="46.18121812909642" lon="12.680143747789774"><ele>891.6</ele><time>2026-03-22T07:57:01Z</time></trkpt><trkpt lat="46.1813067910914" lon="12.680240532953562"><ele>892.0</ele><time>2026-03-22T07:57:02Z</time></trkpt><trkpt lat="46.181366824106085" lon="12.680290360198454"><ele>891.9999999999999</ele><time>2026-03-22T07:57:03Z</time></trkpt><trkpt lat="46.18146812674759" lon="12.6802754285105"><ele>892.0</ele><time>2026-03-22T07:57:05Z</time></trkpt><trkpt lat="46.181512439712606" lon="12.68009395194636"><ele>892.0</ele><time>2026-03-22T07:57:07Z</time></trkpt><trkpt lat="46.18153532518566" lon="12.679985394370545"><ele>892.0</ele><time>2026-03-22T07:57:08Z</time></trkpt><trkpt lat="46.18157757710916" lon="12.679915317989979"><ele>891.9999999999999</ele><time>2026-03-22T07:57:09Z</time></trkpt><trkpt lat="46.18163546379367" lon="12.679878576149118"><ele>892.0</ele><time>2026-03-22T07:57:10Z</time></trkpt><trkpt lat="46.18175966083876" lon="12.679926683841952"><ele>897.0</ele><time>2026-03-22T07:57:12Z</time></trkpt><trkpt lat="46.181813521453314" lon="12.680021336138896"><ele>902.0</ele><time>2026-03-22T07:57:13Z</time></trkpt><trkpt lat="46.18187996800301" lon="12.680150655812449"><ele>907.0</ele><time>2026-03-22T07:57:14Z</time></trkpt><trkpt lat="46.18195813399937" lon="12.680259861190482"><ele>912.0</ele><time>2026-03-22T07:57:15Z</time></trkpt><trkpt lat="46.182044055096945" lon="12.680393121758662"><ele>917.0</ele><time>2026-03-22T07:57:16Z</time></trkpt><trkpt lat="46.18213887450387" lon="12.680539894845191"><ele>917.0</ele><time>2026-03-22T07:57:17Z</time></trkpt><trkpt lat="46.182243774928594" lon="12.68068074606742"><ele>917.0</ele><time>2026-03-22T07:57:18Z</time></trkpt><trkpt lat="46.1823401282152" lon="12.680836150474567"><ele>917.0</ele><time>2026-03-22T07:57:19Z</time></trkpt><trkpt lat="46.182432466875724" lon="12.680997825376418"><ele>917.0</ele><time>2026-03-22T07:57:20Z</time></trkpt><trkpt lat="46.18251048220524" lon="12.68118470693279"><ele>921.5</ele><time>2026-03-22T07:57:21Z</time></trkpt><trkpt lat="46.1825782048067" lon="12.681339202754105"><ele>926.0</ele><time>2026-03-22T07:57:22Z</time></trkpt><trkpt lat="46.182653110279375" lon="12.681473218835661"><ele>930.5</ele><time>2026-03-22T07:57:23Z</time></trkpt><trkpt lat="46.1827251093811" lon="12.6816110720377"><ele>935.0</ele><time>2026-03-22T07:57:24Z</time></trkpt><trkpt lat="46.18280111752905" lon="12.681751344143855"><ele>935.0</ele><time>2026-03-22T07:57:25Z</time></trkpt><trkpt lat="46.18287780688473" lon="12.681886138578562"><ele>935.0</ele><time>2026-03-22T07:57:26Z</time></trkpt><trkpt lat="46.182947326239244" lon="12.68201593076128"><ele>935.0</ele><time>2026-03-22T07:57:27Z</time></trkpt><trkpt lat="46.18302895912027" lon="12.682142403182738"><ele>935.0</ele><time>2026-03-22T07:57:28Z</time></trkpt><trkpt lat="46.18310677785492" lon="12.68227117196427"><ele>941.5</ele><time>2026-03-22T07:57:29Z</time></trkpt><trkpt lat="46.18318738907157" lon="12.682397240495394"><ele>948.0</ele><time>2026-03-22T07:57:30Z</time></trkpt><trkpt lat="46.18327180565096" lon="12.682496695592613"><ele>954.5</ele><time>2026-03-22T07:57:31Z</time></trkpt><trkpt lat="46.183363587596936" lon="12.68260830740962"><ele>961.0</ele><time>2026-03-22T07:57:32Z</time></trkpt><trkpt lat="46.18345778240776" lon="12.682718439843907"><ele>961.0</ele><time>2026-03-22T07:57:33Z</time></trkpt><trkpt lat="46.18353951741548" lon="12.682808927722887"><ele>960.9999999999999</ele><time>2026-03-22T07:57:34Z</time></trkpt><trkpt lat="46.1836040772295" lon="12.682890097096344"><ele>960.9999999999999</ele><time>2026-03-22T07:57:35Z</time></trkpt><trkpt lat="46.18369170642702" lon="12.682976375439072"><ele>961.0</ele><time>2026-03-22T07:57:37Z</time></trkpt><trkpt lat="46.18371100844784" lon="12.682884724446554"><ele>961.0</ele><time>2026-03-22T07:57:39Z</time></trkpt><trkpt lat="46.183656861039175" lon="12.68276184610382"><ele>961.0</ele><time>2026-03-22T07:57:41Z</time></trkpt><trkpt lat="46.18359729209337" lon="12.682687728039827"><ele>960.9999999999999</ele><time>2026-03-22T07:57:42Z</time></trkpt><trkpt lat="46.183537890435986" lon="12.682585615990742"><ele>960.9999999999999</ele><time>2026-03-22T07:57:43Z</time></trkpt><trkpt lat="46.18347374958622" lon="12.682471877071748"><ele>961.0</ele><time>2026-03-22T07:57:44Z</time></trkpt><trkpt lat="46.18340505407496" lon="12.682341283182108"><ele>961.0</ele><time>2026-03-22T07:57:45Z</time></trkpt><trkpt lat="46.18333912546497" lon="12.68220646870704"><ele>961.0</ele><time>2026-03-22T07:57:46Z</time></trkpt><trkpt lat="46.183287165256615" lon="12.682045157158448"><ele>961.0</ele><time>2026-03-22T07:57:47Z</time></trkpt><trkpt lat="46.1832295772131" lon="12.681865093120889"><ele>961.0</ele><time>2026-03-22T07:57:48Z</time></trkpt><trkpt lat="46.183164294191684" lon="12.681670876347878"><ele>961.0</ele><time>2026-03-22T07:57:49Z</time></trkpt><trkpt lat="46.183103557817674" lon="12.681482101407067"><ele>959.0</ele><time>2026-03-22T07:57:49.999Z</time></trkpt><trkpt lat="46.18306588244446" lon="12.68133553725719"><ele>957.0</ele><time>2026-03-22T07:57:50.999Z</time></trkpt><trkpt lat="46.18302424454039" lon="12.681177071472847"><ele>955.0</ele><time>2026-03-22T07:57:51.999Z</time></trkpt><trkpt lat="46.18298083029354" lon="12.680992213814664"><ele>953.0</ele><time>2026-03-22T07:57:52.999Z</time></trkpt><trkpt lat="46.18292942942113" lon="12.680792407128527"><ele>953.0</ele><time>2026-03-22T07:57:53.999Z</time></trkpt><trkpt lat="46.18289140284904" lon="12.680602965492476"><ele>953.0</ele><time>2026-03-22T07:57:54.999Z</time></trkpt><trkpt lat="46.18286584450485" lon="12.680433923917622"><ele>953.0</ele><time>2026-03-22T07:57:55.999Z</time></trkpt><trkpt lat="46.18284310588755" lon="12.68026010795169"><ele>953.0</ele><time>2026-03-22T07:57:56.999Z</time></trkpt><trkpt lat="46.18281508932952" lon="12.68008000994739"><ele>956.75</ele><time>2026-03-22T07:57:57.999Z</time></trkpt><trkpt lat="46.18277665176691" lon="12.679863559514844"><ele>960.5</ele><time>2026-03-22T07:57:58.999Z</time></trkpt><trkpt lat="46.18274213132012" lon="12.679683786237172"><ele>964.25</ele><time>2026-03-22T07:57:59.999Z</time></trkpt><trkpt lat="46.182716442947445" lon="12.679506194589353"><ele>968.0</ele><time>2026-03-22T07:58:00.999Z</time></trkpt><trkpt lat="46.18268628567849" lon="12.679330815745132"><ele>972.0</ele><time>2026-03-22T07:58:01.999Z</time></trkpt><trkpt lat="46.182657576360846" lon="12.679159277597874"><ele>976.0</ele><time>2026-03-22T07:58:02.999Z</time></trkpt><trkpt lat="46.182626553914254" lon="12.678996466363255"><ele>980.0</ele><time>2026-03-22T07:58:03.999Z</time></trkpt><trkpt lat="46.18258278886063" lon="12.678836296194305"><ele>984.0</ele><time>2026-03-22T07:58:04.999Z</time></trkpt><trkpt lat="46.18254735723659" lon="12.678669067381383"><ele>988.0</ele><time>2026-03-22T07:58:05.999Z</time></trkpt><trkpt lat="46.18250081245294" lon="12.678498935352215"><ele>992.0</ele><time>2026-03-22T07:58:07Z</time></trkpt><trkpt lat="46.182458237456395" lon="12.678329107980007"><ele>996.0</ele><time>2026-03-22T07:58:08Z</time></trkpt><trkpt lat="46.18240582977023" lon="12.678152221288165"><ele>1000.0</ele><time>2026-03-22T07:58:09Z</time></trkpt><trkpt lat="46.182344332741806" lon="12.677961059209798"><ele>994.0</ele><time>2026-03-22T07:58:10Z</time></trkpt><trkpt lat="46.18227773229159" lon="12.677778988405517"><ele>988.0</ele><time>2026-03-22T07:58:11Z</time></trkpt><trkpt lat="46.18221200170329" lon="12.677567363926263"><ele>982.0</ele><time>2026-03-22T07:58:12Z</time></trkpt><trkpt lat="46.1821521758685" lon="12.677381417059033"><ele>976.0</ele><time>2026-03-22T07:58:13Z</time></trkpt><trkpt lat="46.18208642722777" lon="12.677185126056855"><ele>976.0</ele><time>2026-03-22T07:58:14Z</time></trkpt><trkpt lat="46.182028621664244" lon="12.676996761563933"><ele>976.0</ele><time>2026-03-22T07:58:15Z</time></trkpt><trkpt lat="46.181964315775545" lon="12.676832721905008"><ele>976.0</ele><time>2026-03-22T07:58:16Z</time></trkpt><trkpt lat="46.18189839711415" lon="12.67667597168456"><ele>976.0</ele><time>2026-03-22T07:58:17Z</time></trkpt><trkpt lat="46.18185112246828" lon="12.676531252895263"><ele>978.4999999999999</ele><time>2026-03-22T07:58:18Z</time></trkpt><trkpt lat="46.18181829882367" lon="12.67638662912258"><ele>981.0</ele><time>2026-03-22T07:58:19Z</time></trkpt><trkpt lat="46.18179811103403" lon="12.676252543317823"><ele>983.5</ele><time>2026-03-22T07:58:20Z</time></trkpt><trkpt lat="46.18178029695516" lon="12.676147234734293"><ele>986.0</ele><time>2026-03-22T07:58:21Z</time></trkpt><trkpt lat="46.18177386517011" lon="12.676056654676293"><ele>988.4999999999999</ele><time>2026-03-22T07:58:22Z</time></trkpt><trkpt lat="46.181779915573024" lon="12.675921240458626"><ele>991.0</ele><time>2026-03-22T07:58:23Z</time></trkpt><trkpt lat="46.18178794053624" lon="12.675772925091277"><ele>993.0</ele><time>2026-03-22T07:58:24Z</time></trkpt><trkpt lat="46.181804391600174" lon="12.675624754354132"><ele>994.9999999999999</ele><time>2026-03-22T07:58:25Z</time></trkpt><trkpt lat="46.18182334165182" lon="12.675475788891994"><ele>996.9999999999999</ele><time>2026-03-22T07:58:26Z</time></trkpt><trkpt lat="46.18183085260055" lon="12.675303518177712"><ele>999.0</ele><time>2026-03-22T07:58:27Z</time></trkpt><trkpt lat="46.181847056103955" lon="12.675134018944306"><ele>1001.0</ele><time>2026-03-22T07:58:28Z</time></trkpt><trkpt lat="46.18186566959956" lon="12.674999994090435"><ele>1001.3333333333334</ele><time>2026-03-22T07:58:29Z</time></trkpt><trkpt lat="46.181887173472084" lon="12.67487012144966"><ele>1001.6666666666667</ele><time>2026-03-22T07:58:30Z</time></trkpt><trkpt lat="46.1819141771969" lon="12.674742693944149"><ele>1002.0</ele><time>2026-03-22T07:58:31Z</time></trkpt><trkpt lat="46.18195976669006" lon="12.67464310208599"><ele>1002.3333333333333</ele><time>2026-03-22T07:58:32Z</time></trkpt><trkpt lat="46.182015835477266" lon="12.674531990050744"><ele>1002.6666666666666</ele><time>2026-03-22T07:58:33Z</time></trkpt><trkpt lat="46.18207250996142" lon="12.674438140299618"><ele>1003.0</ele><time>2026-03-22T07:58:34Z</time></trkpt><trkpt lat="46.18212584009541" lon="12.674328057024994"><ele>1001.5999999999999</ele><time>2026-03-22T07:58:35Z</time></trkpt><trkpt lat="46.18217207712883" lon="12.674210040996353"><ele>1000.1999999999999</ele><time>2026-03-22T07:58:36Z</time></trkpt><trkpt lat="46.182220417414804" lon="12.674088456542814"><ele>998.8</ele><time>2026-03-22T07:58:37Z</time></trkpt><trkpt lat="46.182254560835766" lon="12.673968816261446"><ele>997.4</ele><time>2026-03-22T07:58:38Z</time></trkpt><trkpt lat="46.182292209108454" lon="12.673841399402214"><ele>996.0</ele><time>2026-03-22T07:58:39Z</time></trkpt><trkpt lat="46.18232749456178" lon="12.673713744147749"><ele>1001.8333333333334</ele><time>2026-03-22T07:58:40Z</time></trkpt><trkpt lat="46.18235825732145" lon="12.673585694176056"><ele>1007.6666666666667</ele><time>2026-03-22T07:58:41Z</time></trkpt><trkpt lat="46.18238299017246" lon="12.673470789997108"><ele>1013.5</ele><time>2026-03-22T07:58:42Z</time></trkpt><trkpt lat="46.182408144220915" lon="12.673362190068028"><ele>1019.3333333333334</ele><time>2026-03-22T07:58:43Z</time></trkpt><trkpt lat="46.182440224485475" lon="12.673248289814124"><ele>1025.1666666666667</ele><time>2026-03-22T07:58:44Z</time></trkpt><trkpt lat="46.18246911294277" lon="12.673141291738466"><ele>1031.0</ele><time>2026-03-22T07:58:45Z</time></trkpt><trkpt lat="46.182495839657754" lon="12.673034296561523"><ele>1031.0</ele><time>2026-03-22T07:58:46Z</time></trkpt><trkpt lat="46.18253029353185" lon="12.672934013981255"><ele>1031.0</ele><time>2026-03-22T07:58:47Z</time></trkpt><trkpt lat="46.182551628032535" lon="12.6728241692018"><ele>1031.0</ele><time>2026-03-22T07:58:48Z</time></trkpt><trkpt lat="46.18254851842984" lon="12.672715953313935"><ele>1031.0</ele><time>2026-03-22T07:58:49Z</time></trkpt><trkpt lat="46.18252642766356" lon="12.67256509928635"><ele>1031.0</ele><time>2026-03-22T07:58:51Z</time></trkpt><trkpt lat="46.18257027653006" lon="12.672477237856167"><ele>1031.0</ele><time>2026-03-22T07:58:53Z</time></trkpt><trkpt lat="46.1826423665785" lon="12.672513057997241"><ele>1031.0</ele><time>2026-03-22T07:58:55Z</time></trkpt><trkpt lat="46.182686153639835" lon="12.672665965703588"><ele>1031.0</ele><time>2026-03-22T07:58:57Z</time></trkpt><trkpt lat="46.182682692558835" lon="12.672773296362426"><ele>1031.0</ele><time>2026-03-22T07:58:58Z</time></trkpt><trkpt lat="46.18266957721561" lon="12.672923650485451"><ele>1031.0</ele><time>2026-03-22T07:58:59Z</time></trkpt><trkpt lat="46.182670985460916" lon="12.673081179627552"><ele>1031.0</ele><time>2026-03-22T07:59:00Z</time></trkpt><trkpt lat="46.18267132391448" lon="12.673234672154951"><ele>1031.0</ele><time>2026-03-22T07:59:01Z</time></trkpt><trkpt lat="46.18266760386769" lon="12.673395938113822"><ele>1031.0</ele><time>2026-03-22T07:59:02Z</time></trkpt><trkpt lat="46.18266813997445" lon="12.673565784025229"><ele>1031.0</ele><time>2026-03-22T07:59:03Z</time></trkpt><trkpt lat="46.18266681692353" lon="12.67372881942267"><ele>1031.0</ele><time>2026-03-22T07:59:04Z</time></trkpt><trkpt lat="46.18266637133959" lon="12.673903053515753"><ele>1032.6</ele><time>2026-03-22T07:59:05Z</time></trkpt><trkpt lat="46.182668325038314" lon="12.674056106319131"><ele>1034.1999999999998</ele><time>2026-03-22T07:59:06Z</time></trkpt><trkpt lat="46.182664761182565" lon="12.674169661788364"><ele>1035.8000000000002</ele><time>2026-03-22T07:59:07Z</time></trkpt><trkpt lat="46.182664598862836" lon="12.674295131526536"><ele>1037.4</ele><time>2026-03-22T07:59:08Z</time></trkpt><trkpt lat="46.18265180470259" lon="12.67441742716686"><ele>1039.0</ele><time>2026-03-22T07:59:09Z</time></trkpt><trkpt lat="46.18264717976311" lon="12.674565971985587"><ele>1040.5</ele><time>2026-03-22T07:59:10Z</time></trkpt><trkpt lat="46.182646282337366" lon="12.674714449587828"><ele>1042.0</ele><time>2026-03-22T07:59:11Z</time></trkpt><trkpt lat="46.182662580187184" lon="12.674857431424584"><ele>1043.5</ele><time>2026-03-22T07:59:12Z</time></trkpt><trkpt lat="46.182684473354435" lon="12.675039512244817"><ele>1045.0</ele><time>2026-03-22T07:59:13Z</time></trkpt><trkpt lat="46.182712238737494" lon="12.67525900246811"><ele>1044.0</ele><time>2026-03-22T07:59:13.999Z</time></trkpt><trkpt lat="46.18272651051995" lon="12.675435985212644"><ele>1043.0</ele><time>2026-03-22T07:59:14.999Z</time></trkpt><trkpt lat="46.18274226226784" lon="12.675559735838519"><ele>1042.0</ele><time>2026-03-22T07:59:15.999Z</time></trkpt><trkpt lat="46.18277116093198" lon="12.675704090007397"><ele>1041.0</ele><time>2026-03-22T07:59:16.999Z</time></trkpt><trkpt lat="46.18280647404582" lon="12.675825197215747"><ele>1040.0</ele><time>2026-03-22T07:59:17.999Z</time></trkpt><trkpt lat="46.18285743895774" lon="12.675935213207595"><ele>1040.0</ele><time>2026-03-22T07:59:18.999Z</time></trkpt><trkpt lat="46.18292793287928" lon="12.676047203704728"><ele>1040.0</ele><time>2026-03-22T07:59:19.999Z</time></trkpt><trkpt lat="46.1829941247513" lon="12.676176549158024"><ele>1040.0</ele><time>2026-03-22T07:59:20.999Z</time></trkpt><trkpt lat="46.183042193039704" lon="12.67628661631429"><ele>1040.0</ele><time>2026-03-22T07:59:21.999Z</time></trkpt><trkpt lat="46.18308198115339" lon="12.676361314651757"><ele>1040.0</ele><time>2026-03-22T07:59:22.999Z</time></trkpt><trkpt lat="46.18316525933294" lon="12.676377730236963"><ele>1040.0</ele><time>2026-03-22T07:59:24.999Z</time></trkpt><trkpt lat="46.18319256356623" lon="12.676230417474535"><ele>1040.0</ele><time>2026-03-22T07:59:26.999Z</time></trkpt><trkpt lat="46.18317307714232" lon="12.676130800627305"><ele>1040.0</ele><time>2026-03-22T07:59:27.999Z</time></trkpt><trkpt lat="46.18312581560642" lon="12.676009677741558"><ele>1040.0</ele><time>2026-03-22T07:59:28.999Z</time></trkpt><trkpt lat="46.18306112589313" lon="12.675842159050939"><ele>1040.0</ele><time>2026-03-22T07:59:29.999Z</time></trkpt><trkpt lat="46.183027720431156" lon="12.675683514855288"><ele>1040.0</ele><time>2026-03-22T07:59:30.999Z</time></trkpt><trkpt lat="46.18301568688495" lon="12.675534573907603"><ele>1040.0</ele><time>2026-03-22T07:59:31.999Z</time></trkpt><trkpt lat="46.183012582117136" lon="12.675379620736516"><ele>1040.0</ele><time>2026-03-22T07:59:32.999Z</time></trkpt><trkpt lat="46.1830047761909" lon="12.67523515190789"><ele>1040.0</ele><time>2026-03-22T07:59:33.999Z</time></trkpt><trkpt lat="46.1830165195837" lon="12.675145660055469"><ele>1040.0</ele><time>2026-03-22T07:59:34.999Z</time></trkpt><trkpt lat="46.18309300386458" lon="12.67508635421285"><ele>1041.0</ele><time>2026-03-22T07:59:36.999Z</time></trkpt><trkpt lat="46.183177086797606" lon="12.675203250133766"><ele>1042.0</ele><time>2026-03-22T07:59:38.999Z</time></trkpt><trkpt lat="46.183181778292784" lon="12.675327742662425"><ele>1043.0</ele><time>2026-03-22T07:59:39.999Z</time></trkpt><trkpt lat="46.18318518508678" lon="12.675482420900181"><ele>1044.0</ele><time>2026-03-22T07:59:40.999Z</time></trkpt><trkpt lat="46.18320238162182" lon="12.675635587082782"><ele>1045.0</ele><time>2026-03-22T07:59:41.999Z</time></trkpt><trkpt lat="46.18324875467508" lon="12.675756587964555"><ele>1051.5</ele><time>2026-03-22T07:59:42.999Z</time></trkpt><trkpt lat="46.18331531611174" lon="12.675899582700541"><ele>1058.0</ele><time>2026-03-22T07:59:43.999Z</time></trkpt><trkpt lat="46.183396093570785" lon="12.676072094455378"><ele>1064.5</ele><time>2026-03-22T07:59:44.999Z</time></trkpt><trkpt lat="46.18346742098516" lon="12.676256037793742"><ele>1071.0</ele><time>2026-03-22T07:59:45.999Z</time></trkpt><trkpt lat="46.1835359939958" lon="12.676427309230283"><ele>1071.0</ele><time>2026-03-22T07:59:46.999Z</time></trkpt><trkpt lat="46.1835937326871" lon="12.676581002132759"><ele>1071.0</ele><time>2026-03-22T07:59:47.999Z</time></trkpt><trkpt lat="46.18365485790061" lon="12.676737879560498"><ele>1071.0</ele><time>2026-03-22T07:59:48.999Z</time></trkpt><trkpt lat="46.1837142998222" lon="12.67687856378123"><ele>1071.0</ele><time>2026-03-22T07:59:49.999Z</time></trkpt><trkpt lat="46.18377890053869" lon="12.67701406538866"><ele>1068.0</ele><time>2026-03-22T07:59:50.999Z</time></trkpt><trkpt lat="46.183838742147955" lon="12.677170009497255"><ele>1065.0</ele><time>2026-03-22T07:59:51.999Z</time></trkpt><trkpt lat="46.183896005081756" lon="12.677353904925702"><ele>1062.0</ele><time>2026-03-22T07:59:52.999Z</time></trkpt><trkpt lat="46.18396083706884" lon="12.677512126734847"><ele>1059.0</ele><time>2026-03-22T07:59:53.999Z</time></trkpt><trkpt lat="46.18400851568473" lon="12.677675174105755"><ele>1068.75</ele><time>2026-03-22T07:59:54.999Z</time></trkpt><trkpt lat="46.184052381452" lon="12.677851898708047"><ele>1078.5</ele><time>2026-03-22T07:59:55.999Z</time></trkpt><trkpt lat="46.18408320720465" lon="12.67800447077103"><ele>1088.25</ele><time>2026-03-22T07:59:56.999Z</time></trkpt><trkpt lat="46.18412903040738" lon="12.678146501509195"><ele>1098.0</ele><time>2026-03-22T07:59:57.999Z</time></trkpt><trkpt lat="46.18416387191884" lon="12.678309375141296"><ele>1098.0</ele><time>2026-03-22T07:59:58.999Z</time></trkpt><trkpt lat="46.18419478290392" lon="12.678466483824911"><ele>1098.0</ele><time>2026-03-22T07:59:59.999Z</time></trkpt><trkpt lat="46.18423565224452" lon="12.67863979576296"><ele>1098.0</ele><time>2026-03-22T08:00:00.999Z</time></trkpt><trkpt lat="46.184284556918" lon="12.67878879829959"><ele>1098.0</ele><time>2026-03-22T08:00:01.999Z</time></trkpt><trkpt lat="46.18433136011905" lon="12.678922127252505"><ele>1096.6666666666667</ele><time>2026-03-22T08:00:02.999Z</time></trkpt><trkpt lat="46.18438627174612" lon="12.679051304746936"><ele>1095.3333333333333</ele><time>2026-03-22T08:00:03.999Z</time></trkpt><trkpt lat="46.18444240919544" lon="12.67916855469671"><ele>1094.0</ele><time>2026-03-22T08:00:04.999Z</time></trkpt><trkpt lat="46.18449229749677" lon="12.67926477536781"><ele>1092.6666666666665</ele><time>2026-03-22T08:00:05.999Z</time></trkpt><trkpt lat="46.18452762323107" lon="12.679366510170375"><ele>1091.3333333333333</ele><time>2026-03-22T08:00:06.999Z</time></trkpt><trkpt lat="46.184559305022304" lon="12.679449545839281"><ele>1090.0</ele><time>2026-03-22T08:00:07.999Z</time></trkpt><trkpt lat="46.184656879501155" lon="12.679537233248666"><ele>1091.0</ele><time>2026-03-22T08:00:09.999Z</time></trkpt><trkpt lat="46.18478193030401" lon="12.679536266099142"><ele>1092.0</ele><time>2026-03-22T08:00:11.999Z</time></trkpt><trkpt lat="46.184848019216496" lon="12.679498870341126"><ele>1093.0</ele><time>2026-03-22T08:00:13Z</time></trkpt><trkpt lat="46.184937534383124" lon="12.679449434058302"><ele>1094.0</ele><time>2026-03-22T08:00:14Z</time></trkpt><trkpt lat="46.18502925009004" lon="12.679394859668394"><ele>1095.0</ele><time>2026-03-22T08:00:15Z</time></trkpt><trkpt lat="46.18510979956823" lon="12.679385985064814"><ele>1095.0</ele><time>2026-03-22T08:00:16Z</time></trkpt><trkpt lat="46.18517323068899" lon="12.67941943874842"><ele>1095.0</ele><time>2026-03-22T08:00:17Z</time></trkpt><trkpt lat="46.185246704539495" lon="12.67945541378946"><ele>1095.0</ele><time>2026-03-22T08:00:18Z</time></trkpt><trkpt lat="46.18531459912716" lon="12.679508645877148"><ele>1095.0</ele><time>2026-03-22T08:00:19Z</time></trkpt><trkpt lat="46.18539637986952" lon="12.679632526710673"><ele>1095.0</ele><time>2026-03-22T08:00:20Z</time></trkpt><trkpt lat="46.1854736386871" lon="12.679799054758739"><ele>1095.0</ele><time>2026-03-22T08:00:21Z</time></trkpt><trkpt lat="46.185576788122475" lon="12.679951638557958"><ele>1095.0</ele><time>2026-03-22T08:00:22Z</time></trkpt><trkpt lat="46.18567902740333" lon="12.680113911635956"><ele>1095.0</ele><time>2026-03-22T08:00:23Z</time></trkpt><trkpt lat="46.1857691990914" lon="12.680262891924599"><ele>1095.0</ele><time>2026-03-22T08:00:24Z</time></trkpt><trkpt lat="46.18583925468032" lon="12.680406162654757"><ele>1096.0</ele><time>2026-03-22T08:00:25Z</time></trkpt><trkpt lat="46.185894876233235" lon="12.680542826862448"><ele>1097.0</ele><time>2026-03-22T08:00:26Z</time></trkpt><trkpt lat="46.185930250518915" lon="12.680661195384392"><ele>1098.0</ele><time>2026-03-22T08:00:27Z</time></trkpt><trkpt lat="46.18596364107439" lon="12.68075614076133"><ele>1099.0</ele><time>2026-03-22T08:00:28Z</time></trkpt><trkpt lat="46.18607360517451" lon="12.680894159461014"><ele>1100.0</ele><time>2026-03-22T08:00:30Z</time></trkpt><trkpt lat="46.18614277054804" lon="12.680961750577522"><ele>1100.0</ele><time>2026-03-22T08:00:31Z</time></trkpt><trkpt lat="46.18621975417525" lon="12.680994522256722"><ele>1100.0</ele><time>2026-03-22T08:00:32Z</time></trkpt><trkpt lat="46.18629976533414" lon="12.681012306854957"><ele>1100.0</ele><time>2026-03-22T08:00:33Z</time></trkpt><trkpt lat="46.18636737039114" lon="12.681018186693555"><ele>1100.0</ele><time>2026-03-22T08:00:34Z</time></trkpt><trkpt lat="46.18646296621916" lon="12.681034971515961"><ele>1100.0</ele><time>2026-03-22T08:00:35Z</time></trkpt><trkpt lat="46.186526634480565" lon="12.681101235036202"><ele>1100.0</ele><time>2026-03-22T08:00:36Z</time></trkpt><trkpt lat="46.186582049525285" lon="12.681194837271201"><ele>1102.25</ele><time>2026-03-22T08:00:37Z</time></trkpt><trkpt lat="46.186667552342136" lon="12.681351037145456"><ele>1104.5</ele><time>2026-03-22T08:00:38Z</time></trkpt><trkpt lat="46.18673792575188" lon="12.68153166866802"><ele>1106.75</ele><time>2026-03-22T08:00:39Z</time></trkpt><trkpt lat="46.18682134573393" lon="12.681687426461739"><ele>1109.0</ele><time>2026-03-22T08:00:40Z</time></trkpt><trkpt lat="46.186877469031025" lon="12.681797357171698"><ele>1109.0</ele><time>2026-03-22T08:00:41Z</time></trkpt><trkpt lat="46.18691683463863" lon="12.681917093748101"><ele>1109.0</ele><time>2026-03-22T08:00:42Z</time></trkpt><trkpt lat="46.186946599545266" lon="12.682033274146862"><ele>1109.0</ele><time>2026-03-22T08:00:43Z</time></trkpt><trkpt lat="46.18696146342419" lon="12.68215564053277"><ele>1109.0</ele><time>2026-03-22T08:00:44Z</time></trkpt><trkpt lat="46.1869451828623" lon="12.682244054824707"><ele>1109.0</ele><time>2026-03-22T08:00:45Z</time></trkpt><trkpt lat="46.18699740762813" lon="12.682347310320788"><ele>1109.0</ele><time>2026-03-22T08:00:47Z</time></trkpt><trkpt lat="46.18706882651253" lon="12.682337545375285"><ele>1109.0</ele><time>2026-03-22T08:00:49Z</time></trkpt><trkpt lat="46.187153147339814" lon="12.68225588494447"><ele>1109.0</ele><time>2026-03-22T08:00:51Z</time></trkpt><trkpt lat="46.187209800860046" lon="12.682210574593597"><ele>1109.0</ele><time>2026-03-22T08:00:53Z</time></trkpt><trkpt lat="46.187254663688094" lon="12.682140245236406"><ele>1109.0</ele><time>2026-03-22T08:03:57.999Z</time></trkpt><trkpt lat="46.18716851969851" lon="12.682005143479591"><ele>1109.0</ele><time>2026-03-22T08:04:00.999Z</time></trkpt><trkpt lat="46.18713402601222" lon="12.681916766907344"><ele>1109.0</ele><time>2026-03-22T08:04:02.999Z</time></trkpt><trkpt lat="46.1871296892918" lon="12.681784880797803"><ele>1109.0</ele><time>2026-03-22T08:04:04.999Z</time></trkpt><trkpt lat="46.18710385722525" lon="12.681665344541466"><ele>1109.0</ele><time>2026-03-22T08:04:06.999Z</time></trkpt><trkpt lat="46.18707747497437" lon="12.681550008011172"><ele>1109.0</ele><time>2026-03-22T08:04:08.999Z</time></trkpt><trkpt lat="46.18703864268673" lon="12.681443753481231"><ele>1109.0</ele><time>2026-03-22T08:04:10.999Z</time></trkpt><trkpt lat="46.18699566370039" lon="12.6813045430432"><ele>1109.0</ele><time>2026-03-22T08:04:12.999Z</time></trkpt><trkpt lat="46.18695042760644" lon="12.681124642186592"><ele>1110.6000000000001</ele><time>2026-03-22T08:04:14.999Z</time></trkpt><trkpt lat="46.186938718595464" lon="12.681005484445675"><ele>1112.2</ele><time>2026-03-22T08:04:15.999Z</time></trkpt><trkpt lat="46.18692744956518" lon="12.68087620232512"><ele>1113.8000000000002</ele><time>2026-03-22T08:04:16.999Z</time></trkpt><trkpt lat="46.18691252049285" lon="12.680759945744141"><ele>1115.4</ele><time>2026-03-22T08:04:17.999Z</time></trkpt><trkpt lat="46.18690516409439" lon="12.680636616388618"><ele>1117.0</ele><time>2026-03-22T08:04:18.999Z</time></trkpt><trkpt lat="46.18688625371915" lon="12.680464058811307"><ele>1117.0</ele><time>2026-03-22T08:04:20.999Z</time></trkpt><trkpt lat="46.186869049369164" lon="12.680292698903855"><ele>1117.0</ele><time>2026-03-22T08:04:22.999Z</time></trkpt><trkpt lat="46.18684469725843" lon="12.680181668568355"><ele>1117.0</ele><time>2026-03-22T08:04:25Z</time></trkpt><trkpt lat="46.18682072005343" lon="12.680068842090732"><ele>1117.0</ele><time>2026-03-22T08:04:27Z</time></trkpt><trkpt lat="46.18680638747852" lon="12.679953832405568"><ele>1117.0</ele><time>2026-03-22T08:04:29Z</time></trkpt><trkpt lat="46.18687584602729" lon="12.6799399477818"><ele>1117.0</ele><time>2026-03-22T08:04:32Z</time></trkpt><trkpt lat="46.18692895713435" lon="12.680065700647015"><ele>1117.0</ele><time>2026-03-22T08:04:34Z</time></trkpt><trkpt lat="46.186969901473596" lon="12.680143263100234"><ele>1117.0</ele><time>2026-03-22T08:04:35Z</time></trkpt><trkpt lat="46.18707010981927" lon="12.680242942633653"><ele>1117.0</ele><time>2026-03-22T08:04:37Z</time></trkpt><trkpt lat="46.18713047299948" lon="12.680296722426085"><ele>1117.0</ele><time>2026-03-22T08:04:38Z</time></trkpt><trkpt lat="46.187183135490386" lon="12.68035667459314"><ele>1117.0</ele><time>2026-03-22T08:04:39Z</time></trkpt><trkpt lat="46.18728078595168" lon="12.68048313011418"><ele>1117.0</ele><time>2026-03-22T08:04:41Z</time></trkpt><trkpt lat="46.18733173880064" lon="12.680547211493506"><ele>1117.0</ele><time>2026-03-22T08:04:42Z</time></trkpt><trkpt lat="46.18740063620016" lon="12.680659343897034"><ele>1117.0</ele><time>2026-03-22T08:04:44Z</time></trkpt><trkpt lat="46.187425012370554" lon="12.680518514803676"><ele>1117.0</ele><time>2026-03-22T08:04:49Z</time></trkpt><trkpt lat="46.187384447909" lon="12.680416384499267"><ele>1117.0</ele><time>2026-03-22T08:04:50Z</time></trkpt><trkpt lat="46.187383573133296" lon="12.680267367813865"><ele>1120.6</ele><time>2026-03-22T08:04:52Z</time></trkpt><trkpt lat="46.187444274746504" lon="12.680150498975026"><ele>1124.2</ele><time>2026-03-22T08:04:54Z</time></trkpt><trkpt lat="46.18755604758083" lon="12.68012847984919"><ele>1127.8</ele><time>2026-03-22T08:04:56Z</time></trkpt><trkpt lat="46.1876366449529" lon="12.680145098663195"><ele>1131.4</ele><time>2026-03-22T08:04:57Z</time></trkpt><trkpt lat="46.187730661429" lon="12.680172048685522"><ele>1135.0</ele><time>2026-03-22T08:04:58Z</time></trkpt><trkpt lat="46.18782822483465" lon="12.680221491391572"><ele>1133.5</ele><time>2026-03-22T08:04:59Z</time></trkpt><trkpt lat="46.187941423983595" lon="12.68029776257183"><ele>1132.0</ele><time>2026-03-22T08:05:00Z</time></trkpt><trkpt lat="46.18803340914138" lon="12.680364581715029"><ele>1130.5</ele><time>2026-03-22T08:05:01Z</time></trkpt><trkpt lat="46.188095891110585" lon="12.680430514814885"><ele>1129.0</ele><time>2026-03-22T08:05:02Z</time></trkpt><trkpt lat="46.1881569777058" lon="12.680497701377314"><ele>1127.5</ele><time>2026-03-22T08:05:03Z</time></trkpt><trkpt lat="46.18819865324392" lon="12.680570210439937"><ele>1126.0</ele><time>2026-03-22T08:05:04Z</time></trkpt><trkpt lat="46.188280921794615" lon="12.680745850923536"><ele>1126.0</ele><time>2026-03-22T08:05:06Z</time></trkpt><trkpt lat="46.18833499932132" lon="12.680826150731454"><ele>1126.0</ele><time>2026-03-22T08:05:07Z</time></trkpt><trkpt lat="46.18838977065434" lon="12.680892787128455"><ele>1126.0</ele><time>2026-03-22T08:05:08Z</time></trkpt><trkpt lat="46.188440709972305" lon="12.680957815907227"><ele>1126.0</ele><time>2026-03-22T08:05:09Z</time></trkpt><trkpt lat="46.188497048817574" lon="12.681021393581634"><ele>1126.0</ele><time>2026-03-22T08:05:10Z</time></trkpt><trkpt lat="46.1885544637683" lon="12.681086911960197"><ele>1126.0</ele><time>2026-03-22T08:05:11Z</time></trkpt><trkpt lat="46.188624472964904" lon="12.681149217998922"><ele>1126.0</ele><time>2026-03-22T08:05:12Z</time></trkpt><trkpt lat="46.188679911837376" lon="12.681202332901904"><ele>1124.3333333333333</ele><time>2026-03-22T08:05:13Z</time></trkpt><trkpt lat="46.188732672149776" lon="12.681258704904568"><ele>1122.6666666666665</ele><time>2026-03-22T08:05:14Z</time></trkpt><trkpt lat="46.18884233604291" lon="12.681350526184568"><ele>1121.0</ele><time>2026-03-22T08:05:16Z</time></trkpt><trkpt lat="46.188898251562726" lon="12.681393627985647"><ele>1119.3333333333333</ele><time>2026-03-22T08:05:17Z</time></trkpt><trkpt lat="46.188959246438195" lon="12.68143500330982"><ele>1117.6666666666667</ele><time>2026-03-22T08:05:18Z</time></trkpt><trkpt lat="46.189058881567135" lon="12.681495262140462"><ele>1116.0</ele><time>2026-03-22T08:05:20Z</time></trkpt><trkpt lat="46.18915769933481" lon="12.681552974835752"><ele>1115.8333333333333</ele><time>2026-03-22T08:05:22Z</time></trkpt><trkpt lat="46.189277076956195" lon="12.681585717399503"><ele>1115.6666666666667</ele><time>2026-03-22T08:05:24Z</time></trkpt><trkpt lat="46.18933931017142" lon="12.681601228668965"><ele>1115.5</ele><time>2026-03-22T08:05:25Z</time></trkpt><trkpt lat="46.189412702599945" lon="12.681622527472285"><ele>1115.3333333333335</ele><time>2026-03-22T08:05:26Z</time></trkpt><trkpt lat="46.18948204145695" lon="12.681643798639113"><ele>1115.1666666666667</ele><time>2026-03-22T08:05:27Z</time></trkpt><trkpt lat="46.18954808518787" lon="12.681655972792928"><ele>1115.0</ele><time>2026-03-22T08:05:28Z</time></trkpt><trkpt lat="46.18966097331583" lon="12.681637278451634"><ele>1115.0</ele><time>2026-03-22T08:05:30Z</time></trkpt><trkpt lat="46.18972035389176" lon="12.681593209583816"><ele>1115.0</ele><time>2026-03-22T08:05:31Z</time></trkpt><trkpt lat="46.189787106371945" lon="12.681472748798393"><ele>1115.0</ele><time>2026-03-22T08:05:33Z</time></trkpt><trkpt lat="46.189794160081924" lon="12.681348902807139"><ele>1115.0</ele><time>2026-03-22T08:05:35Z</time></trkpt><trkpt lat="46.18977625441909" lon="12.681258662866568"><ele>1115.0</ele><time>2026-03-22T08:05:36Z</time></trkpt><trkpt lat="46.18974261139395" lon="12.681147591371683"><ele>1115.0</ele><time>2026-03-22T08:05:37Z</time></trkpt><trkpt lat="46.189706432691665" lon="12.681027904234519"><ele>1116.0</ele><time>2026-03-22T08:05:38Z</time></trkpt><trkpt lat="46.18967599354625" lon="12.680896776790552"><ele>1117.0</ele><time>2026-03-22T08:05:39Z</time></trkpt><trkpt lat="46.189671240161196" lon="12.680754563299052"><ele>1118.0</ele><time>2026-03-22T08:05:40Z</time></trkpt><trkpt lat="46.18967827917951" lon="12.680585832631433"><ele>1119.0</ele><time>2026-03-22T08:05:41Z</time></trkpt><trkpt lat="46.18968499573255" lon="12.680431109623528"><ele>1120.0</ele><time>2026-03-22T08:05:42Z</time></trkpt><trkpt lat="46.18967919357113" lon="12.680288561880468"><ele>1120.3333333333333</ele><time>2026-03-22T08:05:43Z</time></trkpt><trkpt lat="46.189655185725194" lon="12.680177506209182"><ele>1120.6666666666665</ele><time>2026-03-22T08:05:44Z</time></trkpt><trkpt lat="46.18964560420235" lon="12.68001623008315"><ele>1121.0</ele><time>2026-03-22T08:05:46Z</time></trkpt><trkpt lat="46.189703062974836" lon="12.679936666310818"><ele>1121.3333333333333</ele><time>2026-03-22T08:05:48Z</time></trkpt><trkpt lat="46.18976816952063" lon="12.679912427204822"><ele>1121.6666666666667</ele><time>2026-03-22T08:05:49Z</time></trkpt><trkpt lat="46.189834723770886" lon="12.679900565947223"><ele>1122.0</ele><time>2026-03-22T08:05:50Z</time></trkpt><trkpt lat="46.18990626770998" lon="12.679903449099601"><ele>1118.1666666666667</ele><time>2026-03-22T08:05:51Z</time></trkpt><trkpt lat="46.189971985297504" lon="12.679893843959096"><ele>1114.3333333333333</ele><time>2026-03-22T08:05:52Z</time></trkpt><trkpt lat="46.190036191074974" lon="12.679883566082284"><ele>1110.5</ele><time>2026-03-22T08:05:53Z</time></trkpt><trkpt lat="46.190099648392234" lon="12.679865863035523"><ele>1106.6666666666665</ele><time>2026-03-22T08:05:54Z</time></trkpt><trkpt lat="46.190198836056084" lon="12.679816137726242"><ele>1102.8333333333333</ele><time>2026-03-22T08:05:55.999Z</time></trkpt><trkpt lat="46.19027567439908" lon="12.679714283654127"><ele>1099.0</ele><time>2026-03-22T08:05:57.999Z</time></trkpt><trkpt lat="46.19025000528031" lon="12.67958643120843"><ele>1099.0</ele><time>2026-03-22T08:05:59.999Z</time></trkpt><trkpt lat="46.19015759567365" lon="12.679484340468077"><ele>1099.0</ele><time>2026-03-22T08:06:01.999Z</time></trkpt><trkpt lat="46.190128007075415" lon="12.679318328210844"><ele>1099.0</ele><time>2026-03-22T08:06:03.999Z</time></trkpt><trkpt lat="46.19013810019168" lon="12.679215576483642"><ele>1099.0</ele><time>2026-03-22T08:06:04.999Z</time></trkpt><trkpt lat="46.190151633787444" lon="12.679109178143433"><ele>1099.0</ele><time>2026-03-22T08:06:05.999Z</time></trkpt><trkpt lat="46.19012923398311" lon="12.67901067658527"><ele>1099.4</ele><time>2026-03-22T08:06:06.999Z</time></trkpt><trkpt lat="46.19006469235548" lon="12.678845526203679"><ele>1099.8000000000002</ele><time>2026-03-22T08:06:08.999Z</time></trkpt><trkpt lat="46.19003180844509" lon="12.678729714071192"><ele>1100.1999999999998</ele><time>2026-03-22T08:06:09.999Z</time></trkpt><trkpt lat="46.190006088191055" lon="12.678623922004453"><ele>1100.6</ele><time>2026-03-22T08:06:10.999Z</time></trkpt><trkpt lat="46.18998687291817" lon="12.678531932286235"><ele>1101.0</ele><time>2026-03-22T08:06:11.999Z</time></trkpt><trkpt lat="46.189895217186525" lon="12.678458200476902"><ele>1101.0</ele><time>2026-03-22T08:06:13.999Z</time></trkpt><trkpt lat="46.18982676133218" lon="12.678439101067106"><ele>1101.0</ele><time>2026-03-22T08:06:14.999Z</time></trkpt><trkpt lat="46.189737699750864" lon="12.678320708713153"><ele>1101.0</ele><time>2026-03-22T08:06:16.999Z</time></trkpt><trkpt lat="46.18975435346891" lon="12.678178954768052"><ele>1101.0</ele><time>2026-03-22T08:06:18.999Z</time></trkpt><trkpt lat="46.189823718641776" lon="12.67813255156394"><ele>1101.0</ele><time>2026-03-22T08:06:20.999Z</time></trkpt><trkpt lat="46.19000095861214" lon="12.6781602593961"><ele>1101.0</ele><time>2026-03-22T08:06:22.999Z</time></trkpt><trkpt lat="46.1901154897721" lon="12.678195047003399"><ele>1101.0</ele><time>2026-03-22T08:06:23.999Z</time></trkpt><trkpt lat="46.19023134565434" lon="12.678218104898553"><ele>1101.0</ele><time>2026-03-22T08:06:24.999Z</time></trkpt><trkpt lat="46.190332316190855" lon="12.678244496939953"><ele>1101.0</ele><time>2026-03-22T08:06:25.999Z</time></trkpt><trkpt lat="46.19041375008353" lon="12.678278238571945"><ele>1101.0</ele><time>2026-03-22T08:06:26.999Z</time></trkpt><trkpt lat="46.19049746089673" lon="12.678312459173819"><ele>1101.0</ele><time>2026-03-22T08:06:27.999Z</time></trkpt><trkpt lat="46.19057600834726" lon="12.678320522349221"><ele>1101.0</ele><time>2026-03-22T08:06:28.999Z</time></trkpt><trkpt lat="46.19067208493217" lon="12.678271247437044"><ele>1101.0</ele><time>2026-03-22T08:06:31Z</time></trkpt><trkpt lat="46.190713566646906" lon="12.678200512769331"><ele>1101.0</ele><time>2026-03-22T08:06:32Z</time></trkpt><trkpt lat="46.190795278657106" lon="12.678101837280819"><ele>1101.0</ele><time>2026-03-22T08:06:34Z</time></trkpt><trkpt lat="46.1908883021363" lon="12.678201692137435"><ele>1098.1666666666667</ele><time>2026-03-22T08:06:36Z</time></trkpt><trkpt lat="46.190911859930495" lon="12.678312814894898"><ele>1095.3333333333333</ele><time>2026-03-22T08:06:37Z</time></trkpt><trkpt lat="46.19092286949358" lon="12.67843882160433"><ele>1092.5</ele><time>2026-03-22T08:06:38Z</time></trkpt><trkpt lat="46.190944306653115" lon="12.6785476254354"><ele>1089.6666666666665</ele><time>2026-03-22T08:06:39Z</time></trkpt><trkpt lat="46.1910010285177" lon="12.678630394878198"><ele>1086.8333333333333</ele><time>2026-03-22T08:06:40Z</time></trkpt><trkpt lat="46.191052530101025" lon="12.678708389455164"><ele>1084.0</ele><time>2026-03-22T08:06:41Z</time></trkpt><trkpt lat="46.191100932932834" lon="12.678770328720528"><ele>1081.8333333333333</ele><time>2026-03-22T08:06:42Z</time></trkpt><trkpt lat="46.191155890468465" lon="12.678830460412318"><ele>1079.6666666666665</ele><time>2026-03-22T08:06:43Z</time></trkpt><trkpt lat="46.19122207061782" lon="12.678888483647642"><ele>1077.5</ele><time>2026-03-22T08:06:44Z</time></trkpt><trkpt lat="46.19130072169685" lon="12.678942864781403"><ele>1075.3333333333333</ele><time>2026-03-22T08:06:45Z</time></trkpt><trkpt lat="46.1913793619041" lon="12.678996327309946"><ele>1073.1666666666667</ele><time>2026-03-22T08:06:46Z</time></trkpt><trkpt lat="46.19145171055609" lon="12.679070223776549"><ele>1071.0</ele><time>2026-03-22T08:06:47Z</time></trkpt><trkpt lat="46.19150737673203" lon="12.679140564565982"><ele>1069.8</ele><time>2026-03-22T08:06:48Z</time></trkpt><trkpt lat="46.19156565352651" lon="12.679205591491728"><ele>1068.6</ele><time>2026-03-22T08:06:49Z</time></trkpt><trkpt lat="46.191671678892625" lon="12.679273615750486"><ele>1067.4</ele><time>2026-03-22T08:06:51Z</time></trkpt><trkpt lat="46.19175409327465" lon="12.67926117703666"><ele>1066.2</ele><time>2026-03-22T08:06:53Z</time></trkpt><trkpt lat="46.19180716863863" lon="12.679143823399281"><ele>1065.0</ele><time>2026-03-22T08:06:55Z</time></trkpt><trkpt lat="46.19185456363985" lon="12.678960504047213"><ele>1065.0</ele><time>2026-03-22T08:06:57Z</time></trkpt><trkpt lat="46.19189312722289" lon="12.678821125656254"><ele>1065.0</ele><time>2026-03-22T08:06:58Z</time></trkpt><trkpt lat="46.19190163694458" lon="12.678689494804901"><ele>1065.0</ele><time>2026-03-22T08:06:59Z</time></trkpt><trkpt lat="46.19192392209126" lon="12.67858860384803"><ele>1065.0</ele><time>2026-03-22T08:07:00Z</time></trkpt><trkpt lat="46.19195046505179" lon="12.678496815948552"><ele>1065.0</ele><time>2026-03-22T08:07:01Z</time></trkpt><trkpt lat="46.19196507512134" lon="12.678407410706118"><ele>1065.0</ele><time>2026-03-22T08:07:02Z</time></trkpt><trkpt lat="46.191931218155844" lon="12.678251853262534"><ele>1065.8</ele><time>2026-03-22T08:07:04Z</time></trkpt><trkpt lat="46.19187683052367" lon="12.678171319822484"><ele>1066.6</ele><time>2026-03-22T08:07:05Z</time></trkpt><trkpt lat="46.19182057331008" lon="12.678104728343301"><ele>1067.4</ele><time>2026-03-22T08:07:06Z</time></trkpt><trkpt lat="46.19176550915059" lon="12.677972762185988"><ele>1068.2</ele><time>2026-03-22T08:07:08Z</time></trkpt><trkpt lat="46.19181031927153" lon="12.677796630366295"><ele>1069.0</ele><time>2026-03-22T08:07:10Z</time></trkpt><trkpt lat="46.19189169254245" lon="12.67764906866174"><ele>1069.0</ele><time>2026-03-22T08:07:12Z</time></trkpt><trkpt lat="46.19189579684089" lon="12.677507677986858"><ele>1069.0</ele><time>2026-03-22T08:07:14Z</time></trkpt><trkpt lat="46.19186382659598" lon="12.677423506891476"><ele>1069.0</ele><time>2026-03-22T08:07:15Z</time></trkpt><trkpt lat="46.19182986612726" lon="12.677329675115107"><ele>1069.0</ele><time>2026-03-22T08:07:16Z</time></trkpt><trkpt lat="46.19178917793634" lon="12.67715336166096"><ele>1069.0</ele><time>2026-03-22T08:07:18Z</time></trkpt><trkpt lat="46.1918097897292" lon="12.677001939893975"><ele>1067.1666666666665</ele><time>2026-03-22T08:07:20Z</time></trkpt><trkpt lat="46.19184450103568" lon="12.676918320721622"><ele>1065.3333333333333</ele><time>2026-03-22T08:07:21Z</time></trkpt><trkpt lat="46.19182941708992" lon="12.676780166828115"><ele>1063.5</ele><time>2026-03-22T08:07:23Z</time></trkpt><trkpt lat="46.19179202241914" lon="12.676701955214284"><ele>1061.6666666666667</ele><time>2026-03-22T08:07:24Z</time></trkpt><trkpt lat="46.191748162684966" lon="12.676618678270811"><ele>1059.8333333333335</ele><time>2026-03-22T08:07:25Z</time></trkpt><trkpt lat="46.191681068855075" lon="12.676523189538262"><ele>1058.0</ele><time>2026-03-22T08:07:26Z</time></trkpt><trkpt lat="46.19160237901266" lon="12.67639554221637"><ele>1058.0</ele><time>2026-03-22T08:07:27Z</time></trkpt><trkpt lat="46.19154460357654" lon="12.676274507781992"><ele>1058.0</ele><time>2026-03-22T08:07:28Z</time></trkpt><trkpt lat="46.191476718697935" lon="12.67614810116468"><ele>1058.0</ele><time>2026-03-22T08:07:29Z</time></trkpt><trkpt lat="46.1914084773204" lon="12.676045490184338"><ele>1058.0</ele><time>2026-03-22T08:07:30Z</time></trkpt><trkpt lat="46.191344051525135" lon="12.675923539737667"><ele>1058.0</ele><time>2026-03-22T08:07:31Z</time></trkpt><trkpt lat="46.1912917656335" lon="12.67581125018189"><ele>1062.1666666666667</ele><time>2026-03-22T08:07:32Z</time></trkpt><trkpt lat="46.191240553667484" lon="12.675708009871501"><ele>1066.3333333333335</ele><time>2026-03-22T08:07:33Z</time></trkpt><trkpt lat="46.19120499068044" lon="12.675602695543782"><ele>1070.5</ele><time>2026-03-22T08:07:34Z</time></trkpt><trkpt lat="46.19118364936202" lon="12.67547991797863"><ele>1074.6666666666667</ele><time>2026-03-22T08:07:35Z</time></trkpt><trkpt lat="46.19117068229452" lon="12.675374588107314"><ele>1078.8333333333333</ele><time>2026-03-22T08:07:36Z</time></trkpt><trkpt lat="46.19114856811624" lon="12.675270109735928"><ele>1083.0</ele><time>2026-03-22T08:07:37Z</time></trkpt><trkpt lat="46.191186205878864" lon="12.67513676173478"><ele>1083.0</ele><time>2026-03-22T08:07:39Z</time></trkpt><trkpt lat="46.19129432914238" lon="12.675072775641151"><ele>1083.0</ele><time>2026-03-22T08:07:41Z</time></trkpt><trkpt lat="46.191373133848195" lon="12.675083162256641"><ele>1083.0</ele><time>2026-03-22T08:07:42Z</time></trkpt><trkpt lat="46.19145630204337" lon="12.675083902114007"><ele>1083.0</ele><time>2026-03-22T08:07:43Z</time></trkpt><trkpt lat="46.19156793421503" lon="12.675082518880139"><ele>1083.0</ele><time>2026-03-22T08:07:44Z</time></trkpt><trkpt lat="46.19169212470856" lon="12.675071378964516"><ele>1077.6</ele><time>2026-03-22T08:07:45Z</time></trkpt><trkpt lat="46.191784752990415" lon="12.675057113097747"><ele>1072.1999999999998</ele><time>2026-03-22T08:07:45.999Z</time></trkpt><trkpt lat="46.19188505426173" lon="12.67501390132464"><ele>1066.8</ele><time>2026-03-22T08:07:46.999Z</time></trkpt><trkpt lat="46.191984216786" lon="12.674975793097117"><ele>1061.3999999999999</ele><time>2026-03-22T08:07:47.999Z</time></trkpt><trkpt lat="46.19208639219052" lon="12.674935518668427"><ele>1056.0</ele><time>2026-03-22T08:07:48.999Z</time></trkpt><trkpt lat="46.1921821121725" lon="12.67490545440657"><ele>1056.0</ele><time>2026-03-22T08:07:49.999Z</time></trkpt><trkpt lat="46.19228005168622" lon="12.67487404719588"><ele>1056.0</ele><time>2026-03-22T08:07:50.999Z</time></trkpt><trkpt lat="46.19237841454313" lon="12.674810035302992"><ele>1056.0</ele><time>2026-03-22T08:07:51.999Z</time></trkpt><trkpt lat="46.19247861210942" lon="12.674757402711279"><ele>1056.0</ele><time>2026-03-22T08:07:52.999Z</time></trkpt><trkpt lat="46.19256651041287" lon="12.674712671217806"><ele>1056.0</ele><time>2026-03-22T08:07:53.999Z</time></trkpt><trkpt lat="46.19264918699543" lon="12.674673892222827"><ele>1054.3999999999999</ele><time>2026-03-22T08:07:54.999Z</time></trkpt><trkpt lat="46.19273765222713" lon="12.674643322440767"><ele>1052.8</ele><time>2026-03-22T08:07:55.999Z</time></trkpt><trkpt lat="46.1928132198419" lon="12.67456079462967"><ele>1051.1999999999998</ele><time>2026-03-22T08:07:57.999Z</time></trkpt><trkpt lat="46.19276682836781" lon="12.674432036167644"><ele>1049.6</ele><time>2026-03-22T08:07:59.999Z</time></trkpt><trkpt lat="46.19274303073375" lon="12.674345110362161"><ele>1048.0</ele><time>2026-03-22T08:08:00.999Z</time></trkpt><trkpt lat="46.19283403658896" lon="12.674194766311393"><ele>1048.0</ele><time>2026-03-22T08:08:02.999Z</time></trkpt><trkpt lat="46.19291524794362" lon="12.674151844240304"><ele>1048.0</ele><time>2026-03-22T08:08:03.999Z</time></trkpt><trkpt lat="46.19299420214881" lon="12.674120755640713"><ele>1048.0</ele><time>2026-03-22T08:08:04.999Z</time></trkpt><trkpt lat="46.19305552240376" lon="12.674086459279962"><ele>1048.0</ele><time>2026-03-22T08:08:05.999Z</time></trkpt><trkpt lat="46.1931431635527" lon="12.673988501100377"><ele>1048.0</ele><time>2026-03-22T08:08:07.999Z</time></trkpt><trkpt lat="46.19314217958844" lon="12.673864429633834"><ele>1048.0</ele><time>2026-03-22T08:08:09.999Z</time></trkpt><trkpt lat="46.19306171740803" lon="12.67371151205231"><ele>1047.0</ele><time>2026-03-22T08:08:11.999Z</time></trkpt><trkpt lat="46.192997345534884" lon="12.673584872246163"><ele>1046.0</ele><time>2026-03-22T08:08:12.999Z</time></trkpt><trkpt lat="46.192919545399945" lon="12.67345814142044"><ele>1045.0</ele><time>2026-03-22T08:08:13.999Z</time></trkpt><trkpt lat="46.19283502460094" lon="12.673317658850845"><ele>1044.0</ele><time>2026-03-22T08:08:14.999Z</time></trkpt><trkpt lat="46.19277947578152" lon="12.673204003463736"><ele>1044.0</ele><time>2026-03-22T08:08:15.999Z</time></trkpt><trkpt lat="46.19272740589789" lon="12.673105065144208"><ele>1044.0</ele><time>2026-03-22T08:08:16.999Z</time></trkpt><trkpt lat="46.192618535383325" lon="12.673010443694482"><ele>1044.0</ele><time>2026-03-22T08:08:18.999Z</time></trkpt><trkpt lat="46.19255277775813" lon="12.672965572577775"><ele>1044.0</ele><time>2026-03-22T08:08:19.999Z</time></trkpt><trkpt lat="46.192475383409" lon="12.672896551693553"><ele>1044.0</ele><time>2026-03-22T08:08:20.999Z</time></trkpt><trkpt lat="46.19242730970227" lon="12.672810924767418"><ele>1040.7142857142858</ele><time>2026-03-22T08:08:21.999Z</time></trkpt><trkpt lat="46.19235790524066" lon="12.6727292177913"><ele>1037.4285714285713</ele><time>2026-03-22T08:08:22.999Z</time></trkpt><trkpt lat="46.192310822717246" lon="12.672644359892638"><ele>1034.142857142857</ele><time>2026-03-22T08:08:23.999Z</time></trkpt><trkpt lat="46.19228663393829" lon="12.672558395649732"><ele>1030.857142857143</ele><time>2026-03-22T08:08:24.999Z</time></trkpt><trkpt lat="46.19228559522604" lon="12.672466102613948"><ele>1027.5714285714287</ele><time>2026-03-22T08:08:25.999Z</time></trkpt><trkpt lat="46.192281632467626" lon="12.672370013358307"><ele>1024.2857142857142</ele><time>2026-03-22T08:08:26.999Z</time></trkpt><trkpt lat="46.19229871895982" lon="12.672265606169553"><ele>1021.0</ele><time>2026-03-22T08:08:27.999Z</time></trkpt><trkpt lat="46.19232920692342" lon="12.672180603497768"><ele>1028.3333333333333</ele><time>2026-03-22T08:08:28.999Z</time></trkpt><trkpt lat="46.19233657465945" lon="12.67208939897932"><ele>1035.6666666666665</ele><time>2026-03-22T08:08:29.999Z</time></trkpt><trkpt lat="46.192330197134666" lon="12.67194952500077"><ele>1043.0</ele><time>2026-03-22T08:08:31.999Z</time></trkpt><trkpt lat="46.19231405862526" lon="12.671853767670276"><ele>1050.3333333333333</ele><time>2026-03-22T08:08:32.999Z</time></trkpt><trkpt lat="46.19229375720923" lon="12.671749856372472"><ele>1057.6666666666667</ele><time>2026-03-22T08:08:33.999Z</time></trkpt><trkpt lat="46.19225626097099" lon="12.671637895316021"><ele>1065.0</ele><time>2026-03-22T08:08:34.999Z</time></trkpt><trkpt lat="46.19223037115301" lon="12.671529769456942"><ele>1065.0</ele><time>2026-03-22T08:08:35.999Z</time></trkpt><trkpt lat="46.19221247671368" lon="12.671359701169289"><ele>1065.0</ele><time>2026-03-22T08:08:38Z</time></trkpt><trkpt lat="46.19226189366609" lon="12.671187956286683"><ele>1065.0</ele><time>2026-03-22T08:08:40Z</time></trkpt><trkpt lat="46.19232427246283" lon="12.671101330267799"><ele>1065.0</ele><time>2026-03-22T08:08:41Z</time></trkpt><trkpt lat="46.192415110019034" lon="12.67102199553054"><ele>1065.0</ele><time>2026-03-22T08:08:42Z</time></trkpt><trkpt lat="46.19249919500163" lon="12.670953476388595"><ele>1056.8</ele><time>2026-03-22T08:08:43Z</time></trkpt><trkpt lat="46.192592841097934" lon="12.6709008820438"><ele>1048.6</ele><time>2026-03-22T08:08:44Z</time></trkpt><trkpt lat="46.1926592657871" lon="12.670849773388321"><ele>1040.4</ele><time>2026-03-22T08:08:45Z</time></trkpt><trkpt lat="46.19273445569608" lon="12.670816076770848"><ele>1032.2</ele><time>2026-03-22T08:08:46Z</time></trkpt><trkpt lat="46.19282581133374" lon="12.670812793557817"><ele>1024.0</ele><time>2026-03-22T08:08:47Z</time></trkpt><trkpt lat="46.19293535858125" lon="12.670759425807965"><ele>1024.0</ele><time>2026-03-22T08:08:49Z</time></trkpt><trkpt lat="46.19302362219696" lon="12.67057497026862"><ele>1024.0</ele><time>2026-03-22T08:08:51Z</time></trkpt><trkpt lat="46.19308773841924" lon="12.67044702267956"><ele>1024.0</ele><time>2026-03-22T08:08:52Z</time></trkpt><trkpt lat="46.19314962534011" lon="12.670333455328706"><ele>1024.0</ele><time>2026-03-22T08:08:53Z</time></trkpt><trkpt lat="46.193199441718484" lon="12.67024549981396"><ele>1024.0</ele><time>2026-03-22T08:08:54Z</time></trkpt><trkpt lat="46.193244663494" lon="12.670181023870608"><ele>1018.0</ele><time>2026-03-22T08:08:55Z</time></trkpt><trkpt lat="46.19329460246496" lon="12.670018651108462"><ele>1012.0000000000001</ele><time>2026-03-22T08:08:57Z</time></trkpt><trkpt lat="46.19331047852077" lon="12.669914955023385"><ele>1006.0000000000001</ele><time>2026-03-22T08:08:58Z</time></trkpt><trkpt lat="46.19331834185762" lon="12.66978801381829"><ele>1000.0</ele><time>2026-03-22T08:08:59Z</time></trkpt><trkpt lat="46.193308934279806" lon="12.669642958405653"><ele>994.0</ele><time>2026-03-22T08:09:00Z</time></trkpt><trkpt lat="46.193317762187974" lon="12.669494610700646"><ele>992.9999999999999</ele><time>2026-03-22T08:09:01Z</time></trkpt><trkpt lat="46.193304055155025" lon="12.669382075482122"><ele>992.0</ele><time>2026-03-22T08:09:02Z</time></trkpt><trkpt lat="46.193286848652136" lon="12.669278366101596"><ele>991.0</ele><time>2026-03-22T08:09:03Z</time></trkpt><trkpt lat="46.1932508552538" lon="12.669185933248105"><ele>990.0</ele><time>2026-03-22T08:09:04Z</time></trkpt><trkpt lat="46.19320419570051" lon="12.66907338208848"><ele>988.9999999999999</ele><time>2026-03-22T08:09:05Z</time></trkpt><trkpt lat="46.19315633269863" lon="12.668972795102171"><ele>988.0</ele><time>2026-03-22T08:09:06Z</time></trkpt><trkpt lat="46.193063553374536" lon="12.668866140801327"><ele>993.8333333333333</ele><time>2026-03-22T08:09:08Z</time></trkpt><trkpt lat="46.19299183615345" lon="12.668834227150759"><ele>999.6666666666666</ele><time>2026-03-22T08:09:09Z</time></trkpt><trkpt lat="46.19289793232565" lon="12.66878983682124"><ele>1005.5</ele><time>2026-03-22T08:09:10Z</time></trkpt><trkpt lat="46.19283996534602" lon="12.668746734042323"><ele>1011.3333333333333</ele><time>2026-03-22T08:09:11Z</time></trkpt><trkpt lat="46.19280802225923" lon="12.668626707300117"><ele>1017.1666666666666</ele><time>2026-03-22T08:09:13Z</time></trkpt><trkpt lat="46.192800031826756" lon="12.668521193256082"><ele>1023.0</ele><time>2026-03-22T08:09:14Z</time></trkpt><trkpt lat="46.19282903353648" lon="12.668422785713176"><ele>1023.0</ele><time>2026-03-22T08:09:15Z</time></trkpt><trkpt lat="46.192880200280726" lon="12.66833290168837"><ele>1023.0</ele><time>2026-03-22T08:09:16Z</time></trkpt><trkpt lat="46.19293496855277" lon="12.668255441803806"><ele>1023.0</ele><time>2026-03-22T08:09:17Z</time></trkpt><trkpt lat="46.19300185597053" lon="12.668206483781235"><ele>1023.0</ele><time>2026-03-22T08:09:18Z</time></trkpt><trkpt lat="46.19306369067479" lon="12.668075136911465"><ele>1023.0</ele><time>2026-03-22T08:09:20Z</time></trkpt><trkpt lat="46.1930266903482" lon="12.667925581571264"><ele>1023.0</ele><time>2026-03-22T08:09:22Z</time></trkpt><trkpt lat="46.19298839079107" lon="12.667835595070088"><ele>1023.0</ele><time>2026-03-22T08:09:23Z</time></trkpt><trkpt lat="46.1929561479486" lon="12.667751269701421"><ele>1023.0</ele><time>2026-03-22T08:09:24Z</time></trkpt><trkpt lat="46.19292799024882" lon="12.667631871288224"><ele>1023.0</ele><time>2026-03-22T08:09:25Z</time></trkpt><trkpt lat="46.19294191154432" lon="12.667510820990683"><ele>1023.0</ele><time>2026-03-22T08:09:26Z</time></trkpt><trkpt lat="46.19297438017193" lon="12.667398950605785"><ele>1023.0</ele><time>2026-03-22T08:09:27Z</time></trkpt><trkpt lat="46.19301904205033" lon="12.667288590282766"><ele>1024.0</ele><time>2026-03-22T08:09:28Z</time></trkpt><trkpt lat="46.19308672969626" lon="12.667184810755801"><ele>1025.0</ele><time>2026-03-22T08:09:29Z</time></trkpt><trkpt lat="46.193173820213275" lon="12.667062446067925"><ele>1026.0</ele><time>2026-03-22T08:09:30Z</time></trkpt><trkpt lat="46.193258166354575" lon="12.666938066348964"><ele>1027.0</ele><time>2026-03-22T08:09:31Z</time></trkpt><trkpt lat="46.19334801201948" lon="12.666832485732131"><ele>1020.1666666666666</ele><time>2026-03-22T08:09:32Z</time></trkpt><trkpt lat="46.193416889951926" lon="12.666722181738201"><ele>1013.3333333333333</ele><time>2026-03-22T08:09:33Z</time></trkpt><trkpt lat="46.1934921077336" lon="12.666632589759153"><ele>1006.5</ele><time>2026-03-22T08:09:34Z</time></trkpt><trkpt lat="46.19356861505331" lon="12.666569360776592"><ele>999.6666666666667</ele><time>2026-03-22T08:09:35Z</time></trkpt><trkpt lat="46.193644306366544" lon="12.666524664378112"><ele>992.8333333333334</ele><time>2026-03-22T08:09:36Z</time></trkpt><trkpt lat="46.193702758976805" lon="12.66648891271257"><ele>986.0</ele><time>2026-03-22T08:09:37Z</time></trkpt><trkpt lat="46.19376607757776" lon="12.666410066817043"><ele>986.0000000000001</ele><time>2026-03-22T08:09:39Z</time></trkpt><trkpt lat="46.19377491905405" lon="12.666258853043715"><ele>986.0</ele><time>2026-03-22T08:09:41Z</time></trkpt><trkpt lat="46.19375893112155" lon="12.66615032309603"><ele>986.0</ele><time>2026-03-22T08:09:42Z</time></trkpt><trkpt lat="46.19374371887092" lon="12.666058565559041"><ele>986.0</ele><time>2026-03-22T08:09:43Z</time></trkpt><trkpt lat="46.19370146739362" lon="12.665983396824721"><ele>986.0000000000001</ele><time>2026-03-22T08:09:43.999Z</time></trkpt><trkpt lat="46.19364244751994" lon="12.66588566237752"><ele>986.0</ele><time>2026-03-22T08:09:44.999Z</time></trkpt><trkpt lat="46.193587509157" lon="12.665798071201412"><ele>985.3333333333334</ele><time>2026-03-22T08:09:45.999Z</time></trkpt><trkpt lat="46.19353657823839" lon="12.665737392217746"><ele>984.6666666666667</ele><time>2026-03-22T08:09:46.999Z</time></trkpt><trkpt lat="46.193463586346695" lon="12.665689270631184"><ele>984.0</ele><time>2026-03-22T08:09:47.999Z</time></trkpt><trkpt lat="46.19337097324481" lon="12.665649303723516"><ele>983.3333333333333</ele><time>2026-03-22T08:09:48.999Z</time></trkpt><trkpt lat="46.19328844554387" lon="12.665612411809551"><ele>982.6666666666666</ele><time>2026-03-22T08:09:49.999Z</time></trkpt><trkpt lat="46.19322115036857" lon="12.665509986900242"><ele>982.0</ele><time>2026-03-22T08:09:51.999Z</time></trkpt><trkpt lat="46.19323704754798" lon="12.665420785947784"><ele>982.0</ele><time>2026-03-22T08:09:52.999Z</time></trkpt><trkpt lat="46.19327532092825" lon="12.665348528022012"><ele>982.0</ele><time>2026-03-22T08:09:53.999Z</time></trkpt><trkpt lat="46.19334774212417" lon="12.66526756718613"><ele>982.0</ele><time>2026-03-22T08:09:54.999Z</time></trkpt><trkpt lat="46.193450794830504" lon="12.665165872216845"><ele>982.0</ele><time>2026-03-22T08:09:55.999Z</time></trkpt><trkpt lat="46.193547278739324" lon="12.665033317056338"><ele>982.0</ele><time>2026-03-22T08:09:56.999Z</time></trkpt><trkpt lat="46.19362657736829" lon="12.664928375980708"><ele>980.6666666666666</ele><time>2026-03-22T08:09:57.999Z</time></trkpt><trkpt lat="46.193707826700276" lon="12.664865184260718"><ele>979.3333333333333</ele><time>2026-03-22T08:09:58.999Z</time></trkpt><trkpt lat="46.19378201422096" lon="12.664780720736907"><ele>978.0</ele><time>2026-03-22T08:10:00.999Z</time></trkpt><trkpt lat="46.19373321397061" lon="12.664667498083414"><ele>976.6666666666667</ele><time>2026-03-22T08:10:03.999Z</time></trkpt><trkpt lat="46.19367473351917" lon="12.664618945849615"><ele>975.3333333333334</ele><time>2026-03-22T08:10:04.999Z</time></trkpt><trkpt lat="46.193602971342514" lon="12.66454841002259"><ele>974.0</ele><time>2026-03-22T08:10:05.999Z</time></trkpt><trkpt lat="46.19355822328263" lon="12.664449083141921"><ele>973.6</ele><time>2026-03-22T08:10:06.999Z</time></trkpt><trkpt lat="46.19351771176419" lon="12.664327553610024"><ele>973.2</ele><time>2026-03-22T08:10:07.999Z</time></trkpt><trkpt lat="46.19347505809388" lon="12.6642042737192"><ele>972.8000000000001</ele><time>2026-03-22T08:10:08.999Z</time></trkpt><trkpt lat="46.19342915407674" lon="12.66411146199644"><ele>972.4000000000001</ele><time>2026-03-22T08:10:09.999Z</time></trkpt><trkpt lat="46.19332209842873" lon="12.663958745732497"><ele>972.0</ele><time>2026-03-22T08:10:11.999Z</time></trkpt><trkpt lat="46.19325968757319" lon="12.663847654718628"><ele>972.0</ele><time>2026-03-22T08:10:12.999Z</time></trkpt><trkpt lat="46.19321879317361" lon="12.663748912676432"><ele>972.0</ele><time>2026-03-22T08:10:13.999Z</time></trkpt><trkpt lat="46.19320921618409" lon="12.663590935500606"><ele>972.0</ele><time>2026-03-22T08:10:15.999Z</time></trkpt><trkpt lat="46.19330767092874" lon="12.663445709076381"><ele>972.0</ele><time>2026-03-22T08:10:17.999Z</time></trkpt><trkpt lat="46.19339973327635" lon="12.66337184237022"><ele>972.0</ele><time>2026-03-22T08:10:18.999Z</time></trkpt><trkpt lat="46.193489461645086" lon="12.663322499472939"><ele>973.0</ele><time>2026-03-22T08:10:19.999Z</time></trkpt><trkpt lat="46.193564054389405" lon="12.663307304340508"><ele>974.0</ele><time>2026-03-22T08:10:20.999Z</time></trkpt><trkpt lat="46.193632861167835" lon="12.66331093042566"><ele>975.0</ele><time>2026-03-22T08:10:21.999Z</time></trkpt><trkpt lat="46.193696812069184" lon="12.66332974626776"><ele>976.0</ele><time>2026-03-22T08:10:22.999Z</time></trkpt><trkpt lat="46.193794958108846" lon="12.663297573602868"><ele>977.0</ele><time>2026-03-22T08:10:24.999Z</time></trkpt><trkpt lat="46.19385179492217" lon="12.663248985730604"><ele>978.0</ele><time>2026-03-22T08:10:25.999Z</time></trkpt><trkpt lat="46.19393036100004" lon="12.663128430772492"><ele>978.0</ele><time>2026-03-22T08:10:27.999Z</time></trkpt><trkpt lat="46.19394646688751" lon="12.66293774086908"><ele>978.0</ele><time>2026-03-22T08:10:29.999Z</time></trkpt><trkpt lat="46.19393407859463" lon="12.662812088897999"><ele>978.0</ele><time>2026-03-22T08:10:30.999Z</time></trkpt><trkpt lat="46.19392091423676" lon="12.6626755752992"><ele>978.0</ele><time>2026-03-22T08:10:31.999Z</time></trkpt><trkpt lat="46.19391910100617" lon="12.662522842638607"><ele>978.0</ele><time>2026-03-22T08:10:32.999Z</time></trkpt><trkpt lat="46.193928916226945" lon="12.662391322966227"><ele>979.0</ele><time>2026-03-22T08:10:33.999Z</time></trkpt><trkpt lat="46.19394503889313" lon="12.662268710881593"><ele>980.0</ele><time>2026-03-22T08:10:34.999Z</time></trkpt><trkpt lat="46.19396099736679" lon="12.66217051170144"><ele>981.0</ele><time>2026-03-22T08:10:35.999Z</time></trkpt><trkpt lat="46.19397012124828" lon="12.662074775706662"><ele>982.0</ele><time>2026-03-22T08:10:36.999Z</time></trkpt><trkpt lat="46.193968203073304" lon="12.661915634366746"><ele>983.0</ele><time>2026-03-22T08:10:38.999Z</time></trkpt><trkpt lat="46.193921636262615" lon="12.661723410995624"><ele>983.0000000000001</ele><time>2026-03-22T08:10:40.999Z</time></trkpt><trkpt lat="46.193894843324216" lon="12.661626520898212"><ele>983.0</ele><time>2026-03-22T08:10:41.999Z</time></trkpt><trkpt lat="46.193885281572214" lon="12.661441849724962"><ele>983.0</ele><time>2026-03-22T08:10:44Z</time></trkpt><trkpt lat="46.19389584445635" lon="12.661340254111062"><ele>983.0</ele><time>2026-03-22T08:10:45Z</time></trkpt><trkpt lat="46.193917784256634" lon="12.66121793405292"><ele>983.0000000000001</ele><time>2026-03-22T08:10:46Z</time></trkpt><trkpt lat="46.193944007990254" lon="12.661114404676681"><ele>983.0</ele><time>2026-03-22T08:10:47Z</time></trkpt><trkpt lat="46.19394943370252" lon="12.661018375880635"><ele>982.0000000000001</ele><time>2026-03-22T08:10:48Z</time></trkpt><trkpt lat="46.19395336105142" lon="12.660907510555893"><ele>981.0</ele><time>2026-03-22T08:10:49Z</time></trkpt><trkpt lat="46.19396950222749" lon="12.660755712114625"><ele>980.0</ele><time>2026-03-22T08:10:51Z</time></trkpt><trkpt lat="46.19390733756968" lon="12.6606359632012"><ele>979.0</ele><time>2026-03-22T08:10:53Z</time></trkpt><trkpt lat="46.19386034997258" lon="12.660572997733427"><ele>978.0000000000001</ele><time>2026-03-22T08:10:54Z</time></trkpt><trkpt lat="46.193840295024955" lon="12.660483786554055"><ele>977.0</ele><time>2026-03-22T08:10:55Z</time></trkpt><trkpt lat="46.193837715864696" lon="12.660384692360154"><ele>976.8</ele><time>2026-03-22T08:10:56Z</time></trkpt><trkpt lat="46.19387109380575" lon="12.660276695666175"><ele>976.6</ele><time>2026-03-22T08:10:57Z</time></trkpt><trkpt lat="46.19392511582792" lon="12.660166300815725"><ele>976.3999999999999</ele><time>2026-03-22T08:10:58Z</time></trkpt><trkpt lat="46.1939761289806" lon="12.660076076338637"><ele>976.1999999999999</ele><time>2026-03-22T08:10:59Z</time></trkpt><trkpt lat="46.19400876136553" lon="12.659898014131906"><ele>976.0</ele><time>2026-03-22T08:11:01Z</time></trkpt><trkpt lat="46.19399774980438" lon="12.659761097201839"><ele>975.9999999999999</ele><time>2026-03-22T08:11:02Z</time></trkpt><trkpt lat="46.19397670933358" lon="12.659611341539648"><ele>976.0</ele><time>2026-03-22T08:11:03Z</time></trkpt><trkpt lat="46.19396411684021" lon="12.659479134235164"><ele>976.0</ele><time>2026-03-22T08:11:04Z</time></trkpt><trkpt lat="46.193958267497834" lon="12.65936711573654"><ele>976.0</ele><time>2026-03-22T08:11:05Z</time></trkpt><trkpt lat="46.1939784754709" lon="12.659268710530075"><ele>975.9999999999999</ele><time>2026-03-22T08:11:06Z</time></trkpt><trkpt lat="46.194011027102576" lon="12.659171522212874"><ele>976.0</ele><time>2026-03-22T08:11:07Z</time></trkpt><trkpt lat="46.194043786584594" lon="12.659060436589963"><ele>966.8</ele><time>2026-03-22T08:11:08Z</time></trkpt><trkpt lat="46.19405581378645" lon="12.65895903812779"><ele>957.5999999999999</ele><time>2026-03-22T08:11:09Z</time></trkpt><trkpt lat="46.194062554205786" lon="12.658830139630242"><ele>948.4</ele><time>2026-03-22T08:11:10Z</time></trkpt><trkpt lat="46.194051125727704" lon="12.658669065394497"><ele>939.2</ele><time>2026-03-22T08:11:11Z</time></trkpt><trkpt lat="46.19404841032874" lon="12.658502983615737"><ele>930.0</ele><time>2026-03-22T08:11:12Z</time></trkpt><trkpt lat="46.19405244191506" lon="12.658379532087796"><ele>929.0</ele><time>2026-03-22T08:11:13Z</time></trkpt><trkpt lat="46.194040048982515" lon="12.658277972018894"><ele>928.0</ele><time>2026-03-22T08:11:14Z</time></trkpt><trkpt lat="46.19402283262474" lon="12.658124967284207"><ele>927.0</ele><time>2026-03-22T08:11:15Z</time></trkpt><trkpt lat="46.194000540928506" lon="12.657987174279487"><ele>926.0</ele><time>2026-03-22T08:11:16Z</time></trkpt><trkpt lat="46.19397908776891" lon="12.657856336616517"><ele>925.0</ele><time>2026-03-22T08:11:17Z</time></trkpt><trkpt lat="46.193959887750495" lon="12.657744864753685"><ele>924.0</ele><time>2026-03-22T08:11:18Z</time></trkpt><trkpt lat="46.19396525155239" lon="12.657637778046677"><ele>928.2</ele><time>2026-03-22T08:11:19Z</time></trkpt><trkpt lat="46.19398478388587" lon="12.65754466444363"><ele>932.4000000000001</ele><time>2026-03-22T08:11:20Z</time></trkpt><trkpt lat="46.193997870564" lon="12.65740270920987"><ele>936.6</ele><time>2026-03-22T08:11:22Z</time></trkpt><trkpt lat="46.19389222163273" lon="12.657327713171533"><ele>940.8</ele><time>2026-03-22T08:11:24Z</time></trkpt><trkpt lat="46.193860672373354" lon="12.657231638902605"><ele>945.0</ele><time>2026-03-22T08:11:26Z</time></trkpt><trkpt lat="46.1938995160923" lon="12.657094826225821"><ele>945.0</ele><time>2026-03-22T08:11:28Z</time></trkpt><trkpt lat="46.193887363095854" lon="12.657004264243621"><ele>945.0</ele><time>2026-03-22T08:11:29Z</time></trkpt><trkpt lat="46.19386235393363" lon="12.656898897569608"><ele>945.0</ele><time>2026-03-22T08:11:30Z</time></trkpt><trkpt lat="46.193828662989844" lon="12.656770982646197"><ele>945.0</ele><time>2026-03-22T08:11:31Z</time></trkpt><trkpt lat="46.1938240083944" lon="12.656650450196768"><ele>945.0</ele><time>2026-03-22T08:11:32Z</time></trkpt><trkpt lat="46.19384878101518" lon="12.656508237935004"><ele>945.0</ele><time>2026-03-22T08:11:33Z</time></trkpt><trkpt lat="46.19384515371614" lon="12.656370622282822"><ele>944.1666666666666</ele><time>2026-03-22T08:11:34Z</time></trkpt><trkpt lat="46.193835427925784" lon="12.65620623621015"><ele>943.3333333333333</ele><time>2026-03-22T08:11:36Z</time></trkpt><trkpt lat="46.193805457633715" lon="12.656124124008446"><ele>942.5</ele><time>2026-03-22T08:11:37Z</time></trkpt><trkpt lat="46.19377094983501" lon="12.656025765890073"><ele>941.6666666666666</ele><time>2026-03-22T08:11:38Z</time></trkpt><trkpt lat="46.1937462823236" lon="12.655938826803212"><ele>940.8333333333333</ele><time>2026-03-22T08:11:39Z</time></trkpt><trkpt lat="46.19374063922127" lon="12.655836422780892"><ele>940.0</ele><time>2026-03-22T08:11:40Z</time></trkpt><trkpt lat="46.19375387946218" lon="12.655696523319587"><ele>939.4999999999999</ele><time>2026-03-22T08:11:41Z</time></trkpt><trkpt lat="46.19376136147206" lon="12.655574575747128"><ele>939.0</ele><time>2026-03-22T08:11:42Z</time></trkpt><trkpt lat="46.1937699457622" lon="12.65543058116242"><ele>938.5</ele><time>2026-03-22T08:11:43Z</time></trkpt><trkpt lat="46.19377235969482" lon="12.655306552400214"><ele>938.0</ele><time>2026-03-22T08:11:44Z</time></trkpt><trkpt lat="46.1937748501833" lon="12.655175687592802"><ele>937.4999999999999</ele><time>2026-03-22T08:11:45Z</time></trkpt><trkpt lat="46.193779273538965" lon="12.655064889817648"><ele>937.0</ele><time>2026-03-22T08:11:46Z</time></trkpt><trkpt lat="46.19379460678316" lon="12.654970960767779"><ele>935.4000000000001</ele><time>2026-03-22T08:11:47Z</time></trkpt><trkpt lat="46.19377771680343" lon="12.654791284968896"><ele>933.8000000000001</ele><time>2026-03-22T08:11:49Z</time></trkpt><trkpt lat="46.19372962926821" lon="12.654681081762195"><ele>932.2</ele><time>2026-03-22T08:11:50Z</time></trkpt><trkpt lat="46.19367900212699" lon="12.654575907349948"><ele>930.6</ele><time>2026-03-22T08:11:50.999Z</time></trkpt><trkpt lat="46.19365423284891" lon="12.654458682602307"><ele>929.0</ele><time>2026-03-22T08:11:51.999Z</time></trkpt><trkpt lat="46.193625216638765" lon="12.65436057888631"><ele>927.1666666666667</ele><time>2026-03-22T08:11:52.999Z</time></trkpt><trkpt lat="46.193610587148" lon="12.654264330073133"><ele>925.3333333333334</ele><time>2026-03-22T08:11:53.999Z</time></trkpt><trkpt lat="46.193576863614126" lon="12.654131738164809"><ele>923.5</ele><time>2026-03-22T08:11:55.999Z</time></trkpt><trkpt lat="46.19352683141256" lon="12.654060217939533"><ele>921.6666666666667</ele><time>2026-03-22T08:11:56.999Z</time></trkpt><trkpt lat="46.19348543424211" lon="12.653978364700741"><ele>919.8333333333334</ele><time>2026-03-22T08:11:57.999Z</time></trkpt><trkpt lat="46.19347462672928" lon="12.65379483904582"><ele>918.0</ele><time>2026-03-22T08:11:59.999Z</time></trkpt><trkpt lat="46.19348444719456" lon="12.653657603810966"><ele>916.5</ele><time>2026-03-22T08:12:00.999Z</time></trkpt><trkpt lat="46.193496982140225" lon="12.653513524331016"><ele>915.0</ele><time>2026-03-22T08:12:01.999Z</time></trkpt><trkpt lat="46.19351386750338" lon="12.653391543378808"><ele>913.5</ele><time>2026-03-22T08:12:02.999Z</time></trkpt><trkpt lat="46.193530277757034" lon="12.653288058113718"><ele>912.0</ele><time>2026-03-22T08:12:03.999Z</time></trkpt><trkpt lat="46.193515901841174" lon="12.65319493755673"><ele>910.5</ele><time>2026-03-22T08:12:04.999Z</time></trkpt><trkpt lat="46.19346901756783" lon="12.653087048575525"><ele>909.0</ele><time>2026-03-22T08:12:05.999Z</time></trkpt><trkpt lat="46.1934348022008" lon="12.652992836642692"><ele>909.0</ele><time>2026-03-22T08:12:06.999Z</time></trkpt><trkpt lat="46.19341131098401" lon="12.65287226658143"><ele>909.0</ele><time>2026-03-22T08:12:07.999Z</time></trkpt><trkpt lat="46.1934032457818" lon="12.652757998844516"><ele>909.0</ele><time>2026-03-22T08:12:08.999Z</time></trkpt><trkpt lat="46.19340826155805" lon="12.652613462745242"><ele>909.0</ele><time>2026-03-22T08:12:09.999Z</time></trkpt><trkpt lat="46.193405085613335" lon="12.652493702792048"><ele>909.0</ele><time>2026-03-22T08:12:10.999Z</time></trkpt><trkpt lat="46.1933851984143" lon="12.65239632899699"><ele>909.0</ele><time>2026-03-22T08:12:11.999Z</time></trkpt><trkpt lat="46.19335194374733" lon="12.652280767861342"><ele>907.3333333333334</ele><time>2026-03-22T08:12:12.999Z</time></trkpt><trkpt lat="46.193337127122184" lon="12.652175704491862"><ele>905.6666666666667</ele><time>2026-03-22T08:12:13.999Z</time></trkpt><trkpt lat="46.19333834786302" lon="12.652020458176683"><ele>904.0</ele><time>2026-03-22T08:12:15.999Z</time></trkpt><trkpt lat="46.19331125715639" lon="12.651913562954814"><ele>902.3333333333334</ele><time>2026-03-22T08:12:16.999Z</time></trkpt><trkpt lat="46.19327556833911" lon="12.651796656844049"><ele>900.6666666666667</ele><time>2026-03-22T08:12:17.999Z</time></trkpt><trkpt lat="46.193250908815955" lon="12.651702592576232"><ele>899.0</ele><time>2026-03-22T08:12:18.999Z</time></trkpt><trkpt lat="46.19317268063503" lon="12.6515952634585"><ele>900.1666666666667</ele><time>2026-03-22T08:12:20.999Z</time></trkpt><trkpt lat="46.19310303653304" lon="12.65150383845089"><ele>901.3333333333334</ele><time>2026-03-22T08:12:22.999Z</time></trkpt><trkpt lat="46.19310056374695" lon="12.651367005930474"><ele>902.5</ele><time>2026-03-22T08:12:24.999Z</time></trkpt><trkpt lat="46.19315924254784" lon="12.651267520410926"><ele>903.6666666666667</ele><time>2026-03-22T08:12:26.999Z</time></trkpt><trkpt lat="46.19323432596369" lon="12.651250418811827"><ele>904.8333333333334</ele><time>2026-03-22T08:12:28.999Z</time></trkpt><trkpt lat="46.19330037542381" lon="12.651332444580817"><ele>906.0</ele><time>2026-03-22T08:12:30.999Z</time></trkpt><trkpt lat="46.19337677278887" lon="12.65148322060193"><ele>904.8333333333334</ele><time>2026-03-22T08:12:32.999Z</time></trkpt><trkpt lat="46.19343235880192" lon="12.651577993469827"><ele>903.6666666666667</ele><time>2026-03-22T08:12:33.999Z</time></trkpt><trkpt lat="46.193488312767734" lon="12.651674906969738"><ele>902.5</ele><time>2026-03-22T08:12:34.999Z</time></trkpt><trkpt lat="46.19353557899586" lon="12.651758146086257"><ele>901.3333333333334</ele><time>2026-03-22T08:12:35.999Z</time></trkpt><trkpt lat="46.19357583851781" lon="12.651861471219048"><ele>900.1666666666667</ele><time>2026-03-22T08:12:36.999Z</time></trkpt><trkpt lat="46.193609175850774" lon="12.6520064344096"><ele>899.0</ele><time>2026-03-22T08:12:37.999Z</time></trkpt><trkpt lat="46.19365955125685" lon="12.652165780005767"><ele>899.0</ele><time>2026-03-22T08:12:38.999Z</time></trkpt><trkpt lat="46.193710736569365" lon="12.65230639031792"><ele>899.0000000000001</ele><time>2026-03-22T08:12:39.999Z</time></trkpt><trkpt lat="46.19376702516104" lon="12.652453061809565"><ele>899.0000000000001</ele><time>2026-03-22T08:12:40.999Z</time></trkpt><trkpt lat="46.19379262781957" lon="12.65257973254158"><ele>899.0</ele><time>2026-03-22T08:12:41.999Z</time></trkpt><trkpt lat="46.19382739095447" lon="12.652727144885038"><ele>899.0</ele><time>2026-03-22T08:12:42.999Z</time></trkpt><trkpt lat="46.19385061333602" lon="12.652863284498906"><ele>901.0</ele><time>2026-03-22T08:12:43.999Z</time></trkpt><trkpt lat="46.19390267297292" lon="12.653004958614927"><ele>903.0000000000001</ele><time>2026-03-22T08:12:44.999Z</time></trkpt><trkpt lat="46.1939716260187" lon="12.653131366639334"><ele>905.0000000000001</ele><time>2026-03-22T08:12:45.999Z</time></trkpt><trkpt lat="46.1940244215887" lon="12.653253629645318"><ele>907.0</ele><time>2026-03-22T08:12:46.999Z</time></trkpt><trkpt lat="46.194070247755" lon="12.65334522360355"><ele>909.0</ele><time>2026-03-22T08:12:47.999Z</time></trkpt><trkpt lat="46.19412929348354" lon="12.653447714217505"><ele>905.1666666666666</ele><time>2026-03-22T08:12:49Z</time></trkpt><trkpt lat="46.194183147782866" lon="12.653526877850828"><ele>901.3333333333333</ele><time>2026-03-22T08:12:50Z</time></trkpt><trkpt lat="46.19423180914274" lon="12.653589569773045"><ele>897.5</ele><time>2026-03-22T08:12:51Z</time></trkpt><trkpt lat="46.194279888081944" lon="12.653720539060384"><ele>893.6666666666666</ele><time>2026-03-22T08:12:53Z</time></trkpt><trkpt lat="46.194306612878165" lon="12.653808321471272"><ele>889.8333333333333</ele><time>2026-03-22T08:12:54Z</time></trkpt><trkpt lat="46.19431887475497" lon="12.653919192934511"><ele>886.0</ele><time>2026-03-22T08:12:55Z</time></trkpt><trkpt lat="46.19433332444344" lon="12.654043157745651"><ele>886.0</ele><time>2026-03-22T08:12:56Z</time></trkpt><trkpt lat="46.19436787365496" lon="12.654160429634324"><ele>885.9999999999999</ele><time>2026-03-22T08:12:57Z</time></trkpt><trkpt lat="46.19440756436994" lon="12.654288597324278"><ele>885.9999999999999</ele><time>2026-03-22T08:12:58Z</time></trkpt><trkpt lat="46.194447382025835" lon="12.654422564819946"><ele>886.0</ele><time>2026-03-22T08:12:59Z</time></trkpt><trkpt lat="46.19447583672173" lon="12.654539811498752"><ele>886.0</ele><time>2026-03-22T08:13:00Z</time></trkpt><trkpt lat="46.19450961279311" lon="12.65468236232998"><ele>887.8</ele><time>2026-03-22T08:13:01Z</time></trkpt><trkpt lat="46.19452448506701" lon="12.654829170705966"><ele>889.5999999999999</ele><time>2026-03-22T08:13:02Z</time></trkpt><trkpt lat="46.19454046262778" lon="12.654975045168634"><ele>891.4</ele><time>2026-03-22T08:13:03Z</time></trkpt><trkpt lat="46.194548517839" lon="12.65513717141779"><ele>893.2</ele><time>2026-03-22T08:13:04Z</time></trkpt><trkpt lat="46.194555865270814" lon="12.655294870127115"><ele>895.0</ele><time>2026-03-22T08:13:05Z</time></trkpt><trkpt lat="46.194574280379314" lon="12.655428703210381"><ele>896.2</ele><time>2026-03-22T08:13:06Z</time></trkpt><trkpt lat="46.19457174823387" lon="12.655574614622811"><ele>897.4</ele><time>2026-03-22T08:13:07Z</time></trkpt><trkpt lat="46.19458964325819" lon="12.655722863747162"><ele>898.5999999999999</ele><time>2026-03-22T08:13:08Z</time></trkpt><trkpt lat="46.19463223295797" lon="12.655871478219293"><ele>899.8</ele><time>2026-03-22T08:13:09Z</time></trkpt><trkpt lat="46.194665385447415" lon="12.655980776412594"><ele>901.0</ele><time>2026-03-22T08:13:10Z</time></trkpt><trkpt lat="46.19467076611003" lon="12.656072572201422"><ele>901.9999999999999</ele><time>2026-03-22T08:13:11Z</time></trkpt><trkpt lat="46.19466938061609" lon="12.656179573821953"><ele>903.0</ele><time>2026-03-22T08:13:12Z</time></trkpt><trkpt lat="46.19467969192067" lon="12.656279502204168"><ele>904.0</ele><time>2026-03-22T08:13:13Z</time></trkpt><trkpt lat="46.19469767466262" lon="12.656370826588134"><ele>905.0</ele><time>2026-03-22T08:13:14Z</time></trkpt><trkpt lat="46.19479218461527" lon="12.656482839085166"><ele>905.9999999999999</ele><time>2026-03-22T08:13:16Z</time></trkpt><trkpt lat="46.19484489518834" lon="12.65654036246757"><ele>907.0</ele><time>2026-03-22T08:13:17Z</time></trkpt><trkpt lat="46.19489591957826" lon="12.656607555944401"><ele>902.4999999999999</ele><time>2026-03-22T08:13:18Z</time></trkpt><trkpt lat="46.194951906644604" lon="12.65670604955151"><ele>898.0</ele><time>2026-03-22T08:13:19Z</time></trkpt><trkpt lat="46.19498806397871" lon="12.656840432482875"><ele>893.5</ele><time>2026-03-22T08:13:20Z</time></trkpt><trkpt lat="46.195031793132316" lon="12.656947352059042"><ele>889.0</ele><time>2026-03-22T08:13:21Z</time></trkpt><trkpt lat="46.19507173961453" lon="12.657057414556586"><ele>884.4999999999999</ele><time>2026-03-22T08:13:22Z</time></trkpt><trkpt lat="46.19510424705041" lon="12.657161821634757"><ele>880.0</ele><time>2026-03-22T08:13:23Z</time></trkpt><trkpt lat="46.19514817829095" lon="12.657288749023799"><ele>879.9999999999999</ele><time>2026-03-22T08:13:24Z</time></trkpt><trkpt lat="46.19519367952294" lon="12.657402921229092"><ele>880.0</ele><time>2026-03-22T08:13:25Z</time></trkpt><trkpt lat="46.19522983737264" lon="12.657510108038169"><ele>880.0</ele><time>2026-03-22T08:13:26Z</time></trkpt><trkpt lat="46.195258379109816" lon="12.657613317277313"><ele>880.0</ele><time>2026-03-22T08:13:27Z</time></trkpt><trkpt lat="46.19529627616583" lon="12.657725266485734"><ele>879.9999999999999</ele><time>2026-03-22T08:13:28Z</time></trkpt><trkpt lat="46.19535311117084" lon="12.657854404847221"><ele>880.0</ele><time>2026-03-22T08:13:29Z</time></trkpt><trkpt lat="46.195402242735014" lon="12.657977688157718"><ele>881.3333333333333</ele><time>2026-03-22T08:13:30Z</time></trkpt><trkpt lat="46.195443499631274" lon="12.658083070442306"><ele>882.6666666666666</ele><time>2026-03-22T08:13:31Z</time></trkpt><trkpt lat="46.19547236829205" lon="12.658166160306438"><ele>884.0</ele><time>2026-03-22T08:13:32Z</time></trkpt><trkpt lat="46.1955002569987" lon="12.658250058656792"><ele>885.3333333333333</ele><time>2026-03-22T08:13:33Z</time></trkpt><trkpt lat="46.195527074713034" lon="12.658419323275282"><ele>886.6666666666666</ele><time>2026-03-22T08:13:35Z</time></trkpt><trkpt lat="46.19552726424025" lon="12.658527149465993"><ele>888.0</ele><time>2026-03-22T08:13:37Z</time></trkpt><trkpt lat="46.19551863806191" lon="12.658651903586982"><ele>888.3333333333334</ele><time>2026-03-22T08:13:40Z</time></trkpt><trkpt lat="46.195560621726386" lon="12.65875254328069"><ele>888.6666666666667</ele><time>2026-03-22T08:13:42Z</time></trkpt><trkpt lat="46.195656812101774" lon="12.658846557777181"><ele>889.0</ele><time>2026-03-22T08:13:44Z</time></trkpt><trkpt lat="46.1957204269275" lon="12.65889808236353"><ele>889.3333333333334</ele><time>2026-03-22T08:13:46Z</time></trkpt><trkpt lat="46.19578636799211" lon="12.6588769287835"><ele>889.6666666666667</ele><time>2026-03-22T08:14:11.999Z</time></trkpt><trkpt lat="46.19582921284742" lon="12.658767667971164"><ele>890.0</ele><time>2026-03-22T08:14:14.999Z</time></trkpt><trkpt lat="46.19590421234993" lon="12.658671430342915"><ele>883.5000000000001</ele><time>2026-03-22T08:14:16.999Z</time></trkpt><trkpt lat="46.19596847499967" lon="12.658614849206787"><ele>877.0</ele><time>2026-03-22T08:14:18.999Z</time></trkpt><trkpt lat="46.196034474691466" lon="12.65857642930235"><ele>870.5</ele><time>2026-03-22T08:14:20.999Z</time></trkpt><trkpt lat="46.196101843750945" lon="12.658605978277738"><ele>864.0</ele><time>2026-03-22T08:14:23.999Z</time></trkpt><trkpt lat="46.19616475583291" lon="12.658699486506004"><ele>857.5000000000001</ele><time>2026-03-22T08:14:25.999Z</time></trkpt><trkpt lat="46.196178247663624" lon="12.658807947072575"><ele>851.0</ele><time>2026-03-22T08:14:27.999Z</time></trkpt><trkpt lat="46.196256408123865" lon="12.658890899265964"><ele>850.5999999999999</ele><time>2026-03-22T08:14:31.999Z</time></trkpt><trkpt lat="46.19633859651496" lon="12.658891380908049"><ele>850.2</ele><time>2026-03-22T08:14:33.999Z</time></trkpt><trkpt lat="46.196426072277745" lon="12.658944490999689"><ele>849.8</ele><time>2026-03-22T08:14:35.999Z</time></trkpt><trkpt lat="46.19654186207499" lon="12.659045918654266"><ele>849.4000000000001</ele><time>2026-03-22T08:14:37.999Z</time></trkpt><trkpt lat="46.196622327416605" lon="12.659067298045494"><ele>849.0</ele><time>2026-03-22T08:14:38.999Z</time></trkpt><trkpt lat="46.19671656453256" lon="12.65907935658182"><ele>850.6</ele><time>2026-03-22T08:14:39.999Z</time></trkpt><trkpt lat="46.19680303619414" lon="12.659096794011509"><ele>852.2</ele><time>2026-03-22T08:14:40.999Z</time></trkpt><trkpt lat="46.19690139791859" lon="12.659116426479908"><ele>853.8000000000001</ele><time>2026-03-22T08:14:42.999Z</time></trkpt><trkpt lat="46.19697327763077" lon="12.65908943001273"><ele>855.4000000000001</ele><time>2026-03-22T08:14:44.999Z</time></trkpt><trkpt lat="46.19690450408834" lon="12.659138814768319"><ele>857.0</ele><time>2026-03-22T08:19:21Z</time></trkpt><trkpt lat="46.19679061528027" lon="12.659110440497624"><ele>857.0000000000001</ele><time>2026-03-22T08:19:23Z</time></trkpt><trkpt lat="46.196710130666844" lon="12.659080762744308"><ele>857.0</ele><time>2026-03-22T08:19:25Z</time></trkpt><trkpt lat="46.19664725086019" lon="12.65907499413715"><ele>857.0</ele><time>2026-03-22T08:19:26Z</time></trkpt><trkpt lat="46.19657509957568" lon="12.659066542074532"><ele>857.0</ele><time>2026-03-22T08:19:27Z</time></trkpt><trkpt lat="46.196468536557454" lon="12.65901586575372"><ele>857.0000000000001</ele><time>2026-03-22T08:19:29Z</time></trkpt><trkpt lat="46.19639272650088" lon="12.658976056698888"><ele>857.0</ele><time>2026-03-22T08:19:31Z</time></trkpt><trkpt lat="46.19631011106305" lon="12.658941246466506"><ele>855.6666666666667</ele><time>2026-03-22T08:19:33Z</time></trkpt><trkpt lat="46.19622758584642" lon="12.658899043235417"><ele>854.3333333333334</ele><time>2026-03-22T08:19:35Z</time></trkpt><trkpt lat="46.196154005189314" lon="12.658877336315918"><ele>853.0</ele><time>2026-03-22T08:19:37Z</time></trkpt><trkpt lat="46.19609339591373" lon="12.65884086628259"><ele>851.6666666666667</ele><time>2026-03-22T08:19:39Z</time></trkpt><trkpt lat="46.19601841713497" lon="12.65879239284558"><ele>850.3333333333334</ele><time>2026-03-22T08:19:41Z</time></trkpt><trkpt lat="46.19593678398254" lon="12.658757149314994"><ele>849.0</ele><time>2026-03-22T08:19:43Z</time></trkpt><trkpt lat="46.195866511308814" lon="12.658734027117736"><ele>849.0</ele><time>2026-03-22T08:19:46Z</time></trkpt><trkpt lat="46.19584740995102" lon="12.658825297179465"><ele>849.0</ele><time>2026-03-22T08:19:49Z</time></trkpt><trkpt lat="46.195912950132225" lon="12.65895300548971"><ele>849.0</ele><time>2026-03-22T08:19:51Z</time></trkpt><trkpt lat="46.19598478263651" lon="12.65906869780906"><ele>849.0</ele><time>2026-03-22T08:19:53Z</time></trkpt><trkpt lat="46.19603141125311" lon="12.659139517521545"><ele>849.0</ele><time>2026-03-22T08:19:54Z</time></trkpt><trkpt lat="46.196088772388435" lon="12.659217316377473"><ele>849.0</ele><time>2026-03-22T08:19:55Z</time></trkpt><trkpt lat="46.196155250740276" lon="12.659294494721252"><ele>849.0</ele><time>2026-03-22T08:19:56Z</time></trkpt><trkpt lat="46.19622107959071" lon="12.659374062420385"><ele>849.0</ele><time>2026-03-22T08:19:57Z</time></trkpt><trkpt lat="46.196284953258726" lon="12.659459203477002"><ele>849.0</ele><time>2026-03-22T08:19:58Z</time></trkpt><trkpt lat="46.196346849378486" lon="12.659543545347905"><ele>849.0</ele><time>2026-03-22T08:19:59Z</time></trkpt><trkpt lat="46.19641265120189" lon="12.659627717180017"><ele>849.0</ele><time>2026-03-22T08:20:00Z</time></trkpt><trkpt lat="46.19648210369397" lon="12.65972024885727"><ele>849.0</ele><time>2026-03-22T08:20:01Z</time></trkpt><trkpt lat="46.19655387560642" lon="12.659814916408019"><ele>848.6666666666666</ele><time>2026-03-22T08:20:02Z</time></trkpt><trkpt lat="46.196625050846336" lon="12.659914091953526"><ele>848.3333333333333</ele><time>2026-03-22T08:20:03Z</time></trkpt><trkpt lat="46.196697915514115" lon="12.660009462006464"><ele>848.0</ele><time>2026-03-22T08:20:04Z</time></trkpt><trkpt lat="46.19676241039368" lon="12.660101428368915"><ele>847.6666666666666</ele><time>2026-03-22T08:20:05Z</time></trkpt><trkpt lat="46.19682246697793" lon="12.66018185537697"><ele>847.3333333333333</ele><time>2026-03-22T08:20:06Z</time></trkpt><trkpt lat="46.19688260350932" lon="12.66025359803597"><ele>847.0</ele><time>2026-03-22T08:20:07Z</time></trkpt><trkpt lat="46.19693404540845" lon="12.660322310628477"><ele>846.7142857142857</ele><time>2026-03-22T08:20:08Z</time></trkpt><trkpt lat="46.1969845160831" lon="12.660392961851514"><ele>846.4285714285714</ele><time>2026-03-22T08:20:09Z</time></trkpt><trkpt lat="46.19703134831515" lon="12.660461439865506"><ele>846.1428571428571</ele><time>2026-03-22T08:20:10Z</time></trkpt><trkpt lat="46.19707859328267" lon="12.66052368875354"><ele>845.8571428571429</ele><time>2026-03-22T08:20:11Z</time></trkpt><trkpt lat="46.19712601735368" lon="12.660584446825917"><ele>845.5714285714286</ele><time>2026-03-22T08:20:12Z</time></trkpt><trkpt lat="46.197171334326505" lon="12.66064820565158"><ele>845.2857142857142</ele><time>2026-03-22T08:20:13Z</time></trkpt><trkpt lat="46.19726224083693" lon="12.660764695527758"><ele>845.0</ele><time>2026-03-22T08:20:15Z</time></trkpt><trkpt lat="46.197378016697186" lon="12.660811547396133"><ele>845.0000000000001</ele><time>2026-03-22T08:20:17Z</time></trkpt><trkpt lat="46.19745156695571" lon="12.660799837789385"><ele>845.0</ele><time>2026-03-22T08:20:18Z</time></trkpt><trkpt lat="46.19752210200244" lon="12.660778600158041"><ele>845.0</ele><time>2026-03-22T08:20:19Z</time></trkpt><trkpt lat="46.19758915209554" lon="12.660763355597066"><ele>845.0</ele><time>2026-03-22T08:20:19.999Z</time></trkpt><trkpt lat="46.197656978127455" lon="12.660754232093943"><ele>845.0000000000001</ele><time>2026-03-22T08:20:20.999Z</time></trkpt><trkpt lat="46.1977548330064" lon="12.660773914198916"><ele>845.0</ele><time>2026-03-22T08:20:22.999Z</time></trkpt><trkpt lat="46.19778077867165" lon="12.660878550438525"><ele>845.0</ele><time>2026-03-22T08:20:24.999Z</time></trkpt><trkpt lat="46.19769695384496" lon="12.66100706494314"><ele>845.0</ele><time>2026-03-22T08:20:26.999Z</time></trkpt><trkpt lat="46.19762380302873" lon="12.661035238882226"><ele>845.0</ele><time>2026-03-22T08:20:27.999Z</time></trkpt><trkpt lat="46.19754243230578" lon="12.661052302723514"><ele>845.0</ele><time>2026-03-22T08:20:28.999Z</time></trkpt><trkpt lat="46.19745775289015" lon="12.66107507226311"><ele>845.0</ele><time>2026-03-22T08:20:29.999Z</time></trkpt><trkpt lat="46.19736791240565" lon="12.661101305999981"><ele>843.8333333333334</ele><time>2026-03-22T08:20:30.999Z</time></trkpt><trkpt lat="46.19728221735509" lon="12.661132570679683"><ele>842.6666666666667</ele><time>2026-03-22T08:20:31.999Z</time></trkpt><trkpt lat="46.19719958631804" lon="12.661146158090625"><ele>841.5</ele><time>2026-03-22T08:20:32.999Z</time></trkpt><trkpt lat="46.197120211079" lon="12.661128893037954"><ele>840.3333333333333</ele><time>2026-03-22T08:20:33.999Z</time></trkpt><trkpt lat="46.19704414737458" lon="12.661084636376318"><ele>839.1666666666666</ele><time>2026-03-22T08:20:34.999Z</time></trkpt><trkpt lat="46.19696294516964" lon="12.661023322107914"><ele>838.0</ele><time>2026-03-22T08:20:35.999Z</time></trkpt><trkpt lat="46.196878327142066" lon="12.660975169307568"><ele>838.0</ele><time>2026-03-22T08:20:36.999Z</time></trkpt><trkpt lat="46.19679678127668" lon="12.660962019864645"><ele>838.0</ele><time>2026-03-22T08:20:37.999Z</time></trkpt><trkpt lat="46.196710677831625" lon="12.660976587866209"><ele>838.0</ele><time>2026-03-22T08:20:38.999Z</time></trkpt><trkpt lat="46.19661835565173" lon="12.661018200340775"><ele>838.0</ele><time>2026-03-22T08:20:39.999Z</time></trkpt><trkpt lat="46.196525926872845" lon="12.66105664934169"><ele>838.0</ele><time>2026-03-22T08:20:40.999Z</time></trkpt><trkpt lat="46.196438666453986" lon="12.661088125039598"><ele>839.8571428571428</ele><time>2026-03-22T08:20:41.999Z</time></trkpt><trkpt lat="46.19636035566848" lon="12.661119699674877"><ele>841.7142857142857</ele><time>2026-03-22T08:20:42.999Z</time></trkpt><trkpt lat="46.19629820597796" lon="12.661156461984596"><ele>843.5714285714286</ele><time>2026-03-22T08:20:43.999Z</time></trkpt><trkpt lat="46.196246360578854" lon="12.661212006278733"><ele>845.4285714285713</ele><time>2026-03-22T08:20:44.999Z</time></trkpt><trkpt lat="46.19621594875133" lon="12.661295910180964"><ele>847.2857142857143</ele><time>2026-03-22T08:20:45.999Z</time></trkpt><trkpt lat="46.1961957197883" lon="12.661406552810703"><ele>849.1428571428571</ele><time>2026-03-22T08:20:46.999Z</time></trkpt><trkpt lat="46.19618513245882" lon="12.661535888481081"><ele>851.0</ele><time>2026-03-22T08:20:47.999Z</time></trkpt><trkpt lat="46.19618055614591" lon="12.66168124531608"><ele>851.0</ele><time>2026-03-22T08:20:48.999Z</time></trkpt><trkpt lat="46.196203305648325" lon="12.661826218774893"><ele>851.0</ele><time>2026-03-22T08:20:49.999Z</time></trkpt><trkpt lat="46.19623983127667" lon="12.662006525896132"><ele>851.0</ele><time>2026-03-22T08:20:50.999Z</time></trkpt><trkpt lat="46.196266501238284" lon="12.66215210947138"><ele>851.0</ele><time>2026-03-22T08:20:51.999Z</time></trkpt><trkpt lat="46.19628198100384" lon="12.66229128663596"><ele>851.0</ele><time>2026-03-22T08:20:52.999Z</time></trkpt><trkpt lat="46.19629742889408" lon="12.662427586269596"><ele>850.8333333333334</ele><time>2026-03-22T08:20:53.999Z</time></trkpt><trkpt lat="46.19630204855937" lon="12.662562356521985"><ele>850.6666666666667</ele><time>2026-03-22T08:20:54.999Z</time></trkpt><trkpt lat="46.19629970508442" lon="12.662689469279513"><ele>850.5</ele><time>2026-03-22T08:20:55.999Z</time></trkpt><trkpt lat="46.19628568618074" lon="12.662811443769929"><ele>850.3333333333333</ele><time>2026-03-22T08:20:56.999Z</time></trkpt><trkpt lat="46.196273362653145" lon="12.66292142115235"><ele>850.1666666666666</ele><time>2026-03-22T08:20:57.999Z</time></trkpt><trkpt lat="46.196327192391465" lon="12.663035552673378"><ele>850.0</ele><time>2026-03-22T08:20:59.999Z</time></trkpt><trkpt lat="46.196416247526095" lon="12.662974974149414"><ele>850.0</ele><time>2026-03-22T08:21:01.999Z</time></trkpt><trkpt lat="46.196424522838086" lon="12.66286367754506"><ele>850.0</ele><time>2026-03-22T08:21:02.999Z</time></trkpt><trkpt lat="46.1964115443375" lon="12.662696748430582"><ele>850.0</ele><time>2026-03-22T08:21:03.999Z</time></trkpt><trkpt lat="46.196420487890535" lon="12.66253829399954"><ele>850.0</ele><time>2026-03-22T08:21:04.999Z</time></trkpt><trkpt lat="46.196447879495146" lon="12.662394231475412"><ele>850.0</ele><time>2026-03-22T08:21:05.999Z</time></trkpt><trkpt lat="46.19649094076286" lon="12.662268446840756"><ele>843.9999999999999</ele><time>2026-03-22T08:21:06.999Z</time></trkpt><trkpt lat="46.196540890089544" lon="12.662161724885374"><ele>838.0</ele><time>2026-03-22T08:21:07.999Z</time></trkpt><trkpt lat="46.196589968433074" lon="12.662085628546553"><ele>832.0</ele><time>2026-03-22T08:21:08.999Z</time></trkpt><trkpt lat="46.196683847084046" lon="12.662034799631053"><ele>826.0</ele><time>2026-03-22T08:21:10.999Z</time></trkpt><trkpt lat="46.196764118049956" lon="12.662142072269482"><ele>819.9999999999999</ele><time>2026-03-22T08:21:13Z</time></trkpt><trkpt lat="46.19676446167614" lon="12.66225094783685"><ele>814.0</ele><time>2026-03-22T08:21:14Z</time></trkpt><trkpt lat="46.19674812005097" lon="12.662378736337315"><ele>814.0</ele><time>2026-03-22T08:21:15Z</time></trkpt><trkpt lat="46.19673472043495" lon="12.662517524172628"><ele>814.0</ele><time>2026-03-22T08:21:16Z</time></trkpt><trkpt lat="46.19673635502168" lon="12.662652212044138"><ele>814.0</ele><time>2026-03-22T08:21:17Z</time></trkpt><trkpt lat="46.196758249629674" lon="12.662792023081543"><ele>814.0</ele><time>2026-03-22T08:21:18Z</time></trkpt><trkpt lat="46.19678538371648" lon="12.662919301308115"><ele>814.0</ele><time>2026-03-22T08:21:19Z</time></trkpt><trkpt lat="46.19681600736546" lon="12.663020684742236"><ele>813.2857142857143</ele><time>2026-03-22T08:21:20Z</time></trkpt><trkpt lat="46.196860624273704" lon="12.663087770372927"><ele>812.5714285714286</ele><time>2026-03-22T08:21:21Z</time></trkpt><trkpt lat="46.19692038401169" lon="12.66311783959883"><ele>811.8571428571429</ele><time>2026-03-22T08:21:22Z</time></trkpt><trkpt lat="46.196984648787954" lon="12.663113714781606"><ele>811.1428571428571</ele><time>2026-03-22T08:21:23Z</time></trkpt><trkpt lat="46.1970444044009" lon="12.663074834744453"><ele>810.4285714285714</ele><time>2026-03-22T08:21:24Z</time></trkpt><trkpt lat="46.197099533890054" lon="12.663006852281693"><ele>809.7142857142858</ele><time>2026-03-22T08:21:25Z</time></trkpt><trkpt lat="46.197157187284766" lon="12.662948382952658"><ele>809.0</ele><time>2026-03-22T08:21:26Z</time></trkpt><trkpt lat="46.19725358688622" lon="12.662918622126357"><ele>809.0</ele><time>2026-03-22T08:21:28Z</time></trkpt><trkpt lat="46.197327998865106" lon="12.663020250916455"><ele>809.0</ele><time>2026-03-22T08:21:30Z</time></trkpt><trkpt lat="46.19733695067878" lon="12.663130132362577"><ele>809.0</ele><time>2026-03-22T08:21:31Z</time></trkpt><trkpt lat="46.197339427380356" lon="12.663253697013069"><ele>809.0</ele><time>2026-03-22T08:21:32Z</time></trkpt><trkpt lat="46.197359379050255" lon="12.663345132874266"><ele>809.0</ele><time>2026-03-22T08:21:33Z</time></trkpt><trkpt lat="46.19744932075964" lon="12.663468185565357"><ele>807.0000000000001</ele><time>2026-03-22T08:21:35Z</time></trkpt><trkpt lat="46.197515162412316" lon="12.663495730337646"><ele>805.0</ele><time>2026-03-22T08:21:36Z</time></trkpt><trkpt lat="46.19757748531849" lon="12.663526598500312"><ele>803.0</ele><time>2026-03-22T08:21:37Z</time></trkpt><trkpt lat="46.19765749281552" lon="12.663585811660639"><ele>801.0</ele><time>2026-03-22T08:21:39Z</time></trkpt><trkpt lat="46.19768167743941" lon="12.663701475990788"><ele>799.0000000000001</ele><time>2026-03-22T08:21:41Z</time></trkpt><trkpt lat="46.197602482795304" lon="12.663823557595677"><ele>797.0</ele><time>2026-03-22T08:21:43Z</time></trkpt><trkpt lat="46.197530472387704" lon="12.663855486530222"><ele>797.8333333333334</ele><time>2026-03-22T08:21:44Z</time></trkpt><trkpt lat="46.197456405863484" lon="12.663881078376836"><ele>798.6666666666667</ele><time>2026-03-22T08:21:45Z</time></trkpt><trkpt lat="46.19738597066409" lon="12.663888206887027"><ele>799.5</ele><time>2026-03-22T08:21:46Z</time></trkpt><trkpt lat="46.197322062348974" lon="12.663890682485677"><ele>800.3333333333333</ele><time>2026-03-22T08:21:47Z</time></trkpt><trkpt lat="46.19726587050142" lon="12.66401011168555"><ele>801.1666666666666</ele><time>2026-03-22T08:21:49Z</time></trkpt><trkpt lat="46.197340503645435" lon="12.664154329163988"><ele>802.0</ele><time>2026-03-22T08:21:51Z</time></trkpt><trkpt lat="46.197426645947274" lon="12.664224354236344"><ele>797.25</ele><time>2026-03-22T08:21:52Z</time></trkpt><trkpt lat="46.19751914212707" lon="12.66431302118544"><ele>792.5</ele><time>2026-03-22T08:21:53Z</time></trkpt><trkpt lat="46.19761992625865" lon="12.6644078197386"><ele>787.75</ele><time>2026-03-22T08:21:54Z</time></trkpt><trkpt lat="46.19772705911063" lon="12.664496029226079"><ele>783.0</ele><time>2026-03-22T08:21:55Z</time></trkpt><trkpt lat="46.19783485336687" lon="12.664583930489911"><ele>780.25</ele><time>2026-03-22T08:21:56Z</time></trkpt><trkpt lat="46.19793996299173" lon="12.664674264494462"><ele>777.5</ele><time>2026-03-22T08:21:57Z</time></trkpt><trkpt lat="46.198039146037246" lon="12.664763279859656"><ele>774.75</ele><time>2026-03-22T08:21:58Z</time></trkpt><trkpt lat="46.19813310368787" lon="12.664845743559127"><ele>772.0</ele><time>2026-03-22T08:21:59Z</time></trkpt><trkpt lat="46.19822348939985" lon="12.664923706462174"><ele>771.9999999999999</ele><time>2026-03-22T08:22:00Z</time></trkpt><trkpt lat="46.198309058361524" lon="12.664988819471931"><ele>772.0</ele><time>2026-03-22T08:22:01Z</time></trkpt><trkpt lat="46.19838513562692" lon="12.66503220134764"><ele>772.0</ele><time>2026-03-22T08:22:02Z</time></trkpt><trkpt lat="46.198463453041164" lon="12.66505103843728"><ele>772.0</ele><time>2026-03-22T08:22:03Z</time></trkpt><trkpt lat="46.19853335689195" lon="12.665059371731179"><ele>771.9999999999999</ele><time>2026-03-22T08:22:04Z</time></trkpt><trkpt lat="46.19859677486225" lon="12.665127176329815"><ele>772.0</ele><time>2026-03-22T08:22:06Z</time></trkpt><trkpt lat="46.19854889812845" lon="12.66525081703307"><ele>771.9999999999999</ele><time>2026-03-22T08:22:08Z</time></trkpt><trkpt lat="46.19847873507273" lon="12.665291350009296"><ele>772.0</ele><time>2026-03-22T08:22:09Z</time></trkpt><trkpt lat="46.19840034439704" lon="12.665290223759776"><ele>772.0</ele><time>2026-03-22T08:22:09.999Z</time></trkpt><trkpt lat="46.19831482657199" lon="12.665272377573228"><ele>772.0</ele><time>2026-03-22T08:22:10.999Z</time></trkpt><trkpt lat="46.198220588372436" lon="12.66525923310815"><ele>771.9999999999999</ele><time>2026-03-22T08:22:11.999Z</time></trkpt><trkpt lat="46.198128806490764" lon="12.665258428346425"><ele>772.0</ele><time>2026-03-22T08:22:12.999Z</time></trkpt><trkpt lat="46.19804271457453" lon="12.665274815202"><ele>770.4999999999999</ele><time>2026-03-22T08:22:13.999Z</time></trkpt><trkpt lat="46.19796963399552" lon="12.665327353484761"><ele>769.0</ele><time>2026-03-22T08:22:14.999Z</time></trkpt><trkpt lat="46.19790756321915" lon="12.665404169733748"><ele>767.5</ele><time>2026-03-22T08:22:15.999Z</time></trkpt><trkpt lat="46.19785190811938" lon="12.665482751058619"><ele>766.0</ele><time>2026-03-22T08:22:16.999Z</time></trkpt><trkpt lat="46.19779823022801" lon="12.665554702669017"><ele>764.5</ele><time>2026-03-22T08:22:17.999Z</time></trkpt><trkpt lat="46.19773255521364" lon="12.665590633981411"><ele>763.0</ele><time>2026-03-22T08:22:18.999Z</time></trkpt><trkpt lat="46.19766528198299" lon="12.665580689532502"><ele>763.0</ele><time>2026-03-22T08:22:19.999Z</time></trkpt><trkpt lat="46.19760252722475" lon="12.665571681475633"><ele>763.0</ele><time>2026-03-22T08:22:20.999Z</time></trkpt><trkpt lat="46.19752750180166" lon="12.665679921073382"><ele>763.0</ele><time>2026-03-22T08:22:22.999Z</time></trkpt><trkpt lat="46.19759042579265" lon="12.665814029044247"><ele>763.0</ele><time>2026-03-22T08:22:24.999Z</time></trkpt><trkpt lat="46.197653749280065" lon="12.665840365355901"><ele>763.0</ele><time>2026-03-22T08:22:25.999Z</time></trkpt><trkpt lat="46.19773464701966" lon="12.665846755286433"><ele>763.0</ele><time>2026-03-22T08:22:26.999Z</time></trkpt><trkpt lat="46.197803267103325" lon="12.6658290716256"><ele>763.0</ele><time>2026-03-22T08:22:27.999Z</time></trkpt><trkpt lat="46.19786575012975" lon="12.6657858537632"><ele>763.0</ele><time>2026-03-22T08:22:28.999Z</time></trkpt><trkpt lat="46.1979290618552" lon="12.665740576461069"><ele>763.0</ele><time>2026-03-22T08:22:29.999Z</time></trkpt><trkpt lat="46.19799400361189" lon="12.665730183999695"><ele>763.0</ele><time>2026-03-22T08:22:30.999Z</time></trkpt><trkpt lat="46.19809297467538" lon="12.66581814509218"><ele>763.0</ele><time>2026-03-22T08:22:32.999Z</time></trkpt><trkpt lat="46.198128608408766" lon="12.66591468892726"><ele>763.0</ele><time>2026-03-22T08:22:33.999Z</time></trkpt><trkpt lat="46.198156338726086" lon="12.666056702980793"><ele>763.0</ele><time>2026-03-22T08:22:34.999Z</time></trkpt><trkpt lat="46.198182595588946" lon="12.666175220515678"><ele>763.0</ele><time>2026-03-22T08:22:35.999Z</time></trkpt><trkpt lat="46.19821128112259" lon="12.666280025667676"><ele>763.0</ele><time>2026-03-22T08:22:36.999Z</time></trkpt><trkpt lat="46.198213107731064" lon="12.66642758950509"><ele>763.0</ele><time>2026-03-22T08:22:38.999Z</time></trkpt><trkpt lat="46.19810865025423" lon="12.666520383131532"><ele>763.0</ele><time>2026-03-22T08:22:40.999Z</time></trkpt><trkpt lat="46.198052816258844" lon="12.666594607885377"><ele>762.4</ele><time>2026-03-22T08:22:41.999Z</time></trkpt><trkpt lat="46.19801263510546" lon="12.666687383232706"><ele>761.8</ele><time>2026-03-22T08:22:42.999Z</time></trkpt><trkpt lat="46.19798398300158" lon="12.666779749191969"><ele>761.2</ele><time>2026-03-22T08:22:43.999Z</time></trkpt><trkpt lat="46.19796057464571" lon="12.666868486797082"><ele>760.6</ele><time>2026-03-22T08:22:44.999Z</time></trkpt><trkpt lat="46.19802038933008" lon="12.6670476145507"><ele>760.0</ele><time>2026-03-22T08:22:46.999Z</time></trkpt><trkpt lat="46.198089983310794" lon="12.667169713722043"><ele>760.0</ele><time>2026-03-22T08:22:47.999Z</time></trkpt><trkpt lat="46.198144994010974" lon="12.667293841190467"><ele>760.0</ele><time>2026-03-22T08:22:48.999Z</time></trkpt><trkpt lat="46.19819000777857" lon="12.667411719389497"><ele>760.0</ele><time>2026-03-22T08:22:49.999Z</time></trkpt><trkpt lat="46.1982151931125" lon="12.667528072250143"><ele>760.0</ele><time>2026-03-22T08:22:50.999Z</time></trkpt><trkpt lat="46.19822027081118" lon="12.667643207519518"><ele>760.0</ele><time>2026-03-22T08:22:51.999Z</time></trkpt><trkpt lat="46.19822925335577" lon="12.667776215128825"><ele>759.0</ele><time>2026-03-22T08:22:52.999Z</time></trkpt><trkpt lat="46.198226120393265" lon="12.667896907389316"><ele>758.0</ele><time>2026-03-22T08:22:53.999Z</time></trkpt><trkpt lat="46.198220197595596" lon="12.668009671902492"><ele>757.0</ele><time>2026-03-22T08:22:54.999Z</time></trkpt><trkpt lat="46.198198315637484" lon="12.66810842229002"><ele>756.0</ele><time>2026-03-22T08:22:55.999Z</time></trkpt><trkpt lat="46.198170517798296" lon="12.668198541301498"><ele>755.0</ele><time>2026-03-22T08:22:56.999Z</time></trkpt><trkpt lat="46.19814952791597" lon="12.668286603476265"><ele>754.0</ele><time>2026-03-22T08:22:57.999Z</time></trkpt><trkpt lat="46.19816038410468" lon="12.668380096192713"><ele>753.0</ele><time>2026-03-22T08:22:58.999Z</time></trkpt><trkpt lat="46.19820514157455" lon="12.66851491249443"><ele>750.0</ele><time>2026-03-22T08:22:59.999Z</time></trkpt><trkpt lat="46.198272023378614" lon="12.668698478545464"><ele>747.0</ele><time>2026-03-22T08:23:00.999Z</time></trkpt><trkpt lat="46.19831935864547" lon="12.668857243651264"><ele>744.0</ele><time>2026-03-22T08:23:01.999Z</time></trkpt><trkpt lat="46.198366158295855" lon="12.668998595896413"><ele>741.0</ele><time>2026-03-22T08:23:02.999Z</time></trkpt><trkpt lat="46.19840004433042" lon="12.669106190166278"><ele>741.0</ele><time>2026-03-22T08:23:03.999Z</time></trkpt><trkpt lat="46.198443991418166" lon="12.669185962941171"><ele>741.0</ele><time>2026-03-22T08:23:04.999Z</time></trkpt><trkpt lat="46.19850114243956" lon="12.669225704823297"><ele>741.0</ele><time>2026-03-22T08:23:05.999Z</time></trkpt><trkpt lat="46.19862084438195" lon="12.669274339632775"><ele>741.0</ele><time>2026-03-22T08:23:07.999Z</time></trkpt><trkpt lat="46.19867190905677" lon="12.669328251326267"><ele>741.0</ele><time>2026-03-22T08:23:08.999Z</time></trkpt><trkpt lat="46.19869909961324" lon="12.66946898381591"><ele>741.0</ele><time>2026-03-22T08:23:10.999Z</time></trkpt><trkpt lat="46.19866006659049" lon="12.669650841513512"><ele>740.3333333333334</ele><time>2026-03-22T08:23:12.999Z</time></trkpt><trkpt lat="46.198615585899944" lon="12.669753201506694"><ele>739.6666666666666</ele><time>2026-03-22T08:23:13.999Z</time></trkpt><trkpt lat="46.19858902481854" lon="12.669853335529895"><ele>739.0</ele><time>2026-03-22T08:23:14.999Z</time></trkpt><trkpt lat="46.19858078883777" lon="12.669959062452874"><ele>738.3333333333333</ele><time>2026-03-22T08:23:15.999Z</time></trkpt><trkpt lat="46.1985893725051" lon="12.670070719210715"><ele>737.6666666666666</ele><time>2026-03-22T08:23:16.999Z</time></trkpt><trkpt lat="46.19861165289578" lon="12.67016602904546"><ele>737.0</ele><time>2026-03-22T08:23:17.999Z</time></trkpt><trkpt lat="46.198687619126034" lon="12.6702452809744"><ele>737.0</ele><time>2026-03-22T08:23:20Z</time></trkpt><trkpt lat="46.19875213000272" lon="12.670227459200836"><ele>737.0</ele><time>2026-03-22T08:23:21Z</time></trkpt><trkpt lat="46.198843469705" lon="12.670177318983955"><ele>737.0</ele><time>2026-03-22T08:23:22Z</time></trkpt><trkpt lat="46.198921760331984" lon="12.67016627246439"><ele>737.0</ele><time>2026-03-22T08:23:23Z</time></trkpt><trkpt lat="46.198985971640646" lon="12.670189071339626"><ele>737.0</ele><time>2026-03-22T08:23:24Z</time></trkpt><trkpt lat="46.19908129384303" lon="12.670298665275574"><ele>737.0</ele><time>2026-03-22T08:23:26Z</time></trkpt><trkpt lat="46.1990938951188" lon="12.67040319753649"><ele>737.2</ele><time>2026-03-22T08:23:27Z</time></trkpt><trkpt lat="46.199104080375925" lon="12.670539240952234"><ele>737.4000000000001</ele><time>2026-03-22T08:23:28Z</time></trkpt><trkpt lat="46.1991129018489" lon="12.670696107436706"><ele>737.5999999999999</ele><time>2026-03-22T08:23:29Z</time></trkpt><trkpt lat="46.19912045534265" lon="12.670867677145484"><ele>737.8</ele><time>2026-03-22T08:23:30Z</time></trkpt><trkpt lat="46.199124476415456" lon="12.67102847991823"><ele>738.0</ele><time>2026-03-22T08:23:31Z</time></trkpt><trkpt lat="46.19913549462094" lon="12.671154035336498"><ele>735.5999999999999</ele><time>2026-03-22T08:23:32Z</time></trkpt><trkpt lat="46.19913287238449" lon="12.67128762113125"><ele>733.1999999999999</ele><time>2026-03-22T08:23:34Z</time></trkpt><trkpt lat="46.1990389472126" lon="12.671308171392393"><ele>730.8</ele><time>2026-03-22T08:23:36Z</time></trkpt><trkpt lat="46.19896801027688" lon="12.671234765683439"><ele>728.4</ele><time>2026-03-22T08:23:37Z</time></trkpt><trkpt lat="46.19892368710351" lon="12.671119767335892"><ele>726.0</ele><time>2026-03-22T08:23:38Z</time></trkpt><trkpt lat="46.1988832477014" lon="12.67101076037526"><ele>726.0</ele><time>2026-03-22T08:23:39Z</time></trkpt><trkpt lat="46.198840381301885" lon="12.670918765781812"><ele>726.0</ele><time>2026-03-22T08:23:40Z</time></trkpt><trkpt lat="46.19874695748082" lon="12.670887362738071"><ele>726.0</ele><time>2026-03-22T08:23:42Z</time></trkpt><trkpt lat="46.19870041155192" lon="12.671016643295086"><ele>726.0</ele><time>2026-03-22T08:23:44Z</time></trkpt><trkpt lat="46.198730891247045" lon="12.671108671205682"><ele>726.0</ele><time>2026-03-22T08:23:45Z</time></trkpt><trkpt lat="46.198792026461625" lon="12.671218884922563"><ele>726.0</ele><time>2026-03-22T08:23:46Z</time></trkpt><trkpt lat="46.1988525618075" lon="12.671361826745628"><ele>725.1999999999999</ele><time>2026-03-22T08:23:47Z</time></trkpt><trkpt lat="46.19889544367723" lon="12.671525559180434"><ele>724.4</ele><time>2026-03-22T08:23:48Z</time></trkpt><trkpt lat="46.19892412372262" lon="12.671677383644031"><ele>723.6</ele><time>2026-03-22T08:23:49Z</time></trkpt><trkpt lat="46.198954963533794" lon="12.671815172455524"><ele>722.8</ele><time>2026-03-22T08:23:50Z</time></trkpt><trkpt lat="46.198994396611475" lon="12.671941232031397"><ele>722.0</ele><time>2026-03-22T08:23:51Z</time></trkpt><trkpt lat="46.19905236843729" lon="12.672059283004865"><ele>720.2</ele><time>2026-03-22T08:23:52Z</time></trkpt><trkpt lat="46.199136310646765" lon="12.672179359985144"><ele>718.4000000000001</ele><time>2026-03-22T08:23:53Z</time></trkpt><trkpt lat="46.199212415582245" lon="12.67228741937868"><ele>716.5999999999999</ele><time>2026-03-22T08:23:54Z</time></trkpt><trkpt lat="46.1992696303134" lon="12.672406988802495"><ele>714.8</ele><time>2026-03-22T08:23:55Z</time></trkpt><trkpt lat="46.19930622782743" lon="12.672546648866787"><ele>713.0</ele><time>2026-03-22T08:23:56Z</time></trkpt><trkpt lat="46.19934837126626" lon="12.672728766054867"><ele>711.2</ele><time>2026-03-22T08:23:57Z</time></trkpt><trkpt lat="46.199384368974975" lon="12.672907168939137"><ele>709.4</ele><time>2026-03-22T08:23:58Z</time></trkpt><trkpt lat="46.199411161510305" lon="12.673067259669056"><ele>707.6</ele><time>2026-03-22T08:23:59Z</time></trkpt><trkpt lat="46.19943988886427" lon="12.673214660637223"><ele>705.8000000000001</ele><time>2026-03-22T08:24:00Z</time></trkpt><trkpt lat="46.19947353673915" lon="12.673348863914963"><ele>704.0</ele><time>2026-03-22T08:24:01Z</time></trkpt><trkpt lat="46.19950807558498" lon="12.673463633108762"><ele>704.0</ele><time>2026-03-22T08:24:02Z</time></trkpt><trkpt lat="46.199553546714405" lon="12.673565254157387"><ele>704.0</ele><time>2026-03-22T08:24:03Z</time></trkpt><trkpt lat="46.19963246093564" lon="12.67366636373415"><ele>704.0</ele><time>2026-03-22T08:24:04Z</time></trkpt><trkpt lat="46.19972821173166" lon="12.67376720184233"><ele>704.0</ele><time>2026-03-22T08:24:05Z</time></trkpt><trkpt lat="46.19981454898525" lon="12.673849309115733"><ele>704.0</ele><time>2026-03-22T08:24:06Z</time></trkpt><trkpt lat="46.199889508481036" lon="12.673905428012825"><ele>703.4000000000001</ele><time>2026-03-22T08:24:07Z</time></trkpt><trkpt lat="46.199963133629986" lon="12.673916202950243"><ele>702.8</ele><time>2026-03-22T08:24:08Z</time></trkpt><trkpt lat="46.200044785546254" lon="12.673890971817109"><ele>702.2</ele><time>2026-03-22T08:24:09Z</time></trkpt><trkpt lat="46.200147058719935" lon="12.673819553557813"><ele>701.5999999999999</ele><time>2026-03-22T08:24:10Z</time></trkpt><trkpt lat="46.20024715775911" lon="12.673768872378151"><ele>701.0</ele><time>2026-03-22T08:24:10.999Z</time></trkpt><trkpt lat="46.20034415490225" lon="12.673753336821878"><ele>701.0</ele><time>2026-03-22T08:24:11.999Z</time></trkpt><trkpt lat="46.20044755695548" lon="12.673760817010397"><ele>701.0</ele><time>2026-03-22T08:24:12.999Z</time></trkpt><trkpt lat="46.200563119876236" lon="12.673770713776376"><ele>701.0</ele><time>2026-03-22T08:24:13.999Z</time></trkpt><trkpt lat="46.20066310632075" lon="12.673771483599394"><ele>701.0</ele><time>2026-03-22T08:24:14.999Z</time></trkpt><trkpt lat="46.20073109152743" lon="12.673765606569964"><ele>701.0</ele><time>2026-03-22T08:24:15.999Z</time></trkpt><trkpt lat="46.200815054759644" lon="12.673811919276321"><ele>701.0</ele><time>2026-03-22T08:24:17.999Z</time></trkpt><trkpt lat="46.20078761539861" lon="12.673949817395988"><ele>701.0</ele><time>2026-03-22T08:24:19.999Z</time></trkpt><trkpt lat="46.200705577240846" lon="12.673977796625005"><ele>701.0</ele><time>2026-03-22T08:24:20.999Z</time></trkpt><trkpt lat="46.20058798382432" lon="12.673975814571774"><ele>701.0</ele><time>2026-03-22T08:24:21.999Z</time></trkpt><trkpt lat="46.200477268987015" lon="12.67400948752229"><ele>701.0</ele><time>2026-03-22T08:24:22.999Z</time></trkpt><trkpt lat="46.20038337372841" lon="12.674084756029542"><ele>701.0</ele><time>2026-03-22T08:24:23.999Z</time></trkpt><trkpt lat="46.20028111500452" lon="12.674192758868356"><ele>701.0</ele><time>2026-03-22T08:24:24.999Z</time></trkpt><trkpt lat="46.200179267702495" lon="12.674304532558358"><ele>701.0</ele><time>2026-03-22T08:24:25.999Z</time></trkpt><trkpt lat="46.20009090120438" lon="12.67440478976196"><ele>701.0</ele><time>2026-03-22T08:24:26.999Z</time></trkpt><trkpt lat="46.200011633486675" lon="12.674484497240375"><ele>698.0</ele><time>2026-03-22T08:24:27.999Z</time></trkpt><trkpt lat="46.19993877796162" lon="12.674541738382608"><ele>695.0</ele><time>2026-03-22T08:24:28.999Z</time></trkpt><trkpt lat="46.199860007199824" lon="12.674555070081336"><ele>692.0</ele><time>2026-03-22T08:24:29.999Z</time></trkpt><trkpt lat="46.199782682145404" lon="12.67452309993747"><ele>689.0</ele><time>2026-03-22T08:24:30.999Z</time></trkpt><trkpt lat="46.19970891609319" lon="12.674468592011387"><ele>686.0</ele><time>2026-03-22T08:24:31.999Z</time></trkpt><trkpt lat="46.19964035551194" lon="12.674443746357356"><ele>683.0</ele><time>2026-03-22T08:24:32.999Z</time></trkpt><trkpt lat="46.1995698655637" lon="12.674519025143624"><ele>683.0</ele><time>2026-03-22T08:24:34.999Z</time></trkpt><trkpt lat="46.19962585801229" lon="12.674667539744126"><ele>683.0</ele><time>2026-03-22T08:24:36.999Z</time></trkpt><trkpt lat="46.199721478890844" lon="12.674717440529951"><ele>683.0</ele><time>2026-03-22T08:24:37.999Z</time></trkpt><trkpt lat="46.19983075800554" lon="12.674756699596415"><ele>683.0</ele><time>2026-03-22T08:24:38.999Z</time></trkpt><trkpt lat="46.199918975383866" lon="12.674771244248582"><ele>683.0</ele><time>2026-03-22T08:24:39.999Z</time></trkpt><trkpt lat="46.20000294087222" lon="12.674752148233026"><ele>682.4</ele><time>2026-03-22T08:24:40.999Z</time></trkpt><trkpt lat="46.20012649033457" lon="12.674682007677402"><ele>681.8</ele><time>2026-03-22T08:24:41.999Z</time></trkpt><trkpt lat="46.200236217558825" lon="12.674618210494682"><ele>681.2</ele><time>2026-03-22T08:24:42.999Z</time></trkpt><trkpt lat="46.200338944793415" lon="12.67458412720909"><ele>680.6</ele><time>2026-03-22T08:24:43.999Z</time></trkpt><trkpt lat="46.20043113992895" lon="12.674568672837273"><ele>680.0</ele><time>2026-03-22T08:24:44.999Z</time></trkpt><trkpt lat="46.20050221929978" lon="12.674572900193544"><ele>680.0</ele><time>2026-03-22T08:24:45.999Z</time></trkpt><trkpt lat="46.20057953432642" lon="12.674618372960818"><ele>680.0</ele><time>2026-03-22T08:24:47.999Z</time></trkpt><trkpt lat="46.2005515693883" lon="12.674751906296203"><ele>680.0</ele><time>2026-03-22T08:24:49.999Z</time></trkpt><trkpt lat="46.20047943945418" lon="12.67476944134629"><ele>680.0</ele><time>2026-03-22T08:24:50.999Z</time></trkpt><trkpt lat="46.20037518403468" lon="12.674748510475832"><ele>680.0</ele><time>2026-03-22T08:24:51.999Z</time></trkpt><trkpt lat="46.200271654731516" lon="12.674792222229376"><ele>680.0</ele><time>2026-03-22T08:24:52.999Z</time></trkpt><trkpt lat="46.200167210846566" lon="12.674878089574623"><ele>680.0</ele><time>2026-03-22T08:24:53.999Z</time></trkpt><trkpt lat="46.200068462417754" lon="12.674983592035938"><ele>680.0</ele><time>2026-03-22T08:24:54.999Z</time></trkpt><trkpt lat="46.19997208408784" lon="12.675080093875136"><ele>680.0</ele><time>2026-03-22T08:24:55.999Z</time></trkpt><trkpt lat="46.19988042324032" lon="12.675126892643485"><ele>680.3333333333333</ele><time>2026-03-22T08:24:56.999Z</time></trkpt><trkpt lat="46.19978351515831" lon="12.675133717587245"><ele>680.6666666666666</ele><time>2026-03-22T08:24:57.999Z</time></trkpt><trkpt lat="46.19969571435413" lon="12.675114719706428"><ele>681.0</ele><time>2026-03-22T08:24:58.999Z</time></trkpt><trkpt lat="46.199585253347585" lon="12.675151545827786"><ele>681.3333333333334</ele><time>2026-03-22T08:25:00.999Z</time></trkpt><trkpt lat="46.199584870295034" lon="12.67526693974056"><ele>681.6666666666667</ele><time>2026-03-22T08:25:02.999Z</time></trkpt><trkpt lat="46.19963582883411" lon="12.675321039969853"><ele>682.0</ele><time>2026-03-22T08:25:03.999Z</time></trkpt><trkpt lat="46.19973065566766" lon="12.675338223010401"><ele>682.0</ele><time>2026-03-22T08:25:04.999Z</time></trkpt><trkpt lat="46.19980954504029" lon="12.675387537925058"><ele>682.0</ele><time>2026-03-22T08:25:05.999Z</time></trkpt><trkpt lat="46.19988170907731" lon="12.675470318135204"><ele>682.0</ele><time>2026-03-22T08:25:06.999Z</time></trkpt><trkpt lat="46.199978832323076" lon="12.675549518727683"><ele>682.0</ele><time>2026-03-22T08:25:07.999Z</time></trkpt><trkpt lat="46.20009066402701" lon="12.675599194639249"><ele>682.0</ele><time>2026-03-22T08:25:08.999Z</time></trkpt><trkpt lat="46.20019156928396" lon="12.675629069578019"><ele>678.6666666666667</ele><time>2026-03-22T08:25:09.999Z</time></trkpt><trkpt lat="46.20027669500842" lon="12.675658203781024"><ele>675.3333333333334</ele><time>2026-03-22T08:25:10.999Z</time></trkpt><trkpt lat="46.20035211583204" lon="12.67569734470812"><ele>672.0</ele><time>2026-03-22T08:25:11.999Z</time></trkpt><trkpt lat="46.20042024868117" lon="12.675755897663073"><ele>668.6666666666666</ele><time>2026-03-22T08:25:12.999Z</time></trkpt><trkpt lat="46.200477902585206" lon="12.675834833961481"><ele>665.3333333333333</ele><time>2026-03-22T08:25:13.999Z</time></trkpt><trkpt lat="46.20051914171404" lon="12.675922470728766"><ele>662.0</ele><time>2026-03-22T08:25:14.999Z</time></trkpt><trkpt lat="46.20056030366429" lon="12.675999503722066"><ele>662.0</ele><time>2026-03-22T08:25:15.999Z</time></trkpt><trkpt lat="46.20062200577681" lon="12.67603638202644"><ele>662.0</ele><time>2026-03-22T08:25:16.999Z</time></trkpt><trkpt lat="46.20070991815833" lon="12.676037730729814"><ele>662.0</ele><time>2026-03-22T08:25:17.999Z</time></trkpt><trkpt lat="46.20080236751721" lon="12.67603401980061"><ele>662.0</ele><time>2026-03-22T08:25:18.999Z</time></trkpt><trkpt lat="46.200880251919" lon="12.676040304416235"><ele>662.0</ele><time>2026-03-22T08:25:19.999Z</time></trkpt><trkpt lat="46.20094606824067" lon="12.67607509945963"><ele>662.0</ele><time>2026-03-22T08:25:20.999Z</time></trkpt><trkpt lat="46.20099954551429" lon="12.676136137517682"><ele>659.3333333333333</ele><time>2026-03-22T08:25:21.999Z</time></trkpt><trkpt lat="46.201048387071154" lon="12.676202145721376"><ele>656.6666666666666</ele><time>2026-03-22T08:25:22.999Z</time></trkpt><trkpt lat="46.20110696009118" lon="12.676249638739252"><ele>654.0</ele><time>2026-03-22T08:25:23.999Z</time></trkpt><trkpt lat="46.20117927037965" lon="12.676262078635826"><ele>651.3333333333334</ele><time>2026-03-22T08:25:25Z</time></trkpt><trkpt lat="46.20124496452425" lon="12.676280541871956"><ele>648.6666666666667</ele><time>2026-03-22T08:25:26Z</time></trkpt><trkpt lat="46.20129489067108" lon="12.676380113882175"><ele>646.0</ele><time>2026-03-22T08:25:28Z</time></trkpt><trkpt lat="46.20120506069643" lon="12.676481460044227"><ele>646.0</ele><time>2026-03-22T08:25:30Z</time></trkpt><trkpt lat="46.20111309358412" lon="12.676475963275482"><ele>646.0</ele><time>2026-03-22T08:25:31Z</time></trkpt><trkpt lat="46.201019506994655" lon="12.676473338374693"><ele>646.0</ele><time>2026-03-22T08:25:32Z</time></trkpt><trkpt lat="46.20094134019444" lon="12.676464358839821"><ele>646.0</ele><time>2026-03-22T08:25:33Z</time></trkpt><trkpt lat="46.200872475288264" lon="12.676456093592943"><ele>646.0</ele><time>2026-03-22T08:25:34Z</time></trkpt><trkpt lat="46.200775421698594" lon="12.676529537249463"><ele>646.0</ele><time>2026-03-22T08:25:36Z</time></trkpt><trkpt lat="46.20074870480567" lon="12.676612605814409"><ele>646.0</ele><time>2026-03-22T08:25:37Z</time></trkpt><trkpt lat="46.200735906548914" lon="12.676713768176676"><ele>646.0</ele><time>2026-03-22T08:25:38Z</time></trkpt><trkpt lat="46.20067231681333" lon="12.67681949985032"><ele>646.0</ele><time>2026-03-22T08:25:40Z</time></trkpt><trkpt lat="46.20055972165616" lon="12.676772874180418"><ele>646.0</ele><time>2026-03-22T08:25:42Z</time></trkpt><trkpt lat="46.200505692458854" lon="12.676689419139697"><ele>646.0</ele><time>2026-03-22T08:25:43Z</time></trkpt><trkpt lat="46.200445045618594" lon="12.676617707935952"><ele>646.0</ele><time>2026-03-22T08:25:44Z</time></trkpt><trkpt lat="46.200379253259" lon="12.67658525107151"><ele>645.8333333333334</ele><time>2026-03-22T08:25:45Z</time></trkpt><trkpt lat="46.20031542227613" lon="12.676588195497304"><ele>645.6666666666667</ele><time>2026-03-22T08:25:46Z</time></trkpt><trkpt lat="46.20023707740034" lon="12.676604079047673"><ele>645.5</ele><time>2026-03-22T08:25:47Z</time></trkpt><trkpt lat="46.20016902589159" lon="12.67660651450527"><ele>645.3333333333334</ele><time>2026-03-22T08:25:48Z</time></trkpt><trkpt lat="46.20009278002378" lon="12.676697979724812"><ele>645.1666666666666</ele><time>2026-03-22T08:25:50Z</time></trkpt><trkpt lat="46.200130189210476" lon="12.676817784645744"><ele>645.0</ele><time>2026-03-22T08:25:52Z</time></trkpt><trkpt lat="46.20022252309485" lon="12.676851780197566"><ele>645.0</ele><time>2026-03-22T08:25:54Z</time></trkpt><trkpt lat="46.200336701788665" lon="12.676852967444088"><ele>645.0</ele><time>2026-03-22T08:25:56Z</time></trkpt><trkpt lat="46.20038801569092" lon="12.676919391325358"><ele>645.0</ele><time>2026-03-22T08:25:57Z</time></trkpt><trkpt lat="46.20043751770254" lon="12.677028494719133"><ele>645.0</ele><time>2026-03-22T08:25:58Z</time></trkpt><trkpt lat="46.200491273902344" lon="12.677139218736794"><ele>645.0</ele><time>2026-03-22T08:25:59Z</time></trkpt><trkpt lat="46.20055075618566" lon="12.6772241202167"><ele>643.3333333333334</ele><time>2026-03-22T08:26:00Z</time></trkpt><trkpt lat="46.20061655708546" lon="12.677294422994915"><ele>641.6666666666666</ele><time>2026-03-22T08:26:01Z</time></trkpt><trkpt lat="46.20067972704131" lon="12.677360184465762"><ele>640.0</ele><time>2026-03-22T08:26:02Z</time></trkpt><trkpt lat="46.20074004494922" lon="12.677425711643151"><ele>638.3333333333333</ele><time>2026-03-22T08:26:03Z</time></trkpt><trkpt lat="46.20080450336423" lon="12.677471270541806"><ele>636.6666666666666</ele><time>2026-03-22T08:26:04Z</time></trkpt><trkpt lat="46.20088267270595" lon="12.677487474240712"><ele>635.0</ele><time>2026-03-22T08:26:05Z</time></trkpt><trkpt lat="46.200962290073996" lon="12.677468203896192"><ele>634.3333333333333</ele><time>2026-03-22T08:26:06Z</time></trkpt><trkpt lat="46.20104342326116" lon="12.677430855320747"><ele>633.6666666666666</ele><time>2026-03-22T08:26:07Z</time></trkpt><trkpt lat="46.201127251568074" lon="12.677409530010022"><ele>633.0</ele><time>2026-03-22T08:26:08Z</time></trkpt><trkpt lat="46.20120238765885" lon="12.677409117589551"><ele>632.3333333333334</ele><time>2026-03-22T08:26:09Z</time></trkpt><trkpt lat="46.20128044238614" lon="12.677426167911847"><ele>631.6666666666667</ele><time>2026-03-22T08:26:10Z</time></trkpt><trkpt lat="46.20135633051594" lon="12.67746145820165"><ele>631.0</ele><time>2026-03-22T08:26:11Z</time></trkpt><trkpt lat="46.20142399126043" lon="12.677499997646256"><ele>631.0</ele><time>2026-03-22T08:26:12Z</time></trkpt><trkpt lat="46.20149446299966" lon="12.677550467776198"><ele>631.0</ele><time>2026-03-22T08:26:13Z</time></trkpt><trkpt lat="46.201554714197734" lon="12.677602926109294"><ele>631.0</ele><time>2026-03-22T08:26:14Z</time></trkpt><trkpt lat="46.201616465303545" lon="12.677750110185023"><ele>631.0</ele><time>2026-03-22T08:26:16Z</time></trkpt><trkpt lat="46.201616877554855" lon="12.677851607527662"><ele>631.0</ele><time>2026-03-22T08:26:17Z</time></trkpt><trkpt lat="46.20161825890912" lon="12.677962674398804"><ele>631.0</ele><time>2026-03-22T08:26:17.999Z</time></trkpt><trkpt lat="46.2016327748016" lon="12.67808473697591"><ele>631.1666666666667</ele><time>2026-03-22T08:26:18.999Z</time></trkpt><trkpt lat="46.201665237463814" lon="12.67821435170851"><ele>631.3333333333334</ele><time>2026-03-22T08:26:19.999Z</time></trkpt><trkpt lat="46.20169780501563" lon="12.67833956324926"><ele>631.5</ele><time>2026-03-22T08:26:20.999Z</time></trkpt><trkpt lat="46.201722658038534" lon="12.67845572345479"><ele>631.6666666666666</ele><time>2026-03-22T08:26:21.999Z</time></trkpt><trkpt lat="46.201738449112696" lon="12.678573607630582"><ele>631.8333333333333</ele><time>2026-03-22T08:26:22.999Z</time></trkpt><trkpt lat="46.201747618724184" lon="12.678688094977261"><ele>632.0</ele><time>2026-03-22T08:26:23.999Z</time></trkpt><trkpt lat="46.201755029054354" lon="12.678799010306472"><ele>630.1428571428572</ele><time>2026-03-22T08:26:24.999Z</time></trkpt><trkpt lat="46.20175636394762" lon="12.678908682594539"><ele>628.2857142857143</ele><time>2026-03-22T08:26:25.999Z</time></trkpt><trkpt lat="46.20175783172837" lon="12.67901557060811"><ele>626.4285714285714</ele><time>2026-03-22T08:26:26.999Z</time></trkpt><trkpt lat="46.20178433260703" lon="12.679115129374273"><ele>624.5714285714287</ele><time>2026-03-22T08:26:27.999Z</time></trkpt><trkpt lat="46.201819099900824" lon="12.679208729421767"><ele>622.7142857142858</ele><time>2026-03-22T08:26:28.999Z</time></trkpt><trkpt lat="46.20185740625114" lon="12.679295570220113"><ele>620.8571428571429</ele><time>2026-03-22T08:26:29.999Z</time></trkpt><trkpt lat="46.20189401807743" lon="12.679381688830183"><ele>619.0</ele><time>2026-03-22T08:26:30.999Z</time></trkpt><trkpt lat="46.20193876593687" lon="12.679525176848374"><ele>619.0</ele><time>2026-03-22T08:26:32.999Z</time></trkpt><trkpt lat="46.20185477628635" lon="12.679583646928698"><ele>619.0</ele><time>2026-03-22T08:26:34.999Z</time></trkpt><trkpt lat="46.201801935877505" lon="12.679521684081195"><ele>619.0</ele><time>2026-03-22T08:26:35.999Z</time></trkpt><trkpt lat="46.2017633213708" lon="12.67940018792867"><ele>619.0</ele><time>2026-03-22T08:26:36.999Z</time></trkpt><trkpt lat="46.201718742148024" lon="12.679320262379031"><ele>619.0</ele><time>2026-03-22T08:26:37.999Z</time></trkpt><trkpt lat="46.201613046017684" lon="12.679286451689014"><ele>619.0</ele><time>2026-03-22T08:26:39.999Z</time></trkpt><trkpt lat="46.201575141801364" lon="12.679427353558411"><ele>616.0</ele><time>2026-03-22T08:26:41.999Z</time></trkpt><trkpt lat="46.201623267903905" lon="12.679536455484335"><ele>613.0</ele><time>2026-03-22T08:26:42.999Z</time></trkpt><trkpt lat="46.20170448103684" lon="12.67965294045613"><ele>610.0</ele><time>2026-03-22T08:26:43.999Z</time></trkpt><trkpt lat="46.20176987679027" lon="12.679771896010394"><ele>607.0</ele><time>2026-03-22T08:26:44.999Z</time></trkpt><trkpt lat="46.20182587333146" lon="12.67989337991974"><ele>604.0</ele><time>2026-03-22T08:26:45.999Z</time></trkpt><trkpt lat="46.20188128647012" lon="12.680027805269601"><ele>604.0</ele><time>2026-03-22T08:26:46.999Z</time></trkpt><trkpt lat="46.201949051297824" lon="12.68015048979321"><ele>604.0</ele><time>2026-03-22T08:26:47.999Z</time></trkpt><trkpt lat="46.20201413967209" lon="12.680249602614849"><ele>604.0</ele><time>2026-03-22T08:26:48.999Z</time></trkpt><trkpt lat="46.20205148853806" lon="12.680330407648581"><ele>604.0</ele><time>2026-03-22T08:26:49.999Z</time></trkpt><trkpt lat="46.202032759848926" lon="12.680476162617007"><ele>604.0</ele><time>2026-03-22T08:26:51.999Z</time></trkpt><trkpt lat="46.20191057013226" lon="12.680438411628106"><ele>604.0</ele><time>2026-03-22T08:26:53.999Z</time></trkpt><trkpt lat="46.20182685511549" lon="12.680305383294039"><ele>604.0</ele><time>2026-03-22T08:26:54.999Z</time></trkpt><trkpt lat="46.20174235756115" lon="12.680192743601939"><ele>604.0</ele><time>2026-03-22T08:26:55.999Z</time></trkpt><trkpt lat="46.20166223778311" lon="12.680100556545689"><ele>604.0</ele><time>2026-03-22T08:26:56.999Z</time></trkpt><trkpt lat="46.201584679588244" lon="12.680014073858851"><ele>604.0</ele><time>2026-03-22T08:26:57.999Z</time></trkpt><trkpt lat="46.20151604280927" lon="12.67995647455414"><ele>604.0</ele><time>2026-03-22T08:26:58.999Z</time></trkpt><trkpt lat="46.2014101806643" lon="12.679942110747891"><ele>604.0</ele><time>2026-03-22T08:27:00.999Z</time></trkpt><trkpt lat="46.20139668226808" lon="12.6800885351486"><ele>604.0</ele><time>2026-03-22T08:27:02.999Z</time></trkpt><trkpt lat="46.2014672964225" lon="12.680172289740002"><ele>604.0</ele><time>2026-03-22T08:27:03.999Z</time></trkpt><trkpt lat="46.201572314476955" lon="12.6802563468397"><ele>604.0</ele><time>2026-03-22T08:27:04.999Z</time></trkpt><trkpt lat="46.20164929697797" lon="12.680344417748111"><ele>601.1666666666667</ele><time>2026-03-22T08:27:05.999Z</time></trkpt><trkpt lat="46.201707687689634" lon="12.680444781461494"><ele>598.3333333333334</ele><time>2026-03-22T08:27:06.999Z</time></trkpt><trkpt lat="46.20174220055069" lon="12.68053529228828"><ele>595.5</ele><time>2026-03-22T08:27:07.999Z</time></trkpt><trkpt lat="46.201721909685816" lon="12.680681460938894"><ele>592.6666666666666</ele><time>2026-03-22T08:27:09.999Z</time></trkpt><trkpt lat="46.20165890039489" lon="12.680714575272608"><ele>589.8333333333333</ele><time>2026-03-22T08:27:10.999Z</time></trkpt><trkpt lat="46.201584332629764" lon="12.680664245342005"><ele>587.0</ele><time>2026-03-22T08:27:11.999Z</time></trkpt><trkpt lat="46.20153701185956" lon="12.68055240358125"><ele>585.8571428571429</ele><time>2026-03-22T08:27:12.999Z</time></trkpt><trkpt lat="46.20148694324728" lon="12.680467377752038"><ele>584.7142857142858</ele><time>2026-03-22T08:27:13.999Z</time></trkpt><trkpt lat="46.20142536172255" lon="12.680425651291019"><ele>583.5714285714286</ele><time>2026-03-22T08:27:14.999Z</time></trkpt><trkpt lat="46.20135872302243" lon="12.680434925487937"><ele>582.4285714285714</ele><time>2026-03-22T08:27:15.999Z</time></trkpt><trkpt lat="46.201292176908915" lon="12.680485819125053"><ele>581.2857142857142</ele><time>2026-03-22T08:27:16.999Z</time></trkpt><trkpt lat="46.20124432744232" lon="12.680557379549803"><ele>580.1428571428571</ele><time>2026-03-22T08:27:17.999Z</time></trkpt><trkpt lat="46.20122871450535" lon="12.680648144961694"><ele>579.0</ele><time>2026-03-22T08:27:18.999Z</time></trkpt><trkpt lat="46.20123668481052" lon="12.68074541092882"><ele>579.0</ele><time>2026-03-22T08:27:19.999Z</time></trkpt><trkpt lat="46.20126746136101" lon="12.680838357760356"><ele>579.0</ele><time>2026-03-22T08:27:20.999Z</time></trkpt><trkpt lat="46.201316157305634" lon="12.68090693152551"><ele>579.0</ele><time>2026-03-22T08:27:21.999Z</time></trkpt><trkpt lat="46.201379737928995" lon="12.680940339486286"><ele>579.0</ele><time>2026-03-22T08:27:22.999Z</time></trkpt><trkpt lat="46.20147687879472" lon="12.680959607364082"><ele>579.0</ele><time>2026-03-22T08:27:23.999Z</time></trkpt><trkpt lat="46.20159650181963" lon="12.680987305296288"><ele>579.0</ele><time>2026-03-22T08:27:24.999Z</time></trkpt><trkpt lat="46.20171966939589" lon="12.68102473253969"><ele>578.6</ele><time>2026-03-22T08:27:25.999Z</time></trkpt><trkpt lat="46.20183023857396" lon="12.681064608972118"><ele>578.2</ele><time>2026-03-22T08:27:26.999Z</time></trkpt><trkpt lat="46.20193423045534" lon="12.68109857680905"><ele>577.8000000000001</ele><time>2026-03-22T08:27:27.999Z</time></trkpt><trkpt lat="46.202032645518166" lon="12.681134216246727"><ele>577.4</ele><time>2026-03-22T08:27:28.999Z</time></trkpt><trkpt lat="46.20211909533611" lon="12.681170477232403"><ele>577.0</ele><time>2026-03-22T08:27:29.999Z</time></trkpt><trkpt lat="46.202192021857904" lon="12.681213796392793"><ele>577.0</ele><time>2026-03-22T08:27:31Z</time></trkpt><trkpt lat="46.20224909284706" lon="12.681277036242438"><ele>577.0</ele><time>2026-03-22T08:27:32Z</time></trkpt><trkpt lat="46.202298504737115" lon="12.681372797325992"><ele>577.0</ele><time>2026-03-22T08:27:33Z</time></trkpt><trkpt lat="46.202334377894395" lon="12.681488902432356"><ele>577.0</ele><time>2026-03-22T08:27:34Z</time></trkpt><trkpt lat="46.202355879100075" lon="12.681618955579681"><ele>577.0</ele><time>2026-03-22T08:27:35Z</time></trkpt><trkpt lat="46.20236645291638" lon="12.681759150711175"><ele>577.0</ele><time>2026-03-22T08:27:36Z</time></trkpt><trkpt lat="46.202377675567774" lon="12.681898232845953"><ele>576.1666666666667</ele><time>2026-03-22T08:27:37Z</time></trkpt><trkpt lat="46.20239326958418" lon="12.682022994823502"><ele>575.3333333333334</ele><time>2026-03-22T08:27:38Z</time></trkpt><trkpt lat="46.20240697570712" lon="12.682143644436435"><ele>574.5</ele><time>2026-03-22T08:27:39Z</time></trkpt><trkpt lat="46.20242828297834" lon="12.68225498542133"><ele>573.6666666666666</ele><time>2026-03-22T08:27:40Z</time></trkpt><trkpt lat="46.20246519597573" lon="12.682364013583975"><ele>572.8333333333333</ele><time>2026-03-22T08:27:41Z</time></trkpt><trkpt lat="46.20251635153895" lon="12.682476097095885"><ele>572.0</ele><time>2026-03-22T08:27:42Z</time></trkpt><trkpt lat="46.20257618448707" lon="12.682583280375177"><ele>572.0</ele><time>2026-03-22T08:27:43Z</time></trkpt><trkpt lat="46.20263747199316" lon="12.682683689955805"><ele>572.0</ele><time>2026-03-22T08:27:44Z</time></trkpt><trkpt lat="46.202700849247485" lon="12.68278113809727"><ele>572.0</ele><time>2026-03-22T08:27:45Z</time></trkpt><trkpt lat="46.202766395413605" lon="12.682870779071884"><ele>572.0</ele><time>2026-03-22T08:27:46Z</time></trkpt><trkpt lat="46.20283788332718" lon="12.682947246370482"><ele>572.0</ele><time>2026-03-22T08:27:47Z</time></trkpt><trkpt lat="46.20291372519604" lon="12.683017946331356"><ele>571.8333333333333</ele><time>2026-03-22T08:27:48Z</time></trkpt><trkpt lat="46.20299114322284" lon="12.683088571936178"><ele>571.6666666666666</ele><time>2026-03-22T08:27:49Z</time></trkpt><trkpt lat="46.20306670370868" lon="12.683157799909553"><ele>571.5</ele><time>2026-03-22T08:27:50Z</time></trkpt><trkpt lat="46.203141634352356" lon="12.683225700392457"><ele>571.3333333333334</ele><time>2026-03-22T08:27:51Z</time></trkpt><trkpt lat="46.20321663781983" lon="12.683293238660626"><ele>571.1666666666667</ele><time>2026-03-22T08:27:52Z</time></trkpt><trkpt lat="46.20329291895413" lon="12.683359189975185"><ele>571.0</ele><time>2026-03-22T08:27:53Z</time></trkpt><trkpt lat="46.203367750554605" lon="12.683427151708996"><ele>571.0</ele><time>2026-03-22T08:27:54Z</time></trkpt><trkpt lat="46.20343964550648" lon="12.683497878536805"><ele>571.0</ele><time>2026-03-22T08:27:55Z</time></trkpt><trkpt lat="46.20350827081238" lon="12.683573973055074"><ele>571.0</ele><time>2026-03-22T08:27:56Z</time></trkpt><trkpt lat="46.20357623552961" lon="12.683649991898212"><ele>571.0</ele><time>2026-03-22T08:27:57Z</time></trkpt><trkpt lat="46.203642041497375" lon="12.683725675130653"><ele>571.0</ele><time>2026-03-22T08:27:58Z</time></trkpt><trkpt lat="46.203707823818725" lon="12.683802042036218"><ele>571.0</ele><time>2026-03-22T08:27:59Z</time></trkpt><trkpt lat="46.20377067530743" lon="12.68388221366098"><ele>566.3333333333334</ele><time>2026-03-22T08:28:00Z</time></trkpt><trkpt lat="46.203831056271866" lon="12.683960492416468"><ele>561.6666666666667</ele><time>2026-03-22T08:28:01Z</time></trkpt><trkpt lat="46.20388412681334" lon="12.68404444166932"><ele>557.0</ele><time>2026-03-22T08:28:02Z</time></trkpt><trkpt lat="46.20393160281322" lon="12.684121534212101"><ele>552.3333333333334</ele><time>2026-03-22T08:28:03Z</time></trkpt><trkpt lat="46.20393258446705" lon="12.684272220037672"><ele>547.6666666666666</ele><time>2026-03-22T08:28:05Z</time></trkpt><trkpt lat="46.203870574832905" lon="12.684306213853636"><ele>543.0</ele><time>2026-03-22T08:28:06Z</time></trkpt><trkpt lat="46.2038022943042" lon="12.684272861155666"><ele>543.0</ele><time>2026-03-22T08:28:07Z</time></trkpt><trkpt lat="46.203724982925905" lon="12.684167484688079"><ele>543.0</ele><time>2026-03-22T08:28:08Z</time></trkpt><trkpt lat="46.203657842728255" lon="12.684090703322221"><ele>543.0</ele><time>2026-03-22T08:28:09Z</time></trkpt><trkpt lat="46.20359222490764" lon="12.684072288328407"><ele>543.0</ele><time>2026-03-22T08:28:10Z</time></trkpt><trkpt lat="46.203533238516734" lon="12.684114553829033"><ele>543.0</ele><time>2026-03-22T08:28:11Z</time></trkpt><trkpt lat="46.20349745569094" lon="12.68419936625565"><ele>543.0</ele><time>2026-03-22T08:28:12Z</time></trkpt><trkpt lat="46.20347870013697" lon="12.684328336667537"><ele>540.1666666666666</ele><time>2026-03-22T08:28:13Z</time></trkpt><trkpt lat="46.203468175934994" lon="12.68444116373554"><ele>537.3333333333334</ele><time>2026-03-22T08:28:14Z</time></trkpt><trkpt lat="46.203468128832796" lon="12.684551163538284"><ele>534.5</ele><time>2026-03-22T08:28:15Z</time></trkpt><trkpt lat="46.203489682581775" lon="12.684652230094432"><ele>531.6666666666667</ele><time>2026-03-22T08:28:16Z</time></trkpt><trkpt lat="46.20353677122936" lon="12.684734545746986"><ele>528.8333333333334</ele><time>2026-03-22T08:28:17Z</time></trkpt><trkpt lat="46.20359910561932" lon="12.684799900301691"><ele>526.0</ele><time>2026-03-22T08:28:18Z</time></trkpt><trkpt lat="46.20366774291477" lon="12.684842981348236"><ele>526.0</ele><time>2026-03-22T08:28:19Z</time></trkpt><trkpt lat="46.20373939703026" lon="12.684878740593371"><ele>526.0</ele><time>2026-03-22T08:28:20Z</time></trkpt><trkpt lat="46.20379002288952" lon="12.6849445693515"><ele>526.0</ele><time>2026-03-22T08:28:21Z</time></trkpt><trkpt lat="46.20376853646725" lon="12.685087361988854"><ele>526.0</ele><time>2026-03-22T08:28:22.999Z</time></trkpt><trkpt lat="46.20363894776732" lon="12.685072537024064"><ele>526.0</ele><time>2026-03-22T08:28:24.999Z</time></trkpt><trkpt lat="46.20354034038568" lon="12.684978596494462"><ele>526.0</ele><time>2026-03-22T08:28:25.999Z</time></trkpt><trkpt lat="46.2034525322611" lon="12.684909977047791"><ele>526.0</ele><time>2026-03-22T08:28:26.999Z</time></trkpt><trkpt lat="46.203375717444644" lon="12.684862001571116"><ele>526.0</ele><time>2026-03-22T08:28:27.999Z</time></trkpt><trkpt lat="46.20327416450335" lon="12.684878455655731"><ele>526.0</ele><time>2026-03-22T08:28:29.999Z</time></trkpt><trkpt lat="46.2032823492223" lon="12.685039701885785"><ele>526.0</ele><time>2026-03-22T08:28:31.999Z</time></trkpt><trkpt lat="46.203365042762044" lon="12.685136973244969"><ele>526.0</ele><time>2026-03-22T08:28:32.999Z</time></trkpt><trkpt lat="46.203481490612795" lon="12.685245330870199"><ele>526.0</ele><time>2026-03-22T08:28:33.999Z</time></trkpt><trkpt lat="46.20357663422089" lon="12.685349588589034"><ele>526.0</ele><time>2026-03-22T08:28:34.999Z</time></trkpt><trkpt lat="46.203658682007195" lon="12.685448697995385"><ele>526.0</ele><time>2026-03-22T08:28:35.999Z</time></trkpt><trkpt lat="46.20372789555154" lon="12.685517030421831"><ele>526.0</ele><time>2026-03-22T08:28:36.999Z</time></trkpt><trkpt lat="46.203795846661855" lon="12.68555046653203"><ele>524.2</ele><time>2026-03-22T08:28:37.999Z</time></trkpt><trkpt lat="46.20387473800214" lon="12.68555015351407"><ele>522.4000000000001</ele><time>2026-03-22T08:28:38.999Z</time></trkpt><trkpt lat="46.20397976970933" lon="12.68550602476812"><ele>520.6</ele><time>2026-03-22T08:28:39.999Z</time></trkpt><trkpt lat="46.20410361448877" lon="12.685430545948646"><ele>518.8000000000001</ele><time>2026-03-22T08:28:40.999Z</time></trkpt><trkpt lat="46.20421184669257" lon="12.685368801229789"><ele>517.0</ele><time>2026-03-22T08:28:41.999Z</time></trkpt><trkpt lat="46.20430910622689" lon="12.685320434470482"><ele>517.0</ele><time>2026-03-22T08:28:42.999Z</time></trkpt><trkpt lat="46.204393481205535" lon="12.685280455062008"><ele>517.0</ele><time>2026-03-22T08:28:43.999Z</time></trkpt><trkpt lat="46.20446969208502" lon="12.685266176703704"><ele>517.0</ele><time>2026-03-22T08:28:44.999Z</time></trkpt><trkpt lat="46.204545069447654" lon="12.685295142362664"><ele>517.0</ele><time>2026-03-22T08:28:45.999Z</time></trkpt><trkpt lat="46.20462176769592" lon="12.68537453249332"><ele>517.0</ele><time>2026-03-22T08:28:46.999Z</time></trkpt><trkpt lat="46.20468217043523" lon="12.685494740186689"><ele>517.0</ele><time>2026-03-22T08:28:47.999Z</time></trkpt><trkpt lat="46.20473552047434" lon="12.685662047951627"><ele>517.0</ele><time>2026-03-22T08:28:48.999Z</time></trkpt><trkpt lat="46.20477202772346" lon="12.685842232674743"><ele>517.0</ele><time>2026-03-22T08:28:49.999Z</time></trkpt><trkpt lat="46.20478958727069" lon="12.685998078386612"><ele>517.0</ele><time>2026-03-22T08:28:50.999Z</time></trkpt><trkpt lat="46.20478842355199" lon="12.68614705043328"><ele>517.0</ele><time>2026-03-22T08:28:51.999Z</time></trkpt><trkpt lat="46.20476594433556" lon="12.68629695906985"><ele>517.0</ele><time>2026-03-22T08:28:52.999Z</time></trkpt><trkpt lat="46.20474438811323" lon="12.686453222163347"><ele>518.4</ele><time>2026-03-22T08:28:53.999Z</time></trkpt><trkpt lat="46.20475096777016" lon="12.686602338007562"><ele>519.8000000000001</ele><time>2026-03-22T08:28:54.999Z</time></trkpt><trkpt lat="46.20478596009811" lon="12.686742092713098"><ele>521.2</ele><time>2026-03-22T08:28:55.999Z</time></trkpt><trkpt lat="46.204837237104705" lon="12.6868703621185"><ele>522.6</ele><time>2026-03-22T08:28:56.999Z</time></trkpt><trkpt lat="46.20488868888248" lon="12.686998074571223"><ele>524.0</ele><time>2026-03-22T08:28:57.999Z</time></trkpt><trkpt lat="46.204919787470196" lon="12.687112111410604"><ele>524.0</ele><time>2026-03-22T08:28:58.999Z</time></trkpt><trkpt lat="46.20493714618408" lon="12.687217069191894"><ele>524.0</ele><time>2026-03-22T08:28:59.999Z</time></trkpt><trkpt lat="46.204956448387094" lon="12.687322688714715"><ele>524.0</ele><time>2026-03-22T08:29:00.999Z</time></trkpt><trkpt lat="46.204999925768504" lon="12.687412536805615"><ele>524.0</ele><time>2026-03-22T08:29:01.999Z</time></trkpt><trkpt lat="46.205078967638656" lon="12.687502469916305"><ele>524.0</ele><time>2026-03-22T08:29:02.999Z</time></trkpt><trkpt lat="46.20519261052584" lon="12.687579688123103"><ele>524.0</ele><time>2026-03-22T08:29:03.999Z</time></trkpt><trkpt lat="46.2053032545358" lon="12.687644620513074"><ele>524.0</ele><time>2026-03-22T08:29:04.999Z</time></trkpt><trkpt lat="46.205382156317235" lon="12.687712500827043"><ele>524.0</ele><time>2026-03-22T08:29:05.999Z</time></trkpt><trkpt lat="46.205416198989994" lon="12.687801160441854"><ele>524.0</ele><time>2026-03-22T08:29:06.999Z</time></trkpt><trkpt lat="46.205418633888634" lon="12.68789616914543"><ele>524.0</ele><time>2026-03-22T08:29:07.999Z</time></trkpt><trkpt lat="46.20540633660156" lon="12.68803916966942"><ele>524.0</ele><time>2026-03-22T08:29:08.999Z</time></trkpt><trkpt lat="46.20540605888648" lon="12.688203292695192"><ele>523.75</ele><time>2026-03-22T08:29:09.999Z</time></trkpt><trkpt lat="46.205432344352054" lon="12.68833127530687"><ele>523.5</ele><time>2026-03-22T08:29:10.999Z</time></trkpt><trkpt lat="46.205493319945155" lon="12.688503819531196"><ele>523.25</ele><time>2026-03-22T08:29:11.999Z</time></trkpt><trkpt lat="46.2055638660469" lon="12.688709813643715"><ele>523.0</ele><time>2026-03-22T08:29:12.999Z</time></trkpt><trkpt lat="46.20560900780773" lon="12.688887927570617"><ele>523.0</ele><time>2026-03-22T08:29:13.999Z</time></trkpt><trkpt lat="46.20563683767665" lon="12.689040866923163"><ele>523.0</ele><time>2026-03-22T08:29:14.999Z</time></trkpt><trkpt lat="46.2056636664833" lon="12.689170696668562"><ele>523.0</ele><time>2026-03-22T08:29:15.999Z</time></trkpt><trkpt lat="46.20571540159683" lon="12.689269884807697"><ele>523.0</ele><time>2026-03-22T08:29:16.999Z</time></trkpt><trkpt lat="46.20579606013125" lon="12.689369110472247"><ele>523.0</ele><time>2026-03-22T08:29:17.999Z</time></trkpt><trkpt lat="46.20587929146436" lon="12.689487304270187"><ele>527.0</ele><time>2026-03-22T08:29:18.999Z</time></trkpt><trkpt lat="46.20593878087074" lon="12.689619044366642"><ele>531.0</ele><time>2026-03-22T08:29:19.999Z</time></trkpt><trkpt lat="46.20600990926676" lon="12.689778992101015"><ele>535.0</ele><time>2026-03-22T08:29:20.999Z</time></trkpt><trkpt lat="46.2061210643806" lon="12.689931029084995"><ele>539.0</ele><time>2026-03-22T08:29:21.999Z</time></trkpt><trkpt lat="46.206274891976165" lon="12.69009046439956"><ele>539.0</ele><time>2026-03-22T08:29:22.999Z</time></trkpt><trkpt lat="46.20640802628494" lon="12.69022349104836"><ele>539.0</ele><time>2026-03-22T08:29:23.999Z</time></trkpt><trkpt lat="46.20649992090746" lon="12.690354724723143"><ele>539.0</ele><time>2026-03-22T08:29:24.999Z</time></trkpt><trkpt lat="46.206577093592706" lon="12.690480573643299"><ele>539.0</ele><time>2026-03-22T08:29:25.999Z</time></trkpt><trkpt lat="46.20665135332605" lon="12.69057545836834"><ele>540.6</ele><time>2026-03-22T08:29:26.999Z</time></trkpt><trkpt lat="46.20674496449018" lon="12.690652006940848"><ele>542.2</ele><time>2026-03-22T08:29:27.999Z</time></trkpt><trkpt lat="46.20686064554099" lon="12.690748426195192"><ele>543.8000000000001</ele><time>2026-03-22T08:29:28.999Z</time></trkpt><trkpt lat="46.2069477517062" lon="12.69084084727214"><ele>545.4</ele><time>2026-03-22T08:29:29.999Z</time></trkpt><trkpt lat="46.20702064136096" lon="12.690935021480614"><ele>547.0</ele><time>2026-03-22T08:29:30.999Z</time></trkpt><trkpt lat="46.20708639805209" lon="12.691012774944797"><ele>547.0</ele><time>2026-03-22T08:29:31.999Z</time></trkpt><trkpt lat="46.20713840802328" lon="12.691087219358122"><ele>547.0</ele><time>2026-03-22T08:29:32.999Z</time></trkpt><trkpt lat="46.207191369422816" lon="12.691159351636601"><ele>547.0</ele><time>2026-03-22T08:29:34.999Z</time></trkpt><trkpt lat="46.20723548093539" lon="12.69127041151798"><ele>547.0</ele><time>2026-03-22T08:29:38Z</time></trkpt><trkpt lat="46.20724588073985" lon="12.691407463045199"><ele>547.0</ele><time>2026-03-22T08:29:40Z</time></trkpt><trkpt lat="46.20720460874465" lon="12.691574867609328"><ele>546.3333333333334</ele><time>2026-03-22T08:29:42Z</time></trkpt><trkpt lat="46.207166457575454" lon="12.691681085367694"><ele>545.6666666666667</ele><time>2026-03-22T08:29:43Z</time></trkpt><trkpt lat="46.2071354824739" lon="12.691790913591712"><ele>545.0</ele><time>2026-03-22T08:29:44Z</time></trkpt><trkpt lat="46.207105376634935" lon="12.691891997165058"><ele>544.3333333333334</ele><time>2026-03-22T08:29:45Z</time></trkpt><trkpt lat="46.20707269505077" lon="12.691984267740581"><ele>543.6666666666666</ele><time>2026-03-22T08:29:46Z</time></trkpt><trkpt lat="46.20702961603499" lon="12.69207519673362"><ele>543.0</ele><time>2026-03-22T08:29:47Z</time></trkpt><trkpt lat="46.20697362958045" lon="12.692188554603417"><ele>543.0</ele><time>2026-03-22T08:29:48Z</time></trkpt><trkpt lat="46.20690794681804" lon="12.692304178694867"><ele>543.0</ele><time>2026-03-22T08:29:49Z</time></trkpt><trkpt lat="46.206837166237335" lon="12.69242656149627"><ele>543.0</ele><time>2026-03-22T08:29:50Z</time></trkpt><trkpt lat="46.206759185157615" lon="12.69255927389553"><ele>543.0</ele><time>2026-03-22T08:29:51Z</time></trkpt><trkpt lat="46.206695564939906" lon="12.692677279472907"><ele>543.0</ele><time>2026-03-22T08:29:52Z</time></trkpt><trkpt lat="46.20663576203094" lon="12.692773838601358"><ele>542.6666666666666</ele><time>2026-03-22T08:29:53Z</time></trkpt><trkpt lat="46.20658204393936" lon="12.692861125687203"><ele>542.3333333333334</ele><time>2026-03-22T08:29:54Z</time></trkpt><trkpt lat="46.20653152599876" lon="12.692944942865628"><ele>542.0</ele><time>2026-03-22T08:29:55Z</time></trkpt><trkpt lat="46.20648527782742" lon="12.693035469679444"><ele>541.6666666666667</ele><time>2026-03-22T08:29:56Z</time></trkpt><trkpt lat="46.20644383947436" lon="12.69312293997598"><ele>541.3333333333334</ele><time>2026-03-22T08:29:57Z</time></trkpt><trkpt lat="46.206415363434886" lon="12.693221518121232"><ele>541.0</ele><time>2026-03-22T08:29:58Z</time></trkpt><trkpt lat="46.206401516537746" lon="12.693333898392035"><ele>538.4</ele><time>2026-03-22T08:29:59Z</time></trkpt><trkpt lat="46.20639998867385" lon="12.69347066112386"><ele>535.8</ele><time>2026-03-22T08:30:00Z</time></trkpt><trkpt lat="46.206412013386235" lon="12.693595625372978"><ele>533.1999999999999</ele><time>2026-03-22T08:30:01Z</time></trkpt><trkpt lat="46.206430187952705" lon="12.69372626554099"><ele>530.6</ele><time>2026-03-22T08:30:02Z</time></trkpt><trkpt lat="46.20643361626963" lon="12.693862944733793"><ele>528.0</ele><time>2026-03-22T08:30:03Z</time></trkpt><trkpt lat="46.20641461030019" lon="12.694005075299904"><ele>528.0</ele><time>2026-03-22T08:30:04Z</time></trkpt><trkpt lat="46.206378168809856" lon="12.69416983642782"><ele>528.0</ele><time>2026-03-22T08:30:05Z</time></trkpt><trkpt lat="46.20633729234041" lon="12.694324957553723"><ele>528.0</ele><time>2026-03-22T08:30:06Z</time></trkpt><trkpt lat="46.20630870653728" lon="12.694460348553246"><ele>528.0</ele><time>2026-03-22T08:30:07Z</time></trkpt><trkpt lat="46.20630204835607" lon="12.694593674207502"><ele>528.0</ele><time>2026-03-22T08:30:08Z</time></trkpt><trkpt lat="46.206303544363294" lon="12.694743745369909"><ele>529.0</ele><time>2026-03-22T08:30:09Z</time></trkpt><trkpt lat="46.20631993196674" lon="12.694896276451193"><ele>530.0</ele><time>2026-03-22T08:30:10Z</time></trkpt><trkpt lat="46.20634642933742" lon="12.695035404849868"><ele>531.0</ele><time>2026-03-22T08:30:11Z</time></trkpt><trkpt lat="46.2063663609021" lon="12.695151869591461"><ele>532.0</ele><time>2026-03-22T08:30:12Z</time></trkpt><trkpt lat="46.20637869927358" lon="12.695250660404453"><ele>533.0</ele><time>2026-03-22T08:30:13Z</time></trkpt><trkpt lat="46.20638302161652" lon="12.69535795642707"><ele>534.0</ele><time>2026-03-22T08:30:14Z</time></trkpt><trkpt lat="46.2063671860176" lon="12.695474428530343"><ele>537.25</ele><time>2026-03-22T08:30:15Z</time></trkpt><trkpt lat="46.206327867651304" lon="12.695651277740714"><ele>540.5</ele><time>2026-03-22T08:30:16Z</time></trkpt><trkpt lat="46.2062868760548" lon="12.695866874383873"><ele>543.75</ele><time>2026-03-22T08:30:17Z</time></trkpt><trkpt lat="46.20625189935723" lon="12.696096611215491"><ele>547.0</ele><time>2026-03-22T08:30:18Z</time></trkpt><trkpt lat="46.20622359126092" lon="12.696325819822448"><ele>546.4</ele><time>2026-03-22T08:30:19Z</time></trkpt><trkpt lat="46.20619947495729" lon="12.69651883491015"><ele>545.8000000000001</ele><time>2026-03-22T08:30:20Z</time></trkpt><trkpt lat="46.20617160755952" lon="12.69666749780894"><ele>545.2</ele><time>2026-03-22T08:30:21Z</time></trkpt><trkpt lat="46.206137140165346" lon="12.696792510422483"><ele>544.6</ele><time>2026-03-22T08:30:22Z</time></trkpt><trkpt lat="46.2060913192446" lon="12.696898327998207"><ele>544.0</ele><time>2026-03-22T08:30:23Z</time></trkpt><trkpt lat="46.206039921233916" lon="12.696994818729937"><ele>544.0</ele><time>2026-03-22T08:30:24Z</time></trkpt><trkpt lat="46.20596673176446" lon="12.69710815516408"><ele>544.0</ele><time>2026-03-22T08:30:25Z</time></trkpt><trkpt lat="46.20588084591888" lon="12.697238389851531"><ele>544.0</ele><time>2026-03-22T08:30:26Z</time></trkpt><trkpt lat="46.2058037694126" lon="12.697360066820238"><ele>544.0</ele><time>2026-03-22T08:30:27Z</time></trkpt><trkpt lat="46.20573991308466" lon="12.69746725830026"><ele>544.0</ele><time>2026-03-22T08:30:28Z</time></trkpt><trkpt lat="46.205690601941086" lon="12.697569913193554"><ele>543.3333333333334</ele><time>2026-03-22T08:30:29Z</time></trkpt><trkpt lat="46.20565762460691" lon="12.697676064340355"><ele>542.6666666666667</ele><time>2026-03-22T08:30:30Z</time></trkpt><trkpt lat="46.2056441374196" lon="12.697794348140366"><ele>542.0</ele><time>2026-03-22T08:30:31Z</time></trkpt><trkpt lat="46.20565635844743" lon="12.69789901469374"><ele>541.3333333333334</ele><time>2026-03-22T08:30:32Z</time></trkpt><trkpt lat="46.2056819027363" lon="12.6980302182338"><ele>540.6666666666666</ele><time>2026-03-22T08:30:33Z</time></trkpt><trkpt lat="46.20569998304484" lon="12.698150878606237"><ele>540.0</ele><time>2026-03-22T08:30:34Z</time></trkpt><trkpt lat="46.20571142891875" lon="12.698260963429579"><ele>540.0</ele><time>2026-03-22T08:30:34.999Z</time></trkpt><trkpt lat="46.20571035300964" lon="12.698356303288113"><ele>540.0</ele><time>2026-03-22T08:30:35.999Z</time></trkpt><trkpt lat="46.20572418965949" lon="12.698530751040938"><ele>540.0</ele><time>2026-03-22T08:30:37.999Z</time></trkpt><trkpt lat="46.20573178679527" lon="12.698623416548534"><ele>540.0</ele><time>2026-03-22T08:30:38.999Z</time></trkpt><trkpt lat="46.205734505066744" lon="12.698785680918666"><ele>540.0</ele><time>2026-03-22T08:30:40.999Z</time></trkpt><trkpt lat="46.20574202417954" lon="12.698963224394044"><ele>541.5</ele><time>2026-03-22T08:30:42.999Z</time></trkpt><trkpt lat="46.20575821388078" lon="12.699133829509146"><ele>543.0</ele><time>2026-03-22T08:30:44.999Z</time></trkpt><trkpt lat="46.205768589664444" lon="12.699316859827524"><ele>544.5</ele><time>2026-03-22T08:30:46.999Z</time></trkpt><trkpt lat="46.20578547552187" lon="12.699474479015638"><ele>546.0</ele><time>2026-03-22T08:30:48.999Z</time></trkpt><trkpt lat="46.20583398349352" lon="12.699623367107332"><ele>547.4</ele><time>2026-03-22T08:30:50.999Z</time></trkpt><trkpt lat="46.20592595030074" lon="12.69975027068419"><ele>548.8</ele><time>2026-03-22T08:30:52.999Z</time></trkpt><trkpt lat="46.20601022556724" lon="12.699860163065493"><ele>550.1999999999999</ele><time>2026-03-22T08:30:54.999Z</time></trkpt><trkpt lat="46.20611019372443" lon="12.699957757828235"><ele>551.6</ele><time>2026-03-22T08:30:56.999Z</time></trkpt><trkpt lat="46.20616578641819" lon="12.700004307183452"><ele>553.0</ele><time>2026-03-22T08:30:57.999Z</time></trkpt><trkpt lat="46.206230307496085" lon="12.700057890531179"><ele>553.0</ele><time>2026-03-22T08:30:58.999Z</time></trkpt><trkpt lat="46.20629185219327" lon="12.700117517660988"><ele>553.0</ele><time>2026-03-22T08:30:59.999Z</time></trkpt><trkpt lat="46.20634723429489" lon="12.700173262984517"><ele>553.0</ele><time>2026-03-22T08:31:00.999Z</time></trkpt><trkpt lat="46.20639033775761" lon="12.70024185849667"><ele>553.0</ele><time>2026-03-22T08:31:01.999Z</time></trkpt><trkpt lat="46.20642521309179" lon="12.700323448886664"><ele>553.0</ele><time>2026-03-22T08:31:02.999Z</time></trkpt><trkpt lat="46.20645414666459" lon="12.700423251828278"><ele>553.0</ele><time>2026-03-22T08:31:03.999Z</time></trkpt><trkpt lat="46.20649547021155" lon="12.70052539523151"><ele>553.0</ele><time>2026-03-22T08:31:04.999Z</time></trkpt><trkpt lat="46.20655514698584" lon="12.700616156815746"><ele>550.5</ele><time>2026-03-22T08:31:05.999Z</time></trkpt><trkpt lat="46.20663421901333" lon="12.700698856117562"><ele>548.0</ele><time>2026-03-22T08:31:06.999Z</time></trkpt><trkpt lat="46.20673784502097" lon="12.700756774216664"><ele>545.5</ele><time>2026-03-22T08:31:07.999Z</time></trkpt><trkpt lat="46.206864762393" lon="12.700785249022244"><ele>543.0</ele><time>2026-03-22T08:31:08.999Z</time></trkpt><trkpt lat="46.20702342239337" lon="12.700837628582358"><ele>543.0</ele><time>2026-03-22T08:31:09.999Z</time></trkpt><trkpt lat="46.20715879978822" lon="12.700888741755668"><ele>543.0</ele><time>2026-03-22T08:31:10.999Z</time></trkpt><trkpt lat="46.20727600747552" lon="12.700927457389659"><ele>543.0</ele><time>2026-03-22T08:31:11.999Z</time></trkpt><trkpt lat="46.20738058355298" lon="12.700961466340374"><ele>543.0</ele><time>2026-03-22T08:31:12.999Z</time></trkpt><trkpt lat="46.207480877329836" lon="12.700987141137126"><ele>543.25</ele><time>2026-03-22T08:31:13.999Z</time></trkpt><trkpt lat="46.207584579428975" lon="12.701032931858967"><ele>543.5</ele><time>2026-03-22T08:31:14.999Z</time></trkpt><trkpt lat="46.2076952699207" lon="12.701092976047471"><ele>543.75</ele><time>2026-03-22T08:31:15.999Z</time></trkpt><trkpt lat="46.207814638398666" lon="12.701170570487713"><ele>544.0</ele><time>2026-03-22T08:31:16.999Z</time></trkpt><trkpt lat="46.207926237229294" lon="12.701261156968819"><ele>544.0</ele><time>2026-03-22T08:31:17.999Z</time></trkpt><trkpt lat="46.20803071947563" lon="12.70135776738683"><ele>544.0</ele><time>2026-03-22T08:31:18.999Z</time></trkpt><trkpt lat="46.208133376501614" lon="12.701472939857526"><ele>544.0</ele><time>2026-03-22T08:31:19.999Z</time></trkpt><trkpt lat="46.2082312358687" lon="12.701605925395594"><ele>544.0</ele><time>2026-03-22T08:31:20.999Z</time></trkpt><trkpt lat="46.20831538837516" lon="12.701730541262624"><ele>544.0</ele><time>2026-03-22T08:31:21.999Z</time></trkpt><trkpt lat="46.208384746692566" lon="12.701862135489588"><ele>544.0</ele><time>2026-03-22T08:31:22.999Z</time></trkpt><trkpt lat="46.208441681856634" lon="12.701996103310135"><ele>544.0</ele><time>2026-03-22T08:31:23.999Z</time></trkpt><trkpt lat="46.20849514290731" lon="12.702131590207136"><ele>544.0</ele><time>2026-03-22T08:31:24.999Z</time></trkpt><trkpt lat="46.208553857274886" lon="12.702264065652425"><ele>544.0</ele><time>2026-03-22T08:31:25.999Z</time></trkpt><trkpt lat="46.20862935715692" lon="12.70237956572447"><ele>544.0</ele><time>2026-03-22T08:31:26.999Z</time></trkpt><trkpt lat="46.208713629878346" lon="12.702477161341394"><ele>544.0</ele><time>2026-03-22T08:31:27.999Z</time></trkpt><trkpt lat="46.208794630453106" lon="12.702555734710655"><ele>544.0</ele><time>2026-03-22T08:31:28.999Z</time></trkpt><trkpt lat="46.20885195870077" lon="12.702616895120693"><ele>544.0</ele><time>2026-03-22T08:31:29.999Z</time></trkpt><trkpt lat="46.20890106533889" lon="12.702711207350049"><ele>544.0</ele><time>2026-03-22T08:31:30.999Z</time></trkpt><trkpt lat="46.20894958531284" lon="12.702823791644475"><ele>541.5</ele><time>2026-03-22T08:31:31.999Z</time></trkpt><trkpt lat="46.209021231502945" lon="12.702904719125492"><ele>539.0</ele><time>2026-03-22T08:31:32.999Z</time></trkpt><trkpt lat="46.209095595946316" lon="12.702963895972113"><ele>536.5</ele><time>2026-03-22T08:31:33.999Z</time></trkpt><trkpt lat="46.20918130518782" lon="12.703005320279095"><ele>534.0</ele><time>2026-03-22T08:31:34.999Z</time></trkpt><trkpt lat="46.20926699423486" lon="12.703004500410719"><ele>531.5</ele><time>2026-03-22T08:31:35.999Z</time></trkpt><trkpt lat="46.20935410812931" lon="12.703010043986387"><ele>529.0</ele><time>2026-03-22T08:31:36.999Z</time></trkpt><trkpt lat="46.20943715143624" lon="12.70303984859229"><ele>529.0</ele><time>2026-03-22T08:31:37.999Z</time></trkpt><trkpt lat="46.20952991981003" lon="12.703102781831078"><ele>529.0</ele><time>2026-03-22T08:31:38.999Z</time></trkpt><trkpt lat="46.20962071328766" lon="12.703162061394742"><ele>529.0</ele><time>2026-03-22T08:31:39.999Z</time></trkpt><trkpt lat="46.20972349119982" lon="12.703214271469813"><ele>529.0</ele><time>2026-03-22T08:31:40.999Z</time></trkpt><trkpt lat="46.209821852223584" lon="12.703255844837718"><ele>529.0</ele><time>2026-03-22T08:31:41.999Z</time></trkpt><trkpt lat="46.20992328528368" lon="12.703293518702457"><ele>524.2</ele><time>2026-03-22T08:31:43Z</time></trkpt><trkpt lat="46.21002511512421" lon="12.703326281546635"><ele>519.4</ele><time>2026-03-22T08:31:44Z</time></trkpt><trkpt lat="46.21013201432234" lon="12.703347402854323"><ele>514.6</ele><time>2026-03-22T08:31:45Z</time></trkpt><trkpt lat="46.210239822959046" lon="12.703364949112618"><ele>509.8</ele><time>2026-03-22T08:31:46Z</time></trkpt><trkpt lat="46.210348062600076" lon="12.703378780970219"><ele>505.0</ele><time>2026-03-22T08:31:47Z</time></trkpt><trkpt lat="46.210433071542674" lon="12.703403063450915"><ele>505.00000000000006</ele><time>2026-03-22T08:31:48Z</time></trkpt><trkpt lat="46.21049977332231" lon="12.7034423869312"><ele>505.0</ele><time>2026-03-22T08:31:49Z</time></trkpt><trkpt lat="46.21057053953613" lon="12.703505376662413"><ele>505.0</ele><time>2026-03-22T08:31:50Z</time></trkpt><trkpt lat="46.210635439650694" lon="12.703585139051938"><ele>505.0</ele><time>2026-03-22T08:31:51Z</time></trkpt><trkpt lat="46.21070243674479" lon="12.703676068966454"><ele>505.00000000000006</ele><time>2026-03-22T08:31:52Z</time></trkpt><trkpt lat="46.21076184631294" lon="12.70377511609498"><ele>505.0</ele><time>2026-03-22T08:31:53Z</time></trkpt><trkpt lat="46.210806210418745" lon="12.703893131916132"><ele>503.8</ele><time>2026-03-22T08:31:54Z</time></trkpt><trkpt lat="46.210840396543624" lon="12.704021590650912"><ele>502.6</ele><time>2026-03-22T08:31:55Z</time></trkpt><trkpt lat="46.21087792614618" lon="12.704147894007146"><ele>501.4</ele><time>2026-03-22T08:31:56Z</time></trkpt><trkpt lat="46.210931249932905" lon="12.704258936344072"><ele>500.2</ele><time>2026-03-22T08:31:57Z</time></trkpt><trkpt lat="46.21099192883105" lon="12.70434506865444"><ele>499.0</ele><time>2026-03-22T08:31:58Z</time></trkpt><trkpt lat="46.21105923225921" lon="12.704409334164904"><ele>501.4</ele><time>2026-03-22T08:31:59Z</time></trkpt><trkpt lat="46.211132952689134" lon="12.704448191140559"><ele>503.79999999999995</ele><time>2026-03-22T08:32:00Z</time></trkpt><trkpt lat="46.21119884729152" lon="12.704478246957676"><ele>506.20000000000005</ele><time>2026-03-22T08:32:01Z</time></trkpt><trkpt lat="46.21131468858002" lon="12.704591355232447"><ele>508.6</ele><time>2026-03-22T08:32:03Z</time></trkpt><trkpt lat="46.21136267302368" lon="12.704691237447713"><ele>511.0</ele><time>2026-03-22T08:32:04Z</time></trkpt><trkpt lat="46.21140292981067" lon="12.704826449877919"><ele>511.0</ele><time>2026-03-22T08:32:05Z</time></trkpt><trkpt lat="46.211457799210805" lon="12.705018217238441"><ele>511.0</ele><time>2026-03-22T08:32:06Z</time></trkpt><trkpt lat="46.21152685809605" lon="12.705207720002589"><ele>511.0</ele><time>2026-03-22T08:32:07Z</time></trkpt><trkpt lat="46.211602485967816" lon="12.705373138458112"><ele>511.0</ele><time>2026-03-22T08:32:08Z</time></trkpt><trkpt lat="46.2116716610853" lon="12.705526167707974"><ele>507.8</ele><time>2026-03-22T08:32:09Z</time></trkpt><trkpt lat="46.211731187836776" lon="12.705672282825809"><ele>504.6</ele><time>2026-03-22T08:32:10Z</time></trkpt><trkpt lat="46.21178170326858" lon="12.705809543655008"><ele>501.4</ele><time>2026-03-22T08:32:11Z</time></trkpt><trkpt lat="46.211845199353036" lon="12.70592847097783"><ele>498.2</ele><time>2026-03-22T08:32:12Z</time></trkpt><trkpt lat="46.21192616076309" lon="12.706039258761187"><ele>495.0</ele><time>2026-03-22T08:32:13Z</time></trkpt><trkpt lat="46.21201581911521" lon="12.706147240664219"><ele>495.0</ele><time>2026-03-22T08:32:14Z</time></trkpt><trkpt lat="46.21212937221807" lon="12.706247638969373"><ele>495.0</ele><time>2026-03-22T08:32:15Z</time></trkpt><trkpt lat="46.21228196961098" lon="12.706355588442081"><ele>495.0</ele><time>2026-03-22T08:32:16Z</time></trkpt><trkpt lat="46.21243028503246" lon="12.706435178197315"><ele>491.2</ele><time>2026-03-22T08:32:17Z</time></trkpt><trkpt lat="46.21256366112854" lon="12.706489212616853"><ele>487.4</ele><time>2026-03-22T08:32:18Z</time></trkpt><trkpt lat="46.212680595552655" lon="12.706514602653561"><ele>483.6</ele><time>2026-03-22T08:32:19Z</time></trkpt><trkpt lat="46.21276695595993" lon="12.706553645846816"><ele>479.8</ele><time>2026-03-22T08:32:20Z</time></trkpt><trkpt lat="46.21283432353633" lon="12.706620661215684"><ele>476.0</ele><time>2026-03-22T08:32:21Z</time></trkpt><trkpt lat="46.21288617844582" lon="12.706704253943098"><ele>476.0</ele><time>2026-03-22T08:32:22Z</time></trkpt><trkpt lat="46.21293441566018" lon="12.706839215168742"><ele>476.0</ele><time>2026-03-22T08:32:23Z</time></trkpt><trkpt lat="46.212973686152544" lon="12.707000346795562"><ele>476.0</ele><time>2026-03-22T08:32:24Z</time></trkpt><trkpt lat="46.2130018769867" lon="12.707094621836402"><ele>476.0</ele><time>2026-03-22T08:32:25Z</time></trkpt><trkpt lat="46.21313140557884" lon="12.70714982421502"><ele>476.0</ele><time>2026-03-22T08:32:27Z</time></trkpt><trkpt lat="46.21323381767412" lon="12.70716780071424"><ele>476.8333333333333</ele><time>2026-03-22T08:32:28Z</time></trkpt><trkpt lat="46.213307903669275" lon="12.707181671222097"><ele>477.66666666666663</ele><time>2026-03-22T08:32:29Z</time></trkpt><trkpt lat="46.213368788585576" lon="12.707214397805162"><ele>478.5</ele><time>2026-03-22T08:32:30Z</time></trkpt><trkpt lat="46.21341992518185" lon="12.7072741745604"><ele>479.33333333333337</ele><time>2026-03-22T08:32:31Z</time></trkpt><trkpt lat="46.21345621648976" lon="12.707351744186345"><ele>480.1666666666667</ele><time>2026-03-22T08:32:32Z</time></trkpt><trkpt lat="46.21352866717921" lon="12.707489337876693"><ele>481.0</ele><time>2026-03-22T08:32:34Z</time></trkpt><trkpt lat="46.21357340490218" lon="12.70757060318109"><ele>481.00000000000006</ele><time>2026-03-22T08:32:35Z</time></trkpt><trkpt lat="46.21362571921383" lon="12.707661436326427"><ele>481.0</ele><time>2026-03-22T08:32:36Z</time></trkpt><trkpt lat="46.213682046292995" lon="12.707747136201476"><ele>481.0</ele><time>2026-03-22T08:32:37Z</time></trkpt><trkpt lat="46.213735597109334" lon="12.707829165356994"><ele>481.0</ele><time>2026-03-22T08:32:38Z</time></trkpt><trkpt lat="46.2137612741501" lon="12.70791620026807"><ele>481.00000000000006</ele><time>2026-03-22T08:32:39Z</time></trkpt><trkpt lat="46.21376781088638" lon="12.708119979424422"><ele>481.0</ele><time>2026-03-22T08:32:41Z</time></trkpt><trkpt lat="46.213816493679886" lon="12.70822920366796"><ele>478.25</ele><time>2026-03-22T08:32:42Z</time></trkpt><trkpt lat="46.213883429151686" lon="12.708354261183372"><ele>475.5</ele><time>2026-03-22T08:32:43Z</time></trkpt><trkpt lat="46.21396392664248" lon="12.708495290072824"><ele>472.75</ele><time>2026-03-22T08:32:43.999Z</time></trkpt><trkpt lat="46.21404077899638" lon="12.708619886433084"><ele>470.0</ele><time>2026-03-22T08:32:44.999Z</time></trkpt><trkpt lat="46.21411030771026" lon="12.708739206990328"><ele>470.0</ele><time>2026-03-22T08:32:45.999Z</time></trkpt><trkpt lat="46.214174951329646" lon="12.70885732297868"><ele>470.0</ele><time>2026-03-22T08:32:46.999Z</time></trkpt><trkpt lat="46.21424281498121" lon="12.708959438655095"><ele>470.0</ele><time>2026-03-22T08:32:47.999Z</time></trkpt><trkpt lat="46.214305800095005" lon="12.70906448584557"><ele>470.0</ele><time>2026-03-22T08:32:48.999Z</time></trkpt><trkpt lat="46.214365813243674" lon="12.709166610162946"><ele>470.0</ele><time>2026-03-22T08:32:49.999Z</time></trkpt><trkpt lat="46.214426139946745" lon="12.709280813365593"><ele>470.0</ele><time>2026-03-22T08:32:50.999Z</time></trkpt><trkpt lat="46.214496308297356" lon="12.70940793217333"><ele>470.0</ele><time>2026-03-22T08:32:51.999Z</time></trkpt><trkpt lat="46.21456761457983" lon="12.70953921468872"><ele>470.0</ele><time>2026-03-22T08:32:52.999Z</time></trkpt><trkpt lat="46.21463702919914" lon="12.709665905437246"><ele>470.0</ele><time>2026-03-22T08:32:53.999Z</time></trkpt><trkpt lat="46.21470575062823" lon="12.709781040938132"><ele>470.0</ele><time>2026-03-22T08:32:54.999Z</time></trkpt><trkpt lat="46.21477407799755" lon="12.709888856028034"><ele>471.0</ele><time>2026-03-22T08:32:55.999Z</time></trkpt><trkpt lat="46.21483757982659" lon="12.709995808958704"><ele>472.0</ele><time>2026-03-22T08:32:56.999Z</time></trkpt><trkpt lat="46.21489880835135" lon="12.71009970392332"><ele>473.0</ele><time>2026-03-22T08:32:57.999Z</time></trkpt><trkpt lat="46.21496068621144" lon="12.710194599797495"><ele>474.0</ele><time>2026-03-22T08:32:58.999Z</time></trkpt><trkpt lat="46.21502312639218" lon="12.710278778439644"><ele>475.0</ele><time>2026-03-22T08:32:59.999Z</time></trkpt><trkpt lat="46.21508830077915" lon="12.710356967972636"><ele>472.83333333333337</ele><time>2026-03-22T08:33:00.999Z</time></trkpt><trkpt lat="46.21515457676357" lon="12.710424667456856"><ele>470.6666666666667</ele><time>2026-03-22T08:33:01.999Z</time></trkpt><trkpt lat="46.21521972233392" lon="12.710499985826"><ele>468.5</ele><time>2026-03-22T08:33:02.999Z</time></trkpt><trkpt lat="46.21527947356281" lon="12.710576908360387"><ele>466.33333333333337</ele><time>2026-03-22T08:33:03.999Z</time></trkpt><trkpt lat="46.215334363214865" lon="12.710672464375012"><ele>464.1666666666667</ele><time>2026-03-22T08:33:04.999Z</time></trkpt><trkpt lat="46.215380861207436" lon="12.710780222982969"><ele>462.0</ele><time>2026-03-22T08:33:05.999Z</time></trkpt><trkpt lat="46.21541657995705" lon="12.710895871849477"><ele>462.0</ele><time>2026-03-22T08:33:06.999Z</time></trkpt><trkpt lat="46.21543234747334" lon="12.711013374375007"><ele>462.0</ele><time>2026-03-22T08:33:07.999Z</time></trkpt><trkpt lat="46.2154476166084" lon="12.711123220945863"><ele>462.0</ele><time>2026-03-22T08:33:08.999Z</time></trkpt><trkpt lat="46.21547918560125" lon="12.711224570790549"><ele>462.0</ele><time>2026-03-22T08:33:09.999Z</time></trkpt><trkpt lat="46.21551881000322" lon="12.711326438481525"><ele>462.0</ele><time>2026-03-22T08:33:10.999Z</time></trkpt><trkpt lat="46.21558763670328" lon="12.711428190606712"><ele>462.0</ele><time>2026-03-22T08:33:11.999Z</time></trkpt><trkpt lat="46.2156958354721" lon="12.711561196291212"><ele>461.5</ele><time>2026-03-22T08:33:12.999Z</time></trkpt><trkpt lat="46.21580662785805" lon="12.711691952268419"><ele>461.0</ele><time>2026-03-22T08:33:13.999Z</time></trkpt><trkpt lat="46.21589586987641" lon="12.71180866663646"><ele>460.5</ele><time>2026-03-22T08:33:14.999Z</time></trkpt><trkpt lat="46.21597402580015" lon="12.711920230362574"><ele>460.0</ele><time>2026-03-22T08:33:15.999Z</time></trkpt><trkpt lat="46.21602719013537" lon="12.712014314159275"><ele>459.33333333333337</ele><time>2026-03-22T08:33:16.999Z</time></trkpt><trkpt lat="46.21606947112955" lon="12.71211840249747"><ele>458.6666666666667</ele><time>2026-03-22T08:33:17.999Z</time></trkpt><trkpt lat="46.216093849854985" lon="12.712225723348086"><ele>458.0</ele><time>2026-03-22T08:33:18.999Z</time></trkpt><trkpt lat="46.21609535652785" lon="12.712371084270616"><ele>457.33333333333337</ele><time>2026-03-22T08:33:20.999Z</time></trkpt><trkpt lat="46.21606490929426" lon="12.712491381365657"><ele>456.6666666666667</ele><time>2026-03-22T08:33:22.999Z</time></trkpt><trkpt lat="46.2160170617918" lon="12.712561984752016"><ele>456.0</ele><time>2026-03-22T08:33:23.999Z</time></trkpt><trkpt lat="46.21595504528998" lon="12.712634948773797"><ele>456.0</ele><time>2026-03-22T08:33:24.999Z</time></trkpt><trkpt lat="46.215891109057665" lon="12.712725904816383"><ele>456.0</ele><time>2026-03-22T08:33:25.999Z</time></trkpt><trkpt lat="46.21581711251001" lon="12.712820286464362"><ele>456.0</ele><time>2026-03-22T08:33:26.999Z</time></trkpt><trkpt lat="46.21575019861433" lon="12.7129016988999"><ele>456.0</ele><time>2026-03-22T08:33:27.999Z</time></trkpt><trkpt lat="46.215693380252546" lon="12.712986508237378"><ele>456.0</ele><time>2026-03-22T08:33:28.999Z</time></trkpt><trkpt lat="46.215650493659645" lon="12.713088736504057"><ele>456.0</ele><time>2026-03-22T08:33:29.999Z</time></trkpt><trkpt lat="46.215616235085186" lon="12.713204172089501"><ele>456.3333333333333</ele><time>2026-03-22T08:33:30.999Z</time></trkpt><trkpt lat="46.21558272539305" lon="12.713319061099295"><ele>456.66666666666663</ele><time>2026-03-22T08:33:31.999Z</time></trkpt><trkpt lat="46.215554551181654" lon="12.713435321817407"><ele>457.0</ele><time>2026-03-22T08:33:32.999Z</time></trkpt><trkpt lat="46.215529387747104" lon="12.713554806425794"><ele>457.3333333333333</ele><time>2026-03-22T08:33:33.999Z</time></trkpt><trkpt lat="46.21550684706775" lon="12.713683114575229"><ele>457.66666666666663</ele><time>2026-03-22T08:33:34.999Z</time></trkpt><trkpt lat="46.215486207446524" lon="12.713811959251998"><ele>458.0</ele><time>2026-03-22T08:33:35.999Z</time></trkpt><trkpt lat="46.21547140474456" lon="12.71393906700301"><ele>458.0</ele><time>2026-03-22T08:33:36.999Z</time></trkpt><trkpt lat="46.21546451331707" lon="12.714056639489915"><ele>457.99999999999994</ele><time>2026-03-22T08:33:37.999Z</time></trkpt><trkpt lat="46.21546247415668" lon="12.714164609603102"><ele>457.99999999999994</ele><time>2026-03-22T08:33:38.999Z</time></trkpt><trkpt lat="46.21549229283874" lon="12.714320607601142"><ele>458.0</ele><time>2026-03-22T08:33:40.999Z</time></trkpt><trkpt lat="46.21557053144719" lon="12.714397287144891"><ele>458.0</ele><time>2026-03-22T08:33:42.999Z</time></trkpt><trkpt lat="46.215705160469305" lon="12.71442316303418"><ele>456.25</ele><time>2026-03-22T08:33:44.999Z</time></trkpt><trkpt lat="46.215814962766366" lon="12.714481492046227"><ele>454.5</ele><time>2026-03-22T08:33:46.999Z</time></trkpt><trkpt lat="46.21589121124629" lon="12.71464339057541"><ele>452.75</ele><time>2026-03-22T08:33:49Z</time></trkpt><trkpt lat="46.21590647369088" lon="12.714775316414107"><ele>451.0</ele><time>2026-03-22T08:33:50Z</time></trkpt><trkpt lat="46.215913710058054" lon="12.7149278193295"><ele>451.00000000000006</ele><time>2026-03-22T08:33:51Z</time></trkpt><trkpt lat="46.215916163309686" lon="12.715066311091347"><ele>451.0</ele><time>2026-03-22T08:33:52Z</time></trkpt><trkpt lat="46.215919441673435" lon="12.715198602576923"><ele>451.0</ele><time>2026-03-22T08:33:53Z</time></trkpt><trkpt lat="46.21593130092435" lon="12.715317066343504"><ele>451.0</ele><time>2026-03-22T08:33:54Z</time></trkpt><trkpt lat="46.215957950426976" lon="12.715405770180006"><ele>451.00000000000006</ele><time>2026-03-22T08:33:55Z</time></trkpt><trkpt lat="46.21603980051115" lon="12.715475534399674"><ele>451.0</ele><time>2026-03-22T08:33:57Z</time></trkpt><trkpt lat="46.216143669300486" lon="12.715346593580762"><ele>451.0</ele><time>2026-03-22T08:33:59Z</time></trkpt><trkpt lat="46.216206160500285" lon="12.715190735857853"><ele>451.0</ele><time>2026-03-22T08:34:00Z</time></trkpt><trkpt lat="46.216274570659735" lon="12.714996180983396"><ele>451.0</ele><time>2026-03-22T08:34:01Z</time></trkpt><trkpt lat="46.2163344489654" lon="12.714819211045057"><ele>451.0</ele><time>2026-03-22T08:34:02Z</time></trkpt><trkpt lat="46.21639418733761" lon="12.714652974482158"><ele>451.0</ele><time>2026-03-22T08:34:03Z</time></trkpt><trkpt lat="46.21645603913323" lon="12.71450118379001"><ele>451.0</ele><time>2026-03-22T08:34:04Z</time></trkpt><trkpt lat="46.216510847046735" lon="12.71436978779226"><ele>451.0</ele><time>2026-03-22T08:34:05Z</time></trkpt><trkpt lat="46.21655533110356" lon="12.714255482182265"><ele>451.0</ele><time>2026-03-22T08:34:06Z</time></trkpt><trkpt lat="46.21661315926269" lon="12.714165229805568"><ele>451.0</ele><time>2026-03-22T08:34:07Z</time></trkpt><trkpt lat="46.21668920850607" lon="12.71410966094981"><ele>449.6</ele><time>2026-03-22T08:34:08Z</time></trkpt><trkpt lat="46.21677160144547" lon="12.714082538050997"><ele>448.20000000000005</ele><time>2026-03-22T08:34:09Z</time></trkpt><trkpt lat="46.21685436955048" lon="12.714084844307797"><ele>446.79999999999995</ele><time>2026-03-22T08:34:10Z</time></trkpt><trkpt lat="46.21691836818595" lon="12.7141073071876"><ele>445.4</ele><time>2026-03-22T08:34:11Z</time></trkpt><trkpt lat="46.21700747493475" lon="12.7142535817058"><ele>444.0</ele><time>2026-03-22T08:34:13Z</time></trkpt><trkpt lat="46.2170249732181" lon="12.714396465759442"><ele>442.33333333333337</ele><time>2026-03-22T08:34:14Z</time></trkpt><trkpt lat="46.21703678794311" lon="12.714595671995795"><ele>440.6666666666667</ele><time>2026-03-22T08:34:15Z</time></trkpt><trkpt lat="46.21704276289402" lon="12.714867402318243"><ele>439.0</ele><time>2026-03-22T08:34:16Z</time></trkpt><trkpt lat="46.217048823249065" lon="12.715129564551034"><ele>439.33333333333337</ele><time>2026-03-22T08:34:17Z</time></trkpt><trkpt lat="46.21705531336956" lon="12.715356659649359"><ele>439.66666666666663</ele><time>2026-03-22T08:34:18Z</time></trkpt><trkpt lat="46.21705859608714" lon="12.71557844499694"><ele>440.0</ele><time>2026-03-22T08:34:19Z</time></trkpt><trkpt lat="46.217050964784946" lon="12.715803681131797"><ele>440.0</ele><time>2026-03-22T08:34:20Z</time></trkpt><trkpt lat="46.217036343516" lon="12.716016383317568"><ele>440.0</ele><time>2026-03-22T08:34:21Z</time></trkpt><trkpt lat="46.21701563020641" lon="12.716217205120438"><ele>440.0</ele><time>2026-03-22T08:34:22Z</time></trkpt><trkpt lat="46.2170091547496" lon="12.716408585093834"><ele>440.0</ele><time>2026-03-22T08:34:23Z</time></trkpt><trkpt lat="46.217023900431236" lon="12.716601273053609"><ele>438.3333333333333</ele><time>2026-03-22T08:34:24Z</time></trkpt><trkpt lat="46.21705452649391" lon="12.716796241627211"><ele>436.66666666666663</ele><time>2026-03-22T08:34:25Z</time></trkpt><trkpt lat="46.21709822802818" lon="12.717009091384545"><ele>435.0</ele><time>2026-03-22T08:34:26Z</time></trkpt><trkpt lat="46.21715312572929" lon="12.717231762141433"><ele>434.66666666666663</ele><time>2026-03-22T08:34:27Z</time></trkpt><trkpt lat="46.217199378241304" lon="12.717449538356549"><ele>434.3333333333333</ele><time>2026-03-22T08:34:28Z</time></trkpt><trkpt lat="46.21723836534886" lon="12.717661756300012"><ele>434.0</ele><time>2026-03-22T08:34:29Z</time></trkpt><trkpt lat="46.21728172785882" lon="12.71787181935902"><ele>429.75</ele><time>2026-03-22T08:34:30Z</time></trkpt><trkpt lat="46.21732753305736" lon="12.718071674816189"><ele>425.5</ele><time>2026-03-22T08:34:31Z</time></trkpt><trkpt lat="46.21737506441305" lon="12.71826681641463"><ele>421.25</ele><time>2026-03-22T08:34:32Z</time></trkpt><trkpt lat="46.21742268766782" lon="12.718459546711351"><ele>417.0</ele><time>2026-03-22T08:34:33Z</time></trkpt><trkpt lat="46.217465391803344" lon="12.718646203618633"><ele>417.0</ele><time>2026-03-22T08:34:34Z</time></trkpt><trkpt lat="46.217507557958655" lon="12.71883284574297"><ele>417.0</ele><time>2026-03-22T08:34:35Z</time></trkpt><trkpt lat="46.21754742818885" lon="12.719021800565415"><ele>417.0</ele><time>2026-03-22T08:34:36Z</time></trkpt><trkpt lat="46.21757250395682" lon="12.719215086521402"><ele>417.0</ele><time>2026-03-22T08:34:37Z</time></trkpt><trkpt lat="46.2175902691931" lon="12.71942813801511"><ele>418.33333333333337</ele><time>2026-03-22T08:34:38Z</time></trkpt><trkpt lat="46.21762987699985" lon="12.719668928895114"><ele>419.6666666666667</ele><time>2026-03-22T08:34:39Z</time></trkpt><trkpt lat="46.21770177577333" lon="12.719925707967894"><ele>421.0</ele><time>2026-03-22T08:34:40Z</time></trkpt><trkpt lat="46.217779156584655" lon="12.72021242677436"><ele>418.33333333333337</ele><time>2026-03-22T08:34:41Z</time></trkpt><trkpt lat="46.21784042712123" lon="12.720480612488336"><ele>415.66666666666663</ele><time>2026-03-22T08:34:42Z</time></trkpt><trkpt lat="46.2178981736074" lon="12.720751330102463"><ele>413.0</ele><time>2026-03-22T08:34:43Z</time></trkpt><trkpt lat="46.217948283877725" lon="12.721033382167134"><ele>411.3333333333333</ele><time>2026-03-22T08:34:44Z</time></trkpt><trkpt lat="46.2179903786371" lon="12.721313755545987"><ele>409.66666666666663</ele><time>2026-03-22T08:34:45Z</time></trkpt><trkpt lat="46.218027640376526" lon="12.721574317098408"><ele>408.0</ele><time>2026-03-22T08:34:46Z</time></trkpt><trkpt lat="46.21806047420413" lon="12.721809298775597"><ele>408.0</ele><time>2026-03-22T08:34:47Z</time></trkpt><trkpt lat="46.218090303610644" lon="12.722014568876329"><ele>408.0</ele><time>2026-03-22T08:34:48Z</time></trkpt><trkpt lat="46.218123607623475" lon="12.722184178906147"><ele>408.0</ele><time>2026-03-22T08:34:49Z</time></trkpt><trkpt lat="46.21816196789926" lon="12.722336538966001"><ele>408.0</ele><time>2026-03-22T08:34:50Z</time></trkpt><trkpt lat="46.2182054964719" lon="12.722470990124842"><ele>403.79999999999995</ele><time>2026-03-22T08:34:51Z</time></trkpt><trkpt lat="46.21826264817988" lon="12.722592661645821"><ele>399.6</ele><time>2026-03-22T08:34:52Z</time></trkpt><trkpt lat="46.21834203426655" lon="12.722696072941577"><ele>395.4</ele><time>2026-03-22T08:34:53Z</time></trkpt><trkpt lat="46.218432092912415" lon="12.72276945821993"><ele>391.20000000000005</ele><time>2026-03-22T08:34:54Z</time></trkpt><trkpt lat="46.218527386741556" lon="12.722820167945647"><ele>387.0</ele><time>2026-03-22T08:34:55Z</time></trkpt><trkpt lat="46.21861235473655" lon="12.722857531534267"><ele>387.0</ele><time>2026-03-22T08:34:55.999Z</time></trkpt><trkpt lat="46.21868967346455" lon="12.72289245216401"><ele>387.0</ele><time>2026-03-22T08:34:56.999Z</time></trkpt><trkpt lat="46.21875851270118" lon="12.722935298120174"><ele>387.0</ele><time>2026-03-22T08:34:57.999Z</time></trkpt><trkpt lat="46.218827043267765" lon="12.722995347777873"><ele>387.0</ele><time>2026-03-22T08:34:58.999Z</time></trkpt><trkpt lat="46.21890139555237" lon="12.72307846608557"><ele>387.0</ele><time>2026-03-22T08:34:59.999Z</time></trkpt><trkpt lat="46.21897596319938" lon="12.72319701211651"><ele>387.0</ele><time>2026-03-22T08:35:00.999Z</time></trkpt><trkpt lat="46.21904683533514" lon="12.723350232349787"><ele>386.66666666666663</ele><time>2026-03-22T08:35:01.999Z</time></trkpt><trkpt lat="46.21910391180324" lon="12.723527282457722"><ele>386.3333333333333</ele><time>2026-03-22T08:35:02.999Z</time></trkpt><trkpt lat="46.219143599621916" lon="12.723736590046267"><ele>386.0</ele><time>2026-03-22T08:35:03.999Z</time></trkpt><trkpt lat="46.21918474973364" lon="12.724004114940444"><ele>384.3333333333333</ele><time>2026-03-22T08:35:04.999Z</time></trkpt><trkpt lat="46.21922139540125" lon="12.724286776676639"><ele>382.66666666666663</ele><time>2026-03-22T08:35:05.999Z</time></trkpt><trkpt lat="46.21925523008615" lon="12.724533368113208"><ele>381.0</ele><time>2026-03-22T08:35:06.999Z</time></trkpt><trkpt lat="46.21928718607715" lon="12.72476612294738"><ele>380.0</ele><time>2026-03-22T08:35:07.999Z</time></trkpt><trkpt lat="46.21931872826521" lon="12.72498340415371"><ele>379.0</ele><time>2026-03-22T08:35:08.999Z</time></trkpt><trkpt lat="46.21935123868889" lon="12.725191155511864"><ele>378.0</ele><time>2026-03-22T08:35:09.999Z</time></trkpt><trkpt lat="46.21938731495691" lon="12.725388252906725"><ele>377.0</ele><time>2026-03-22T08:35:10.999Z</time></trkpt><trkpt lat="46.21943129732794" lon="12.725570888910973"><ele>376.5</ele><time>2026-03-22T08:35:11.999Z</time></trkpt><trkpt lat="46.21948309430775" lon="12.725753962832503"><ele>376.0</ele><time>2026-03-22T08:35:12.999Z</time></trkpt><trkpt lat="46.2195371937573" lon="12.725910597368472"><ele>375.5</ele><time>2026-03-22T08:35:13.999Z</time></trkpt><trkpt lat="46.21959783672627" lon="12.72604944687861"><ele>375.0</ele><time>2026-03-22T08:35:14.999Z</time></trkpt><trkpt lat="46.21965615671953" lon="12.726179079123986"><ele>375.0</ele><time>2026-03-22T08:35:15.999Z</time></trkpt><trkpt lat="46.21972899851126" lon="12.726267634479054"><ele>375.0</ele><time>2026-03-22T08:35:16.999Z</time></trkpt><trkpt lat="46.21982734601587" lon="12.726338884797341"><ele>375.0</ele><time>2026-03-22T08:35:17.999Z</time></trkpt><trkpt lat="46.21995547919146" lon="12.726400588789017"><ele>375.0</ele><time>2026-03-22T08:35:18.999Z</time></trkpt><trkpt lat="46.22010855724935" lon="12.72644809304232"><ele>374.0</ele><time>2026-03-22T08:35:19.999Z</time></trkpt><trkpt lat="46.2202430641328" lon="12.726511899960027"><ele>373.0</ele><time>2026-03-22T08:35:20.999Z</time></trkpt><trkpt lat="46.22035177507064" lon="12.726559838648178"><ele>372.0</ele><time>2026-03-22T08:35:21.999Z</time></trkpt><trkpt lat="46.22042469008236" lon="12.72662512441606"><ele>371.0</ele><time>2026-03-22T08:35:22.999Z</time></trkpt><trkpt lat="46.22046284321972" lon="12.726706630776132"><ele>370.0</ele><time>2026-03-22T08:35:23.999Z</time></trkpt><trkpt lat="46.22047160464923" lon="12.726813284519785"><ele>369.75</ele><time>2026-03-22T08:35:24.999Z</time></trkpt><trkpt lat="46.22044124005427" lon="12.726944711504606"><ele>369.5</ele><time>2026-03-22T08:35:25.999Z</time></trkpt><trkpt lat="46.22037904866659" lon="12.727108472104135"><ele>369.25</ele><time>2026-03-22T08:35:26.999Z</time></trkpt><trkpt lat="46.220292740454035" lon="12.727289711507712"><ele>369.0</ele><time>2026-03-22T08:35:27.999Z</time></trkpt><trkpt lat="46.22022079996579" lon="12.727427051513109"><ele>369.0</ele><time>2026-03-22T08:35:28.999Z</time></trkpt><trkpt lat="46.22016296417621" lon="12.727549208828664"><ele>369.0</ele><time>2026-03-22T08:35:29.999Z</time></trkpt><trkpt lat="46.22012420039877" lon="12.727657345215063"><ele>369.0</ele><time>2026-03-22T08:35:30.999Z</time></trkpt><trkpt lat="46.2200802828351" lon="12.727806143859311"><ele>369.0</ele><time>2026-03-22T08:35:31.999Z</time></trkpt><trkpt lat="46.220032622871805" lon="12.727960857652896"><ele>369.0</ele><time>2026-03-22T08:35:32.999Z</time></trkpt><trkpt lat="46.21996982787367" lon="12.728158136765428"><ele>369.0</ele><time>2026-03-22T08:35:33.999Z</time></trkpt><trkpt lat="46.21992194488332" lon="12.728347787733073"><ele>369.0</ele><time>2026-03-22T08:35:34.999Z</time></trkpt><trkpt lat="46.21988112112517" lon="12.728529283156945"><ele>369.0</ele><time>2026-03-22T08:35:35.999Z</time></trkpt><trkpt lat="46.21984486367335" lon="12.72870180205509"><ele>369.0</ele><time>2026-03-22T08:35:36.999Z</time></trkpt><trkpt lat="46.219800753983016" lon="12.72888367195271"><ele>369.0</ele><time>2026-03-22T08:35:37.999Z</time></trkpt><trkpt lat="46.21974756608277" lon="12.72904637613973"><ele>369.0</ele><time>2026-03-22T08:35:38.999Z</time></trkpt><trkpt lat="46.219692180149515" lon="12.72918639630275"><ele>369.0</ele><time>2026-03-22T08:35:39.999Z</time></trkpt><trkpt lat="46.219642025460345" lon="12.729307249088906"><ele>369.0</ele><time>2026-03-22T08:35:40.999Z</time></trkpt><trkpt lat="46.21960471554269" lon="12.729431233930702"><ele>369.0</ele><time>2026-03-22T08:35:41.999Z</time></trkpt><trkpt lat="46.21960997036552" lon="12.729552617897768"><ele>370.25</ele><time>2026-03-22T08:35:42.999Z</time></trkpt><trkpt lat="46.21964275405222" lon="12.72966846951822"><ele>371.5</ele><time>2026-03-22T08:35:43.999Z</time></trkpt><trkpt lat="46.21969775988087" lon="12.72983722141483"><ele>372.75</ele><time>2026-03-22T08:35:44.999Z</time></trkpt><trkpt lat="46.21977639536691" lon="12.730043421754253"><ele>374.0</ele><time>2026-03-22T08:35:45.999Z</time></trkpt><trkpt lat="46.21984876119342" lon="12.730211739440506"><ele>373.25</ele><time>2026-03-22T08:35:46.999Z</time></trkpt><trkpt lat="46.21990056516179" lon="12.73038190729225"><ele>372.5</ele><time>2026-03-22T08:35:47.999Z</time></trkpt><trkpt lat="46.219938918191666" lon="12.730564056714984"><ele>371.75</ele><time>2026-03-22T08:35:48.999Z</time></trkpt><trkpt lat="46.21996348515442" lon="12.730763530218256"><ele>371.0</ele><time>2026-03-22T08:35:49.999Z</time></trkpt><trkpt lat="46.2199715529593" lon="12.730960512037612"><ele>370.25</ele><time>2026-03-22T08:35:50.999Z</time></trkpt><trkpt lat="46.219965373613036" lon="12.731144139998376"><ele>369.5</ele><time>2026-03-22T08:35:51.999Z</time></trkpt><trkpt lat="46.21993200414819" lon="12.731338003748192"><ele>368.75</ele><time>2026-03-22T08:35:52.999Z</time></trkpt><trkpt lat="46.21988418691553" lon="12.731509031265084"><ele>368.0</ele><time>2026-03-22T08:35:53.999Z</time></trkpt><trkpt lat="46.21983690773314" lon="12.731661939147726"><ele>366.75</ele><time>2026-03-22T08:35:55Z</time></trkpt><trkpt lat="46.219807549516446" lon="12.731809627449703"><ele>365.5</ele><time>2026-03-22T08:35:56Z</time></trkpt><trkpt lat="46.219805737734504" lon="12.731959429235356"><ele>364.25</ele><time>2026-03-22T08:35:57Z</time></trkpt><trkpt lat="46.21982302269604" lon="12.732135824562368"><ele>363.0</ele><time>2026-03-22T08:35:58Z</time></trkpt><trkpt lat="46.21986204386614" lon="12.732344087758033"><ele>363.0</ele><time>2026-03-22T08:35:59Z</time></trkpt><trkpt lat="46.219907758192484" lon="12.73260195980869"><ele>363.0</ele><time>2026-03-22T08:36:00Z</time></trkpt><trkpt lat="46.219939651687845" lon="12.73282443682956"><ele>363.0</ele><time>2026-03-22T08:36:01Z</time></trkpt><trkpt lat="46.21996094087934" lon="12.73303401298326"><ele>361.5</ele><time>2026-03-22T08:36:02Z</time></trkpt><trkpt lat="46.21997633603523" lon="12.733223547651324"><ele>360.0</ele><time>2026-03-22T08:36:03Z</time></trkpt><trkpt lat="46.2199935578674" lon="12.733399780368288"><ele>358.5</ele><time>2026-03-22T08:36:04Z</time></trkpt><trkpt lat="46.22002341008497" lon="12.73358625966663"><ele>357.0</ele><time>2026-03-22T08:36:05Z</time></trkpt><trkpt lat="46.22007467241078" lon="12.733775115882707"><ele>357.0</ele><time>2026-03-22T08:36:06Z</time></trkpt><trkpt lat="46.22013949201942" lon="12.73395711751819"><ele>357.0</ele><time>2026-03-22T08:36:07Z</time></trkpt><trkpt lat="46.22021647465127" lon="12.734135099033915"><ele>357.0</ele><time>2026-03-22T08:36:08Z</time></trkpt><trkpt lat="46.22029614403786" lon="12.734293926546995"><ele>357.0</ele><time>2026-03-22T08:36:09Z</time></trkpt><trkpt lat="46.22036535388794" lon="12.734436843524113"><ele>357.0</ele><time>2026-03-22T08:36:10Z</time></trkpt><trkpt lat="46.22042794737041" lon="12.734556185769442"><ele>357.0</ele><time>2026-03-22T08:36:11Z</time></trkpt><trkpt lat="46.22050220528567" lon="12.734647107411197"><ele>357.0</ele><time>2026-03-22T08:36:12Z</time></trkpt><trkpt lat="46.22059658334235" lon="12.734702741927736"><ele>357.0</ele><time>2026-03-22T08:36:13Z</time></trkpt><trkpt lat="46.22071427967089" lon="12.7347420948041"><ele>357.0</ele><time>2026-03-22T08:36:14Z</time></trkpt><trkpt lat="46.220808931574645" lon="12.734772345705569"><ele>355.6666666666667</ele><time>2026-03-22T08:36:15Z</time></trkpt><trkpt lat="46.22087734810067" lon="12.734819952562347"><ele>354.3333333333333</ele><time>2026-03-22T08:36:16Z</time></trkpt><trkpt lat="46.22091846353952" lon="12.734903175239616"><ele>353.0</ele><time>2026-03-22T08:36:17Z</time></trkpt><trkpt lat="46.22093746124685" lon="12.735036099312728"><ele>351.66666666666663</ele><time>2026-03-22T08:36:18Z</time></trkpt><trkpt lat="46.22093080142448" lon="12.735172667815855"><ele>350.3333333333333</ele><time>2026-03-22T08:36:19Z</time></trkpt><trkpt lat="46.22091386326558" lon="12.73530234119999"><ele>349.0</ele><time>2026-03-22T08:36:20Z</time></trkpt><trkpt lat="46.22092092889251" lon="12.735413630854138"><ele>347.2</ele><time>2026-03-22T08:36:21Z</time></trkpt><trkpt lat="46.22094918464235" lon="12.73550676006249"><ele>345.4</ele><time>2026-03-22T08:36:22Z</time></trkpt><trkpt lat="46.22099754421742" lon="12.735570656772703"><ele>343.6</ele><time>2026-03-22T08:36:23Z</time></trkpt><trkpt lat="46.221129717782226" lon="12.735567522589308"><ele>341.8</ele><time>2026-03-22T08:36:25Z</time></trkpt><trkpt lat="46.221203268951605" lon="12.735505620956616"><ele>340.0</ele><time>2026-03-22T08:36:26Z</time></trkpt><trkpt lat="46.221304898577856" lon="12.735524772060355"><ele>340.0</ele><time>2026-03-22T08:36:28Z</time></trkpt><trkpt lat="46.22130342539742" lon="12.735672031886436"><ele>340.0</ele><time>2026-03-22T08:36:30Z</time></trkpt><trkpt lat="46.221240015774775" lon="12.735727647386197"><ele>340.0</ele><time>2026-03-22T08:36:31Z</time></trkpt><trkpt lat="46.22112407228793" lon="12.735770896112713"><ele>340.0</ele><time>2026-03-22T08:36:32Z</time></trkpt><trkpt lat="46.22103274732708" lon="12.735838165422548"><ele>340.0</ele><time>2026-03-22T08:36:33Z</time></trkpt><trkpt lat="46.22096869760847" lon="12.735943593877062"><ele>342.0</ele><time>2026-03-22T08:36:34Z</time></trkpt><trkpt lat="46.22090607790259" lon="12.736115071797371"><ele>344.0</ele><time>2026-03-22T08:36:35Z</time></trkpt><trkpt lat="46.22081316209783" lon="12.736337907057703"><ele>346.0</ele><time>2026-03-22T08:36:36Z</time></trkpt><trkpt lat="46.22068481904147" lon="12.736580333051291"><ele>344.0</ele><time>2026-03-22T08:36:37Z</time></trkpt><trkpt lat="46.22054960060751" lon="12.736845649856217"><ele>342.0</ele><time>2026-03-22T08:36:38Z</time></trkpt><trkpt lat="46.2204331656132" lon="12.737101211925351"><ele>340.0</ele><time>2026-03-22T08:36:39Z</time></trkpt><trkpt lat="46.22034794570874" lon="12.737297636229984"><ele>340.0</ele><time>2026-03-22T08:36:40Z</time></trkpt><trkpt lat="46.22028145112534" lon="12.73744859652557"><ele>340.0</ele><time>2026-03-22T08:36:41Z</time></trkpt><trkpt lat="46.22023282084928" lon="12.737570771265469"><ele>340.0</ele><time>2026-03-22T08:36:42Z</time></trkpt><trkpt lat="46.22020931677492" lon="12.73768108229207"><ele>340.0</ele><time>2026-03-22T08:36:43Z</time></trkpt><trkpt lat="46.22022762427529" lon="12.737770396742924"><ele>340.0</ele><time>2026-03-22T08:36:44Z</time></trkpt><trkpt lat="46.22027923198334" lon="12.737849686032535"><ele>340.0</ele><time>2026-03-22T08:36:45Z</time></trkpt><trkpt lat="46.22038134941011" lon="12.737940025465544"><ele>341.4</ele><time>2026-03-22T08:36:46Z</time></trkpt><trkpt lat="46.22048603644794" lon="12.737984077685955"><ele>342.8</ele><time>2026-03-22T08:36:47Z</time></trkpt><trkpt lat="46.220605373797426" lon="12.738050605137698"><ele>344.20000000000005</ele><time>2026-03-22T08:36:48Z</time></trkpt><trkpt lat="46.22066441861485" lon="12.73809135777683"><ele>345.6</ele><time>2026-03-22T08:36:49Z</time></trkpt><trkpt lat="46.220713569480026" lon="12.738224461432376"><ele>347.0</ele><time>2026-03-22T08:36:51Z</time></trkpt><trkpt lat="46.220611712111406" lon="12.738326830165956"><ele>347.0</ele><time>2026-03-22T08:36:53Z</time></trkpt><trkpt lat="46.22052663731806" lon="12.738300878829493"><ele>347.0</ele><time>2026-03-22T08:36:54Z</time></trkpt><trkpt lat="46.22040861473218" lon="12.738239985761876"><ele>347.0</ele><time>2026-03-22T08:36:55Z</time></trkpt><trkpt lat="46.22030852780795" lon="12.738206563232817"><ele>347.0</ele><time>2026-03-22T08:36:56Z</time></trkpt><trkpt lat="46.22023333850697" lon="12.738215830647816"><ele>347.0</ele><time>2026-03-22T08:36:57Z</time></trkpt><trkpt lat="46.220171733030845" lon="12.738269129446097"><ele>347.0</ele><time>2026-03-22T08:36:58Z</time></trkpt><trkpt lat="46.22013105371556" lon="12.738385353393252"><ele>347.0</ele><time>2026-03-22T08:36:59Z</time></trkpt><trkpt lat="46.22007615835455" lon="12.738559885054867"><ele>347.0</ele><time>2026-03-22T08:37:00Z</time></trkpt><trkpt lat="46.22002386203291" lon="12.738724510310515"><ele>347.0</ele><time>2026-03-22T08:37:01Z</time></trkpt><trkpt lat="46.219942644226045" lon="12.738916933830932"><ele>348.0</ele><time>2026-03-22T08:37:02Z</time></trkpt><trkpt lat="46.219859086592734" lon="12.739098913728919"><ele>349.0</ele><time>2026-03-22T08:37:02.999Z</time></trkpt><trkpt lat="46.21978363210518" lon="12.739253684212498"><ele>350.0</ele><time>2026-03-22T08:37:03.999Z</time></trkpt><trkpt lat="46.21971398548048" lon="12.739383175513169"><ele>351.0</ele><time>2026-03-22T08:37:04.999Z</time></trkpt><trkpt lat="46.21964528742157" lon="12.739490870905769"><ele>351.0</ele><time>2026-03-22T08:37:05.999Z</time></trkpt><trkpt lat="46.21958903782221" lon="12.73960309680629"><ele>351.0</ele><time>2026-03-22T08:37:06.999Z</time></trkpt><trkpt lat="46.21956575043233" lon="12.739734483660527"><ele>351.0</ele><time>2026-03-22T08:37:07.999Z</time></trkpt><trkpt lat="46.21958405164359" lon="12.739922630990225"><ele>351.0</ele><time>2026-03-22T08:37:08.999Z</time></trkpt><trkpt lat="46.21961594146252" lon="12.74012951258007"><ele>349.75</ele><time>2026-03-22T08:37:09.999Z</time></trkpt><trkpt lat="46.21964138983476" lon="12.740334260162564"><ele>348.5</ele><time>2026-03-22T08:37:10.999Z</time></trkpt><trkpt lat="46.21964770178819" lon="12.74052408937348"><ele>347.25</ele><time>2026-03-22T08:37:11.999Z</time></trkpt><trkpt lat="46.21963348859076" lon="12.740698683216792"><ele>346.0</ele><time>2026-03-22T08:37:12.999Z</time></trkpt><trkpt lat="46.21959986484573" lon="12.740859153303996"><ele>346.0</ele><time>2026-03-22T08:37:13.999Z</time></trkpt><trkpt lat="46.21956520317422" lon="12.741005613730943"><ele>346.0</ele><time>2026-03-22T08:37:14.999Z</time></trkpt><trkpt lat="46.219547487951964" lon="12.741145207418864"><ele>346.0</ele><time>2026-03-22T08:37:15.999Z</time></trkpt><trkpt lat="46.21956687644511" lon="12.741300783891363"><ele>346.0</ele><time>2026-03-22T08:37:16.999Z</time></trkpt><trkpt lat="46.21960612578239" lon="12.741494591278451"><ele>342.5</ele><time>2026-03-22T08:37:17.999Z</time></trkpt><trkpt lat="46.219676701126" lon="12.741664173017128"><ele>339.0</ele><time>2026-03-22T08:37:18.999Z</time></trkpt><trkpt lat="46.21974119382208" lon="12.741831731289627"><ele>335.5</ele><time>2026-03-22T08:37:19.999Z</time></trkpt><trkpt lat="46.21978482893233" lon="12.741976701923367"><ele>332.0</ele><time>2026-03-22T08:37:20.999Z</time></trkpt><trkpt lat="46.21980720581487" lon="12.742108079311521"><ele>331.40000000000003</ele><time>2026-03-22T08:37:21.999Z</time></trkpt><trkpt lat="46.219805522420685" lon="12.742238419932137"><ele>330.8</ele><time>2026-03-22T08:37:22.999Z</time></trkpt><trkpt lat="46.21977740581907" lon="12.742371082585288"><ele>330.2</ele><time>2026-03-22T08:37:23.999Z</time></trkpt><trkpt lat="46.21973319463935" lon="12.7424992654204"><ele>329.6</ele><time>2026-03-22T08:37:24.999Z</time></trkpt><trkpt lat="46.219677675533575" lon="12.742634245789393"><ele>329.0</ele><time>2026-03-22T08:37:25.999Z</time></trkpt><trkpt lat="46.21961586872875" lon="12.742784123364332"><ele>329.0</ele><time>2026-03-22T08:37:26.999Z</time></trkpt><trkpt lat="46.21956086591105" lon="12.74294954415743"><ele>329.0</ele><time>2026-03-22T08:37:27.999Z</time></trkpt><trkpt lat="46.21952653585599" lon="12.743110540012802"><ele>329.0</ele><time>2026-03-22T08:37:28.999Z</time></trkpt><trkpt lat="46.219509095601424" lon="12.743268678464986"><ele>329.0</ele><time>2026-03-22T08:37:29.999Z</time></trkpt><trkpt lat="46.21950987847695" lon="12.743422805796408"><ele>330.2</ele><time>2026-03-22T08:37:30.999Z</time></trkpt><trkpt lat="46.21952206924649" lon="12.7435823322437"><ele>331.4</ele><time>2026-03-22T08:37:31.999Z</time></trkpt><trkpt lat="46.219542930730576" lon="12.743732340088854"><ele>332.6</ele><time>2026-03-22T08:37:32.999Z</time></trkpt><trkpt lat="46.21956639743251" lon="12.743875628750246"><ele>333.8</ele><time>2026-03-22T08:37:33.999Z</time></trkpt><trkpt lat="46.21959017320689" lon="12.744012697444758"><ele>335.0</ele><time>2026-03-22T08:37:34.999Z</time></trkpt><trkpt lat="46.2196123313562" lon="12.744154506869117"><ele>335.0</ele><time>2026-03-22T08:37:35.999Z</time></trkpt><trkpt lat="46.21963220018883" lon="12.744289793634366"><ele>335.0</ele><time>2026-03-22T08:37:36.999Z</time></trkpt><trkpt lat="46.21965084441767" lon="12.744422305504774"><ele>335.0</ele><time>2026-03-22T08:37:37.999Z</time></trkpt><trkpt lat="46.21967193314725" lon="12.744573774632265"><ele>335.0</ele><time>2026-03-22T08:37:38.999Z</time></trkpt><trkpt lat="46.21969911570577" lon="12.74471839714547"><ele>335.0</ele><time>2026-03-22T08:37:39.999Z</time></trkpt><trkpt lat="46.21975063251677" lon="12.744851553609108"><ele>337.0</ele><time>2026-03-22T08:37:40.999Z</time></trkpt><trkpt lat="46.21982225841194" lon="12.74497629437702"><ele>339.0</ele><time>2026-03-22T08:37:41.999Z</time></trkpt><trkpt lat="46.21987166829976" lon="12.745092106235035"><ele>341.0</ele><time>2026-03-22T08:37:42.999Z</time></trkpt><trkpt lat="46.2198859479474" lon="12.74521186785485"><ele>343.0</ele><time>2026-03-22T08:37:43.999Z</time></trkpt><trkpt lat="46.21988351921969" lon="12.745340828046787"><ele>345.0</ele><time>2026-03-22T08:37:44.999Z</time></trkpt><trkpt lat="46.219867772968804" lon="12.745546749973677"><ele>345.0</ele><time>2026-03-22T08:37:45.999Z</time></trkpt><trkpt lat="46.21984849652086" lon="12.745750335444209"><ele>345.0</ele><time>2026-03-22T08:37:46.999Z</time></trkpt><trkpt lat="46.21983756231386" lon="12.745927101546808"><ele>345.0</ele><time>2026-03-22T08:37:47.999Z</time></trkpt><trkpt lat="46.2198378122886" lon="12.746111103319976"><ele>345.0</ele><time>2026-03-22T08:37:48.999Z</time></trkpt><trkpt lat="46.219854884158316" lon="12.746316488861707"><ele>344.3333333333333</ele><time>2026-03-22T08:37:49.999Z</time></trkpt><trkpt lat="46.21988155203052" lon="12.746586470819288"><ele>343.66666666666663</ele><time>2026-03-22T08:37:50.999Z</time></trkpt><trkpt lat="46.21989582018128" lon="12.746866997227158"><ele>343.0</ele><time>2026-03-22T08:37:51.999Z</time></trkpt><trkpt lat="46.21990889083231" lon="12.747113685377238"><ele>343.0</ele><time>2026-03-22T08:37:52.999Z</time></trkpt><trkpt lat="46.21993350840242" lon="12.747324075436422"><ele>343.0</ele><time>2026-03-22T08:37:53.999Z</time></trkpt><trkpt lat="46.219970644721954" lon="12.747514204670383"><ele>343.0</ele><time>2026-03-22T08:37:54.999Z</time></trkpt><trkpt lat="46.220029419108414" lon="12.747727796766833"><ele>343.0</ele><time>2026-03-22T08:37:55.999Z</time></trkpt><trkpt lat="46.22009526796828" lon="12.74789852607912"><ele>341.59999999999997</ele><time>2026-03-22T08:37:56.999Z</time></trkpt><trkpt lat="46.22017011481179" lon="12.748037887648142"><ele>340.2</ele><time>2026-03-22T08:37:57.999Z</time></trkpt><trkpt lat="46.220259229998376" lon="12.748160602158448"><ele>338.8</ele><time>2026-03-22T08:37:58.999Z</time></trkpt><trkpt lat="46.220325885582916" lon="12.74825976511904"><ele>337.4</ele><time>2026-03-22T08:37:59.999Z</time></trkpt><trkpt lat="46.220364228953414" lon="12.748369385270943"><ele>336.0</ele><time>2026-03-22T08:38:01Z</time></trkpt><trkpt lat="46.220361099050876" lon="12.748481666050717"><ele>334.8</ele><time>2026-03-22T08:38:02Z</time></trkpt><trkpt lat="46.2203290170954" lon="12.748652520789747"><ele>333.6</ele><time>2026-03-22T08:38:03Z</time></trkpt><trkpt lat="46.22031598519244" lon="12.748822899670573"><ele>332.4</ele><time>2026-03-22T08:38:04Z</time></trkpt><trkpt lat="46.22033348634307" lon="12.748962268197161"><ele>331.2</ele><time>2026-03-22T08:38:05Z</time></trkpt><trkpt lat="46.22036631871619" lon="12.749088950332446"><ele>330.0</ele><time>2026-03-22T08:38:06Z</time></trkpt><trkpt lat="46.22043284527835" lon="12.749234755032006"><ele>328.75</ele><time>2026-03-22T08:38:07Z</time></trkpt><trkpt lat="46.22053166212686" lon="12.74938453557543"><ele>327.5</ele><time>2026-03-22T08:38:08Z</time></trkpt><trkpt lat="46.22061879896483" lon="12.7495046136126"><ele>326.25</ele><time>2026-03-22T08:38:09Z</time></trkpt><trkpt lat="46.22067282540142" lon="12.74963389497022"><ele>325.0</ele><time>2026-03-22T08:38:10Z</time></trkpt><trkpt lat="46.2206910719466" lon="12.74977101976707"><ele>328.8</ele><time>2026-03-22T08:38:11Z</time></trkpt><trkpt lat="46.22068760119731" lon="12.749923476837823"><ele>332.6</ele><time>2026-03-22T08:38:12Z</time></trkpt><trkpt lat="46.22066703972799" lon="12.750070303076878"><ele>336.4</ele><time>2026-03-22T08:38:13Z</time></trkpt><trkpt lat="46.220657347454235" lon="12.75020479135978"><ele>340.2</ele><time>2026-03-22T08:38:14Z</time></trkpt><trkpt lat="46.220684754645966" lon="12.750352309329942"><ele>344.0</ele><time>2026-03-22T08:38:15Z</time></trkpt><trkpt lat="46.22073561153814" lon="12.750499524038021"><ele>344.0</ele><time>2026-03-22T08:38:16Z</time></trkpt><trkpt lat="46.22077610867499" lon="12.750626374940152"><ele>344.0</ele><time>2026-03-22T08:38:17Z</time></trkpt><trkpt lat="46.220792256618644" lon="12.75074543871711"><ele>344.0</ele><time>2026-03-22T08:38:18Z</time></trkpt><trkpt lat="46.22078616628281" lon="12.75085746131264"><ele>344.0</ele><time>2026-03-22T08:38:19Z</time></trkpt><trkpt lat="46.220760169416295" lon="12.750968595249434"><ele>344.0</ele><time>2026-03-22T08:38:20Z</time></trkpt><trkpt lat="46.220709392205045" lon="12.751080004439501"><ele>344.0</ele><time>2026-03-22T08:38:21Z</time></trkpt><trkpt lat="46.22063795323938" lon="12.75121880017699"><ele>340.33333333333337</ele><time>2026-03-22T08:38:22Z</time></trkpt><trkpt lat="46.220536017586895" lon="12.751414670577903"><ele>336.6666666666667</ele><time>2026-03-22T08:38:23Z</time></trkpt><trkpt lat="46.220411234733014" lon="12.751647932240935"><ele>333.0</ele><time>2026-03-22T08:38:24Z</time></trkpt><trkpt lat="46.22029844508692" lon="12.751853545091894"><ele>334.5</ele><time>2026-03-22T08:38:25Z</time></trkpt><trkpt lat="46.22019524743268" lon="12.75203711975478"><ele>336.0</ele><time>2026-03-22T08:38:26Z</time></trkpt><trkpt lat="46.22011006573249" lon="12.752188287995745"><ele>337.5</ele><time>2026-03-22T08:38:27Z</time></trkpt><trkpt lat="46.22003552084084" lon="12.752322376156672"><ele>339.0</ele><time>2026-03-22T08:38:28Z</time></trkpt><trkpt lat="46.219966056567245" lon="12.752452080574587"><ele>339.0</ele><time>2026-03-22T08:38:29Z</time></trkpt><trkpt lat="46.219911046298655" lon="12.752580541379428"><ele>339.0</ele><time>2026-03-22T08:38:30Z</time></trkpt><trkpt lat="46.219891651842616" lon="12.752708104737989"><ele>339.0</ele><time>2026-03-22T08:38:31Z</time></trkpt><trkpt lat="46.219895293577395" lon="12.752855733802354"><ele>339.0</ele><time>2026-03-22T08:38:32Z</time></trkpt><trkpt lat="46.21992907285284" lon="12.753011901077736"><ele>339.0</ele><time>2026-03-22T08:38:33Z</time></trkpt><trkpt lat="46.21998759890045" lon="12.753203069040158"><ele>338.5</ele><time>2026-03-22T08:38:34Z</time></trkpt><trkpt lat="46.22005590882334" lon="12.753435458355014"><ele>338.0</ele><time>2026-03-22T08:38:35Z</time></trkpt><trkpt lat="46.220099783159036" lon="12.753609133575205"><ele>337.5</ele><time>2026-03-22T08:38:36Z</time></trkpt><trkpt lat="46.22014316912356" lon="12.753738529873596"><ele>337.0</ele><time>2026-03-22T08:38:37Z</time></trkpt><trkpt lat="46.22021673576578" lon="12.753854481494557"><ele>332.0</ele><time>2026-03-22T08:38:38Z</time></trkpt><trkpt lat="46.22033041657787" lon="12.753984480947734"><ele>327.0</ele><time>2026-03-22T08:38:39Z</time></trkpt><trkpt lat="46.22045666752196" lon="12.754154470427885"><ele>322.0</ele><time>2026-03-22T08:38:40Z</time></trkpt><trkpt lat="46.22054779650965" lon="12.754314001447904"><ele>315.66666666666663</ele><time>2026-03-22T08:38:41Z</time></trkpt><trkpt lat="46.22061350822976" lon="12.75447792386683"><ele>309.3333333333333</ele><time>2026-03-22T08:38:42Z</time></trkpt><trkpt lat="46.220675481609355" lon="12.754693229227595"><ele>303.0</ele><time>2026-03-22T08:38:43Z</time></trkpt><trkpt lat="46.220745379294" lon="12.754980828460525"><ele>311.25</ele><time>2026-03-22T08:38:44Z</time></trkpt><trkpt lat="46.22080948721441" lon="12.755218736768072"><ele>319.5</ele><time>2026-03-22T08:38:45Z</time></trkpt><trkpt lat="46.220859366352215" lon="12.755398530679262"><ele>327.75</ele><time>2026-03-22T08:38:46Z</time></trkpt><trkpt lat="46.2208787297537" lon="12.755522743287148"><ele>336.0</ele><time>2026-03-22T08:38:47Z</time></trkpt><trkpt lat="46.220874629090446" lon="12.755620978633752"><ele>336.0</ele><time>2026-03-22T08:38:48Z</time></trkpt><trkpt lat="46.220908411368285" lon="12.75572955958927"><ele>336.0</ele><time>2026-03-22T08:38:50Z</time></trkpt><trkpt lat="46.2210364197868" lon="12.756103991329198"><ele>336.0</ele><time>2026-03-22T08:38:51Z</time></trkpt><trkpt lat="46.22111396679209" lon="12.756116642741206"><ele>336.0</ele><time>2026-03-22T08:38:52Z</time></trkpt><trkpt lat="46.221217767285395" lon="12.756084920529362"><ele>336.0</ele><time>2026-03-22T08:38:53Z</time></trkpt><trkpt lat="46.22135300018314" lon="12.756013182024281"><ele>336.0</ele><time>2026-03-22T08:38:54Z</time></trkpt><trkpt lat="46.22152994063486" lon="12.755916327778996"><ele>336.0</ele><time>2026-03-22T08:38:55Z</time></trkpt><trkpt lat="46.221738776091335" lon="12.755799395551229"><ele>337.3333333333333</ele><time>2026-03-22T08:38:56Z</time></trkpt><trkpt lat="46.2219153723635" lon="12.755706948841281"><ele>338.66666666666663</ele><time>2026-03-22T08:38:57Z</time></trkpt><trkpt lat="46.222070266520234" lon="12.75562844744968"><ele>340.0</ele><time>2026-03-22T08:38:58Z</time></trkpt><trkpt lat="46.22221408716271" lon="12.755557184969442"><ele>335.66666666666663</ele><time>2026-03-22T08:38:59Z</time></trkpt><trkpt lat="46.222345170946596" lon="12.755486064483703"><ele>331.3333333333333</ele><time>2026-03-22T08:39:00Z</time></trkpt><trkpt lat="46.22247460117893" lon="12.75537994444846"><ele>327.0</ele><time>2026-03-22T08:39:01Z</time></trkpt><trkpt lat="46.22264045296956" lon="12.755246596606607"><ele>331.75</ele><time>2026-03-22T08:39:02Z</time></trkpt><trkpt lat="46.22275666881864" lon="12.755117385262903"><ele>336.5</ele><time>2026-03-22T08:39:03Z</time></trkpt><trkpt lat="46.22287528806605" lon="12.755018766234077"><ele>341.25</ele><time>2026-03-22T08:39:04Z</time></trkpt><trkpt lat="46.22298698658107" lon="12.754947731122106"><ele>346.0</ele><time>2026-03-22T08:39:05Z</time></trkpt><trkpt lat="46.22308728921867" lon="12.754890501562777"><ele>342.8333333333333</ele><time>2026-03-22T08:39:06Z</time></trkpt><trkpt lat="46.223185255248595" lon="12.75484270245963"><ele>339.66666666666663</ele><time>2026-03-22T08:39:06.999Z</time></trkpt><trkpt lat="46.22327350585734" lon="12.754799690609"><ele>336.5</ele><time>2026-03-22T08:39:07.999Z</time></trkpt><trkpt lat="46.22335613608933" lon="12.754745555068313"><ele>333.3333333333333</ele><time>2026-03-22T08:39:08.999Z</time></trkpt><trkpt lat="46.223431574128384" lon="12.754687501228384"><ele>330.1666666666667</ele><time>2026-03-22T08:39:09.999Z</time></trkpt><trkpt lat="46.22349391111416" lon="12.754637821870647"><ele>327.0</ele><time>2026-03-22T08:39:10.999Z</time></trkpt><trkpt lat="46.22355338367432" lon="12.754577742250234"><ele>327.0</ele><time>2026-03-22T08:39:11.999Z</time></trkpt><trkpt lat="46.22360196485564" lon="12.754514797625891"><ele>327.0</ele><time>2026-03-22T08:39:12.999Z</time></trkpt><trkpt lat="46.22366515620622" lon="12.754410937247616"><ele>327.0</ele><time>2026-03-22T08:39:14.999Z</time></trkpt><trkpt lat="46.22375418377163" lon="12.754318690049592"><ele>327.0</ele><time>2026-03-22T08:39:16.999Z</time></trkpt><trkpt lat="46.22384575846581" lon="12.754246735449478"><ele>327.0</ele><time>2026-03-22T08:39:18.999Z</time></trkpt><trkpt lat="46.223912927830376" lon="12.754210443241256"><ele>327.0</ele><time>2026-03-22T08:39:20.999Z</time></trkpt><trkpt lat="46.22395828977993" lon="12.754323987726297"><ele>327.0</ele><time>2026-03-22T08:39:23.999Z</time></trkpt><trkpt lat="46.22394038095242" lon="12.754440966355732"><ele>327.0</ele><time>2026-03-22T08:39:25.999Z</time></trkpt><trkpt lat="46.22389859574803" lon="12.754598623143046"><ele>327.0</ele><time>2026-03-22T08:39:27.999Z</time></trkpt><trkpt lat="46.22386858024782" lon="12.75469092336942"><ele>327.0</ele><time>2026-03-22T08:39:28.999Z</time></trkpt><trkpt lat="46.2238377479085" lon="12.75477392069615"><ele>327.0</ele><time>2026-03-22T08:39:29.999Z</time></trkpt><trkpt lat="46.223816865533635" lon="12.754938033265178"><ele>327.0</ele><time>2026-03-22T08:39:31.999Z</time></trkpt><trkpt lat="46.22377970513287" lon="12.755064565401758"><ele>327.0</ele><time>2026-03-22T08:39:33.999Z</time></trkpt><trkpt lat="46.22369027456942" lon="12.755176822183353"><ele>327.0</ele><time>2026-03-22T08:39:35.999Z</time></trkpt><trkpt lat="46.22361709851952" lon="12.755252924079588"><ele>327.0</ele><time>2026-03-22T08:39:37.999Z</time></trkpt><trkpt lat="46.22362016672889" lon="12.755356910950772"><ele>327.0</ele><time>2026-03-22T08:39:39.999Z</time></trkpt><trkpt lat="46.223639441603375" lon="12.755489498342188"><ele>326.1666666666667</ele><time>2026-03-22T08:39:41.999Z</time></trkpt><trkpt lat="46.223687626322494" lon="12.755569368640627"><ele>325.3333333333333</ele><time>2026-03-22T08:39:43.999Z</time></trkpt><trkpt lat="46.223731911967306" lon="12.755673867892824"><ele>324.5</ele><time>2026-03-22T08:39:45.999Z</time></trkpt><trkpt lat="46.223794880251006" lon="12.755753070976944"><ele>323.66666666666663</ele><time>2026-03-22T08:39:48.999Z</time></trkpt><trkpt lat="46.22388254428362" lon="12.75575149569674"><ele>322.8333333333333</ele><time>2026-03-22T08:39:50.999Z</time></trkpt><trkpt lat="46.223988431305244" lon="12.755807534396105"><ele>322.0</ele><time>2026-03-22T08:39:52.999Z</time></trkpt><trkpt lat="46.22405582899957" lon="12.75589212147753"><ele>322.0</ele><time>2026-03-22T08:39:53.999Z</time></trkpt><trkpt lat="46.22414848988925" lon="12.755984034862914"><ele>322.0</ele><time>2026-03-22T08:39:54.999Z</time></trkpt><trkpt lat="46.2242201643254" lon="12.756032847896721"><ele>322.0</ele><time>2026-03-22T08:39:55.999Z</time></trkpt><trkpt lat="46.224280030105845" lon="12.756107989490289"><ele>322.0</ele><time>2026-03-22T08:39:56.999Z</time></trkpt><trkpt lat="46.22433525975325" lon="12.756163575194151"><ele>322.0</ele><time>2026-03-22T08:39:57.999Z</time></trkpt><trkpt lat="46.2243853737044" lon="12.756227682318105"><ele>322.0</ele><time>2026-03-22T08:39:58.999Z</time></trkpt><trkpt lat="46.22443604947823" lon="12.756288283905398"><ele>321.6</ele><time>2026-03-22T08:39:59.999Z</time></trkpt><trkpt lat="46.22448131257155" lon="12.756360391737442"><ele>321.20000000000005</ele><time>2026-03-22T08:40:00.999Z</time></trkpt><trkpt lat="46.22455590808449" lon="12.756474949384073"><ele>320.8</ele><time>2026-03-22T08:40:02.999Z</time></trkpt><trkpt lat="46.22462016678202" lon="12.756593134762548"><ele>320.4</ele><time>2026-03-22T08:40:04.999Z</time></trkpt><trkpt lat="46.224627557519746" lon="12.756761051177715"><ele>320.0</ele><time>2026-03-22T08:40:07Z</time></trkpt><trkpt lat="46.224586921185505" lon="12.75685727187417"><ele>318.5</ele><time>2026-03-22T08:40:08Z</time></trkpt><trkpt lat="46.22452102813901" lon="12.756978201426463"><ele>317.0</ele><time>2026-03-22T08:40:09Z</time></trkpt><trkpt lat="46.224438111550164" lon="12.757104662780774"><ele>315.5</ele><time>2026-03-22T08:40:10Z</time></trkpt><trkpt lat="46.224360679203606" lon="12.757242664511189"><ele>314.0</ele><time>2026-03-22T08:40:11Z</time></trkpt><trkpt lat="46.224279543748125" lon="12.757388878611954"><ele>314.0</ele><time>2026-03-22T08:40:12Z</time></trkpt><trkpt lat="46.22419518907873" lon="12.757533701762947"><ele>314.0</ele><time>2026-03-22T08:40:13Z</time></trkpt><trkpt lat="46.22411072841643" lon="12.75765797060644"><ele>314.0</ele><time>2026-03-22T08:40:14Z</time></trkpt><trkpt lat="46.224028162888565" lon="12.757768874070686"><ele>314.0</ele><time>2026-03-22T08:40:15Z</time></trkpt><trkpt lat="46.22394329250174" lon="12.757874239440957"><ele>313.2</ele><time>2026-03-22T08:40:16Z</time></trkpt><trkpt lat="46.223858887499546" lon="12.757962525636387"><ele>312.4</ele><time>2026-03-22T08:40:17Z</time></trkpt><trkpt lat="46.22377496035575" lon="12.75804595851893"><ele>311.6</ele><time>2026-03-22T08:40:18Z</time></trkpt><trkpt lat="46.22368598864233" lon="12.75812500184281"><ele>310.8</ele><time>2026-03-22T08:40:19Z</time></trkpt><trkpt lat="46.223580598367306" lon="12.758201957578997"><ele>310.0</ele><time>2026-03-22T08:40:20Z</time></trkpt><trkpt lat="46.22346413127925" lon="12.758260638082458"><ele>310.0</ele><time>2026-03-22T08:40:21Z</time></trkpt><trkpt lat="46.22333935897767" lon="12.758312953022239"><ele>310.0</ele><time>2026-03-22T08:40:22Z</time></trkpt><trkpt lat="46.22321323438103" lon="12.75837168892505"><ele>310.0</ele><time>2026-03-22T08:40:23Z</time></trkpt><trkpt lat="46.22309692201677" lon="12.758422724643207"><ele>310.0</ele><time>2026-03-22T08:40:24Z</time></trkpt><trkpt lat="46.22298707324704" lon="12.758476145180797"><ele>303.66666666666663</ele><time>2026-03-22T08:40:25Z</time></trkpt><trkpt lat="46.22285153065692" lon="12.758538998995064"><ele>297.3333333333333</ele><time>2026-03-22T08:40:26Z</time></trkpt><trkpt lat="46.22267987498861" lon="12.75861042879543"><ele>291.0</ele><time>2026-03-22T08:40:27Z</time></trkpt><trkpt lat="46.22251113658978" lon="12.758667628899317"><ele>291.0</ele><time>2026-03-22T08:40:28Z</time></trkpt><trkpt lat="46.22235486021796" lon="12.758686644262585"><ele>291.0</ele><time>2026-03-22T08:40:29Z</time></trkpt><trkpt lat="46.22219983071547" lon="12.758696199867149"><ele>291.0</ele><time>2026-03-22T08:40:30Z</time></trkpt><trkpt lat="46.22204463724452" lon="12.75870558147161"><ele>290.6666666666667</ele><time>2026-03-22T08:40:31Z</time></trkpt><trkpt lat="46.22187955067398" lon="12.758711857695655"><ele>290.33333333333337</ele><time>2026-03-22T08:40:32Z</time></trkpt><trkpt lat="46.22171891295431" lon="12.75870929131552"><ele>290.0</ele><time>2026-03-22T08:40:33Z</time></trkpt><trkpt lat="46.22157015796495" lon="12.75871019231548"><ele>288.5</ele><time>2026-03-22T08:40:34Z</time></trkpt><trkpt lat="46.221437976387755" lon="12.758698659469712"><ele>287.0</ele><time>2026-03-22T08:40:35Z</time></trkpt><trkpt lat="46.221325161870126" lon="12.758698572137641"><ele>285.5</ele><time>2026-03-22T08:40:36Z</time></trkpt><trkpt lat="46.22123272826084" lon="12.758696354664277"><ele>284.0</ele><time>2026-03-22T08:40:37Z</time></trkpt><trkpt lat="46.221125785279284" lon="12.758749165224184"><ele>284.0</ele><time>2026-03-22T08:40:39Z</time></trkpt><trkpt lat="46.22111704983551" lon="12.758909911100591"><ele>284.0</ele><time>2026-03-22T08:40:41Z</time></trkpt><trkpt lat="46.221233928020304" lon="12.758982384310649"><ele>284.0</ele><time>2026-03-22T08:40:43Z</time></trkpt><trkpt lat="46.22135623308546" lon="12.758990677695971"><ele>284.0</ele><time>2026-03-22T08:40:44Z</time></trkpt><trkpt lat="46.22150488749239" lon="12.75901128650943"><ele>285.5</ele><time>2026-03-22T08:40:45Z</time></trkpt><trkpt lat="46.22163644941278" lon="12.759069092849277"><ele>287.0</ele><time>2026-03-22T08:40:46Z</time></trkpt><trkpt lat="46.22176918220458" lon="12.759151870230811"><ele>288.5</ele><time>2026-03-22T08:40:47Z</time></trkpt><trkpt lat="46.22189737401453" lon="12.75921250186905"><ele>290.0</ele><time>2026-03-22T08:40:48Z</time></trkpt><trkpt lat="46.22202164040571" lon="12.75924648978123"><ele>290.0</ele><time>2026-03-22T08:40:49Z</time></trkpt><trkpt lat="46.222163190428965" lon="12.75925933928853"><ele>290.0</ele><time>2026-03-22T08:40:50Z</time></trkpt><trkpt lat="46.222323598522" lon="12.759254762535063"><ele>290.0</ele><time>2026-03-22T08:40:51Z</time></trkpt><trkpt lat="46.222521616152335" lon="12.759249612781213"><ele>290.33333333333337</ele><time>2026-03-22T08:40:52Z</time></trkpt><trkpt lat="46.22272429986495" lon="12.759252593100978"><ele>290.6666666666667</ele><time>2026-03-22T08:40:53Z</time></trkpt><trkpt lat="46.22290030444665" lon="12.759263361768223"><ele>291.0</ele><time>2026-03-22T08:40:54Z</time></trkpt><trkpt lat="46.223064341244424" lon="12.759256666116649"><ele>290.3333333333333</ele><time>2026-03-22T08:40:55Z</time></trkpt><trkpt lat="46.22322400468568" lon="12.759290426870917"><ele>289.66666666666663</ele><time>2026-03-22T08:40:56Z</time></trkpt><trkpt lat="46.22339011732982" lon="12.759311196087271"><ele>289.0</ele><time>2026-03-22T08:40:57Z</time></trkpt><trkpt lat="46.223581262658925" lon="12.759369681783177"><ele>281.66666666666663</ele><time>2026-03-22T08:40:58Z</time></trkpt><trkpt lat="46.22376104158612" lon="12.759422057241604"><ele>274.3333333333333</ele><time>2026-03-22T08:40:59Z</time></trkpt><trkpt lat="46.22391057220074" lon="12.759479254320519"><ele>267.0</ele><time>2026-03-22T08:41:00Z</time></trkpt><trkpt lat="46.22402778367551" lon="12.759540457369196"><ele>266.75</ele><time>2026-03-22T08:41:01Z</time></trkpt><trkpt lat="46.224130131305984" lon="12.75958756760598"><ele>266.5</ele><time>2026-03-22T08:41:02Z</time></trkpt><trkpt lat="46.22422520313024" lon="12.759663016804419"><ele>266.25</ele><time>2026-03-22T08:41:03Z</time></trkpt><trkpt lat="46.22432967129658" lon="12.759782234839768"><ele>266.0</ele><time>2026-03-22T08:41:04Z</time></trkpt><trkpt lat="46.224472397253365" lon="12.759945424127809"><ele>266.0</ele><time>2026-03-22T08:41:05Z</time></trkpt><trkpt lat="46.224615612242204" lon="12.760108946610918"><ele>266.0</ele><time>2026-03-22T08:41:06Z</time></trkpt><trkpt lat="46.22477381746716" lon="12.7602716376845"><ele>266.0</ele><time>2026-03-22T08:41:07Z</time></trkpt><trkpt lat="46.22490597732418" lon="12.760421696715058"><ele>267.5</ele><time>2026-03-22T08:41:08Z</time></trkpt><trkpt lat="46.22502494459396" lon="12.760560496005368"><ele>269.0</ele><time>2026-03-22T08:41:09Z</time></trkpt><trkpt lat="46.225127144482414" lon="12.760670682946863"><ele>270.5</ele><time>2026-03-22T08:41:10Z</time></trkpt><trkpt lat="46.22520774085826" lon="12.76072915721173"><ele>272.0</ele><time>2026-03-22T08:41:11Z</time></trkpt><trkpt lat="46.225297375297465" lon="12.760735676483167"><ele>272.0</ele><time>2026-03-22T08:41:12Z</time></trkpt><trkpt lat="46.225433648428854" lon="12.76071030794108"><ele>272.0</ele><time>2026-03-22T08:41:13Z</time></trkpt><trkpt lat="46.225550899995845" lon="12.760669134206474"><ele>272.0</ele><time>2026-03-22T08:41:14Z</time></trkpt><trkpt lat="46.2256494552766" lon="12.760663650228338"><ele>272.0</ele><time>2026-03-22T08:41:15Z</time></trkpt><trkpt lat="46.22574297288421" lon="12.760705818765478"><ele>274.4</ele><time>2026-03-22T08:41:16Z</time></trkpt><trkpt lat="46.2258621705673" lon="12.760782631251798"><ele>276.79999999999995</ele><time>2026-03-22T08:41:16.999Z</time></trkpt><trkpt lat="46.225980037908734" lon="12.760879447964125"><ele>279.2</ele><time>2026-03-22T08:41:17.999Z</time></trkpt><trkpt lat="46.22604441462623" lon="12.760974342447534"><ele>281.59999999999997</ele><time>2026-03-22T08:41:18.999Z</time></trkpt><trkpt lat="46.22608236702288" lon="12.761067872351772"><ele>284.0</ele><time>2026-03-22T08:41:19.999Z</time></trkpt><trkpt lat="46.226084723055365" lon="12.761169475994357"><ele>286.0</ele><time>2026-03-22T08:41:20.999Z</time></trkpt><trkpt lat="46.22604033344283" lon="12.761248449052678"><ele>288.0</ele><time>2026-03-22T08:41:21.999Z</time></trkpt><trkpt lat="46.22595325941767" lon="12.761313509269668"><ele>290.0</ele><time>2026-03-22T08:41:22.999Z</time></trkpt><trkpt lat="46.22579749045121" lon="12.761407873197106"><ele>292.0</ele><time>2026-03-22T08:41:23.999Z</time></trkpt><trkpt lat="46.225670072911264" lon="12.761470149356443"><ele>291.2</ele><time>2026-03-22T08:41:24.999Z</time></trkpt><trkpt lat="46.22556766930532" lon="12.761501292644938"><ele>290.4</ele><time>2026-03-22T08:41:25.999Z</time></trkpt><trkpt lat="46.225468426427405" lon="12.761463789212469"><ele>289.6</ele><time>2026-03-22T08:41:26.999Z</time></trkpt><trkpt lat="46.225359099910655" lon="12.761388556873674"><ele>288.8</ele><time>2026-03-22T08:41:27.999Z</time></trkpt><trkpt lat="46.225272531224896" lon="12.761349029936255"><ele>288.0</ele><time>2026-03-22T08:41:28.999Z</time></trkpt><trkpt lat="46.22520297318936" lon="12.761364964197277"><ele>288.0</ele><time>2026-03-22T08:41:29.999Z</time></trkpt><trkpt lat="46.22515366361373" lon="12.761433271771953"><ele>288.0</ele><time>2026-03-22T08:41:30.999Z</time></trkpt><trkpt lat="46.22511747607317" lon="12.76153424538196"><ele>288.0</ele><time>2026-03-22T08:41:31.999Z</time></trkpt><trkpt lat="46.22513030936962" lon="12.761643164969435"><ele>288.0</ele><time>2026-03-22T08:41:32.999Z</time></trkpt><trkpt lat="46.225168922951354" lon="12.761733599461044"><ele>288.0</ele><time>2026-03-22T08:41:33.999Z</time></trkpt><trkpt lat="46.225243093132434" lon="12.76180374219102"><ele>288.0</ele><time>2026-03-22T08:41:34.999Z</time></trkpt><trkpt lat="46.225368362357116" lon="12.761870611431947"><ele>293.3333333333333</ele><time>2026-03-22T08:41:35.999Z</time></trkpt><trkpt lat="46.225534455798154" lon="12.761945066930265"><ele>298.66666666666663</ele><time>2026-03-22T08:41:36.999Z</time></trkpt><trkpt lat="46.22571316850435" lon="12.7620251209163"><ele>304.0</ele><time>2026-03-22T08:41:37.999Z</time></trkpt><trkpt lat="46.22590806421327" lon="12.762131048622928"><ele>304.5</ele><time>2026-03-22T08:41:38.999Z</time></trkpt><trkpt lat="46.226069165969996" lon="12.762232534635887"><ele>305.0</ele><time>2026-03-22T08:41:39.999Z</time></trkpt><trkpt lat="46.226198410429724" lon="12.762297534017083"><ele>305.5</ele><time>2026-03-22T08:41:40.999Z</time></trkpt><trkpt lat="46.226294613578105" lon="12.762317269409813"><ele>306.0</ele><time>2026-03-22T08:41:41.999Z</time></trkpt><trkpt lat="46.22636982505094" lon="12.762280501628366"><ele>306.0</ele><time>2026-03-22T08:41:42.999Z</time></trkpt><trkpt lat="46.22646119134836" lon="12.762152112592215"><ele>306.0</ele><time>2026-03-22T08:41:43.999Z</time></trkpt><trkpt lat="46.22657425225361" lon="12.761976406816926"><ele>306.0</ele><time>2026-03-22T08:41:44.999Z</time></trkpt><trkpt lat="46.22669576841998" lon="12.761833849878894"><ele>305.2</ele><time>2026-03-22T08:41:45.999Z</time></trkpt><trkpt lat="46.226800523342874" lon="12.761738261275175"><ele>304.40000000000003</ele><time>2026-03-22T08:41:46.999Z</time></trkpt><trkpt lat="46.22690087476659" lon="12.761674956055895"><ele>303.6</ele><time>2026-03-22T08:41:47.999Z</time></trkpt><trkpt lat="46.22697627472757" lon="12.761636913216742"><ele>302.8</ele><time>2026-03-22T08:41:48.999Z</time></trkpt><trkpt lat="46.22704494496976" lon="12.761712160077705"><ele>302.0</ele><time>2026-03-22T08:41:51.999Z</time></trkpt><trkpt lat="46.227035965258885" lon="12.761812685823857"><ele>305.25</ele><time>2026-03-22T08:41:53.999Z</time></trkpt><trkpt lat="46.226988539444676" lon="12.761926522169153"><ele>308.5</ele><time>2026-03-22T08:41:54.999Z</time></trkpt><trkpt lat="46.22688621972256" lon="12.762076663571875"><ele>311.75</ele><time>2026-03-22T08:41:55.999Z</time></trkpt><trkpt lat="46.22677303357763" lon="12.762281895278356"><ele>315.0</ele><time>2026-03-22T08:41:56.999Z</time></trkpt><trkpt lat="46.22667818227245" lon="12.762426213990922"><ele>315.0</ele><time>2026-03-22T08:41:57.999Z</time></trkpt><trkpt lat="46.22657582933635" lon="12.762562869586313"><ele>315.0</ele><time>2026-03-22T08:41:58.999Z</time></trkpt><trkpt lat="46.226465615539794" lon="12.762669171019056"><ele>315.0</ele><time>2026-03-22T08:41:59.999Z</time></trkpt><trkpt lat="46.22634059685079" lon="12.7627410167932"><ele>315.0</ele><time>2026-03-22T08:42:00.999Z</time></trkpt><trkpt lat="46.22621202096344" lon="12.762798562499839"><ele>317.25</ele><time>2026-03-22T08:42:01.999Z</time></trkpt><trkpt lat="46.22607299633132" lon="12.762834430693019"><ele>319.5</ele><time>2026-03-22T08:42:02.999Z</time></trkpt><trkpt lat="46.22593169232437" lon="12.762861072194992"><ele>321.75</ele><time>2026-03-22T08:42:03.999Z</time></trkpt><trkpt lat="46.22579449878254" lon="12.762900044563056"><ele>324.0</ele><time>2026-03-22T08:42:04.999Z</time></trkpt><trkpt lat="46.22565067824365" lon="12.762938787894802"><ele>322.25</ele><time>2026-03-22T08:42:05.999Z</time></trkpt><trkpt lat="46.225512836062855" lon="12.762970379166333"><ele>320.5</ele><time>2026-03-22T08:42:06.999Z</time></trkpt><trkpt lat="46.22539310739007" lon="12.76300084851545"><ele>318.75</ele><time>2026-03-22T08:42:07.999Z</time></trkpt><trkpt lat="46.22528607965029" lon="12.763023982476604"><ele>317.0</ele><time>2026-03-22T08:42:08.999Z</time></trkpt><trkpt lat="46.225185872118885" lon="12.76305237283318"><ele>317.0</ele><time>2026-03-22T08:42:09.999Z</time></trkpt><trkpt lat="46.22508991100662" lon="12.76309474421983"><ele>317.0</ele><time>2026-03-22T08:42:10.999Z</time></trkpt><trkpt lat="46.224998841252834" lon="12.763146313131507"><ele>317.0</ele><time>2026-03-22T08:42:11.999Z</time></trkpt><trkpt lat="46.22492086538918" lon="12.763213603849119"><ele>317.0</ele><time>2026-03-22T08:42:13Z</time></trkpt><trkpt lat="46.22485693278677" lon="12.763297793752173"><ele>317.0</ele><time>2026-03-22T08:42:14Z</time></trkpt><trkpt lat="46.22480582376625" lon="12.763392884711951"><ele>314.6</ele><time>2026-03-22T08:42:15Z</time></trkpt><trkpt lat="46.22476034513095" lon="12.763493307624682"><ele>312.2</ele><time>2026-03-22T08:42:16Z</time></trkpt><trkpt lat="46.22471797152872" lon="12.763597203700131"><ele>309.8</ele><time>2026-03-22T08:42:17Z</time></trkpt><trkpt lat="46.22468135451839" lon="12.763715122625412"><ele>307.4</ele><time>2026-03-22T08:42:18Z</time></trkpt><trkpt lat="46.224643418217276" lon="12.763842827995326"><ele>305.0</ele><time>2026-03-22T08:42:19Z</time></trkpt><trkpt lat="46.22459974226955" lon="12.763973047777963"><ele>305.0</ele><time>2026-03-22T08:42:20Z</time></trkpt><trkpt lat="46.22456256757333" lon="12.764105479831752"><ele>305.0</ele><time>2026-03-22T08:42:21Z</time></trkpt><trkpt lat="46.224529630931436" lon="12.764246042282627"><ele>305.0</ele><time>2026-03-22T08:42:22Z</time></trkpt><trkpt lat="46.22450324165234" lon="12.7643907540445"><ele>305.0</ele><time>2026-03-22T08:42:23Z</time></trkpt><trkpt lat="46.22449024500597" lon="12.764546173543119"><ele>305.0</ele><time>2026-03-22T08:42:24Z</time></trkpt><trkpt lat="46.224481717475456" lon="12.764702562528592"><ele>305.6</ele><time>2026-03-22T08:42:25Z</time></trkpt><trkpt lat="46.22447143473121" lon="12.764853768994733"><ele>306.2</ele><time>2026-03-22T08:42:26Z</time></trkpt><trkpt lat="46.22444775508654" lon="12.764991008707467"><ele>306.8</ele><time>2026-03-22T08:42:27Z</time></trkpt><trkpt lat="46.22440543545576" lon="12.765115285563695"><ele>307.4</ele><time>2026-03-22T08:42:28Z</time></trkpt><trkpt lat="46.2243513239843" lon="12.765239299352217"><ele>308.0</ele><time>2026-03-22T08:42:29Z</time></trkpt><trkpt lat="46.22428942601643" lon="12.765358185775977"><ele>310.4</ele><time>2026-03-22T08:42:30Z</time></trkpt><trkpt lat="46.224229349617374" lon="12.76547641385293"><ele>312.8</ele><time>2026-03-22T08:42:31Z</time></trkpt><trkpt lat="46.22416794212268" lon="12.765600614281924"><ele>315.2</ele><time>2026-03-22T08:42:32Z</time></trkpt><trkpt lat="46.22410843853399" lon="12.765724844220417"><ele>317.6</ele><time>2026-03-22T08:42:33Z</time></trkpt><trkpt lat="46.22405158601201" lon="12.765851050593543"><ele>320.0</ele><time>2026-03-22T08:42:34Z</time></trkpt><trkpt lat="46.22400157641128" lon="12.765974767408771"><ele>317.6</ele><time>2026-03-22T08:42:35Z</time></trkpt><trkpt lat="46.223957424990175" lon="12.766085192991378"><ele>315.2</ele><time>2026-03-22T08:42:36Z</time></trkpt><trkpt lat="46.22390526331874" lon="12.766184219720158"><ele>312.8</ele><time>2026-03-22T08:42:37Z</time></trkpt><trkpt lat="46.22383568015819" lon="12.7662726352567"><ele>310.4</ele><time>2026-03-22T08:42:38Z</time></trkpt><trkpt lat="46.223750383072115" lon="12.766357751217122"><ele>308.0</ele><time>2026-03-22T08:42:39Z</time></trkpt><trkpt lat="46.22365839462366" lon="12.766443938405422"><ele>308.0</ele><time>2026-03-22T08:42:40Z</time></trkpt><trkpt lat="46.22356905982409" lon="12.7665431746869"><ele>308.0</ele><time>2026-03-22T08:42:41Z</time></trkpt><trkpt lat="46.22348826600934" lon="12.76665116750191"><ele>308.0</ele><time>2026-03-22T08:42:42Z</time></trkpt><trkpt lat="46.22341500996197" lon="12.766764672295265"><ele>308.0</ele><time>2026-03-22T08:42:43Z</time></trkpt><trkpt lat="46.2233475721229" lon="12.766880323328314"><ele>308.0</ele><time>2026-03-22T08:42:44Z</time></trkpt><trkpt lat="46.2232798131274" lon="12.767004482737896"><ele>309.0</ele><time>2026-03-22T08:42:45Z</time></trkpt><trkpt lat="46.223212488540554" lon="12.767139759006108"><ele>310.0</ele><time>2026-03-22T08:42:46Z</time></trkpt><trkpt lat="46.22314399285169" lon="12.767279699516523"><ele>311.0</ele><time>2026-03-22T08:42:47Z</time></trkpt><trkpt lat="46.22307722512727" lon="12.767429084752756"><ele>312.0</ele><time>2026-03-22T08:42:48Z</time></trkpt><trkpt lat="46.223011069396485" lon="12.767582743657025"><ele>309.75</ele><time>2026-03-22T08:42:49Z</time></trkpt><trkpt lat="46.22294427005939" lon="12.767737996262202"><ele>307.5</ele><time>2026-03-22T08:42:50Z</time></trkpt><trkpt lat="46.22287790040474" lon="12.76788567072439"><ele>305.25</ele><time>2026-03-22T08:42:51Z</time></trkpt><trkpt lat="46.222817072219954" lon="12.768031815782232"><ele>303.0</ele><time>2026-03-22T08:42:52Z</time></trkpt><trkpt lat="46.222758706965436" lon="12.768176541658473"><ele>303.0</ele><time>2026-03-22T08:42:53Z</time></trkpt><trkpt lat="46.22270335260318" lon="12.768320876081507"><ele>303.0</ele><time>2026-03-22T08:42:54Z</time></trkpt><trkpt lat="46.22266219694488" lon="12.768465152323841"><ele>303.0</ele><time>2026-03-22T08:42:55Z</time></trkpt><trkpt lat="46.222629460981864" lon="12.768605399233154"><ele>303.0</ele><time>2026-03-22T08:42:56Z</time></trkpt><trkpt lat="46.22260230714984" lon="12.768750144958396"><ele>303.0</ele><time>2026-03-22T08:42:57Z</time></trkpt><trkpt lat="46.22258032253066" lon="12.768908073911389"><ele>303.5</ele><time>2026-03-22T08:42:58Z</time></trkpt><trkpt lat="46.22255765217346" lon="12.769073813467672"><ele>304.0</ele><time>2026-03-22T08:42:59Z</time></trkpt><trkpt lat="46.22253361026988" lon="12.769241968032464"><ele>304.5</ele><time>2026-03-22T08:43:00Z</time></trkpt><trkpt lat="46.22250410204395" lon="12.769407280945234"><ele>305.0</ele><time>2026-03-22T08:43:01Z</time></trkpt><trkpt lat="46.22246608401545" lon="12.7695634326808"><ele>307.0</ele><time>2026-03-22T08:43:02Z</time></trkpt><trkpt lat="46.222416025700085" lon="12.769711616496158"><ele>309.0</ele><time>2026-03-22T08:43:03Z</time></trkpt><trkpt lat="46.22235514426205" lon="12.769856273550381"><ele>311.0</ele><time>2026-03-22T08:43:04Z</time></trkpt><trkpt lat="46.222292296805804" lon="12.770001825381154"><ele>313.0</ele><time>2026-03-22T08:43:05Z</time></trkpt><trkpt lat="46.22222938340515" lon="12.770152372121114"><ele>309.75</ele><time>2026-03-22T08:43:06Z</time></trkpt><trkpt lat="46.22216317794257" lon="12.77029643554528"><ele>306.5</ele><time>2026-03-22T08:43:07Z</time></trkpt><trkpt lat="46.222101243781545" lon="12.770451340484666"><ele>303.25</ele><time>2026-03-22T08:43:08Z</time></trkpt><trkpt lat="46.22203596950693" lon="12.770602740449295"><ele>300.0</ele><time>2026-03-22T08:43:09Z</time></trkpt><trkpt lat="46.22196599263164" lon="12.770746369408565"><ele>300.0</ele><time>2026-03-22T08:43:10Z</time></trkpt><trkpt lat="46.221897383622604" lon="12.770877972588401"><ele>300.0</ele><time>2026-03-22T08:43:11Z</time></trkpt><trkpt lat="46.221838922647926" lon="12.771002575651298"><ele>300.0</ele><time>2026-03-22T08:43:12Z</time></trkpt><trkpt lat="46.221786033362214" lon="12.771122920274019"><ele>300.0</ele><time>2026-03-22T08:43:13Z</time></trkpt><trkpt lat="46.221738825277676" lon="12.771234589776126"><ele>300.0</ele><time>2026-03-22T08:43:14Z</time></trkpt><trkpt lat="46.221696538262925" lon="12.771338149402647"><ele>300.0</ele><time>2026-03-22T08:43:15Z</time></trkpt><trkpt lat="46.22165264289017" lon="12.771442564824945"><ele>300.0</ele><time>2026-03-22T08:43:16Z</time></trkpt><trkpt lat="46.22161078060883" lon="12.771547881062485"><ele>300.0</ele><time>2026-03-22T08:43:17Z</time></trkpt><trkpt lat="46.221570111773964" lon="12.771656305994629"><ele>300.0</ele><time>2026-03-22T08:43:17.999Z</time></trkpt><trkpt lat="46.22153790195198" lon="12.771776831954073"><ele>300.0</ele><time>2026-03-22T08:43:18.999Z</time></trkpt><trkpt lat="46.2215256552834" lon="12.771902930332352"><ele>300.0</ele><time>2026-03-22T08:43:19.999Z</time></trkpt><trkpt lat="46.22154471554646" lon="12.772029843194908"><ele>300.0</ele><time>2026-03-22T08:43:20.999Z</time></trkpt><trkpt lat="46.2215847102097" lon="12.772162583828212"><ele>300.0</ele><time>2026-03-22T08:43:21.999Z</time></trkpt><trkpt lat="46.221647236902875" lon="12.772292980505007"><ele>300.0</ele><time>2026-03-22T08:43:22.999Z</time></trkpt><trkpt lat="46.221731168626434" lon="12.77243655552286"><ele>300.0</ele><time>2026-03-22T08:43:23.999Z</time></trkpt><trkpt lat="46.221821137788105" lon="12.772579086487353"><ele>300.0</ele><time>2026-03-22T08:43:24.999Z</time></trkpt><trkpt lat="46.22190503629795" lon="12.772712507323906"><ele>300.0</ele><time>2026-03-22T08:43:25.999Z</time></trkpt><trkpt lat="46.22198548899444" lon="12.772844655530516"><ele>300.0</ele><time>2026-03-22T08:43:26.999Z</time></trkpt><trkpt lat="46.22205465979405" lon="12.772978897606762"><ele>300.0</ele><time>2026-03-22T08:43:27.999Z</time></trkpt><trkpt lat="46.22211850451127" lon="12.773098302010487"><ele>300.0</ele><time>2026-03-22T08:43:28.999Z</time></trkpt><trkpt lat="46.22217346268013" lon="12.773215847954994"><ele>300.0</ele><time>2026-03-22T08:43:29.999Z</time></trkpt><trkpt lat="46.22218787240157" lon="12.773345894717222"><ele>300.0</ele><time>2026-03-22T08:43:30.999Z</time></trkpt><trkpt lat="46.222163381264" lon="12.773453282300098"><ele>300.0</ele><time>2026-03-22T08:43:31.999Z</time></trkpt><trkpt lat="46.222109792112846" lon="12.773544824735325"><ele>300.0</ele><time>2026-03-22T08:43:32.999Z</time></trkpt><trkpt lat="46.222031404602355" lon="12.773600814081888"><ele>300.0</ele><time>2026-03-22T08:43:33.999Z</time></trkpt><trkpt lat="46.22193708168859" lon="12.773615290566934"><ele>305.0</ele><time>2026-03-22T08:43:34.999Z</time></trkpt><trkpt lat="46.22180602527805" lon="12.77359780139417"><ele>310.0</ele><time>2026-03-22T08:43:35.999Z</time></trkpt><trkpt lat="46.221637655698096" lon="12.773567492144256"><ele>315.0</ele><time>2026-03-22T08:43:36.999Z</time></trkpt><trkpt lat="46.22145278229047" lon="12.773540971052705"><ele>312.0</ele><time>2026-03-22T08:43:37.999Z</time></trkpt><trkpt lat="46.22128983094068" lon="12.773484762241665"><ele>309.0</ele><time>2026-03-22T08:43:38.999Z</time></trkpt><trkpt lat="46.22110974755468" lon="12.773382126083634"><ele>306.0</ele><time>2026-03-22T08:43:39.999Z</time></trkpt><trkpt lat="46.220926024486445" lon="12.773286446997638"><ele>306.0</ele><time>2026-03-22T08:43:40.999Z</time></trkpt><trkpt lat="46.22077233730551" lon="12.773217203704105"><ele>306.0</ele><time>2026-03-22T08:43:41.999Z</time></trkpt><trkpt lat="46.220644765628485" lon="12.77317639953792"><ele>306.0</ele><time>2026-03-22T08:43:42.999Z</time></trkpt><trkpt lat="46.220548786211516" lon="12.773170699534825"><ele>306.0</ele><time>2026-03-22T08:43:43.999Z</time></trkpt><trkpt lat="46.22046857700226" lon="12.773207567171196"><ele>307.0</ele><time>2026-03-22T08:43:44.999Z</time></trkpt><trkpt lat="46.22040486692804" lon="12.773290928617492"><ele>308.0</ele><time>2026-03-22T08:43:45.999Z</time></trkpt><trkpt lat="46.22037183313149" lon="12.773406556683824"><ele>309.0</ele><time>2026-03-22T08:43:46.999Z</time></trkpt><trkpt lat="46.22037275371196" lon="12.773565984330618"><ele>310.0</ele><time>2026-03-22T08:43:47.999Z</time></trkpt><trkpt lat="46.22039204660813" lon="12.773752538604285"><ele>311.0</ele><time>2026-03-22T08:43:48.999Z</time></trkpt><trkpt lat="46.22039450030372" lon="12.773929703879283"><ele>311.0</ele><time>2026-03-22T08:43:49.999Z</time></trkpt><trkpt lat="46.22036614715407" lon="12.77407142357876"><ele>311.0</ele><time>2026-03-22T08:43:50.999Z</time></trkpt><trkpt lat="46.2203090291785" lon="12.77420366109977"><ele>311.0</ele><time>2026-03-22T08:43:51.999Z</time></trkpt><trkpt lat="46.22020534183696" lon="12.774371750082219"><ele>311.0</ele><time>2026-03-22T08:43:52.999Z</time></trkpt><trkpt lat="46.22007783691993" lon="12.774544579604424"><ele>311.25</ele><time>2026-03-22T08:43:53.999Z</time></trkpt><trkpt lat="46.21997071559736" lon="12.774671352713455"><ele>311.5</ele><time>2026-03-22T08:43:54.999Z</time></trkpt><trkpt lat="46.21986873741309" lon="12.774799707162662"><ele>311.75</ele><time>2026-03-22T08:43:55.999Z</time></trkpt><trkpt lat="46.21977056471591" lon="12.774928328634541"><ele>312.0</ele><time>2026-03-22T08:43:56.999Z</time></trkpt><trkpt lat="46.219677563849515" lon="12.775054383005026"><ele>312.0</ele><time>2026-03-22T08:43:57.999Z</time></trkpt><trkpt lat="46.21959125370039" lon="12.77517337750159"><ele>312.0</ele><time>2026-03-22T08:43:58.999Z</time></trkpt><trkpt lat="46.21951129388899" lon="12.775295067485938"><ele>312.0</ele><time>2026-03-22T08:43:59.999Z</time></trkpt><trkpt lat="46.21943355107735" lon="12.775427790744208"><ele>312.0</ele><time>2026-03-22T08:44:00.999Z</time></trkpt><trkpt lat="46.21935923016369" lon="12.775569660227537"><ele>312.5</ele><time>2026-03-22T08:44:01.999Z</time></trkpt><trkpt lat="46.21928321905751" lon="12.77571687602249"><ele>313.0</ele><time>2026-03-22T08:44:02.999Z</time></trkpt><trkpt lat="46.21920491420915" lon="12.775877976538974"><ele>313.5</ele><time>2026-03-22T08:44:03.999Z</time></trkpt><trkpt lat="46.219125683555845" lon="12.776038432245434"><ele>314.0</ele><time>2026-03-22T08:44:04.999Z</time></trkpt><trkpt lat="46.21905256435717" lon="12.776191853542134"><ele>313.0</ele><time>2026-03-22T08:44:05.999Z</time></trkpt><trkpt lat="46.21897975682664" lon="12.776354496809821"><ele>312.0</ele><time>2026-03-22T08:44:06.999Z</time></trkpt><trkpt lat="46.218908470951675" lon="12.77653179189817"><ele>311.0</ele><time>2026-03-22T08:44:07.999Z</time></trkpt><trkpt lat="46.21884597025849" lon="12.77668715577996"><ele>310.0</ele><time>2026-03-22T08:44:08.999Z</time></trkpt><trkpt lat="46.218784504223656" lon="12.776832569993243"><ele>310.2</ele><time>2026-03-22T08:44:09.999Z</time></trkpt><trkpt lat="46.2187317631114" lon="12.776972888263195"><ele>310.4</ele><time>2026-03-22T08:44:10.999Z</time></trkpt><trkpt lat="46.218689771043735" lon="12.777111958928806"><ele>310.6</ele><time>2026-03-22T08:44:11.999Z</time></trkpt><trkpt lat="46.218651845289294" lon="12.777250283850693"><ele>310.8</ele><time>2026-03-22T08:44:12.999Z</time></trkpt><trkpt lat="46.21860934767223" lon="12.777387463274525"><ele>311.0</ele><time>2026-03-22T08:44:13.999Z</time></trkpt><trkpt lat="46.21855817949493" lon="12.777517136885182"><ele>311.0</ele><time>2026-03-22T08:44:14.999Z</time></trkpt><trkpt lat="46.2185076139612" lon="12.777646849733362"><ele>311.0</ele><time>2026-03-22T08:44:15.999Z</time></trkpt><trkpt lat="46.21846848221731" lon="12.77778325259374"><ele>311.0</ele><time>2026-03-22T08:44:16.999Z</time></trkpt><trkpt lat="46.21844160286169" lon="12.777928476174333"><ele>311.0</ele><time>2026-03-22T08:44:17.999Z</time></trkpt><trkpt lat="46.21843041961056" lon="12.778073460823201"><ele>311.0</ele><time>2026-03-22T08:44:19Z</time></trkpt><trkpt lat="46.21843861876962" lon="12.7782179689952"><ele>310.6</ele><time>2026-03-22T08:44:20Z</time></trkpt><trkpt lat="46.21845899350064" lon="12.778364028787717"><ele>310.20000000000005</ele><time>2026-03-22T08:44:21Z</time></trkpt><trkpt lat="46.218478149877235" lon="12.778503055226638"><ele>309.79999999999995</ele><time>2026-03-22T08:44:22Z</time></trkpt><trkpt lat="46.218496898387485" lon="12.778644659883941"><ele>309.4</ele><time>2026-03-22T08:44:23Z</time></trkpt><trkpt lat="46.21852061632786" lon="12.77881497752497"><ele>309.0</ele><time>2026-03-22T08:44:24Z</time></trkpt><trkpt lat="46.21854314381644" lon="12.779016279641029"><ele>309.0</ele><time>2026-03-22T08:44:25Z</time></trkpt><trkpt lat="46.21855945905283" lon="12.779227990733025"><ele>309.0</ele><time>2026-03-22T08:44:26Z</time></trkpt><trkpt lat="46.21857460633774" lon="12.779424805909189"><ele>309.0</ele><time>2026-03-22T08:44:27Z</time></trkpt><trkpt lat="46.21858245478971" lon="12.779608903559051"><ele>309.0</ele><time>2026-03-22T08:44:28Z</time></trkpt><trkpt lat="46.218586702661696" lon="12.779784289210859"><ele>308.0</ele><time>2026-03-22T08:44:29Z</time></trkpt><trkpt lat="46.21857020690331" lon="12.77996033854797"><ele>307.0</ele><time>2026-03-22T08:44:30Z</time></trkpt><trkpt lat="46.218542734849976" lon="12.780130763807936"><ele>306.0</ele><time>2026-03-22T08:44:31Z</time></trkpt><trkpt lat="46.21851470472815" lon="12.780292713242636"><ele>305.0</ele><time>2026-03-22T08:44:32Z</time></trkpt><trkpt lat="46.218483458467" lon="12.780446142309062"><ele>303.75</ele><time>2026-03-22T08:44:33Z</time></trkpt><trkpt lat="46.21844841310586" lon="12.780589667605039"><ele>302.5</ele><time>2026-03-22T08:44:34Z</time></trkpt><trkpt lat="46.21839940663386" lon="12.780719833904204"><ele>301.25</ele><time>2026-03-22T08:44:35Z</time></trkpt><trkpt lat="46.218332776405674" lon="12.780846438942275"><ele>300.0</ele><time>2026-03-22T08:44:36Z</time></trkpt><trkpt lat="46.21824554865657" lon="12.78098900123828"><ele>304.0</ele><time>2026-03-22T08:44:37Z</time></trkpt><trkpt lat="46.21813977659576" lon="12.78115010536441"><ele>308.0</ele><time>2026-03-22T08:44:38Z</time></trkpt><trkpt lat="46.21801946181791" lon="12.781335948079029"><ele>312.0</ele><time>2026-03-22T08:44:39Z</time></trkpt><trkpt lat="46.21789484453306" lon="12.781518832774568"><ele>312.0</ele><time>2026-03-22T08:44:40Z</time></trkpt><trkpt lat="46.21778372635459" lon="12.781685807831597"><ele>312.0</ele><time>2026-03-22T08:44:41Z</time></trkpt><trkpt lat="46.21768934984239" lon="12.781845349262083"><ele>312.0</ele><time>2026-03-22T08:44:42Z</time></trkpt><trkpt lat="46.21760596949858" lon="12.78200831717913"><ele>312.0</ele><time>2026-03-22T08:44:43Z</time></trkpt><trkpt lat="46.217526678703436" lon="12.782168478492594"><ele>311.75</ele><time>2026-03-22T08:44:44Z</time></trkpt><trkpt lat="46.217456130641935" lon="12.782317834010565"><ele>311.5</ele><time>2026-03-22T08:44:45Z</time></trkpt><trkpt lat="46.21738480255684" lon="12.782455754423378"><ele>311.25</ele><time>2026-03-22T08:44:46Z</time></trkpt><trkpt lat="46.217332068130546" lon="12.782584374170854"><ele>311.0</ele><time>2026-03-22T08:44:47Z</time></trkpt><trkpt lat="46.217291581976646" lon="12.782723596235927"><ele>311.0</ele><time>2026-03-22T08:44:48Z</time></trkpt><trkpt lat="46.21726466675505" lon="12.782841587194362"><ele>311.0</ele><time>2026-03-22T08:44:49Z</time></trkpt><trkpt lat="46.21724314443302" lon="12.782938709248576"><ele>311.0</ele><time>2026-03-22T08:44:50Z</time></trkpt><trkpt lat="46.21720786789203" lon="12.783085415109314"><ele>311.0</ele><time>2026-03-22T08:44:52Z</time></trkpt><trkpt lat="46.217165601145915" lon="12.783204403342785"><ele>311.0</ele><time>2026-03-22T08:44:54Z</time></trkpt><trkpt lat="46.21713092581353" lon="12.783355502567357"><ele>311.0</ele><time>2026-03-22T08:44:56Z</time></trkpt><trkpt lat="46.217124424936266" lon="12.783464150786795"><ele>311.0</ele><time>2026-03-22T08:44:57Z</time></trkpt><trkpt lat="46.21712224463893" lon="12.783581631718732"><ele>311.0</ele><time>2026-03-22T08:44:58Z</time></trkpt><trkpt lat="46.21711159371301" lon="12.783703788645214"><ele>311.0</ele><time>2026-03-22T08:44:59Z</time></trkpt><trkpt lat="46.217102386448715" lon="12.783802155291186"><ele>311.0</ele><time>2026-03-22T08:45:00Z</time></trkpt><trkpt lat="46.2170781501941" lon="12.783911308364024"><ele>311.0</ele><time>2026-03-22T08:45:02Z</time></trkpt><trkpt lat="46.217089847941686" lon="12.784031238678939"><ele>310.6</ele><time>2026-03-22T08:46:56Z</time></trkpt><trkpt lat="46.21714232854814" lon="12.784127628522052"><ele>310.20000000000005</ele><time>2026-03-22T08:46:59Z</time></trkpt><trkpt lat="46.21716906325626" lon="12.784213113162068"><ele>309.79999999999995</ele><time>2026-03-22T08:47:05Z</time></trkpt><trkpt lat="46.21712643816235" lon="12.784320953217067"><ele>309.4</ele><time>2026-03-22T08:49:00Z</time></trkpt><trkpt lat="46.217078743103976" lon="12.784475895838415"><ele>309.0</ele><time>2026-03-22T08:49:02Z</time></trkpt><trkpt lat="46.2170231950417" lon="12.784634727561325"><ele>308.4</ele><time>2026-03-22T08:49:04Z</time></trkpt><trkpt lat="46.216931935723004" lon="12.784707087082376"><ele>307.79999999999995</ele><time>2026-03-22T08:49:05Z</time></trkpt><trkpt lat="46.216890157603196" lon="12.784809989220102"><ele>307.20000000000005</ele><time>2026-03-22T08:49:06Z</time></trkpt><trkpt lat="46.21685382141576" lon="12.784901952590472"><ele>306.6</ele><time>2026-03-22T08:49:07Z</time></trkpt><trkpt lat="46.21678562319291" lon="12.785080104751605"><ele>306.0</ele><time>2026-03-22T08:49:09Z</time></trkpt><trkpt lat="46.216760158261586" lon="12.785187683203354"><ele>305.8333333333333</ele><time>2026-03-22T08:49:10Z</time></trkpt><trkpt lat="46.21674057425639" lon="12.785300088889658"><ele>305.6666666666667</ele><time>2026-03-22T08:49:11Z</time></trkpt><trkpt lat="46.21672933598214" lon="12.78540646076521"><ele>305.5</ele><time>2026-03-22T08:49:12Z</time></trkpt><trkpt lat="46.21672531072109" lon="12.785516854896914"><ele>305.33333333333337</ele><time>2026-03-22T08:49:13Z</time></trkpt><trkpt lat="46.216723357464474" lon="12.78562501857108"><ele>305.1666666666667</ele><time>2026-03-22T08:49:14Z</time></trkpt><trkpt lat="46.2167251968211" lon="12.785726861491625"><ele>305.0</ele><time>2026-03-22T08:49:15Z</time></trkpt><trkpt lat="46.21673424897688" lon="12.785855543145034"><ele>305.0</ele><time>2026-03-22T08:49:16Z</time></trkpt><trkpt lat="46.216742217225274" lon="12.785968816327273"><ele>305.0</ele><time>2026-03-22T08:49:17Z</time></trkpt><trkpt lat="46.21674918334766" lon="12.786079501418397"><ele>305.0</ele><time>2026-03-22T08:49:18Z</time></trkpt><trkpt lat="46.2167557449927" lon="12.786187070796396"><ele>305.0</ele><time>2026-03-22T08:49:19Z</time></trkpt><trkpt lat="46.21676387207931" lon="12.786320303422528"><ele>305.0</ele><time>2026-03-22T08:49:20Z</time></trkpt><trkpt lat="46.216783644248366" lon="12.786451122309035"><ele>305.0</ele><time>2026-03-22T08:49:21Z</time></trkpt><trkpt lat="46.21678997216497" lon="12.786587951200033"><ele>304.8</ele><time>2026-03-22T08:49:22Z</time></trkpt><trkpt lat="46.21680290223678" lon="12.78672570977956"><ele>304.6</ele><time>2026-03-22T08:49:23Z</time></trkpt><trkpt lat="46.21681770657214" lon="12.786860402889376"><ele>304.4</ele><time>2026-03-22T08:49:24Z</time></trkpt><trkpt lat="46.2168277824175" lon="12.786996680566622"><ele>304.2</ele><time>2026-03-22T08:49:25Z</time></trkpt><trkpt lat="46.21684128236006" lon="12.787126106070032"><ele>304.0</ele><time>2026-03-22T08:49:26Z</time></trkpt><trkpt lat="46.21685535714947" lon="12.787243003821521"><ele>303.16666666666663</ele><time>2026-03-22T08:49:27Z</time></trkpt><trkpt lat="46.21686783702491" lon="12.787361704259196"><ele>302.3333333333333</ele><time>2026-03-22T08:49:28Z</time></trkpt><trkpt lat="46.21689774371963" lon="12.787472819909784"><ele>301.5</ele><time>2026-03-22T08:49:29Z</time></trkpt><trkpt lat="46.21693063657029" lon="12.78757904147351"><ele>300.6666666666667</ele><time>2026-03-22T08:49:30Z</time></trkpt><trkpt lat="46.216967105575534" lon="12.787688279805623"><ele>299.83333333333337</ele><time>2026-03-22T08:49:31Z</time></trkpt><trkpt lat="46.21701733160499" lon="12.787783862793358"><ele>299.0</ele><time>2026-03-22T08:49:32Z</time></trkpt><trkpt lat="46.21704830111858" lon="12.787888642168467"><ele>298.83333333333337</ele><time>2026-03-22T08:49:33Z</time></trkpt><trkpt lat="46.217084806579145" lon="12.787987345619001"><ele>298.6666666666667</ele><time>2026-03-22T08:49:34Z</time></trkpt><trkpt lat="46.21712114831113" lon="12.78808829931966"><ele>298.5</ele><time>2026-03-22T08:49:35Z</time></trkpt><trkpt lat="46.217154134312075" lon="12.788195672923527"><ele>298.3333333333333</ele><time>2026-03-22T08:49:36Z</time></trkpt><trkpt lat="46.21719153584452" lon="12.788306408452236"><ele>298.16666666666663</ele><time>2026-03-22T08:49:37Z</time></trkpt><trkpt lat="46.217230914494394" lon="12.78842529811285"><ele>298.0</ele><time>2026-03-22T08:49:38Z</time></trkpt><trkpt lat="46.2172708666555" lon="12.788542405888318"><ele>297.6</ele><time>2026-03-22T08:49:39Z</time></trkpt><trkpt lat="46.217310490283104" lon="12.788658393227514"><ele>297.20000000000005</ele><time>2026-03-22T08:49:40Z</time></trkpt><trkpt lat="46.21736111687752" lon="12.788788096628203"><ele>296.8</ele><time>2026-03-22T08:49:41Z</time></trkpt><trkpt lat="46.217406884290256" lon="12.788916367941217"><ele>296.40000000000003</ele><time>2026-03-22T08:49:42Z</time></trkpt><trkpt lat="46.21744458317953" lon="12.789034574059176"><ele>296.0</ele><time>2026-03-22T08:49:43Z</time></trkpt><trkpt lat="46.21748149392641" lon="12.789141988519807"><ele>296.6</ele><time>2026-03-22T08:49:44Z</time></trkpt><trkpt lat="46.21751099350704" lon="12.789251104800012"><ele>297.20000000000005</ele><time>2026-03-22T08:49:45Z</time></trkpt><trkpt lat="46.21753476643377" lon="12.789366864160367"><ele>297.79999999999995</ele><time>2026-03-22T08:49:46Z</time></trkpt><trkpt lat="46.21754950268049" lon="12.789484580429013"><ele>298.4</ele><time>2026-03-22T08:49:47Z</time></trkpt><trkpt lat="46.21755183708125" lon="12.789618935900481"><ele>299.0</ele><time>2026-03-22T08:49:48Z</time></trkpt><trkpt lat="46.217542097970956" lon="12.78977838525364"><ele>299.0</ele><time>2026-03-22T08:49:49Z</time></trkpt><trkpt lat="46.21754523204706" lon="12.789940069919393"><ele>299.0</ele><time>2026-03-22T08:49:50Z</time></trkpt><trkpt lat="46.21753665564075" lon="12.790092598968414"><ele>299.0</ele><time>2026-03-22T08:49:51Z</time></trkpt><trkpt lat="46.21753518508072" lon="12.79023103682788"><ele>299.0</ele><time>2026-03-22T08:49:52Z</time></trkpt><trkpt lat="46.2175395892124" lon="12.790359253546065"><ele>299.0</ele><time>2026-03-22T08:49:53Z</time></trkpt><trkpt lat="46.21753913492377" lon="12.790474904892575"><ele>299.0</ele><time>2026-03-22T08:49:54Z</time></trkpt><trkpt lat="46.217529942432044" lon="12.790592868713922"><ele>299.0</ele><time>2026-03-22T08:49:55Z</time></trkpt><trkpt lat="46.21752238539451" lon="12.790703491423594"><ele>299.0</ele><time>2026-03-22T08:49:56Z</time></trkpt><trkpt lat="46.21751918065064" lon="12.790814711366474"><ele>299.0</ele><time>2026-03-22T08:49:57Z</time></trkpt><trkpt lat="46.21751931020818" lon="12.7909295549809"><ele>299.0</ele><time>2026-03-22T08:49:58Z</time></trkpt><trkpt lat="46.21752086140245" lon="12.791045141825503"><ele>299.0</ele><time>2026-03-22T08:49:59Z</time></trkpt><trkpt lat="46.21752430219479" lon="12.791158984366568"><ele>298.6666666666667</ele><time>2026-03-22T08:50:00Z</time></trkpt><trkpt lat="46.2175234826876" lon="12.791265412814479"><ele>298.33333333333337</ele><time>2026-03-22T08:50:01Z</time></trkpt><trkpt lat="46.21752286601535" lon="12.79136656622975"><ele>298.0</ele><time>2026-03-22T08:50:01.999Z</time></trkpt><trkpt lat="46.217517636556565" lon="12.791508511967752"><ele>297.6666666666667</ele><time>2026-03-22T08:50:03.999Z</time></trkpt><trkpt lat="46.21758876043045" lon="12.791569627393814"><ele>297.3333333333333</ele><time>2026-03-22T08:50:05.999Z</time></trkpt><trkpt lat="46.217521329111484" lon="12.791638938568125"><ele>297.0</ele><time>2026-03-22T08:51:36Z</time></trkpt><trkpt lat="46.217675269867506" lon="12.791642784558716"><ele>297.0</ele><time>2026-03-22T08:53:03.999Z</time></trkpt><trkpt lat="46.217624656328155" lon="12.791525004413202"><ele>297.0</ele><time>2026-03-22T08:53:06.999Z</time></trkpt><trkpt lat="46.21755623866292" lon="12.791477237996574"><ele>297.0</ele><time>2026-03-22T08:53:12.999Z</time></trkpt><trkpt lat="46.21753089078224" lon="12.791338095351845"><ele>297.0</ele><time>2026-03-22T08:53:14.999Z</time></trkpt><trkpt lat="46.21753499715886" lon="12.79123199767684"><ele>297.0</ele><time>2026-03-22T08:53:15.999Z</time></trkpt><trkpt lat="46.21753339868452" lon="12.791132247492872"><ele>297.0</ele><time>2026-03-22T08:53:16.999Z</time></trkpt><trkpt lat="46.21753349280905" lon="12.791006716297485"><ele>297.3333333333333</ele><time>2026-03-22T08:53:17.999Z</time></trkpt><trkpt lat="46.21753046492799" lon="12.790849983214036"><ele>297.6666666666667</ele><time>2026-03-22T08:53:18.999Z</time></trkpt><trkpt lat="46.21753009362" lon="12.790730712705683"><ele>298.0</ele><time>2026-03-22T08:53:19.999Z</time></trkpt><trkpt lat="46.21753231453996" lon="12.790623926670825"><ele>298.33333333333337</ele><time>2026-03-22T08:53:20.999Z</time></trkpt><trkpt lat="46.21753827907831" lon="12.790503406302003"><ele>298.6666666666667</ele><time>2026-03-22T08:53:21.999Z</time></trkpt><trkpt lat="46.217537050734585" lon="12.790381391443722"><ele>299.0</ele><time>2026-03-22T08:53:22.999Z</time></trkpt><trkpt lat="46.21754157152203" lon="12.790258832575729"><ele>299.0</ele><time>2026-03-22T08:53:23.999Z</time></trkpt><trkpt lat="46.2175463147546" lon="12.790146778710252"><ele>299.0</ele><time>2026-03-22T08:53:24.999Z</time></trkpt><trkpt lat="46.21754806506984" lon="12.790028854600836"><ele>299.0</ele><time>2026-03-22T08:53:25.999Z</time></trkpt><trkpt lat="46.21755222981095" lon="12.789911981901879"><ele>299.0</ele><time>2026-03-22T08:53:26.999Z</time></trkpt><trkpt lat="46.217557768207676" lon="12.789805031144336"><ele>299.0</ele><time>2026-03-22T08:53:27.999Z</time></trkpt><trkpt lat="46.217545407052306" lon="12.789680102487267"><ele>299.0</ele><time>2026-03-22T08:53:29.999Z</time></trkpt><trkpt lat="46.21748796179602" lon="12.789626961874786"><ele>299.0</ele><time>2026-03-22T08:53:31.999Z</time></trkpt><trkpt lat="46.21752189700128" lon="12.789520268508326"><ele>299.0</ele><time>2026-03-22T08:53:39.999Z</time></trkpt><trkpt lat="46.21753650041068" lon="12.789326677561139"><ele>299.0</ele><time>2026-03-22T08:53:41.999Z</time></trkpt><trkpt lat="46.21753185597396" lon="12.789202310588992"><ele>299.0</ele><time>2026-03-22T08:53:42.999Z</time></trkpt><trkpt lat="46.21748896648176" lon="12.789058772850701"><ele>299.0</ele><time>2026-03-22T08:53:43.999Z</time></trkpt><trkpt lat="46.21744735912355" lon="12.78893004436462"><ele>299.1666666666667</ele><time>2026-03-22T08:53:44.999Z</time></trkpt><trkpt lat="46.217399662290795" lon="12.78879249461846"><ele>299.33333333333337</ele><time>2026-03-22T08:53:45.999Z</time></trkpt><trkpt lat="46.21735897199879" lon="12.788678616860022"><ele>299.5</ele><time>2026-03-22T08:53:46.999Z</time></trkpt><trkpt lat="46.21732139321051" lon="12.788573447123328"><ele>299.6666666666667</ele><time>2026-03-22T08:53:47.999Z</time></trkpt><trkpt lat="46.21728845176258" lon="12.788481255673359"><ele>299.8333333333333</ele><time>2026-03-22T08:53:48.999Z</time></trkpt><trkpt lat="46.21725955589154" lon="12.78840038636365"><ele>300.0</ele><time>2026-03-22T08:53:49.999Z</time></trkpt><trkpt lat="46.21721192373107" lon="12.788267080576107"><ele>299.3333333333333</ele><time>2026-03-22T08:53:51.999Z</time></trkpt><trkpt lat="46.21698975117226" lon="12.78832805303553"><ele>298.66666666666663</ele><time>2026-03-22T08:53:53.999Z</time></trkpt><trkpt lat="46.216854046374614" lon="12.788340641822478"><ele>298.0</ele><time>2026-03-22T08:53:54.999Z</time></trkpt><trkpt lat="46.21673977659676" lon="12.788301083743415"><ele>298.0</ele><time>2026-03-22T08:53:55.999Z</time></trkpt><trkpt lat="46.21663641378443" lon="12.788288028240094"><ele>298.0</ele><time>2026-03-22T08:53:56.999Z</time></trkpt><trkpt lat="46.21653084037706" lon="12.78829201461067"><ele>298.0</ele><time>2026-03-22T08:53:57.999Z</time></trkpt><trkpt lat="46.216418153782946" lon="12.788275808339561"><ele>298.0</ele><time>2026-03-22T08:53:58.999Z</time></trkpt><trkpt lat="46.21630634651096" lon="12.788265189203242"><ele>298.0</ele><time>2026-03-22T08:53:59.999Z</time></trkpt><trkpt lat="46.21619349971555" lon="12.788253309130404"><ele>296.66666666666663</ele><time>2026-03-22T08:54:00.999Z</time></trkpt><trkpt lat="46.216052683536866" lon="12.788235332881282"><ele>295.3333333333333</ele><time>2026-03-22T08:54:01.999Z</time></trkpt><trkpt lat="46.21589218830491" lon="12.78819288170961"><ele>294.0</ele><time>2026-03-22T08:54:02.999Z</time></trkpt><trkpt lat="46.2157265623306" lon="12.788171561202475"><ele>292.6666666666667</ele><time>2026-03-22T08:54:03.999Z</time></trkpt><trkpt lat="46.215534848813704" lon="12.78814699344087"><ele>291.33333333333337</ele><time>2026-03-22T08:54:04.999Z</time></trkpt><trkpt lat="46.21530798763896" lon="12.78811830151869"><ele>290.0</ele><time>2026-03-22T08:54:05.999Z</time></trkpt><trkpt lat="46.21506559754576" lon="12.788087645608535"><ele>288.0</ele><time>2026-03-22T08:54:06.999Z</time></trkpt><trkpt lat="46.21480450518252" lon="12.788073334855829"><ele>286.0</ele><time>2026-03-22T08:54:07.999Z</time></trkpt><trkpt lat="46.214565403180096" lon="12.788042508870882"><ele>286.0</ele><time>2026-03-22T08:54:08.999Z</time></trkpt><trkpt lat="46.21434289407683" lon="12.788018021888165"><ele>286.0</ele><time>2026-03-22T08:54:09.999Z</time></trkpt><trkpt lat="46.2141461243245" lon="12.787998262793813"><ele>286.0</ele><time>2026-03-22T08:54:10.999Z</time></trkpt><trkpt lat="46.21395414731828" lon="12.787976078703831"><ele>285.0</ele><time>2026-03-22T08:54:11.999Z</time></trkpt><trkpt lat="46.21377565071619" lon="12.787947190936139"><ele>284.0</ele><time>2026-03-22T08:54:12.999Z</time></trkpt><trkpt lat="46.2136135781791" lon="12.787913993638892"><ele>283.0</ele><time>2026-03-22T08:54:13.999Z</time></trkpt><trkpt lat="46.21347114581888" lon="12.787858724519271"><ele>283.0</ele><time>2026-03-22T08:54:14.999Z</time></trkpt><trkpt lat="46.21334613810453" lon="12.787783050989884"><ele>283.0</ele><time>2026-03-22T08:54:15.999Z</time></trkpt><trkpt lat="46.2132463960645" lon="12.787662689550206"><ele>283.0</ele><time>2026-03-22T08:54:16.999Z</time></trkpt><trkpt lat="46.213146079994544" lon="12.787546162431585"><ele>283.0</ele><time>2026-03-22T08:54:17.999Z</time></trkpt><trkpt lat="46.21302899288612" lon="12.787403320740548"><ele>281.3333333333333</ele><time>2026-03-22T08:54:18.999Z</time></trkpt><trkpt lat="46.21290454195767" lon="12.787250746632559"><ele>279.6666666666667</ele><time>2026-03-22T08:54:19.999Z</time></trkpt><trkpt lat="46.21277352119051" lon="12.787096163766943"><ele>278.0</ele><time>2026-03-22T08:54:20.999Z</time></trkpt><trkpt lat="46.21263977801075" lon="12.786937030862292"><ele>277.6666666666667</ele><time>2026-03-22T08:54:21.999Z</time></trkpt><trkpt lat="46.212502428174126" lon="12.786773372679713"><ele>277.3333333333333</ele><time>2026-03-22T08:54:22.999Z</time></trkpt><trkpt lat="46.21236414113185" lon="12.786608003136765"><ele>277.0</ele><time>2026-03-22T08:54:23.999Z</time></trkpt><trkpt lat="46.212225242886014" lon="12.786440204326645"><ele>277.0</ele><time>2026-03-22T08:54:24.999Z</time></trkpt><trkpt lat="46.21208581759849" lon="12.786271555055277"><ele>277.0</ele><time>2026-03-22T08:54:25.999Z</time></trkpt><trkpt lat="46.211947208326784" lon="12.786103892815134"><ele>277.0</ele><time>2026-03-22T08:54:26.999Z</time></trkpt><trkpt lat="46.211813752913024" lon="12.785942464727649"><ele>277.0</ele><time>2026-03-22T08:54:27.999Z</time></trkpt><trkpt lat="46.211687546338666" lon="12.785792328565336"><ele>277.0</ele><time>2026-03-22T08:54:28.999Z</time></trkpt><trkpt lat="46.2115680090586" lon="12.785650855983176"><ele>277.0</ele><time>2026-03-22T08:54:29.999Z</time></trkpt><trkpt lat="46.2114534665659" lon="12.785518134884324"><ele>276.75</ele><time>2026-03-22T08:54:30.999Z</time></trkpt><trkpt lat="46.211339565798106" lon="12.78540227577531"><ele>276.5</ele><time>2026-03-22T08:54:31.999Z</time></trkpt><trkpt lat="46.211218353860865" lon="12.785324907091086"><ele>276.25</ele><time>2026-03-22T08:54:32.999Z</time></trkpt><trkpt lat="46.21111032692502" lon="12.78521584867434"><ele>276.0</ele><time>2026-03-22T08:54:33.999Z</time></trkpt><trkpt lat="46.21097899662454" lon="12.78513682927377"><ele>276.0</ele><time>2026-03-22T08:54:34.999Z</time></trkpt><trkpt lat="46.21083195197216" lon="12.78510800103532"><ele>276.0</ele><time>2026-03-22T08:54:35.999Z</time></trkpt><trkpt lat="46.210688642691494" lon="12.785077202149902"><ele>276.0</ele><time>2026-03-22T08:54:36.999Z</time></trkpt><trkpt lat="46.21054185109021" lon="12.78507139145732"><ele>276.0</ele><time>2026-03-22T08:54:37.999Z</time></trkpt><trkpt lat="46.21038469927662" lon="12.785083273472171"><ele>276.0</ele><time>2026-03-22T08:54:38.999Z</time></trkpt><trkpt lat="46.21021860304269" lon="12.78511269114566"><ele>276.0</ele><time>2026-03-22T08:54:39.999Z</time></trkpt><trkpt lat="46.21005116560893" lon="12.785146011377591"><ele>276.0</ele><time>2026-03-22T08:54:40.999Z</time></trkpt><trkpt lat="46.20989091349271" lon="12.785167376223537"><ele>275.5</ele><time>2026-03-22T08:54:41.999Z</time></trkpt><trkpt lat="46.209742615086746" lon="12.785161508759007"><ele>275.0</ele><time>2026-03-22T08:54:42.999Z</time></trkpt><trkpt lat="46.209603596373654" lon="12.785130670140685"><ele>274.5</ele><time>2026-03-22T08:54:43.999Z</time></trkpt><trkpt lat="46.209467233351035" lon="12.785075361606099"><ele>274.0</ele><time>2026-03-22T08:54:44.999Z</time></trkpt><trkpt lat="46.209318176839666" lon="12.78498648478097"><ele>274.0</ele><time>2026-03-22T08:54:45.999Z</time></trkpt><trkpt lat="46.20915811766434" lon="12.784832416406566"><ele>274.0</ele><time>2026-03-22T08:54:46.999Z</time></trkpt><trkpt lat="46.209003909701124" lon="12.784707839417525"><ele>274.0</ele><time>2026-03-22T08:54:47.999Z</time></trkpt><trkpt lat="46.208860774127274" lon="12.784591344599866"><ele>272.5</ele><time>2026-03-22T08:54:48.999Z</time></trkpt><trkpt lat="46.20872352419969" lon="12.784480417724069"><ele>271.0</ele><time>2026-03-22T08:54:49.999Z</time></trkpt><trkpt lat="46.20859130254651" lon="12.784375930056655"><ele>269.5</ele><time>2026-03-22T08:54:50.999Z</time></trkpt><trkpt lat="46.208472943096886" lon="12.784270555865884"><ele>268.0</ele><time>2026-03-22T08:54:51.999Z</time></trkpt><trkpt lat="46.208363570759765" lon="12.784184682670432"><ele>268.0</ele><time>2026-03-22T08:54:52.999Z</time></trkpt><trkpt lat="46.2082896645859" lon="12.784062244579822"><ele>268.0</ele><time>2026-03-22T08:54:53.999Z</time></trkpt><trkpt lat="46.20823484672819" lon="12.783930582767503"><ele>268.0</ele><time>2026-03-22T08:54:54.999Z</time></trkpt><trkpt lat="46.20820004374511" lon="12.783785637108732"><ele>268.0</ele><time>2026-03-22T08:54:55.999Z</time></trkpt><trkpt lat="46.208178723553914" lon="12.783616466079883"><ele>268.0</ele><time>2026-03-22T08:54:56.999Z</time></trkpt><trkpt lat="46.208190842652094" lon="12.78342555106293"><ele>268.0</ele><time>2026-03-22T08:54:57.999Z</time></trkpt><trkpt lat="46.208190842653806" lon="12.783252136963435"><ele>268.0</ele><time>2026-03-22T08:54:58.999Z</time></trkpt><trkpt lat="46.20817968787117" lon="12.783102421789245"><ele>268.0</ele><time>2026-03-22T08:54:59.999Z</time></trkpt><trkpt lat="46.20819776090025" lon="12.782957252243742"><ele>268.0</ele><time>2026-03-22T08:55:00.999Z</time></trkpt><trkpt lat="46.20823194564074" lon="12.78280980965327"><ele>268.0</ele><time>2026-03-22T08:55:01.999Z</time></trkpt><trkpt lat="46.20828406301993" lon="12.782652878856931"><ele>266.6</ele><time>2026-03-22T08:55:02.999Z</time></trkpt><trkpt lat="46.20834710776614" lon="12.782501314037534"><ele>265.20000000000005</ele><time>2026-03-22T08:55:03.999Z</time></trkpt><trkpt lat="46.20841171098603" lon="12.782369426977105"><ele>263.8</ele><time>2026-03-22T08:55:04.999Z</time></trkpt><trkpt lat="46.20846759631381" lon="12.782240831896628"><ele>262.40000000000003</ele><time>2026-03-22T08:55:05.999Z</time></trkpt><trkpt lat="46.20850020888086" lon="12.78212571148928"><ele>261.0</ele><time>2026-03-22T08:55:06.999Z</time></trkpt><trkpt lat="46.20853260878825" lon="12.782025371303943"><ele>261.0</ele><time>2026-03-22T08:55:07.999Z</time></trkpt><trkpt lat="46.2085180549473" lon="12.781905737471043"><ele>261.0</ele><time>2026-03-22T08:55:08.999Z</time></trkpt><trkpt lat="46.20845226867894" lon="12.781800447382732"><ele>261.0</ele><time>2026-03-22T08:55:10Z</time></trkpt><trkpt lat="46.2083667279945" lon="12.781732183059571"><ele>261.0</ele><time>2026-03-22T08:55:11Z</time></trkpt><trkpt lat="46.208277271261835" lon="12.781617460674576"><ele>261.0</ele><time>2026-03-22T08:55:12Z</time></trkpt><trkpt lat="46.20817519656998" lon="12.781513628021528"><ele>255.25</ele><time>2026-03-22T08:55:13Z</time></trkpt><trkpt lat="46.2080823514441" lon="12.781419183888403"><ele>249.5</ele><time>2026-03-22T08:55:14Z</time></trkpt><trkpt lat="46.20798641209905" lon="12.781321460795594"><ele>243.75</ele><time>2026-03-22T08:55:15Z</time></trkpt><trkpt lat="46.20788850928089" lon="12.781221459624348"><ele>238.0</ele><time>2026-03-22T08:55:16Z</time></trkpt><trkpt lat="46.20780304199784" lon="12.781132651819634"><ele>238.0</ele><time>2026-03-22T08:55:17Z</time></trkpt><trkpt lat="46.207723673701615" lon="12.7810549515282"><ele>238.0</ele><time>2026-03-22T08:55:18Z</time></trkpt><trkpt lat="46.20764520203294" lon="12.781021747863381"><ele>238.0</ele><time>2026-03-22T08:55:19Z</time></trkpt><trkpt lat="46.20755105629739" lon="12.78101462098629"><ele>238.0</ele><time>2026-03-22T08:55:20Z</time></trkpt><trkpt lat="46.207439945781026" lon="12.781005761127085"><ele>238.0</ele><time>2026-03-22T08:55:21Z</time></trkpt><trkpt lat="46.2073132294111" lon="12.780994793812381"><ele>240.5</ele><time>2026-03-22T08:55:22Z</time></trkpt><trkpt lat="46.20717873934295" lon="12.781002012319199"><ele>243.0</ele><time>2026-03-22T08:55:23Z</time></trkpt><trkpt lat="46.20705269869131" lon="12.781057534616947"><ele>245.5</ele><time>2026-03-22T08:55:24Z</time></trkpt><trkpt lat="46.20690457708067" lon="12.781116613890417"><ele>248.0</ele><time>2026-03-22T08:55:25Z</time></trkpt><trkpt lat="46.20673606858294" lon="12.78118322993631"><ele>248.0</ele><time>2026-03-22T08:55:26Z</time></trkpt><trkpt lat="46.206596741556766" lon="12.78119987815943"><ele>248.0</ele><time>2026-03-22T08:55:27Z</time></trkpt><trkpt lat="46.20647248091913" lon="12.781200466865757"><ele>248.0</ele><time>2026-03-22T08:55:28Z</time></trkpt><trkpt lat="46.20634607981905" lon="12.781182326787913"><ele>248.0</ele><time>2026-03-22T08:55:29Z</time></trkpt><trkpt lat="46.20620793125908" lon="12.781160815290253"><ele>249.5</ele><time>2026-03-22T08:55:30Z</time></trkpt><trkpt lat="46.20607124240684" lon="12.78112448943706"><ele>251.0</ele><time>2026-03-22T08:55:31Z</time></trkpt><trkpt lat="46.20593997845702" lon="12.781064107630332"><ele>252.5</ele><time>2026-03-22T08:55:32Z</time></trkpt><trkpt lat="46.20582469081113" lon="12.780981772602617"><ele>254.0</ele><time>2026-03-22T08:55:33Z</time></trkpt><trkpt lat="46.205696935337535" lon="12.780847256780586"><ele>264.0</ele><time>2026-03-22T08:55:34Z</time></trkpt><trkpt lat="46.20553120028402" lon="12.780665517255102"><ele>274.0</ele><time>2026-03-22T08:55:35Z</time></trkpt><trkpt lat="46.20532683186651" lon="12.78044533066274"><ele>274.0</ele><time>2026-03-22T08:55:36Z</time></trkpt><trkpt lat="46.205124425775324" lon="12.780225947931434"><ele>274.0</ele><time>2026-03-22T08:55:37Z</time></trkpt><trkpt lat="46.204952305972576" lon="12.78002942110236"><ele>273.3333333333333</ele><time>2026-03-22T08:55:38Z</time></trkpt><trkpt lat="46.20480029690244" lon="12.779867100698672"><ele>272.6666666666667</ele><time>2026-03-22T08:55:39Z</time></trkpt><trkpt lat="46.204676322894116" lon="12.77970321281005"><ele>272.0</ele><time>2026-03-22T08:55:40Z</time></trkpt><trkpt lat="46.20458296822146" lon="12.779567694002013"><ele>272.0</ele><time>2026-03-22T08:55:41Z</time></trkpt><trkpt lat="46.204500041212015" lon="12.779456989467002"><ele>272.0</ele><time>2026-03-22T08:55:42Z</time></trkpt><trkpt lat="46.204410087439115" lon="12.779347808484587"><ele>272.0</ele><time>2026-03-22T08:55:43Z</time></trkpt><trkpt lat="46.20427176853722" lon="12.779252007240656"><ele>272.0</ele><time>2026-03-22T08:55:44Z</time></trkpt><trkpt lat="46.20396567557849" lon="12.779120201819232"><ele>274.33333333333337</ele><time>2026-03-22T08:55:45Z</time></trkpt><trkpt lat="46.20374717640279" lon="12.779040178076611"><ele>276.6666666666667</ele><time>2026-03-22T08:55:46Z</time></trkpt><trkpt lat="46.20355632325953" lon="12.778969079984844"><ele>279.0</ele><time>2026-03-22T08:55:47Z</time></trkpt><trkpt lat="46.203402785402766" lon="12.778901664369933"><ele>279.0</ele><time>2026-03-22T08:55:48Z</time></trkpt><trkpt lat="46.20327189305359" lon="12.77886790174798"><ele>279.0</ele><time>2026-03-22T08:55:49Z</time></trkpt><trkpt lat="46.20313076351388" lon="12.77886321919835"><ele>279.0</ele><time>2026-03-22T08:55:50Z</time></trkpt><trkpt lat="46.20295374073343" lon="12.778921858972977"><ele>280.0</ele><time>2026-03-22T08:55:51Z</time></trkpt><trkpt lat="46.20273837615395" lon="12.77899929955336"><ele>281.0</ele><time>2026-03-22T08:55:52Z</time></trkpt><trkpt lat="46.202498463517706" lon="12.779075204251349"><ele>280.33333333333337</ele><time>2026-03-22T08:55:53Z</time></trkpt><trkpt lat="46.20229000427719" lon="12.779134815748684"><ele>279.6666666666667</ele><time>2026-03-22T08:55:54Z</time></trkpt><trkpt lat="46.20210498863817" lon="12.779185106980036"><ele>279.0</ele><time>2026-03-22T08:55:55Z</time></trkpt><trkpt lat="46.20192845223393" lon="12.77919628049193"><ele>279.0</ele><time>2026-03-22T08:55:56Z</time></trkpt><trkpt lat="46.20176917057039" lon="12.779202931156924"><ele>279.0</ele><time>2026-03-22T08:55:57Z</time></trkpt><trkpt lat="46.201611940930924" lon="12.77919137311135"><ele>279.0</ele><time>2026-03-22T08:55:58Z</time></trkpt><trkpt lat="46.20145410120972" lon="12.779154127650594"><ele>277.0</ele><time>2026-03-22T08:55:59Z</time></trkpt><trkpt lat="46.20129301886797" lon="12.779095045800366"><ele>275.0</ele><time>2026-03-22T08:56:00Z</time></trkpt><trkpt lat="46.2011048097366" lon="12.779001792340539"><ele>273.0</ele><time>2026-03-22T08:56:01Z</time></trkpt><trkpt lat="46.20088037476842" lon="12.778873587673544"><ele>273.0</ele><time>2026-03-22T08:56:02Z</time></trkpt><trkpt lat="46.20062664735245" lon="12.77872117339202"><ele>273.0</ele><time>2026-03-22T08:56:03Z</time></trkpt><trkpt lat="46.20036379807931" lon="12.778558541355098"><ele>272.5</ele><time>2026-03-22T08:56:04Z</time></trkpt><trkpt lat="46.20009404724349" lon="12.778397007044056"><ele>272.0</ele><time>2026-03-22T08:56:05Z</time></trkpt><trkpt lat="46.19981339565869" lon="12.778231089416083"><ele>272.0</ele><time>2026-03-22T08:56:06Z</time></trkpt><trkpt lat="46.19957145442335" lon="12.778087703019235"><ele>272.0</ele><time>2026-03-22T08:56:07Z</time></trkpt><trkpt lat="46.199348634251955" lon="12.777954710026231"><ele>272.0</ele><time>2026-03-22T08:56:08Z</time></trkpt><trkpt lat="46.199140245654206" lon="12.777830330880914"><ele>272.0</ele><time>2026-03-22T08:56:09Z</time></trkpt><trkpt lat="46.198944910560094" lon="12.777713742793381"><ele>272.0</ele><time>2026-03-22T08:56:10Z</time></trkpt><trkpt lat="46.19876264994543" lon="12.777605918970009"><ele>272.0</ele><time>2026-03-22T08:56:11Z</time></trkpt><trkpt lat="46.19859464918067" lon="12.777506593799536"><ele>272.0</ele><time>2026-03-22T08:56:12Z</time></trkpt><trkpt lat="46.19843738897585" lon="12.777413618752693"><ele>272.0</ele><time>2026-03-22T08:56:13Z</time></trkpt><trkpt lat="46.19828447144027" lon="12.777323492393045"><ele>271.75</ele><time>2026-03-22T08:56:14Z</time></trkpt><trkpt lat="46.19814331938378" lon="12.77723936449421"><ele>271.5</ele><time>2026-03-22T08:56:15Z</time></trkpt><trkpt lat="46.19801476727067" lon="12.777162716765345"><ele>271.25</ele><time>2026-03-22T08:56:16Z</time></trkpt><trkpt lat="46.19789177086775" lon="12.777089383535067"><ele>271.0</ele><time>2026-03-22T08:56:17Z</time></trkpt><trkpt lat="46.19778190166294" lon="12.777022291199781"><ele>271.0</ele><time>2026-03-22T08:56:18Z</time></trkpt><trkpt lat="46.1976708035219" lon="12.776953278826422"><ele>271.0</ele><time>2026-03-22T08:56:19Z</time></trkpt><trkpt lat="46.19755090482795" lon="12.776878799671358"><ele>271.0</ele><time>2026-03-22T08:56:20Z</time></trkpt><trkpt lat="46.19742478326967" lon="12.776794265009428"><ele>271.0</ele><time>2026-03-22T08:56:21Z</time></trkpt><trkpt lat="46.19729706576659" lon="12.77669758799866"><ele>271.3333333333333</ele><time>2026-03-22T08:56:22Z</time></trkpt><trkpt lat="46.19717270948049" lon="12.776580970645112"><ele>271.6666666666667</ele><time>2026-03-22T08:56:23Z</time></trkpt><trkpt lat="46.19703916213063" lon="12.776438490318162"><ele>272.0</ele><time>2026-03-22T08:56:24Z</time></trkpt><trkpt lat="46.1968901712625" lon="12.77626014230902"><ele>272.0</ele><time>2026-03-22T08:56:25Z</time></trkpt><trkpt lat="46.19672800882479" lon="12.77605093332422"><ele>272.0</ele><time>2026-03-22T08:56:26Z</time></trkpt><trkpt lat="46.19657715910264" lon="12.775850909407568"><ele>272.0</ele><time>2026-03-22T08:56:27Z</time></trkpt><trkpt lat="46.19644915430423" lon="12.775680426544412"><ele>271.6666666666667</ele><time>2026-03-22T08:56:28Z</time></trkpt><trkpt lat="46.1963295430072" lon="12.775521122711732"><ele>271.3333333333333</ele><time>2026-03-22T08:56:29Z</time></trkpt><trkpt lat="46.19620922964256" lon="12.77536105433273"><ele>271.0</ele><time>2026-03-22T08:56:30Z</time></trkpt><trkpt lat="46.196081882915024" lon="12.775198293155903"><ele>271.3333333333333</ele><time>2026-03-22T08:56:31Z</time></trkpt><trkpt lat="46.19595101672215" lon="12.775042482957243"><ele>271.6666666666667</ele><time>2026-03-22T08:56:32Z</time></trkpt><trkpt lat="46.195815360391315" lon="12.774894204949005"><ele>272.0</ele><time>2026-03-22T08:56:33Z</time></trkpt><trkpt lat="46.19567010494887" lon="12.774764408889451"><ele>271.0</ele><time>2026-03-22T08:56:34Z</time></trkpt><trkpt lat="46.19553392934708" lon="12.774654636902788"><ele>270.0</ele><time>2026-03-22T08:56:35Z</time></trkpt><trkpt lat="46.195401429672394" lon="12.774561093033801"><ele>269.0</ele><time>2026-03-22T08:56:36Z</time></trkpt><trkpt lat="46.19526724478995" lon="12.774476435617958"><ele>269.0</ele><time>2026-03-22T08:56:37Z</time></trkpt><trkpt lat="46.19513791836668" lon="12.774397593133637"><ele>269.0</ele><time>2026-03-22T08:56:38Z</time></trkpt><trkpt lat="46.19500999488167" lon="12.774319285865362"><ele>269.0</ele><time>2026-03-22T08:56:39Z</time></trkpt><trkpt lat="46.194883139025556" lon="12.774242226879185"><ele>269.0</ele><time>2026-03-22T08:56:40Z</time></trkpt><trkpt lat="46.19475716539012" lon="12.77416570374309"><ele>268.75</ele><time>2026-03-22T08:56:41Z</time></trkpt><trkpt lat="46.19463169885873" lon="12.774089488668297"><ele>268.5</ele><time>2026-03-22T08:56:42Z</time></trkpt><trkpt lat="46.19450311884363" lon="12.774036695605528"><ele>268.25</ele><time>2026-03-22T08:56:43Z</time></trkpt><trkpt lat="46.19438042315231" lon="12.773961023476673"><ele>268.0</ele><time>2026-03-22T08:56:44Z</time></trkpt><trkpt lat="46.19425988683463" lon="12.773888370180257"><ele>268.0</ele><time>2026-03-22T08:56:45Z</time></trkpt><trkpt lat="46.19413814923868" lon="12.773812765539585"><ele>268.0</ele><time>2026-03-22T08:56:46Z</time></trkpt><trkpt lat="46.194019381857565" lon="12.773733323620908"><ele>268.0</ele><time>2026-03-22T08:56:47Z</time></trkpt><trkpt lat="46.19389694675187" lon="12.773668952367636"><ele>268.0</ele><time>2026-03-22T08:56:48Z</time></trkpt><trkpt lat="46.19378130674614" lon="12.773572584943809"><ele>267.5</ele><time>2026-03-22T08:56:49Z</time></trkpt><trkpt lat="46.1936583900036" lon="12.773522507885051"><ele>267.0</ele><time>2026-03-22T08:56:50Z</time></trkpt><trkpt lat="46.19354431062842" lon="12.773449514476718"><ele>266.5</ele><time>2026-03-22T08:56:51Z</time></trkpt><trkpt lat="46.193431220017985" lon="12.77338213189193"><ele>266.0</ele><time>2026-03-22T08:56:52Z</time></trkpt><trkpt lat="46.19332799258494" lon="12.773316721941962"><ele>266.2</ele><time>2026-03-22T08:56:53Z</time></trkpt><trkpt lat="46.193230489570496" lon="12.773250321174903"><ele>266.40000000000003</ele><time>2026-03-22T08:56:54Z</time></trkpt><trkpt lat="46.19313620403255" lon="12.773197666548858"><ele>266.6</ele><time>2026-03-22T08:56:55Z</time></trkpt><trkpt lat="46.19305375884563" lon="12.77315067829756"><ele>266.8</ele><time>2026-03-22T08:56:56Z</time></trkpt><trkpt lat="46.192977336396225" lon="12.773106375168725"><ele>267.0</ele><time>2026-03-22T08:56:57Z</time></trkpt><trkpt lat="46.19290200744727" lon="12.773061769846597"><ele>267.00000000000006</ele><time>2026-03-22T08:56:58Z</time></trkpt><trkpt lat="46.19283153191352" lon="12.773019685941156"><ele>267.0</ele><time>2026-03-22T08:56:59Z</time></trkpt><trkpt lat="46.19276569774446" lon="12.77297567299787"><ele>267.0</ele><time>2026-03-22T08:57:00Z</time></trkpt><trkpt lat="46.192699498223384" lon="12.772934517243813"><ele>267.0</ele><time>2026-03-22T08:57:01Z</time></trkpt><trkpt lat="46.19263349868506" lon="12.7728882207568"><ele>267.0</ele><time>2026-03-22T08:57:02Z</time></trkpt><trkpt lat="46.19256927720188" lon="12.772844166557645"><ele>267.00000000000006</ele><time>2026-03-22T08:57:03Z</time></trkpt><trkpt lat="46.192503256856035" lon="12.772802964752897"><ele>267.0</ele><time>2026-03-22T08:57:04Z</time></trkpt><trkpt lat="46.19243303359086" lon="12.772763476190761"><ele>267.00000000000006</ele><time>2026-03-22T08:57:05Z</time></trkpt><trkpt lat="46.192360026033214" lon="12.772726241180543"><ele>267.0</ele><time>2026-03-22T08:57:06Z</time></trkpt><trkpt lat="46.192291050407135" lon="12.772676137879792"><ele>267.0</ele><time>2026-03-22T08:57:07Z</time></trkpt><trkpt lat="46.19222796476594" lon="12.772607694643249"><ele>267.0</ele><time>2026-03-22T08:57:08Z</time></trkpt><trkpt lat="46.19217890299707" lon="12.772522583335252"><ele>267.0</ele><time>2026-03-22T08:57:09Z</time></trkpt><trkpt lat="46.192142277158474" lon="12.77244257598444"><ele>267.00000000000006</ele><time>2026-03-22T08:57:10Z</time></trkpt><trkpt lat="46.192098897707986" lon="12.772373573071523"><ele>267.0</ele><time>2026-03-22T08:57:11Z</time></trkpt><trkpt lat="46.191995889816965" lon="12.772256042112758"><ele>266.6</ele><time>2026-03-22T08:57:13Z</time></trkpt><trkpt lat="46.19189424301525" lon="12.772319405534772"><ele>266.2</ele><time>2026-03-22T08:57:14Z</time></trkpt><trkpt lat="46.19179936581965" lon="12.772324493266883"><ele>265.8</ele><time>2026-03-22T08:57:15Z</time></trkpt><trkpt lat="46.191694338687896" lon="12.772319853563243"><ele>265.4</ele><time>2026-03-22T08:57:16Z</time></trkpt><trkpt lat="46.191590030791566" lon="12.772258106118702"><ele>265.0</ele><time>2026-03-22T08:57:17Z</time></trkpt><trkpt lat="46.191474936374235" lon="12.772188805989973"><ele>264.3333333333333</ele><time>2026-03-22T08:57:18Z</time></trkpt><trkpt lat="46.19132696911572" lon="12.772128819562612"><ele>263.6666666666667</ele><time>2026-03-22T08:57:19Z</time></trkpt><trkpt lat="46.19116177851866" lon="12.77202513521446"><ele>263.0</ele><time>2026-03-22T08:57:20Z</time></trkpt><trkpt lat="46.190971476401685" lon="12.771918462858023"><ele>263.0</ele><time>2026-03-22T08:57:21Z</time></trkpt><trkpt lat="46.190768518233256" lon="12.771778785397197"><ele>263.0</ele><time>2026-03-22T08:57:22Z</time></trkpt><trkpt lat="46.19054237446982" lon="12.771649085157481"><ele>262.5</ele><time>2026-03-22T08:57:23Z</time></trkpt><trkpt lat="46.190311352833724" lon="12.771520034018128"><ele>262.0</ele><time>2026-03-22T08:57:24Z</time></trkpt><trkpt lat="46.19010734451247" lon="12.771427055437478"><ele>262.0</ele><time>2026-03-22T08:57:25Z</time></trkpt><trkpt lat="46.189937618679856" lon="12.77132739525261"><ele>262.0</ele><time>2026-03-22T08:57:26Z</time></trkpt><trkpt lat="46.18978088538492" lon="12.771236940870104"><ele>262.0</ele><time>2026-03-22T08:57:27Z</time></trkpt><trkpt lat="46.189624472687285" lon="12.77114867665661"><ele>262.0</ele><time>2026-03-22T08:57:28Z</time></trkpt><trkpt lat="46.18947211458458" lon="12.77106384865899"><ele>262.0</ele><time>2026-03-22T08:57:29Z</time></trkpt><trkpt lat="46.18932468681276" lon="12.770980454496991"><ele>262.0</ele><time>2026-03-22T08:57:30Z</time></trkpt><trkpt lat="46.18917176118086" lon="12.770894354127078"><ele>262.3333333333333</ele><time>2026-03-22T08:57:31Z</time></trkpt><trkpt lat="46.189020169689414" lon="12.770782247432367"><ele>262.6666666666667</ele><time>2026-03-22T08:57:32Z</time></trkpt><trkpt lat="46.18886553885945" lon="12.77069353871886"><ele>263.0</ele><time>2026-03-22T08:57:33Z</time></trkpt><trkpt lat="46.188718398680635" lon="12.77060914473415"><ele>263.0</ele><time>2026-03-22T08:57:34Z</time></trkpt><trkpt lat="46.188579937983185" lon="12.770529728782305"><ele>263.0</ele><time>2026-03-22T08:57:35Z</time></trkpt><trkpt lat="46.18844163985579" lon="12.770450406309267"><ele>263.0</ele><time>2026-03-22T08:57:36Z</time></trkpt><trkpt lat="46.188300615273874" lon="12.770369519926515"><ele>263.0</ele><time>2026-03-22T08:57:37Z</time></trkpt><trkpt lat="46.188162468402524" lon="12.770290286096879"><ele>262.25</ele><time>2026-03-22T08:57:38Z</time></trkpt><trkpt lat="46.18802365049212" lon="12.770235713822492"><ele>261.5</ele><time>2026-03-22T08:57:39Z</time></trkpt><trkpt lat="46.187897737689575" lon="12.770156642069407"><ele>260.75</ele><time>2026-03-22T08:57:40Z</time></trkpt><trkpt lat="46.18777046545792" lon="12.77008984156219"><ele>260.0</ele><time>2026-03-22T08:57:41Z</time></trkpt><trkpt lat="46.18764959392888" lon="12.77001373774563"><ele>260.0</ele><time>2026-03-22T08:57:42Z</time></trkpt><trkpt lat="46.187525718108944" lon="12.769936200067008"><ele>260.0</ele><time>2026-03-22T08:57:43Z</time></trkpt><trkpt lat="46.1874066521819" lon="12.769866227288142"><ele>260.0</ele><time>2026-03-22T08:57:44Z</time></trkpt><trkpt lat="46.18729646914743" lon="12.769784002527121"><ele>260.0</ele><time>2026-03-22T08:57:45Z</time></trkpt><trkpt lat="46.18719362422756" lon="12.769700254029893"><ele>259.6</ele><time>2026-03-22T08:57:46Z</time></trkpt><trkpt lat="46.187098507056014" lon="12.769613445855889"><ele>259.2</ele><time>2026-03-22T08:57:47Z</time></trkpt><trkpt lat="46.18701060972398" lon="12.769525897277807"><ele>258.8</ele><time>2026-03-22T08:57:48Z</time></trkpt><trkpt lat="46.18692963065071" lon="12.769437965972664"><ele>258.4</ele><time>2026-03-22T08:57:49Z</time></trkpt><trkpt lat="46.18685133933676" lon="12.769344519512968"><ele>258.0</ele><time>2026-03-22T08:57:50Z</time></trkpt><trkpt lat="46.18677443513485" lon="12.769248122953469"><ele>257.8</ele><time>2026-03-22T08:57:51Z</time></trkpt><trkpt lat="46.186700051903" lon="12.769145754465553"><ele>257.6</ele><time>2026-03-22T08:57:52Z</time></trkpt><trkpt lat="46.18662638005901" lon="12.769038389855943"><ele>257.4</ele><time>2026-03-22T08:57:53Z</time></trkpt><trkpt lat="46.18655195066814" lon="12.768924829457081"><ele>257.2</ele><time>2026-03-22T08:57:54Z</time></trkpt><trkpt lat="46.18648407737031" lon="12.768807356097716"><ele>257.0</ele><time>2026-03-22T08:57:55Z</time></trkpt><trkpt lat="46.18641528918413" lon="12.768676358577148"><ele>257.0</ele><time>2026-03-22T08:57:56Z</time></trkpt><trkpt lat="46.18635299139641" lon="12.76854329606146"><ele>257.0</ele><time>2026-03-22T08:57:57Z</time></trkpt><trkpt lat="46.186295894249035" lon="12.768414868865165"><ele>257.0</ele><time>2026-03-22T08:57:58Z</time></trkpt><trkpt lat="46.186258445442924" lon="12.76828010921198"><ele>257.0</ele><time>2026-03-22T08:57:59Z</time></trkpt><trkpt lat="46.18621167688318" lon="12.768157988638931"><ele>257.0</ele><time>2026-03-22T08:58:00Z</time></trkpt><trkpt lat="46.18615525105701" lon="12.768052519816745"><ele>256.8</ele><time>2026-03-22T08:58:01Z</time></trkpt><trkpt lat="46.18611054281015" lon="12.767930045032461"><ele>256.6</ele><time>2026-03-22T08:58:02Z</time></trkpt><trkpt lat="46.18606467724673" lon="12.767801923319487"><ele>256.40000000000003</ele><time>2026-03-22T08:58:03Z</time></trkpt><trkpt lat="46.18601573929702" lon="12.767672486474767"><ele>256.2</ele><time>2026-03-22T08:58:04Z</time></trkpt><trkpt lat="46.185969040930495" lon="12.767549500213963"><ele>256.0</ele><time>2026-03-22T08:58:05Z</time></trkpt><trkpt lat="46.18592507699947" lon="12.767438925122075"><ele>255.99999999999997</ele><time>2026-03-22T08:58:06Z</time></trkpt><trkpt lat="46.18588153679998" lon="12.76732512886738"><ele>256.0</ele><time>2026-03-22T08:58:07Z</time></trkpt><trkpt lat="46.18583871552333" lon="12.76721643035924"><ele>256.0</ele><time>2026-03-22T08:58:08Z</time></trkpt><trkpt lat="46.185799878377345" lon="12.767102819767855"><ele>256.0</ele><time>2026-03-22T08:58:09Z</time></trkpt><trkpt lat="46.18576124464557" lon="12.76699486342418"><ele>255.99999999999997</ele><time>2026-03-22T08:58:10Z</time></trkpt><trkpt lat="46.18572273280134" lon="12.766892695772"><ele>256.0</ele><time>2026-03-22T08:58:11Z</time></trkpt><trkpt lat="46.18568094689985" lon="12.766786687555392"><ele>255.83333333333331</ele><time>2026-03-22T08:58:12Z</time></trkpt><trkpt lat="46.185642843430344" lon="12.766682294514256"><ele>255.66666666666666</ele><time>2026-03-22T08:58:13Z</time></trkpt><trkpt lat="46.18560429819679" lon="12.766587319619616"><ele>255.5</ele><time>2026-03-22T08:58:14Z</time></trkpt><trkpt lat="46.185556984405885" lon="12.766469026669672"><ele>255.33333333333331</ele><time>2026-03-22T08:58:16Z</time></trkpt><trkpt lat="46.18548537315898" lon="12.766398518946993"><ele>255.16666666666666</ele><time>2026-03-22T08:58:24Z</time></trkpt><trkpt lat="46.18542393935947" lon="12.76650247788487"><ele>255.0</ele><time>2026-03-22T08:58:27Z</time></trkpt><trkpt lat="46.1853727493369" lon="12.766444036248197"><ele>255.0</ele><time>2026-03-22T08:58:28Z</time></trkpt><trkpt lat="46.185464020225474" lon="12.766593779464129"><ele>255.0</ele><time>2026-03-22T08:58:29Z</time></trkpt><trkpt lat="46.185478541471184" lon="12.766683647531798"><ele>255.0</ele><time>2026-03-22T08:58:32Z</time></trkpt><trkpt lat="46.18556157375927" lon="12.766698942161085"><ele>255.0</ele><time>2026-03-22T09:03:21Z</time></trkpt><trkpt lat="46.185594302798755" lon="12.76685453452963"><ele>255.0</ele><time>2026-03-22T09:03:24Z</time></trkpt><trkpt lat="46.185626379261464" lon="12.766961833070082"><ele>255.25</ele><time>2026-03-22T09:03:26Z</time></trkpt><trkpt lat="46.185829030616986" lon="12.767200254415897"><ele>255.5</ele><time>2026-03-22T09:03:34Z</time></trkpt><trkpt lat="46.18586774361128" lon="12.767314760935319"><ele>255.75</ele><time>2026-03-22T09:03:35Z</time></trkpt><trkpt lat="46.18591118743192" lon="12.767431727040188"><ele>256.0</ele><time>2026-03-22T09:03:36Z</time></trkpt><trkpt lat="46.185949704492266" lon="12.767537876330085"><ele>256.0</ele><time>2026-03-22T09:03:37Z</time></trkpt><trkpt lat="46.18599075136738" lon="12.76765397594318"><ele>256.0</ele><time>2026-03-22T09:03:38Z</time></trkpt><trkpt lat="46.18603245486413" lon="12.767777089834809"><ele>256.0</ele><time>2026-03-22T09:03:39Z</time></trkpt><trkpt lat="46.18607932402176" lon="12.76790785962322"><ele>256.0</ele><time>2026-03-22T09:03:40Z</time></trkpt><trkpt lat="46.18612850361204" lon="12.768041986911244"><ele>256.0</ele><time>2026-03-22T09:03:41Z</time></trkpt><trkpt lat="46.18618185389474" lon="12.768188669361853"><ele>256.0</ele><time>2026-03-22T09:03:42Z</time></trkpt><trkpt lat="46.18623719892065" lon="12.768330683187044"><ele>256.0</ele><time>2026-03-22T09:03:43Z</time></trkpt><trkpt lat="46.1862988279966" lon="12.76848138965474"><ele>256.0</ele><time>2026-03-22T09:03:44Z</time></trkpt><trkpt lat="46.18636414480448" lon="12.768631886517674"><ele>256.0</ele><time>2026-03-22T09:03:45Z</time></trkpt><trkpt lat="46.18643958462393" lon="12.768781836315533"><ele>256.25</ele><time>2026-03-22T09:03:46Z</time></trkpt><trkpt lat="46.18652231969156" lon="12.768928922272755"><ele>256.5</ele><time>2026-03-22T09:03:47Z</time></trkpt><trkpt lat="46.186614579127436" lon="12.769071629614198"><ele>256.75</ele><time>2026-03-22T09:03:48Z</time></trkpt><trkpt lat="46.186715889981386" lon="12.769209533731356"><ele>257.0</ele><time>2026-03-22T09:03:49Z</time></trkpt><trkpt lat="46.18682633091437" lon="12.769350348369878"><ele>257.33333333333337</ele><time>2026-03-22T09:03:50Z</time></trkpt><trkpt lat="46.186948373482984" lon="12.769489421037678"><ele>257.6666666666667</ele><time>2026-03-22T09:03:51Z</time></trkpt><trkpt lat="46.18708200239243" lon="12.769627379491753"><ele>258.0</ele><time>2026-03-22T09:03:52Z</time></trkpt><trkpt lat="46.18721004425101" lon="12.769750075878274"><ele>258.0</ele><time>2026-03-22T09:03:53Z</time></trkpt><trkpt lat="46.18733048802897" lon="12.769844197610652"><ele>258.0</ele><time>2026-03-22T09:03:54Z</time></trkpt><trkpt lat="46.187453946402485" lon="12.769928619940849"><ele>258.0</ele><time>2026-03-22T09:03:55Z</time></trkpt><trkpt lat="46.18758637636959" lon="12.770012654133938"><ele>258.0</ele><time>2026-03-22T09:03:56Z</time></trkpt><trkpt lat="46.1877271022906" lon="12.770098196693747"><ele>258.0</ele><time>2026-03-22T09:03:57Z</time></trkpt><trkpt lat="46.18787424801832" lon="12.770182622212069"><ele>258.0</ele><time>2026-03-22T09:03:58Z</time></trkpt><trkpt lat="46.18802537011958" lon="12.77026514537394"><ele>258.0</ele><time>2026-03-22T09:03:59Z</time></trkpt><trkpt lat="46.18818207849255" lon="12.770351342925837"><ele>259.6666666666667</ele><time>2026-03-22T09:04:00Z</time></trkpt><trkpt lat="46.188359502444044" lon="12.770452953705927"><ele>261.33333333333337</ele><time>2026-03-22T09:04:01Z</time></trkpt><trkpt lat="46.18855115466138" lon="12.770566245324183"><ele>263.0</ele><time>2026-03-22T09:04:02Z</time></trkpt><trkpt lat="46.18876040539237" lon="12.770686599977056"><ele>263.0</ele><time>2026-03-22T09:04:03Z</time></trkpt><trkpt lat="46.18897966843011" lon="12.770810969466789"><ele>263.0</ele><time>2026-03-22T09:04:04Z</time></trkpt><trkpt lat="46.18919698794786" lon="12.770928224370358"><ele>262.6666666666667</ele><time>2026-03-22T09:04:05Z</time></trkpt><trkpt lat="46.18940660849432" lon="12.771047390607926"><ele>262.3333333333333</ele><time>2026-03-22T09:04:06Z</time></trkpt><trkpt lat="46.189588729601546" lon="12.771158017247926"><ele>262.0</ele><time>2026-03-22T09:04:07Z</time></trkpt><trkpt lat="46.189757678846426" lon="12.77125770969069"><ele>262.0</ele><time>2026-03-22T09:04:08Z</time></trkpt><trkpt lat="46.190050053473406" lon="12.771434880200792"><ele>262.0</ele><time>2026-03-22T09:04:09Z</time></trkpt><trkpt lat="46.19022003083245" lon="12.771529723745846"><ele>262.0</ele><time>2026-03-22T09:04:10Z</time></trkpt><trkpt lat="46.190376146490586" lon="12.77161761508684"><ele>262.0</ele><time>2026-03-22T09:04:11Z</time></trkpt><trkpt lat="46.1905203010243" lon="12.771710059069672"><ele>262.0</ele><time>2026-03-22T09:04:12Z</time></trkpt><trkpt lat="46.19066913979063" lon="12.771792912568515"><ele>262.3333333333333</ele><time>2026-03-22T09:04:13Z</time></trkpt><trkpt lat="46.19082017565585" lon="12.771879402123362"><ele>262.6666666666667</ele><time>2026-03-22T09:04:14Z</time></trkpt><trkpt lat="46.1909683780721" lon="12.771957615569189"><ele>263.0</ele><time>2026-03-22T09:04:15Z</time></trkpt><trkpt lat="46.19109807135674" lon="12.772031460397532"><ele>263.0</ele><time>2026-03-22T09:04:16Z</time></trkpt><trkpt lat="46.191220333041265" lon="12.772106729243271"><ele>263.0</ele><time>2026-03-22T09:04:17Z</time></trkpt><trkpt lat="46.19134068240825" lon="12.772175701903112"><ele>263.0</ele><time>2026-03-22T09:04:18Z</time></trkpt><trkpt lat="46.19145602483207" lon="12.772242182706018"><ele>263.0</ele><time>2026-03-22T09:04:19Z</time></trkpt><trkpt lat="46.191555154381845" lon="12.77231168538856"><ele>263.4</ele><time>2026-03-22T09:04:20Z</time></trkpt><trkpt lat="46.191640128646675" lon="12.772369451096354"><ele>263.8</ele><time>2026-03-22T09:04:21Z</time></trkpt><trkpt lat="46.1917211697209" lon="12.772427948713945"><ele>264.2</ele><time>2026-03-22T09:04:22Z</time></trkpt><trkpt lat="46.19180091213265" lon="12.772617518323948"><ele>264.6</ele><time>2026-03-22T09:04:24Z</time></trkpt><trkpt lat="46.191804738562766" lon="12.77271703415684"><ele>265.0</ele><time>2026-03-22T09:04:25Z</time></trkpt><trkpt lat="46.19178525852044" lon="12.772824685400652"><ele>265.0</ele><time>2026-03-22T09:04:26Z</time></trkpt><trkpt lat="46.191731489143024" lon="12.772921502718399"><ele>265.0</ele><time>2026-03-22T09:04:27Z</time></trkpt><trkpt lat="46.19160711596877" lon="12.773035799529199"><ele>265.0</ele><time>2026-03-22T09:04:28Z</time></trkpt><trkpt lat="46.19151401095807" lon="12.773198741846276"><ele>265.0</ele><time>2026-03-22T09:04:29Z</time></trkpt><trkpt lat="46.19143733401237" lon="12.773355859611444"><ele>264.5</ele><time>2026-03-22T09:04:30Z</time></trkpt><trkpt lat="46.1913837209398" lon="12.773523718490916"><ele>264.0</ele><time>2026-03-22T09:04:31Z</time></trkpt><trkpt lat="46.19132775220219" lon="12.773699923562875"><ele>263.5</ele><time>2026-03-22T09:04:32Z</time></trkpt><trkpt lat="46.19129021546867" lon="12.773896198330082"><ele>263.0</ele><time>2026-03-22T09:04:33Z</time></trkpt><trkpt lat="46.19127181314136" lon="12.774101227316178"><ele>263.0</ele><time>2026-03-22T09:04:34Z</time></trkpt><trkpt lat="46.1912751187788" lon="12.774322406337884"><ele>263.0</ele><time>2026-03-22T09:04:35Z</time></trkpt><trkpt lat="46.191296540555506" lon="12.774558285158314"><ele>263.0</ele><time>2026-03-22T09:04:36Z</time></trkpt><trkpt lat="46.191326981342435" lon="12.774780853794688"><ele>262.6666666666667</ele><time>2026-03-22T09:04:37Z</time></trkpt><trkpt lat="46.19136567784963" lon="12.775008024018502"><ele>262.3333333333333</ele><time>2026-03-22T09:04:38Z</time></trkpt><trkpt lat="46.19141466726765" lon="12.775239131210588"><ele>262.0</ele><time>2026-03-22T09:04:39Z</time></trkpt><trkpt lat="46.19146493557731" lon="12.775466400657065"><ele>262.66666666666663</ele><time>2026-03-22T09:04:40Z</time></trkpt><trkpt lat="46.19152646110818" lon="12.775685120274934"><ele>263.3333333333333</ele><time>2026-03-22T09:04:41Z</time></trkpt><trkpt lat="46.19158947323896" lon="12.77589520272881"><ele>264.0</ele><time>2026-03-22T09:04:42Z</time></trkpt><trkpt lat="46.19167221092039" lon="12.776112598228067"><ele>264.0</ele><time>2026-03-22T09:04:43Z</time></trkpt><trkpt lat="46.191785399207966" lon="12.776352268470381"><ele>264.0</ele><time>2026-03-22T09:04:44Z</time></trkpt><trkpt lat="46.191915038213686" lon="12.77661561895464"><ele>264.0</ele><time>2026-03-22T09:04:45Z</time></trkpt><trkpt lat="46.19201870196733" lon="12.776818414588405"><ele>263.25</ele><time>2026-03-22T09:04:46Z</time></trkpt><trkpt lat="46.19210176306959" lon="12.776984723439389"><ele>262.5</ele><time>2026-03-22T09:04:47Z</time></trkpt><trkpt lat="46.19215692263774" lon="12.777133808523404"><ele>261.75</ele><time>2026-03-22T09:04:48Z</time></trkpt><trkpt lat="46.19217970525927" lon="12.777299093595353"><ele>261.0</ele><time>2026-03-22T09:04:49Z</time></trkpt><trkpt lat="46.192170580128625" lon="12.77747631806417"><ele>261.0</ele><time>2026-03-22T09:04:50Z</time></trkpt><trkpt lat="46.19215012260862" lon="12.777712501272395"><ele>261.0</ele><time>2026-03-22T09:04:51Z</time></trkpt><trkpt lat="46.19208639136986" lon="12.777980860342703"><ele>261.0</ele><time>2026-03-22T09:04:52Z</time></trkpt><trkpt lat="46.1920699432511" lon="12.778215413837298"><ele>261.0</ele><time>2026-03-22T09:04:53Z</time></trkpt><trkpt lat="46.192053433249185" lon="12.77838756710807"><ele>261.0</ele><time>2026-03-22T09:04:54Z</time></trkpt><trkpt lat="46.19203269168363" lon="12.778502625215708"><ele>261.0</ele><time>2026-03-22T09:04:55Z</time></trkpt><trkpt lat="46.19208418911842" lon="12.778623369237508"><ele>261.0</ele><time>2026-03-22T09:04:56Z</time></trkpt><trkpt lat="46.192092665941786" lon="12.778724197960889"><ele>261.0</ele><time>2026-03-22T09:04:57Z</time></trkpt><trkpt lat="46.19209260857078" lon="12.778829441905073"><ele>261.0</ele><time>2026-03-22T09:04:58Z</time></trkpt><trkpt lat="46.19207204002526" lon="12.778959606606493"><ele>261.0</ele><time>2026-03-22T09:04:59Z</time></trkpt><trkpt lat="46.19202377037632" lon="12.779105280896747"><ele>261.0</ele><time>2026-03-22T09:05:00Z</time></trkpt><trkpt lat="46.19195107813983" lon="12.779277394457006"><ele>261.0</ele><time>2026-03-22T09:05:01Z</time></trkpt><trkpt lat="46.191888055596" lon="12.779439684366999"><ele>261.0</ele><time>2026-03-22T09:05:02Z</time></trkpt><trkpt lat="46.191845718462794" lon="12.779643270072233"><ele>260.3333333333333</ele><time>2026-03-22T09:05:03Z</time></trkpt><trkpt lat="46.19180852794871" lon="12.779878936107616"><ele>259.66666666666663</ele><time>2026-03-22T09:05:04Z</time></trkpt><trkpt lat="46.19178121459159" lon="12.780127270955862"><ele>259.0</ele><time>2026-03-22T09:05:05Z</time></trkpt><trkpt lat="46.19175379570946" lon="12.780368047796228"><ele>258.0</ele><time>2026-03-22T09:05:06Z</time></trkpt><trkpt lat="46.19172942126831" lon="12.7805889748729"><ele>257.0</ele><time>2026-03-22T09:05:07Z</time></trkpt><trkpt lat="46.19170765815521" lon="12.78079631804931"><ele>256.0</ele><time>2026-03-22T09:05:08Z</time></trkpt><trkpt lat="46.191684205472015" lon="12.780991466009388"><ele>255.0</ele><time>2026-03-22T09:05:09Z</time></trkpt><trkpt lat="46.19167355802689" lon="12.781172923569134"><ele>254.5</ele><time>2026-03-22T09:05:10Z</time></trkpt><trkpt lat="46.19165425722684" lon="12.781345225605904"><ele>254.0</ele><time>2026-03-22T09:05:11Z</time></trkpt><trkpt lat="46.191689856376286" lon="12.781531712170002"><ele>253.5</ele><time>2026-03-22T09:05:12Z</time></trkpt><trkpt lat="46.19170734644825" lon="12.781740355192973"><ele>253.0</ele><time>2026-03-22T09:05:13Z</time></trkpt><trkpt lat="46.1916895393619" lon="12.781963602597706"><ele>252.66666666666666</ele><time>2026-03-22T09:05:14Z</time></trkpt><trkpt lat="46.19168268020278" lon="12.782241805770216"><ele>252.33333333333331</ele><time>2026-03-22T09:05:15Z</time></trkpt><trkpt lat="46.191678120612494" lon="12.782556942450057"><ele>252.0</ele><time>2026-03-22T09:05:16Z</time></trkpt><trkpt lat="46.191688415805615" lon="12.782845609655022"><ele>251.33333333333331</ele><time>2026-03-22T09:05:17Z</time></trkpt><trkpt lat="46.19167086123791" lon="12.783088464106507"><ele>250.66666666666666</ele><time>2026-03-22T09:05:18Z</time></trkpt><trkpt lat="46.19166621257678" lon="12.783307863926181"><ele>250.0</ele><time>2026-03-22T09:05:19Z</time></trkpt><trkpt lat="46.191671745302756" lon="12.783524262781858"><ele>248.8</ele><time>2026-03-22T09:05:20Z</time></trkpt><trkpt lat="46.19170879101193" lon="12.783716595149277"><ele>247.6</ele><time>2026-03-22T09:05:21Z</time></trkpt><trkpt lat="46.19173666640504" lon="12.783864678850593"><ele>246.39999999999998</ele><time>2026-03-22T09:05:22Z</time></trkpt><trkpt lat="46.19176061184637" lon="12.783975637069368"><ele>245.2</ele><time>2026-03-22T09:05:23Z</time></trkpt><trkpt lat="46.191789616625286" lon="12.784076658752975"><ele>244.0</ele><time>2026-03-22T09:05:24Z</time></trkpt><trkpt lat="46.19179980792883" lon="12.784181900623048"><ele>243.99999999999997</ele><time>2026-03-22T09:05:25Z</time></trkpt><trkpt lat="46.19182264811157" lon="12.784271102659941"><ele>244.0</ele><time>2026-03-22T09:05:26Z</time></trkpt><trkpt lat="46.1918453305367" lon="12.784361324043148"><ele>244.0</ele><time>2026-03-22T09:05:27Z</time></trkpt><trkpt lat="46.19186671771268" lon="12.784452344174401"><ele>244.0</ele><time>2026-03-22T09:05:28Z</time></trkpt><trkpt lat="46.191888044951625" lon="12.784544191692145"><ele>243.99999999999997</ele><time>2026-03-22T09:05:29Z</time></trkpt><trkpt lat="46.191930269183054" lon="12.784701732448806"><ele>244.0</ele><time>2026-03-22T09:05:31Z</time></trkpt><trkpt lat="46.191947907830915" lon="12.784810449624022"><ele>242.75</ele><time>2026-03-22T09:05:33Z</time></trkpt><trkpt lat="46.1920365147432" lon="12.784785772784552"><ele>241.5</ele><time>2026-03-22T09:05:34Z</time></trkpt><trkpt lat="46.19217767503348" lon="12.784706581919453"><ele>240.25</ele><time>2026-03-22T09:05:36Z</time></trkpt><trkpt lat="46.19229379229062" lon="12.784634024808367"><ele>239.0</ele><time>2026-03-22T09:05:37Z</time></trkpt><trkpt lat="46.19242632856143" lon="12.7845828175588"><ele>238.75</ele><time>2026-03-22T09:05:38Z</time></trkpt><trkpt lat="46.19260219628055" lon="12.7845377206047"><ele>238.5</ele><time>2026-03-22T09:05:39Z</time></trkpt><trkpt lat="46.192735149497736" lon="12.784530553371273"><ele>238.25</ele><time>2026-03-22T09:05:40Z</time></trkpt><trkpt lat="46.19285089564141" lon="12.784544518320864"><ele>238.0</ele><time>2026-03-22T09:05:41Z</time></trkpt><trkpt lat="46.1929584509604" lon="12.784566926369838"><ele>238.0</ele><time>2026-03-22T09:05:42Z</time></trkpt><trkpt lat="46.193069498780616" lon="12.784603761468585"><ele>238.0</ele><time>2026-03-22T09:05:43Z</time></trkpt><trkpt lat="46.19318267136746" lon="12.784656790700273"><ele>238.0</ele><time>2026-03-22T09:05:44Z</time></trkpt><trkpt lat="46.193296687065505" lon="12.784714361958734"><ele>238.0</ele><time>2026-03-22T09:05:45Z</time></trkpt><trkpt lat="46.193404619779066" lon="12.784771560289348"><ele>238.4</ele><time>2026-03-22T09:05:46Z</time></trkpt><trkpt lat="46.19350205406948" lon="12.7848214208591"><ele>238.8</ele><time>2026-03-22T09:05:47Z</time></trkpt><trkpt lat="46.193592616580474" lon="12.784869733002951"><ele>239.2</ele><time>2026-03-22T09:05:48Z</time></trkpt><trkpt lat="46.19368630936199" lon="12.784917768240968"><ele>239.6</ele><time>2026-03-22T09:05:49Z</time></trkpt><trkpt lat="46.1937853037937" lon="12.784967432294101"><ele>240.0</ele><time>2026-03-22T09:05:50Z</time></trkpt><trkpt lat="46.19386263263758" lon="12.785018802370258"><ele>240.0</ele><time>2026-03-22T09:05:51Z</time></trkpt><trkpt lat="46.19395006699707" lon="12.78507313843044"><ele>240.0</ele><time>2026-03-22T09:05:52Z</time></trkpt><trkpt lat="46.194018839648145" lon="12.785108745977734"><ele>240.0</ele><time>2026-03-22T09:05:53Z</time></trkpt><trkpt lat="46.19413261204296" lon="12.785070329461487"><ele>240.0</ele><time>2026-03-22T09:05:55Z</time></trkpt><trkpt lat="46.19418813140675" lon="12.785009189357485"><ele>240.0</ele><time>2026-03-22T09:05:56Z</time></trkpt><trkpt lat="46.19421930747116" lon="12.784855590971182"><ele>239.4</ele><time>2026-03-22T09:05:57Z</time></trkpt><trkpt lat="46.19426383821091" lon="12.784756234160508"><ele>238.8</ele><time>2026-03-22T09:05:58Z</time></trkpt><trkpt lat="46.19428876043624" lon="12.784663804906495"><ele>238.2</ele><time>2026-03-22T09:05:59Z</time></trkpt><trkpt lat="46.19440071680378" lon="12.784583911145234"><ele>237.6</ele><time>2026-03-22T09:06:01Z</time></trkpt><trkpt lat="46.194490708916916" lon="12.784560514229648"><ele>237.0</ele><time>2026-03-22T09:06:02Z</time></trkpt><trkpt lat="46.19457958418848" lon="12.784546639422624"><ele>237.0</ele><time>2026-03-22T09:06:03Z</time></trkpt><trkpt lat="46.19465837958049" lon="12.784564135832014"><ele>237.0</ele><time>2026-03-22T09:06:04Z</time></trkpt><trkpt lat="46.19474128794952" lon="12.784623560432925"><ele>237.0</ele><time>2026-03-22T09:06:05Z</time></trkpt><trkpt lat="46.19486023005639" lon="12.784729766369368"><ele>237.0</ele><time>2026-03-22T09:06:06Z</time></trkpt><trkpt lat="46.19498755518938" lon="12.784850773106204"><ele>236.83333333333334</ele><time>2026-03-22T09:06:07Z</time></trkpt><trkpt lat="46.19508341973113" lon="12.784952820876457"><ele>236.66666666666669</ele><time>2026-03-22T09:06:08Z</time></trkpt><trkpt lat="46.19516669311991" lon="12.785027945020893"><ele>236.5</ele><time>2026-03-22T09:06:09Z</time></trkpt><trkpt lat="46.19524695248098" lon="12.785086888219702"><ele>236.33333333333334</ele><time>2026-03-22T09:06:10Z</time></trkpt><trkpt lat="46.19532054345204" lon="12.7851153364572"><ele>236.16666666666669</ele><time>2026-03-22T09:06:11Z</time></trkpt><trkpt lat="46.1953766983096" lon="12.78515723010226"><ele>236.0</ele><time>2026-03-22T09:06:14Z</time></trkpt><trkpt lat="46.19529643074526" lon="12.785222141143516"><ele>235.66666666666669</ele><time>2026-03-22T09:06:16Z</time></trkpt><trkpt lat="46.19523413377512" lon="12.78526144983306"><ele>235.33333333333334</ele><time>2026-03-22T09:06:17Z</time></trkpt><trkpt lat="46.1951532500903" lon="12.785324719931745"><ele>235.0</ele><time>2026-03-22T09:06:18Z</time></trkpt><trkpt lat="46.195084491893205" lon="12.785389890267957"><ele>234.66666666666669</ele><time>2026-03-22T09:06:19Z</time></trkpt><trkpt lat="46.19503477705128" lon="12.78545212587298"><ele>234.33333333333334</ele><time>2026-03-22T09:06:20Z</time></trkpt><trkpt lat="46.195030701712234" lon="12.785546608176624"><ele>234.0</ele><time>2026-03-22T09:06:21Z</time></trkpt><trkpt lat="46.19513798662878" lon="12.78568720904624"><ele>234.0</ele><time>2026-03-22T09:06:23Z</time></trkpt><trkpt lat="46.19522324980452" lon="12.785753951046289"><ele>234.0</ele><time>2026-03-22T09:06:24Z</time></trkpt><trkpt lat="46.19532259139107" lon="12.785797912120806"><ele>234.0</ele><time>2026-03-22T09:06:25Z</time></trkpt><trkpt lat="46.19543847933452" lon="12.78581837511303"><ele>234.0</ele><time>2026-03-22T09:06:26Z</time></trkpt><trkpt lat="46.195587558568235" lon="12.785820290046717"><ele>234.0</ele><time>2026-03-22T09:06:27Z</time></trkpt><trkpt lat="46.19578581053004" lon="12.78583570078812"><ele>234.0</ele><time>2026-03-22T09:06:28Z</time></trkpt><trkpt lat="46.19596488039262" lon="12.785852722951295"><ele>234.0</ele><time>2026-03-22T09:06:29Z</time></trkpt><trkpt lat="46.19610151846688" lon="12.785865145385621"><ele>234.0</ele><time>2026-03-22T09:06:30Z</time></trkpt><trkpt lat="46.196205623061864" lon="12.785891811543"><ele>234.0</ele><time>2026-03-22T09:06:31Z</time></trkpt><trkpt lat="46.196321506166925" lon="12.785965132243946"><ele>234.0</ele><time>2026-03-22T09:06:32Z</time></trkpt><trkpt lat="46.19647345182341" lon="12.786074563298266"><ele>234.0</ele><time>2026-03-22T09:06:33Z</time></trkpt><trkpt lat="46.19664126100379" lon="12.78621427308454"><ele>233.33333333333331</ele><time>2026-03-22T09:06:34Z</time></trkpt><trkpt lat="46.19681783328268" lon="12.786356960263538"><ele>232.66666666666666</ele><time>2026-03-22T09:06:35Z</time></trkpt><trkpt lat="46.196956461684714" lon="12.786463332497137"><ele>232.0</ele><time>2026-03-22T09:06:36Z</time></trkpt><trkpt lat="46.19707609925044" lon="12.786566275068365"><ele>232.0</ele><time>2026-03-22T09:06:37Z</time></trkpt><trkpt lat="46.19718442186845" lon="12.786683402912228"><ele>232.0</ele><time>2026-03-22T09:06:38Z</time></trkpt><trkpt lat="46.1972874657373" lon="12.786829032794254"><ele>232.0</ele><time>2026-03-22T09:06:39Z</time></trkpt><trkpt lat="46.19738320795872" lon="12.786971050654682"><ele>232.0</ele><time>2026-03-22T09:06:40Z</time></trkpt><trkpt lat="46.197464027895144" lon="12.787087462272615"><ele>232.0</ele><time>2026-03-22T09:06:41Z</time></trkpt><trkpt lat="46.19753428203071" lon="12.787184735680947"><ele>232.0</ele><time>2026-03-22T09:06:42Z</time></trkpt><trkpt lat="46.19759569986357" lon="12.787270432864021"><ele>232.0</ele><time>2026-03-22T09:06:43Z</time></trkpt><trkpt lat="46.197649597058785" lon="12.787338889410762"><ele>232.0</ele><time>2026-03-22T09:06:44Z</time></trkpt><trkpt lat="46.19769501670191" lon="12.787452540348221"><ele>232.0</ele><time>2026-03-22T09:06:46Z</time></trkpt><trkpt lat="46.1976328505253" lon="12.78760470031541"><ele>231.25</ele><time>2026-03-22T09:06:48Z</time></trkpt><trkpt lat="46.197599912086574" lon="12.78774450944565"><ele>230.5</ele><time>2026-03-22T09:06:49Z</time></trkpt><trkpt lat="46.19753570405499" lon="12.78789588938068"><ele>229.75</ele><time>2026-03-22T09:06:50Z</time></trkpt><trkpt lat="46.197459886317624" lon="12.788119024169752"><ele>229.0</ele><time>2026-03-22T09:06:51Z</time></trkpt><trkpt lat="46.19737689846862" lon="12.78836456595203"><ele>228.75</ele><time>2026-03-22T09:06:52Z</time></trkpt><trkpt lat="46.1973001697289" lon="12.788565398546494"><ele>228.5</ele><time>2026-03-22T09:06:53Z</time></trkpt><trkpt lat="46.19723895555495" lon="12.788729597794532"><ele>228.25</ele><time>2026-03-22T09:06:54Z</time></trkpt><trkpt lat="46.19719202593205" lon="12.788875938543521"><ele>228.0</ele><time>2026-03-22T09:06:55Z</time></trkpt><trkpt lat="46.197163940398354" lon="12.789005996930749"><ele>228.0</ele><time>2026-03-22T09:06:56Z</time></trkpt><trkpt lat="46.197159065924446" lon="12.789115704102908"><ele>228.0</ele><time>2026-03-22T09:06:57Z</time></trkpt><trkpt lat="46.19714662901288" lon="12.789239627848225"><ele>228.0</ele><time>2026-03-22T09:06:59Z</time></trkpt><trkpt lat="46.19732683201341" lon="12.789316800119867"><ele>228.0</ele><time>2026-03-22T09:07:03Z</time></trkpt><trkpt lat="46.19747304752225" lon="12.789326533596382"><ele>227.25</ele><time>2026-03-22T09:07:04Z</time></trkpt><trkpt lat="46.19763325352505" lon="12.789352903591855"><ele>226.5</ele><time>2026-03-22T09:07:05Z</time></trkpt><trkpt lat="46.19776851451392" lon="12.789368796546432"><ele>225.75</ele><time>2026-03-22T09:07:06Z</time></trkpt><trkpt lat="46.19787890294255" lon="12.789375481281592"><ele>225.0</ele><time>2026-03-22T09:07:07Z</time></trkpt><trkpt lat="46.19797891865294" lon="12.789372622574332"><ele>225.0</ele><time>2026-03-22T09:07:08Z</time></trkpt><trkpt lat="46.19806464606154" lon="12.789362697929054"><ele>225.0</ele><time>2026-03-22T09:07:09Z</time></trkpt><trkpt lat="46.1981475534595" lon="12.789345168698482"><ele>225.0</ele><time>2026-03-22T09:07:10Z</time></trkpt><trkpt lat="46.19822995244491" lon="12.789336504162359"><ele>225.0</ele><time>2026-03-22T09:07:11Z</time></trkpt><trkpt lat="46.19830248531291" lon="12.789336013060856"><ele>225.0</ele><time>2026-03-22T09:07:12Z</time></trkpt><trkpt lat="46.19840368821298" lon="12.789387076476826"><ele>225.0</ele><time>2026-03-22T09:07:14Z</time></trkpt><trkpt lat="46.198459852524614" lon="12.789456056648083"><ele>225.0</ele><time>2026-03-22T09:07:16Z</time></trkpt><trkpt lat="46.1984363305162" lon="12.78955321628489"><ele>225.0</ele><time>2026-03-22T09:07:25.999Z</time></trkpt><trkpt lat="46.19835101545199" lon="12.78964715247061"><ele>225.0</ele><time>2026-03-22T09:07:27.999Z</time></trkpt><trkpt lat="46.19826176776001" lon="12.789681527576885"><ele>225.0</ele><time>2026-03-22T09:07:29.999Z</time></trkpt><trkpt lat="46.19818253935857" lon="12.78974931745064"><ele>225.0</ele><time>2026-03-22T09:07:32Z</time></trkpt><trkpt lat="46.19812128550875" lon="12.789818035512154"><ele>225.0</ele><time>2026-03-22T09:07:34Z</time></trkpt><trkpt lat="46.198054968853164" lon="12.78992341204241"><ele>225.0</ele><time>2026-03-22T09:08:02Z</time></trkpt><trkpt lat="46.1979716597198" lon="12.790014084835224"><ele>225.0</ele><time>2026-03-22T09:08:04Z</time></trkpt><trkpt lat="46.19789177496185" lon="12.790073632085488"><ele>225.0</ele><time>2026-03-22T09:08:06Z</time></trkpt><trkpt lat="46.1978315907269" lon="12.790106000811859"><ele>225.0</ele><time>2026-03-22T09:08:07Z</time></trkpt><trkpt lat="46.1977262283007" lon="12.790175421430991"><ele>225.0</ele><time>2026-03-22T09:08:09Z</time></trkpt><trkpt lat="46.19762998666624" lon="12.790209249798725"><ele>225.0</ele><time>2026-03-22T09:08:11Z</time></trkpt><trkpt lat="46.19753230757508" lon="12.79026459833369"><ele>225.0</ele><time>2026-03-22T09:08:13Z</time></trkpt><trkpt lat="46.19746688739096" lon="12.790324256802545"><ele>225.0</ele><time>2026-03-22T09:08:15Z</time></trkpt><trkpt lat="46.1974174597295" lon="12.790247427941594"><ele>225.0</ele><time>2026-03-22T09:08:19Z</time></trkpt><trkpt lat="46.19744790888241" lon="12.790156033523258"><ele>225.0</ele><time>2026-03-22T09:08:22Z</time></trkpt><trkpt lat="46.19754409440728" lon="12.790112426203393"><ele>225.0</ele><time>2026-03-22T09:08:24Z</time></trkpt><trkpt lat="46.197620282643804" lon="12.790060853975696"><ele>225.0</ele><time>2026-03-22T09:08:26Z</time></trkpt><trkpt lat="46.19770460441658" lon="12.790023538828496"><ele>225.0</ele><time>2026-03-22T09:08:28Z</time></trkpt><trkpt lat="46.19778306230583" lon="12.790012209029966"><ele>225.0</ele><time>2026-03-22T09:08:30Z</time></trkpt><trkpt lat="46.197880619803676" lon="12.790020974701736"><ele>225.0</ele><time>2026-03-22T09:08:32Z</time></trkpt><trkpt lat="46.19796255250246" lon="12.790013826892219"><ele>225.0</ele><time>2026-03-22T09:08:34Z</time></trkpt><trkpt lat="46.19803668489196" lon="12.789947074381834"><ele>225.0</ele><time>2026-03-22T09:08:36Z</time></trkpt><trkpt lat="46.19812363772978" lon="12.789857029712282"><ele>224.83333333333334</ele><time>2026-03-22T09:08:38Z</time></trkpt><trkpt lat="46.19820781249983" lon="12.789754899287857"><ele>224.66666666666669</ele><time>2026-03-22T09:08:40Z</time></trkpt><trkpt lat="46.19828636760454" lon="12.789673575234069"><ele>224.5</ele><time>2026-03-22T09:08:42Z</time></trkpt><trkpt lat="46.198367357900146" lon="12.789598350626179"><ele>224.33333333333334</ele><time>2026-03-22T09:08:44Z</time></trkpt><trkpt lat="46.198423661220076" lon="12.789555654856581"><ele>224.16666666666669</ele><time>2026-03-22T09:08:46Z</time></trkpt><trkpt lat="46.198470360651385" lon="12.789471134694095"><ele>224.0</ele><time>2026-03-22T09:08:58Z</time></trkpt><trkpt lat="46.19842111829456" lon="12.78938482445939"><ele>224.79999999999998</ele><time>2026-03-22T09:09:01Z</time></trkpt><trkpt lat="46.198445008499384" lon="12.789295742390067"><ele>225.59999999999997</ele><time>2026-03-22T09:09:04Z</time></trkpt><trkpt lat="46.198538661165145" lon="12.789182490589969"><ele>226.4</ele><time>2026-03-22T09:09:06Z</time></trkpt><trkpt lat="46.198632878631145" lon="12.789140010310716"><ele>227.2</ele><time>2026-03-22T09:09:08Z</time></trkpt><trkpt lat="46.19873295009857" lon="12.789010741736897"><ele>228.0</ele><time>2026-03-22T09:09:10Z</time></trkpt><trkpt lat="46.198791297896605" lon="12.788923331713066"><ele>228.0</ele><time>2026-03-22T09:09:11Z</time></trkpt><trkpt lat="46.19888338485655" lon="12.788836716087358"><ele>228.0</ele><time>2026-03-22T09:09:13Z</time></trkpt><trkpt lat="46.19894408590565" lon="12.78871582457262"><ele>228.0</ele><time>2026-03-22T09:09:15Z</time></trkpt><trkpt lat="46.198975099884414" lon="12.788626594579908"><ele>228.0</ele><time>2026-03-22T09:09:16Z</time></trkpt><trkpt lat="46.19904567683274" lon="12.788494995968152"><ele>228.0</ele><time>2026-03-22T09:09:18Z</time></trkpt><trkpt lat="46.199117378003656" lon="12.788403278044232"><ele>228.4</ele><time>2026-03-22T09:09:20Z</time></trkpt><trkpt lat="46.199202861778076" lon="12.788325251853776"><ele>228.8</ele><time>2026-03-22T09:09:22Z</time></trkpt><trkpt lat="46.19922433107369" lon="12.78820893027622"><ele>229.2</ele><time>2026-03-22T09:09:24Z</time></trkpt><trkpt lat="46.19917572178203" lon="12.7880786377963"><ele>229.6</ele><time>2026-03-22T09:09:26Z</time></trkpt><trkpt lat="46.19923762705343" lon="12.78799407321574"><ele>230.0</ele><time>2026-03-22T09:09:28Z</time></trkpt><trkpt lat="46.19930506366714" lon="12.787905873740085"><ele>230.00000000000003</ele><time>2026-03-22T09:09:30Z</time></trkpt><trkpt lat="46.19940007309838" lon="12.787831911253162"><ele>230.0</ele><time>2026-03-22T09:09:34Z</time></trkpt><trkpt lat="46.19946942576799" lon="12.787803427142642"><ele>230.0</ele><time>2026-03-22T09:09:37Z</time></trkpt><trkpt lat="46.19948305045421" lon="12.787668099225744"><ele>230.0</ele><time>2026-03-22T09:09:40Z</time></trkpt><trkpt lat="46.1995474889735" lon="12.787630531228224"><ele>230.00000000000003</ele><time>2026-03-22T09:09:42Z</time></trkpt><trkpt lat="46.19950125964803" lon="12.787730583556742"><ele>230.0</ele><time>2026-03-22T09:10:56Z</time></trkpt><trkpt lat="46.19943601389101" lon="12.787775134910753"><ele>230.00000000000003</ele><time>2026-03-22T09:10:59Z</time></trkpt><trkpt lat="46.199328560996044" lon="12.787819805118078"><ele>230.0</ele><time>2026-03-22T09:11:01Z</time></trkpt><trkpt lat="46.19928995523221" lon="12.787920286526921"><ele>230.0</ele><time>2026-03-22T09:11:04Z</time></trkpt><trkpt lat="46.19923721185119" lon="12.78798623080993"><ele>230.0</ele><time>2026-03-22T09:11:06Z</time></trkpt><trkpt lat="46.19920571974373" lon="12.788088021896314"><ele>230.00000000000003</ele><time>2026-03-22T09:11:08Z</time></trkpt><trkpt lat="46.199239677721" lon="12.788187448521546"><ele>230.0</ele><time>2026-03-22T09:11:10Z</time></trkpt><trkpt lat="46.199224557408506" lon="12.788278068066122"><ele>230.0</ele><time>2026-03-22T09:11:12Z</time></trkpt><trkpt lat="46.19912263556427" lon="12.788366810247608"><ele>230.0</ele><time>2026-03-22T09:11:14Z</time></trkpt><trkpt lat="46.19903622150256" lon="12.788479895917076"><ele>230.0</ele><time>2026-03-22T09:11:16Z</time></trkpt><trkpt lat="46.19895688903018" lon="12.788643744877907"><ele>230.0</ele><time>2026-03-22T09:11:18Z</time></trkpt><trkpt lat="46.198928277323525" lon="12.788737502960208"><ele>230.0</ele><time>2026-03-22T09:11:19Z</time></trkpt><trkpt lat="46.19886019910799" lon="12.788856342599718"><ele>229.66666666666669</ele><time>2026-03-22T09:11:21Z</time></trkpt><trkpt lat="46.198799474780756" lon="12.788899044256576"><ele>229.33333333333334</ele><time>2026-03-22T09:11:22Z</time></trkpt><trkpt lat="46.19873059741923" lon="12.788956325950444"><ele>229.0</ele><time>2026-03-22T09:11:23Z</time></trkpt><trkpt lat="46.19868666897356" lon="12.789032598672694"><ele>228.66666666666669</ele><time>2026-03-22T09:11:24Z</time></trkpt><trkpt lat="46.19864538211971" lon="12.789102537796143"><ele>228.33333333333334</ele><time>2026-03-22T09:11:25Z</time></trkpt><trkpt lat="46.198529385619956" lon="12.789169106774196"><ele>228.0</ele><time>2026-03-22T09:11:27Z</time></trkpt><trkpt lat="46.19846491379063" lon="12.789222687756151"><ele>228.0</ele><time>2026-03-22T09:11:28Z</time></trkpt><trkpt lat="46.19842445243094" lon="12.789296627800397"><ele>228.0</ele><time>2026-03-22T09:11:29Z</time></trkpt><trkpt lat="46.19835351555685" lon="12.78934318772349"><ele>228.0</ele><time>2026-03-22T09:11:31Z</time></trkpt><trkpt lat="46.198234565622066" lon="12.789337072672305"><ele>228.0</ele><time>2026-03-22T09:11:33Z</time></trkpt><trkpt lat="46.19811049397657" lon="12.78930995245819"><ele>228.0</ele><time>2026-03-22T09:11:35Z</time></trkpt><trkpt lat="46.19801034634729" lon="12.789341646325443"><ele>228.5</ele><time>2026-03-22T09:11:37Z</time></trkpt><trkpt lat="46.19786908174144" lon="12.789341406576286"><ele>229.0</ele><time>2026-03-22T09:11:40Z</time></trkpt><trkpt lat="46.19772321319751" lon="12.789341172365882"><ele>229.5</ele><time>2026-03-22T09:11:42Z</time></trkpt><trkpt lat="46.19763379558152" lon="12.789333052849459"><ele>230.0</ele><time>2026-03-22T09:11:43Z</time></trkpt><trkpt lat="46.19754706847183" lon="12.789323184538588"><ele>230.00000000000003</ele><time>2026-03-22T09:11:44Z</time></trkpt><trkpt lat="46.19745152629302" lon="12.78930766454313"><ele>230.0</ele><time>2026-03-22T09:11:45Z</time></trkpt><trkpt lat="46.19736863689219" lon="12.789289268548197"><ele>230.0</ele><time>2026-03-22T09:11:46Z</time></trkpt><trkpt lat="46.19730022818613" lon="12.7892721958916"><ele>230.0</ele><time>2026-03-22T09:11:47Z</time></trkpt><trkpt lat="46.197242482838895" lon="12.789232769443698"><ele>230.00000000000003</ele><time>2026-03-22T09:11:48Z</time></trkpt><trkpt lat="46.19717126997751" lon="12.789202901700458"><ele>230.0</ele><time>2026-03-22T09:11:50Z</time></trkpt><trkpt lat="46.19720312400716" lon="12.78889022148764"><ele>229.8</ele><time>2026-03-22T09:11:52Z</time></trkpt><trkpt lat="46.1972403272445" lon="12.788743005511513"><ele>229.6</ele><time>2026-03-22T09:11:53Z</time></trkpt><trkpt lat="46.19729297023444" lon="12.788605108722917"><ele>229.39999999999998</ele><time>2026-03-22T09:11:54Z</time></trkpt><trkpt lat="46.197351499698954" lon="12.788467926834553"><ele>229.2</ele><time>2026-03-22T09:11:55Z</time></trkpt><trkpt lat="46.197407913647716" lon="12.788322754319438"><ele>229.0</ele><time>2026-03-22T09:11:56Z</time></trkpt><trkpt lat="46.197466907345785" lon="12.788164652118041"><ele>229.0</ele><time>2026-03-22T09:11:57Z</time></trkpt><trkpt lat="46.19752642095126" lon="12.788001914145033"><ele>228.99999999999997</ele><time>2026-03-22T09:11:58Z</time></trkpt><trkpt lat="46.19757361851992" lon="12.787866769024461"><ele>228.99999999999997</ele><time>2026-03-22T09:11:59Z</time></trkpt><trkpt lat="46.19761956644833" lon="12.787735122602037"><ele>229.0</ele><time>2026-03-22T09:12:00Z</time></trkpt><trkpt lat="46.19766163378387" lon="12.787616419578969"><ele>229.0</ele><time>2026-03-22T09:12:01Z</time></trkpt><trkpt lat="46.19770886918454" lon="12.787503181438893"><ele>229.6</ele><time>2026-03-22T09:12:02Z</time></trkpt><trkpt lat="46.19774834677625" lon="12.787401170042477"><ele>230.2</ele><time>2026-03-22T09:12:03Z</time></trkpt><trkpt lat="46.197791732511696" lon="12.787260074701988"><ele>230.79999999999998</ele><time>2026-03-22T09:12:05Z</time></trkpt><trkpt lat="46.197711350607726" lon="12.78715653094929"><ele>231.39999999999998</ele><time>2026-03-22T09:12:06Z</time></trkpt><trkpt lat="46.19763699845108" lon="12.787074597967385"><ele>232.0</ele><time>2026-03-22T09:12:07Z</time></trkpt><trkpt lat="46.19755854286902" lon="12.786986123349566"><ele>232.0</ele><time>2026-03-22T09:12:08Z</time></trkpt><trkpt lat="46.19750674640412" lon="12.786912388417514"><ele>232.0</ele><time>2026-03-22T09:12:09Z</time></trkpt><trkpt lat="46.1974863609268" lon="12.786755145871718"><ele>232.0</ele><time>2026-03-22T09:12:11Z</time></trkpt><trkpt lat="46.19749424343892" lon="12.786635516865697"><ele>232.0</ele><time>2026-03-22T09:12:13Z</time></trkpt><trkpt lat="46.197537029188425" lon="12.786502160767943"><ele>232.0</ele><time>2026-03-22T09:12:15Z</time></trkpt><trkpt lat="46.197657050616506" lon="12.786480065970169"><ele>233.5</ele><time>2026-03-22T09:12:17Z</time></trkpt><trkpt lat="46.19773968641927" lon="12.786529826180324"><ele>235.0</ele><time>2026-03-22T09:12:18Z</time></trkpt><trkpt lat="46.197843412335644" lon="12.786603060962841"><ele>236.5</ele><time>2026-03-22T09:12:19Z</time></trkpt><trkpt lat="46.19796741131716" lon="12.786683248686103"><ele>238.0</ele><time>2026-03-22T09:12:20Z</time></trkpt><trkpt lat="46.19810811299815" lon="12.78664405697948"><ele>239.5</ele><time>2026-03-22T09:12:22Z</time></trkpt><trkpt lat="46.198234098684985" lon="12.786579234950054"><ele>241.0</ele><time>2026-03-22T09:12:23Z</time></trkpt><trkpt lat="46.198364225722" lon="12.786514682044688"><ele>242.5</ele><time>2026-03-22T09:12:24Z</time></trkpt><trkpt lat="46.198459514897266" lon="12.786477960622712"><ele>244.0</ele><time>2026-03-22T09:12:25Z</time></trkpt><trkpt lat="46.198541166759014" lon="12.786462352165083"><ele>244.0</ele><time>2026-03-22T09:12:26Z</time></trkpt><trkpt lat="46.198625405225485" lon="12.786482711580483"><ele>243.99999999999997</ele><time>2026-03-22T09:12:27Z</time></trkpt><trkpt lat="46.198698010020244" lon="12.786534789481577"><ele>243.99999999999997</ele><time>2026-03-22T09:12:28Z</time></trkpt><trkpt lat="46.19875757009586" lon="12.786659429257469"><ele>244.0</ele><time>2026-03-22T09:12:29Z</time></trkpt><trkpt lat="46.198829160072535" lon="12.786787638004123"><ele>244.0</ele><time>2026-03-22T09:12:30Z</time></trkpt><trkpt lat="46.19891707395646" lon="12.786924979579933"><ele>243.0</ele><time>2026-03-22T09:12:31Z</time></trkpt><trkpt lat="46.199033345145686" lon="12.78707055520093"><ele>241.99999999999997</ele><time>2026-03-22T09:12:32Z</time></trkpt><trkpt lat="46.199117383317315" lon="12.787198900921435"><ele>240.99999999999997</ele><time>2026-03-22T09:12:33Z</time></trkpt><trkpt lat="46.19918285149103" lon="12.787286664319216"><ele>240.0</ele><time>2026-03-22T09:12:34Z</time></trkpt><trkpt lat="46.19924239981806" lon="12.78733088208438"><ele>239.0</ele><time>2026-03-22T09:12:35Z</time></trkpt><trkpt lat="46.199307556279244" lon="12.787345739474775"><ele>239.0</ele><time>2026-03-22T09:12:36Z</time></trkpt><trkpt lat="46.199369519212496" lon="12.787299128889213"><ele>238.99999999999997</ele><time>2026-03-22T09:12:37Z</time></trkpt><trkpt lat="46.199481817615734" lon="12.787213190228934"><ele>238.99999999999997</ele><time>2026-03-22T09:12:39Z</time></trkpt><trkpt lat="46.199554337671366" lon="12.787161939779482"><ele>239.0</ele><time>2026-03-22T09:12:40Z</time></trkpt><trkpt lat="46.19960270955876" lon="12.78706740377691"><ele>239.0</ele><time>2026-03-22T09:12:41Z</time></trkpt><trkpt lat="46.199641732156906" lon="12.786948718757293"><ele>240.6</ele><time>2026-03-22T09:12:42Z</time></trkpt><trkpt lat="46.1996547778205" lon="12.786835452147395"><ele>242.2</ele><time>2026-03-22T09:12:43Z</time></trkpt><trkpt lat="46.19964384124287" lon="12.786730666830454"><ele>243.79999999999998</ele><time>2026-03-22T09:12:44Z</time></trkpt><trkpt lat="46.19960769238468" lon="12.786600707763636"><ele>245.39999999999998</ele><time>2026-03-22T09:12:45Z</time></trkpt><trkpt lat="46.19951752860448" lon="12.786479440316125"><ele>247.0</ele><time>2026-03-22T09:12:46Z</time></trkpt><trkpt lat="46.19940575868198" lon="12.786386629702013"><ele>247.0</ele><time>2026-03-22T09:12:47Z</time></trkpt><trkpt lat="46.19929159573429" lon="12.786259848490523"><ele>247.0</ele><time>2026-03-22T09:12:48Z</time></trkpt><trkpt lat="46.19918332003895" lon="12.786150780161387"><ele>247.0</ele><time>2026-03-22T09:12:49Z</time></trkpt><trkpt lat="46.199145420550906" lon="12.786042308601642"><ele>247.0</ele><time>2026-03-22T09:12:50Z</time></trkpt><trkpt lat="46.19916416257676" lon="12.785871187409425"><ele>247.25</ele><time>2026-03-22T09:12:52Z</time></trkpt><trkpt lat="46.199193989104714" lon="12.785678837302074"><ele>247.5</ele><time>2026-03-22T09:12:53Z</time></trkpt><trkpt lat="46.19921834099843" lon="12.785454160385129"><ele>247.75</ele><time>2026-03-22T09:12:54Z</time></trkpt><trkpt lat="46.19923750296849" lon="12.785289033104764"><ele>248.0</ele><time>2026-03-22T09:12:55Z</time></trkpt><trkpt lat="46.19924256471576" lon="12.785165204108587"><ele>248.4</ele><time>2026-03-22T09:12:56Z</time></trkpt><trkpt lat="46.199231663815944" lon="12.785067014443321"><ele>248.8</ele><time>2026-03-22T09:12:57Z</time></trkpt><trkpt lat="46.19918528639796" lon="12.784956708511942"><ele>249.2</ele><time>2026-03-22T09:12:58Z</time></trkpt><trkpt lat="46.19910478183697" lon="12.784862146132737"><ele>249.6</ele><time>2026-03-22T09:12:59Z</time></trkpt><trkpt lat="46.19900498440206" lon="12.784770425626617"><ele>250.0</ele><time>2026-03-22T09:13:00Z</time></trkpt><trkpt lat="46.19887795031701" lon="12.784638468753451"><ele>250.6</ele><time>2026-03-22T09:13:01Z</time></trkpt><trkpt lat="46.198747160287766" lon="12.784506936910923"><ele>251.2</ele><time>2026-03-22T09:13:02Z</time></trkpt><trkpt lat="46.19866836279275" lon="12.784417482191241"><ele>251.8</ele><time>2026-03-22T09:13:03Z</time></trkpt><trkpt lat="46.1986186513353" lon="12.784346191763083"><ele>252.4</ele><time>2026-03-22T09:13:04Z</time></trkpt><trkpt lat="46.19854646951207" lon="12.784218866893001"><ele>253.0</ele><time>2026-03-22T09:13:06Z</time></trkpt><trkpt lat="46.19852514128292" lon="12.784122849584477"><ele>253.0</ele><time>2026-03-22T09:13:07Z</time></trkpt><trkpt lat="46.19851870487383" lon="12.78400646198663"><ele>253.0</ele><time>2026-03-22T09:13:08Z</time></trkpt><trkpt lat="46.1985242175267" lon="12.783879764300673"><ele>253.0</ele><time>2026-03-22T09:13:09Z</time></trkpt><trkpt lat="46.198538200833184" lon="12.783722995303581"><ele>253.0</ele><time>2026-03-22T09:13:10Z</time></trkpt><trkpt lat="46.198555849901425" lon="12.783557463148483"><ele>253.0</ele><time>2026-03-22T09:13:11Z</time></trkpt><trkpt lat="46.198570488811775" lon="12.78341894195553"><ele>253.71428571428575</ele><time>2026-03-22T09:13:12Z</time></trkpt><trkpt lat="46.1985841428269" lon="12.783313139751327"><ele>254.42857142857144</ele><time>2026-03-22T09:13:13Z</time></trkpt><trkpt lat="46.19859666985168" lon="12.783223110795314"><ele>255.14285714285714</ele><time>2026-03-22T09:13:14Z</time></trkpt><trkpt lat="46.19861044561265" lon="12.783131504843505"><ele>255.85714285714286</ele><time>2026-03-22T09:13:15Z</time></trkpt><trkpt lat="46.198625759565694" lon="12.78302967023071"><ele>256.57142857142856</ele><time>2026-03-22T09:13:16Z</time></trkpt><trkpt lat="46.19864157833641" lon="12.782924478566958"><ele>257.2857142857143</ele><time>2026-03-22T09:13:17Z</time></trkpt><trkpt lat="46.19865640588294" lon="12.782816543503484"><ele>258.0</ele><time>2026-03-22T09:13:18Z</time></trkpt><trkpt lat="46.19865814490455" lon="12.782704370583494"><ele>259.3333333333333</ele><time>2026-03-22T09:13:19Z</time></trkpt><trkpt lat="46.198674279719704" lon="12.782597643250567"><ele>260.6666666666667</ele><time>2026-03-22T09:13:20Z</time></trkpt><trkpt lat="46.198677496342995" lon="12.7824996241635"><ele>262.0</ele><time>2026-03-22T09:13:21Z</time></trkpt><trkpt lat="46.19864382670494" lon="12.782317932938998"><ele>263.33333333333337</ele><time>2026-03-22T09:13:23Z</time></trkpt><trkpt lat="46.198608709598" lon="12.782235435921047"><ele>264.6666666666667</ele><time>2026-03-22T09:13:24Z</time></trkpt><trkpt lat="46.198559608770466" lon="12.782148429163632"><ele>266.0</ele><time>2026-03-22T09:13:25Z</time></trkpt><trkpt lat="46.19849997201188" lon="12.782056086989806"><ele>266.0</ele><time>2026-03-22T09:13:26Z</time></trkpt><trkpt lat="46.19845731160545" lon="12.781980944535064"><ele>266.0</ele><time>2026-03-22T09:13:27Z</time></trkpt><trkpt lat="46.19842673487105" lon="12.781877540566704"><ele>266.0</ele><time>2026-03-22T09:13:29Z</time></trkpt><trkpt lat="46.19844175136587" lon="12.781694296153553"><ele>266.0</ele><time>2026-03-22T09:13:31Z</time></trkpt><trkpt lat="46.19847101902069" lon="12.781570548752018"><ele>266.0</ele><time>2026-03-22T09:13:32Z</time></trkpt><trkpt lat="46.198518185126204" lon="12.781439944332995"><ele>266.5</ele><time>2026-03-22T09:13:33Z</time></trkpt><trkpt lat="46.198575958776445" lon="12.781286193006203"><ele>267.0</ele><time>2026-03-22T09:13:34Z</time></trkpt><trkpt lat="46.19864101568777" lon="12.781114884649114"><ele>267.5</ele><time>2026-03-22T09:13:35Z</time></trkpt><trkpt lat="46.19870970766126" lon="12.78092921532397"><ele>268.0</ele><time>2026-03-22T09:13:36Z</time></trkpt><trkpt lat="46.198781227850816" lon="12.780739686663512"><ele>268.25</ele><time>2026-03-22T09:13:37Z</time></trkpt><trkpt lat="46.198857609537626" lon="12.780558431816406"><ele>268.5</ele><time>2026-03-22T09:13:38Z</time></trkpt><trkpt lat="46.19893521118269" lon="12.780385913941537"><ele>268.75</ele><time>2026-03-22T09:13:39Z</time></trkpt><trkpt lat="46.19900939293018" lon="12.78022896104455"><ele>269.0</ele><time>2026-03-22T09:13:40Z</time></trkpt><trkpt lat="46.1990790310862" lon="12.780090393553802"><ele>269.75</ele><time>2026-03-22T09:13:41Z</time></trkpt><trkpt lat="46.19914221072051" lon="12.779960563115388"><ele>270.5</ele><time>2026-03-22T09:13:42Z</time></trkpt><trkpt lat="46.199212186814016" lon="12.779816673733231"><ele>271.25</ele><time>2026-03-22T09:13:43Z</time></trkpt><trkpt lat="46.199293368784055" lon="12.779644791572663"><ele>272.0</ele><time>2026-03-22T09:13:44Z</time></trkpt><trkpt lat="46.199383208641386" lon="12.779468299598475"><ele>272.0</ele><time>2026-03-22T09:13:45Z</time></trkpt><trkpt lat="46.199477562675845" lon="12.7793038780485"><ele>272.0</ele><time>2026-03-22T09:13:46Z</time></trkpt><trkpt lat="46.19955915488481" lon="12.779159897485052"><ele>272.0</ele><time>2026-03-22T09:13:47Z</time></trkpt><trkpt lat="46.199638526623154" lon="12.779033792137533"><ele>272.0</ele><time>2026-03-22T09:13:48Z</time></trkpt><trkpt lat="46.19971388684241" lon="12.77892562631979"><ele>272.0</ele><time>2026-03-22T09:13:49Z</time></trkpt><trkpt lat="46.19978754323417" lon="12.778833379698368"><ele>272.0</ele><time>2026-03-22T09:13:50Z</time></trkpt><trkpt lat="46.199861454888364" lon="12.77876188746262"><ele>272.0</ele><time>2026-03-22T09:13:51Z</time></trkpt><trkpt lat="46.19994636901335" lon="12.778706305828447"><ele>272.0</ele><time>2026-03-22T09:13:52Z</time></trkpt><trkpt lat="46.200031732590766" lon="12.778672265102722"><ele>272.0</ele><time>2026-03-22T09:13:53Z</time></trkpt><trkpt lat="46.20012021354979" lon="12.778637926024933"><ele>272.2</ele><time>2026-03-22T09:13:54Z</time></trkpt><trkpt lat="46.20018482458363" lon="12.778600770546873"><ele>272.4</ele><time>2026-03-22T09:13:55Z</time></trkpt><trkpt lat="46.20025464239927" lon="12.778544793526555"><ele>272.6</ele><time>2026-03-22T09:13:57Z</time></trkpt><trkpt lat="46.20033794612042" lon="12.778612394666814"><ele>272.8</ele><time>2026-03-22T09:13:58Z</time></trkpt><trkpt lat="46.200450608800175" lon="12.778682092220409"><ele>273.0</ele><time>2026-03-22T09:13:59Z</time></trkpt><trkpt lat="46.20059327189226" lon="12.77877155448321"><ele>273.0</ele><time>2026-03-22T09:14:00Z</time></trkpt><trkpt lat="46.20075521822627" lon="12.778871312075792"><ele>273.0</ele><time>2026-03-22T09:14:01Z</time></trkpt><trkpt lat="46.20092912507469" lon="12.778975953410054"><ele>273.0</ele><time>2026-03-22T09:14:02Z</time></trkpt><trkpt lat="46.20110839951102" lon="12.77907420778183"><ele>273.0</ele><time>2026-03-22T09:14:03Z</time></trkpt><trkpt lat="46.20127363182994" lon="12.779151770785843"><ele>273.0</ele><time>2026-03-22T09:14:04Z</time></trkpt><trkpt lat="46.20144060270735" lon="12.779211664978957"><ele>273.0</ele><time>2026-03-22T09:14:05Z</time></trkpt><trkpt lat="46.201614452608794" lon="12.779246445533968"><ele>275.0</ele><time>2026-03-22T09:14:06Z</time></trkpt><trkpt lat="46.201793757155635" lon="12.779260796463692"><ele>277.0</ele><time>2026-03-22T09:14:07Z</time></trkpt><trkpt lat="46.20198038367371" lon="12.779248567337863"><ele>279.0</ele><time>2026-03-22T09:14:08Z</time></trkpt><trkpt lat="46.202170635908345" lon="12.779221389002366"><ele>279.6666666666667</ele><time>2026-03-22T09:14:09Z</time></trkpt><trkpt lat="46.202362719112045" lon="12.779173474353513"><ele>280.33333333333337</ele><time>2026-03-22T09:14:10Z</time></trkpt><trkpt lat="46.202538792783116" lon="12.779128273860627"><ele>281.0</ele><time>2026-03-22T09:14:11Z</time></trkpt><trkpt lat="46.202701138181624" lon="12.779085113877839"><ele>281.0</ele><time>2026-03-22T09:14:12Z</time></trkpt><trkpt lat="46.202857457800526" lon="12.779044068289718"><ele>281.0</ele><time>2026-03-22T09:14:13Z</time></trkpt><trkpt lat="46.203003951109636" lon="12.77900546244915"><ele>281.0</ele><time>2026-03-22T09:14:14Z</time></trkpt><trkpt lat="46.20314296101186" lon="12.778972289684768"><ele>281.0</ele><time>2026-03-22T09:14:15Z</time></trkpt><trkpt lat="46.20327858838234" lon="12.778946194657106"><ele>280.5</ele><time>2026-03-22T09:14:16Z</time></trkpt><trkpt lat="46.20341131657313" lon="12.778949107993304"><ele>280.0</ele><time>2026-03-22T09:14:17Z</time></trkpt><trkpt lat="46.20356158612855" lon="12.778981018115095"><ele>279.5</ele><time>2026-03-22T09:14:18Z</time></trkpt><trkpt lat="46.2037161447715" lon="12.779053163739738"><ele>279.0</ele><time>2026-03-22T09:14:19Z</time></trkpt><trkpt lat="46.20388740115283" lon="12.779130261081349"><ele>278.75</ele><time>2026-03-22T09:14:20Z</time></trkpt><trkpt lat="46.204046147790336" lon="12.779208642600546"><ele>278.5</ele><time>2026-03-22T09:14:21Z</time></trkpt><trkpt lat="46.204181486664915" lon="12.779276386227306"><ele>278.25</ele><time>2026-03-22T09:14:22Z</time></trkpt><trkpt lat="46.204298866667145" lon="12.779338493405765"><ele>278.0</ele><time>2026-03-22T09:14:23Z</time></trkpt><trkpt lat="46.20440381046552" lon="12.779417632287915"><ele>277.5</ele><time>2026-03-22T09:14:24Z</time></trkpt><trkpt lat="46.20449925705912" lon="12.7795178967414"><ele>277.0</ele><time>2026-03-22T09:14:25Z</time></trkpt><trkpt lat="46.20459919295444" lon="12.779646302441762"><ele>276.5</ele><time>2026-03-22T09:14:26Z</time></trkpt><trkpt lat="46.20472535290983" lon="12.77981648293221"><ele>276.0</ele><time>2026-03-22T09:14:27Z</time></trkpt><trkpt lat="46.20486554153342" lon="12.780005632247278"><ele>276.0</ele><time>2026-03-22T09:14:28Z</time></trkpt><trkpt lat="46.20501536108179" lon="12.780179847809457"><ele>276.0</ele><time>2026-03-22T09:14:29Z</time></trkpt><trkpt lat="46.20515759061355" lon="12.780327931914483"><ele>276.0</ele><time>2026-03-22T09:14:30Z</time></trkpt><trkpt lat="46.20529115154179" lon="12.780471247082723"><ele>275.5</ele><time>2026-03-22T09:14:31Z</time></trkpt><trkpt lat="46.20541246995874" lon="12.780601441937087"><ele>275.0</ele><time>2026-03-22T09:14:32Z</time></trkpt><trkpt lat="46.20553329087634" lon="12.780732293907572"><ele>274.5</ele><time>2026-03-22T09:14:33Z</time></trkpt><trkpt lat="46.205647948105884" lon="12.780852552114222"><ele>274.0</ele><time>2026-03-22T09:14:34Z</time></trkpt><trkpt lat="46.205759524064206" lon="12.780966790870474"><ele>269.0</ele><time>2026-03-22T09:14:35Z</time></trkpt><trkpt lat="46.2058663136435" lon="12.78107203602867"><ele>264.0</ele><time>2026-03-22T09:14:36Z</time></trkpt><trkpt lat="46.20597221671255" lon="12.781154994035035"><ele>259.0</ele><time>2026-03-22T09:14:37Z</time></trkpt><trkpt lat="46.2060968537246" lon="12.781212367160192"><ele>254.0</ele><time>2026-03-22T09:14:38Z</time></trkpt><trkpt lat="46.206240097657876" lon="12.781242357334907"><ele>254.0</ele><time>2026-03-22T09:14:39Z</time></trkpt><trkpt lat="46.20639679945548" lon="12.781232830338986"><ele>254.0</ele><time>2026-03-22T09:14:40Z</time></trkpt><trkpt lat="46.206514402455234" lon="12.781252487894825"><ele>254.0</ele><time>2026-03-22T09:14:41Z</time></trkpt><trkpt lat="46.20665163793313" lon="12.78123550434671"><ele>254.0</ele><time>2026-03-22T09:14:42Z</time></trkpt><trkpt lat="46.20680006543481" lon="12.781189593294277"><ele>252.5</ele><time>2026-03-22T09:14:43Z</time></trkpt><trkpt lat="46.20694284608122" lon="12.78113323256189"><ele>251.0</ele><time>2026-03-22T09:14:44Z</time></trkpt><trkpt lat="46.20707845820862" lon="12.781068374060318"><ele>249.5</ele><time>2026-03-22T09:14:45Z</time></trkpt><trkpt lat="46.20720213778824" lon="12.781035002807815"><ele>248.0</ele><time>2026-03-22T09:14:46Z</time></trkpt><trkpt lat="46.207317658769256" lon="12.78102793548543"><ele>246.0</ele><time>2026-03-22T09:14:47Z</time></trkpt><trkpt lat="46.20742344091066" lon="12.781041227717973"><ele>244.0</ele><time>2026-03-22T09:14:48Z</time></trkpt><trkpt lat="46.20752163261914" lon="12.781056636110423"><ele>242.0</ele><time>2026-03-22T09:14:49Z</time></trkpt><trkpt lat="46.20761544176239" lon="12.781073969703616"><ele>240.0</ele><time>2026-03-22T09:14:50Z</time></trkpt><trkpt lat="46.20769990011203" lon="12.781097334401599"><ele>238.0</ele><time>2026-03-22T09:14:51Z</time></trkpt><trkpt lat="46.20777435503009" lon="12.781140625323074"><ele>238.0</ele><time>2026-03-22T09:14:52Z</time></trkpt><trkpt lat="46.207843613758385" lon="12.781208256932635"><ele>238.0</ele><time>2026-03-22T09:14:53Z</time></trkpt><trkpt lat="46.20791629844059" lon="12.781299942925632"><ele>238.0</ele><time>2026-03-22T09:14:54Z</time></trkpt><trkpt lat="46.207999497377926" lon="12.78138831232439"><ele>238.0</ele><time>2026-03-22T09:14:55Z</time></trkpt><trkpt lat="46.20809116850075" lon="12.78147706308011"><ele>238.0</ele><time>2026-03-22T09:14:56Z</time></trkpt><trkpt lat="46.208188437539945" lon="12.78157828703365"><ele>238.60000000000002</ele><time>2026-03-22T09:14:57Z</time></trkpt><trkpt lat="46.20828556720361" lon="12.781684623831024"><ele>239.20000000000002</ele><time>2026-03-22T09:14:58Z</time></trkpt><trkpt lat="46.208372205718824" lon="12.781778058769994"><ele>239.8</ele><time>2026-03-22T09:14:59Z</time></trkpt><trkpt lat="46.20845108878406" lon="12.781864292662883"><ele>240.4</ele><time>2026-03-22T09:15:00Z</time></trkpt><trkpt lat="46.208499723441676" lon="12.781965532325744"><ele>241.0</ele><time>2026-03-22T09:15:01Z</time></trkpt><trkpt lat="46.20850973465842" lon="12.782076102434498"><ele>245.0</ele><time>2026-03-22T09:15:02Z</time></trkpt><trkpt lat="46.208480094017354" lon="12.782178118851775"><ele>249.00000000000003</ele><time>2026-03-22T09:15:03Z</time></trkpt><trkpt lat="46.20841514205197" lon="12.78228802471164"><ele>253.00000000000003</ele><time>2026-03-22T09:15:04Z</time></trkpt><trkpt lat="46.20835986821962" lon="12.782462601426033"><ele>257.0</ele><time>2026-03-22T09:15:05Z</time></trkpt><trkpt lat="46.20829685305449" lon="12.782619518630977"><ele>261.0</ele><time>2026-03-22T09:15:06Z</time></trkpt><trkpt lat="46.20824103607677" lon="12.782779846210238"><ele>262.75</ele><time>2026-03-22T09:15:07Z</time></trkpt><trkpt lat="46.20819680710055" lon="12.78293887383538"><ele>264.5</ele><time>2026-03-22T09:15:08Z</time></trkpt><trkpt lat="46.208174520078686" lon="12.783097576648963"><ele>266.25</ele><time>2026-03-22T09:15:09Z</time></trkpt><trkpt lat="46.20816961894171" lon="12.783282138088627"><ele>268.0</ele><time>2026-03-22T09:15:10Z</time></trkpt><trkpt lat="46.208172954140544" lon="12.783494514411823"><ele>268.0</ele><time>2026-03-22T09:15:11Z</time></trkpt><trkpt lat="46.20817950998124" lon="12.783679122501686"><ele>268.0</ele><time>2026-03-22T09:15:12Z</time></trkpt><trkpt lat="46.20820159400004" lon="12.783836308858985"><ele>268.0</ele><time>2026-03-22T09:15:13Z</time></trkpt><trkpt lat="46.208243428281655" lon="12.78398927392681"><ele>268.0</ele><time>2026-03-22T09:15:14Z</time></trkpt><trkpt lat="46.208306878037256" lon="12.78413109474181"><ele>268.0</ele><time>2026-03-22T09:15:15Z</time></trkpt><trkpt lat="46.20838388106008" lon="12.784244714020256"><ele>268.0</ele><time>2026-03-22T09:15:16Z</time></trkpt><trkpt lat="46.20847632802963" lon="12.78434260134247"><ele>268.0</ele><time>2026-03-22T09:15:17Z</time></trkpt><trkpt lat="46.20857813166216" lon="12.784430492942537"><ele>268.0</ele><time>2026-03-22T09:15:18Z</time></trkpt><trkpt lat="46.208680538277925" lon="12.784514916844822"><ele>268.0</ele><time>2026-03-22T09:15:19Z</time></trkpt><trkpt lat="46.2087772602537" lon="12.784590837289565"><ele>268.0</ele><time>2026-03-22T09:15:20Z</time></trkpt><trkpt lat="46.20887946876431" lon="12.78466984097916"><ele>268.0</ele><time>2026-03-22T09:15:21Z</time></trkpt><trkpt lat="46.20899841421013" lon="12.784768119346444"><ele>268.0</ele><time>2026-03-22T09:15:22Z</time></trkpt><trkpt lat="46.20912058146789" lon="12.784870067322728"><ele>269.5</ele><time>2026-03-22T09:15:23Z</time></trkpt><trkpt lat="46.209246944441475" lon="12.784972578800366"><ele>271.0</ele><time>2026-03-22T09:15:24Z</time></trkpt><trkpt lat="46.20937512047179" lon="12.785066153121578"><ele>272.5</ele><time>2026-03-22T09:15:25Z</time></trkpt><trkpt lat="46.20949739672682" lon="12.785137334550518"><ele>274.0</ele><time>2026-03-22T09:15:26Z</time></trkpt><trkpt lat="46.20962293436571" lon="12.785178736368442"><ele>274.0</ele><time>2026-03-22T09:15:27Z</time></trkpt><trkpt lat="46.20975751528081" lon="12.785197804941177"><ele>274.0</ele><time>2026-03-22T09:15:28Z</time></trkpt><trkpt lat="46.209894743493685" lon="12.785200660712293"><ele>274.0</ele><time>2026-03-22T09:15:29Z</time></trkpt><trkpt lat="46.21003248632345" lon="12.78519351336272"><ele>274.0</ele><time>2026-03-22T09:15:30Z</time></trkpt><trkpt lat="46.21016740255733" lon="12.785175923870357"><ele>274.5</ele><time>2026-03-22T09:15:31Z</time></trkpt><trkpt lat="46.21030272582653" lon="12.785146588552001"><ele>275.0</ele><time>2026-03-22T09:15:32Z</time></trkpt><trkpt lat="46.21043101134504" lon="12.78512341920049"><ele>275.5</ele><time>2026-03-22T09:15:33Z</time></trkpt><trkpt lat="46.21055290240591" lon="12.785116637269612"><ele>276.0</ele><time>2026-03-22T09:15:34Z</time></trkpt><trkpt lat="46.21067235979976" lon="12.78512540836267"><ele>276.0</ele><time>2026-03-22T09:15:35Z</time></trkpt><trkpt lat="46.21079605045853" lon="12.785145496387992"><ele>276.0</ele><time>2026-03-22T09:15:36Z</time></trkpt><trkpt lat="46.210938843672004" lon="12.78519358120659"><ele>276.0</ele><time>2026-03-22T09:15:37Z</time></trkpt><trkpt lat="46.21109694381627" lon="12.785275062307981"><ele>276.0</ele><time>2026-03-22T09:15:38Z</time></trkpt><trkpt lat="46.21126597341078" lon="12.785409346739057"><ele>275.6666666666667</ele><time>2026-03-22T09:15:39Z</time></trkpt><trkpt lat="46.21143309269725" lon="12.785574378998229"><ele>275.33333333333337</ele><time>2026-03-22T09:15:40Z</time></trkpt><trkpt lat="46.211606478379366" lon="12.78575895289919"><ele>275.0</ele><time>2026-03-22T09:15:41Z</time></trkpt><trkpt lat="46.21179448117595" lon="12.785983967735923"><ele>275.0</ele><time>2026-03-22T09:15:42Z</time></trkpt><trkpt lat="46.211995789535806" lon="12.786224758084712"><ele>275.0</ele><time>2026-03-22T09:15:43Z</time></trkpt><trkpt lat="46.212174404650376" lon="12.78643370122558"><ele>275.6666666666667</ele><time>2026-03-22T09:15:44Z</time></trkpt><trkpt lat="46.21233758440047" lon="12.786631813557301"><ele>276.3333333333333</ele><time>2026-03-22T09:15:45Z</time></trkpt><trkpt lat="46.21247944197565" lon="12.786808368985488"><ele>277.0</ele><time>2026-03-22T09:15:46Z</time></trkpt><trkpt lat="46.21260215189677" lon="12.786964524928667"><ele>277.16666666666663</ele><time>2026-03-22T09:15:47Z</time></trkpt><trkpt lat="46.21269472431926" lon="12.78708225826696"><ele>277.3333333333333</ele><time>2026-03-22T09:15:48Z</time></trkpt><trkpt lat="46.21275876715497" lon="12.787174976029755"><ele>277.5</ele><time>2026-03-22T09:15:48.999Z</time></trkpt><trkpt lat="46.212790166025556" lon="12.787268256960408"><ele>277.6666666666667</ele><time>2026-03-22T09:15:49.999Z</time></trkpt><trkpt lat="46.2127910783363" lon="12.787361491604141"><ele>277.83333333333337</ele><time>2026-03-22T09:15:50.999Z</time></trkpt><trkpt lat="46.212769007888184" lon="12.78746485863352"><ele>278.0</ele><time>2026-03-22T09:15:51.999Z</time></trkpt><trkpt lat="46.21272193270162" lon="12.787585446844806"><ele>278.6666666666667</ele><time>2026-03-22T09:15:52.999Z</time></trkpt><trkpt lat="46.21264092841306" lon="12.787730293795315"><ele>279.3333333333333</ele><time>2026-03-22T09:15:53.999Z</time></trkpt><trkpt lat="46.212531822632634" lon="12.787931630749704"><ele>280.0</ele><time>2026-03-22T09:15:54.999Z</time></trkpt><trkpt lat="46.21240756035089" lon="12.78818558229054"><ele>278.5</ele><time>2026-03-22T09:15:55.999Z</time></trkpt><trkpt lat="46.21227108874641" lon="12.788449467569878"><ele>277.0</ele><time>2026-03-22T09:15:56.999Z</time></trkpt><trkpt lat="46.21214898562512" lon="12.788719893648867"><ele>277.0</ele><time>2026-03-22T09:15:58Z</time></trkpt><trkpt lat="46.21205378743096" lon="12.788986133089894"><ele>277.0</ele><time>2026-03-22T09:15:59Z</time></trkpt><trkpt lat="46.21193949775021" lon="12.78924966244672"><ele>277.0</ele><time>2026-03-22T09:16:00Z</time></trkpt><trkpt lat="46.211809443073896" lon="12.789498858551807"><ele>276.66666666666663</ele><time>2026-03-22T09:16:01Z</time></trkpt><trkpt lat="46.21169887540354" lon="12.78974668348209"><ele>276.3333333333333</ele><time>2026-03-22T09:16:02Z</time></trkpt><trkpt lat="46.21159377991595" lon="12.789987171355815"><ele>276.0</ele><time>2026-03-22T09:16:03Z</time></trkpt><trkpt lat="46.211498882255235" lon="12.790202202851148"><ele>273.75</ele><time>2026-03-22T09:16:04Z</time></trkpt><trkpt lat="46.21141138561085" lon="12.79038933097782"><ele>271.5</ele><time>2026-03-22T09:16:05Z</time></trkpt><trkpt lat="46.21133850659083" lon="12.790566768397817"><ele>269.25</ele><time>2026-03-22T09:16:06Z</time></trkpt><trkpt lat="46.21122990230197" lon="12.79070634099633"><ele>267.0</ele><time>2026-03-22T09:16:07Z</time></trkpt><trkpt lat="46.21109792270948" lon="12.790842683785455"><ele>267.0</ele><time>2026-03-22T09:16:08Z</time></trkpt><trkpt lat="46.21092786291976" lon="12.790964777939331"><ele>267.0</ele><time>2026-03-22T09:16:09Z</time></trkpt><trkpt lat="46.210743447615016" lon="12.791122433419806"><ele>267.0</ele><time>2026-03-22T09:16:10Z</time></trkpt><trkpt lat="46.210540128370376" lon="12.791296056968044"><ele>264.3333333333333</ele><time>2026-03-22T09:16:11Z</time></trkpt><trkpt lat="46.21035384146121" lon="12.7914548021829"><ele>261.66666666666663</ele><time>2026-03-22T09:16:12Z</time></trkpt><trkpt lat="46.21018101609489" lon="12.791624840485728"><ele>259.0</ele><time>2026-03-22T09:16:13Z</time></trkpt><trkpt lat="46.21001131850437" lon="12.791770340305625"><ele>262.0</ele><time>2026-03-22T09:16:14Z</time></trkpt><trkpt lat="46.20984539775996" lon="12.7918921740308"><ele>265.0</ele><time>2026-03-22T09:16:15Z</time></trkpt><trkpt lat="46.209716737847614" lon="12.792018298919388"><ele>268.0</ele><time>2026-03-22T09:16:16Z</time></trkpt><trkpt lat="46.209612034993384" lon="12.792157155687507"><ele>268.0</ele><time>2026-03-22T09:16:17Z</time></trkpt><trkpt lat="46.20953061805203" lon="12.792332271563316"><ele>268.0</ele><time>2026-03-22T09:16:18Z</time></trkpt><trkpt lat="46.2094451601688" lon="12.79252066765831"><ele>268.0</ele><time>2026-03-22T09:16:19Z</time></trkpt><trkpt lat="46.20935176808313" lon="12.79271957334352"><ele>270.3333333333333</ele><time>2026-03-22T09:16:20Z</time></trkpt><trkpt lat="46.20926226087592" lon="12.792946531298352"><ele>272.6666666666667</ele><time>2026-03-22T09:16:21Z</time></trkpt><trkpt lat="46.209185891389325" lon="12.793209088427657"><ele>275.0</ele><time>2026-03-22T09:16:22Z</time></trkpt><trkpt lat="46.209121553106755" lon="12.793477245214476"><ele>275.0</ele><time>2026-03-22T09:16:23Z</time></trkpt><trkpt lat="46.20906603065912" lon="12.793708182521158"><ele>275.0</ele><time>2026-03-22T09:16:24Z</time></trkpt><trkpt lat="46.2090081262984" lon="12.793925603123876"><ele>275.0</ele><time>2026-03-22T09:16:25Z</time></trkpt><trkpt lat="46.208956940697135" lon="12.794137450030137"><ele>275.0</ele><time>2026-03-22T09:16:26Z</time></trkpt><trkpt lat="46.208864610195896" lon="12.794324527061393"><ele>275.0</ele><time>2026-03-22T09:16:27Z</time></trkpt><trkpt lat="46.20875135517744" lon="12.794517415303066"><ele>275.0</ele><time>2026-03-22T09:16:28Z</time></trkpt><trkpt lat="46.208608137278596" lon="12.794683462704851"><ele>275.0</ele><time>2026-03-22T09:16:29Z</time></trkpt><trkpt lat="46.20849279184041" lon="12.794866732080687"><ele>275.0</ele><time>2026-03-22T09:16:30Z</time></trkpt><trkpt lat="46.20837652862307" lon="12.795015807777718"><ele>275.0</ele><time>2026-03-22T09:16:31Z</time></trkpt><trkpt lat="46.208266446015266" lon="12.795168693756056"><ele>274.33333333333337</ele><time>2026-03-22T09:16:32Z</time></trkpt><trkpt lat="46.20815952025217" lon="12.795321833848282"><ele>273.6666666666667</ele><time>2026-03-22T09:16:33Z</time></trkpt><trkpt lat="46.20804931643581" lon="12.795478958419555"><ele>273.0</ele><time>2026-03-22T09:16:34Z</time></trkpt><trkpt lat="46.20792455513479" lon="12.795621085609113"><ele>273.0</ele><time>2026-03-22T09:16:35Z</time></trkpt><trkpt lat="46.207819558643756" lon="12.79579486308175"><ele>273.0</ele><time>2026-03-22T09:16:36Z</time></trkpt><trkpt lat="46.207704548165246" lon="12.795955541691994"><ele>273.0</ele><time>2026-03-22T09:16:37Z</time></trkpt><trkpt lat="46.20759037093056" lon="12.796124029424721"><ele>273.3333333333333</ele><time>2026-03-22T09:16:38Z</time></trkpt><trkpt lat="46.20746490225666" lon="12.796273126362049"><ele>273.66666666666663</ele><time>2026-03-22T09:16:39Z</time></trkpt><trkpt lat="46.20734817713083" lon="12.796441826472256"><ele>274.0</ele><time>2026-03-22T09:16:40Z</time></trkpt><trkpt lat="46.20724617176277" lon="12.796631921799364"><ele>273.75</ele><time>2026-03-22T09:16:41Z</time></trkpt><trkpt lat="46.20717741886887" lon="12.796752870701937"><ele>273.5</ele><time>2026-03-22T09:16:42Z</time></trkpt><trkpt lat="46.20706563405057" lon="12.796883322345042"><ele>273.25</ele><time>2026-03-22T09:16:43Z</time></trkpt><trkpt lat="46.20698228922623" lon="12.797040092064911"><ele>273.0</ele><time>2026-03-22T09:16:44Z</time></trkpt><trkpt lat="46.206894298978284" lon="12.797172273673125"><ele>273.0</ele><time>2026-03-22T09:16:45Z</time></trkpt><trkpt lat="46.20681591764724" lon="12.797289719188"><ele>273.0</ele><time>2026-03-22T09:16:46Z</time></trkpt><trkpt lat="46.20673756744748" lon="12.797381887935039"><ele>273.0</ele><time>2026-03-22T09:16:47Z</time></trkpt><trkpt lat="46.206659003439405" lon="12.797467473057628"><ele>273.0</ele><time>2026-03-22T09:16:48Z</time></trkpt><trkpt lat="46.20655170084747" lon="12.797540659248819"><ele>273.0</ele><time>2026-03-22T09:16:49Z</time></trkpt><trkpt lat="46.20644872841674" lon="12.7976497702754"><ele>273.0</ele><time>2026-03-22T09:16:50Z</time></trkpt><trkpt lat="46.20633840955171" lon="12.797762049797116"><ele>273.0</ele><time>2026-03-22T09:16:51Z</time></trkpt><trkpt lat="46.20622236624084" lon="12.797860194987797"><ele>273.0</ele><time>2026-03-22T09:16:52Z</time></trkpt><trkpt lat="46.206097499425375" lon="12.797965806223543"><ele>273.0</ele><time>2026-03-22T09:16:53Z</time></trkpt><trkpt lat="46.20596747975715" lon="12.798078952802165"><ele>273.0</ele><time>2026-03-22T09:16:54Z</time></trkpt><trkpt lat="46.2058332970069" lon="12.79819553102066"><ele>273.0</ele><time>2026-03-22T09:16:55Z</time></trkpt><trkpt lat="46.20569597918614" lon="12.798308263578548"><ele>273.0</ele><time>2026-03-22T09:16:56Z</time></trkpt><trkpt lat="46.205566159199705" lon="12.798407689062632"><ele>272.5</ele><time>2026-03-22T09:16:57Z</time></trkpt><trkpt lat="46.20544694161998" lon="12.798495054605967"><ele>272.0</ele><time>2026-03-22T09:16:58Z</time></trkpt><trkpt lat="46.205331500809024" lon="12.798579301090577"><ele>271.5</ele><time>2026-03-22T09:16:59Z</time></trkpt><trkpt lat="46.20522324292006" lon="12.798665309497713"><ele>271.0</ele><time>2026-03-22T09:17:00Z</time></trkpt><trkpt lat="46.20513710151229" lon="12.798804610975148"><ele>271.0</ele><time>2026-03-22T09:17:01Z</time></trkpt><trkpt lat="46.20504456686655" lon="12.798931246960166"><ele>271.0</ele><time>2026-03-22T09:17:02Z</time></trkpt><trkpt lat="46.20495494323672" lon="12.79906783009321"><ele>271.0</ele><time>2026-03-22T09:17:03Z</time></trkpt><trkpt lat="46.20485394742931" lon="12.799205153779726"><ele>271.0</ele><time>2026-03-22T09:17:04Z</time></trkpt><trkpt lat="46.204756276863094" lon="12.799333180584654"><ele>270.75</ele><time>2026-03-22T09:17:05Z</time></trkpt><trkpt lat="46.20465945986682" lon="12.799466310300526"><ele>270.5</ele><time>2026-03-22T09:17:06Z</time></trkpt><trkpt lat="46.20455911947911" lon="12.799590856107443"><ele>270.25</ele><time>2026-03-22T09:17:07Z</time></trkpt><trkpt lat="46.2044674384745" lon="12.799713415497447"><ele>270.0</ele><time>2026-03-22T09:17:08Z</time></trkpt><trkpt lat="46.20438253244543" lon="12.799829151728149"><ele>270.0</ele><time>2026-03-22T09:17:09Z</time></trkpt><trkpt lat="46.204309987545216" lon="12.799948892197804"><ele>270.0</ele><time>2026-03-22T09:17:10Z</time></trkpt><trkpt lat="46.20428185958049" lon="12.800093148152836"><ele>270.0</ele><time>2026-03-22T09:17:11Z</time></trkpt><trkpt lat="46.20426000778386" lon="12.8002680034285"><ele>270.0</ele><time>2026-03-22T09:17:12Z</time></trkpt><trkpt lat="46.204258294256725" lon="12.800458730108298"><ele>270.0</ele><time>2026-03-22T09:17:13Z</time></trkpt><trkpt lat="46.20424594236714" lon="12.800628588527866"><ele>270.0</ele><time>2026-03-22T09:17:14Z</time></trkpt><trkpt lat="46.20422826292212" lon="12.80075092356486"><ele>270.0</ele><time>2026-03-22T09:17:15Z</time></trkpt><trkpt lat="46.20417222668426" lon="12.800920598022028"><ele>270.0</ele><time>2026-03-22T09:17:16Z</time></trkpt><trkpt lat="46.204109912087915" lon="12.801053285244532"><ele>270.0</ele><time>2026-03-22T09:17:17Z</time></trkpt><trkpt lat="46.204031861956054" lon="12.801172774458495"><ele>269.25</ele><time>2026-03-22T09:17:18Z</time></trkpt><trkpt lat="46.2039326525018" lon="12.801276610437254"><ele>268.5</ele><time>2026-03-22T09:17:19Z</time></trkpt><trkpt lat="46.20381484606192" lon="12.801342107121373"><ele>267.75</ele><time>2026-03-22T09:17:20Z</time></trkpt><trkpt lat="46.20369786033697" lon="12.80140457266159"><ele>267.0</ele><time>2026-03-22T09:17:21Z</time></trkpt><trkpt lat="46.203581396982855" lon="12.801430173909583"><ele>267.0</ele><time>2026-03-22T09:17:22Z</time></trkpt><trkpt lat="46.20345901685601" lon="12.801445371014292"><ele>267.0</ele><time>2026-03-22T09:17:23Z</time></trkpt><trkpt lat="46.20332435642562" lon="12.80143549836459"><ele>267.0</ele><time>2026-03-22T09:17:24Z</time></trkpt><trkpt lat="46.20316934527141" lon="12.801390252966426"><ele>267.0</ele><time>2026-03-22T09:17:25Z</time></trkpt><trkpt lat="46.202997015337324" lon="12.801330909941015"><ele>267.0</ele><time>2026-03-22T09:17:26Z</time></trkpt><trkpt lat="46.202812274653844" lon="12.801264191889862"><ele>267.0</ele><time>2026-03-22T09:17:27Z</time></trkpt><trkpt lat="46.20262168246347" lon="12.801195287262582"><ele>267.0</ele><time>2026-03-22T09:17:28Z</time></trkpt><trkpt lat="46.202448825855335" lon="12.80113242056976"><ele>266.6666666666667</ele><time>2026-03-22T09:17:29Z</time></trkpt><trkpt lat="46.202291681161135" lon="12.801075270312985"><ele>266.33333333333337</ele><time>2026-03-22T09:17:30Z</time></trkpt><trkpt lat="46.202142660048466" lon="12.801021072468366"><ele>266.0</ele><time>2026-03-22T09:17:31Z</time></trkpt><trkpt lat="46.20199470170919" lon="12.800967261144471"><ele>266.0</ele><time>2026-03-22T09:17:32Z</time></trkpt><trkpt lat="46.20183842121388" lon="12.800910423120238"><ele>266.0</ele><time>2026-03-22T09:17:33Z</time></trkpt><trkpt lat="46.201684394819765" lon="12.8008531640628"><ele>266.0</ele><time>2026-03-22T09:17:34Z</time></trkpt><trkpt lat="46.20154030935955" lon="12.800799605754841"><ele>265.75</ele><time>2026-03-22T09:17:35Z</time></trkpt><trkpt lat="46.201395871426854" lon="12.80074591643053"><ele>265.5</ele><time>2026-03-22T09:17:36Z</time></trkpt><trkpt lat="46.20125665335577" lon="12.800694167389961"><ele>265.25</ele><time>2026-03-22T09:17:37Z</time></trkpt><trkpt lat="46.20113199047768" lon="12.800650329341595"><ele>265.0</ele><time>2026-03-22T09:17:38Z</time></trkpt><trkpt lat="46.20104268568163" lon="12.80062389004105"><ele>265.0</ele><time>2026-03-22T09:17:39Z</time></trkpt><trkpt lat="46.20097280900416" lon="12.800622862570451"><ele>265.0</ele><time>2026-03-22T09:17:40Z</time></trkpt><trkpt lat="46.200869757527194" lon="12.80072082326963"><ele>265.0</ele><time>2026-03-22T09:17:42Z</time></trkpt><trkpt lat="46.20083520148813" lon="12.800881136341708"><ele>265.0</ele><time>2026-03-22T09:17:43Z</time></trkpt><trkpt lat="46.20084261906234" lon="12.801067422252029"><ele>265.0</ele><time>2026-03-22T09:17:44Z</time></trkpt><trkpt lat="46.20080988197791" lon="12.801275520449579"><ele>264.66666666666663</ele><time>2026-03-22T09:17:45Z</time></trkpt><trkpt lat="46.20077976692997" lon="12.801522853754657"><ele>264.3333333333333</ele><time>2026-03-22T09:17:46Z</time></trkpt><trkpt lat="46.20073450651125" lon="12.80181386809653"><ele>264.0</ele><time>2026-03-22T09:17:47Z</time></trkpt><trkpt lat="46.200681025247796" lon="12.802123315578752"><ele>263.3333333333333</ele><time>2026-03-22T09:17:48Z</time></trkpt><trkpt lat="46.200633021880044" lon="12.80239509135017"><ele>262.66666666666663</ele><time>2026-03-22T09:17:49Z</time></trkpt><trkpt lat="46.200590366736805" lon="12.802631578919744"><ele>262.0</ele><time>2026-03-22T09:17:50Z</time></trkpt><trkpt lat="46.20054823673601" lon="12.802848617725877"><ele>262.0</ele><time>2026-03-22T09:17:51Z</time></trkpt><trkpt lat="46.20050509500838" lon="12.803047244980181"><ele>262.0</ele><time>2026-03-22T09:17:52Z</time></trkpt><trkpt lat="46.200449640226594" lon="12.80322004539316"><ele>262.0</ele><time>2026-03-22T09:17:53Z</time></trkpt><trkpt lat="46.200371311356946" lon="12.803364275074692"><ele>262.0</ele><time>2026-03-22T09:17:54Z</time></trkpt><trkpt lat="46.20027550955192" lon="12.80348754332501"><ele>262.0</ele><time>2026-03-22T09:17:55Z</time></trkpt><trkpt lat="46.200162033707926" lon="12.80362339618194"><ele>262.0</ele><time>2026-03-22T09:17:56Z</time></trkpt><trkpt lat="46.2000127968092" lon="12.803755067437088"><ele>262.0</ele><time>2026-03-22T09:17:57Z</time></trkpt><trkpt lat="46.19982474844089" lon="12.803926191885484"><ele>261.66666666666663</ele><time>2026-03-22T09:17:58Z</time></trkpt><trkpt lat="46.19965123620827" lon="12.804084088419527"><ele>261.3333333333333</ele><time>2026-03-22T09:17:59Z</time></trkpt><trkpt lat="46.199524431595215" lon="12.804200650095469"><ele>261.0</ele><time>2026-03-22T09:18:00Z</time></trkpt><trkpt lat="46.19941479278647" lon="12.804302039645064"><ele>261.40000000000003</ele><time>2026-03-22T09:18:01Z</time></trkpt><trkpt lat="46.199325269389405" lon="12.804384827274404"><ele>261.8</ele><time>2026-03-22T09:18:02Z</time></trkpt><trkpt lat="46.19926246145019" lon="12.804442424154383"><ele>262.20000000000005</ele><time>2026-03-22T09:18:03Z</time></trkpt><trkpt lat="46.199185236163444" lon="12.804512889802316"><ele>262.6</ele><time>2026-03-22T09:18:05Z</time></trkpt><trkpt lat="46.19909606332229" lon="12.804594257098675"><ele>263.0</ele><time>2026-03-22T09:18:08Z</time></trkpt><trkpt lat="46.19909856941097" lon="12.804789652106733"><ele>263.0</ele><time>2026-03-22T09:18:09Z</time></trkpt><trkpt lat="46.199052072293895" lon="12.80493097358887"><ele>263.0</ele><time>2026-03-22T09:18:10Z</time></trkpt><trkpt lat="46.19899539351952" lon="12.8050949918356"><ele>263.0</ele><time>2026-03-22T09:18:11Z</time></trkpt><trkpt lat="46.19892682389964" lon="12.805290279794187"><ele>263.0</ele><time>2026-03-22T09:18:12Z</time></trkpt><trkpt lat="46.198841109689276" lon="12.805534395938201"><ele>263.0</ele><time>2026-03-22T09:18:13Z</time></trkpt><trkpt lat="46.198746878411114" lon="12.805791606059037"><ele>263.0</ele><time>2026-03-22T09:18:14Z</time></trkpt><trkpt lat="46.19863214021616" lon="12.806024603257868"><ele>263.0</ele><time>2026-03-22T09:18:15Z</time></trkpt><trkpt lat="46.19854333333487" lon="12.806290295221386"><ele>262.33333333333337</ele><time>2026-03-22T09:18:16Z</time></trkpt><trkpt lat="46.19846457729771" lon="12.806544581206003"><ele>261.6666666666667</ele><time>2026-03-22T09:18:17Z</time></trkpt><trkpt lat="46.19838776970387" lon="12.806777287865975"><ele>261.0</ele><time>2026-03-22T09:18:18Z</time></trkpt><trkpt lat="46.19830474165748" lon="12.806985328874116"><ele>261.0</ele><time>2026-03-22T09:18:19Z</time></trkpt><trkpt lat="46.19819739763328" lon="12.80719420614407"><ele>261.0</ele><time>2026-03-22T09:18:20Z</time></trkpt><trkpt lat="46.19811552877431" lon="12.807394636117913"><ele>261.0</ele><time>2026-03-22T09:18:21Z</time></trkpt><trkpt lat="46.19804119120988" lon="12.80758026124458"><ele>260.5</ele><time>2026-03-22T09:18:22Z</time></trkpt><trkpt lat="46.1979639244509" lon="12.807759540342419"><ele>260.0</ele><time>2026-03-22T09:18:23Z</time></trkpt><trkpt lat="46.19788747443289" lon="12.807926988407106"><ele>259.5</ele><time>2026-03-22T09:18:24Z</time></trkpt><trkpt lat="46.197807013379126" lon="12.808094903569245"><ele>259.0</ele><time>2026-03-22T09:18:25Z</time></trkpt><trkpt lat="46.19770696936672" lon="12.808282736063113"><ele>259.0</ele><time>2026-03-22T09:18:26Z</time></trkpt><trkpt lat="46.197589098804606" lon="12.808492631386981"><ele>259.0</ele><time>2026-03-22T09:18:27Z</time></trkpt><trkpt lat="46.19747540317267" lon="12.808733682659742"><ele>259.0</ele><time>2026-03-22T09:18:28Z</time></trkpt><trkpt lat="46.19737664930642" lon="12.808973937636157"><ele>258.3333333333333</ele><time>2026-03-22T09:18:29Z</time></trkpt><trkpt lat="46.19727860645797" lon="12.809223434377484"><ele>257.6666666666667</ele><time>2026-03-22T09:18:30Z</time></trkpt><trkpt lat="46.19717072815477" lon="12.809499401146448"><ele>257.0</ele><time>2026-03-22T09:18:31Z</time></trkpt><trkpt lat="46.19705457451806" lon="12.809803309999566"><ele>257.0</ele><time>2026-03-22T09:18:32Z</time></trkpt><trkpt lat="46.19694345845868" lon="12.810095520332219"><ele>257.0</ele><time>2026-03-22T09:18:33Z</time></trkpt><trkpt lat="46.196844537960324" lon="12.81035783329926"><ele>257.0</ele><time>2026-03-22T09:18:34Z</time></trkpt><trkpt lat="46.196729773831365" lon="12.810623058561333"><ele>257.0</ele><time>2026-03-22T09:18:35Z</time></trkpt><trkpt lat="46.19659227333642" lon="12.810896956255316"><ele>257.0</ele><time>2026-03-22T09:18:36Z</time></trkpt><trkpt lat="46.19646510731926" lon="12.811177443688155"><ele>256.33333333333337</ele><time>2026-03-22T09:18:37Z</time></trkpt><trkpt lat="46.19635759653522" lon="12.811444967609988"><ele>255.66666666666669</ele><time>2026-03-22T09:18:38Z</time></trkpt><trkpt lat="46.196261710479455" lon="12.811699552283644"><ele>255.0</ele><time>2026-03-22T09:18:39Z</time></trkpt><trkpt lat="46.19617636752301" lon="12.811944194761445"><ele>254.66666666666669</ele><time>2026-03-22T09:18:40Z</time></trkpt><trkpt lat="46.196084843441724" lon="12.812178968205762"><ele>254.33333333333334</ele><time>2026-03-22T09:18:41Z</time></trkpt><trkpt lat="46.19598139015769" lon="12.812395737798155"><ele>254.0</ele><time>2026-03-22T09:18:42Z</time></trkpt><trkpt lat="46.19585780526268" lon="12.812637177165541"><ele>254.33333333333334</ele><time>2026-03-22T09:18:43Z</time></trkpt><trkpt lat="46.19574149501807" lon="12.812892977077047"><ele>254.66666666666669</ele><time>2026-03-22T09:18:44Z</time></trkpt><trkpt lat="46.19563969364458" lon="12.813156186889044"><ele>255.0</ele><time>2026-03-22T09:18:45Z</time></trkpt><trkpt lat="46.19553419438269" lon="12.81341294293774"><ele>253.66666666666669</ele><time>2026-03-22T09:18:46Z</time></trkpt><trkpt lat="46.19543045485325" lon="12.813642857022035"><ele>252.33333333333334</ele><time>2026-03-22T09:18:47Z</time></trkpt><trkpt lat="46.19533621099644" lon="12.813851726208314"><ele>251.0</ele><time>2026-03-22T09:18:48Z</time></trkpt><trkpt lat="46.195254448742446" lon="12.814024358806318"><ele>251.00000000000003</ele><time>2026-03-22T09:18:49Z</time></trkpt><trkpt lat="46.19518330063441" lon="12.814159375742499"><ele>251.0</ele><time>2026-03-22T09:18:50Z</time></trkpt><trkpt lat="46.19511951270074" lon="12.81424543504999"><ele>251.0</ele><time>2026-03-22T09:18:51Z</time></trkpt><trkpt lat="46.19505089042605" lon="12.814303792249266"><ele>251.0</ele><time>2026-03-22T09:18:52Z</time></trkpt><trkpt lat="46.19498684064664" lon="12.814327865253446"><ele>251.00000000000003</ele><time>2026-03-22T09:18:53Z</time></trkpt><trkpt lat="46.194898049483434" lon="12.814315339262688"><ele>251.0</ele><time>2026-03-22T09:18:54Z</time></trkpt><trkpt lat="46.19475994775489" lon="12.814302042526709"><ele>251.25</ele><time>2026-03-22T09:18:55Z</time></trkpt><trkpt lat="46.19463864807539" lon="12.814332353083577"><ele>251.5</ele><time>2026-03-22T09:18:56Z</time></trkpt><trkpt lat="46.19455064483542" lon="12.814459395461963"><ele>251.75</ele><time>2026-03-22T09:18:57Z</time></trkpt><trkpt lat="46.194449395577806" lon="12.81455674988697"><ele>252.0</ele><time>2026-03-22T09:18:58Z</time></trkpt><trkpt lat="46.19436286044899" lon="12.81462987249067"><ele>252.0</ele><time>2026-03-22T09:18:59Z</time></trkpt><trkpt lat="46.19429708244506" lon="12.814651422617663"><ele>252.0</ele><time>2026-03-22T09:19:00Z</time></trkpt><trkpt lat="46.194234312596265" lon="12.81463434899769"><ele>252.0</ele><time>2026-03-22T09:19:01Z</time></trkpt><trkpt lat="46.19415295454843" lon="12.814574012575898"><ele>252.0</ele><time>2026-03-22T09:19:02Z</time></trkpt><trkpt lat="46.19405740099754" lon="12.814570833221813"><ele>252.0</ele><time>2026-03-22T09:19:03Z</time></trkpt><trkpt lat="46.19393854543506" lon="12.81465634985353"><ele>251.66666666666669</ele><time>2026-03-22T09:19:04Z</time></trkpt><trkpt lat="46.19382305192344" lon="12.814747013529912"><ele>251.33333333333334</ele><time>2026-03-22T09:19:05Z</time></trkpt><trkpt lat="46.19367888906692" lon="12.814851557823891"><ele>251.0</ele><time>2026-03-22T09:19:06Z</time></trkpt><trkpt lat="46.19353462862225" lon="12.814958308765089"><ele>251.0</ele><time>2026-03-22T09:19:07Z</time></trkpt><trkpt lat="46.19341586953705" lon="12.815049649105598"><ele>251.00000000000003</ele><time>2026-03-22T09:19:08Z</time></trkpt><trkpt lat="46.19332374430121" lon="12.815118807833612"><ele>251.00000000000003</ele><time>2026-03-22T09:19:09Z</time></trkpt><trkpt lat="46.19325553693061" lon="12.81516227904752"><ele>251.0</ele><time>2026-03-22T09:19:10Z</time></trkpt><trkpt lat="46.19318295974595" lon="12.8151237395843"><ele>251.0</ele><time>2026-03-22T09:19:12Z</time></trkpt><trkpt lat="46.19313087667869" lon="12.815049601270001"><ele>250.75</ele><time>2026-03-22T09:19:13Z</time></trkpt><trkpt lat="46.19305887830322" lon="12.815007897905463"><ele>250.5</ele><time>2026-03-22T09:19:14Z</time></trkpt><trkpt lat="46.19294827314409" lon="12.815080409624805"><ele>250.25</ele><time>2026-03-22T09:19:15Z</time></trkpt><trkpt lat="46.19283657466065" lon="12.815170102515074"><ele>250.0</ele><time>2026-03-22T09:19:16Z</time></trkpt><trkpt lat="46.192712691832654" lon="12.815271216186844"><ele>250.0</ele><time>2026-03-22T09:19:17Z</time></trkpt><trkpt lat="46.19259170255663" lon="12.81536199438372"><ele>250.0</ele><time>2026-03-22T09:19:18Z</time></trkpt><trkpt lat="46.192493781378715" lon="12.815437051056023"><ele>250.0</ele><time>2026-03-22T09:19:19Z</time></trkpt><trkpt lat="46.192417870807134" lon="12.815495705969935"><ele>250.0</ele><time>2026-03-22T09:19:20Z</time></trkpt><trkpt lat="46.192341380409346" lon="12.815537175656626"><ele>250.0</ele><time>2026-03-22T09:19:22Z</time></trkpt><trkpt lat="46.19248597837095" lon="12.815965130381507"><ele>250.0</ele><time>2026-03-22T09:19:27Z</time></trkpt><trkpt lat="46.19253261113527" lon="12.81603576806022"><ele>250.0</ele><time>2026-03-22T09:19:28Z</time></trkpt><trkpt lat="46.19257957467592" lon="12.816111463841462"><ele>250.0</ele><time>2026-03-22T09:19:29Z</time></trkpt><trkpt lat="46.19262447691266" lon="12.816187027607704"><ele>250.0</ele><time>2026-03-22T09:19:30Z</time></trkpt><trkpt lat="46.192672181190765" lon="12.816268265911427"><ele>250.0</ele><time>2026-03-22T09:19:31Z</time></trkpt><trkpt lat="46.192723413817426" lon="12.816349093886116"><ele>250.0</ele><time>2026-03-22T09:19:32Z</time></trkpt><trkpt lat="46.19278228544118" lon="12.816433190597689"><ele>250.0</ele><time>2026-03-22T09:19:33Z</time></trkpt><trkpt lat="46.192837320152115" lon="12.816526023903531"><ele>250.0</ele><time>2026-03-22T09:19:34Z</time></trkpt><trkpt lat="46.19289735253449" lon="12.816655278747307"><ele>250.0</ele><time>2026-03-22T09:19:35Z</time></trkpt><trkpt lat="46.19294127242164" lon="12.816799344384268"><ele>250.0</ele><time>2026-03-22T09:19:36Z</time></trkpt><trkpt lat="46.19299342169755" lon="12.816935119980727"><ele>250.0</ele><time>2026-03-22T09:19:37Z</time></trkpt><trkpt lat="46.19306541778733" lon="12.817063441558352"><ele>250.0</ele><time>2026-03-22T09:19:38Z</time></trkpt><trkpt lat="46.19315543790873" lon="12.817200272572894"><ele>250.2</ele><time>2026-03-22T09:19:39Z</time></trkpt><trkpt lat="46.19324053835081" lon="12.817303086655654"><ele>250.4</ele><time>2026-03-22T09:19:40Z</time></trkpt><trkpt lat="46.193317844918276" lon="12.81739230150806"><ele>250.60000000000002</ele><time>2026-03-22T09:19:41Z</time></trkpt><trkpt lat="46.19341402060743" lon="12.81747357034502"><ele>250.8</ele><time>2026-03-22T09:19:42Z</time></trkpt><trkpt lat="46.193506507895876" lon="12.817544110504656"><ele>251.0</ele><time>2026-03-22T09:19:43Z</time></trkpt><trkpt lat="46.19357450339468" lon="12.817626262204948"><ele>250.25</ele><time>2026-03-22T09:19:44Z</time></trkpt><trkpt lat="46.193657786811436" lon="12.817769842335554"><ele>249.5</ele><time>2026-03-22T09:19:45Z</time></trkpt><trkpt lat="46.193751348491546" lon="12.817932589229443"><ele>248.75</ele><time>2026-03-22T09:19:46Z</time></trkpt><trkpt lat="46.19384492058003" lon="12.818090644854415"><ele>248.0</ele><time>2026-03-22T09:19:47Z</time></trkpt><trkpt lat="46.193950902892915" lon="12.818246244941006"><ele>248.25</ele><time>2026-03-22T09:19:48Z</time></trkpt><trkpt lat="46.194040761491436" lon="12.8184001470041"><ele>248.5</ele><time>2026-03-22T09:19:49Z</time></trkpt><trkpt lat="46.19412541279793" lon="12.818553760556018"><ele>248.75</ele><time>2026-03-22T09:19:50Z</time></trkpt><trkpt lat="46.19421726955157" lon="12.818680784883595"><ele>249.0</ele><time>2026-03-22T09:19:51Z</time></trkpt><trkpt lat="46.19430930686541" lon="12.818796109298303"><ele>249.0</ele><time>2026-03-22T09:19:52Z</time></trkpt><trkpt lat="46.19438000899792" lon="12.818889936672377"><ele>248.99999999999997</ele><time>2026-03-22T09:19:53Z</time></trkpt><trkpt lat="46.19443155457466" lon="12.818988498631667"><ele>248.99999999999997</ele><time>2026-03-22T09:19:54Z</time></trkpt><trkpt lat="46.194475328450956" lon="12.819129018037946"><ele>249.0</ele><time>2026-03-22T09:19:56Z</time></trkpt><trkpt lat="46.19446286436488" lon="12.819231895319957"><ele>249.0</ele><time>2026-03-22T09:19:57.001Z</time></trkpt><trkpt lat="46.194430762843325" lon="12.819377989316509"><ele>248.5</ele><time>2026-03-22T09:19:58.001Z</time></trkpt><trkpt lat="46.19440324500808" lon="12.819556516521665"><ele>248.0</ele><time>2026-03-22T09:19:59.001Z</time></trkpt><trkpt lat="46.19440800613673" lon="12.819759284715651"><ele>247.5</ele><time>2026-03-22T09:20:00.001Z</time></trkpt><trkpt lat="46.19442982190477" lon="12.81997291301778"><ele>247.0</ele><time>2026-03-22T09:20:01Z</time></trkpt><trkpt lat="46.19445654671436" lon="12.8201992167321"><ele>247.0</ele><time>2026-03-22T09:20:02Z</time></trkpt><trkpt lat="46.19445527105894" lon="12.820454507866334"><ele>247.0</ele><time>2026-03-22T09:20:03Z</time></trkpt><trkpt lat="46.194444215584845" lon="12.820714369938644"><ele>247.0</ele><time>2026-03-22T09:20:04Z</time></trkpt><trkpt lat="46.19442638291496" lon="12.82093681317253"><ele>247.25</ele><time>2026-03-22T09:20:05Z</time></trkpt><trkpt lat="46.194404410163116" lon="12.82117258737329"><ele>247.5</ele><time>2026-03-22T09:20:06Z</time></trkpt><trkpt lat="46.194379456207784" lon="12.821378079761494"><ele>247.75</ele><time>2026-03-22T09:20:07Z</time></trkpt><trkpt lat="46.19436909280059" lon="12.821548367219165"><ele>248.0</ele><time>2026-03-22T09:20:08Z</time></trkpt><trkpt lat="46.1943694110757" lon="12.82168444497405"><ele>248.00000000000003</ele><time>2026-03-22T09:20:09Z</time></trkpt><trkpt lat="46.19436018644451" lon="12.821791265027564"><ele>248.0</ele><time>2026-03-22T09:20:10Z</time></trkpt><trkpt lat="46.19433369811826" lon="12.821897651939242"><ele>248.0</ele><time>2026-03-22T09:20:12Z</time></trkpt><trkpt lat="46.19429608383508" lon="12.821976720677876"><ele>248.0</ele><time>2026-03-22T09:20:13Z</time></trkpt><trkpt lat="46.194237256614166" lon="12.822084563762635"><ele>248.00000000000003</ele><time>2026-03-22T09:20:14Z</time></trkpt><trkpt lat="46.19414604881196" lon="12.822228108351357"><ele>248.0</ele><time>2026-03-22T09:20:15Z</time></trkpt><trkpt lat="46.19405591479663" lon="12.822383407182047"><ele>247.5</ele><time>2026-03-22T09:20:16Z</time></trkpt><trkpt lat="46.193962588265116" lon="12.822545126038912"><ele>247.0</ele><time>2026-03-22T09:20:17Z</time></trkpt><trkpt lat="46.193861215824036" lon="12.82270549804668"><ele>246.5</ele><time>2026-03-22T09:20:18Z</time></trkpt><trkpt lat="46.193769356862795" lon="12.822839588196175"><ele>246.0</ele><time>2026-03-22T09:20:19Z</time></trkpt><trkpt lat="46.19368778711161" lon="12.822983916985386"><ele>246.0</ele><time>2026-03-22T09:20:20Z</time></trkpt><trkpt lat="46.193606667694844" lon="12.823143750206336"><ele>246.0</ele><time>2026-03-22T09:20:21Z</time></trkpt><trkpt lat="46.1935273655965" lon="12.823331749745398"><ele>246.0</ele><time>2026-03-22T09:20:22Z</time></trkpt><trkpt lat="46.19345675781101" lon="12.823552830836505"><ele>246.0</ele><time>2026-03-22T09:20:23Z</time></trkpt><trkpt lat="46.193389015958445" lon="12.82375427296688"><ele>246.0</ele><time>2026-03-22T09:20:24Z</time></trkpt><trkpt lat="46.19331068533012" lon="12.823944197469729"><ele>246.0</ele><time>2026-03-22T09:20:25Z</time></trkpt><trkpt lat="46.19322262901023" lon="12.82413090824409"><ele>245.66666666666669</ele><time>2026-03-22T09:20:26Z</time></trkpt><trkpt lat="46.193127189484024" lon="12.824316217107807"><ele>245.33333333333334</ele><time>2026-03-22T09:20:27Z</time></trkpt><trkpt lat="46.1930396605897" lon="12.824519726768177"><ele>245.0</ele><time>2026-03-22T09:20:28Z</time></trkpt><trkpt lat="46.1929567406665" lon="12.824721528813006"><ele>245.0</ele><time>2026-03-22T09:20:29Z</time></trkpt><trkpt lat="46.19286391074102" lon="12.824930053017361"><ele>245.0</ele><time>2026-03-22T09:20:30Z</time></trkpt><trkpt lat="46.19276552187633" lon="12.825150773497828"><ele>245.0</ele><time>2026-03-22T09:20:31Z</time></trkpt><trkpt lat="46.19268613768997" lon="12.825348577114786"><ele>245.0</ele><time>2026-03-22T09:20:32Z</time></trkpt><trkpt lat="46.19262152721933" lon="12.825528637650883"><ele>245.0</ele><time>2026-03-22T09:20:33Z</time></trkpt><trkpt lat="46.1925701310213" lon="12.825691496716034"><ele>245.0</ele><time>2026-03-22T09:20:34Z</time></trkpt><trkpt lat="46.192534430448866" lon="12.825833202580315"><ele>245.0</ele><time>2026-03-22T09:20:35Z</time></trkpt><trkpt lat="46.19251650956526" lon="12.825969999787501"><ele>244.75</ele><time>2026-03-22T09:20:36Z</time></trkpt><trkpt lat="46.19251871139265" lon="12.82611897944016"><ele>244.5</ele><time>2026-03-22T09:20:37Z</time></trkpt><trkpt lat="46.192541567940545" lon="12.826312847157215"><ele>244.25</ele><time>2026-03-22T09:20:38Z</time></trkpt><trkpt lat="46.19257079804108" lon="12.826512236654619"><ele>244.0</ele><time>2026-03-22T09:20:39Z</time></trkpt><trkpt lat="46.192583570848406" lon="12.826718049846942"><ele>243.75</ele><time>2026-03-22T09:20:40Z</time></trkpt><trkpt lat="46.192576182686736" lon="12.826954608603582"><ele>243.5</ele><time>2026-03-22T09:20:41Z</time></trkpt><trkpt lat="46.192569038389294" lon="12.827161906349813"><ele>243.25</ele><time>2026-03-22T09:20:42Z</time></trkpt><trkpt lat="46.19257003160912" lon="12.827352906091656"><ele>243.0</ele><time>2026-03-22T09:20:43Z</time></trkpt><trkpt lat="46.192577609796906" lon="12.82751281081028"><ele>243.0</ele><time>2026-03-22T09:20:44Z</time></trkpt><trkpt lat="46.1925870516293" lon="12.82764511478728"><ele>243.0</ele><time>2026-03-22T09:20:45Z</time></trkpt><trkpt lat="46.19260977830916" lon="12.827751090038916"><ele>243.0</ele><time>2026-03-22T09:20:46Z</time></trkpt><trkpt lat="46.19264803923603" lon="12.82783449251485"><ele>243.0</ele><time>2026-03-22T09:20:47Z</time></trkpt><trkpt lat="46.19270553626501" lon="12.827905604779673"><ele>243.0</ele><time>2026-03-22T09:20:48Z</time></trkpt><trkpt lat="46.192801247286106" lon="12.827977954599307"><ele>243.0</ele><time>2026-03-22T09:20:49Z</time></trkpt><trkpt lat="46.19291396798509" lon="12.82808580497883"><ele>243.0</ele><time>2026-03-22T09:20:50Z</time></trkpt><trkpt lat="46.19300770801033" lon="12.828233499139603"><ele>243.0</ele><time>2026-03-22T09:20:51Z</time></trkpt><trkpt lat="46.193091407142816" lon="12.828392604778651"><ele>243.0</ele><time>2026-03-22T09:20:52Z</time></trkpt><trkpt lat="46.19315685265472" lon="12.82852915683315"><ele>243.0</ele><time>2026-03-22T09:20:53Z</time></trkpt><trkpt lat="46.19322636684015" lon="12.828667330994787"><ele>243.5</ele><time>2026-03-22T09:20:54Z</time></trkpt><trkpt lat="46.19329733140051" lon="12.828816886774815"><ele>244.0</ele><time>2026-03-22T09:20:55Z</time></trkpt><trkpt lat="46.193379622769484" lon="12.828988171173988"><ele>244.5</ele><time>2026-03-22T09:20:56Z</time></trkpt><trkpt lat="46.193460801448325" lon="12.829192245267569"><ele>245.0</ele><time>2026-03-22T09:20:57Z</time></trkpt><trkpt lat="46.19354263284706" lon="12.829384450253695"><ele>245.0</ele><time>2026-03-22T09:20:58Z</time></trkpt><trkpt lat="46.193615879057546" lon="12.829547905555707"><ele>245.0</ele><time>2026-03-22T09:20:59Z</time></trkpt><trkpt lat="46.19368409372703" lon="12.829694700665396"><ele>245.0</ele><time>2026-03-22T09:21:00Z</time></trkpt><trkpt lat="46.19373797156401" lon="12.829803926643924"><ele>245.0</ele><time>2026-03-22T09:21:01Z</time></trkpt><trkpt lat="46.193779118305926" lon="12.829889692277487"><ele>245.0</ele><time>2026-03-22T09:21:02Z</time></trkpt><trkpt lat="46.193814317826615" lon="12.830065407578923"><ele>244.6</ele><time>2026-03-22T09:21:04Z</time></trkpt><trkpt lat="46.193850603557856" lon="12.830171606513803"><ele>244.2</ele><time>2026-03-22T09:21:05Z</time></trkpt><trkpt lat="46.19390986919949" lon="12.830275482610922"><ele>243.8</ele><time>2026-03-22T09:21:06Z</time></trkpt><trkpt lat="46.19398007356801" lon="12.830393863200845"><ele>243.4</ele><time>2026-03-22T09:21:07Z</time></trkpt><trkpt lat="46.19404696519054" lon="12.830506663106576"><ele>243.0</ele><time>2026-03-22T09:21:08Z</time></trkpt><trkpt lat="46.19410104990934" lon="12.830583638523532"><ele>242.60000000000002</ele><time>2026-03-22T09:21:09Z</time></trkpt><trkpt lat="46.19416720756877" lon="12.830632871456537"><ele>242.20000000000002</ele><time>2026-03-22T09:21:10Z</time></trkpt><trkpt lat="46.194250169218755" lon="12.830662502707346"><ele>241.8</ele><time>2026-03-22T09:21:11Z</time></trkpt><trkpt lat="46.194348493865846" lon="12.830676256309268"><ele>241.4</ele><time>2026-03-22T09:21:12Z</time></trkpt><trkpt lat="46.1944521036348" lon="12.830671304464497"><ele>241.0</ele><time>2026-03-22T09:21:13Z</time></trkpt><trkpt lat="46.19457582435539" lon="12.83066478489704"><ele>241.0</ele><time>2026-03-22T09:21:14Z</time></trkpt><trkpt lat="46.194714733045885" lon="12.830658864728735"><ele>241.0</ele><time>2026-03-22T09:21:15Z</time></trkpt><trkpt lat="46.19485468819464" lon="12.830632972758375"><ele>241.0</ele><time>2026-03-22T09:21:16Z</time></trkpt><trkpt lat="46.1949981988681" lon="12.83059584966112"><ele>241.0</ele><time>2026-03-22T09:21:17Z</time></trkpt><trkpt lat="46.1951632324861" lon="12.830550856493296"><ele>241.25</ele><time>2026-03-22T09:21:18Z</time></trkpt><trkpt lat="46.19531622934946" lon="12.830502578850913"><ele>241.5</ele><time>2026-03-22T09:21:19Z</time></trkpt><trkpt lat="46.195443632013294" lon="12.830451506120717"><ele>241.75</ele><time>2026-03-22T09:21:20Z</time></trkpt><trkpt lat="46.19555198932202" lon="12.830401691751668"><ele>242.0</ele><time>2026-03-22T09:21:21Z</time></trkpt><trkpt lat="46.195632769970345" lon="12.8303633402062"><ele>242.75</ele><time>2026-03-22T09:21:22Z</time></trkpt><trkpt lat="46.19570607865312" lon="12.830339304610227"><ele>243.5</ele><time>2026-03-22T09:21:24Z</time></trkpt><trkpt lat="46.19574837580276" lon="12.830556892918395"><ele>244.25</ele><time>2026-03-22T09:21:27Z</time></trkpt><trkpt lat="46.19572796776854" lon="12.830727694291442"><ele>245.0</ele><time>2026-03-22T09:21:28Z</time></trkpt><trkpt lat="46.19569059550867" lon="12.830941251103491"><ele>243.66666666666669</ele><time>2026-03-22T09:21:29Z</time></trkpt><trkpt lat="46.19564926998249" lon="12.831167150120963"><ele>242.33333333333331</ele><time>2026-03-22T09:21:30Z</time></trkpt><trkpt lat="46.19560161468414" lon="12.831394014002615"><ele>241.0</ele><time>2026-03-22T09:21:31Z</time></trkpt><trkpt lat="46.19552491374663" lon="12.831609012215706"><ele>241.25</ele><time>2026-03-22T09:21:32Z</time></trkpt><trkpt lat="46.19548674439328" lon="12.831819849664717"><ele>241.5</ele><time>2026-03-22T09:21:33Z</time></trkpt><trkpt lat="46.19545204646637" lon="12.832020234379183"><ele>241.75</ele><time>2026-03-22T09:21:34Z</time></trkpt><trkpt lat="46.19541896482119" lon="12.83222328392509"><ele>242.0</ele><time>2026-03-22T09:21:35Z</time></trkpt><trkpt lat="46.19538662230266" lon="12.832423827091194"><ele>242.0</ele><time>2026-03-22T09:21:36Z</time></trkpt><trkpt lat="46.195355329243704" lon="12.832618160644106"><ele>242.0</ele><time>2026-03-22T09:21:37Z</time></trkpt><trkpt lat="46.19532265453247" lon="12.832811140156007"><ele>242.0</ele><time>2026-03-22T09:21:38Z</time></trkpt><trkpt lat="46.195287334507874" lon="12.833005919090517"><ele>242.0</ele><time>2026-03-22T09:21:39Z</time></trkpt><trkpt lat="46.19525156850452" lon="12.833206585654194"><ele>242.0</ele><time>2026-03-22T09:21:40Z</time></trkpt><trkpt lat="46.19521784670621" lon="12.833400863433317"><ele>242.0</ele><time>2026-03-22T09:21:41Z</time></trkpt><trkpt lat="46.19518439006322" lon="12.833600339081816"><ele>242.0</ele><time>2026-03-22T09:21:42Z</time></trkpt><trkpt lat="46.19515469435514" lon="12.833793276340652"><ele>242.0</ele><time>2026-03-22T09:21:43Z</time></trkpt><trkpt lat="46.195125206088115" lon="12.833988081351622"><ele>241.75</ele><time>2026-03-22T09:21:44Z</time></trkpt><trkpt lat="46.1950945386773" lon="12.834181686339662"><ele>241.5</ele><time>2026-03-22T09:21:45Z</time></trkpt><trkpt lat="46.195061593822864" lon="12.834373067090832"><ele>241.25</ele><time>2026-03-22T09:21:46.001Z</time></trkpt><trkpt lat="46.19502814187054" lon="12.834564000557283"><ele>241.0</ele><time>2026-03-22T09:21:47.001Z</time></trkpt><trkpt lat="46.194995510656284" lon="12.834754798682285"><ele>241.0</ele><time>2026-03-22T09:21:48.001Z</time></trkpt><trkpt lat="46.19496378069182" lon="12.834947761745516"><ele>241.0</ele><time>2026-03-22T09:21:49.001Z</time></trkpt><trkpt lat="46.194931586264396" lon="12.835145479683147"><ele>241.0</ele><time>2026-03-22T09:21:50.001Z</time></trkpt><trkpt lat="46.1948989278682" lon="12.835341478515202"><ele>241.0</ele><time>2026-03-22T09:21:51.001Z</time></trkpt><trkpt lat="46.19486437842778" lon="12.835530046139688"><ele>240.60000000000002</ele><time>2026-03-22T09:21:52.001Z</time></trkpt><trkpt lat="46.19482966867749" lon="12.835706358260351"><ele>240.20000000000002</ele><time>2026-03-22T09:21:53.001Z</time></trkpt><trkpt lat="46.19480174726582" lon="12.835844370491657"><ele>239.79999999999998</ele><time>2026-03-22T09:21:54.001Z</time></trkpt><trkpt lat="46.19477770278662" lon="12.835963219505937"><ele>239.39999999999998</ele><time>2026-03-22T09:21:55.001Z</time></trkpt><trkpt lat="46.19475995502043" lon="12.836050945019624"><ele>239.0</ele><time>2026-03-22T09:21:56.001Z</time></trkpt><trkpt lat="46.19472980844274" lon="12.836201574667756"><ele>239.0</ele><time>2026-03-22T09:21:58.001Z</time></trkpt><trkpt lat="46.19471037892736" lon="12.836309934352402"><ele>238.99999999999997</ele><time>2026-03-22T09:21:59.001Z</time></trkpt><trkpt lat="46.194685994720935" lon="12.836452030721594"><ele>238.99999999999997</ele><time>2026-03-22T09:22:00.001Z</time></trkpt><trkpt lat="46.19465915429367" lon="12.836610053275475"><ele>239.0</ele><time>2026-03-22T09:22:01.001Z</time></trkpt><trkpt lat="46.1946319073358" lon="12.83676588926507"><ele>239.0</ele><time>2026-03-22T09:22:02.001Z</time></trkpt><trkpt lat="46.194601760314605" lon="12.836930429648442"><ele>239.0</ele><time>2026-03-22T09:22:03.001Z</time></trkpt><trkpt lat="46.194569958242575" lon="12.837104038219756"><ele>239.0</ele><time>2026-03-22T09:22:04.001Z</time></trkpt><trkpt lat="46.19453900200851" lon="12.837282203529622"><ele>239.0</ele><time>2026-03-22T09:22:05.001Z</time></trkpt><trkpt lat="46.1945276347732" lon="12.837469229652385"><ele>239.0</ele><time>2026-03-22T09:22:06.001Z</time></trkpt><trkpt lat="46.19450319871221" lon="12.837644429744829"><ele>238.79999999999998</ele><time>2026-03-22T09:22:07Z</time></trkpt><trkpt lat="46.19447929479878" lon="12.83781365381068"><ele>238.59999999999997</ele><time>2026-03-22T09:22:08Z</time></trkpt><trkpt lat="46.19445652115728" lon="12.83797416140604"><ele>238.4</ele><time>2026-03-22T09:22:09Z</time></trkpt><trkpt lat="46.19443122361339" lon="12.838123592460216"><ele>238.2</ele><time>2026-03-22T09:22:10Z</time></trkpt><trkpt lat="46.19439027940263" lon="12.83826175625705"><ele>238.0</ele><time>2026-03-22T09:22:11Z</time></trkpt><trkpt lat="46.19436168718007" lon="12.838405498215229"><ele>237.8</ele><time>2026-03-22T09:22:12Z</time></trkpt><trkpt lat="46.19433219839229" lon="12.838554727320115"><ele>237.60000000000002</ele><time>2026-03-22T09:22:13Z</time></trkpt><trkpt lat="46.194320016241136" lon="12.83871261953094"><ele>237.39999999999998</ele><time>2026-03-22T09:22:14Z</time></trkpt><trkpt lat="46.194295502055375" lon="12.838864952400842"><ele>237.2</ele><time>2026-03-22T09:22:15Z</time></trkpt><trkpt lat="46.19427596487172" lon="12.839019753335194"><ele>237.0</ele><time>2026-03-22T09:22:16Z</time></trkpt><trkpt lat="46.19425501100121" lon="12.839174941337717"><ele>237.2</ele><time>2026-03-22T09:22:17Z</time></trkpt><trkpt lat="46.19423328696459" lon="12.839326001132658"><ele>237.39999999999998</ele><time>2026-03-22T09:22:18Z</time></trkpt><trkpt lat="46.19421318993441" lon="12.839476139721006"><ele>237.60000000000002</ele><time>2026-03-22T09:22:19Z</time></trkpt><trkpt lat="46.19419339148747" lon="12.839621915602457"><ele>237.8</ele><time>2026-03-22T09:22:20Z</time></trkpt><trkpt lat="46.19415258996408" lon="12.83975951895531"><ele>238.0</ele><time>2026-03-22T09:22:21Z</time></trkpt><trkpt lat="46.19414071286722" lon="12.839905751776048"><ele>238.0</ele><time>2026-03-22T09:22:22Z</time></trkpt><trkpt lat="46.194116766652535" lon="12.84004460023481"><ele>238.0</ele><time>2026-03-22T09:22:23Z</time></trkpt><trkpt lat="46.1940950239731" lon="12.840183464740194"><ele>238.0</ele><time>2026-03-22T09:22:24Z</time></trkpt><trkpt lat="46.19407332080278" lon="12.84032468195218"><ele>238.0</ele><time>2026-03-22T09:22:25Z</time></trkpt><trkpt lat="46.194032152328575" lon="12.840466866248397"><ele>238.0</ele><time>2026-03-22T09:22:26Z</time></trkpt><trkpt lat="46.19400411311588" lon="12.840620367390954"><ele>238.25</ele><time>2026-03-22T09:22:27Z</time></trkpt><trkpt lat="46.1939745102209" lon="12.840780268622932"><ele>238.5</ele><time>2026-03-22T09:22:28Z</time></trkpt><trkpt lat="46.19394393555948" lon="12.840945419103873"><ele>238.75</ele><time>2026-03-22T09:22:29Z</time></trkpt><trkpt lat="46.19392917863448" lon="12.841118158318572"><ele>239.0</ele><time>2026-03-22T09:22:30Z</time></trkpt><trkpt lat="46.19389651588404" lon="12.841288311683705"><ele>239.0</ele><time>2026-03-22T09:22:31Z</time></trkpt><trkpt lat="46.1938654883436" lon="12.841444584021389"><ele>238.99999999999997</ele><time>2026-03-22T09:22:32Z</time></trkpt><trkpt lat="46.19383868548276" lon="12.841587936250336"><ele>238.99999999999997</ele><time>2026-03-22T09:22:33Z</time></trkpt><trkpt lat="46.19381433377673" lon="12.841724246399794"><ele>239.0</ele><time>2026-03-22T09:22:34Z</time></trkpt><trkpt lat="46.193788262093044" lon="12.841842043079135"><ele>239.0</ele><time>2026-03-22T09:22:35Z</time></trkpt><trkpt lat="46.19376423468543" lon="12.841953268776361"><ele>238.79999999999998</ele><time>2026-03-22T09:22:36Z</time></trkpt><trkpt lat="46.19374915161266" lon="12.842059766183343"><ele>238.59999999999997</ele><time>2026-03-22T09:22:37Z</time></trkpt><trkpt lat="46.1937249924426" lon="12.842158850195952"><ele>238.4</ele><time>2026-03-22T09:22:38Z</time></trkpt><trkpt lat="46.1937003724193" lon="12.842370101369953"><ele>238.2</ele><time>2026-03-22T09:22:39Z</time></trkpt><trkpt lat="46.19367739377406" lon="12.842516063545888"><ele>238.0</ele><time>2026-03-22T09:22:40Z</time></trkpt><trkpt lat="46.19365384859842" lon="12.842659904568041"><ele>237.5</ele><time>2026-03-22T09:22:41Z</time></trkpt><trkpt lat="46.193625089358406" lon="12.84280642014844"><ele>237.0</ele><time>2026-03-22T09:22:42Z</time></trkpt><trkpt lat="46.193596898112474" lon="12.84296731766101"><ele>236.5</ele><time>2026-03-22T09:22:43Z</time></trkpt><trkpt lat="46.19356890429226" lon="12.84313966964994"><ele>236.0</ele><time>2026-03-22T09:22:44Z</time></trkpt><trkpt lat="46.19353967325052" lon="12.843320209280215"><ele>235.75</ele><time>2026-03-22T09:22:45Z</time></trkpt><trkpt lat="46.19350633554012" lon="12.84350514874072"><ele>235.5</ele><time>2026-03-22T09:22:46Z</time></trkpt><trkpt lat="46.193472302967216" lon="12.843698434111994"><ele>235.25</ele><time>2026-03-22T09:22:47Z</time></trkpt><trkpt lat="46.19343690518847" lon="12.843895664403457"><ele>235.0</ele><time>2026-03-22T09:22:48Z</time></trkpt><trkpt lat="46.19340133556822" lon="12.84409092591172"><ele>235.33333333333331</ele><time>2026-03-22T09:22:49Z</time></trkpt><trkpt lat="46.19336135180988" lon="12.844307522889071"><ele>235.66666666666669</ele><time>2026-03-22T09:22:50Z</time></trkpt><trkpt lat="46.1933087080158" lon="12.844518541581749"><ele>236.0</ele><time>2026-03-22T09:22:51Z</time></trkpt><trkpt lat="46.1932700212565" lon="12.844735972112865"><ele>236.0</ele><time>2026-03-22T09:22:52Z</time></trkpt><trkpt lat="46.193231031350784" lon="12.844953623420096"><ele>236.0</ele><time>2026-03-22T09:22:53Z</time></trkpt><trkpt lat="46.19319042366281" lon="12.845175551090083"><ele>236.0</ele><time>2026-03-22T09:22:54Z</time></trkpt><trkpt lat="46.193149833748144" lon="12.84539738168876"><ele>235.33333333333334</ele><time>2026-03-22T09:22:55Z</time></trkpt><trkpt lat="46.1931094780828" lon="12.845617932126132"><ele>234.66666666666669</ele><time>2026-03-22T09:22:56Z</time></trkpt><trkpt lat="46.193069690935054" lon="12.845837305782783"><ele>234.0</ele><time>2026-03-22T09:22:57Z</time></trkpt><trkpt lat="46.19302986432959" lon="12.8460576332757"><ele>233.75</ele><time>2026-03-22T09:22:58Z</time></trkpt><trkpt lat="46.192990894476274" lon="12.846273221108957"><ele>233.5</ele><time>2026-03-22T09:22:59Z</time></trkpt><trkpt lat="46.192955068027366" lon="12.846471419079375"><ele>233.25</ele><time>2026-03-22T09:23:00Z</time></trkpt><trkpt lat="46.19292147318936" lon="12.846657271414418"><ele>233.0</ele><time>2026-03-22T09:23:01Z</time></trkpt><trkpt lat="46.192904684510474" lon="12.846840215357016"><ele>233.0</ele><time>2026-03-22T09:23:02Z</time></trkpt><trkpt lat="46.19286877073803" lon="12.847028463201282"><ele>233.0</ele><time>2026-03-22T09:23:03Z</time></trkpt><trkpt lat="46.19281939379277" lon="12.847213416237281"><ele>233.0</ele><time>2026-03-22T09:23:04Z</time></trkpt><trkpt lat="46.19278343700798" lon="12.847408412566715"><ele>233.0</ele><time>2026-03-22T09:23:05Z</time></trkpt><trkpt lat="46.19275378262019" lon="12.84763359401137"><ele>233.25</ele><time>2026-03-22T09:23:06Z</time></trkpt><trkpt lat="46.19269075575546" lon="12.847835277880746"><ele>233.5</ele><time>2026-03-22T09:23:07Z</time></trkpt><trkpt lat="46.19264135312346" lon="12.848022684645821"><ele>233.75</ele><time>2026-03-22T09:23:08Z</time></trkpt><trkpt lat="46.19258451576485" lon="12.848193681185048"><ele>234.0</ele><time>2026-03-22T09:23:09Z</time></trkpt><trkpt lat="46.19252622497741" lon="12.848342711690302"><ele>233.79999999999998</ele><time>2026-03-22T09:23:10Z</time></trkpt><trkpt lat="46.19247264111466" lon="12.8484722692509"><ele>233.59999999999997</ele><time>2026-03-22T09:23:11Z</time></trkpt><trkpt lat="46.19243795440129" lon="12.848595211746279"><ele>233.4</ele><time>2026-03-22T09:23:12Z</time></trkpt><trkpt lat="46.19239881942062" lon="12.848684864066989"><ele>233.2</ele><time>2026-03-22T09:23:13Z</time></trkpt><trkpt lat="46.19235739454285" lon="12.84876524391727"><ele>233.0</ele><time>2026-03-22T09:23:15Z</time></trkpt><trkpt lat="46.19246871465754" lon="12.848863599827986"><ele>233.0</ele><time>2026-03-22T09:23:19Z</time></trkpt><trkpt lat="46.19253386211701" lon="12.848867791954158"><ele>233.0</ele><time>2026-03-22T09:23:21Z</time></trkpt><trkpt lat="46.1924367799217" lon="12.849182155358431"><ele>233.0</ele><time>2026-03-22T09:23:26Z</time></trkpt><trkpt lat="46.192364566930735" lon="12.849339029446055"><ele>233.0</ele><time>2026-03-22T09:23:28Z</time></trkpt><trkpt lat="46.1923271431903" lon="12.849446585938198"><ele>232.4</ele><time>2026-03-22T09:23:29Z</time></trkpt><trkpt lat="46.19228136598006" lon="12.84956592041631"><ele>231.8</ele><time>2026-03-22T09:23:30Z</time></trkpt><trkpt lat="46.19222212469942" lon="12.849697808269868"><ele>231.2</ele><time>2026-03-22T09:23:31Z</time></trkpt><trkpt lat="46.19215932043663" lon="12.84982814836144"><ele>230.6</ele><time>2026-03-22T09:23:32Z</time></trkpt><trkpt lat="46.19210425999235" lon="12.849953083293466"><ele>230.0</ele><time>2026-03-22T09:23:33Z</time></trkpt><trkpt lat="46.192059227165316" lon="12.850064435112557"><ele>229.83333333333334</ele><time>2026-03-22T09:23:34Z</time></trkpt><trkpt lat="46.192027591708424" lon="12.850176242115442"><ele>229.66666666666669</ele><time>2026-03-22T09:23:35.001Z</time></trkpt><trkpt lat="46.19201555709186" lon="12.850283871063"><ele>229.5</ele><time>2026-03-22T09:23:36.001Z</time></trkpt><trkpt lat="46.1920280577559" lon="12.850380767470783"><ele>229.33333333333331</ele><time>2026-03-22T09:23:37.001Z</time></trkpt><trkpt lat="46.19206892437818" lon="12.8504677841779"><ele>229.16666666666666</ele><time>2026-03-22T09:23:38.001Z</time></trkpt><trkpt lat="46.192142296278284" lon="12.85057754853356"><ele>229.0</ele><time>2026-03-22T09:23:39.001Z</time></trkpt><trkpt lat="46.192195233827846" lon="12.850675308867412"><ele>228.99999999999997</ele><time>2026-03-22T09:23:40.001Z</time></trkpt><trkpt lat="46.19222638376047" lon="12.850767623218994"><ele>229.0</ele><time>2026-03-22T09:23:41.001Z</time></trkpt><trkpt lat="46.19222924794413" lon="12.85086052954894"><ele>229.0</ele><time>2026-03-22T09:23:42.001Z</time></trkpt><trkpt lat="46.19220379605157" lon="12.850966983198985"><ele>229.0</ele><time>2026-03-22T09:23:43.001Z</time></trkpt><trkpt lat="46.19217090092287" lon="12.85107630444671"><ele>228.99999999999997</ele><time>2026-03-22T09:23:44.001Z</time></trkpt><trkpt lat="46.19216514182541" lon="12.851194694844466"><ele>229.0</ele><time>2026-03-22T09:23:45.001Z</time></trkpt><trkpt lat="46.19216534792599" lon="12.851343217937552"><ele>228.75</ele><time>2026-03-22T09:23:46.001Z</time></trkpt><trkpt lat="46.19216987092108" lon="12.851489013661237"><ele>228.5</ele><time>2026-03-22T09:23:47.001Z</time></trkpt><trkpt lat="46.192184443467184" lon="12.85166567924152"><ele>228.25</ele><time>2026-03-22T09:23:48.001Z</time></trkpt><trkpt lat="46.19219989621503" lon="12.851856867839496"><ele>228.0</ele><time>2026-03-22T09:23:49.001Z</time></trkpt><trkpt lat="46.192218995339374" lon="12.852040745545997"><ele>228.0</ele><time>2026-03-22T09:23:50.001Z</time></trkpt><trkpt lat="46.19223929584414" lon="12.852218214100791"><ele>228.0</ele><time>2026-03-22T09:23:51.001Z</time></trkpt><trkpt lat="46.19225054886568" lon="12.85239640119536"><ele>228.0</ele><time>2026-03-22T09:23:52.001Z</time></trkpt><trkpt lat="46.192270556606495" lon="12.852587330121665"><ele>228.0</ele><time>2026-03-22T09:23:53.001Z</time></trkpt><trkpt lat="46.19228882173471" lon="12.852737795877925"><ele>227.75</ele><time>2026-03-22T09:23:54.001Z</time></trkpt><trkpt lat="46.19231157416118" lon="12.852879270658377"><ele>227.5</ele><time>2026-03-22T09:23:55.001Z</time></trkpt><trkpt lat="46.192348176561" lon="12.853005882948233"><ele>227.25</ele><time>2026-03-22T09:23:56.001Z</time></trkpt><trkpt lat="46.19242317363504" lon="12.85315241982862"><ele>227.0</ele><time>2026-03-22T09:23:57.001Z</time></trkpt><trkpt lat="46.19248737595936" lon="12.853331923874075"><ele>226.5</ele><time>2026-03-22T09:23:58.001Z</time></trkpt><trkpt lat="46.1925347020788" lon="12.853524421076614"><ele>226.0</ele><time>2026-03-22T09:23:59.001Z</time></trkpt><trkpt lat="46.192576381293414" lon="12.853704149566656"><ele>225.5</ele><time>2026-03-22T09:24:00.001Z</time></trkpt><trkpt lat="46.19261334944697" lon="12.8538696769886"><ele>225.0</ele><time>2026-03-22T09:24:01.001Z</time></trkpt><trkpt lat="46.192643850494065" lon="12.854032164927268"><ele>225.0</ele><time>2026-03-22T09:24:02.001Z</time></trkpt><trkpt lat="46.19264594220317" lon="12.854180371733529"><ele>225.0</ele><time>2026-03-22T09:24:03.001Z</time></trkpt><trkpt lat="46.192641517898686" lon="12.854321172856825"><ele>225.0</ele><time>2026-03-22T09:24:04.001Z</time></trkpt><trkpt lat="46.19262130652451" lon="12.85445904783364"><ele>225.0</ele><time>2026-03-22T09:24:05.001Z</time></trkpt><trkpt lat="46.19258446920041" lon="12.854609665420758"><ele>225.0</ele><time>2026-03-22T09:24:06.001Z</time></trkpt><trkpt lat="46.19255656014871" lon="12.854738743712716"><ele>225.0</ele><time>2026-03-22T09:24:07.001Z</time></trkpt><trkpt lat="46.1925518480408" lon="12.854872450680544"><ele>225.0</ele><time>2026-03-22T09:24:08.001Z</time></trkpt><trkpt lat="46.1925926058362" lon="12.855026244567222"><ele>225.0</ele><time>2026-03-22T09:24:09.001Z</time></trkpt><trkpt lat="46.19265181033456" lon="12.855211362791756"><ele>225.0</ele><time>2026-03-22T09:24:10.001Z</time></trkpt><trkpt lat="46.19271884614271" lon="12.855393734090933"><ele>224.6</ele><time>2026-03-22T09:24:11.001Z</time></trkpt><trkpt lat="46.19278796108201" lon="12.855558439179106"><ele>224.2</ele><time>2026-03-22T09:24:12.001Z</time></trkpt><trkpt lat="46.19284682820738" lon="12.855707636253541"><ele>223.8</ele><time>2026-03-22T09:24:13Z</time></trkpt><trkpt lat="46.19289419208236" lon="12.855824796272477"><ele>223.4</ele><time>2026-03-22T09:24:14Z</time></trkpt><trkpt lat="46.19294318223333" lon="12.85591515852835"><ele>223.0</ele><time>2026-03-22T09:24:15Z</time></trkpt><trkpt lat="46.19299435499671" lon="12.855994099631612"><ele>222.8</ele><time>2026-03-22T09:24:16Z</time></trkpt><trkpt lat="46.193048301065566" lon="12.856054603946893"><ele>222.60000000000002</ele><time>2026-03-22T09:24:17Z</time></trkpt><trkpt lat="46.19311585927325" lon="12.856132860226634"><ele>222.39999999999998</ele><time>2026-03-22T09:24:18Z</time></trkpt><trkpt lat="46.19320458029837" lon="12.856221907878636"><ele>222.2</ele><time>2026-03-22T09:24:19Z</time></trkpt><trkpt lat="46.193282739728204" lon="12.856327652803248"><ele>222.0</ele><time>2026-03-22T09:24:20Z</time></trkpt><trkpt lat="46.19333955182522" lon="12.856441030173881"><ele>222.0</ele><time>2026-03-22T09:24:21Z</time></trkpt><trkpt lat="46.193396537770205" lon="12.856562167541975"><ele>222.0</ele><time>2026-03-22T09:24:22Z</time></trkpt><trkpt lat="46.193474373724186" lon="12.856686246250206"><ele>222.0</ele><time>2026-03-22T09:24:23Z</time></trkpt><trkpt lat="46.19355749882966" lon="12.856814973704036"><ele>222.0</ele><time>2026-03-22T09:24:24Z</time></trkpt><trkpt lat="46.19361927253113" lon="12.856932868396152"><ele>222.0</ele><time>2026-03-22T09:24:25Z</time></trkpt><trkpt lat="46.19368360287912" lon="12.857047423207135"><ele>221.8</ele><time>2026-03-22T09:24:26Z</time></trkpt><trkpt lat="46.19374857041657" lon="12.857165624805596"><ele>221.6</ele><time>2026-03-22T09:24:27Z</time></trkpt><trkpt lat="46.19380430953126" lon="12.857272724774894"><ele>221.40000000000003</ele><time>2026-03-22T09:24:28Z</time></trkpt><trkpt lat="46.19383901813997" lon="12.857369317999446"><ele>221.20000000000002</ele><time>2026-03-22T09:24:29Z</time></trkpt><trkpt lat="46.19387520943575" lon="12.857530483614743"><ele>221.0</ele><time>2026-03-22T09:24:31Z</time></trkpt><trkpt lat="46.193914740712515" lon="12.857704640326215"><ele>221.00000000000003</ele><time>2026-03-22T09:24:33Z</time></trkpt><trkpt lat="46.19393514053799" lon="12.857807379368616"><ele>221.0</ele><time>2026-03-22T09:24:34Z</time></trkpt><trkpt lat="46.193954157888086" lon="12.857903156405431"><ele>221.0</ele><time>2026-03-22T09:24:35Z</time></trkpt><trkpt lat="46.193994785349005" lon="12.858035122216755"><ele>221.0</ele><time>2026-03-22T09:24:37Z</time></trkpt><trkpt lat="46.19386114424444" lon="12.85804373534718"><ele>221.00000000000003</ele><time>2026-03-22T09:24:40Z</time></trkpt><trkpt lat="46.19379342990653" lon="12.85808148820535"><ele>221.0</ele><time>2026-03-22T09:24:41Z</time></trkpt><trkpt lat="46.19367922797597" lon="12.858162300727813"><ele>221.00000000000003</ele><time>2026-03-22T09:24:43Z</time></trkpt><trkpt lat="46.19361490387397" lon="12.858203178819318"><ele>221.0</ele><time>2026-03-22T09:24:44Z</time></trkpt><trkpt lat="46.19355019660831" lon="12.858238962778836"><ele>221.0</ele><time>2026-03-22T09:24:45Z</time></trkpt><trkpt lat="46.19348170505804" lon="12.858265408683073"><ele>221.0</ele><time>2026-03-22T09:24:46Z</time></trkpt><trkpt lat="46.19341545841824" lon="12.85827125405017"><ele>221.0</ele><time>2026-03-22T09:24:47Z</time></trkpt><trkpt lat="46.1933428527056" lon="12.858274119013139"><ele>221.00000000000003</ele><time>2026-03-22T09:24:48Z</time></trkpt><trkpt lat="46.193273370203926" lon="12.858264210676175"><ele>221.0</ele><time>2026-03-22T09:24:49Z</time></trkpt><trkpt lat="46.19319604047644" lon="12.858244556592675"><ele>221.16666666666669</ele><time>2026-03-22T09:24:50Z</time></trkpt><trkpt lat="46.19312853899342" lon="12.8582174754766"><ele>221.33333333333334</ele><time>2026-03-22T09:24:51Z</time></trkpt><trkpt lat="46.19305276548502" lon="12.858193376094809"><ele>221.5</ele><time>2026-03-22T09:24:52Z</time></trkpt><trkpt lat="46.19297397046392" lon="12.858203277555154"><ele>221.66666666666669</ele><time>2026-03-22T09:24:53Z</time></trkpt><trkpt lat="46.192907898560165" lon="12.858277708138274"><ele>221.83333333333334</ele><time>2026-03-22T09:24:54Z</time></trkpt><trkpt lat="46.192880655669825" lon="12.858421234497655"><ele>222.0</ele><time>2026-03-22T09:24:55Z</time></trkpt><trkpt lat="46.1928841944904" lon="12.858548177347235"><ele>222.39999999999998</ele><time>2026-03-22T09:24:56Z</time></trkpt><trkpt lat="46.192917665469196" lon="12.858667582609336"><ele>222.79999999999998</ele><time>2026-03-22T09:24:57Z</time></trkpt><trkpt lat="46.19297802563401" lon="12.858762012290581"><ele>223.2</ele><time>2026-03-22T09:24:58Z</time></trkpt><trkpt lat="46.19305015781796" lon="12.858877069616499"><ele>223.6</ele><time>2026-03-22T09:24:59Z</time></trkpt><trkpt lat="46.19311541311397" lon="12.8589742481222"><ele>224.0</ele><time>2026-03-22T09:25:00Z</time></trkpt><trkpt lat="46.193182700035415" lon="12.859081649120816"><ele>223.2</ele><time>2026-03-22T09:25:01Z</time></trkpt><trkpt lat="46.193234008302454" lon="12.859163544655717"><ele>222.39999999999998</ele><time>2026-03-22T09:25:02Z</time></trkpt><trkpt lat="46.193299245780445" lon="12.859245620863021"><ele>221.6</ele><time>2026-03-22T09:25:03Z</time></trkpt><trkpt lat="46.193346699082404" lon="12.859358008893377"><ele>220.8</ele><time>2026-03-22T09:25:04Z</time></trkpt><trkpt lat="46.19341482020439" lon="12.859459730349908"><ele>220.0</ele><time>2026-03-22T09:25:05Z</time></trkpt><trkpt lat="46.193500102668246" lon="12.859561555772775"><ele>220.0</ele><time>2026-03-22T09:25:06Z</time></trkpt><trkpt lat="46.19357186160358" lon="12.859656269050465"><ele>220.0</ele><time>2026-03-22T09:25:07Z</time></trkpt><trkpt lat="46.19359331517078" lon="12.859784962667515"><ele>220.0</ele><time>2026-03-22T09:25:08Z</time></trkpt><trkpt lat="46.1936302743737" lon="12.85992193578785"><ele>220.0</ele><time>2026-03-22T09:25:09Z</time></trkpt><trkpt lat="46.193673195148804" lon="12.86007616814538"><ele>220.0</ele><time>2026-03-22T09:25:10Z</time></trkpt><trkpt lat="46.19372864498838" lon="12.860210010205632"><ele>220.2</ele><time>2026-03-22T09:25:11Z</time></trkpt><trkpt lat="46.193752481419914" lon="12.860364852030468"><ele>220.4</ele><time>2026-03-22T09:25:12Z</time></trkpt><trkpt lat="46.19378178828777" lon="12.86050615601315"><ele>220.60000000000002</ele><time>2026-03-22T09:25:13Z</time></trkpt><trkpt lat="46.19379498826801" lon="12.860625431196333"><ele>220.8</ele><time>2026-03-22T09:25:14Z</time></trkpt><trkpt lat="46.19380696905642" lon="12.860753580203255"><ele>221.0</ele><time>2026-03-22T09:25:15Z</time></trkpt><trkpt lat="46.19381501593481" lon="12.860858734854817"><ele>221.0</ele><time>2026-03-22T09:25:16Z</time></trkpt><trkpt lat="46.19382197812725" lon="12.860965585073357"><ele>221.00000000000003</ele><time>2026-03-22T09:25:17Z</time></trkpt><trkpt lat="46.19382645623778" lon="12.8610848880094"><ele>221.00000000000003</ele><time>2026-03-22T09:25:19Z</time></trkpt><trkpt lat="46.19366705758397" lon="12.860994283766727"><ele>221.0</ele><time>2026-03-22T09:25:22Z</time></trkpt><trkpt lat="46.19360628981159" lon="12.860942696343495"><ele>221.0</ele><time>2026-03-22T09:25:23Z</time></trkpt><trkpt lat="46.193524653980774" lon="12.860879998759724"><ele>221.00000000000003</ele><time>2026-03-22T09:25:24Z</time></trkpt><trkpt lat="46.19346657397341" lon="12.86083095853698"><ele>221.0</ele><time>2026-03-22T09:25:25Z</time></trkpt><trkpt lat="46.19337618154037" lon="12.860737831344586"><ele>221.0</ele><time>2026-03-22T09:25:27Z</time></trkpt><trkpt lat="46.19331670976221" lon="12.860677916669053"><ele>221.0</ele><time>2026-03-22T09:25:28Z</time></trkpt><trkpt lat="46.19326987561689" lon="12.860537073985983"><ele>221.00000000000003</ele><time>2026-03-22T09:25:30Z</time></trkpt><trkpt lat="46.19321997455049" lon="12.8604676035227"><ele>221.0</ele><time>2026-03-22T09:25:31Z</time></trkpt><trkpt lat="46.192865580542474" lon="12.860728762516425"><ele>221.16666666666669</ele><time>2026-03-22T09:25:32Z</time></trkpt><trkpt lat="46.19278263630301" lon="12.860728222566209"><ele>221.33333333333334</ele><time>2026-03-22T09:25:33Z</time></trkpt><trkpt lat="46.1926999345551" lon="12.860736401164434"><ele>221.5</ele><time>2026-03-22T09:25:34Z</time></trkpt><trkpt lat="46.192622968118634" lon="12.860752622645721"><ele>221.66666666666669</ele><time>2026-03-22T09:25:35.001Z</time></trkpt><trkpt lat="46.1925208624808" lon="12.860865415228453"><ele>221.83333333333334</ele><time>2026-03-22T09:25:37.001Z</time></trkpt><trkpt lat="46.19248921611483" lon="12.860953681549779"><ele>222.0</ele><time>2026-03-22T09:25:38.001Z</time></trkpt><trkpt lat="46.19247222591849" lon="12.861065490736495"><ele>222.16666666666666</ele><time>2026-03-22T09:25:39.001Z</time></trkpt><trkpt lat="46.19245466425449" lon="12.861168510803976"><ele>222.33333333333331</ele><time>2026-03-22T09:25:40.001Z</time></trkpt><trkpt lat="46.192434816205385" lon="12.861274709330349"><ele>222.5</ele><time>2026-03-22T09:25:41.001Z</time></trkpt><trkpt lat="46.19235285487764" lon="12.861359573880804"><ele>222.66666666666666</ele><time>2026-03-22T09:25:42.001Z</time></trkpt><trkpt lat="46.192319471583815" lon="12.861482962946052"><ele>222.83333333333331</ele><time>2026-03-22T09:25:43.001Z</time></trkpt><trkpt lat="46.19226962567506" lon="12.861606913772265"><ele>223.0</ele><time>2026-03-22T09:25:44.001Z</time></trkpt><trkpt lat="46.19220900335542" lon="12.861752500512626"><ele>222.75</ele><time>2026-03-22T09:25:45.001Z</time></trkpt><trkpt lat="46.1921515677016" lon="12.861914482781875"><ele>222.5</ele><time>2026-03-22T09:25:46.001Z</time></trkpt><trkpt lat="46.19209312218516" lon="12.86210482178769"><ele>222.25</ele><time>2026-03-22T09:25:47.001Z</time></trkpt><trkpt lat="46.19203413894271" lon="12.862303638599835"><ele>222.0</ele><time>2026-03-22T09:25:48.001Z</time></trkpt><trkpt lat="46.191971410942934" lon="12.862523116172136"><ele>222.0</ele><time>2026-03-22T09:25:49.001Z</time></trkpt><trkpt lat="46.191916593439636" lon="12.862741295422957"><ele>222.0</ele><time>2026-03-22T09:25:50.001Z</time></trkpt><trkpt lat="46.1918642344497" lon="12.862964627567333"><ele>222.0</ele><time>2026-03-22T09:25:51.001Z</time></trkpt><trkpt lat="46.191815768611896" lon="12.86317135368082"><ele>222.0</ele><time>2026-03-22T09:25:52.001Z</time></trkpt><trkpt lat="46.191763493946155" lon="12.863344512910038"><ele>222.0</ele><time>2026-03-22T09:25:53.001Z</time></trkpt><trkpt lat="46.19170470009583" lon="12.863518075192394"><ele>222.0</ele><time>2026-03-22T09:25:54.001Z</time></trkpt><trkpt lat="46.191626391883226" lon="12.86372858076735"><ele>222.0</ele><time>2026-03-22T09:25:55.001Z</time></trkpt><trkpt lat="46.191542054377294" lon="12.863962424938299"><ele>221.75</ele><time>2026-03-22T09:25:56.001Z</time></trkpt><trkpt lat="46.19147242320121" lon="12.864169467416785"><ele>221.5</ele><time>2026-03-22T09:25:57.001Z</time></trkpt><trkpt lat="46.19141634242355" lon="12.86434011188531"><ele>221.25</ele><time>2026-03-22T09:25:58.001Z</time></trkpt><trkpt lat="46.191371484480165" lon="12.8644797624771"><ele>221.0</ele><time>2026-03-22T09:25:59.001Z</time></trkpt><trkpt lat="46.191335174273526" lon="12.864594208113804"><ele>221.20000000000002</ele><time>2026-03-22T09:26:00.001Z</time></trkpt><trkpt lat="46.19131568623071" lon="12.864698830236229"><ele>221.40000000000003</ele><time>2026-03-22T09:26:01.001Z</time></trkpt><trkpt lat="46.19132883307487" lon="12.864805428433662"><ele>221.6</ele><time>2026-03-22T09:26:02.001Z</time></trkpt><trkpt lat="46.1914129576168" lon="12.86487949965719"><ele>221.8</ele><time>2026-03-22T09:26:03.001Z</time></trkpt><trkpt lat="46.19150403010382" lon="12.864867591446426"><ele>222.0</ele><time>2026-03-22T09:26:04.001Z</time></trkpt><trkpt lat="46.19161305722007" lon="12.864931560854526"><ele>222.0</ele><time>2026-03-22T09:26:05.001Z</time></trkpt><trkpt lat="46.19174869677761" lon="12.864986209397868"><ele>222.0</ele><time>2026-03-22T09:26:06.001Z</time></trkpt><trkpt lat="46.19186389668243" lon="12.865007476999034"><ele>222.0</ele><time>2026-03-22T09:26:07.001Z</time></trkpt><trkpt lat="46.19196591591769" lon="12.865043839067651"><ele>222.0</ele><time>2026-03-22T09:26:08.001Z</time></trkpt><trkpt lat="46.192042010624014" lon="12.865077110841423"><ele>222.0</ele><time>2026-03-22T09:26:09.001Z</time></trkpt><trkpt lat="46.19210812223017" lon="12.865096320650446"><ele>221.8</ele><time>2026-03-22T09:26:10.001Z</time></trkpt><trkpt lat="46.19214337731765" lon="12.865251608042488"><ele>221.6</ele><time>2026-03-22T09:26:12.001Z</time></trkpt><trkpt lat="46.19211105716574" lon="12.86536587465742"><ele>221.40000000000003</ele><time>2026-03-22T09:26:13.001Z</time></trkpt><trkpt lat="46.19210398108902" lon="12.865547374378542"><ele>221.20000000000002</ele><time>2026-03-22T09:26:14.001Z</time></trkpt><trkpt lat="46.19209006019734" lon="12.865724525065046"><ele>221.0</ele><time>2026-03-22T09:26:15.001Z</time></trkpt><trkpt lat="46.192067612814185" lon="12.865873798723303"><ele>221.0</ele><time>2026-03-22T09:26:16.001Z</time></trkpt><trkpt lat="46.19203722135383" lon="12.866007280091006"><ele>221.00000000000003</ele><time>2026-03-22T09:26:17.001Z</time></trkpt><trkpt lat="46.19200073305872" lon="12.866131758147159"><ele>221.00000000000003</ele><time>2026-03-22T09:26:18.001Z</time></trkpt><trkpt lat="46.19195840152137" lon="12.866275457405532"><ele>221.0</ele><time>2026-03-22T09:26:19Z</time></trkpt><trkpt lat="46.19192460503797" lon="12.866416601709384"><ele>221.0</ele><time>2026-03-22T09:26:20Z</time></trkpt><trkpt lat="46.1919024568101" lon="12.866540652609409"><ele>221.0</ele><time>2026-03-22T09:26:21Z</time></trkpt><trkpt lat="46.191891691235" lon="12.866707008819514"><ele>221.00000000000003</ele><time>2026-03-22T09:26:22Z</time></trkpt><trkpt lat="46.19190997076558" lon="12.866868787646089"><ele>221.00000000000003</ele><time>2026-03-22T09:26:23Z</time></trkpt><trkpt lat="46.19193602186502" lon="12.867018677760134"><ele>221.0</ele><time>2026-03-22T09:26:24Z</time></trkpt><trkpt lat="46.19197161562303" lon="12.867159967212782"><ele>221.0</ele><time>2026-03-22T09:26:25Z</time></trkpt><trkpt lat="46.19197954272396" lon="12.867285058295028"><ele>221.20000000000002</ele><time>2026-03-22T09:26:26Z</time></trkpt><trkpt lat="46.19199410177248" lon="12.86740642843018"><ele>221.40000000000003</ele><time>2026-03-22T09:26:27Z</time></trkpt><trkpt lat="46.19204515491017" lon="12.867532585734669"><ele>221.6</ele><time>2026-03-22T09:26:29Z</time></trkpt><trkpt lat="46.19213067852551" lon="12.867630199679313"><ele>221.8</ele><time>2026-03-22T09:26:31Z</time></trkpt><trkpt lat="46.19220698745329" lon="12.867705365110638"><ele>222.0</ele><time>2026-03-22T09:26:32Z</time></trkpt><trkpt lat="46.192284376830955" lon="12.86776342125826"><ele>221.66666666666666</ele><time>2026-03-22T09:26:33Z</time></trkpt><trkpt lat="46.19236165891675" lon="12.867804926084123"><ele>221.33333333333331</ele><time>2026-03-22T09:26:34Z</time></trkpt><trkpt lat="46.19244462406471" lon="12.867827193974872"><ele>221.0</ele><time>2026-03-22T09:26:35Z</time></trkpt><trkpt lat="46.192520205961635" lon="12.86782793835767"><ele>220.66666666666666</ele><time>2026-03-22T09:26:36Z</time></trkpt><trkpt lat="46.19259232005702" lon="12.86783553929538"><ele>220.33333333333331</ele><time>2026-03-22T09:26:37Z</time></trkpt><trkpt lat="46.192655715177644" lon="12.867836731710193"><ele>220.0</ele><time>2026-03-22T09:26:38Z</time></trkpt><trkpt lat="46.19273047233523" lon="12.867844627970982"><ele>220.0</ele><time>2026-03-22T09:26:40Z</time></trkpt><trkpt lat="46.192727982782664" lon="12.86799784465656"><ele>220.0</ele><time>2026-03-22T09:26:42Z</time></trkpt><trkpt lat="46.19272066412829" lon="12.868118776090322"><ele>220.0</ele><time>2026-03-22T09:26:43Z</time></trkpt><trkpt lat="46.19271464051304" lon="12.868264223306698"><ele>220.0</ele><time>2026-03-22T09:26:44Z</time></trkpt><trkpt lat="46.192708211667934" lon="12.868419454687103"><ele>220.0</ele><time>2026-03-22T09:26:45Z</time></trkpt><trkpt lat="46.19269648417604" lon="12.868546445391766"><ele>218.99999999999997</ele><time>2026-03-22T09:26:46Z</time></trkpt><trkpt lat="46.19267878990615" lon="12.868660675988925"><ele>218.0</ele><time>2026-03-22T09:26:47Z</time></trkpt><trkpt lat="46.19265288354395" lon="12.868778575627829"><ele>217.0</ele><time>2026-03-22T09:26:48Z</time></trkpt><trkpt lat="46.19261669009743" lon="12.868874095852066"><ele>216.0</ele><time>2026-03-22T09:26:49Z</time></trkpt><trkpt lat="46.19257510533057" lon="12.868957353174297"><ele>214.99999999999997</ele><time>2026-03-22T09:26:50Z</time></trkpt><trkpt lat="46.192522488991244" lon="12.869029809915274"><ele>214.0</ele><time>2026-03-22T09:26:51Z</time></trkpt><trkpt lat="46.192450687561" lon="12.869112142794336"><ele>214.0</ele><time>2026-03-22T09:26:52Z</time></trkpt><trkpt lat="46.19236555319817" lon="12.869200190765154"><ele>213.99999999999997</ele><time>2026-03-22T09:26:53Z</time></trkpt><trkpt lat="46.19227506170884" lon="12.869291907474656"><ele>213.99999999999997</ele><time>2026-03-22T09:26:54Z</time></trkpt><trkpt lat="46.1921935365008" lon="12.869362837843138"><ele>214.0</ele><time>2026-03-22T09:26:55Z</time></trkpt><trkpt lat="46.19210959501838" lon="12.869414048747393"><ele>214.0</ele><time>2026-03-22T09:26:56Z</time></trkpt><trkpt lat="46.192015165643994" lon="12.869458420356262"><ele>213.66666666666666</ele><time>2026-03-22T09:26:57Z</time></trkpt><trkpt lat="46.19193068405531" lon="12.869504790169517"><ele>213.33333333333331</ele><time>2026-03-22T09:26:58Z</time></trkpt><trkpt lat="46.1918506072778" lon="12.869564074101573"><ele>213.0</ele><time>2026-03-22T09:26:59Z</time></trkpt><trkpt lat="46.19179692069201" lon="12.869630617697204"><ele>212.66666666666669</ele><time>2026-03-22T09:27:00Z</time></trkpt><trkpt lat="46.191760876818435" lon="12.869739814174219"><ele>212.33333333333334</ele><time>2026-03-22T09:27:02Z</time></trkpt><trkpt lat="46.19167873130532" lon="12.869733182660758"><ele>212.0</ele><time>2026-03-22T09:27:03Z</time></trkpt><trkpt lat="46.19155610820445" lon="12.869749778972619"><ele>214.0</ele><time>2026-03-22T09:27:04Z</time></trkpt><trkpt lat="46.19140106034637" lon="12.869775507916255"><ele>216.0</ele><time>2026-03-22T09:27:05Z</time></trkpt><trkpt lat="46.191228856416075" lon="12.869846530073724"><ele>218.0</ele><time>2026-03-22T09:27:06Z</time></trkpt><trkpt lat="46.191084188002954" lon="12.86986740548271"><ele>218.0</ele><time>2026-03-22T09:27:07Z</time></trkpt><trkpt lat="46.19095970495585" lon="12.869896372254123"><ele>218.0</ele><time>2026-03-22T09:27:08Z</time></trkpt><trkpt lat="46.19085231024492" lon="12.869940735258494"><ele>218.0</ele><time>2026-03-22T09:27:09Z</time></trkpt><trkpt lat="46.19075507443802" lon="12.869999022950534"><ele>218.0</ele><time>2026-03-22T09:27:10Z</time></trkpt><trkpt lat="46.19064923268768" lon="12.870066180045153"><ele>217.60000000000002</ele><time>2026-03-22T09:27:11Z</time></trkpt><trkpt lat="46.19054086588609" lon="12.870136812451753"><ele>217.20000000000002</ele><time>2026-03-22T09:27:12Z</time></trkpt><trkpt lat="46.19042646209941" lon="12.87015970750218"><ele>216.8</ele><time>2026-03-22T09:27:13Z</time></trkpt><trkpt lat="46.190344514942325" lon="12.870213691065983"><ele>216.4</ele><time>2026-03-22T09:27:14Z</time></trkpt><trkpt lat="46.19027786480954" lon="12.870261730591649"><ele>216.0</ele><time>2026-03-22T09:27:15Z</time></trkpt><trkpt lat="46.19019407528522" lon="12.870320922454356"><ele>216.0</ele><time>2026-03-22T09:27:17Z</time></trkpt><trkpt lat="46.19014741551172" lon="12.870552606036204"><ele>216.0</ele><time>2026-03-22T09:27:19Z</time></trkpt><trkpt lat="46.19012521309729" lon="12.870678913587767"><ele>216.0</ele><time>2026-03-22T09:27:20Z</time></trkpt><trkpt lat="46.19011062364094" lon="12.870829543834397"><ele>216.0</ele><time>2026-03-22T09:27:21Z</time></trkpt><trkpt lat="46.190099540856586" lon="12.870993819120384"><ele>215.75</ele><time>2026-03-22T09:27:22Z</time></trkpt><trkpt lat="46.19010748807683" lon="12.871177235587323"><ele>215.5</ele><time>2026-03-22T09:27:23Z</time></trkpt><trkpt lat="46.190129194128616" lon="12.871357920357427"><ele>215.25</ele><time>2026-03-22T09:27:24Z</time></trkpt><trkpt lat="46.190139952998415" lon="12.871514291323386"><ele>215.0</ele><time>2026-03-22T09:27:25Z</time></trkpt><trkpt lat="46.19013939367509" lon="12.871645784271124"><ele>215.0</ele><time>2026-03-22T09:27:26Z</time></trkpt><trkpt lat="46.190128707939856" lon="12.87175469628954"><ele>215.0</ele><time>2026-03-22T09:27:27Z</time></trkpt><trkpt lat="46.19010787853091" lon="12.871872546986522"><ele>215.0</ele><time>2026-03-22T09:27:28Z</time></trkpt><trkpt lat="46.19005976382981" lon="12.87200928836902"><ele>215.0</ele><time>2026-03-22T09:27:29Z</time></trkpt><trkpt lat="46.19000709032113" lon="12.87215815596522"><ele>215.0</ele><time>2026-03-22T09:27:30Z</time></trkpt><trkpt lat="46.18995420097269" lon="12.872326898535523"><ele>214.8</ele><time>2026-03-22T09:27:31Z</time></trkpt><trkpt lat="46.189914195598824" lon="12.872499753840593"><ele>214.6</ele><time>2026-03-22T09:27:32Z</time></trkpt><trkpt lat="46.18989138130103" lon="12.87265642779008"><ele>214.39999999999998</ele><time>2026-03-22T09:27:33Z</time></trkpt><trkpt lat="46.18988034467412" lon="12.872793979118853"><ele>214.2</ele><time>2026-03-22T09:27:34Z</time></trkpt><trkpt lat="46.18987705714873" lon="12.872924927238385"><ele>214.0</ele><time>2026-03-22T09:27:35Z</time></trkpt><trkpt lat="46.18987949369904" lon="12.873041865815496"><ele>213.66666666666666</ele><time>2026-03-22T09:27:36Z</time></trkpt><trkpt lat="46.18988197184938" lon="12.873145151590688"><ele>213.33333333333331</ele><time>2026-03-22T09:27:37Z</time></trkpt><trkpt lat="46.18988225067417" lon="12.873253898130558"><ele>213.0</ele><time>2026-03-22T09:27:38Z</time></trkpt><trkpt lat="46.18988133479176" lon="12.873386644953248"><ele>212.66666666666669</ele><time>2026-03-22T09:27:39Z</time></trkpt><trkpt lat="46.18987898429135" lon="12.87349755360491"><ele>212.33333333333334</ele><time>2026-03-22T09:27:40Z</time></trkpt><trkpt lat="46.189872347882044" lon="12.873592872336173"><ele>212.0</ele><time>2026-03-22T09:27:41Z</time></trkpt><trkpt lat="46.18988870449172" lon="12.873692013182904"><ele>212.00000000000003</ele><time>2026-03-22T09:27:42Z</time></trkpt><trkpt lat="46.18983690698028" lon="12.873759979969053"><ele>212.0</ele><time>2026-03-22T09:27:43Z</time></trkpt><trkpt lat="46.189801765840386" lon="12.873845562348729"><ele>212.0</ele><time>2026-03-22T09:27:44Z</time></trkpt><trkpt lat="46.18977797923591" lon="12.873976248510546"><ele>212.0</ele><time>2026-03-22T09:27:45Z</time></trkpt><trkpt lat="46.1897069642157" lon="12.874082376791874"><ele>212.00000000000003</ele><time>2026-03-22T09:27:46Z</time></trkpt><trkpt lat="46.18963209439442" lon="12.874200534910607"><ele>212.0</ele><time>2026-03-22T09:27:47Z</time></trkpt><trkpt lat="46.18956241298177" lon="12.87432545900974"><ele>212.0</ele><time>2026-03-22T09:27:48Z</time></trkpt><trkpt lat="46.189492968255266" lon="12.874442553896717"><ele>212.0</ele><time>2026-03-22T09:27:49Z</time></trkpt><trkpt lat="46.1894369655528" lon="12.874557208321535"><ele>212.0</ele><time>2026-03-22T09:27:50Z</time></trkpt><trkpt lat="46.189343924288465" lon="12.874645194576226"><ele>212.0</ele><time>2026-03-22T09:27:51Z</time></trkpt><trkpt lat="46.189320895067524" lon="12.874767849662893"><ele>212.0</ele><time>2026-03-22T09:27:52Z</time></trkpt><trkpt lat="46.189321757134785" lon="12.874908270750845"><ele>212.0</ele><time>2026-03-22T09:27:53Z</time></trkpt><trkpt lat="46.18933251318117" lon="12.87505464902323"><ele>212.0</ele><time>2026-03-22T09:27:54Z</time></trkpt><trkpt lat="46.189339968576945" lon="12.875208551697837"><ele>212.0</ele><time>2026-03-22T09:27:55Z</time></trkpt><trkpt lat="46.189348087301696" lon="12.875376147521292"><ele>212.0</ele><time>2026-03-22T09:27:56Z</time></trkpt><trkpt lat="46.18935668260244" lon="12.87555358130862"><ele>212.0</ele><time>2026-03-22T09:27:57Z</time></trkpt><trkpt lat="46.18936311385984" lon="12.875741771556296"><ele>212.0</ele><time>2026-03-22T09:27:58Z</time></trkpt><trkpt lat="46.189369255653844" lon="12.87594562725828"><ele>212.0</ele><time>2026-03-22T09:27:59Z</time></trkpt><trkpt lat="46.189384722326515" lon="12.876157313634716"><ele>212.0</ele><time>2026-03-22T09:28:00Z</time></trkpt><trkpt lat="46.18941495590426" lon="12.876375499680936"><ele>212.0</ele><time>2026-03-22T09:28:01Z</time></trkpt><trkpt lat="46.18947727753312" lon="12.876586345184197"><ele>212.0</ele><time>2026-03-22T09:28:02Z</time></trkpt><trkpt lat="46.189521056111225" lon="12.876784336523476"><ele>212.0</ele><time>2026-03-22T09:28:03Z</time></trkpt><trkpt lat="46.189551635129725" lon="12.876915361783439"><ele>212.0</ele><time>2026-03-22T09:28:04Z</time></trkpt><trkpt lat="46.189567752971996" lon="12.877004083831432"><ele>212.0</ele><time>2026-03-22T09:28:05Z</time></trkpt><trkpt lat="46.18959230273896" lon="12.876845858281246"><ele>212.0</ele><time>2026-03-22T09:28:11Z</time></trkpt><trkpt lat="46.189537258539204" lon="12.876751241505675"><ele>212.0</ele><time>2026-03-22T09:28:12Z</time></trkpt><trkpt lat="46.18949974635562" lon="12.876625244169645"><ele>212.0</ele><time>2026-03-22T09:28:13Z</time></trkpt><trkpt lat="46.18945518205875" lon="12.876440237610199"><ele>212.0</ele><time>2026-03-22T09:28:14Z</time></trkpt><trkpt lat="46.1894196679891" lon="12.876208116876642"><ele>212.0</ele><time>2026-03-22T09:28:15Z</time></trkpt><trkpt lat="46.18939738389195" lon="12.875960153296978"><ele>212.0</ele><time>2026-03-22T09:28:16Z</time></trkpt><trkpt lat="46.18938579154077" lon="12.875670334102574"><ele>212.0</ele><time>2026-03-22T09:28:17Z</time></trkpt><trkpt lat="46.189385625727326" lon="12.875357450749092"><ele>212.0</ele><time>2026-03-22T09:28:18Z</time></trkpt><trkpt lat="46.18938302042371" lon="12.87508995323936"><ele>212.0</ele><time>2026-03-22T09:28:19Z</time></trkpt><trkpt lat="46.1893806475187" lon="12.874841027590268"><ele>212.0</ele><time>2026-03-22T09:28:20Z</time></trkpt><trkpt lat="46.189372775429966" lon="12.874732672782548"><ele>212.0</ele><time>2026-03-22T09:28:21Z</time></trkpt><trkpt lat="46.18940547325619" lon="12.874596576186809"><ele>212.0</ele><time>2026-03-22T09:28:22.001Z</time></trkpt><trkpt lat="46.189462623700386" lon="12.874466040683663"><ele>212.0</ele><time>2026-03-22T09:28:23.001Z</time></trkpt><trkpt lat="46.18955247813379" lon="12.874293383307046"><ele>212.0</ele><time>2026-03-22T09:28:24.001Z</time></trkpt><trkpt lat="46.189658799518625" lon="12.874122792263286"><ele>212.0</ele><time>2026-03-22T09:28:25Z</time></trkpt><trkpt lat="46.18976945996586" lon="12.873984471842238"><ele>212.00000000000003</ele><time>2026-03-22T09:28:26Z</time></trkpt><trkpt lat="46.18985418821722" lon="12.873873433840085"><ele>212.0</ele><time>2026-03-22T09:28:27Z</time></trkpt><trkpt lat="46.18990976053637" lon="12.873763464018502"><ele>212.0</ele><time>2026-03-22T09:28:28Z</time></trkpt><trkpt lat="46.189918835817956" lon="12.87365599644591"><ele>212.0</ele><time>2026-03-22T09:28:29Z</time></trkpt><trkpt lat="46.18982334567028" lon="12.873613564142993"><ele>212.00000000000003</ele><time>2026-03-22T09:28:33Z</time></trkpt><trkpt lat="46.18978934475305" lon="12.873693476192068"><ele>212.0</ele><time>2026-03-22T09:28:34Z</time></trkpt><trkpt lat="46.18971931101645" lon="12.873788270529136"><ele>212.0</ele><time>2026-03-22T09:28:35Z</time></trkpt><trkpt lat="46.18962396894519" lon="12.873908398729307"><ele>212.0</ele><time>2026-03-22T09:28:36Z</time></trkpt><trkpt lat="46.18952392972528" lon="12.874065013754434"><ele>212.0</ele><time>2026-03-22T09:28:37Z</time></trkpt><trkpt lat="46.18943092968602" lon="12.874208132809947"><ele>212.0</ele><time>2026-03-22T09:28:38Z</time></trkpt><trkpt lat="46.18934851585992" lon="12.874315901715628"><ele>212.00000000000003</ele><time>2026-03-22T09:28:39Z</time></trkpt><trkpt lat="46.18927615264186" lon="12.874393094493183"><ele>212.0</ele><time>2026-03-22T09:28:40Z</time></trkpt><trkpt lat="46.18921238701551" lon="12.874436696482789"><ele>212.0</ele><time>2026-03-22T09:28:41Z</time></trkpt><trkpt lat="46.189143221116794" lon="12.874465631949302"><ele>212.0</ele><time>2026-03-22T09:28:42Z</time></trkpt><trkpt lat="46.189032404292675" lon="12.874403109817099"><ele>212.00000000000003</ele><time>2026-03-22T09:28:44Z</time></trkpt><trkpt lat="46.1889572286167" lon="12.874325674674076"><ele>212.0</ele><time>2026-03-22T09:28:45Z</time></trkpt><trkpt lat="46.188865649320654" lon="12.874213384435048"><ele>212.6</ele><time>2026-03-22T09:28:46Z</time></trkpt><trkpt lat="46.18878997393695" lon="12.874141141156308"><ele>213.2</ele><time>2026-03-22T09:28:47Z</time></trkpt><trkpt lat="46.18872352382545" lon="12.8740915716133"><ele>213.8</ele><time>2026-03-22T09:28:48Z</time></trkpt><trkpt lat="46.1886474444483" lon="12.874097600687737"><ele>214.4</ele><time>2026-03-22T09:28:49Z</time></trkpt><trkpt lat="46.18856555120901" lon="12.87414040380327"><ele>215.0</ele><time>2026-03-22T09:28:50Z</time></trkpt><trkpt lat="46.188478005147765" lon="12.874265492338159"><ele>214.75</ele><time>2026-03-22T09:28:51Z</time></trkpt><trkpt lat="46.18841818099365" lon="12.874424967293846"><ele>214.5</ele><time>2026-03-22T09:28:52Z</time></trkpt><trkpt lat="46.188346439551985" lon="12.874604877324208"><ele>214.25</ele><time>2026-03-22T09:28:53Z</time></trkpt><trkpt lat="46.18826584405927" lon="12.874779902107955"><ele>214.0</ele><time>2026-03-22T09:28:54Z</time></trkpt><trkpt lat="46.18818410800043" lon="12.874955299467606"><ele>214.0</ele><time>2026-03-22T09:28:55Z</time></trkpt><trkpt lat="46.18811162282668" lon="12.875119171564492"><ele>214.0</ele><time>2026-03-22T09:28:56Z</time></trkpt><trkpt lat="46.18804894004642" lon="12.875260882774608"><ele>214.0</ele><time>2026-03-22T09:28:57Z</time></trkpt><trkpt lat="46.18798751216537" lon="12.875399487852823"><ele>214.0</ele><time>2026-03-22T09:28:58Z</time></trkpt><trkpt lat="46.18791712967563" lon="12.875555594724068"><ele>214.0</ele><time>2026-03-22T09:28:59Z</time></trkpt><trkpt lat="46.18783593035075" lon="12.875738823722541"><ele>214.0</ele><time>2026-03-22T09:29:00Z</time></trkpt><trkpt lat="46.18774819842671" lon="12.875951039881526"><ele>214.0</ele><time>2026-03-22T09:29:01Z</time></trkpt><trkpt lat="46.18765445820287" lon="12.876181851947088"><ele>213.66666666666666</ele><time>2026-03-22T09:29:02Z</time></trkpt><trkpt lat="46.18755737592418" lon="12.87641384814673"><ele>213.33333333333331</ele><time>2026-03-22T09:29:03Z</time></trkpt><trkpt lat="46.18747372171243" lon="12.87661839294853"><ele>213.0</ele><time>2026-03-22T09:29:04Z</time></trkpt><trkpt lat="46.18739881503219" lon="12.876799989520315"><ele>212.66666666666669</ele><time>2026-03-22T09:29:05Z</time></trkpt><trkpt lat="46.1873166163483" lon="12.876991063430866"><ele>212.33333333333334</ele><time>2026-03-22T09:29:06Z</time></trkpt><trkpt lat="46.187231225781595" lon="12.87719174139679"><ele>212.0</ele><time>2026-03-22T09:29:07Z</time></trkpt><trkpt lat="46.18715342955834" lon="12.877375901726491"><ele>212.0</ele><time>2026-03-22T09:29:08Z</time></trkpt><trkpt lat="46.18707992893802" lon="12.877549046337485"><ele>212.0</ele><time>2026-03-22T09:29:09Z</time></trkpt><trkpt lat="46.187004838767216" lon="12.87772353677783"><ele>212.0</ele><time>2026-03-22T09:29:10Z</time></trkpt><trkpt lat="46.186927961973176" lon="12.877898775453293"><ele>212.0</ele><time>2026-03-22T09:29:11Z</time></trkpt><trkpt lat="46.186845672479464" lon="12.878064867036201"><ele>211.25</ele><time>2026-03-22T09:29:12Z</time></trkpt><trkpt lat="46.186757179777594" lon="12.878250272586374"><ele>210.5</ele><time>2026-03-22T09:29:13Z</time></trkpt><trkpt lat="46.186699285361954" lon="12.87843963182992"><ele>209.75</ele><time>2026-03-22T09:29:14Z</time></trkpt><trkpt lat="46.186664686160995" lon="12.878610609730906"><ele>209.0</ele><time>2026-03-22T09:29:15Z</time></trkpt><trkpt lat="46.18663849930452" lon="12.878743719162598"><ele>209.00000000000003</ele><time>2026-03-22T09:29:16Z</time></trkpt><trkpt lat="46.18660448940489" lon="12.878830794971279"><ele>209.0</ele><time>2026-03-22T09:29:17Z</time></trkpt><trkpt lat="46.18655750168816" lon="12.87889956037494"><ele>209.0</ele><time>2026-03-22T09:29:18Z</time></trkpt><trkpt lat="46.1864884135871" lon="12.878900581729356"><ele>209.0</ele><time>2026-03-22T09:29:19Z</time></trkpt><trkpt lat="46.18640328442809" lon="12.878864537791351"><ele>209.00000000000003</ele><time>2026-03-22T09:29:20Z</time></trkpt><trkpt lat="46.18631727713279" lon="12.878868384034432"><ele>209.0</ele><time>2026-03-22T09:29:21Z</time></trkpt><trkpt lat="46.18620614507235" lon="12.87904880086728"><ele>209.0</ele><time>2026-03-22T09:29:23Z</time></trkpt><trkpt lat="46.18615741995021" lon="12.879159013587806"><ele>209.0</ele><time>2026-03-22T09:29:24Z</time></trkpt><trkpt lat="46.186099621443844" lon="12.879303042640707"><ele>209.0</ele><time>2026-03-22T09:29:25Z</time></trkpt><trkpt lat="46.18605165091784" lon="12.87938231469075"><ele>209.0</ele><time>2026-03-22T09:29:26Z</time></trkpt><trkpt lat="46.18614906677703" lon="12.879389083239436"><ele>209.0</ele><time>2026-03-22T09:29:30Z</time></trkpt><trkpt lat="46.18622557263971" lon="12.879425965333846"><ele>209.0</ele><time>2026-03-22T09:29:32Z</time></trkpt><trkpt lat="46.18619247669414" lon="12.879644661057496"><ele>209.0</ele><time>2026-03-22T09:29:34Z</time></trkpt><trkpt lat="46.18619925100589" lon="12.879772959975488"><ele>209.0</ele><time>2026-03-22T09:29:35Z</time></trkpt><trkpt lat="46.18620728871029" lon="12.879925186455333"><ele>209.0</ele><time>2026-03-22T09:29:36Z</time></trkpt><trkpt lat="46.18625644409123" lon="12.880063826376626"><ele>208.83333333333334</ele><time>2026-03-22T09:29:37Z</time></trkpt><trkpt lat="46.186257637069005" lon="12.880187848805662"><ele>208.66666666666669</ele><time>2026-03-22T09:29:38Z</time></trkpt><trkpt lat="46.186260153625476" lon="12.880327267404803"><ele>208.5</ele><time>2026-03-22T09:29:39Z</time></trkpt><trkpt lat="46.18626113203101" lon="12.880475441624636"><ele>208.33333333333331</ele><time>2026-03-22T09:29:40Z</time></trkpt><trkpt lat="46.186265263439054" lon="12.88060229433178"><ele>208.16666666666666</ele><time>2026-03-22T09:29:41Z</time></trkpt><trkpt lat="46.18627612122628" lon="12.88071038069654"><ele>208.0</ele><time>2026-03-22T09:29:42Z</time></trkpt><trkpt lat="46.186284318843526" lon="12.880818126983977"><ele>207.66666666666666</ele><time>2026-03-22T09:29:43Z</time></trkpt><trkpt lat="46.18629497943828" lon="12.880939317921413"><ele>207.33333333333331</ele><time>2026-03-22T09:29:44Z</time></trkpt><trkpt lat="46.186287634110855" lon="12.881058134784466"><ele>207.0</ele><time>2026-03-22T09:29:45Z</time></trkpt><trkpt lat="46.18631195982824" lon="12.881157124576527"><ele>206.66666666666669</ele><time>2026-03-22T09:29:46Z</time></trkpt><trkpt lat="46.18633238172942" lon="12.881268163142376"><ele>206.33333333333334</ele><time>2026-03-22T09:29:48Z</time></trkpt><trkpt lat="46.18638507674779" lon="12.881339242459594"><ele>206.0</ele><time>2026-03-22T09:29:50Z</time></trkpt><trkpt lat="46.18633046036802" lon="12.881280918001831"><ele>206.0</ele><time>2026-03-22T09:29:59Z</time></trkpt><trkpt lat="46.18631125445453" lon="12.881146829182752"><ele>206.0</ele><time>2026-03-22T09:30:00Z</time></trkpt><trkpt lat="46.18629694900396" lon="12.881036016215697"><ele>206.0</ele><time>2026-03-22T09:30:01Z</time></trkpt><trkpt lat="46.18629005048352" lon="12.880860552019364"><ele>206.0</ele><time>2026-03-22T09:30:02Z</time></trkpt><trkpt lat="46.18627639510533" lon="12.88065190300881"><ele>206.0</ele><time>2026-03-22T09:30:03Z</time></trkpt><trkpt lat="46.18626404051057" lon="12.8804715175395"><ele>206.4</ele><time>2026-03-22T09:30:04Z</time></trkpt><trkpt lat="46.186254792177884" lon="12.880322202258629"><ele>206.8</ele><time>2026-03-22T09:30:05Z</time></trkpt><trkpt lat="46.18625150373388" lon="12.88018323096983"><ele>207.20000000000002</ele><time>2026-03-22T09:30:06Z</time></trkpt><trkpt lat="46.18625009172834" lon="12.880039868097718"><ele>207.60000000000002</ele><time>2026-03-22T09:30:07Z</time></trkpt><trkpt lat="46.18624630139943" lon="12.879890238847965"><ele>208.0</ele><time>2026-03-22T09:30:08Z</time></trkpt><trkpt lat="46.186239750449445" lon="12.879754496073108"><ele>208.2</ele><time>2026-03-22T09:30:09Z</time></trkpt><trkpt lat="46.18622909261678" lon="12.879630310764476"><ele>208.4</ele><time>2026-03-22T09:30:10Z</time></trkpt><trkpt lat="46.186210610900616" lon="12.879526548655706"><ele>208.6</ele><time>2026-03-22T09:30:11Z</time></trkpt><trkpt lat="46.1861894226285" lon="12.879396830847705"><ele>208.79999999999998</ele><time>2026-03-22T09:30:13Z</time></trkpt><trkpt lat="46.186093471615706" lon="12.879311742305163"><ele>209.0</ele><time>2026-03-22T09:30:15Z</time></trkpt><trkpt lat="46.18598076104415" lon="12.879469553333116"><ele>209.0</ele><time>2026-03-22T09:30:16Z</time></trkpt><trkpt lat="46.18589983713844" lon="12.879573866214825"><ele>209.0</ele><time>2026-03-22T09:30:17Z</time></trkpt><trkpt lat="46.18581998091918" lon="12.879675939835773"><ele>209.0</ele><time>2026-03-22T09:30:18Z</time></trkpt><trkpt lat="46.18574107866425" lon="12.879773248764286"><ele>209.0</ele><time>2026-03-22T09:30:19Z</time></trkpt><trkpt lat="46.18565718554729" lon="12.879870938902313"><ele>209.0</ele><time>2026-03-22T09:30:20Z</time></trkpt><trkpt lat="46.18556828416276" lon="12.879967440104611"><ele>209.0</ele><time>2026-03-22T09:30:21Z</time></trkpt><trkpt lat="46.18547529714038" lon="12.880065150891541"><ele>209.0</ele><time>2026-03-22T09:30:22Z</time></trkpt><trkpt lat="46.18538544649906" lon="12.880153160653652"><ele>209.0</ele><time>2026-03-22T09:30:23Z</time></trkpt><trkpt lat="46.185294324279205" lon="12.880235733304001"><ele>209.0</ele><time>2026-03-22T09:30:24Z</time></trkpt><trkpt lat="46.185211457318935" lon="12.880305857138588"><ele>209.0</ele><time>2026-03-22T09:30:25Z</time></trkpt><trkpt lat="46.18513514694617" lon="12.880357279011156"><ele>209.0</ele><time>2026-03-22T09:30:26Z</time></trkpt><trkpt lat="46.18505616640241" lon="12.880396613552714"><ele>209.0</ele><time>2026-03-22T09:30:27Z</time></trkpt><trkpt lat="46.18498519471685" lon="12.88044325208576"><ele>209.0</ele><time>2026-03-22T09:30:28Z</time></trkpt><trkpt lat="46.18492036841874" lon="12.880487435372896"><ele>209.0</ele><time>2026-03-22T09:30:29Z</time></trkpt><trkpt lat="46.18483860973459" lon="12.88053546958865"><ele>209.0</ele><time>2026-03-22T09:30:31Z</time></trkpt><trkpt lat="46.18479812287267" lon="12.880852513659406"><ele>208.25</ele><time>2026-03-22T09:30:36Z</time></trkpt><trkpt lat="46.184809193678724" lon="12.881067515323403"><ele>207.5</ele><time>2026-03-22T09:30:37Z</time></trkpt><trkpt lat="46.184817853676094" lon="12.881268690415116"><ele>206.75</ele><time>2026-03-22T09:30:38Z</time></trkpt><trkpt lat="46.184823137508985" lon="12.881436769170834"><ele>206.0</ele><time>2026-03-22T09:30:39Z</time></trkpt><trkpt lat="46.18482704039531" lon="12.88159462590722"><ele>206.0</ele><time>2026-03-22T09:30:40Z</time></trkpt><trkpt lat="46.184828457102626" lon="12.881736451845827"><ele>206.0</ele><time>2026-03-22T09:30:41Z</time></trkpt><trkpt lat="46.1848280940349" lon="12.881870085359836"><ele>206.0</ele><time>2026-03-22T09:30:42Z</time></trkpt><trkpt lat="46.18482530737826" lon="12.882006233977531"><ele>206.0</ele><time>2026-03-22T09:30:43Z</time></trkpt><trkpt lat="46.18481779687705" lon="12.882140920751725"><ele>206.0</ele><time>2026-03-22T09:30:44Z</time></trkpt><trkpt lat="46.18480573092407" lon="12.882281959624352"><ele>205.0</ele><time>2026-03-22T09:30:45Z</time></trkpt><trkpt lat="46.18479296102371" lon="12.882441443013846"><ele>204.0</ele><time>2026-03-22T09:30:46Z</time></trkpt><trkpt lat="46.18478426449253" lon="12.882599338084455"><ele>203.0</ele><time>2026-03-22T09:30:47Z</time></trkpt><trkpt lat="46.1847784744437" lon="12.882742922986871"><ele>202.0</ele><time>2026-03-22T09:30:48Z</time></trkpt><trkpt lat="46.1847733740476" lon="12.882869405454153"><ele>201.0</ele><time>2026-03-22T09:30:49Z</time></trkpt><trkpt lat="46.18478523488436" lon="12.882986151689181"><ele>200.4</ele><time>2026-03-22T09:30:50Z</time></trkpt><trkpt lat="46.18476754497368" lon="12.883119624396727"><ele>199.8</ele><time>2026-03-22T09:30:52Z</time></trkpt><trkpt lat="46.18465649758294" lon="12.883180032951639"><ele>199.20000000000002</ele><time>2026-03-22T09:30:56Z</time></trkpt><trkpt lat="46.184592618946816" lon="12.88322516458549"><ele>198.60000000000002</ele><time>2026-03-22T09:30:57Z</time></trkpt><trkpt lat="46.18451421550233" lon="12.883250642079425"><ele>198.0</ele><time>2026-03-22T09:30:58Z</time></trkpt><trkpt lat="46.18441305946369" lon="12.883272359931262"><ele>198.0</ele><time>2026-03-22T09:30:59Z</time></trkpt><trkpt lat="46.184304918458494" lon="12.88328683657146"><ele>198.0</ele><time>2026-03-22T09:31:00Z</time></trkpt><trkpt lat="46.18419459971257" lon="12.883305157941606"><ele>198.0</ele><time>2026-03-22T09:31:01Z</time></trkpt><trkpt lat="46.18410705233739" lon="12.883319697521454"><ele>198.0</ele><time>2026-03-22T09:31:02Z</time></trkpt><trkpt lat="46.18403053482009" lon="12.883332405285975"><ele>198.0</ele><time>2026-03-22T09:31:03Z</time></trkpt><trkpt lat="46.18395431097979" lon="12.883346739545955"><ele>198.4</ele><time>2026-03-22T09:31:04Z</time></trkpt><trkpt lat="46.18386638372106" lon="12.883378955881696"><ele>198.8</ele><time>2026-03-22T09:31:05Z</time></trkpt><trkpt lat="46.183765939335515" lon="12.883430598903614"><ele>199.2</ele><time>2026-03-22T09:31:06Z</time></trkpt><trkpt lat="46.18366639375592" lon="12.883488322997438"><ele>199.6</ele><time>2026-03-22T09:31:07Z</time></trkpt><trkpt lat="46.183567269172606" lon="12.883548650169477"><ele>200.0</ele><time>2026-03-22T09:31:08Z</time></trkpt><trkpt lat="46.183470473444416" lon="12.883599691337622"><ele>200.0</ele><time>2026-03-22T09:31:09Z</time></trkpt><trkpt lat="46.18337582497286" lon="12.883650400600148"><ele>200.0</ele><time>2026-03-22T09:31:10Z</time></trkpt><trkpt lat="46.1832769133791" lon="12.883705121513316"><ele>200.0</ele><time>2026-03-22T09:31:11Z</time></trkpt><trkpt lat="46.18319423169123" lon="12.88375395553949"><ele>200.0</ele><time>2026-03-22T09:31:12Z</time></trkpt><trkpt lat="46.18312049219127" lon="12.883800353762926"><ele>200.0</ele><time>2026-03-22T09:31:13Z</time></trkpt><trkpt lat="46.183042452631675" lon="12.883838102494707"><ele>200.0</ele><time>2026-03-22T09:31:14Z</time></trkpt><trkpt lat="46.18294189597365" lon="12.883859904962716"><ele>200.0</ele><time>2026-03-22T09:31:15Z</time></trkpt><trkpt lat="46.18280964823981" lon="12.883872868315203"><ele>200.0</ele><time>2026-03-22T09:31:16Z</time></trkpt><trkpt lat="46.182645899655476" lon="12.883888063821285"><ele>200.0</ele><time>2026-03-22T09:31:17Z</time></trkpt><trkpt lat="46.18250438330957" lon="12.883907712333684"><ele>200.0</ele><time>2026-03-22T09:31:18Z</time></trkpt><trkpt lat="46.18235671145743" lon="12.883947953532621"><ele>200.0</ele><time>2026-03-22T09:31:19Z</time></trkpt><trkpt lat="46.182226291832194" lon="12.883996625552285"><ele>200.0</ele><time>2026-03-22T09:31:20Z</time></trkpt><trkpt lat="46.18211451773677" lon="12.88403840427211"><ele>200.0</ele><time>2026-03-22T09:31:21Z</time></trkpt><trkpt lat="46.18202247102735" lon="12.88406694514462"><ele>199.83333333333334</ele><time>2026-03-22T09:31:22Z</time></trkpt><trkpt lat="46.18193801619872" lon="12.884078535224226"><ele>199.66666666666669</ele><time>2026-03-22T09:31:23Z</time></trkpt><trkpt lat="46.18186142266562" lon="12.884056018648897"><ele>199.5</ele><time>2026-03-22T09:31:24Z</time></trkpt><trkpt lat="46.1817597359662" lon="12.884022143121907"><ele>199.33333333333331</ele><time>2026-03-22T09:31:25Z</time></trkpt><trkpt lat="46.18167337488318" lon="12.883996973789397"><ele>199.16666666666666</ele><time>2026-03-22T09:31:26Z</time></trkpt><trkpt lat="46.181603216819525" lon="12.883973850316721"><ele>199.0</ele><time>2026-03-22T09:31:27Z</time></trkpt><trkpt lat="46.18153338556725" lon="12.88395758160515"><ele>198.83333333333331</ele><time>2026-03-22T09:31:28Z</time></trkpt><trkpt lat="46.18148841055485" lon="12.883886847915084"><ele>198.66666666666666</ele><time>2026-03-22T09:31:29Z</time></trkpt><trkpt lat="46.18145755307899" lon="12.883786297839235"><ele>198.5</ele><time>2026-03-22T09:31:30Z</time></trkpt><trkpt lat="46.18143218833893" lon="12.883702032136515"><ele>198.33333333333331</ele><time>2026-03-22T09:31:31Z</time></trkpt><trkpt lat="46.18139637339295" lon="12.883625127868774"><ele>198.16666666666666</ele><time>2026-03-22T09:31:32Z</time></trkpt><trkpt lat="46.181321049492546" lon="12.883603238651787"><ele>198.0</ele><time>2026-03-22T09:31:33Z</time></trkpt><trkpt lat="46.18120799791382" lon="12.883692709154127"><ele>198.0</ele><time>2026-03-22T09:31:34Z</time></trkpt><trkpt lat="46.18109856014112" lon="12.883804064367864"><ele>198.0</ele><time>2026-03-22T09:31:35Z</time></trkpt><trkpt lat="46.180985889654785" lon="12.88390399448961"><ele>198.0</ele><time>2026-03-22T09:31:36Z</time></trkpt><trkpt lat="46.18089241376445" lon="12.883968995689505"><ele>198.0</ele><time>2026-03-22T09:31:37Z</time></trkpt><trkpt lat="46.180804028191694" lon="12.884012559995677"><ele>198.0</ele><time>2026-03-22T09:31:38Z</time></trkpt><trkpt lat="46.180705117787305" lon="12.884032976385202"><ele>198.0</ele><time>2026-03-22T09:31:39Z</time></trkpt><trkpt lat="46.180579117685326" lon="12.884032807348106"><ele>198.0</ele><time>2026-03-22T09:31:40Z</time></trkpt><trkpt lat="46.18046453935722" lon="12.88404007237111"><ele>198.0</ele><time>2026-03-22T09:31:41Z</time></trkpt><trkpt lat="46.1803438833041" lon="12.884084422911535"><ele>198.2</ele><time>2026-03-22T09:31:42Z</time></trkpt><trkpt lat="46.18022622265161" lon="12.88420183009694"><ele>198.4</ele><time>2026-03-22T09:31:43Z</time></trkpt><trkpt lat="46.180119106108606" lon="12.884276614254956"><ele>198.6</ele><time>2026-03-22T09:31:44Z</time></trkpt><trkpt lat="46.18003641546435" lon="12.88431415538947"><ele>198.79999999999998</ele><time>2026-03-22T09:31:45Z</time></trkpt><trkpt lat="46.17997193016737" lon="12.884340428986365"><ele>199.0</ele><time>2026-03-22T09:31:46Z</time></trkpt><trkpt lat="46.17987904181852" lon="12.884467613376499"><ele>195.0</ele><time>2026-03-22T09:31:48Z</time></trkpt><trkpt lat="46.179890152740526" lon="12.884565282263035"><ele>195.0</ele><time>2026-03-22T09:31:49Z</time></trkpt><trkpt lat="46.17994996813752" lon="12.884605232827978"><ele>195.0</ele><time>2026-03-22T09:31:50Z</time></trkpt><trkpt lat="46.18009748243407" lon="12.884460247664597"><ele>195.0</ele><time>2026-03-22T09:35:50Z</time></trkpt></trkseg><trkseg><trkpt lat="46.187487019392194" lon="12.888247060119205"><ele>224.0</ele><time>2026-03-22T09:41:23Z</time></trkpt><trkpt lat="46.18737769361013" lon="12.888257556971245"><ele>223.99999999999997</ele><time>2026-03-22T09:41:24Z</time></trkpt><trkpt lat="46.18727375089955" lon="12.888269039285365"><ele>223.99999999999997</ele><time>2026-03-22T09:41:25Z</time></trkpt><trkpt lat="46.187160666157766" lon="12.888273490188755"><ele>224.0</ele><time>2026-03-22T09:41:26Z</time></trkpt><trkpt lat="46.1870434973156" lon="12.888298079040524"><ele>224.0</ele><time>2026-03-22T09:41:27Z</time></trkpt><trkpt lat="46.1869314692527" lon="12.888287982143295"><ele>223.2</ele><time>2026-03-22T09:41:28Z</time></trkpt><trkpt lat="46.186821754908365" lon="12.88828278367926"><ele>222.39999999999998</ele><time>2026-03-22T09:41:29Z</time></trkpt><trkpt lat="46.18672460130542" lon="12.888251451088236"><ele>221.6</ele><time>2026-03-22T09:41:30Z</time></trkpt><trkpt lat="46.186644173009576" lon="12.888214278763762"><ele>220.8</ele><time>2026-03-22T09:41:31Z</time></trkpt><trkpt lat="46.18655390769606" lon="12.888165175463213"><ele>220.0</ele><time>2026-03-22T09:41:32Z</time></trkpt><trkpt lat="46.18647454554399" lon="12.888114965491907"><ele>219.33333333333331</ele><time>2026-03-22T09:41:33Z</time></trkpt><trkpt lat="46.18641837107122" lon="12.888069044022558"><ele>218.66666666666666</ele><time>2026-03-22T09:41:34Z</time></trkpt><trkpt lat="46.18635751915795" lon="12.88801006659163"><ele>218.0</ele><time>2026-03-22T09:41:35Z</time></trkpt><trkpt lat="46.18629864000299" lon="12.887947108279722"><ele>217.33333333333331</ele><time>2026-03-22T09:41:36Z</time></trkpt><trkpt lat="46.186220791593996" lon="12.887827975109722"><ele>216.66666666666666</ele><time>2026-03-22T09:41:37Z</time></trkpt><trkpt lat="46.18616450797956" lon="12.887696739697098"><ele>216.0</ele><time>2026-03-22T09:41:38Z</time></trkpt><trkpt lat="46.18612790436253" lon="12.88755555858977"><ele>216.0</ele><time>2026-03-22T09:41:39Z</time></trkpt><trkpt lat="46.186076869774034" lon="12.887441411525275"><ele>216.00000000000003</ele><time>2026-03-22T09:41:40Z</time></trkpt><trkpt lat="46.186041364498216" lon="12.887332406821091"><ele>216.00000000000003</ele><time>2026-03-22T09:41:41Z</time></trkpt><trkpt lat="46.18597480106656" lon="12.887261010136429"><ele>216.0</ele><time>2026-03-22T09:41:42Z</time></trkpt><trkpt lat="46.18587531004523" lon="12.887230843127462"><ele>216.0</ele><time>2026-03-22T09:41:43Z</time></trkpt><trkpt lat="46.18573392200655" lon="12.887218953936497"><ele>211.66666666666669</ele><time>2026-03-22T09:41:44Z</time></trkpt><trkpt lat="46.185559647578785" lon="12.887228867911737"><ele>207.33333333333334</ele><time>2026-03-22T09:41:45Z</time></trkpt><trkpt lat="46.185397488146116" lon="12.887221994382687"><ele>203.0</ele><time>2026-03-22T09:41:46Z</time></trkpt><trkpt lat="46.18525214183846" lon="12.88721215750111"><ele>203.0</ele><time>2026-03-22T09:41:47Z</time></trkpt><trkpt lat="46.18513714512594" lon="12.887202577926749"><ele>203.0</ele><time>2026-03-22T09:41:48Z</time></trkpt><trkpt lat="46.185029994554704" lon="12.887190360608349"><ele>203.0</ele><time>2026-03-22T09:41:49Z</time></trkpt><trkpt lat="46.18493091791122" lon="12.88720796099365"><ele>203.0</ele><time>2026-03-22T09:41:50Z</time></trkpt><trkpt lat="46.18482873292238" lon="12.887262804220919"><ele>203.0</ele><time>2026-03-22T09:41:51Z</time></trkpt><trkpt lat="46.18472355260335" lon="12.887373501866353"><ele>202.60000000000002</ele><time>2026-03-22T09:41:52Z</time></trkpt><trkpt lat="46.18462730976136" lon="12.887490568079773"><ele>202.20000000000002</ele><time>2026-03-22T09:41:53Z</time></trkpt><trkpt lat="46.18454328269795" lon="12.887597940108748"><ele>201.8</ele><time>2026-03-22T09:41:54Z</time></trkpt><trkpt lat="46.184488916792006" lon="12.887660196289238"><ele>201.4</ele><time>2026-03-22T09:41:55Z</time></trkpt><trkpt lat="46.18443275517695" lon="12.887707438655772"><ele>201.0</ele><time>2026-03-22T09:41:57Z</time></trkpt><trkpt lat="46.18434487376875" lon="12.88767520660458"><ele>200.83333333333334</ele><time>2026-03-22T09:41:58Z</time></trkpt><trkpt lat="46.18426382333275" lon="12.887590321696736"><ele>200.66666666666669</ele><time>2026-03-22T09:41:59Z</time></trkpt><trkpt lat="46.18418609165186" lon="12.887541026052986"><ele>200.5</ele><time>2026-03-22T09:42:00Z</time></trkpt><trkpt lat="46.18408330534945" lon="12.887528453281188"><ele>200.33333333333334</ele><time>2026-03-22T09:42:01Z</time></trkpt><trkpt lat="46.183996943527646" lon="12.887550761957499"><ele>200.16666666666669</ele><time>2026-03-22T09:42:02Z</time></trkpt><trkpt lat="46.18393417488756" lon="12.887576552146522"><ele>200.0</ele><time>2026-03-22T09:42:03Z</time></trkpt><trkpt lat="46.18382079257738" lon="12.887642233727046"><ele>200.0</ele><time>2026-03-22T09:42:05Z</time></trkpt><trkpt lat="46.18375474759139" lon="12.887685844260181"><ele>200.0</ele><time>2026-03-22T09:42:06Z</time></trkpt><trkpt lat="46.183662710866734" lon="12.887571402869078"><ele>200.0</ele><time>2026-03-22T09:42:07Z</time></trkpt><trkpt lat="46.18357062232058" lon="12.887540615482811"><ele>200.0</ele><time>2026-03-22T09:42:08.001Z</time></trkpt><trkpt lat="46.1834718456329" lon="12.887488780913142"><ele>200.0</ele><time>2026-03-22T09:42:09.001Z</time></trkpt><trkpt lat="46.18336647684997" lon="12.887428598264547"><ele>199.75</ele><time>2026-03-22T09:42:10.001Z</time></trkpt><trkpt lat="46.18325890217728" lon="12.887365528771939"><ele>199.5</ele><time>2026-03-22T09:42:11.001Z</time></trkpt><trkpt lat="46.183145362579545" lon="12.887300743873743"><ele>199.25</ele><time>2026-03-22T09:42:12.001Z</time></trkpt><trkpt lat="46.183031787700465" lon="12.887239115188441"><ele>199.0</ele><time>2026-03-22T09:42:13.001Z</time></trkpt><trkpt lat="46.182911186375236" lon="12.887172811344028"><ele>198.5</ele><time>2026-03-22T09:42:14.001Z</time></trkpt><trkpt lat="46.18278268181864" lon="12.887097076044821"><ele>198.0</ele><time>2026-03-22T09:42:15.001Z</time></trkpt><trkpt lat="46.18266886869769" lon="12.887018700996848"><ele>197.5</ele><time>2026-03-22T09:42:16.001Z</time></trkpt><trkpt lat="46.18255516439815" lon="12.886957736499097"><ele>197.0</ele><time>2026-03-22T09:42:17.001Z</time></trkpt><trkpt lat="46.182465910833265" lon="12.886888660618709"><ele>197.0</ele><time>2026-03-22T09:42:18.001Z</time></trkpt><trkpt lat="46.182384401698954" lon="12.886806533945112"><ele>197.0</ele><time>2026-03-22T09:42:19.001Z</time></trkpt><trkpt lat="46.182288347285144" lon="12.88675772592185"><ele>197.0</ele><time>2026-03-22T09:42:20.001Z</time></trkpt><trkpt lat="46.18219269581431" lon="12.886726842666425"><ele>197.0</ele><time>2026-03-22T09:42:21.001Z</time></trkpt><trkpt lat="46.18209793147812" lon="12.886702658466534"><ele>197.0</ele><time>2026-03-22T09:42:22.001Z</time></trkpt><trkpt lat="46.18200871993926" lon="12.886667186119872"><ele>195.39999999999998</ele><time>2026-03-22T09:42:23.001Z</time></trkpt><trkpt lat="46.181921561986684" lon="12.886621621941508"><ele>193.79999999999998</ele><time>2026-03-22T09:42:24.001Z</time></trkpt><trkpt lat="46.18185373924333" lon="12.886538641112011"><ele>192.2</ele><time>2026-03-22T09:42:25.001Z</time></trkpt><trkpt lat="46.18180590294061" lon="12.8864318411944"><ele>190.6</ele><time>2026-03-22T09:42:26.001Z</time></trkpt><trkpt lat="46.18177514664422" lon="12.88629747914076"><ele>189.0</ele><time>2026-03-22T09:42:27.001Z</time></trkpt><trkpt lat="46.18175138631755" lon="12.88613315733096"><ele>189.0</ele><time>2026-03-22T09:42:28.001Z</time></trkpt><trkpt lat="46.18172553073471" lon="12.885936699449026"><ele>189.0</ele><time>2026-03-22T09:42:29.001Z</time></trkpt><trkpt lat="46.181700729512116" lon="12.8857416067235"><ele>189.0</ele><time>2026-03-22T09:42:30.001Z</time></trkpt><trkpt lat="46.18167802689121" lon="12.885562925895828"><ele>189.0</ele><time>2026-03-22T09:42:31.001Z</time></trkpt><trkpt lat="46.181651986297" lon="12.885372039970662"><ele>188.75</ele><time>2026-03-22T09:42:32.001Z</time></trkpt><trkpt lat="46.18162887404337" lon="12.885203833872845"><ele>188.5</ele><time>2026-03-22T09:42:33.001Z</time></trkpt><trkpt lat="46.181596079717536" lon="12.885039411245277"><ele>188.25</ele><time>2026-03-22T09:42:34.001Z</time></trkpt><trkpt lat="46.181548583561444" lon="12.884881486397116"><ele>188.0</ele><time>2026-03-22T09:42:35.001Z</time></trkpt><trkpt lat="46.18148941423893" lon="12.88473536460021"><ele>188.4</ele><time>2026-03-22T09:42:36.001Z</time></trkpt><trkpt lat="46.181425359683686" lon="12.884617022687726"><ele>188.8</ele><time>2026-03-22T09:42:37.001Z</time></trkpt><trkpt lat="46.18135767786361" lon="12.88453089276769"><ele>189.2</ele><time>2026-03-22T09:42:38.001Z</time></trkpt><trkpt lat="46.18128647669256" lon="12.884436661778496"><ele>189.6</ele><time>2026-03-22T09:42:39.001Z</time></trkpt><trkpt lat="46.18116710283521" lon="12.884383957059383"><ele>190.0</ele><time>2026-03-22T09:42:40.001Z</time></trkpt><trkpt lat="46.18103558206062" lon="12.884364596983547"><ele>190.0</ele><time>2026-03-22T09:42:41.001Z</time></trkpt><trkpt lat="46.18090998786485" lon="12.884355350600906"><ele>190.0</ele><time>2026-03-22T09:42:42.001Z</time></trkpt><trkpt lat="46.18077101642918" lon="12.884346254485607"><ele>190.0</ele><time>2026-03-22T09:42:43.001Z</time></trkpt><trkpt lat="46.180592134754036" lon="12.88433347979607"><ele>190.0</ele><time>2026-03-22T09:42:44.001Z</time></trkpt><trkpt lat="46.1804495376251" lon="12.884321747541792"><ele>191.0</ele><time>2026-03-22T09:42:45.001Z</time></trkpt><trkpt lat="46.18033055373737" lon="12.884321153791724"><ele>192.0</ele><time>2026-03-22T09:42:46.001Z</time></trkpt><trkpt lat="46.180207439256755" lon="12.884354715686554"><ele>193.0</ele><time>2026-03-22T09:42:47.001Z</time></trkpt><trkpt lat="46.18010199578031" lon="12.884412116186631"><ele>194.0</ele><time>2026-03-22T09:42:48.001Z</time></trkpt><trkpt lat="46.18002624683848" lon="12.8844497923518"><ele>195.0</ele><time>2026-03-22T09:42:49.001Z</time></trkpt><trkpt lat="46.17995441279009" lon="12.88443182461115"><ele>195.0</ele><time>2026-03-22T09:42:52.001Z</time></trkpt><trkpt lat="46.18002689378128" lon="12.884353537685858"><ele>195.0</ele><time>2026-03-22T09:42:53.001Z</time></trkpt><trkpt lat="46.18007968960672" lon="12.884243889246642"><ele>195.0</ele><time>2026-03-22T09:42:55.001Z</time></trkpt><trkpt lat="46.18004109209073" lon="12.884128841516219"><ele>195.0</ele><time>2026-03-22T09:42:57.001Z</time></trkpt><trkpt lat="46.17987539565049" lon="12.884098691881329"><ele>195.0</ele><time>2026-03-22T09:43:02.001Z</time></trkpt><trkpt lat="46.17975975230078" lon="12.884229895115828"><ele>196.33333333333331</ele><time>2026-03-22T09:43:03.001Z</time></trkpt><trkpt lat="46.17962867825125" lon="12.884376754364819"><ele>197.66666666666666</ele><time>2026-03-22T09:43:04.001Z</time></trkpt><trkpt lat="46.179475015109446" lon="12.884552508319143"><ele>199.0</ele><time>2026-03-22T09:43:05.001Z</time></trkpt><trkpt lat="46.179315008059525" lon="12.884753965856502"><ele>199.0</ele><time>2026-03-22T09:43:06.001Z</time></trkpt><trkpt lat="46.179184755655385" lon="12.884935546151546"><ele>199.0</ele><time>2026-03-22T09:43:07Z</time></trkpt><trkpt lat="46.179067954227065" lon="12.885109917929318"><ele>199.0</ele><time>2026-03-22T09:43:08Z</time></trkpt><trkpt lat="46.17896683518087" lon="12.885265631918038"><ele>199.0</ele><time>2026-03-22T09:43:09Z</time></trkpt><trkpt lat="46.178882922862186" lon="12.885397366976974"><ele>199.0</ele><time>2026-03-22T09:43:10Z</time></trkpt><trkpt lat="46.178813408378105" lon="12.88551032029516"><ele>199.0</ele><time>2026-03-22T09:43:11Z</time></trkpt><trkpt lat="46.178751185613194" lon="12.88561348301355"><ele>199.0</ele><time>2026-03-22T09:43:12Z</time></trkpt><trkpt lat="46.178694929220406" lon="12.885707848534105"><ele>199.0</ele><time>2026-03-22T09:43:13Z</time></trkpt><trkpt lat="46.17864973400914" lon="12.885779849349307"><ele>199.0</ele><time>2026-03-22T09:43:14Z</time></trkpt><trkpt lat="46.178572492840914" lon="12.885863321633362"><ele>199.0</ele><time>2026-03-22T09:43:16Z</time></trkpt><trkpt lat="46.17846262655719" lon="12.885893014606202"><ele>199.0</ele><time>2026-03-22T09:43:18Z</time></trkpt><trkpt lat="46.17836400960529" lon="12.885920250466654"><ele>199.0</ele><time>2026-03-22T09:43:20Z</time></trkpt><trkpt lat="46.178471221896636" lon="12.885899218128573"><ele>199.0</ele><time>2026-03-22T09:43:27Z</time></trkpt><trkpt lat="46.17856901495359" lon="12.88595575728248"><ele>199.0</ele><time>2026-03-22T09:43:29Z</time></trkpt><trkpt lat="46.178591615058615" lon="12.886091340137627"><ele>199.0</ele><time>2026-03-22T09:43:32Z</time></trkpt><trkpt lat="46.17851369371924" lon="12.88624552406451"><ele>199.0</ele><time>2026-03-22T09:43:34Z</time></trkpt><trkpt lat="46.178466405098604" lon="12.886335096748148"><ele>199.0</ele><time>2026-03-22T09:43:35Z</time></trkpt><trkpt lat="46.17841969190566" lon="12.886425199168611"><ele>199.0</ele><time>2026-03-22T09:43:36Z</time></trkpt><trkpt lat="46.17836791639665" lon="12.886530912005446"><ele>199.0</ele><time>2026-03-22T09:43:37Z</time></trkpt><trkpt lat="46.17831641890406" lon="12.886641595015734"><ele>199.0</ele><time>2026-03-22T09:43:38Z</time></trkpt><trkpt lat="46.17826621125197" lon="12.88675030960338"><ele>199.0</ele><time>2026-03-22T09:43:39Z</time></trkpt><trkpt lat="46.17821151930295" lon="12.886882812666324"><ele>199.0</ele><time>2026-03-22T09:43:40Z</time></trkpt><trkpt lat="46.17815881295853" lon="12.887029748025869"><ele>199.0</ele><time>2026-03-22T09:43:41Z</time></trkpt><trkpt lat="46.17810922386364" lon="12.88717006092622"><ele>198.6</ele><time>2026-03-22T09:43:42Z</time></trkpt><trkpt lat="46.1780601979011" lon="12.887306757868902"><ele>198.2</ele><time>2026-03-22T09:43:43Z</time></trkpt><trkpt lat="46.17801848229686" lon="12.887443359452547"><ele>197.79999999999998</ele><time>2026-03-22T09:43:44Z</time></trkpt><trkpt lat="46.177986539195935" lon="12.887563373611147"><ele>197.39999999999998</ele><time>2026-03-22T09:43:45Z</time></trkpt><trkpt lat="46.177942754963" lon="12.887713548326051"><ele>197.0</ele><time>2026-03-22T09:43:47Z</time></trkpt><trkpt lat="46.1778267026583" lon="12.887817039036259"><ele>197.00000000000003</ele><time>2026-03-22T09:43:49Z</time></trkpt><trkpt lat="46.177733418571485" lon="12.887876556025216"><ele>197.0</ele><time>2026-03-22T09:43:50Z</time></trkpt><trkpt lat="46.17767197884016" lon="12.887922064053116"><ele>197.0</ele><time>2026-03-22T09:43:51Z</time></trkpt><trkpt lat="46.177617155460794" lon="12.888012089495078"><ele>197.0</ele><time>2026-03-22T09:44:26.001Z</time></trkpt><trkpt lat="46.177562620125315" lon="12.888074016771043"><ele>197.00000000000003</ele><time>2026-03-22T09:44:27.001Z</time></trkpt><trkpt lat="46.177507062549736" lon="12.88814700613652"><ele>197.0</ele><time>2026-03-22T09:44:28.001Z</time></trkpt><trkpt lat="46.17745190553591" lon="12.88824420675182"><ele>197.00000000000003</ele><time>2026-03-22T09:44:29.001Z</time></trkpt><trkpt lat="46.17739247540229" lon="12.888357581075379"><ele>197.0</ele><time>2026-03-22T09:44:30.001Z</time></trkpt><trkpt lat="46.1773452924708" lon="12.88844889990561"><ele>197.0</ele><time>2026-03-22T09:44:31.001Z</time></trkpt><trkpt lat="46.17728910601071" lon="12.888551110582169"><ele>197.0</ele><time>2026-03-22T09:44:32.001Z</time></trkpt><trkpt lat="46.177237382900344" lon="12.888655165937328"><ele>197.00000000000003</ele><time>2026-03-22T09:44:33.001Z</time></trkpt><trkpt lat="46.17719244781521" lon="12.88872785249714"><ele>197.0</ele><time>2026-03-22T09:44:34.001Z</time></trkpt><trkpt lat="46.17711349432541" lon="12.888868858468099"><ele>197.0</ele><time>2026-03-22T09:44:36.001Z</time></trkpt><trkpt lat="46.17706064983499" lon="12.888994850991715"><ele>197.0</ele><time>2026-03-22T09:44:37.001Z</time></trkpt><trkpt lat="46.17700620184721" lon="12.889098817568218"><ele>197.0</ele><time>2026-03-22T09:44:38.001Z</time></trkpt><trkpt lat="46.176955109614454" lon="12.889207939155957"><ele>197.0</ele><time>2026-03-22T09:44:39.001Z</time></trkpt><trkpt lat="46.17689158292065" lon="12.889303682129409"><ele>197.0</ele><time>2026-03-22T09:44:40.001Z</time></trkpt><trkpt lat="46.17683526019756" lon="12.889386087056565"><ele>196.33333333333334</ele><time>2026-03-22T09:44:41.001Z</time></trkpt><trkpt lat="46.17678433258893" lon="12.889488772147804"><ele>195.66666666666669</ele><time>2026-03-22T09:44:42.001Z</time></trkpt><trkpt lat="46.176734659176454" lon="12.889587402784908"><ele>195.0</ele><time>2026-03-22T09:44:43.001Z</time></trkpt><trkpt lat="46.17668793816135" lon="12.889678276963577"><ele>194.33333333333331</ele><time>2026-03-22T09:44:44.001Z</time></trkpt><trkpt lat="46.17663373686286" lon="12.88977218212905"><ele>193.66666666666666</ele><time>2026-03-22T09:44:45.001Z</time></trkpt><trkpt lat="46.17657971900704" lon="12.889846393277958"><ele>193.0</ele><time>2026-03-22T09:44:46.001Z</time></trkpt><trkpt lat="46.17650934283053" lon="12.889960700148393"><ele>192.66666666666666</ele><time>2026-03-22T09:44:48.001Z</time></trkpt><trkpt lat="46.17643714535654" lon="12.890024656292047"><ele>192.33333333333331</ele><time>2026-03-22T09:44:50.001Z</time></trkpt><trkpt lat="46.17637139234179" lon="12.890058656473885"><ele>192.0</ele><time>2026-03-22T09:44:51.001Z</time></trkpt><trkpt lat="46.176304370427495" lon="12.89009581926981"><ele>191.66666666666666</ele><time>2026-03-22T09:44:52.001Z</time></trkpt><trkpt lat="46.176246219064375" lon="12.890136703010606"><ele>191.33333333333331</ele><time>2026-03-22T09:44:53.001Z</time></trkpt><trkpt lat="46.17616569421434" lon="12.890194228715666"><ele>191.0</ele><time>2026-03-22T09:44:55.001Z</time></trkpt><trkpt lat="46.1760835627728" lon="12.89025533556273"><ele>190.0</ele><time>2026-03-22T09:44:57.001Z</time></trkpt><trkpt lat="46.17602217976192" lon="12.890219768881112"><ele>189.0</ele><time>2026-03-22T09:45:08.001Z</time></trkpt><trkpt lat="46.175947336595065" lon="12.890207846355295"><ele>188.0</ele><time>2026-03-22T09:45:13Z</time></trkpt><trkpt lat="46.17588431718618" lon="12.890247064332113"><ele>187.0</ele><time>2026-03-22T09:45:22Z</time></trkpt><trkpt lat="46.17582272196899" lon="12.890279738044496"><ele>186.0</ele><time>2026-03-22T09:45:25Z</time></trkpt><trkpt lat="46.1757488529268" lon="12.890320774848938"><ele>185.0</ele><time>2026-03-22T09:45:28Z</time></trkpt><trkpt lat="46.175679512612334" lon="12.890339311317458"><ele>184.0</ele><time>2026-03-22T09:45:32Z</time></trkpt><trkpt lat="46.17560638267901" lon="12.890322607723412"><ele>183.66666666666669</ele><time>2026-03-22T09:45:35Z</time></trkpt><trkpt lat="46.17554424491178" lon="12.890284288027196"><ele>183.33333333333334</ele><time>2026-03-22T09:45:38Z</time></trkpt><trkpt lat="46.17545442554032" lon="12.890292902669149"><ele>183.0</ele><time>2026-03-22T09:45:41Z</time></trkpt><trkpt lat="46.1753891059399" lon="12.890337796165099"><ele>182.66666666666666</ele><time>2026-03-22T09:45:45Z</time></trkpt><trkpt lat="46.17532855337619" lon="12.890402666364638"><ele>182.33333333333331</ele><time>2026-03-22T09:45:49Z</time></trkpt><trkpt lat="46.17526470693825" lon="12.890389361034236"><ele>182.0</ele><time>2026-03-22T09:45:51Z</time></trkpt><trkpt lat="46.1751537924901" lon="12.89024655439598"><ele>182.0</ele><time>2026-03-22T09:45:53Z</time></trkpt><trkpt lat="46.17505806050464" lon="12.890127355200244"><ele>182.0</ele><time>2026-03-22T09:45:54Z</time></trkpt><trkpt lat="46.17497414969126" lon="12.890026026298022"><ele>182.0</ele><time>2026-03-22T09:45:55Z</time></trkpt><trkpt lat="46.17490263368817" lon="12.889947357606742"><ele>182.0</ele><time>2026-03-22T09:45:56Z</time></trkpt><trkpt lat="46.1748213954532" lon="12.889843484460398"><ele>182.0</ele><time>2026-03-22T09:45:57Z</time></trkpt><trkpt lat="46.17472987068977" lon="12.889733076609007"><ele>181.6</ele><time>2026-03-22T09:45:58Z</time></trkpt><trkpt lat="46.17463563114459" lon="12.889626252850357"><ele>181.2</ele><time>2026-03-22T09:45:59Z</time></trkpt><trkpt lat="46.17455530686274" lon="12.889552234685793"><ele>180.8</ele><time>2026-03-22T09:46:00Z</time></trkpt><trkpt lat="46.17448730068933" lon="12.889446168949396"><ele>180.4</ele><time>2026-03-22T09:46:01Z</time></trkpt><trkpt lat="46.17441656424081" lon="12.889345183906066"><ele>180.0</ele><time>2026-03-22T09:46:02Z</time></trkpt><trkpt lat="46.17433306595804" lon="12.889251862592783"><ele>180.4</ele><time>2026-03-22T09:46:03Z</time></trkpt><trkpt lat="46.17424718858279" lon="12.889177625422592"><ele>180.8</ele><time>2026-03-22T09:46:04Z</time></trkpt><trkpt lat="46.17413960999772" lon="12.889126114212342"><ele>181.2</ele><time>2026-03-22T09:46:05Z</time></trkpt><trkpt lat="46.17404281896823" lon="12.889090961749108"><ele>181.6</ele><time>2026-03-22T09:46:06.001Z</time></trkpt><trkpt lat="46.173967310496494" lon="12.889065878549449"><ele>182.0</ele><time>2026-03-22T09:46:07.001Z</time></trkpt><trkpt lat="46.17388321898236" lon="12.889041562988542"><ele>182.0</ele><time>2026-03-22T09:46:08.001Z</time></trkpt><trkpt lat="46.17381632503609" lon="12.889017564268284"><ele>182.0</ele><time>2026-03-22T09:46:09.001Z</time></trkpt><trkpt lat="46.17370652182162" lon="12.888964423472824"><ele>182.0</ele><time>2026-03-22T09:46:11.001Z</time></trkpt><trkpt lat="46.173676175579594" lon="12.888780681054829"><ele>182.0</ele><time>2026-03-22T09:46:12.001Z</time></trkpt><trkpt lat="46.17361212951062" lon="12.888753945414988"><ele>182.0</ele><time>2026-03-22T09:46:13.001Z</time></trkpt><trkpt lat="46.17354556539852" lon="12.888722026476696"><ele>182.0</ele><time>2026-03-22T09:46:14.001Z</time></trkpt><trkpt lat="46.1734235982719" lon="12.888650152569877"><ele>182.0</ele><time>2026-03-22T09:46:16.001Z</time></trkpt><trkpt lat="46.173360243925444" lon="12.88860371662819"><ele>182.0</ele><time>2026-03-22T09:46:17.001Z</time></trkpt><trkpt lat="46.17330110711831" lon="12.888561183774671"><ele>182.0</ele><time>2026-03-22T09:46:18.001Z</time></trkpt><trkpt lat="46.17323835443064" lon="12.888516050272449"><ele>182.0</ele><time>2026-03-22T09:46:19.001Z</time></trkpt><trkpt lat="46.17299482822374" lon="12.888704971762364"><ele>181.83333333333331</ele><time>2026-03-22T09:46:21.001Z</time></trkpt><trkpt lat="46.172914041579126" lon="12.888655996645182"><ele>181.66666666666666</ele><time>2026-03-22T09:46:22.001Z</time></trkpt><trkpt lat="46.17284641629075" lon="12.888635084309543"><ele>181.5</ele><time>2026-03-22T09:46:23.001Z</time></trkpt><trkpt lat="46.172785080165724" lon="12.888594909536904"><ele>181.33333333333334</ele><time>2026-03-22T09:46:24.001Z</time></trkpt><trkpt lat="46.172724526565204" lon="12.888560904148319"><ele>181.16666666666669</ele><time>2026-03-22T09:46:25.001Z</time></trkpt><trkpt lat="46.17258860600586" lon="12.888521808948326"><ele>181.0</ele><time>2026-03-22T09:46:27.001Z</time></trkpt><trkpt lat="46.172517700036906" lon="12.888504341188108"><ele>181.0</ele><time>2026-03-22T09:46:28.001Z</time></trkpt><trkpt lat="46.17243284465182" lon="12.888498920179911"><ele>181.0</ele><time>2026-03-22T09:46:29.001Z</time></trkpt><trkpt lat="46.17232903295294" lon="12.888510346632783"><ele>181.0</ele><time>2026-03-22T09:46:30.001Z</time></trkpt><trkpt lat="46.17221805196079" lon="12.888535337493138"><ele>181.0</ele><time>2026-03-22T09:46:31.001Z</time></trkpt><trkpt lat="46.17210054367824" lon="12.888526711832377"><ele>181.0</ele><time>2026-03-22T09:46:32.001Z</time></trkpt><trkpt lat="46.171985820572665" lon="12.888500200951484"><ele>181.0</ele><time>2026-03-22T09:46:33.001Z</time></trkpt><trkpt lat="46.171869619450945" lon="12.88846519809569"><ele>181.0</ele><time>2026-03-22T09:46:34.001Z</time></trkpt><trkpt lat="46.17176662722533" lon="12.888449098998837"><ele>181.0</ele><time>2026-03-22T09:46:35.001Z</time></trkpt><trkpt lat="46.17166230897977" lon="12.888444546359173"><ele>181.0</ele><time>2026-03-22T09:46:36.001Z</time></trkpt><trkpt lat="46.17152689101654" lon="12.888452459061067"><ele>180.25</ele><time>2026-03-22T09:46:37.001Z</time></trkpt><trkpt lat="46.17137558281461" lon="12.888468055873313"><ele>179.5</ele><time>2026-03-22T09:46:38.001Z</time></trkpt><trkpt lat="46.17123758164996" lon="12.888486375451436"><ele>178.75</ele><time>2026-03-22T09:46:39.001Z</time></trkpt><trkpt lat="46.171120264098064" lon="12.888498379001053"><ele>178.0</ele><time>2026-03-22T09:46:40.001Z</time></trkpt><trkpt lat="46.17100133203375" lon="12.888519521206026"><ele>178.0</ele><time>2026-03-22T09:46:41.001Z</time></trkpt><trkpt lat="46.17086535774085" lon="12.88854368523233"><ele>178.0</ele><time>2026-03-22T09:46:42.001Z</time></trkpt><trkpt lat="46.170737331869184" lon="12.888564950633757"><ele>178.0</ele><time>2026-03-22T09:46:43.001Z</time></trkpt><trkpt lat="46.1706291704634" lon="12.888568516232292"><ele>178.0</ele><time>2026-03-22T09:46:44.001Z</time></trkpt><trkpt lat="46.170533832552515" lon="12.888546126689231"><ele>177.83333333333334</ele><time>2026-03-22T09:46:45.001Z</time></trkpt><trkpt lat="46.17044631310705" lon="12.888522509400095"><ele>177.66666666666669</ele><time>2026-03-22T09:46:46.001Z</time></trkpt><trkpt lat="46.1703715112642" lon="12.88852534131708"><ele>177.5</ele><time>2026-03-22T09:46:47.001Z</time></trkpt><trkpt lat="46.170301954450416" lon="12.888553791731516"><ele>177.33333333333334</ele><time>2026-03-22T09:46:48.001Z</time></trkpt><trkpt lat="46.17024368592731" lon="12.88860587437753"><ele>177.16666666666666</ele><time>2026-03-22T09:46:49.001Z</time></trkpt><trkpt lat="46.170186190534345" lon="12.888687861218243"><ele>177.0</ele><time>2026-03-22T09:46:50.001Z</time></trkpt><trkpt lat="46.170121487549714" lon="12.888816338860035"><ele>177.0</ele><time>2026-03-22T09:46:51.001Z</time></trkpt><trkpt lat="46.170061752271224" lon="12.888946733008952"><ele>177.0</ele><time>2026-03-22T09:46:52.001Z</time></trkpt><trkpt lat="46.16999720994248" lon="12.889090408509006"><ele>177.0</ele><time>2026-03-22T09:46:53.001Z</time></trkpt><trkpt lat="46.16992672163301" lon="12.889211242353603"><ele>177.0</ele><time>2026-03-22T09:46:54.001Z</time></trkpt><trkpt lat="46.16985703756648" lon="12.889362252474246"><ele>176.75</ele><time>2026-03-22T09:46:55.001Z</time></trkpt><trkpt lat="46.169783839811934" lon="12.889517358207241"><ele>176.5</ele><time>2026-03-22T09:46:56.001Z</time></trkpt><trkpt lat="46.169705459887226" lon="12.889653057602882"><ele>176.25</ele><time>2026-03-22T09:46:57.001Z</time></trkpt><trkpt lat="46.16960586059178" lon="12.889793117614413"><ele>176.0</ele><time>2026-03-22T09:46:58.001Z</time></trkpt><trkpt lat="46.16950790295253" lon="12.889912623059736"><ele>176.0</ele><time>2026-03-22T09:46:59.001Z</time></trkpt><trkpt lat="46.1694189226054" lon="12.890037686797367"><ele>176.0</ele><time>2026-03-22T09:47:00.001Z</time></trkpt><trkpt lat="46.169318690168176" lon="12.890179736434476"><ele>176.0</ele><time>2026-03-22T09:47:01.001Z</time></trkpt><trkpt lat="46.169223676093" lon="12.89030918703187"><ele>176.0</ele><time>2026-03-22T09:47:02.001Z</time></trkpt><trkpt lat="46.16912032098618" lon="12.890435856199968"><ele>175.75</ele><time>2026-03-22T09:47:03.001Z</time></trkpt><trkpt lat="46.169003780400764" lon="12.890548629127231"><ele>175.5</ele><time>2026-03-22T09:47:04.001Z</time></trkpt><trkpt lat="46.1689165255451" lon="12.890651560953659"><ele>175.25</ele><time>2026-03-22T09:47:05.001Z</time></trkpt><trkpt lat="46.16882180033608" lon="12.890754138477137"><ele>175.0</ele><time>2026-03-22T09:47:06.001Z</time></trkpt><trkpt lat="46.16872398400273" lon="12.890862983193445"><ele>174.75</ele><time>2026-03-22T09:47:07.001Z</time></trkpt><trkpt lat="46.168627148890096" lon="12.890964555779155"><ele>174.5</ele><time>2026-03-22T09:47:08.001Z</time></trkpt><trkpt lat="46.168523537903724" lon="12.891075249933778"><ele>174.25</ele><time>2026-03-22T09:47:09.001Z</time></trkpt><trkpt lat="46.16841675749439" lon="12.891178253462769"><ele>174.0</ele><time>2026-03-22T09:47:10.001Z</time></trkpt><trkpt lat="46.16829744133268" lon="12.891269095884837"><ele>174.25</ele><time>2026-03-22T09:47:11.001Z</time></trkpt><trkpt lat="46.16818257681064" lon="12.8913523999147"><ele>174.5</ele><time>2026-03-22T09:47:12.001Z</time></trkpt><trkpt lat="46.16809476136615" lon="12.891455761182828"><ele>174.75</ele><time>2026-03-22T09:47:13.001Z</time></trkpt><trkpt lat="46.168010252979634" lon="12.891576877341043"><ele>175.0</ele><time>2026-03-22T09:47:14.001Z</time></trkpt><trkpt lat="46.167920578178425" lon="12.891675234371569"><ele>175.0</ele><time>2026-03-22T09:47:15.001Z</time></trkpt><trkpt lat="46.1678105239837" lon="12.891746149008897"><ele>175.0</ele><time>2026-03-22T09:47:16.001Z</time></trkpt><trkpt lat="46.167695978454695" lon="12.891819969787688"><ele>175.0</ele><time>2026-03-22T09:47:17.001Z</time></trkpt><trkpt lat="46.16761047364765" lon="12.89191856869389"><ele>175.0</ele><time>2026-03-22T09:47:18.001Z</time></trkpt><trkpt lat="46.16754532101453" lon="12.89201061994951"><ele>175.0</ele><time>2026-03-22T09:47:19Z</time></trkpt><trkpt lat="46.16748050806778" lon="12.89210223784684"><ele>175.0</ele><time>2026-03-22T09:47:20Z</time></trkpt><trkpt lat="46.16742934979373" lon="12.89218395670959"><ele>175.0</ele><time>2026-03-22T09:47:21Z</time></trkpt><trkpt lat="46.16738634147512" lon="12.892309173944318"><ele>175.0</ele><time>2026-03-22T09:47:23Z</time></trkpt><trkpt lat="46.1674011046888" lon="12.892406784321135"><ele>175.0</ele><time>2026-03-22T09:47:25Z</time></trkpt><trkpt lat="46.16736964119112" lon="12.892507329000674"><ele>175.0</ele><time>2026-03-22T09:47:28Z</time></trkpt><trkpt lat="46.16745764137854" lon="12.892302470140729"><ele>175.0</ele><time>2026-03-22T09:47:33Z</time></trkpt><trkpt lat="46.167388471121726" lon="12.892253841241905"><ele>175.0</ele><time>2026-03-22T09:47:34Z</time></trkpt><trkpt lat="46.16732125383191" lon="12.892204391408178"><ele>175.0</ele><time>2026-03-22T09:47:35Z</time></trkpt><trkpt lat="46.16723880246043" lon="12.892118851620912"><ele>175.0</ele><time>2026-03-22T09:47:36Z</time></trkpt><trkpt lat="46.16718569224952" lon="12.89203077553861"><ele>175.0</ele><time>2026-03-22T09:47:37Z</time></trkpt><trkpt lat="46.16714670803665" lon="12.891943391025993"><ele>175.0</ele><time>2026-03-22T09:47:38Z</time></trkpt><trkpt lat="46.16708854941458" lon="12.89179381183029"><ele>175.33333333333334</ele><time>2026-03-22T09:47:40Z</time></trkpt><trkpt lat="46.16704562805333" lon="12.891726041380043"><ele>175.66666666666669</ele><time>2026-03-22T09:47:41Z</time></trkpt><trkpt lat="46.16700143745819" lon="12.891659164159627"><ele>176.0</ele><time>2026-03-22T09:47:42Z</time></trkpt><trkpt lat="46.16695653450812" lon="12.8915947588378"><ele>176.33333333333334</ele><time>2026-03-22T09:47:43Z</time></trkpt><trkpt lat="46.166905578432996" lon="12.891532941257582"><ele>176.66666666666666</ele><time>2026-03-22T09:47:44Z</time></trkpt><trkpt lat="46.16680998849146" lon="12.891444977273553"><ele>177.0</ele><time>2026-03-22T09:47:46Z</time></trkpt><trkpt lat="46.16671944814049" lon="12.891393115400136"><ele>177.0</ele><time>2026-03-22T09:47:48Z</time></trkpt><trkpt lat="46.16664612641049" lon="12.891429712576564"><ele>177.0</ele><time>2026-03-22T09:47:50Z</time></trkpt><trkpt lat="46.16660570882329" lon="12.891501867966753"><ele>177.0</ele><time>2026-03-22T09:47:51Z</time></trkpt><trkpt lat="46.166573379925055" lon="12.891610006727452"><ele>177.0</ele><time>2026-03-22T09:47:52Z</time></trkpt><trkpt lat="46.166538413871315" lon="12.89169047033686"><ele>177.0</ele><time>2026-03-22T09:47:53Z</time></trkpt><trkpt lat="46.16643956244568" lon="12.891810251810623"><ele>177.0</ele><time>2026-03-22T09:47:55Z</time></trkpt><trkpt lat="46.16638182059933" lon="12.891883769604659"><ele>176.6</ele><time>2026-03-22T09:47:56Z</time></trkpt><trkpt lat="46.16632401896435" lon="12.891965095631887"><ele>176.2</ele><time>2026-03-22T09:47:57Z</time></trkpt><trkpt lat="46.1662538335059" lon="12.892040091864367"><ele>175.8</ele><time>2026-03-22T09:47:58Z</time></trkpt><trkpt lat="46.166166141617246" lon="12.892095128767279"><ele>175.4</ele><time>2026-03-22T09:47:59Z</time></trkpt><trkpt lat="46.16608492345606" lon="12.892129126630174"><ele>175.0</ele><time>2026-03-22T09:48:00Z</time></trkpt><trkpt lat="46.165982856717356" lon="12.892171397210031"><ele>175.0</ele><time>2026-03-22T09:48:01Z</time></trkpt><trkpt lat="46.165881381702945" lon="12.892204598943891"><ele>175.0</ele><time>2026-03-22T09:48:02Z</time></trkpt><trkpt lat="46.165762559355905" lon="12.892256167947806"><ele>175.0</ele><time>2026-03-22T09:48:03Z</time></trkpt><trkpt lat="46.16564877531577" lon="12.892308232260559"><ele>175.0</ele><time>2026-03-22T09:48:04Z</time></trkpt><trkpt lat="46.16555111630702" lon="12.892366937012136"><ele>174.83333333333334</ele><time>2026-03-22T09:48:05Z</time></trkpt><trkpt lat="46.16546971709001" lon="12.892421922087214"><ele>174.66666666666669</ele><time>2026-03-22T09:48:06Z</time></trkpt><trkpt lat="46.16539834140806" lon="12.892459060038382"><ele>174.5</ele><time>2026-03-22T09:48:07Z</time></trkpt><trkpt lat="46.16533126138241" lon="12.892491510290663"><ele>174.33333333333334</ele><time>2026-03-22T09:48:08Z</time></trkpt><trkpt lat="46.165268975725155" lon="12.892520081542974"><ele>174.16666666666666</ele><time>2026-03-22T09:48:09Z</time></trkpt><trkpt lat="46.16517155168194" lon="12.892601414215095"><ele>174.0</ele><time>2026-03-22T09:48:11Z</time></trkpt><trkpt lat="46.16512380277961" lon="12.892676721032357"><ele>174.0</ele><time>2026-03-22T09:48:12Z</time></trkpt><trkpt lat="46.165063641224585" lon="12.892742802122088"><ele>174.0</ele><time>2026-03-22T09:48:13Z</time></trkpt><trkpt lat="46.16500888975204" lon="12.892803842408194"><ele>174.0</ele><time>2026-03-22T09:48:14Z</time></trkpt><trkpt lat="46.16494987606229" lon="12.892863711446147"><ele>174.0</ele><time>2026-03-22T09:48:15Z</time></trkpt><trkpt lat="46.16489107495525" lon="12.892930066173115"><ele>174.0</ele><time>2026-03-22T09:48:16Z</time></trkpt><trkpt lat="46.16482967625921" lon="12.892982250066881"><ele>174.0</ele><time>2026-03-22T09:48:17Z</time></trkpt><trkpt lat="46.16475410886969" lon="12.893035324553665"><ele>174.0</ele><time>2026-03-22T09:48:18Z</time></trkpt><trkpt lat="46.16467850629075" lon="12.893097966144804"><ele>174.6</ele><time>2026-03-22T09:48:19Z</time></trkpt><trkpt lat="46.1645988952246" lon="12.893171107085067"><ele>175.2</ele><time>2026-03-22T09:48:20Z</time></trkpt><trkpt lat="46.164520151769175" lon="12.893232587933628"><ele>175.79999999999998</ele><time>2026-03-22T09:48:21Z</time></trkpt><trkpt lat="46.16443280190782" lon="12.893283021167301"><ele>176.39999999999998</ele><time>2026-03-22T09:48:22Z</time></trkpt><trkpt lat="46.16432810186544" lon="12.893333634292231"><ele>177.0</ele><time>2026-03-22T09:48:23.001Z</time></trkpt><trkpt lat="46.16422128387272" lon="12.893378727698742"><ele>176.5</ele><time>2026-03-22T09:48:24.001Z</time></trkpt><trkpt lat="46.16411187461245" lon="12.893431485182127"><ele>176.0</ele><time>2026-03-22T09:48:25.001Z</time></trkpt><trkpt lat="46.16401427586461" lon="12.893490518494382"><ele>175.5</ele><time>2026-03-22T09:48:26.001Z</time></trkpt><trkpt lat="46.16393913341101" lon="12.89351934487643"><ele>175.0</ele><time>2026-03-22T09:48:27.001Z</time></trkpt><trkpt lat="46.16386542349864" lon="12.89354567927809"><ele>174.5</ele><time>2026-03-22T09:48:28.001Z</time></trkpt><trkpt lat="46.16380496978501" lon="12.893571768330213"><ele>174.0</ele><time>2026-03-22T09:48:29.001Z</time></trkpt><trkpt lat="46.163698889294544" lon="12.893615912402478"><ele>174.0</ele><time>2026-03-22T09:48:31.001Z</time></trkpt><trkpt lat="46.16360187069787" lon="12.893698705055836"><ele>174.0</ele><time>2026-03-22T09:48:33.001Z</time></trkpt><trkpt lat="46.1635149217103" lon="12.893680606957679"><ele>174.0</ele><time>2026-03-22T09:48:37.001Z</time></trkpt><trkpt lat="46.1634526705636" lon="12.893594524521644"><ele>174.0</ele><time>2026-03-22T09:48:38.001Z</time></trkpt><trkpt lat="46.16336469474396" lon="12.893466772701293"><ele>174.0</ele><time>2026-03-22T09:48:39.001Z</time></trkpt><trkpt lat="46.163259684643116" lon="12.893340418871736"><ele>173.79999999999998</ele><time>2026-03-22T09:48:40.001Z</time></trkpt><trkpt lat="46.16315673991829" lon="12.893225869105128"><ele>173.6</ele><time>2026-03-22T09:48:41.001Z</time></trkpt><trkpt lat="46.16309050124787" lon="12.893132105056"><ele>173.4</ele><time>2026-03-22T09:48:42.001Z</time></trkpt><trkpt lat="46.1630425337515" lon="12.89304326136619"><ele>173.2</ele><time>2026-03-22T09:48:43.001Z</time></trkpt><trkpt lat="46.16300312247543" lon="12.892939581171186"><ele>173.0</ele><time>2026-03-22T09:48:44.001Z</time></trkpt><trkpt lat="46.16296872124514" lon="12.892830890906374"><ele>173.0</ele><time>2026-03-22T09:48:45.001Z</time></trkpt><trkpt lat="46.1629379303191" lon="12.892725508055705"><ele>173.0</ele><time>2026-03-22T09:48:46.001Z</time></trkpt><trkpt lat="46.16291495852039" lon="12.892637828512504"><ele>173.0</ele><time>2026-03-22T09:48:47.001Z</time></trkpt><trkpt lat="46.16294912103833" lon="12.892780423400831"><ele>173.0</ele><time>2026-03-22T09:48:54.001Z</time></trkpt><trkpt lat="46.16302199819486" lon="12.893101341607354"><ele>173.0</ele><time>2026-03-22T09:48:57.001Z</time></trkpt><trkpt lat="46.16305994641812" lon="12.893210496323226"><ele>173.0</ele><time>2026-03-22T09:48:59.001Z</time></trkpt><trkpt lat="46.16298950658221" lon="12.893267900434251"><ele>173.0</ele><time>2026-03-22T09:49:01.001Z</time></trkpt><trkpt lat="46.16287493866945" lon="12.893347678268686"><ele>173.0</ele><time>2026-03-22T09:49:02.001Z</time></trkpt><trkpt lat="46.16278922394919" lon="12.893368008823897"><ele>173.0</ele><time>2026-03-22T09:49:03.001Z</time></trkpt><trkpt lat="46.162731248524935" lon="12.893408847896659"><ele>173.0</ele><time>2026-03-22T09:49:04.001Z</time></trkpt><trkpt lat="46.162615485012026" lon="12.893458654700995"><ele>172.75</ele><time>2026-03-22T09:49:06.001Z</time></trkpt><trkpt lat="46.162492643238735" lon="12.893572403061523"><ele>172.5</ele><time>2026-03-22T09:49:08.001Z</time></trkpt><trkpt lat="46.16240217123866" lon="12.893689213809347"><ele>172.25</ele><time>2026-03-22T09:49:09.001Z</time></trkpt><trkpt lat="46.16231488355042" lon="12.89375757740282"><ele>172.0</ele><time>2026-03-22T09:49:10.001Z</time></trkpt><trkpt lat="46.16224065739363" lon="12.893833419229585"><ele>171.75</ele><time>2026-03-22T09:49:11.001Z</time></trkpt><trkpt lat="46.162146307943544" lon="12.893917592481488"><ele>171.5</ele><time>2026-03-22T09:49:12.001Z</time></trkpt><trkpt lat="46.16201638588937" lon="12.894021003913537"><ele>171.25</ele><time>2026-03-22T09:49:13.001Z</time></trkpt><trkpt lat="46.16187502642984" lon="12.89415417194994"><ele>171.0</ele><time>2026-03-22T09:49:14.001Z</time></trkpt><trkpt lat="46.161744649584065" lon="12.894257565095316"><ele>170.75</ele><time>2026-03-22T09:49:15.001Z</time></trkpt><trkpt lat="46.16162154498193" lon="12.894348329295772"><ele>170.5</ele><time>2026-03-22T09:49:16.001Z</time></trkpt><trkpt lat="46.1615088870853" lon="12.894441281295284"><ele>170.25</ele><time>2026-03-22T09:49:17.001Z</time></trkpt><trkpt lat="46.16140490106373" lon="12.89453421056295"><ele>170.0</ele><time>2026-03-22T09:49:18.001Z</time></trkpt><trkpt lat="46.16131619417574" lon="12.894606898149938"><ele>170.5</ele><time>2026-03-22T09:49:19.001Z</time></trkpt><trkpt lat="46.1612337002723" lon="12.894687670587913"><ele>171.0</ele><time>2026-03-22T09:49:20.001Z</time></trkpt><trkpt lat="46.16113780199243" lon="12.894769356462454"><ele>171.5</ele><time>2026-03-22T09:49:21.001Z</time></trkpt><trkpt lat="46.161015509913604" lon="12.89480213719771"><ele>172.0</ele><time>2026-03-22T09:49:22.001Z</time></trkpt><trkpt lat="46.16087892670832" lon="12.894847828057912"><ele>172.0</ele><time>2026-03-22T09:49:23.001Z</time></trkpt><trkpt lat="46.16070492435527" lon="12.894896620571615"><ele>172.0</ele><time>2026-03-22T09:49:24.001Z</time></trkpt><trkpt lat="46.16052320763068" lon="12.894930856388804"><ele>172.0</ele><time>2026-03-22T09:49:25Z</time></trkpt><trkpt lat="46.160362492289835" lon="12.894950875811217"><ele>171.75</ele><time>2026-03-22T09:49:26Z</time></trkpt><trkpt lat="46.160212180081025" lon="12.894991310300405"><ele>171.5</ele><time>2026-03-22T09:49:27Z</time></trkpt><trkpt lat="46.16006615970698" lon="12.894978700213837"><ele>171.25</ele><time>2026-03-22T09:49:28Z</time></trkpt><trkpt lat="46.15993303169638" lon="12.894986608507088"><ele>171.0</ele><time>2026-03-22T09:49:29Z</time></trkpt><trkpt lat="46.15980920196015" lon="12.895004634322335"><ele>170.25</ele><time>2026-03-22T09:49:30Z</time></trkpt><trkpt lat="46.15967212566265" lon="12.895046950679603"><ele>169.5</ele><time>2026-03-22T09:49:31Z</time></trkpt><trkpt lat="46.15952434344424" lon="12.895115401898595"><ele>168.75</ele><time>2026-03-22T09:49:32Z</time></trkpt><trkpt lat="46.15938872757864" lon="12.89514974052686"><ele>168.0</ele><time>2026-03-22T09:49:33Z</time></trkpt><trkpt lat="46.1592725767362" lon="12.895213876574525"><ele>167.75</ele><time>2026-03-22T09:49:34Z</time></trkpt><trkpt lat="46.15916301634004" lon="12.895254724116704"><ele>167.5</ele><time>2026-03-22T09:49:35Z</time></trkpt><trkpt lat="46.15903786054246" lon="12.895298326760187"><ele>167.25</ele><time>2026-03-22T09:49:36Z</time></trkpt><trkpt lat="46.15889581008794" lon="12.895357679692848"><ele>167.0</ele><time>2026-03-22T09:49:37Z</time></trkpt><trkpt lat="46.15876587726611" lon="12.895391632378695"><ele>167.0</ele><time>2026-03-22T09:49:38Z</time></trkpt><trkpt lat="46.15865386081856" lon="12.895437574977935"><ele>167.0</ele><time>2026-03-22T09:49:39Z</time></trkpt><trkpt lat="46.158581755650445" lon="12.895513801625718"><ele>167.0</ele><time>2026-03-22T09:49:40Z</time></trkpt><trkpt lat="46.15850645872118" lon="12.895599822313876"><ele>167.0</ele><time>2026-03-22T09:49:41Z</time></trkpt><trkpt lat="46.158426597201846" lon="12.895735466929644"><ele>167.0</ele><time>2026-03-22T09:49:43Z</time></trkpt><trkpt lat="46.15839621102194" lon="12.895855064123243"><ele>166.6</ele><time>2026-03-22T09:49:44Z</time></trkpt><trkpt lat="46.15836093291624" lon="12.896008703494598"><ele>166.2</ele><time>2026-03-22T09:49:45Z</time></trkpt><trkpt lat="46.15833324102641" lon="12.896127667267198"><ele>165.8</ele><time>2026-03-22T09:49:46Z</time></trkpt><trkpt lat="46.15832607010766" lon="12.89621885184608"><ele>165.4</ele><time>2026-03-22T09:49:47Z</time></trkpt><trkpt lat="46.158342443438265" lon="12.89634056511277"><ele>165.0</ele><time>2026-03-22T09:49:48Z</time></trkpt><trkpt lat="46.15838107561471" lon="12.896513409098356"><ele>165.0</ele><time>2026-03-22T09:49:49Z</time></trkpt><trkpt lat="46.15842395786781" lon="12.896678506542258"><ele>165.0</ele><time>2026-03-22T09:49:50Z</time></trkpt><trkpt lat="46.15846397888457" lon="12.89682598340386"><ele>165.0</ele><time>2026-03-22T09:49:51Z</time></trkpt><trkpt lat="46.158506411010585" lon="12.896976445121659"><ele>165.0</ele><time>2026-03-22T09:49:52Z</time></trkpt><trkpt lat="46.1585504377291" lon="12.897148421142754"><ele>164.75</ele><time>2026-03-22T09:49:53Z</time></trkpt><trkpt lat="46.15859671132138" lon="12.897339541629673"><ele>164.5</ele><time>2026-03-22T09:49:54Z</time></trkpt><trkpt lat="46.1586386888729" lon="12.897513641923648"><ele>164.25</ele><time>2026-03-22T09:49:55Z</time></trkpt><trkpt lat="46.158674498350585" lon="12.897665273725186"><ele>164.0</ele><time>2026-03-22T09:49:56Z</time></trkpt><trkpt lat="46.158718444766265" lon="12.897825264295221"><ele>164.0</ele><time>2026-03-22T09:49:57Z</time></trkpt><trkpt lat="46.158749745762016" lon="12.897998615475814"><ele>164.0</ele><time>2026-03-22T09:49:58Z</time></trkpt><trkpt lat="46.15876851727133" lon="12.898172358299954"><ele>164.0</ele><time>2026-03-22T09:49:59Z</time></trkpt><trkpt lat="46.158797798971385" lon="12.898334897776971"><ele>164.0</ele><time>2026-03-22T09:50:00Z</time></trkpt><trkpt lat="46.15882176173315" lon="12.8984672502079"><ele>163.75</ele><time>2026-03-22T09:50:01Z</time></trkpt><trkpt lat="46.158827497043674" lon="12.89857689138086"><ele>163.5</ele><time>2026-03-22T09:50:02Z</time></trkpt><trkpt lat="46.15874266534846" lon="12.898737252798664"><ele>163.25</ele><time>2026-03-22T09:50:04Z</time></trkpt><trkpt lat="46.158655309984255" lon="12.898821320763128"><ele>163.0</ele><time>2026-03-22T09:50:05Z</time></trkpt><trkpt lat="46.15853524974189" lon="12.898895591886834"><ele>163.0</ele><time>2026-03-22T09:50:06Z</time></trkpt><trkpt lat="46.15839083823992" lon="12.899005299162374"><ele>163.0</ele><time>2026-03-22T09:50:07Z</time></trkpt><trkpt lat="46.15825414321103" lon="12.899130854928968"><ele>163.0</ele><time>2026-03-22T09:50:08Z</time></trkpt><trkpt lat="46.15813871373387" lon="12.899230337129465"><ele>163.0</ele><time>2026-03-22T09:50:09Z</time></trkpt><trkpt lat="46.15803025156029" lon="12.899313919824543"><ele>163.0</ele><time>2026-03-22T09:50:10Z</time></trkpt><trkpt lat="46.15791987637808" lon="12.899374162548703"><ele>163.0</ele><time>2026-03-22T09:50:11Z</time></trkpt><trkpt lat="46.15781062629882" lon="12.89941789082174"><ele>163.0</ele><time>2026-03-22T09:50:12Z</time></trkpt><trkpt lat="46.15767313851581" lon="12.899453185499398"><ele>163.0</ele><time>2026-03-22T09:50:13Z</time></trkpt><trkpt lat="46.15752681200775" lon="12.89947436866494"><ele>163.0</ele><time>2026-03-22T09:50:14Z</time></trkpt><trkpt lat="46.15739199019448" lon="12.899481159526088"><ele>163.0</ele><time>2026-03-22T09:50:15Z</time></trkpt><trkpt lat="46.157253387508874" lon="12.899463807229298"><ele>163.0</ele><time>2026-03-22T09:50:16Z</time></trkpt><trkpt lat="46.15711557313733" lon="12.899412206108128"><ele>162.66666666666669</ele><time>2026-03-22T09:50:17Z</time></trkpt><trkpt lat="46.156951107305794" lon="12.89935617117577"><ele>162.33333333333334</ele><time>2026-03-22T09:50:18Z</time></trkpt><trkpt lat="46.15677295536656" lon="12.899289871899438"><ele>162.0</ele><time>2026-03-22T09:50:19Z</time></trkpt><trkpt lat="46.156601539340194" lon="12.899223741648186"><ele>161.66666666666666</ele><time>2026-03-22T09:50:20Z</time></trkpt><trkpt lat="46.15643532639329" lon="12.899151738688847"><ele>161.33333333333331</ele><time>2026-03-22T09:50:21Z</time></trkpt><trkpt lat="46.156274251687734" lon="12.899083644013395"><ele>161.0</ele><time>2026-03-22T09:50:22Z</time></trkpt><trkpt lat="46.15612299508656" lon="12.89902339530341"><ele>161.0</ele><time>2026-03-22T09:50:23Z</time></trkpt><trkpt lat="46.15597446783475" lon="12.898969801936882"><ele>161.0</ele><time>2026-03-22T09:50:24Z</time></trkpt><trkpt lat="46.15583390603518" lon="12.898920348982902"><ele>161.0</ele><time>2026-03-22T09:50:25Z</time></trkpt><trkpt lat="46.15571777688804" lon="12.898888379162875"><ele>161.0</ele><time>2026-03-22T09:50:26Z</time></trkpt><trkpt lat="46.15563570081925" lon="12.898880488748377"><ele>161.0</ele><time>2026-03-22T09:50:27Z</time></trkpt><trkpt lat="46.155559895639186" lon="12.898877963979544"><ele>161.0</ele><time>2026-03-22T09:50:28Z</time></trkpt><trkpt lat="46.1554754763523" lon="12.89888852065828"><ele>161.0</ele><time>2026-03-22T09:50:29Z</time></trkpt><trkpt lat="46.15539125129053" lon="12.89889793651906"><ele>161.0</ele><time>2026-03-22T09:50:30Z</time></trkpt><trkpt lat="46.15529706786588" lon="12.898891419310475"><ele>161.0</ele><time>2026-03-22T09:50:31Z</time></trkpt><trkpt lat="46.15519483645154" lon="12.898880750133753"><ele>161.0</ele><time>2026-03-22T09:50:32.001Z</time></trkpt><trkpt lat="46.15506912218417" lon="12.89888507389392"><ele>161.0</ele><time>2026-03-22T09:50:33.001Z</time></trkpt><trkpt lat="46.154949479110954" lon="12.898908573579801"><ele>161.0</ele><time>2026-03-22T09:50:34.001Z</time></trkpt><trkpt lat="46.15483278659122" lon="12.898933130562689"><ele>161.0</ele><time>2026-03-22T09:50:35.001Z</time></trkpt><trkpt lat="46.15471438313865" lon="12.898958529230468"><ele>161.0</ele><time>2026-03-22T09:50:36.001Z</time></trkpt><trkpt lat="46.15460094255855" lon="12.898986780241847"><ele>161.25</ele><time>2026-03-22T09:50:37.001Z</time></trkpt><trkpt lat="46.154481509711395" lon="12.899021025331384"><ele>161.5</ele><time>2026-03-22T09:50:38.001Z</time></trkpt><trkpt lat="46.15436712585319" lon="12.899063130551735"><ele>161.75</ele><time>2026-03-22T09:50:39.001Z</time></trkpt><trkpt lat="46.1542471769395" lon="12.899099963103064"><ele>162.0</ele><time>2026-03-22T09:50:40.001Z</time></trkpt><trkpt lat="46.15411076586733" lon="12.899151356627536"><ele>162.0</ele><time>2026-03-22T09:50:41.001Z</time></trkpt><trkpt lat="46.15398693087284" lon="12.899175537353829"><ele>162.0</ele><time>2026-03-22T09:50:42.001Z</time></trkpt><trkpt lat="46.15386264787943" lon="12.899210467323831"><ele>162.0</ele><time>2026-03-22T09:50:43.001Z</time></trkpt><trkpt lat="46.15373577686981" lon="12.899249563340023"><ele>162.0</ele><time>2026-03-22T09:50:44.001Z</time></trkpt><trkpt lat="46.15360656968941" lon="12.899296072807632"><ele>161.25</ele><time>2026-03-22T09:50:45.001Z</time></trkpt><trkpt lat="46.15347059409444" lon="12.899335507101574"><ele>160.5</ele><time>2026-03-22T09:50:46.001Z</time></trkpt><trkpt lat="46.15334764656637" lon="12.899371598586495"><ele>159.75</ele><time>2026-03-22T09:50:47.001Z</time></trkpt><trkpt lat="46.153219448043835" lon="12.899402061600027"><ele>159.0</ele><time>2026-03-22T09:50:48.001Z</time></trkpt><trkpt lat="46.15309564958208" lon="12.89942769725744"><ele>159.0</ele><time>2026-03-22T09:50:49.001Z</time></trkpt><trkpt lat="46.15298065229944" lon="12.899459520155725"><ele>159.0</ele><time>2026-03-22T09:50:50.001Z</time></trkpt><trkpt lat="46.15285989125356" lon="12.89948358274208"><ele>159.0</ele><time>2026-03-22T09:50:51.001Z</time></trkpt><trkpt lat="46.15273648335926" lon="12.899489367548588"><ele>159.0</ele><time>2026-03-22T09:50:52.001Z</time></trkpt><trkpt lat="46.15260922488104" lon="12.89947885121774"><ele>159.0</ele><time>2026-03-22T09:50:53.001Z</time></trkpt><trkpt lat="46.1524782615387" lon="12.899450594122756"><ele>159.0</ele><time>2026-03-22T09:50:54.001Z</time></trkpt><trkpt lat="46.152347977022" lon="12.899428486670514"><ele>159.0</ele><time>2026-03-22T09:50:55.001Z</time></trkpt><trkpt lat="46.15223280805045" lon="12.899401542232123"><ele>159.0</ele><time>2026-03-22T09:50:56.001Z</time></trkpt><trkpt lat="46.152113882760574" lon="12.89935359417048"><ele>159.0</ele><time>2026-03-22T09:50:57.001Z</time></trkpt><trkpt lat="46.15200539032067" lon="12.899292897758775"><ele>159.0</ele><time>2026-03-22T09:50:58.001Z</time></trkpt><trkpt lat="46.15188306099748" lon="12.899236049832616"><ele>159.0</ele><time>2026-03-22T09:50:59.001Z</time></trkpt><trkpt lat="46.15175214426228" lon="12.899197165258078"><ele>159.0</ele><time>2026-03-22T09:51:00.001Z</time></trkpt><trkpt lat="46.15163149183774" lon="12.899151693666536"><ele>158.8</ele><time>2026-03-22T09:51:01.001Z</time></trkpt><trkpt lat="46.15152398248826" lon="12.899101585575021"><ele>158.60000000000002</ele><time>2026-03-22T09:51:02.001Z</time></trkpt><trkpt lat="46.151418598853525" lon="12.899057103329552"><ele>158.4</ele><time>2026-03-22T09:51:03.001Z</time></trkpt><trkpt lat="46.15133047651602" lon="12.899003183835514"><ele>158.20000000000002</ele><time>2026-03-22T09:51:04.001Z</time></trkpt><trkpt lat="46.15124683263217" lon="12.89896038502926"><ele>158.0</ele><time>2026-03-22T09:51:05.001Z</time></trkpt><trkpt lat="46.15115270653863" lon="12.8989186401823"><ele>158.0</ele><time>2026-03-22T09:51:06.001Z</time></trkpt><trkpt lat="46.15104502375668" lon="12.898898249887749"><ele>158.0</ele><time>2026-03-22T09:51:07.001Z</time></trkpt><trkpt lat="46.15094687806109" lon="12.898881562292415"><ele>158.0</ele><time>2026-03-22T09:51:08.001Z</time></trkpt><trkpt lat="46.150843005784644" lon="12.898849794681125"><ele>158.0</ele><time>2026-03-22T09:51:09.001Z</time></trkpt><trkpt lat="46.15072593008169" lon="12.898818882213755"><ele>158.0</ele><time>2026-03-22T09:51:10.001Z</time></trkpt><trkpt lat="46.150615924887525" lon="12.898804044201334"><ele>158.0</ele><time>2026-03-22T09:51:11.001Z</time></trkpt><trkpt lat="46.150524565139854" lon="12.898809068615888"><ele>158.0</ele><time>2026-03-22T09:51:12.001Z</time></trkpt><trkpt lat="46.15041709794897" lon="12.8988017904826"><ele>158.0</ele><time>2026-03-22T09:51:13.001Z</time></trkpt><trkpt lat="46.1503115462729" lon="12.898806546632214"><ele>158.0</ele><time>2026-03-22T09:51:14.001Z</time></trkpt><trkpt lat="46.15019647328959" lon="12.898817134813923"><ele>158.0</ele><time>2026-03-22T09:51:15.001Z</time></trkpt><trkpt lat="46.150078623655965" lon="12.898840598958866"><ele>158.0</ele><time>2026-03-22T09:51:16.001Z</time></trkpt><trkpt lat="46.14996321150725" lon="12.898866743208313"><ele>158.0</ele><time>2026-03-22T09:51:17.001Z</time></trkpt><trkpt lat="46.149861177018614" lon="12.898893854145395"><ele>158.0</ele><time>2026-03-22T09:51:18.001Z</time></trkpt><trkpt lat="46.14976492084054" lon="12.898940915245785"><ele>158.0</ele><time>2026-03-22T09:51:19.001Z</time></trkpt><trkpt lat="46.149651363048456" lon="12.898994802825264"><ele>158.0</ele><time>2026-03-22T09:51:20.001Z</time></trkpt><trkpt lat="46.14953604319516" lon="12.899035347278652"><ele>158.25</ele><time>2026-03-22T09:51:21.001Z</time></trkpt><trkpt lat="46.14941463446737" lon="12.899085552530423"><ele>158.5</ele><time>2026-03-22T09:51:22.001Z</time></trkpt><trkpt lat="46.149284574270474" lon="12.899146168243949"><ele>158.75</ele><time>2026-03-22T09:51:23.001Z</time></trkpt><trkpt lat="46.14915096429103" lon="12.899220923252976"><ele>159.0</ele><time>2026-03-22T09:51:24.001Z</time></trkpt><trkpt lat="46.149030878874186" lon="12.89929545312496"><ele>157.5</ele><time>2026-03-22T09:51:25.001Z</time></trkpt><trkpt lat="46.14891029476021" lon="12.89936574374382"><ele>156.0</ele><time>2026-03-22T09:51:26.001Z</time></trkpt><trkpt lat="46.14879543587085" lon="12.899423762867139"><ele>154.5</ele><time>2026-03-22T09:51:27.001Z</time></trkpt><trkpt lat="46.148686533100154" lon="12.899471807862302"><ele>153.0</ele><time>2026-03-22T09:51:28.001Z</time></trkpt><trkpt lat="46.148566546996406" lon="12.899517064442332"><ele>153.0</ele><time>2026-03-22T09:51:29.001Z</time></trkpt><trkpt lat="46.14843274086598" lon="12.899585281645935"><ele>153.0</ele><time>2026-03-22T09:51:30.001Z</time></trkpt><trkpt lat="46.14828115479741" lon="12.899678483386937"><ele>153.0</ele><time>2026-03-22T09:51:31Z</time></trkpt><trkpt lat="46.1481503752365" lon="12.899753592908123"><ele>153.0</ele><time>2026-03-22T09:51:32Z</time></trkpt><trkpt lat="46.148020876320594" lon="12.899817090419132"><ele>153.33333333333334</ele><time>2026-03-22T09:51:33Z</time></trkpt><trkpt lat="46.14788410827189" lon="12.899882319307403"><ele>153.66666666666669</ele><time>2026-03-22T09:51:34Z</time></trkpt><trkpt lat="46.14773167382686" lon="12.899970763812904"><ele>154.0</ele><time>2026-03-22T09:51:35Z</time></trkpt><trkpt lat="46.147576891484796" lon="12.900049787976158"><ele>153.66666666666669</ele><time>2026-03-22T09:51:36Z</time></trkpt><trkpt lat="46.14742555170687" lon="12.900124006909376"><ele>153.33333333333334</ele><time>2026-03-22T09:51:37Z</time></trkpt><trkpt lat="46.147275127023974" lon="12.900206221129677"><ele>153.0</ele><time>2026-03-22T09:51:38Z</time></trkpt><trkpt lat="46.14712900133166" lon="12.900291792779699"><ele>153.0</ele><time>2026-03-22T09:51:39Z</time></trkpt><trkpt lat="46.14699113340266" lon="12.900361055189975"><ele>153.0</ele><time>2026-03-22T09:51:40Z</time></trkpt><trkpt lat="46.146855684225166" lon="12.900429381254478"><ele>153.0</ele><time>2026-03-22T09:51:41Z</time></trkpt><trkpt lat="46.14672752179086" lon="12.900496333578449"><ele>153.0</ele><time>2026-03-22T09:51:42Z</time></trkpt><trkpt lat="46.146620765575584" lon="12.900556153435392"><ele>153.25</ele><time>2026-03-22T09:51:43Z</time></trkpt><trkpt lat="46.14652271014851" lon="12.900611070945317"><ele>153.5</ele><time>2026-03-22T09:51:44Z</time></trkpt><trkpt lat="46.146417894735784" lon="12.9006710491498"><ele>153.75</ele><time>2026-03-22T09:51:45Z</time></trkpt><trkpt lat="46.14630474576119" lon="12.900748328481875"><ele>154.0</ele><time>2026-03-22T09:51:46Z</time></trkpt><trkpt lat="46.14619022723478" lon="12.900796251550045"><ele>154.0</ele><time>2026-03-22T09:51:47Z</time></trkpt><trkpt lat="46.146073871758404" lon="12.900840638079742"><ele>154.0</ele><time>2026-03-22T09:51:48Z</time></trkpt><trkpt lat="46.145941557870636" lon="12.900894023529927"><ele>154.0</ele><time>2026-03-22T09:51:49Z</time></trkpt><trkpt lat="46.14582057587329" lon="12.900966890251492"><ele>154.0</ele><time>2026-03-22T09:51:50Z</time></trkpt><trkpt lat="46.1456997299106" lon="12.901051974956033"><ele>153.4</ele><time>2026-03-22T09:51:51Z</time></trkpt><trkpt lat="46.14558325354549" lon="12.901128871660466"><ele>152.8</ele><time>2026-03-22T09:51:52Z</time></trkpt><trkpt lat="46.14546989744886" lon="12.901186687652093"><ele>152.2</ele><time>2026-03-22T09:51:53Z</time></trkpt><trkpt lat="46.14536665776271" lon="12.901226887816556"><ele>151.6</ele><time>2026-03-22T09:51:54Z</time></trkpt><trkpt lat="46.145297569437744" lon="12.901261670255712"><ele>151.0</ele><time>2026-03-22T09:51:55Z</time></trkpt><trkpt lat="46.14521263102323" lon="12.901297374269248"><ele>151.0</ele><time>2026-03-22T09:51:56Z</time></trkpt><trkpt lat="46.14511968419836" lon="12.901352038223475"><ele>151.0</ele><time>2026-03-22T09:51:57Z</time></trkpt><trkpt lat="46.14501397627425" lon="12.901380433186212"><ele>151.0</ele><time>2026-03-22T09:51:58Z</time></trkpt><trkpt lat="46.14490602570683" lon="12.901418939405811"><ele>151.0</ele><time>2026-03-22T09:51:59Z</time></trkpt><trkpt lat="46.14477766627715" lon="12.901467843430808"><ele>151.0</ele><time>2026-03-22T09:52:00Z</time></trkpt><trkpt lat="46.14464157023694" lon="12.901496504271323"><ele>151.0</ele><time>2026-03-22T09:52:01Z</time></trkpt><trkpt lat="46.14449670032561" lon="12.901521322566115"><ele>151.0</ele><time>2026-03-22T09:52:02Z</time></trkpt><trkpt lat="46.144352557508746" lon="12.901563284912704"><ele>151.0</ele><time>2026-03-22T09:52:03Z</time></trkpt><trkpt lat="46.144228329266255" lon="12.90158748770806"><ele>151.0</ele><time>2026-03-22T09:52:04Z</time></trkpt><trkpt lat="46.14409860993727" lon="12.901592102928117"><ele>151.0</ele><time>2026-03-22T09:52:05Z</time></trkpt><trkpt lat="46.14394909380629" lon="12.901590598840897"><ele>151.0</ele><time>2026-03-22T09:52:06Z</time></trkpt><trkpt lat="46.14380966480995" lon="12.90156981628037"><ele>151.0</ele><time>2026-03-22T09:52:07Z</time></trkpt><trkpt lat="46.14367329137627" lon="12.901543572395157"><ele>151.25</ele><time>2026-03-22T09:52:08Z</time></trkpt><trkpt lat="46.14353468064124" lon="12.901539271888945"><ele>151.5</ele><time>2026-03-22T09:52:09Z</time></trkpt><trkpt lat="46.143394129371956" lon="12.90153389254892"><ele>151.75</ele><time>2026-03-22T09:52:10Z</time></trkpt><trkpt lat="46.14326132216108" lon="12.901510058150572"><ele>152.0</ele><time>2026-03-22T09:52:11Z</time></trkpt><trkpt lat="46.143123409995106" lon="12.901464358459581"><ele>151.0</ele><time>2026-03-22T09:52:12Z</time></trkpt><trkpt lat="46.14295540726857" lon="12.901391874225846"><ele>150.0</ele><time>2026-03-22T09:52:13Z</time></trkpt><trkpt lat="46.14279779180442" lon="12.901345046216631"><ele>149.0</ele><time>2026-03-22T09:52:14Z</time></trkpt><trkpt lat="46.1426543796486" lon="12.901296201105293"><ele>149.0</ele><time>2026-03-22T09:52:15Z</time></trkpt><trkpt lat="46.14251845639297" lon="12.901255264164025"><ele>149.0</ele><time>2026-03-22T09:52:16Z</time></trkpt><trkpt lat="46.14238874579895" lon="12.901209475018998"><ele>149.0</ele><time>2026-03-22T09:52:17Z</time></trkpt><trkpt lat="46.142283877865296" lon="12.901166962349462"><ele>149.0</ele><time>2026-03-22T09:52:18Z</time></trkpt><trkpt lat="46.142210143188585" lon="12.901122433148469"><ele>149.0</ele><time>2026-03-22T09:52:19Z</time></trkpt><trkpt lat="46.14214213048891" lon="12.901080375763604"><ele>149.0</ele><time>2026-03-22T09:52:20Z</time></trkpt><trkpt lat="46.14205476460622" lon="12.901046125419214"><ele>149.0</ele><time>2026-03-22T09:52:21Z</time></trkpt><trkpt lat="46.1419612695196" lon="12.900999614220423"><ele>149.0</ele><time>2026-03-22T09:52:22Z</time></trkpt><trkpt lat="46.141847418725014" lon="12.900913728645516"><ele>149.0</ele><time>2026-03-22T09:52:23Z</time></trkpt><trkpt lat="46.141715517546764" lon="12.900806294550582"><ele>149.0</ele><time>2026-03-22T09:52:24Z</time></trkpt><trkpt lat="46.141594380392" lon="12.900692403018589"><ele>149.0</ele><time>2026-03-22T09:52:25Z</time></trkpt><trkpt lat="46.14149100462666" lon="12.900595128633295"><ele>149.0</ele><time>2026-03-22T09:52:26Z</time></trkpt><trkpt lat="46.14139952494703" lon="12.900525898613122"><ele>149.0</ele><time>2026-03-22T09:52:27Z</time></trkpt><trkpt lat="46.14131979049108" lon="12.900481557401909"><ele>149.0</ele><time>2026-03-22T09:52:28Z</time></trkpt><trkpt lat="46.141233522742894" lon="12.900416551330249"><ele>149.0</ele><time>2026-03-22T09:52:29Z</time></trkpt><trkpt lat="46.141180091850266" lon="12.900343538335756"><ele>149.0</ele><time>2026-03-22T09:52:30Z</time></trkpt><trkpt lat="46.14110558562563" lon="12.90025165833094"><ele>149.0</ele><time>2026-03-22T09:52:32Z</time></trkpt><trkpt lat="46.141036344338815" lon="12.900361236292593"><ele>149.0</ele><time>2026-03-22T09:52:35Z</time></trkpt><trkpt lat="46.14099693335872" lon="12.90045363320187"><ele>149.0</ele><time>2026-03-22T09:52:36Z</time></trkpt><trkpt lat="46.1409554748251" lon="12.900553606299136"><ele>149.0</ele><time>2026-03-22T09:52:37Z</time></trkpt><trkpt lat="46.14091007879352" lon="12.900673698621645"><ele>149.0</ele><time>2026-03-22T09:52:39.001Z</time></trkpt><trkpt lat="46.14086981571422" lon="12.900790091564808"><ele>149.0</ele><time>2026-03-22T09:52:43.001Z</time></trkpt><trkpt lat="46.14082564380543" lon="12.900879415958329"><ele>149.0</ele><time>2026-03-22T09:52:45.001Z</time></trkpt><trkpt lat="46.1407882815749" lon="12.900965953894316"><ele>149.0</ele><time>2026-03-22T09:52:47.001Z</time></trkpt><trkpt lat="46.140743578691904" lon="12.901068764954493"><ele>149.0</ele><time>2026-03-22T09:52:49.001Z</time></trkpt><trkpt lat="46.1406834740879" lon="12.901226518077436"><ele>149.16666666666666</ele><time>2026-03-22T09:52:51.001Z</time></trkpt><trkpt lat="46.14064799863091" lon="12.901306287421551"><ele>149.33333333333331</ele><time>2026-03-22T09:52:52.001Z</time></trkpt><trkpt lat="46.14060867681599" lon="12.901382485911526"><ele>149.5</ele><time>2026-03-22T09:52:53.001Z</time></trkpt><trkpt lat="46.14055261593114" lon="12.901478716005405"><ele>149.66666666666666</ele><time>2026-03-22T09:52:55.001Z</time></trkpt><trkpt lat="46.140478103443094" lon="12.901487648059785"><ele>149.83333333333334</ele><time>2026-03-22T09:52:57.001Z</time></trkpt><trkpt lat="46.140403961051796" lon="12.901441946357995"><ele>150.0</ele><time>2026-03-22T09:52:58.001Z</time></trkpt><trkpt lat="46.140326175869404" lon="12.901375861757973"><ele>150.0</ele><time>2026-03-22T09:52:59.001Z</time></trkpt><trkpt lat="46.140248113010365" lon="12.901302426028147"><ele>150.0</ele><time>2026-03-22T09:53:00.001Z</time></trkpt><trkpt lat="46.14016317552743" lon="12.901215206147949"><ele>150.0</ele><time>2026-03-22T09:53:01.001Z</time></trkpt><trkpt lat="46.14008968999901" lon="12.90115041011305"><ele>150.0</ele><time>2026-03-22T09:53:02.001Z</time></trkpt><trkpt lat="46.140027897329" lon="12.90109023284059"><ele>150.0</ele><time>2026-03-22T09:53:03.001Z</time></trkpt><trkpt lat="46.13997411615352" lon="12.901037736166586"><ele>150.0</ele><time>2026-03-22T09:53:04.001Z</time></trkpt><trkpt lat="46.139858540063415" lon="12.900926756456695"><ele>149.8</ele><time>2026-03-22T09:53:06.001Z</time></trkpt><trkpt lat="46.13978643112031" lon="12.900875376372223"><ele>149.6</ele><time>2026-03-22T09:53:07.001Z</time></trkpt><trkpt lat="46.13971090245974" lon="12.900816552801428"><ele>149.4</ele><time>2026-03-22T09:53:08.001Z</time></trkpt><trkpt lat="46.13962890028587" lon="12.900751452360185"><ele>149.2</ele><time>2026-03-22T09:53:09.001Z</time></trkpt><trkpt lat="46.139545767035" lon="12.900686853257847"><ele>149.0</ele><time>2026-03-22T09:53:10.001Z</time></trkpt><trkpt lat="46.139455840292435" lon="12.900613232895683"><ele>149.0</ele><time>2026-03-22T09:53:11.001Z</time></trkpt><trkpt lat="46.139370285215975" lon="12.900541256900535"><ele>149.0</ele><time>2026-03-22T09:53:12.001Z</time></trkpt><trkpt lat="46.13929574793455" lon="12.900466525827266"><ele>149.0</ele><time>2026-03-22T09:53:13.001Z</time></trkpt><trkpt lat="46.13922277714777" lon="12.900381488681264"><ele>149.0</ele><time>2026-03-22T09:53:14.001Z</time></trkpt><trkpt lat="46.13914307242898" lon="12.900295510813695"><ele>149.0</ele><time>2026-03-22T09:53:15.001Z</time></trkpt><trkpt lat="46.139059211512205" lon="12.900214536112738"><ele>148.5</ele><time>2026-03-22T09:53:16.001Z</time></trkpt><trkpt lat="46.13896169235624" lon="12.900145326307287"><ele>148.0</ele><time>2026-03-22T09:53:17.001Z</time></trkpt><trkpt lat="46.1388605175215" lon="12.900066515338061"><ele>147.5</ele><time>2026-03-22T09:53:18.001Z</time></trkpt><trkpt lat="46.13875001147918" lon="12.89995874594964"><ele>147.0</ele><time>2026-03-22T09:53:19.001Z</time></trkpt><trkpt lat="46.13863944549966" lon="12.89985349700338"><ele>146.75</ele><time>2026-03-22T09:53:20.001Z</time></trkpt><trkpt lat="46.138544664958" lon="12.89973806117849"><ele>146.5</ele><time>2026-03-22T09:53:21.001Z</time></trkpt><trkpt lat="46.13845370373191" lon="12.899635297026856"><ele>146.25</ele><time>2026-03-22T09:53:22.001Z</time></trkpt><trkpt lat="46.138350491712345" lon="12.899548878936619"><ele>146.0</ele><time>2026-03-22T09:53:23.001Z</time></trkpt><trkpt lat="46.13823941377218" lon="12.899480719711175"><ele>146.0</ele><time>2026-03-22T09:53:24.001Z</time></trkpt><trkpt lat="46.13813007904535" lon="12.89941773684404"><ele>146.0</ele><time>2026-03-22T09:53:25.001Z</time></trkpt><trkpt lat="46.13803630589258" lon="12.899354653880506"><ele>146.0</ele><time>2026-03-22T09:53:26.001Z</time></trkpt><trkpt lat="46.13794534686784" lon="12.899257530143151"><ele>146.0</ele><time>2026-03-22T09:53:27.001Z</time></trkpt><trkpt lat="46.13784273143077" lon="12.899137965959715"><ele>146.0</ele><time>2026-03-22T09:53:28.001Z</time></trkpt><trkpt lat="46.13773076989525" lon="12.899024967954833"><ele>146.0</ele><time>2026-03-22T09:53:29.001Z</time></trkpt><trkpt lat="46.1376190556009" lon="12.898917973877236"><ele>146.0</ele><time>2026-03-22T09:53:30.001Z</time></trkpt><trkpt lat="46.13750246657143" lon="12.898814582926438"><ele>146.0</ele><time>2026-03-22T09:53:31.001Z</time></trkpt><trkpt lat="46.13737550013182" lon="12.898716851282407"><ele>145.33333333333331</ele><time>2026-03-22T09:53:32.001Z</time></trkpt><trkpt lat="46.13724768212623" lon="12.898612054416215"><ele>144.66666666666666</ele><time>2026-03-22T09:53:33.001Z</time></trkpt><trkpt lat="46.13711651520127" lon="12.898491950184223"><ele>144.0</ele><time>2026-03-22T09:53:34.001Z</time></trkpt><trkpt lat="46.13698931212164" lon="12.898370735669854"><ele>144.0</ele><time>2026-03-22T09:53:35.001Z</time></trkpt><trkpt lat="46.13685171650955" lon="12.898241357152143"><ele>144.0</ele><time>2026-03-22T09:53:36.001Z</time></trkpt><trkpt lat="46.136719519172" lon="12.89811874843832"><ele>144.0</ele><time>2026-03-22T09:53:37Z</time></trkpt><trkpt lat="46.13658321615835" lon="12.897997470405597"><ele>144.0</ele><time>2026-03-22T09:53:38Z</time></trkpt><trkpt lat="46.136438046270754" lon="12.89788620918853"><ele>144.0</ele><time>2026-03-22T09:53:39Z</time></trkpt><trkpt lat="46.1363060044706" lon="12.897779123884638"><ele>144.0</ele><time>2026-03-22T09:53:40Z</time></trkpt><trkpt lat="46.13617149253706" lon="12.897646761397747"><ele>143.66666666666666</ele><time>2026-03-22T09:53:41Z</time></trkpt><trkpt lat="46.136038708237926" lon="12.897527966394223"><ele>143.33333333333331</ele><time>2026-03-22T09:53:42Z</time></trkpt><trkpt lat="46.13590372859503" lon="12.89742726318106"><ele>143.0</ele><time>2026-03-22T09:53:43Z</time></trkpt><trkpt lat="46.13577110385968" lon="12.897328779750811"><ele>143.75</ele><time>2026-03-22T09:53:44Z</time></trkpt><trkpt lat="46.13567287646348" lon="12.897241712478484"><ele>144.5</ele><time>2026-03-22T09:53:45Z</time></trkpt><trkpt lat="46.13558450057337" lon="12.897161912862105"><ele>145.25</ele><time>2026-03-22T09:53:46Z</time></trkpt><trkpt lat="46.135468521801315" lon="12.897051925612118"><ele>146.0</ele><time>2026-03-22T09:53:47Z</time></trkpt><trkpt lat="46.13534277814624" lon="12.896924378944691"><ele>146.0</ele><time>2026-03-22T09:53:48Z</time></trkpt><trkpt lat="46.13521117086938" lon="12.89679491786752"><ele>146.0</ele><time>2026-03-22T09:53:49Z</time></trkpt><trkpt lat="46.135098887855406" lon="12.896675480714746"><ele>146.0</ele><time>2026-03-22T09:53:50Z</time></trkpt><trkpt lat="46.13500017070839" lon="12.896562913249483"><ele>146.0</ele><time>2026-03-22T09:53:51Z</time></trkpt><trkpt lat="46.13487963779279" lon="12.89645517360318"><ele>146.0</ele><time>2026-03-22T09:53:52Z</time></trkpt><trkpt lat="46.134728424626275" lon="12.896340061580668"><ele>146.0</ele><time>2026-03-22T09:53:53Z</time></trkpt><trkpt lat="46.134585824080396" lon="12.896233516906612"><ele>146.0</ele><time>2026-03-22T09:53:54Z</time></trkpt><trkpt lat="46.134462861039545" lon="12.896134266753558"><ele>146.0</ele><time>2026-03-22T09:53:55Z</time></trkpt><trkpt lat="46.134366642193065" lon="12.89604777453877"><ele>146.0</ele><time>2026-03-22T09:53:56Z</time></trkpt><trkpt lat="46.13429085525207" lon="12.895982261638302"><ele>146.0</ele><time>2026-03-22T09:53:57Z</time></trkpt><trkpt lat="46.134226174797035" lon="12.895928769468405"><ele>146.0</ele><time>2026-03-22T09:53:58Z</time></trkpt><trkpt lat="46.134150562030996" lon="12.895842963744824"><ele>146.0</ele><time>2026-03-22T09:53:59Z</time></trkpt><trkpt lat="46.13405994731383" lon="12.895739714934667"><ele>145.66666666666666</ele><time>2026-03-22T09:54:00Z</time></trkpt><trkpt lat="46.13394077066986" lon="12.895620792287657"><ele>145.33333333333334</ele><time>2026-03-22T09:54:01Z</time></trkpt><trkpt lat="46.133791943953625" lon="12.895495544042499"><ele>145.0</ele><time>2026-03-22T09:54:02Z</time></trkpt><trkpt lat="46.133648288304286" lon="12.895367036748635"><ele>145.0</ele><time>2026-03-22T09:54:03Z</time></trkpt><trkpt lat="46.13349779830767" lon="12.89521893471385"><ele>145.0</ele><time>2026-03-22T09:54:04Z</time></trkpt><trkpt lat="46.13334567841978" lon="12.895071341078474"><ele>145.0</ele><time>2026-03-22T09:54:05Z</time></trkpt><trkpt lat="46.1331837950549" lon="12.894936818163757"><ele>144.0</ele><time>2026-03-22T09:54:06Z</time></trkpt><trkpt lat="46.13300766778281" lon="12.894804684808935"><ele>143.0</ele><time>2026-03-22T09:54:07Z</time></trkpt><trkpt lat="46.13283971479664" lon="12.894689911226493"><ele>142.0</ele><time>2026-03-22T09:54:08Z</time></trkpt><trkpt lat="46.13268555851793" lon="12.894572005323722"><ele>142.0</ele><time>2026-03-22T09:54:09Z</time></trkpt><trkpt lat="46.13254328367218" lon="12.894431110206963"><ele>142.0</ele><time>2026-03-22T09:54:10Z</time></trkpt><trkpt lat="46.13239680956401" lon="12.894278045389122"><ele>142.0</ele><time>2026-03-22T09:54:11Z</time></trkpt><trkpt lat="46.13225178797388" lon="12.894130695210473"><ele>141.66666666666669</ele><time>2026-03-22T09:54:12Z</time></trkpt><trkpt lat="46.132097426785904" lon="12.893994934694357"><ele>141.33333333333334</ele><time>2026-03-22T09:54:13Z</time></trkpt><trkpt lat="46.13193789180843" lon="12.893868578768998"><ele>141.0</ele><time>2026-03-22T09:54:14Z</time></trkpt><trkpt lat="46.131791946278156" lon="12.893765193357174"><ele>141.0</ele><time>2026-03-22T09:54:15Z</time></trkpt><trkpt lat="46.131644897659015" lon="12.89367078404263"><ele>141.0</ele><time>2026-03-22T09:54:16Z</time></trkpt><trkpt lat="46.131488436379996" lon="12.893563754091769"><ele>141.0</ele><time>2026-03-22T09:54:17Z</time></trkpt><trkpt lat="46.13134211582579" lon="12.893445303456856"><ele>141.33333333333334</ele><time>2026-03-22T09:54:18Z</time></trkpt><trkpt lat="46.13120109913849" lon="12.89332243255296"><ele>141.66666666666669</ele><time>2026-03-22T09:54:19Z</time></trkpt><trkpt lat="46.131051709093974" lon="12.89321247860055"><ele>142.0</ele><time>2026-03-22T09:54:20Z</time></trkpt><trkpt lat="46.13088649098516" lon="12.893123422478725"><ele>141.66666666666669</ele><time>2026-03-22T09:54:21Z</time></trkpt><trkpt lat="46.13070212929832" lon="12.89304399765878"><ele>141.33333333333334</ele><time>2026-03-22T09:54:22Z</time></trkpt><trkpt lat="46.130487332291274" lon="12.892967213914892"><ele>141.0</ele><time>2026-03-22T09:54:23Z</time></trkpt><trkpt lat="46.13025400046667" lon="12.892891871396008"><ele>141.0</ele><time>2026-03-22T09:54:24Z</time></trkpt><trkpt lat="46.13003224326368" lon="12.892827435159633"><ele>141.0</ele><time>2026-03-22T09:54:25Z</time></trkpt><trkpt lat="46.1298400577758" lon="12.892755751929473"><ele>141.0</ele><time>2026-03-22T09:54:26Z</time></trkpt><trkpt lat="46.129647510307514" lon="12.892683251882952"><ele>140.33333333333334</ele><time>2026-03-22T09:54:27Z</time></trkpt><trkpt lat="46.12945607475194" lon="12.892610982136695"><ele>139.66666666666669</ele><time>2026-03-22T09:54:28Z</time></trkpt><trkpt lat="46.12927078409532" lon="12.892539957131467"><ele>139.0</ele><time>2026-03-22T09:54:29Z</time></trkpt><trkpt lat="46.129078915571604" lon="12.892468513671734"><ele>139.33333333333334</ele><time>2026-03-22T09:54:30Z</time></trkpt><trkpt lat="46.12887526317371" lon="12.892392901842873"><ele>139.66666666666666</ele><time>2026-03-22T09:54:31Z</time></trkpt><trkpt lat="46.1286704314666" lon="12.892314220469867"><ele>140.0</ele><time>2026-03-22T09:54:32Z</time></trkpt><trkpt lat="46.12846654268755" lon="12.892241478880994"><ele>140.0</ele><time>2026-03-22T09:54:33Z</time></trkpt><trkpt lat="46.12828611690222" lon="12.892185696551227"><ele>140.0</ele><time>2026-03-22T09:54:34Z</time></trkpt><trkpt lat="46.12813463075394" lon="12.892144512015726"><ele>140.0</ele><time>2026-03-22T09:54:35Z</time></trkpt><trkpt lat="46.12800211122849" lon="12.89210441926117"><ele>139.0</ele><time>2026-03-22T09:54:36Z</time></trkpt><trkpt lat="46.12785528360282" lon="12.892060817335233"><ele>138.0</ele><time>2026-03-22T09:54:37Z</time></trkpt><trkpt lat="46.127680296614116" lon="12.89200143726217"><ele>137.0</ele><time>2026-03-22T09:54:38Z</time></trkpt><trkpt lat="46.12750417631894" lon="12.891945691213701"><ele>137.0</ele><time>2026-03-22T09:54:39Z</time></trkpt><trkpt lat="46.12734096748046" lon="12.891893036722935"><ele>137.0</ele><time>2026-03-22T09:54:40Z</time></trkpt><trkpt lat="46.1271745367949" lon="12.89184225019305"><ele>137.0</ele><time>2026-03-22T09:54:41Z</time></trkpt><trkpt lat="46.12700360669696" lon="12.891793483817715"><ele>137.0</ele><time>2026-03-22T09:54:42Z</time></trkpt><trkpt lat="46.126821254746666" lon="12.89174243216123"><ele>137.0</ele><time>2026-03-22T09:54:43Z</time></trkpt><trkpt lat="46.12663650824161" lon="12.891690488413111"><ele>137.0</ele><time>2026-03-22T09:54:44Z</time></trkpt><trkpt lat="46.12646207136845" lon="12.891635264844227"><ele>136.0</ele><time>2026-03-22T09:54:45Z</time></trkpt><trkpt lat="46.12630171735115" lon="12.891586208388306"><ele>135.0</ele><time>2026-03-22T09:54:46Z</time></trkpt><trkpt lat="46.1261323913134" lon="12.891552571733424"><ele>134.0</ele><time>2026-03-22T09:54:47Z</time></trkpt><trkpt lat="46.125944884871025" lon="12.891542506482603"><ele>134.0</ele><time>2026-03-22T09:54:48.001Z</time></trkpt><trkpt lat="46.12574891511485" lon="12.891549213883417"><ele>134.0</ele><time>2026-03-22T09:54:49.001Z</time></trkpt><trkpt lat="46.1255674852222" lon="12.891568005717238"><ele>134.0</ele><time>2026-03-22T09:54:50.001Z</time></trkpt><trkpt lat="46.12540637238762" lon="12.891580853724436"><ele>134.0</ele><time>2026-03-22T09:54:51.001Z</time></trkpt><trkpt lat="46.125270206923126" lon="12.891587927104672"><ele>134.0</ele><time>2026-03-22T09:54:52.001Z</time></trkpt><trkpt lat="46.12513749957819" lon="12.891596630664663"><ele>134.0</ele><time>2026-03-22T09:54:53.001Z</time></trkpt><trkpt lat="46.12499898174634" lon="12.891601173765903"><ele>134.0</ele><time>2026-03-22T09:54:54.001Z</time></trkpt><trkpt lat="46.12485123167248" lon="12.891589821323722"><ele>134.0</ele><time>2026-03-22T09:54:55.001Z</time></trkpt><trkpt lat="46.12471193545924" lon="12.891564841758981"><ele>134.0</ele><time>2026-03-22T09:54:56.001Z</time></trkpt><trkpt lat="46.12457478412311" lon="12.89151564095479"><ele>134.0</ele><time>2026-03-22T09:54:57.001Z</time></trkpt><trkpt lat="46.12444676789349" lon="12.89146841159219"><ele>134.0</ele><time>2026-03-22T09:54:58.001Z</time></trkpt><trkpt lat="46.124312937140864" lon="12.891412117398627"><ele>134.0</ele><time>2026-03-22T09:54:59.001Z</time></trkpt><trkpt lat="46.124195874333985" lon="12.891361161730378"><ele>134.0</ele><time>2026-03-22T09:55:00.001Z</time></trkpt><trkpt lat="46.12409467823092" lon="12.891329105021335"><ele>134.0</ele><time>2026-03-22T09:55:01.001Z</time></trkpt><trkpt lat="46.124026651106654" lon="12.8913018270236"><ele>134.0</ele><time>2026-03-22T09:55:02.001Z</time></trkpt><trkpt lat="46.12393323497048" lon="12.891174591238917"><ele>134.0</ele><time>2026-03-22T09:55:04.001Z</time></trkpt><trkpt lat="46.123915006927575" lon="12.891072245308777"><ele>134.0</ele><time>2026-03-22T09:55:05.001Z</time></trkpt><trkpt lat="46.12391593144918" lon="12.89096403375903"><ele>134.0</ele><time>2026-03-22T09:55:06.001Z</time></trkpt><trkpt lat="46.12391881450107" lon="12.890821261383586"><ele>134.0</ele><time>2026-03-22T09:55:08.001Z</time></trkpt><trkpt lat="46.12382923733709" lon="12.890747280199841"><ele>134.0</ele><time>2026-03-22T09:55:10.001Z</time></trkpt><trkpt lat="46.12375137043573" lon="12.89070819213606"><ele>134.0</ele><time>2026-03-22T09:55:11.001Z</time></trkpt><trkpt lat="46.12365366648807" lon="12.890636917119396"><ele>134.0</ele><time>2026-03-22T09:55:12.001Z</time></trkpt><trkpt lat="46.123546874815" lon="12.890542414485292"><ele>134.0</ele><time>2026-03-22T09:55:13.001Z</time></trkpt><trkpt lat="46.12342325216788" lon="12.890478414811346"><ele>134.0</ele><time>2026-03-22T09:55:14.001Z</time></trkpt><trkpt lat="46.12331188515533" lon="12.890423175322457"><ele>134.0</ele><time>2026-03-22T09:55:15.001Z</time></trkpt><trkpt lat="46.1231978232864" lon="12.8903716614869"><ele>134.0</ele><time>2026-03-22T09:55:16.001Z</time></trkpt><trkpt lat="46.12307605591718" lon="12.890312260765654"><ele>134.0</ele><time>2026-03-22T09:55:17.001Z</time></trkpt><trkpt lat="46.12295876357269" lon="12.890233462439282"><ele>134.0</ele><time>2026-03-22T09:55:18.001Z</time></trkpt><trkpt lat="46.1228368150668" lon="12.890163748485028"><ele>134.0</ele><time>2026-03-22T09:55:19.001Z</time></trkpt><trkpt lat="46.12271068254338" lon="12.890113395712723"><ele>134.0</ele><time>2026-03-22T09:55:20.001Z</time></trkpt><trkpt lat="46.12258098796475" lon="12.890066240896212"><ele>134.0</ele><time>2026-03-22T09:55:21.001Z</time></trkpt><trkpt lat="46.122454863198534" lon="12.890001101839859"><ele>134.0</ele><time>2026-03-22T09:55:22.001Z</time></trkpt><trkpt lat="46.12233351800897" lon="12.889936394242508"><ele>134.0</ele><time>2026-03-22T09:55:23.001Z</time></trkpt><trkpt lat="46.12221426377009" lon="12.8898821442163"><ele>134.0</ele><time>2026-03-22T09:55:24.001Z</time></trkpt><trkpt lat="46.1221220394064" lon="12.889840040364891"><ele>134.0</ele><time>2026-03-22T09:55:25.001Z</time></trkpt><trkpt lat="46.1220429521928" lon="12.889795401494588"><ele>134.0</ele><time>2026-03-22T09:55:26.001Z</time></trkpt><trkpt lat="46.121944202556584" lon="12.889748678131383"><ele>134.0</ele><time>2026-03-22T09:55:27.001Z</time></trkpt><trkpt lat="46.121843143796134" lon="12.88973760480044"><ele>134.0</ele><time>2026-03-22T09:55:28.001Z</time></trkpt><trkpt lat="46.121752573199174" lon="12.889712238519717"><ele>134.0</ele><time>2026-03-22T09:55:29.001Z</time></trkpt><trkpt lat="46.12166603098351" lon="12.889649944928573"><ele>134.0</ele><time>2026-03-22T09:55:30.001Z</time></trkpt><trkpt lat="46.12155650987426" lon="12.889563227694698"><ele>134.0</ele><time>2026-03-22T09:55:31.001Z</time></trkpt><trkpt lat="46.121449241307864" lon="12.889494963366387"><ele>134.0</ele><time>2026-03-22T09:55:32.001Z</time></trkpt><trkpt lat="46.12135539165086" lon="12.889448518308432"><ele>134.0</ele><time>2026-03-22T09:55:33.001Z</time></trkpt><trkpt lat="46.12126056241218" lon="12.889390397215557"><ele>134.25</ele><time>2026-03-22T09:55:34.001Z</time></trkpt><trkpt lat="46.12116360579909" lon="12.889297307847576"><ele>134.5</ele><time>2026-03-22T09:55:35.001Z</time></trkpt><trkpt lat="46.12106128654502" lon="12.889241023945582"><ele>134.75</ele><time>2026-03-22T09:55:36.001Z</time></trkpt><trkpt lat="46.12093714541614" lon="12.889116464534478"><ele>135.0</ele><time>2026-03-22T09:55:37.001Z</time></trkpt><trkpt lat="46.12082903964645" lon="12.889012823224007"><ele>135.0</ele><time>2026-03-22T09:55:38.001Z</time></trkpt><trkpt lat="46.12072697117006" lon="12.888885954021516"><ele>135.0</ele><time>2026-03-22T09:55:39.001Z</time></trkpt><trkpt lat="46.12062734220704" lon="12.888765141280464"><ele>135.0</ele><time>2026-03-22T09:55:40.001Z</time></trkpt><trkpt lat="46.12052422665663" lon="12.888656371439366"><ele>135.0</ele><time>2026-03-22T09:55:41.001Z</time></trkpt><trkpt lat="46.12041561260584" lon="12.888553715534913"><ele>135.0</ele><time>2026-03-22T09:55:42.001Z</time></trkpt><trkpt lat="46.120307226078985" lon="12.888436546503868"><ele>135.0</ele><time>2026-03-22T09:55:43Z</time></trkpt><trkpt lat="46.120208998485914" lon="12.888307657441514"><ele>135.0</ele><time>2026-03-22T09:55:44Z</time></trkpt><trkpt lat="46.12010124052039" lon="12.888196867487174"><ele>135.0</ele><time>2026-03-22T09:55:45Z</time></trkpt><trkpt lat="46.11999078677242" lon="12.888116786978621"><ele>134.6</ele><time>2026-03-22T09:55:46Z</time></trkpt><trkpt lat="46.11987991884188" lon="12.888044794304363"><ele>134.2</ele><time>2026-03-22T09:55:47Z</time></trkpt><trkpt lat="46.1197789589191" lon="12.887987301033409"><ele>133.8</ele><time>2026-03-22T09:55:48Z</time></trkpt><trkpt lat="46.119692200073516" lon="12.88793865370954"><ele>133.4</ele><time>2026-03-22T09:55:49Z</time></trkpt><trkpt lat="46.1196179116585" lon="12.887875213112642"><ele>133.0</ele><time>2026-03-22T09:55:50Z</time></trkpt><trkpt lat="46.119528692878355" lon="12.887760300528582"><ele>133.0</ele><time>2026-03-22T09:55:51Z</time></trkpt><trkpt lat="46.1194297815403" lon="12.887620088165626"><ele>133.0</ele><time>2026-03-22T09:55:52Z</time></trkpt><trkpt lat="46.11932766177338" lon="12.887478633328787"><ele>133.0</ele><time>2026-03-22T09:55:53Z</time></trkpt><trkpt lat="46.11920201022477" lon="12.887338641094273"><ele>133.0</ele><time>2026-03-22T09:55:54Z</time></trkpt><trkpt lat="46.119084747122976" lon="12.887195297523588"><ele>133.0</ele><time>2026-03-22T09:55:55Z</time></trkpt><trkpt lat="46.11897954148622" lon="12.887051781453783"><ele>133.0</ele><time>2026-03-22T09:55:56Z</time></trkpt><trkpt lat="46.11887846753212" lon="12.886919649644145"><ele>133.0</ele><time>2026-03-22T09:55:57Z</time></trkpt><trkpt lat="46.118763405037704" lon="12.886773783748216"><ele>133.0</ele><time>2026-03-22T09:55:58Z</time></trkpt><trkpt lat="46.11864466766122" lon="12.886629472583639"><ele>132.5</ele><time>2026-03-22T09:55:59Z</time></trkpt><trkpt lat="46.11854071921291" lon="12.886507456644509"><ele>132.0</ele><time>2026-03-22T09:56:00Z</time></trkpt><trkpt lat="46.11844096755295" lon="12.886393001486983"><ele>131.5</ele><time>2026-03-22T09:56:01Z</time></trkpt><trkpt lat="46.11834494173541" lon="12.886292038985212"><ele>131.0</ele><time>2026-03-22T09:56:02Z</time></trkpt><trkpt lat="46.11824291542227" lon="12.886195684471886"><ele>131.0</ele><time>2026-03-22T09:56:03Z</time></trkpt><trkpt lat="46.11812458496521" lon="12.886106344342819"><ele>131.0</ele><time>2026-03-22T09:56:04Z</time></trkpt><trkpt lat="46.11797791847037" lon="12.886023558104304"><ele>131.0</ele><time>2026-03-22T09:56:05Z</time></trkpt><trkpt lat="46.11780559243691" lon="12.885935788372034"><ele>130.66666666666666</ele><time>2026-03-22T09:56:06Z</time></trkpt><trkpt lat="46.117628170726796" lon="12.885850441645195"><ele>130.33333333333334</ele><time>2026-03-22T09:56:07Z</time></trkpt><trkpt lat="46.117473939681666" lon="12.885774314056748"><ele>130.0</ele><time>2026-03-22T09:56:08Z</time></trkpt><trkpt lat="46.117332966328" lon="12.88569885271708"><ele>130.0</ele><time>2026-03-22T09:56:09Z</time></trkpt><trkpt lat="46.11718325455108" lon="12.885617193969756"><ele>130.0</ele><time>2026-03-22T09:56:10Z</time></trkpt><trkpt lat="46.117034827717966" lon="12.885516421035769"><ele>130.0</ele><time>2026-03-22T09:56:11Z</time></trkpt><trkpt lat="46.11687528978695" lon="12.885424904100576"><ele>130.0</ele><time>2026-03-22T09:56:12Z</time></trkpt><trkpt lat="46.11672776259956" lon="12.885342085975049"><ele>130.0</ele><time>2026-03-22T09:56:13Z</time></trkpt><trkpt lat="46.116607140611066" lon="12.885217550167749"><ele>130.0</ele><time>2026-03-22T09:56:14Z</time></trkpt><trkpt lat="46.11648117926512" lon="12.885183149609322"><ele>130.0</ele><time>2026-03-22T09:56:15Z</time></trkpt><trkpt lat="46.116362476649364" lon="12.885159297359602"><ele>130.0</ele><time>2026-03-22T09:56:16Z</time></trkpt><trkpt lat="46.11625553857694" lon="12.885130515079394"><ele>130.0</ele><time>2026-03-22T09:56:17Z</time></trkpt><trkpt lat="46.116157779114126" lon="12.885109487072986"><ele>130.0</ele><time>2026-03-22T09:56:18Z</time></trkpt><trkpt lat="46.116068467179765" lon="12.885090276119323"><ele>130.0</ele><time>2026-03-22T09:56:19Z</time></trkpt><trkpt lat="46.115954795935124" lon="12.885065825495033"><ele>130.0</ele><time>2026-03-22T09:56:20Z</time></trkpt><trkpt lat="46.11584704130852" lon="12.884807522288055"><ele>129.5</ele><time>2026-03-22T09:56:21Z</time></trkpt><trkpt lat="46.115716488178286" lon="12.884731135973556"><ele>129.0</ele><time>2026-03-22T09:56:22Z</time></trkpt><trkpt lat="46.11559433775732" lon="12.884624380612333"><ele>128.5</ele><time>2026-03-22T09:56:23Z</time></trkpt><trkpt lat="46.11547512351545" lon="12.884500070210143"><ele>128.0</ele><time>2026-03-22T09:56:24Z</time></trkpt><trkpt lat="46.11535641925942" lon="12.884344180279717"><ele>127.66666666666666</ele><time>2026-03-22T09:56:25Z</time></trkpt><trkpt lat="46.115225246150466" lon="12.884180584017189"><ele>127.33333333333334</ele><time>2026-03-22T09:56:26Z</time></trkpt><trkpt lat="46.11510014450856" lon="12.884048269910892"><ele>127.0</ele><time>2026-03-22T09:56:27Z</time></trkpt><trkpt lat="46.114993326363944" lon="12.88393813252771"><ele>127.5</ele><time>2026-03-22T09:56:28Z</time></trkpt><trkpt lat="46.114896772725736" lon="12.883842976091845"><ele>128.0</ele><time>2026-03-22T09:56:29Z</time></trkpt><trkpt lat="46.11480459220387" lon="12.883763001903018"><ele>128.5</ele><time>2026-03-22T09:56:30Z</time></trkpt><trkpt lat="46.1147018199521" lon="12.883681056785704"><ele>129.0</ele><time>2026-03-22T09:56:31Z</time></trkpt><trkpt lat="46.11459892672346" lon="12.88357979572435"><ele>129.0</ele><time>2026-03-22T09:56:32Z</time></trkpt><trkpt lat="46.11451269303603" lon="12.883451684202956"><ele>129.0</ele><time>2026-03-22T09:56:33Z</time></trkpt><trkpt lat="46.11442048036181" lon="12.883295679421646"><ele>129.0</ele><time>2026-03-22T09:56:34Z</time></trkpt><trkpt lat="46.11431747808314" lon="12.883162093404826"><ele>129.0</ele><time>2026-03-22T09:56:35Z</time></trkpt><trkpt lat="46.11421464903012" lon="12.883050415913322"><ele>129.0</ele><time>2026-03-22T09:56:36Z</time></trkpt><trkpt lat="46.114130691803645" lon="12.882950535861912"><ele>129.0</ele><time>2026-03-22T09:56:37Z</time></trkpt><trkpt lat="46.114038560182735" lon="12.882838588751609"><ele>129.0</ele><time>2026-03-22T09:56:38Z</time></trkpt><trkpt lat="46.113923417707404" lon="12.882729077549763"><ele>129.0</ele><time>2026-03-22T09:56:39Z</time></trkpt><trkpt lat="46.11381252587717" lon="12.882620836937903"><ele>129.0</ele><time>2026-03-22T09:56:40Z</time></trkpt><trkpt lat="46.11372200129739" lon="12.88251495907414"><ele>129.0</ele><time>2026-03-22T09:56:41Z</time></trkpt><trkpt lat="46.113634056861095" lon="12.882405836525201"><ele>129.0</ele><time>2026-03-22T09:56:42Z</time></trkpt><trkpt lat="46.113537912550484" lon="12.882304765992828"><ele>129.0</ele><time>2026-03-22T09:56:43Z</time></trkpt><trkpt lat="46.11345458801904" lon="12.882222141353509"><ele>129.0</ele><time>2026-03-22T09:56:44Z</time></trkpt><trkpt lat="46.113388703072694" lon="12.882153310692258"><ele>129.0</ele><time>2026-03-22T09:56:45Z</time></trkpt><trkpt lat="46.11331886658617" lon="12.882083780200617"><ele>129.0</ele><time>2026-03-22T09:56:46Z</time></trkpt><trkpt lat="46.113239964228434" lon="12.882010619977248"><ele>129.0</ele><time>2026-03-22T09:56:47Z</time></trkpt><trkpt lat="46.11314747925682" lon="12.88194255237459"><ele>129.0</ele><time>2026-03-22T09:56:48Z</time></trkpt><trkpt lat="46.11305487449696" lon="12.88187431712719"><ele>128.8</ele><time>2026-03-22T09:56:49Z</time></trkpt><trkpt lat="46.11298702944536" lon="12.881817046510294"><ele>128.60000000000002</ele><time>2026-03-22T09:56:50Z</time></trkpt><trkpt lat="46.11291297921148" lon="12.88175520968775"><ele>128.4</ele><time>2026-03-22T09:56:51Z</time></trkpt><trkpt lat="46.11282781359242" lon="12.881687337850279"><ele>128.20000000000002</ele><time>2026-03-22T09:56:52Z</time></trkpt><trkpt lat="46.11274859096741" lon="12.88162405657096"><ele>128.0</ele><time>2026-03-22T09:56:53Z</time></trkpt><trkpt lat="46.112606391485166" lon="12.881542531825735"><ele>127.60000000000001</ele><time>2026-03-22T09:56:55Z</time></trkpt><trkpt lat="46.11250726233827" lon="12.881501344504022"><ele>127.20000000000002</ele><time>2026-03-22T09:56:56Z</time></trkpt><trkpt lat="46.112404966179504" lon="12.881457365663517"><ele>126.8</ele><time>2026-03-22T09:56:57Z</time></trkpt><trkpt lat="46.112298875560704" lon="12.881420061609077"><ele>126.4</ele><time>2026-03-22T09:56:58Z</time></trkpt><trkpt lat="46.112192078425274" lon="12.881398337057004"><ele>126.0</ele><time>2026-03-22T09:56:59Z</time></trkpt><trkpt lat="46.11210677622221" lon="12.881379161916792"><ele>125.8</ele><time>2026-03-22T09:57:00Z</time></trkpt><trkpt lat="46.112020335338954" lon="12.881338291327232"><ele>125.6</ele><time>2026-03-22T09:57:01Z</time></trkpt><trkpt lat="46.11191661050854" lon="12.881291346746796"><ele>125.4</ele><time>2026-03-22T09:57:02Z</time></trkpt><trkpt lat="46.1118160833818" lon="12.881227728960875"><ele>125.2</ele><time>2026-03-22T09:57:03Z</time></trkpt><trkpt lat="46.11173983358381" lon="12.88118745297809"><ele>125.0</ele><time>2026-03-22T09:57:04Z</time></trkpt><trkpt lat="46.11166788082858" lon="12.88117283527421"><ele>125.25</ele><time>2026-03-22T09:57:05Z</time></trkpt><trkpt lat="46.111553498464346" lon="12.881240741985504"><ele>125.5</ele><time>2026-03-22T09:57:07Z</time></trkpt><trkpt lat="46.11149294735395" lon="12.881339211923871"><ele>125.75</ele><time>2026-03-22T09:57:08Z</time></trkpt><trkpt lat="46.11141085231151" lon="12.881492547920061"><ele>126.0</ele><time>2026-03-22T09:57:09Z</time></trkpt><trkpt lat="46.11131550246134" lon="12.88164873190474"><ele>126.0</ele><time>2026-03-22T09:57:10Z</time></trkpt><trkpt lat="46.11123510672921" lon="12.881764484673875"><ele>126.0</ele><time>2026-03-22T09:57:11Z</time></trkpt><trkpt lat="46.111169695628156" lon="12.881880060237446"><ele>126.0</ele><time>2026-03-22T09:57:12Z</time></trkpt><trkpt lat="46.11111503834264" lon="12.881962824986816"><ele>126.0</ele><time>2026-03-22T09:57:13Z</time></trkpt><trkpt lat="46.111034952217175" lon="12.881998560131223"><ele>126.0</ele><time>2026-03-22T09:57:15.001Z</time></trkpt><trkpt lat="46.11096463400923" lon="12.88189695104609"><ele>126.0</ele><time>2026-03-22T09:57:26.001Z</time></trkpt><trkpt lat="46.11093637244533" lon="12.88177606643825"><ele>126.0</ele><time>2026-03-22T09:57:27.001Z</time></trkpt><trkpt lat="46.11091289100986" lon="12.881634587995059"><ele>126.0</ele><time>2026-03-22T09:57:28.001Z</time></trkpt><trkpt lat="46.11089305376233" lon="12.881496169084054"><ele>126.0</ele><time>2026-03-22T09:57:29.001Z</time></trkpt><trkpt lat="46.11086994252397" lon="12.881325709006921"><ele>126.0</ele><time>2026-03-22T09:57:30.001Z</time></trkpt><trkpt lat="46.11084171069857" lon="12.881149171385431"><ele>126.0</ele><time>2026-03-22T09:57:31.001Z</time></trkpt><trkpt lat="46.11080612413958" lon="12.880951914354473"><ele>126.0</ele><time>2026-03-22T09:57:32.001Z</time></trkpt><trkpt lat="46.1107687071674" lon="12.880742403931114"><ele>126.0</ele><time>2026-03-22T09:57:33.001Z</time></trkpt><trkpt lat="46.11073208503549" lon="12.88053247986633"><ele>126.0</ele><time>2026-03-22T09:57:34.001Z</time></trkpt><trkpt lat="46.110698077456476" lon="12.88032457525117"><ele>125.5</ele><time>2026-03-22T09:57:35.001Z</time></trkpt><trkpt lat="46.110667443155045" lon="12.880125732242204"><ele>125.0</ele><time>2026-03-22T09:57:36.001Z</time></trkpt><trkpt lat="46.11063860881696" lon="12.879939281855197"><ele>124.5</ele><time>2026-03-22T09:57:37.001Z</time></trkpt><trkpt lat="46.11061112786751" lon="12.879763587263419"><ele>124.0</ele><time>2026-03-22T09:57:38.001Z</time></trkpt><trkpt lat="46.11058447951053" lon="12.879599051600433"><ele>124.0</ele><time>2026-03-22T09:57:39.001Z</time></trkpt><trkpt lat="46.11056061282182" lon="12.879447202098424"><ele>124.0</ele><time>2026-03-22T09:57:40.001Z</time></trkpt><trkpt lat="46.11053230370572" lon="12.879284300521034"><ele>124.0</ele><time>2026-03-22T09:57:41.001Z</time></trkpt><trkpt lat="46.11050256899058" lon="12.879114546611707"><ele>124.0</ele><time>2026-03-22T09:57:42.001Z</time></trkpt><trkpt lat="46.11047432537896" lon="12.878947037939989"><ele>124.2</ele><time>2026-03-22T09:57:43.001Z</time></trkpt><trkpt lat="46.110449879233165" lon="12.878790268819317"><ele>124.4</ele><time>2026-03-22T09:57:44.001Z</time></trkpt><trkpt lat="46.11042251928815" lon="12.878640822329693"><ele>124.6</ele><time>2026-03-22T09:57:45.001Z</time></trkpt><trkpt lat="46.11039035093894" lon="12.878498626154547"><ele>124.8</ele><time>2026-03-22T09:57:46.001Z</time></trkpt><trkpt lat="46.11035498482611" lon="12.878369816894722"><ele>125.0</ele><time>2026-03-22T09:57:47.001Z</time></trkpt><trkpt lat="46.11032099693132" lon="12.878252518913428"><ele>125.0</ele><time>2026-03-22T09:57:48.001Z</time></trkpt><trkpt lat="46.11028882916865" lon="12.878147165478689"><ele>125.0</ele><time>2026-03-22T09:57:49Z</time></trkpt><trkpt lat="46.110265079654475" lon="12.878040258585003"><ele>125.0</ele><time>2026-03-22T09:57:50Z</time></trkpt><trkpt lat="46.11020852539176" lon="12.877904356934748"><ele>125.0</ele><time>2026-03-22T09:57:51Z</time></trkpt><trkpt lat="46.110213589847554" lon="12.877678083247094"><ele>125.0</ele><time>2026-03-22T09:57:52Z</time></trkpt><trkpt lat="46.11019114043722" lon="12.8774260049384"><ele>124.66666666666666</ele><time>2026-03-22T09:57:53Z</time></trkpt><trkpt lat="46.11017014418172" lon="12.87714772918498"><ele>124.33333333333334</ele><time>2026-03-22T09:57:54Z</time></trkpt><trkpt lat="46.11014576284879" lon="12.876898712272617"><ele>124.0</ele><time>2026-03-22T09:57:55Z</time></trkpt><trkpt lat="46.11011385861129" lon="12.876664793634212"><ele>124.0</ele><time>2026-03-22T09:57:56Z</time></trkpt><trkpt lat="46.11007584456816" lon="12.876412934503781"><ele>124.0</ele><time>2026-03-22T09:57:57Z</time></trkpt><trkpt lat="46.1100386520476" lon="12.876145639049021"><ele>124.0</ele><time>2026-03-22T09:57:58Z</time></trkpt><trkpt lat="46.110003381441125" lon="12.875871904247386"><ele>124.66666666666667</ele><time>2026-03-22T09:57:59Z</time></trkpt><trkpt lat="46.109967704642436" lon="12.875559091514281"><ele>125.33333333333334</ele><time>2026-03-22T09:58:00Z</time></trkpt><trkpt lat="46.10993702667851" lon="12.87526073539748"><ele>126.0</ele><time>2026-03-22T09:58:01Z</time></trkpt><trkpt lat="46.10991774696636" lon="12.874995868267723"><ele>126.0</ele><time>2026-03-22T09:58:02Z</time></trkpt><trkpt lat="46.10989998019052" lon="12.874755390737404"><ele>126.0</ele><time>2026-03-22T09:58:03Z</time></trkpt><trkpt lat="46.109871694636425" lon="12.874539211928708"><ele>126.0</ele><time>2026-03-22T09:58:04Z</time></trkpt><trkpt lat="46.109827433914894" lon="12.87432930098278"><ele>126.33333333333334</ele><time>2026-03-22T09:58:05Z</time></trkpt><trkpt lat="46.109764922620265" lon="12.874132512856269"><ele>126.66666666666667</ele><time>2026-03-22T09:58:06Z</time></trkpt><trkpt lat="46.10968552559569" lon="12.873955148605353"><ele>127.0</ele><time>2026-03-22T09:58:07Z</time></trkpt><trkpt lat="46.109592118260345" lon="12.873772170439835"><ele>127.0</ele><time>2026-03-22T09:58:08Z</time></trkpt><trkpt lat="46.109489781897494" lon="12.873570604172805"><ele>127.0</ele><time>2026-03-22T09:58:09Z</time></trkpt><trkpt lat="46.10940669807745" lon="12.87338609592336"><ele>127.0</ele><time>2026-03-22T09:58:10Z</time></trkpt><trkpt lat="46.1093398216617" lon="12.873205747744333"><ele>127.5</ele><time>2026-03-22T09:58:11Z</time></trkpt><trkpt lat="46.109285607305985" lon="12.873019181096703"><ele>128.0</ele><time>2026-03-22T09:58:12Z</time></trkpt><trkpt lat="46.10924043291505" lon="12.872813461958911"><ele>128.5</ele><time>2026-03-22T09:58:13Z</time></trkpt><trkpt lat="46.109203612123" lon="12.872600998773855"><ele>129.0</ele><time>2026-03-22T09:58:14Z</time></trkpt><trkpt lat="46.10917065366525" lon="12.872385851210973"><ele>128.75</ele><time>2026-03-22T09:58:15Z</time></trkpt><trkpt lat="46.10914460481559" lon="12.872175678996435"><ele>128.5</ele><time>2026-03-22T09:58:16Z</time></trkpt><trkpt lat="46.10911689608524" lon="12.871965201483563"><ele>128.25</ele><time>2026-03-22T09:58:17Z</time></trkpt><trkpt lat="46.109079511226696" lon="12.871754243834662"><ele>128.0</ele><time>2026-03-22T09:58:18Z</time></trkpt><trkpt lat="46.109034367911896" lon="12.871542370664546"><ele>128.0</ele><time>2026-03-22T09:58:19Z</time></trkpt><trkpt lat="46.108977689672535" lon="12.871327496392508"><ele>128.0</ele><time>2026-03-22T09:58:20Z</time></trkpt><trkpt lat="46.10890186380906" lon="12.871085423796284"><ele>128.0</ele><time>2026-03-22T09:58:21Z</time></trkpt><trkpt lat="46.10881971745665" lon="12.870851443752615"><ele>128.66666666666666</ele><time>2026-03-22T09:58:22Z</time></trkpt><trkpt lat="46.10874213523749" lon="12.87064571247506"><ele>129.33333333333334</ele><time>2026-03-22T09:58:23Z</time></trkpt><trkpt lat="46.10866678637275" lon="12.870452789653621"><ele>130.0</ele><time>2026-03-22T09:58:24Z</time></trkpt><trkpt lat="46.10859361571944" lon="12.87026967163466"><ele>130.0</ele><time>2026-03-22T09:58:25Z</time></trkpt><trkpt lat="46.10852289600416" lon="12.870090862678152"><ele>130.0</ele><time>2026-03-22T09:58:26Z</time></trkpt><trkpt lat="46.10845860212104" lon="12.869922259884211"><ele>130.0</ele><time>2026-03-22T09:58:27Z</time></trkpt><trkpt lat="46.10839787176907" lon="12.869765316345378"><ele>130.0</ele><time>2026-03-22T09:58:28Z</time></trkpt><trkpt lat="46.10833548016318" lon="12.869621930429497"><ele>130.0</ele><time>2026-03-22T09:58:29Z</time></trkpt><trkpt lat="46.108266745946736" lon="12.869487447545193"><ele>130.0</ele><time>2026-03-22T09:58:30Z</time></trkpt><trkpt lat="46.1081865390169" lon="12.869359173534546"><ele>130.0</ele><time>2026-03-22T09:58:31Z</time></trkpt><trkpt lat="46.10810379124191" lon="12.869250346970441"><ele>130.0</ele><time>2026-03-22T09:58:32Z</time></trkpt><trkpt lat="46.10803014351586" lon="12.869141740510226"><ele>130.25</ele><time>2026-03-22T09:58:33Z</time></trkpt><trkpt lat="46.107930644934946" lon="12.86907394779432"><ele>130.5</ele><time>2026-03-22T09:58:34Z</time></trkpt><trkpt lat="46.107841965578906" lon="12.868983148449944"><ele>130.75</ele><time>2026-03-22T09:58:35Z</time></trkpt><trkpt lat="46.107754412611726" lon="12.868889060523726"><ele>131.0</ele><time>2026-03-22T09:58:36Z</time></trkpt><trkpt lat="46.10765770748971" lon="12.868777581763247"><ele>131.0</ele><time>2026-03-22T09:58:37Z</time></trkpt><trkpt lat="46.10755967316645" lon="12.868656308650491"><ele>131.0</ele><time>2026-03-22T09:58:38Z</time></trkpt><trkpt lat="46.10746690837822" lon="12.868515744650933"><ele>131.0</ele><time>2026-03-22T09:58:39Z</time></trkpt><trkpt lat="46.107374987664336" lon="12.8683645319364"><ele>131.0</ele><time>2026-03-22T09:58:40Z</time></trkpt><trkpt lat="46.107282523001295" lon="12.868208490460635"><ele>131.0</ele><time>2026-03-22T09:58:41Z</time></trkpt><trkpt lat="46.10719627703524" lon="12.868049721921697"><ele>131.0</ele><time>2026-03-22T09:58:42Z</time></trkpt><trkpt lat="46.10710848568369" lon="12.867902154967457"><ele>131.0</ele><time>2026-03-22T09:58:43Z</time></trkpt><trkpt lat="46.10702476914925" lon="12.867760343123315"><ele>131.0</ele><time>2026-03-22T09:58:44Z</time></trkpt><trkpt lat="46.106946716010285" lon="12.867629329545178"><ele>130.8</ele><time>2026-03-22T09:58:45Z</time></trkpt><trkpt lat="46.106871680129316" lon="12.867508150655402"><ele>130.6</ele><time>2026-03-22T09:58:46Z</time></trkpt><trkpt lat="46.10680422490745" lon="12.867389157260831"><ele>130.4</ele><time>2026-03-22T09:58:47Z</time></trkpt><trkpt lat="46.106741263832696" lon="12.86726931524337"><ele>130.2</ele><time>2026-03-22T09:58:48Z</time></trkpt><trkpt lat="46.1066789927611" lon="12.867147670093702"><ele>130.0</ele><time>2026-03-22T09:58:49Z</time></trkpt><trkpt lat="46.10660722562772" lon="12.867029847223668"><ele>130.0</ele><time>2026-03-22T09:58:50Z</time></trkpt><trkpt lat="46.10653472399459" lon="12.866918489628207"><ele>130.0</ele><time>2026-03-22T09:58:51Z</time></trkpt><trkpt lat="46.106465185549204" lon="12.866805050383075"><ele>130.0</ele><time>2026-03-22T09:58:52Z</time></trkpt><trkpt lat="46.106404869595764" lon="12.866691141314327"><ele>130.0</ele><time>2026-03-22T09:58:53Z</time></trkpt><trkpt lat="46.10634962371397" lon="12.866561310151765"><ele>130.0</ele><time>2026-03-22T09:58:54Z</time></trkpt><trkpt lat="46.10630440613786" lon="12.86641985406629"><ele>130.2</ele><time>2026-03-22T09:58:55Z</time></trkpt><trkpt lat="46.10625831921263" lon="12.86627482622201"><ele>130.4</ele><time>2026-03-22T09:58:56Z</time></trkpt><trkpt lat="46.10622283399418" lon="12.866122532776952"><ele>130.6</ele><time>2026-03-22T09:58:57Z</time></trkpt><trkpt lat="46.106196432127554" lon="12.865965137150726"><ele>130.8</ele><time>2026-03-22T09:58:58Z</time></trkpt><trkpt lat="46.106180503356924" lon="12.865800881915769"><ele>131.0</ele><time>2026-03-22T09:58:59Z</time></trkpt><trkpt lat="46.10616871312214" lon="12.865639429086782"><ele>131.0</ele><time>2026-03-22T09:59:00Z</time></trkpt><trkpt lat="46.10616210225937" lon="12.865490354921347"><ele>131.0</ele><time>2026-03-22T09:59:01Z</time></trkpt><trkpt lat="46.10614670658996" lon="12.865349883955485"><ele>131.0</ele><time>2026-03-22T09:59:02Z</time></trkpt><trkpt lat="46.10611564102562" lon="12.865209269964778"><ele>131.0</ele><time>2026-03-22T09:59:03Z</time></trkpt><trkpt lat="46.106068807266894" lon="12.865071677705915"><ele>131.0</ele><time>2026-03-22T09:59:04Z</time></trkpt><trkpt lat="46.10600758030393" lon="12.864946083635253"><ele>130.8</ele><time>2026-03-22T09:59:05Z</time></trkpt><trkpt lat="46.105937670052604" lon="12.86483892350143"><ele>130.6</ele><time>2026-03-22T09:59:06Z</time></trkpt><trkpt lat="46.105863986872876" lon="12.864744129085816"><ele>130.4</ele><time>2026-03-22T09:59:07Z</time></trkpt><trkpt lat="46.10580649634526" lon="12.864639731410728"><ele>130.2</ele><time>2026-03-22T09:59:08Z</time></trkpt><trkpt lat="46.105743072191544" lon="12.864554699513628"><ele>130.0</ele><time>2026-03-22T09:59:09Z</time></trkpt><trkpt lat="46.10567875749401" lon="12.864473595400694"><ele>130.0</ele><time>2026-03-22T09:59:10Z</time></trkpt><trkpt lat="46.10561284382276" lon="12.864407535623993"><ele>130.0</ele><time>2026-03-22T09:59:11Z</time></trkpt><trkpt lat="46.105532335362064" lon="12.864338016535068"><ele>130.0</ele><time>2026-03-22T09:59:12Z</time></trkpt><trkpt lat="46.10543669607817" lon="12.864286135632874"><ele>130.0</ele><time>2026-03-22T09:59:13Z</time></trkpt><trkpt lat="46.10533767785865" lon="12.864266283769359"><ele>130.0</ele><time>2026-03-22T09:59:14Z</time></trkpt><trkpt lat="46.105248361052304" lon="12.864227835205245"><ele>130.0</ele><time>2026-03-22T09:59:15Z</time></trkpt><trkpt lat="46.105160003467475" lon="12.864190824224957"><ele>130.0</ele><time>2026-03-22T09:59:16Z</time></trkpt><trkpt lat="46.105071667445735" lon="12.864149435817819"><ele>130.0</ele><time>2026-03-22T09:59:17Z</time></trkpt><trkpt lat="46.104981441812924" lon="12.864100385705786"><ele>130.0</ele><time>2026-03-22T09:59:18Z</time></trkpt><trkpt lat="46.10488791932296" lon="12.864042421289819"><ele>130.0</ele><time>2026-03-22T09:59:19Z</time></trkpt><trkpt lat="46.10479709663908" lon="12.863973028471865"><ele>130.0</ele><time>2026-03-22T09:59:20Z</time></trkpt><trkpt lat="46.10470947711227" lon="12.863895276499843"><ele>130.0</ele><time>2026-03-22T09:59:21.001Z</time></trkpt><trkpt lat="46.104630038392244" lon="12.863811635231357"><ele>130.0</ele><time>2026-03-22T09:59:22.001Z</time></trkpt><trkpt lat="46.10455637159043" lon="12.863725336030017"><ele>130.0</ele><time>2026-03-22T09:59:23.001Z</time></trkpt><trkpt lat="46.10447674624083" lon="12.863630053818074"><ele>130.0</ele><time>2026-03-22T09:59:24.001Z</time></trkpt><trkpt lat="46.10439962356381" lon="12.863507940891385"><ele>130.0</ele><time>2026-03-22T09:59:25.001Z</time></trkpt><trkpt lat="46.10431552981958" lon="12.86337982214039"><ele>130.0</ele><time>2026-03-22T09:59:26.001Z</time></trkpt><trkpt lat="46.104220439121185" lon="12.863249783596334"><ele>130.0</ele><time>2026-03-22T09:59:27.001Z</time></trkpt><trkpt lat="46.10409757692626" lon="12.863097804333309"><ele>130.0</ele><time>2026-03-22T09:59:28.001Z</time></trkpt><trkpt lat="46.10396228328025" lon="12.862925369787952"><ele>130.0</ele><time>2026-03-22T09:59:29.001Z</time></trkpt><trkpt lat="46.10384130430478" lon="12.86276896112605"><ele>130.0</ele><time>2026-03-22T09:59:30.001Z</time></trkpt><trkpt lat="46.10372542725043" lon="12.862616321699951"><ele>130.0</ele><time>2026-03-22T09:59:31.001Z</time></trkpt><trkpt lat="46.10360670897929" lon="12.862465389661413"><ele>130.0</ele><time>2026-03-22T09:59:32.001Z</time></trkpt><trkpt lat="46.103483910716555" lon="12.862332575657678"><ele>130.0</ele><time>2026-03-22T09:59:33.001Z</time></trkpt><trkpt lat="46.10336943370146" lon="12.862214960421536"><ele>130.0</ele><time>2026-03-22T09:59:34.001Z</time></trkpt><trkpt lat="46.10327078900407" lon="12.862105800944388"><ele>130.0</ele><time>2026-03-22T09:59:35.001Z</time></trkpt><trkpt lat="46.10318102540814" lon="12.861998460895013"><ele>130.33333333333334</ele><time>2026-03-22T09:59:36.001Z</time></trkpt><trkpt lat="46.103108556856796" lon="12.861887886329972"><ele>130.66666666666669</ele><time>2026-03-22T09:59:37.001Z</time></trkpt><trkpt lat="46.10304956551286" lon="12.861785754400682"><ele>131.0</ele><time>2026-03-22T09:59:38.001Z</time></trkpt><trkpt lat="46.10300338884368" lon="12.861691535325264"><ele>131.33333333333334</ele><time>2026-03-22T09:59:39.001Z</time></trkpt><trkpt lat="46.102967263288235" lon="12.861603221644076"><ele>131.66666666666666</ele><time>2026-03-22T09:59:40.001Z</time></trkpt><trkpt lat="46.10293366979203" lon="12.861523820429069"><ele>132.0</ele><time>2026-03-22T09:59:41.001Z</time></trkpt><trkpt lat="46.102905118453975" lon="12.861432023607469"><ele>132.5</ele><time>2026-03-22T09:59:42.001Z</time></trkpt><trkpt lat="46.10287244640107" lon="12.861323869745807"><ele>133.0</ele><time>2026-03-22T09:59:43.001Z</time></trkpt><trkpt lat="46.10283173372901" lon="12.861247853671971"><ele>133.5</ele><time>2026-03-22T09:59:44.001Z</time></trkpt><trkpt lat="46.102794348003684" lon="12.861157034206775"><ele>134.0</ele><time>2026-03-22T09:59:45.001Z</time></trkpt><trkpt lat="46.10242107070714" lon="12.861279309156616"><ele>133.4</ele><time>2026-03-22T09:59:46.001Z</time></trkpt><trkpt lat="46.10231215778255" lon="12.861252972569128"><ele>132.8</ele><time>2026-03-22T09:59:47.001Z</time></trkpt><trkpt lat="46.1022150968481" lon="12.861213187550424"><ele>132.2</ele><time>2026-03-22T09:59:48.001Z</time></trkpt><trkpt lat="46.10213054913802" lon="12.861169077793964"><ele>131.6</ele><time>2026-03-22T09:59:49.001Z</time></trkpt><trkpt lat="46.10205179537195" lon="12.861133685628786"><ele>131.0</ele><time>2026-03-22T09:59:50.001Z</time></trkpt><trkpt lat="46.10198217286563" lon="12.861108852891057"><ele>131.0</ele><time>2026-03-22T09:59:51.001Z</time></trkpt><trkpt lat="46.101907566147226" lon="12.861076018898661"><ele>131.0</ele><time>2026-03-22T09:59:52.001Z</time></trkpt><trkpt lat="46.101817583730096" lon="12.861023474367444"><ele>131.0</ele><time>2026-03-22T09:59:53.001Z</time></trkpt><trkpt lat="46.10171079872218" lon="12.86094568038433"><ele>131.0</ele><time>2026-03-22T09:59:54.001Z</time></trkpt><trkpt lat="46.101600907474506" lon="12.860847474644435"><ele>131.0</ele><time>2026-03-22T09:59:55Z</time></trkpt><trkpt lat="46.10149760584722" lon="12.860755524190319"><ele>130.8</ele><time>2026-03-22T09:59:56Z</time></trkpt><trkpt lat="46.10141762672407" lon="12.860672007112072"><ele>130.6</ele><time>2026-03-22T09:59:57Z</time></trkpt><trkpt lat="46.1013447659338" lon="12.86057974675247"><ele>130.4</ele><time>2026-03-22T09:59:58Z</time></trkpt><trkpt lat="46.10125802372384" lon="12.860476583462109"><ele>130.2</ele><time>2026-03-22T09:59:59Z</time></trkpt><trkpt lat="46.101166394908276" lon="12.860372519823194"><ele>130.0</ele><time>2026-03-22T10:00:00Z</time></trkpt><trkpt lat="46.101060128295515" lon="12.860267687527461"><ele>130.0</ele><time>2026-03-22T10:00:01Z</time></trkpt><trkpt lat="46.10095810393979" lon="12.860179655786354"><ele>130.0</ele><time>2026-03-22T10:00:02Z</time></trkpt><trkpt lat="46.10085840263847" lon="12.860096242571291"><ele>130.0</ele><time>2026-03-22T10:00:03Z</time></trkpt><trkpt lat="46.100747726329985" lon="12.860018001907244"><ele>130.0</ele><time>2026-03-22T10:00:04Z</time></trkpt><trkpt lat="46.10064935993538" lon="12.859944848919946"><ele>129.8</ele><time>2026-03-22T10:00:05Z</time></trkpt><trkpt lat="46.100549909163995" lon="12.859890773102986"><ele>129.6</ele><time>2026-03-22T10:00:06Z</time></trkpt><trkpt lat="46.1004696678207" lon="12.859847775124729"><ele>129.4</ele><time>2026-03-22T10:00:07Z</time></trkpt><trkpt lat="46.100393875488045" lon="12.859814132082427"><ele>129.2</ele><time>2026-03-22T10:00:08Z</time></trkpt><trkpt lat="46.10031534107037" lon="12.8597625932349"><ele>129.0</ele><time>2026-03-22T10:00:09Z</time></trkpt><trkpt lat="46.100236772482134" lon="12.859685003528492"><ele>129.0</ele><time>2026-03-22T10:00:10Z</time></trkpt><trkpt lat="46.1001476460677" lon="12.859584524665994"><ele>129.0</ele><time>2026-03-22T10:00:11Z</time></trkpt><trkpt lat="46.100049923147445" lon="12.859493984604292"><ele>129.0</ele><time>2026-03-22T10:00:12Z</time></trkpt><trkpt lat="46.09994574416294" lon="12.859405257515625"><ele>129.0</ele><time>2026-03-22T10:00:13Z</time></trkpt><trkpt lat="46.099844755333464" lon="12.859311730307782"><ele>129.2</ele><time>2026-03-22T10:00:14Z</time></trkpt><trkpt lat="46.09975573832112" lon="12.859225701545451"><ele>129.4</ele><time>2026-03-22T10:00:15Z</time></trkpt><trkpt lat="46.09966371771809" lon="12.859142561390126"><ele>129.6</ele><time>2026-03-22T10:00:16Z</time></trkpt><trkpt lat="46.09957596568131" lon="12.85905728197039"><ele>129.8</ele><time>2026-03-22T10:00:17Z</time></trkpt><trkpt lat="46.099471326420584" lon="12.858959650138287"><ele>130.0</ele><time>2026-03-22T10:00:18Z</time></trkpt><trkpt lat="46.09935020236434" lon="12.858840498612324"><ele>130.0</ele><time>2026-03-22T10:00:19Z</time></trkpt><trkpt lat="46.099243973510895" lon="12.858746426331125"><ele>130.0</ele><time>2026-03-22T10:00:20Z</time></trkpt><trkpt lat="46.09915069815842" lon="12.858667045256832"><ele>130.0</ele><time>2026-03-22T10:00:21Z</time></trkpt><trkpt lat="46.099072594273665" lon="12.858600189628392"><ele>130.0</ele><time>2026-03-22T10:00:22Z</time></trkpt><trkpt lat="46.09900566520405" lon="12.858541331895081"><ele>130.0</ele><time>2026-03-22T10:00:23Z</time></trkpt><trkpt lat="46.09894417740354" lon="12.8584968348668"><ele>129.25</ele><time>2026-03-22T10:00:24Z</time></trkpt><trkpt lat="46.098893611727036" lon="12.858555764693634"><ele>128.5</ele><time>2026-03-22T10:00:27Z</time></trkpt><trkpt lat="46.098897724935746" lon="12.858766045774097"><ele>127.75</ele><time>2026-03-22T10:00:29Z</time></trkpt><trkpt lat="46.09891558792822" lon="12.858932086859486"><ele>127.0</ele><time>2026-03-22T10:00:30Z</time></trkpt><trkpt lat="46.098927046483055" lon="12.859131203172568"><ele>127.0</ele><time>2026-03-22T10:00:31Z</time></trkpt><trkpt lat="46.098931279141674" lon="12.859339931933736"><ele>127.0</ele><time>2026-03-22T10:00:32Z</time></trkpt><trkpt lat="46.09893202937307" lon="12.85955490380403"><ele>127.0</ele><time>2026-03-22T10:00:33Z</time></trkpt><trkpt lat="46.09893422805361" lon="12.859704554873796"><ele>127.0</ele><time>2026-03-22T10:00:34Z</time></trkpt><trkpt lat="46.09893467033805" lon="12.859799420692948"><ele>127.0</ele><time>2026-03-22T10:00:35Z</time></trkpt><trkpt lat="46.0988784747107" lon="12.85987516394935"><ele>126.99999999999999</ele><time>2026-03-22T10:00:38Z</time></trkpt><trkpt lat="46.098825911705575" lon="12.859780595064981"><ele>126.99999999999999</ele><time>2026-03-22T10:00:40Z</time></trkpt><trkpt lat="46.09871585339922" lon="12.859770494281356"><ele>127.0</ele><time>2026-03-22T10:00:42Z</time></trkpt><trkpt lat="46.09866194919917" lon="12.859530628347667"><ele>127.0</ele><time>2026-03-22T10:00:45Z</time></trkpt><trkpt lat="46.09867530426582" lon="12.859337701579358"><ele>127.0</ele><time>2026-03-22T10:00:46Z</time></trkpt><trkpt lat="46.098679286457624" lon="12.859111383881967"><ele>127.0</ele><time>2026-03-22T10:00:47Z</time></trkpt><trkpt lat="46.09867504361941" lon="12.858859606551942"><ele>127.0</ele><time>2026-03-22T10:00:48Z</time></trkpt><trkpt lat="46.098666411183885" lon="12.858667254762247"><ele>127.00000000000001</ele><time>2026-03-22T10:00:49Z</time></trkpt><trkpt lat="46.09866172389861" lon="12.858509403992135"><ele>127.0</ele><time>2026-03-22T10:00:50Z</time></trkpt><trkpt lat="46.09865248421097" lon="12.858390552761392"><ele>127.0</ele><time>2026-03-22T10:00:51Z</time></trkpt><trkpt lat="46.0986151989435" lon="12.85830245027072"><ele>127.0</ele><time>2026-03-22T10:00:52Z</time></trkpt><trkpt lat="46.098659091671585" lon="12.85822319611104"><ele>127.00000000000001</ele><time>2026-03-22T10:00:53Z</time></trkpt><trkpt lat="46.098636395278696" lon="12.858063501286228"><ele>127.0</ele><time>2026-03-22T10:00:55Z</time></trkpt><trkpt lat="46.098225708554885" lon="12.858031955748546"><ele>127.0</ele><time>2026-03-22T10:00:56Z</time></trkpt><trkpt lat="46.09813736568392" lon="12.857990580851357"><ele>126.99999999999999</ele><time>2026-03-22T10:00:57Z</time></trkpt><trkpt lat="46.09805591250209" lon="12.857970207010768"><ele>126.99999999999999</ele><time>2026-03-22T10:00:58Z</time></trkpt><trkpt lat="46.09796710568094" lon="12.857982312182298"><ele>127.0</ele><time>2026-03-22T10:00:59Z</time></trkpt><trkpt lat="46.09784719313526" lon="12.858009230727985"><ele>127.0</ele><time>2026-03-22T10:01:00Z</time></trkpt><trkpt lat="46.09772069689448" lon="12.858044630888543"><ele>127.0</ele><time>2026-03-22T10:01:01Z</time></trkpt><trkpt lat="46.097603603969795" lon="12.858087748301147"><ele>127.0</ele><time>2026-03-22T10:01:02Z</time></trkpt><trkpt lat="46.09746827007961" lon="12.858139691669972"><ele>127.0</ele><time>2026-03-22T10:01:03Z</time></trkpt><trkpt lat="46.09732853929595" lon="12.85816896052485"><ele>127.0</ele><time>2026-03-22T10:01:04Z</time></trkpt><trkpt lat="46.09719090315823" lon="12.858173299744548"><ele>126.5</ele><time>2026-03-22T10:01:05Z</time></trkpt><trkpt lat="46.09706137674529" lon="12.85817358726386"><ele>126.0</ele><time>2026-03-22T10:01:06Z</time></trkpt><trkpt lat="46.09693634479613" lon="12.858163327171297"><ele>125.5</ele><time>2026-03-22T10:01:07Z</time></trkpt><trkpt lat="46.096812690384105" lon="12.858138265215205"><ele>125.0</ele><time>2026-03-22T10:01:08Z</time></trkpt><trkpt lat="46.09671662908558" lon="12.858123365220472"><ele>124.99999999999999</ele><time>2026-03-22T10:01:09Z</time></trkpt><trkpt lat="46.096635057655334" lon="12.858121626012773"><ele>125.0</ele><time>2026-03-22T10:01:10Z</time></trkpt><trkpt lat="46.096560956777616" lon="12.858094895428156"><ele>125.0</ele><time>2026-03-22T10:01:11Z</time></trkpt><trkpt lat="46.09649179142144" lon="12.858042063749073"><ele>125.0</ele><time>2026-03-22T10:01:12Z</time></trkpt><trkpt lat="46.096421308350685" lon="12.857973537222124"><ele>124.99999999999999</ele><time>2026-03-22T10:01:13Z</time></trkpt><trkpt lat="46.09634588666218" lon="12.857929205364108"><ele>125.0</ele><time>2026-03-22T10:01:14Z</time></trkpt><trkpt lat="46.096261778553824" lon="12.857931019345207"><ele>124.5</ele><time>2026-03-22T10:01:15Z</time></trkpt><trkpt lat="46.0961535218499" lon="12.857953372231561"><ele>124.0</ele><time>2026-03-22T10:01:16Z</time></trkpt><trkpt lat="46.09603127742143" lon="12.857990887388882"><ele>123.5</ele><time>2026-03-22T10:01:17Z</time></trkpt><trkpt lat="46.095900354343875" lon="12.858023536948535"><ele>123.0</ele><time>2026-03-22T10:01:18Z</time></trkpt><trkpt lat="46.09575947455924" lon="12.858050941904962"><ele>122.75</ele><time>2026-03-22T10:01:19Z</time></trkpt><trkpt lat="46.09563726615153" lon="12.858067650184935"><ele>122.5</ele><time>2026-03-22T10:01:20Z</time></trkpt><trkpt lat="46.09551508253843" lon="12.858056709791253"><ele>122.25</ele><time>2026-03-22T10:01:21Z</time></trkpt><trkpt lat="46.09538447749599" lon="12.858033293753106"><ele>122.0</ele><time>2026-03-22T10:01:22Z</time></trkpt><trkpt lat="46.09524995231353" lon="12.858017268483097"><ele>122.0</ele><time>2026-03-22T10:01:23Z</time></trkpt><trkpt lat="46.09511125817953" lon="12.8580130696478"><ele>122.0</ele><time>2026-03-22T10:01:24Z</time></trkpt><trkpt lat="46.09497481895526" lon="12.858003467944892"><ele>122.0</ele><time>2026-03-22T10:01:25Z</time></trkpt><trkpt lat="46.094859655449945" lon="12.857984897573663"><ele>122.0</ele><time>2026-03-22T10:01:26Z</time></trkpt><trkpt lat="46.09473441580194" lon="12.857971469851613"><ele>121.75</ele><time>2026-03-22T10:01:27Z</time></trkpt><trkpt lat="46.09460933075272" lon="12.857967053263112"><ele>121.5</ele><time>2026-03-22T10:01:28Z</time></trkpt><trkpt lat="46.094486502055474" lon="12.857969645395483"><ele>121.25</ele><time>2026-03-22T10:01:29.001Z</time></trkpt><trkpt lat="46.094375200994804" lon="12.857961889794309"><ele>121.0</ele><time>2026-03-22T10:01:30.001Z</time></trkpt><trkpt lat="46.094284365179135" lon="12.857935584533777"><ele>121.0</ele><time>2026-03-22T10:01:31.001Z</time></trkpt><trkpt lat="46.09419282506116" lon="12.857887421843058"><ele>121.0</ele><time>2026-03-22T10:01:32.001Z</time></trkpt><trkpt lat="46.094102030685654" lon="12.857805612642668"><ele>121.0</ele><time>2026-03-22T10:01:33.001Z</time></trkpt><trkpt lat="46.094019700043575" lon="12.857709519423457"><ele>121.0</ele><time>2026-03-22T10:01:34.001Z</time></trkpt><trkpt lat="46.09390458994053" lon="12.857639529943675"><ele>121.0</ele><time>2026-03-22T10:01:35.001Z</time></trkpt><trkpt lat="46.0937934895447" lon="12.857603155424028"><ele>120.75</ele><time>2026-03-22T10:01:36.001Z</time></trkpt><trkpt lat="46.093699751959505" lon="12.857537841682422"><ele>120.5</ele><time>2026-03-22T10:01:37.001Z</time></trkpt><trkpt lat="46.09360382904754" lon="12.857419870545293"><ele>120.25</ele><time>2026-03-22T10:01:38.001Z</time></trkpt><trkpt lat="46.09346280548309" lon="12.857377998231675"><ele>120.0</ele><time>2026-03-22T10:01:39.001Z</time></trkpt><trkpt lat="46.09338902341824" lon="12.857294397155718"><ele>120.0</ele><time>2026-03-22T10:01:40.001Z</time></trkpt><trkpt lat="46.0933373965458" lon="12.857234681286508"><ele>120.0</ele><time>2026-03-22T10:01:41.001Z</time></trkpt><trkpt lat="46.09328088655132" lon="12.8571677280041"><ele>120.0</ele><time>2026-03-22T10:01:43.001Z</time></trkpt><trkpt lat="46.09321899421409" lon="12.857124714092288"><ele>120.0</ele><time>2026-03-22T10:01:48.001Z</time></trkpt><trkpt lat="46.09309797648134" lon="12.856979712291885"><ele>120.0</ele><time>2026-03-22T10:01:50.001Z</time></trkpt><trkpt lat="46.09300736990716" lon="12.856883124899614"><ele>120.25</ele><time>2026-03-22T10:01:51.001Z</time></trkpt><trkpt lat="46.092905781535286" lon="12.856767243448662"><ele>120.5</ele><time>2026-03-22T10:01:52.001Z</time></trkpt><trkpt lat="46.09279250754868" lon="12.85664224940616"><ele>120.75</ele><time>2026-03-22T10:01:53.001Z</time></trkpt><trkpt lat="46.09267671786854" lon="12.856471084719985"><ele>121.0</ele><time>2026-03-22T10:01:54.001Z</time></trkpt><trkpt lat="46.092553599016696" lon="12.856322146469722"><ele>121.0</ele><time>2026-03-22T10:01:55.001Z</time></trkpt><trkpt lat="46.09241258198353" lon="12.856171296922687"><ele>121.0</ele><time>2026-03-22T10:01:56.001Z</time></trkpt><trkpt lat="46.09226845336484" lon="12.855977510970563"><ele>121.0</ele><time>2026-03-22T10:01:57.001Z</time></trkpt><trkpt lat="46.092115086435435" lon="12.855792147196857"><ele>121.33333333333334</ele><time>2026-03-22T10:01:58.001Z</time></trkpt><trkpt lat="46.091957788994804" lon="12.85560203311523"><ele>121.66666666666666</ele><time>2026-03-22T10:01:59.001Z</time></trkpt><trkpt lat="46.09179755947395" lon="12.855408374962709"><ele>122.0</ele><time>2026-03-22T10:02:00.001Z</time></trkpt><trkpt lat="46.09163116842168" lon="12.855207269855562"><ele>121.33333333333333</ele><time>2026-03-22T10:02:01Z</time></trkpt><trkpt lat="46.09146107035983" lon="12.855001873405962"><ele>120.66666666666666</ele><time>2026-03-22T10:02:02Z</time></trkpt><trkpt lat="46.091296915877585" lon="12.854804991636207"><ele>120.0</ele><time>2026-03-22T10:02:03Z</time></trkpt><trkpt lat="46.09114735619698" lon="12.854625614583297"><ele>120.0</ele><time>2026-03-22T10:02:04Z</time></trkpt><trkpt lat="46.091007705586016" lon="12.854458121879379"><ele>120.0</ele><time>2026-03-22T10:02:05Z</time></trkpt><trkpt lat="46.090847928188786" lon="12.854295722062478"><ele>120.0</ele><time>2026-03-22T10:02:06Z</time></trkpt><trkpt lat="46.09070287871393" lon="12.854113970995405"><ele>120.33333333333334</ele><time>2026-03-22T10:02:07Z</time></trkpt><trkpt lat="46.090564934442526" lon="12.853945223847074"><ele>120.66666666666667</ele><time>2026-03-22T10:02:08Z</time></trkpt><trkpt lat="46.090420014696384" lon="12.853771721669338"><ele>121.0</ele><time>2026-03-22T10:02:09Z</time></trkpt><trkpt lat="46.090258370755976" lon="12.853585332657572"><ele>120.66666666666667</ele><time>2026-03-22T10:02:10Z</time></trkpt><trkpt lat="46.09009040931941" lon="12.853385265963302"><ele>120.33333333333334</ele><time>2026-03-22T10:02:11Z</time></trkpt><trkpt lat="46.08992549017285" lon="12.853184389288982"><ele>120.0</ele><time>2026-03-22T10:02:12Z</time></trkpt><trkpt lat="46.08977041768704" lon="12.852993209582545"><ele>120.0</ele><time>2026-03-22T10:02:13Z</time></trkpt><trkpt lat="46.089627784053604" lon="12.852815568855338"><ele>120.0</ele><time>2026-03-22T10:02:14Z</time></trkpt><trkpt lat="46.089485182040896" lon="12.852639804349465"><ele>120.0</ele><time>2026-03-22T10:02:15Z</time></trkpt><trkpt lat="46.089345468665016" lon="12.85246765041904"><ele>119.66666666666666</ele><time>2026-03-22T10:02:16Z</time></trkpt><trkpt lat="46.089197556510946" lon="12.852289755936855"><ele>119.33333333333333</ele><time>2026-03-22T10:02:17Z</time></trkpt><trkpt lat="46.08903656101317" lon="12.852094193923724"><ele>119.0</ele><time>2026-03-22T10:02:18Z</time></trkpt><trkpt lat="46.088855647084166" lon="12.851876370059248"><ele>120.5</ele><time>2026-03-22T10:02:19Z</time></trkpt><trkpt lat="46.08866084562974" lon="12.851639566706803"><ele>122.0</ele><time>2026-03-22T10:02:20Z</time></trkpt><trkpt lat="46.08846844487882" lon="12.851405946249178"><ele>122.0</ele><time>2026-03-22T10:02:21Z</time></trkpt><trkpt lat="46.08827486424686" lon="12.851183280617859"><ele>122.0</ele><time>2026-03-22T10:02:22Z</time></trkpt><trkpt lat="46.08808098473526" lon="12.850952819604395"><ele>120.0</ele><time>2026-03-22T10:02:23Z</time></trkpt><trkpt lat="46.08789015306498" lon="12.850724483492549"><ele>118.0</ele><time>2026-03-22T10:02:24Z</time></trkpt><trkpt lat="46.087692050299076" lon="12.850487622854653"><ele>118.0</ele><time>2026-03-22T10:02:25Z</time></trkpt><trkpt lat="46.08749791642528" lon="12.850254603499566"><ele>118.0</ele><time>2026-03-22T10:02:26Z</time></trkpt><trkpt lat="46.08732580552781" lon="12.85004961798431"><ele>118.66666666666667</ele><time>2026-03-22T10:02:27Z</time></trkpt><trkpt lat="46.087167309556236" lon="12.84985778725511"><ele>119.33333333333334</ele><time>2026-03-22T10:02:28Z</time></trkpt><trkpt lat="46.087027518597495" lon="12.849686551881934"><ele>120.0</ele><time>2026-03-22T10:02:29Z</time></trkpt><trkpt lat="46.08689511323132" lon="12.849526203624382"><ele>120.0</ele><time>2026-03-22T10:02:30Z</time></trkpt><trkpt lat="46.08677602373426" lon="12.849382491554756"><ele>120.0</ele><time>2026-03-22T10:02:31Z</time></trkpt><trkpt lat="46.086667976098425" lon="12.849256560701654"><ele>120.0</ele><time>2026-03-22T10:02:32Z</time></trkpt><trkpt lat="46.08658127662462" lon="12.84913154725253"><ele>120.0</ele><time>2026-03-22T10:02:33Z</time></trkpt><trkpt lat="46.086473378463765" lon="12.849033869744629"><ele>118.33333333333334</ele><time>2026-03-22T10:02:34Z</time></trkpt><trkpt lat="46.08635770450387" lon="12.848894303614637"><ele>116.66666666666667</ele><time>2026-03-22T10:02:35Z</time></trkpt><trkpt lat="46.086235869768394" lon="12.848745530334385"><ele>115.0</ele><time>2026-03-22T10:02:36Z</time></trkpt><trkpt lat="46.086095756901024" lon="12.84857037876544"><ele>116.0</ele><time>2026-03-22T10:02:37Z</time></trkpt><trkpt lat="46.08595235489207" lon="12.84838535980821"><ele>117.0</ele><time>2026-03-22T10:02:38Z</time></trkpt><trkpt lat="46.085802529570564" lon="12.84819543781786"><ele>118.0</ele><time>2026-03-22T10:02:39Z</time></trkpt><trkpt lat="46.0856610395699" lon="12.848021787808488"><ele>118.0</ele><time>2026-03-22T10:02:40Z</time></trkpt><trkpt lat="46.08553157192566" lon="12.847865601462672"><ele>118.0</ele><time>2026-03-22T10:02:41Z</time></trkpt><trkpt lat="46.08540797759639" lon="12.847716453435904"><ele>118.0</ele><time>2026-03-22T10:02:42Z</time></trkpt><trkpt lat="46.085304599655856" lon="12.847591561935248"><ele>117.83333333333334</ele><time>2026-03-22T10:02:43Z</time></trkpt><trkpt lat="46.085211780492706" lon="12.847480074185501"><ele>117.66666666666667</ele><time>2026-03-22T10:02:44Z</time></trkpt><trkpt lat="46.085139972716895" lon="12.847387703767568"><ele>117.5</ele><time>2026-03-22T10:02:45Z</time></trkpt><trkpt lat="46.08509393171864" lon="12.847323291536595"><ele>117.33333333333334</ele><time>2026-03-22T10:02:46Z</time></trkpt><trkpt lat="46.085039397418846" lon="12.84724705376167"><ele>117.16666666666667</ele><time>2026-03-22T10:02:56Z</time></trkpt><trkpt lat="46.084992074788836" lon="12.847185388425638"><ele>117.0</ele><time>2026-03-22T10:02:57Z</time></trkpt><trkpt lat="46.084919190696546" lon="12.847091070710876"><ele>117.0</ele><time>2026-03-22T10:02:58Z</time></trkpt><trkpt lat="46.08483251806194" lon="12.84699015390575"><ele>117.0</ele><time>2026-03-22T10:02:59Z</time></trkpt><trkpt lat="46.08474151770955" lon="12.846885466766361"><ele>117.0</ele><time>2026-03-22T10:03:00Z</time></trkpt><trkpt lat="46.0846180318344" lon="12.846771689942004"><ele>117.0</ele><time>2026-03-22T10:03:01Z</time></trkpt><trkpt lat="46.08449186391179" lon="12.846611072776918"><ele>117.66666666666666</ele><time>2026-03-22T10:03:02Z</time></trkpt><trkpt lat="46.08433970984747" lon="12.846442608067939"><ele>118.33333333333333</ele><time>2026-03-22T10:03:03Z</time></trkpt><trkpt lat="46.084203942620725" lon="12.84627929365668"><ele>119.0</ele><time>2026-03-22T10:03:04Z</time></trkpt><trkpt lat="46.08408264948159" lon="12.846132932529146"><ele>119.0</ele><time>2026-03-22T10:03:05Z</time></trkpt><trkpt lat="46.08396956240004" lon="12.845966941688184"><ele>119.0</ele><time>2026-03-22T10:03:06Z</time></trkpt><trkpt lat="46.08383488745084" lon="12.845800376554463"><ele>119.0</ele><time>2026-03-22T10:03:07Z</time></trkpt><trkpt lat="46.08369760081345" lon="12.84563058127238"><ele>119.33333333333333</ele><time>2026-03-22T10:03:08Z</time></trkpt><trkpt lat="46.083569320570895" lon="12.845471925106366"><ele>119.66666666666666</ele><time>2026-03-22T10:03:09Z</time></trkpt><trkpt lat="46.083445627869885" lon="12.845318942696322"><ele>120.0</ele><time>2026-03-22T10:03:10Z</time></trkpt><trkpt lat="46.083329141191655" lon="12.845176049816514"><ele>119.75</ele><time>2026-03-22T10:03:11Z</time></trkpt><trkpt lat="46.08322471967797" lon="12.845049078772137"><ele>119.5</ele><time>2026-03-22T10:03:12Z</time></trkpt><trkpt lat="46.08312300672398" lon="12.84492540108479"><ele>119.25</ele><time>2026-03-22T10:03:13Z</time></trkpt><trkpt lat="46.08300757705965" lon="12.844814717192977"><ele>119.0</ele><time>2026-03-22T10:03:14Z</time></trkpt><trkpt lat="46.08290561190883" lon="12.844679000504723"><ele>119.0</ele><time>2026-03-22T10:03:15Z</time></trkpt><trkpt lat="46.08280832205283" lon="12.844555568342308"><ele>119.0</ele><time>2026-03-22T10:03:16Z</time></trkpt><trkpt lat="46.08271680415395" lon="12.844448306900691"><ele>119.0</ele><time>2026-03-22T10:03:17Z</time></trkpt><trkpt lat="46.08261580873552" lon="12.84433949933515"><ele>119.0</ele><time>2026-03-22T10:03:18Z</time></trkpt><trkpt lat="46.0824897286156" lon="12.844290984905227"><ele>119.0</ele><time>2026-03-22T10:03:19Z</time></trkpt><trkpt lat="46.08237145148338" lon="12.844286681267578"><ele>119.0</ele><time>2026-03-22T10:03:20Z</time></trkpt><trkpt lat="46.082270341925415" lon="12.844302586286988"><ele>119.0</ele><time>2026-03-22T10:03:21Z</time></trkpt><trkpt lat="46.082168626356854" lon="12.844326615698117"><ele>119.0</ele><time>2026-03-22T10:03:22Z</time></trkpt><trkpt lat="46.08204370755665" lon="12.844361137462101"><ele>119.0</ele><time>2026-03-22T10:03:23Z</time></trkpt><trkpt lat="46.08189933918234" lon="12.844404015946361"><ele>119.0</ele><time>2026-03-22T10:03:24Z</time></trkpt><trkpt lat="46.08173549800269" lon="12.844453672049235"><ele>119.0</ele><time>2026-03-22T10:03:25Z</time></trkpt><trkpt lat="46.08155658948928" lon="12.844509929115404"><ele>119.0</ele><time>2026-03-22T10:03:26Z</time></trkpt><trkpt lat="46.08137884525855" lon="12.844565742819034"><ele>119.0</ele><time>2026-03-22T10:03:27Z</time></trkpt><trkpt lat="46.08121884035891" lon="12.84461752189437"><ele>119.0</ele><time>2026-03-22T10:03:28Z</time></trkpt><trkpt lat="46.08107578872253" lon="12.844663949882225"><ele>119.0</ele><time>2026-03-22T10:03:29Z</time></trkpt><trkpt lat="46.08094447243481" lon="12.844706571286197"><ele>119.0</ele><time>2026-03-22T10:03:30Z</time></trkpt><trkpt lat="46.08080652217094" lon="12.844751399526494"><ele>119.0</ele><time>2026-03-22T10:03:31.001Z</time></trkpt><trkpt lat="46.080652243513796" lon="12.844801678987135"><ele>119.0</ele><time>2026-03-22T10:03:32.001Z</time></trkpt><trkpt lat="46.08048406184745" lon="12.844856345053069"><ele>118.66666666666666</ele><time>2026-03-22T10:03:33.001Z</time></trkpt><trkpt lat="46.08031946444983" lon="12.844908314885659"><ele>118.33333333333334</ele><time>2026-03-22T10:03:34.001Z</time></trkpt><trkpt lat="46.08015339904793" lon="12.844958441623422"><ele>118.0</ele><time>2026-03-22T10:03:35.001Z</time></trkpt><trkpt lat="46.07997966688516" lon="12.845010362560263"><ele>117.66666666666667</ele><time>2026-03-22T10:03:36.001Z</time></trkpt><trkpt lat="46.0797914325633" lon="12.845066617503575"><ele>117.33333333333334</ele><time>2026-03-22T10:03:37.001Z</time></trkpt><trkpt lat="46.079581485424896" lon="12.845129361427214"><ele>117.0</ele><time>2026-03-22T10:03:38.001Z</time></trkpt><trkpt lat="46.07935921439671" lon="12.845196404059319"><ele>116.66666666666666</ele><time>2026-03-22T10:03:39.001Z</time></trkpt><trkpt lat="46.079140562899504" lon="12.84526321763343"><ele>116.33333333333333</ele><time>2026-03-22T10:03:40.001Z</time></trkpt><trkpt lat="46.0789273022138" lon="12.84533288703563"><ele>116.0</ele><time>2026-03-22T10:03:41.001Z</time></trkpt><trkpt lat="46.0787129118539" lon="12.845404156674324"><ele>115.66666666666666</ele><time>2026-03-22T10:03:42.001Z</time></trkpt><trkpt lat="46.07849279431468" lon="12.845474844816442"><ele>115.33333333333334</ele><time>2026-03-22T10:03:43.001Z</time></trkpt><trkpt lat="46.07828787766035" lon="12.84553671939224"><ele>115.0</ele><time>2026-03-22T10:03:44.001Z</time></trkpt><trkpt lat="46.07809623573773" lon="12.845594547302998"><ele>115.0</ele><time>2026-03-22T10:03:45.001Z</time></trkpt><trkpt lat="46.07790223051069" lon="12.845650946440061"><ele>115.0</ele><time>2026-03-22T10:03:46.001Z</time></trkpt><trkpt lat="46.077711415408785" lon="12.845705773150916"><ele>115.0</ele><time>2026-03-22T10:03:47.001Z</time></trkpt><trkpt lat="46.0775294146676" lon="12.845758340918016"><ele>115.0</ele><time>2026-03-22T10:03:48.001Z</time></trkpt><trkpt lat="46.077343701486946" lon="12.845815619692308"><ele>115.0</ele><time>2026-03-22T10:03:49.001Z</time></trkpt><trkpt lat="46.07714542696094" lon="12.84587880345112"><ele>115.0</ele><time>2026-03-22T10:03:50.001Z</time></trkpt><trkpt lat="46.07694516527594" lon="12.845942620621267"><ele>114.66666666666667</ele><time>2026-03-22T10:03:51.001Z</time></trkpt><trkpt lat="46.07673682891773" lon="12.846009010864622"><ele>114.33333333333334</ele><time>2026-03-22T10:03:52.001Z</time></trkpt><trkpt lat="46.076526619608984" lon="12.846075997879458"><ele>114.0</ele><time>2026-03-22T10:03:53.001Z</time></trkpt><trkpt lat="46.07632608479839" lon="12.846138060084698"><ele>113.66666666666666</ele><time>2026-03-22T10:03:54.001Z</time></trkpt><trkpt lat="46.07613253170878" lon="12.846197275608723"><ele>113.33333333333333</ele><time>2026-03-22T10:03:55.001Z</time></trkpt><trkpt lat="46.07594235473839" lon="12.846255456229873"><ele>113.0</ele><time>2026-03-22T10:03:56.001Z</time></trkpt><trkpt lat="46.07575011636881" lon="12.84631426746573"><ele>113.0</ele><time>2026-03-22T10:03:57.001Z</time></trkpt><trkpt lat="46.075555521958336" lon="12.846375512441192"><ele>113.0</ele><time>2026-03-22T10:03:58.001Z</time></trkpt><trkpt lat="46.07535977201104" lon="12.846438627769931"><ele>113.0</ele><time>2026-03-22T10:03:59.001Z</time></trkpt><trkpt lat="46.075150791538114" lon="12.846506008958693"><ele>113.0</ele><time>2026-03-22T10:04:00.001Z</time></trkpt><trkpt lat="46.07494410383937" lon="12.846572650849982"><ele>113.0</ele><time>2026-03-22T10:04:01.001Z</time></trkpt><trkpt lat="46.074731511404046" lon="12.84663836623048"><ele>113.0</ele><time>2026-03-22T10:04:02.001Z</time></trkpt><trkpt lat="46.07452589482509" lon="12.846702227049104"><ele>113.0</ele><time>2026-03-22T10:04:03.001Z</time></trkpt><trkpt lat="46.07433458124237" lon="12.846761765491392"><ele>113.0</ele><time>2026-03-22T10:04:04.001Z</time></trkpt><trkpt lat="46.07413546608142" lon="12.846821431877641"><ele>113.0</ele><time>2026-03-22T10:04:05.001Z</time></trkpt><trkpt lat="46.07393704318502" lon="12.846880890871216"><ele>111.66666666666666</ele><time>2026-03-22T10:04:06.001Z</time></trkpt><trkpt lat="46.07373662620621" lon="12.846942402286402"><ele>110.33333333333334</ele><time>2026-03-22T10:04:07Z</time></trkpt><trkpt lat="46.07353613312189" lon="12.847005372701908"><ele>109.0</ele><time>2026-03-22T10:04:08Z</time></trkpt><trkpt lat="46.073334794935214" lon="12.847065824458285"><ele>109.0</ele><time>2026-03-22T10:04:09Z</time></trkpt><trkpt lat="46.07313111830036" lon="12.847125364453516"><ele>109.0</ele><time>2026-03-22T10:04:10Z</time></trkpt><trkpt lat="46.0729277054574" lon="12.84718575817056"><ele>109.0</ele><time>2026-03-22T10:04:11Z</time></trkpt><trkpt lat="46.07272447064356" lon="12.847250354601226"><ele>109.0</ele><time>2026-03-22T10:04:12Z</time></trkpt><trkpt lat="46.07251631644956" lon="12.847316514561799"><ele>109.0</ele><time>2026-03-22T10:04:13Z</time></trkpt><trkpt lat="46.07230560986216" lon="12.847383243131912"><ele>109.0</ele><time>2026-03-22T10:04:14Z</time></trkpt><trkpt lat="46.07208901653497" lon="12.847447135403842"><ele>109.0</ele><time>2026-03-22T10:04:15Z</time></trkpt><trkpt lat="46.07186018823182" lon="12.847517838843093"><ele>109.0</ele><time>2026-03-22T10:04:16Z</time></trkpt><trkpt lat="46.0716234749816" lon="12.84759540239189"><ele>108.66666666666667</ele><time>2026-03-22T10:04:17Z</time></trkpt><trkpt lat="46.07140401818018" lon="12.847667311403914"><ele>108.33333333333334</ele><time>2026-03-22T10:04:18Z</time></trkpt><trkpt lat="46.07119053063476" lon="12.847736192582222"><ele>108.0</ele><time>2026-03-22T10:04:19Z</time></trkpt><trkpt lat="46.07099222461922" lon="12.847797116411986"><ele>108.0</ele><time>2026-03-22T10:04:20Z</time></trkpt><trkpt lat="46.07080393331964" lon="12.847854031999757"><ele>108.0</ele><time>2026-03-22T10:04:21Z</time></trkpt><trkpt lat="46.0706239100731" lon="12.847908448363137"><ele>108.0</ele><time>2026-03-22T10:04:22Z</time></trkpt><trkpt lat="46.070464397800485" lon="12.847956664770775"><ele>108.0</ele><time>2026-03-22T10:04:23Z</time></trkpt><trkpt lat="46.07031630075073" lon="12.848001430689477"><ele>108.0</ele><time>2026-03-22T10:04:24Z</time></trkpt><trkpt lat="46.070162886779364" lon="12.848047803758309"><ele>108.0</ele><time>2026-03-22T10:04:25Z</time></trkpt><trkpt lat="46.069986054070334" lon="12.84810208569224"><ele>107.33333333333334</ele><time>2026-03-22T10:04:26Z</time></trkpt><trkpt lat="46.06979432721292" lon="12.84816104504601"><ele>106.66666666666667</ele><time>2026-03-22T10:04:27Z</time></trkpt><trkpt lat="46.06959176524711" lon="12.848223336408429"><ele>106.0</ele><time>2026-03-22T10:04:28Z</time></trkpt><trkpt lat="46.0693729632476" lon="12.848290621865086"><ele>106.0</ele><time>2026-03-22T10:04:29Z</time></trkpt><trkpt lat="46.069146751103695" lon="12.848360186068804"><ele>106.0</ele><time>2026-03-22T10:04:30Z</time></trkpt><trkpt lat="46.06891671634285" lon="12.848430925807909"><ele>106.0</ele><time>2026-03-22T10:04:31Z</time></trkpt><trkpt lat="46.06868946871035" lon="12.848500799869731"><ele>106.0</ele><time>2026-03-22T10:04:32Z</time></trkpt><trkpt lat="46.068465443738184" lon="12.848568843689954"><ele>105.66666666666667</ele><time>2026-03-22T10:04:33Z</time></trkpt><trkpt lat="46.068243995831686" lon="12.848636104765218"><ele>105.33333333333334</ele><time>2026-03-22T10:04:34Z</time></trkpt><trkpt lat="46.06803578132105" lon="12.848699346411797"><ele>105.0</ele><time>2026-03-22T10:04:35Z</time></trkpt><trkpt lat="46.06782546804363" lon="12.848764816118917"><ele>105.0</ele><time>2026-03-22T10:04:36Z</time></trkpt><trkpt lat="46.06762557927883" lon="12.848827839130594"><ele>105.0</ele><time>2026-03-22T10:04:37Z</time></trkpt><trkpt lat="46.06743484767403" lon="12.848887688816655"><ele>105.0</ele><time>2026-03-22T10:04:38Z</time></trkpt><trkpt lat="46.06724098052381" lon="12.848946297932782"><ele>104.33333333333334</ele><time>2026-03-22T10:04:39Z</time></trkpt><trkpt lat="46.067037751860774" lon="12.849007737195135"><ele>103.66666666666667</ele><time>2026-03-22T10:04:40Z</time></trkpt><trkpt lat="46.06683584219475" lon="12.849069589273785"><ele>103.0</ele><time>2026-03-22T10:04:41Z</time></trkpt><trkpt lat="46.066640322723494" lon="12.849130888228522"><ele>102.33333333333334</ele><time>2026-03-22T10:04:42Z</time></trkpt><trkpt lat="46.06645764152812" lon="12.849189255855581"><ele>101.66666666666666</ele><time>2026-03-22T10:04:43Z</time></trkpt><trkpt lat="46.06628940355126" lon="12.849243009716652"><ele>101.0</ele><time>2026-03-22T10:04:44Z</time></trkpt><trkpt lat="46.06612872873353" lon="12.849293771596985"><ele>101.0</ele><time>2026-03-22T10:04:45Z</time></trkpt><trkpt lat="46.06597454146461" lon="12.849342451445429"><ele>101.0</ele><time>2026-03-22T10:04:46Z</time></trkpt><trkpt lat="46.06582365601437" lon="12.84939008892085"><ele>101.0</ele><time>2026-03-22T10:04:47Z</time></trkpt><trkpt lat="46.06568108239287" lon="12.849435102165225"><ele>101.25</ele><time>2026-03-22T10:04:48Z</time></trkpt><trkpt lat="46.06554946301133" lon="12.8494766579238"><ele>101.5</ele><time>2026-03-22T10:04:49Z</time></trkpt><trkpt lat="46.065424333240436" lon="12.849516165991535"><ele>101.75</ele><time>2026-03-22T10:04:50Z</time></trkpt><trkpt lat="46.06530591940712" lon="12.84955355359125"><ele>102.0</ele><time>2026-03-22T10:04:51Z</time></trkpt><trkpt lat="46.06520655868517" lon="12.84965739192138"><ele>102.0</ele><time>2026-03-22T10:04:52Z</time></trkpt><trkpt lat="46.065099189776106" lon="12.849686347367207"><ele>102.0</ele><time>2026-03-22T10:04:53Z</time></trkpt><trkpt lat="46.06499847642747" lon="12.849719510230079"><ele>102.0</ele><time>2026-03-22T10:04:54Z</time></trkpt><trkpt lat="46.06491041219984" lon="12.849745858747278"><ele>102.0</ele><time>2026-03-22T10:04:55Z</time></trkpt><trkpt lat="46.064826456625724" lon="12.849763328042142"><ele>102.0</ele><time>2026-03-22T10:04:56Z</time></trkpt><trkpt lat="46.06474418264342" lon="12.849766197981523"><ele>102.0</ele><time>2026-03-22T10:04:57Z</time></trkpt><trkpt lat="46.064657493254195" lon="12.849751471836097"><ele>102.0</ele><time>2026-03-22T10:04:58Z</time></trkpt><trkpt lat="46.064568451332725" lon="12.849714498580003"><ele>102.0</ele><time>2026-03-22T10:04:59Z</time></trkpt><trkpt lat="46.06447102094611" lon="12.849654741915208"><ele>102.0</ele><time>2026-03-22T10:05:00Z</time></trkpt><trkpt lat="46.064368748278106" lon="12.849565497467285"><ele>102.0</ele><time>2026-03-22T10:05:01Z</time></trkpt><trkpt lat="46.064252420333844" lon="12.849447003488102"><ele>102.0</ele><time>2026-03-22T10:05:02Z</time></trkpt><trkpt lat="46.064134137621444" lon="12.849320314019264"><ele>102.0</ele><time>2026-03-22T10:05:03Z</time></trkpt><trkpt lat="46.06402080231962" lon="12.849201932443796"><ele>102.0</ele><time>2026-03-22T10:05:04Z</time></trkpt><trkpt lat="46.06389530626828" lon="12.849078972712398"><ele>102.0</ele><time>2026-03-22T10:05:05Z</time></trkpt><trkpt lat="46.06374250222643" lon="12.848935113562336"><ele>102.0</ele><time>2026-03-22T10:05:06Z</time></trkpt><trkpt lat="46.06357449492731" lon="12.848773067235488"><ele>102.0</ele><time>2026-03-22T10:05:07Z</time></trkpt><trkpt lat="46.06339376304086" lon="12.84859098838468"><ele>102.0</ele><time>2026-03-22T10:05:08Z</time></trkpt><trkpt lat="46.063204535840875" lon="12.848401810065502"><ele>102.0</ele><time>2026-03-22T10:05:09Z</time></trkpt><trkpt lat="46.063009402327715" lon="12.848213117601171"><ele>102.0</ele><time>2026-03-22T10:05:10Z</time></trkpt><trkpt lat="46.062819322041975" lon="12.848031726265951"><ele>102.0</ele><time>2026-03-22T10:05:11Z</time></trkpt><trkpt lat="46.062647156538425" lon="12.847863426327642"><ele>102.0</ele><time>2026-03-22T10:05:12Z</time></trkpt><trkpt lat="46.06248971921019" lon="12.847702919823188"><ele>102.0</ele><time>2026-03-22T10:05:13Z</time></trkpt><trkpt lat="46.062336382024974" lon="12.847550224432489"><ele>101.66666666666666</ele><time>2026-03-22T10:05:14Z</time></trkpt><trkpt lat="46.06218346054933" lon="12.847397942347957"><ele>101.33333333333333</ele><time>2026-03-22T10:05:15Z</time></trkpt><trkpt lat="46.06203306584031" lon="12.84724343155206"><ele>101.0</ele><time>2026-03-22T10:05:16Z</time></trkpt><trkpt lat="46.06189243833052" lon="12.84708772633941"><ele>101.0</ele><time>2026-03-22T10:05:17Z</time></trkpt><trkpt lat="46.06174987523272" lon="12.846918157499116"><ele>101.0</ele><time>2026-03-22T10:05:18Z</time></trkpt><trkpt lat="46.061608245533805" lon="12.846738485324874"><ele>101.0</ele><time>2026-03-22T10:05:19Z</time></trkpt><trkpt lat="46.061477085889386" lon="12.846565115066639"><ele>100.66666666666666</ele><time>2026-03-22T10:05:20Z</time></trkpt><trkpt lat="46.06135351986502" lon="12.846398754518932"><ele>100.33333333333334</ele><time>2026-03-22T10:05:21Z</time></trkpt><trkpt lat="46.06123318420517" lon="12.84624080546019"><ele>100.0</ele><time>2026-03-22T10:05:22.001Z</time></trkpt><trkpt lat="46.06110482864761" lon="12.846071896780364"><ele>100.0</ele><time>2026-03-22T10:05:23.001Z</time></trkpt><trkpt lat="46.06098620101019" lon="12.845913376044683"><ele>100.0</ele><time>2026-03-22T10:05:24.001Z</time></trkpt><trkpt lat="46.06086305535707" lon="12.845750666455512"><ele>100.0</ele><time>2026-03-22T10:05:25.001Z</time></trkpt><trkpt lat="46.06075094109927" lon="12.84559932123266"><ele>100.0</ele><time>2026-03-22T10:05:26.001Z</time></trkpt><trkpt lat="46.060649807430714" lon="12.845457729804002"><ele>100.0</ele><time>2026-03-22T10:05:27.001Z</time></trkpt><trkpt lat="46.060557125493695" lon="12.845327916030277"><ele>100.0</ele><time>2026-03-22T10:05:28.001Z</time></trkpt><trkpt lat="46.06046368407259" lon="12.845203517139193"><ele>100.0</ele><time>2026-03-22T10:05:29.001Z</time></trkpt><trkpt lat="46.060351568530095" lon="12.845049348216913"><ele>100.0</ele><time>2026-03-22T10:05:30.001Z</time></trkpt><trkpt lat="46.06021518603436" lon="12.844861125127984"><ele>100.0</ele><time>2026-03-22T10:05:31.001Z</time></trkpt><trkpt lat="46.060081659850795" lon="12.844682158820802"><ele>100.0</ele><time>2026-03-22T10:05:32.001Z</time></trkpt><trkpt lat="46.059935905517115" lon="12.844494566793077"><ele>100.0</ele><time>2026-03-22T10:05:33.001Z</time></trkpt><trkpt lat="46.05977906345542" lon="12.844289096781367"><ele>100.0</ele><time>2026-03-22T10:05:34.001Z</time></trkpt><trkpt lat="46.05963247835311" lon="12.844094901674268"><ele>100.0</ele><time>2026-03-22T10:05:35.001Z</time></trkpt><trkpt lat="46.059496667441266" lon="12.843915274448568"><ele>100.0</ele><time>2026-03-22T10:05:36.001Z</time></trkpt><trkpt lat="46.059378694852356" lon="12.843757873066394"><ele>100.0</ele><time>2026-03-22T10:05:37.001Z</time></trkpt><trkpt lat="46.059264322690446" lon="12.843607380904501"><ele>100.0</ele><time>2026-03-22T10:05:38.001Z</time></trkpt><trkpt lat="46.05916698584709" lon="12.843477526000601"><ele>100.0</ele><time>2026-03-22T10:05:39.001Z</time></trkpt><trkpt lat="46.05906676116597" lon="12.843341090642515"><ele>99.33333333333334</ele><time>2026-03-22T10:05:40.001Z</time></trkpt><trkpt lat="46.05895475574316" lon="12.843186093772658"><ele>98.66666666666666</ele><time>2026-03-22T10:05:41.001Z</time></trkpt><trkpt lat="46.05883080711276" lon="12.843023813232254"><ele>98.0</ele><time>2026-03-22T10:05:42.001Z</time></trkpt><trkpt lat="46.05870411128037" lon="12.842860252073638"><ele>98.0</ele><time>2026-03-22T10:05:43.001Z</time></trkpt><trkpt lat="46.05857293413759" lon="12.842690471208458"><ele>98.0</ele><time>2026-03-22T10:05:44.001Z</time></trkpt><trkpt lat="46.05845033179778" lon="12.842530537634213"><ele>98.0</ele><time>2026-03-22T10:05:45.001Z</time></trkpt><trkpt lat="46.05833603222502" lon="12.842378906570872"><ele>98.25</ele><time>2026-03-22T10:05:46.001Z</time></trkpt><trkpt lat="46.05822803348215" lon="12.842234850737892"><ele>98.5</ele><time>2026-03-22T10:05:47.001Z</time></trkpt><trkpt lat="46.0581279346564" lon="12.842098020758508"><ele>98.75</ele><time>2026-03-22T10:05:48.001Z</time></trkpt><trkpt lat="46.058032533458025" lon="12.8419732037679"><ele>99.0</ele><time>2026-03-22T10:05:49.001Z</time></trkpt><trkpt lat="46.05794046743943" lon="12.841852808496682"><ele>99.2</ele><time>2026-03-22T10:05:50.001Z</time></trkpt><trkpt lat="46.05786310580224" lon="12.841696547364576"><ele>99.4</ele><time>2026-03-22T10:05:51.001Z</time></trkpt><trkpt lat="46.05777885254881" lon="12.841577807884416"><ele>99.6</ele><time>2026-03-22T10:05:52.001Z</time></trkpt><trkpt lat="46.05770523169688" lon="12.84147250567167"><ele>99.8</ele><time>2026-03-22T10:05:53.001Z</time></trkpt><trkpt lat="46.0576436392263" lon="12.841384408031336"><ele>100.0</ele><time>2026-03-22T10:05:54.001Z</time></trkpt><trkpt lat="46.0575905151526" lon="12.84130895488102"><ele>100.0</ele><time>2026-03-22T10:05:55.001Z</time></trkpt><trkpt lat="46.05754204147983" lon="12.84124151064724"><ele>100.0</ele><time>2026-03-22T10:05:56.001Z</time></trkpt><trkpt lat="46.05745020104182" lon="12.84112016020786"><ele>100.0</ele><time>2026-03-22T10:05:58.001Z</time></trkpt><trkpt lat="46.05739433011272" lon="12.841047679482282"><ele>100.0</ele><time>2026-03-22T10:05:59.001Z</time></trkpt><trkpt lat="46.05732607851618" lon="12.840956856194953"><ele>100.0</ele><time>2026-03-22T10:06:00.001Z</time></trkpt><trkpt lat="46.057242532159144" lon="12.840866104853585"><ele>99.75</ele><time>2026-03-22T10:06:01.001Z</time></trkpt><trkpt lat="46.057174915259935" lon="12.840741259351955"><ele>99.5</ele><time>2026-03-22T10:06:02.001Z</time></trkpt><trkpt lat="46.05711493584716" lon="12.840604097563945"><ele>99.25</ele><time>2026-03-22T10:06:03.001Z</time></trkpt><trkpt lat="46.057057513418314" lon="12.84044324971887"><ele>99.0</ele><time>2026-03-22T10:06:04.001Z</time></trkpt><trkpt lat="46.057010364646665" lon="12.840275768577841"><ele>98.66666666666666</ele><time>2026-03-22T10:06:05.001Z</time></trkpt><trkpt lat="46.05696241687687" lon="12.840088920507478"><ele>98.33333333333333</ele><time>2026-03-22T10:06:06.001Z</time></trkpt><trkpt lat="46.05691096457707" lon="12.839838377134143"><ele>98.0</ele><time>2026-03-22T10:06:07.001Z</time></trkpt><trkpt lat="46.05686750250178" lon="12.839517882561342"><ele>98.0</ele><time>2026-03-22T10:06:08.001Z</time></trkpt><trkpt lat="46.05679422926991" lon="12.839201383798452"><ele>98.0</ele><time>2026-03-22T10:06:09.001Z</time></trkpt><trkpt lat="46.05674610896607" lon="12.838905314395408"><ele>98.0</ele><time>2026-03-22T10:06:10.001Z</time></trkpt><trkpt lat="46.05668294970653" lon="12.838555958438707"><ele>97.0</ele><time>2026-03-22T10:06:11.001Z</time></trkpt><trkpt lat="46.056602771487405" lon="12.838175971799572"><ele>96.0</ele><time>2026-03-22T10:06:12.001Z</time></trkpt><trkpt lat="46.056523485004604" lon="12.837781026672543"><ele>96.0</ele><time>2026-03-22T10:06:13Z</time></trkpt><trkpt lat="46.056440594649246" lon="12.837362572235762"><ele>96.0</ele><time>2026-03-22T10:06:14Z</time></trkpt><trkpt lat="46.05635694841129" lon="12.836936238509669"><ele>96.5</ele><time>2026-03-22T10:06:15Z</time></trkpt><trkpt lat="46.056278029515134" lon="12.836545342435782"><ele>97.0</ele><time>2026-03-22T10:06:16Z</time></trkpt><trkpt lat="46.05620348877585" lon="12.836174759569994"><ele>97.5</ele><time>2026-03-22T10:06:17Z</time></trkpt><trkpt lat="46.056132258514275" lon="12.835814008835252"><ele>98.0</ele><time>2026-03-22T10:06:18Z</time></trkpt><trkpt lat="46.0560647790492" lon="12.835469290765666"><ele>98.0</ele><time>2026-03-22T10:06:19Z</time></trkpt><trkpt lat="46.05599911486785" lon="12.835123036495597"><ele>98.0</ele><time>2026-03-22T10:06:20Z</time></trkpt><trkpt lat="46.05592863818944" lon="12.83475867138974"><ele>98.0</ele><time>2026-03-22T10:06:21Z</time></trkpt><trkpt lat="46.05584928809977" lon="12.834364544824572"><ele>98.0</ele><time>2026-03-22T10:06:22Z</time></trkpt><trkpt lat="46.05577809325415" lon="12.834018001102127"><ele>97.25</ele><time>2026-03-22T10:06:23Z</time></trkpt><trkpt lat="46.055724974371884" lon="12.833773974903588"><ele>96.5</ele><time>2026-03-22T10:06:24Z</time></trkpt><trkpt lat="46.055688546224225" lon="12.833591315858595"><ele>95.75</ele><time>2026-03-22T10:06:25Z</time></trkpt><trkpt lat="46.055662121184625" lon="12.83345681921081"><ele>95.0</ele><time>2026-03-22T10:06:26Z</time></trkpt><trkpt lat="46.05562933184932" lon="12.833332586101907"><ele>95.0</ele><time>2026-03-22T10:06:28Z</time></trkpt><trkpt lat="46.05554834717462" lon="12.8333267329344"><ele>95.0</ele><time>2026-03-22T10:06:32Z</time></trkpt><trkpt lat="46.0554103191879" lon="12.83332319141306"><ele>95.0</ele><time>2026-03-22T10:06:34Z</time></trkpt><trkpt lat="46.05528025565042" lon="12.833317700386505"><ele>95.0</ele><time>2026-03-22T10:06:35Z</time></trkpt><trkpt lat="46.05514734866804" lon="12.833312089316395"><ele>95.0</ele><time>2026-03-22T10:06:36Z</time></trkpt><trkpt lat="46.05498729876218" lon="12.833305332325219"><ele>95.0</ele><time>2026-03-22T10:06:37Z</time></trkpt><trkpt lat="46.05479246783579" lon="12.833297106948413"><ele>95.0</ele><time>2026-03-22T10:06:38Z</time></trkpt><trkpt lat="46.05457882410539" lon="12.833287937230695"><ele>95.0</ele><time>2026-03-22T10:06:39Z</time></trkpt><trkpt lat="46.05436254747444" lon="12.83327736651667"><ele>95.0</ele><time>2026-03-22T10:06:40Z</time></trkpt><trkpt lat="46.05417122677342" lon="12.833266894533132"><ele>95.0</ele><time>2026-03-22T10:06:41Z</time></trkpt><trkpt lat="46.05399652427487" lon="12.833257331617434"><ele>94.66666666666667</ele><time>2026-03-22T10:06:42Z</time></trkpt><trkpt lat="46.053825991184745" lon="12.833247996228678"><ele>94.33333333333333</ele><time>2026-03-22T10:06:43Z</time></trkpt><trkpt lat="46.053674976820226" lon="12.833239729338013"><ele>94.0</ele><time>2026-03-22T10:06:44Z</time></trkpt><trkpt lat="46.05352848612908" lon="12.833231425964195"><ele>94.0</ele><time>2026-03-22T10:06:45Z</time></trkpt><trkpt lat="46.05339021098764" lon="12.833223663030816"><ele>94.0</ele><time>2026-03-22T10:06:46Z</time></trkpt><trkpt lat="46.053237290884574" lon="12.833215075609262"><ele>94.0</ele><time>2026-03-22T10:06:47Z</time></trkpt><trkpt lat="46.053072805340676" lon="12.833205682412265"><ele>93.66666666666666</ele><time>2026-03-22T10:06:48Z</time></trkpt><trkpt lat="46.05290265252471" lon="12.833195807825971"><ele>93.33333333333333</ele><time>2026-03-22T10:06:49Z</time></trkpt><trkpt lat="46.052728783736406" lon="12.833185717589314"><ele>93.0</ele><time>2026-03-22T10:06:50Z</time></trkpt><trkpt lat="46.05255385007167" lon="12.833175565553494"><ele>93.0</ele><time>2026-03-22T10:06:51Z</time></trkpt><trkpt lat="46.05238576502285" lon="12.833165810967936"><ele>93.0</ele><time>2026-03-22T10:06:52Z</time></trkpt><trkpt lat="46.05223366634677" lon="12.833156984088802"><ele>93.0</ele><time>2026-03-22T10:06:53Z</time></trkpt><trkpt lat="46.05207783320591" lon="12.833148916442944"><ele>93.0</ele><time>2026-03-22T10:06:54Z</time></trkpt><trkpt lat="46.05189740594773" lon="12.833139239390361"><ele>93.0</ele><time>2026-03-22T10:06:55Z</time></trkpt><trkpt lat="46.05172198987696" lon="12.833129831108936"><ele>93.0</ele><time>2026-03-22T10:06:56Z</time></trkpt><trkpt lat="46.05154517640291" lon="12.833118392931578"><ele>93.33333333333333</ele><time>2026-03-22T10:06:57Z</time></trkpt><trkpt lat="46.05137132752217" lon="12.8331068903054"><ele>93.66666666666666</ele><time>2026-03-22T10:06:58Z</time></trkpt><trkpt lat="46.051213305953375" lon="12.833100549905529"><ele>94.0</ele><time>2026-03-22T10:06:59Z</time></trkpt><trkpt lat="46.05107099110133" lon="12.833094342105513"><ele>94.0</ele><time>2026-03-22T10:07:00Z</time></trkpt><trkpt lat="46.05094572996619" lon="12.833085941951659"><ele>94.0</ele><time>2026-03-22T10:07:01Z</time></trkpt><trkpt lat="46.050818407552065" lon="12.83307708339031"><ele>94.0</ele><time>2026-03-22T10:07:02Z</time></trkpt><trkpt lat="46.05070808728025" lon="12.833069407745066"><ele>94.0</ele><time>2026-03-22T10:07:03Z</time></trkpt><trkpt lat="46.050616936135604" lon="12.833063143752623"><ele>93.25</ele><time>2026-03-22T10:07:04Z</time></trkpt><trkpt lat="46.05050633739423" lon="12.833055985158056"><ele>92.5</ele><time>2026-03-22T10:07:05Z</time></trkpt><trkpt lat="46.05038221357841" lon="12.833049317932685"><ele>91.75</ele><time>2026-03-22T10:07:06Z</time></trkpt><trkpt lat="46.050256362523314" lon="12.833042895276797"><ele>91.0</ele><time>2026-03-22T10:07:07Z</time></trkpt><trkpt lat="46.05013529780115" lon="12.833036780436283"><ele>91.0</ele><time>2026-03-22T10:07:08Z</time></trkpt><trkpt lat="46.05001971107423" lon="12.833029613494105"><ele>91.0</ele><time>2026-03-22T10:07:09Z</time></trkpt><trkpt lat="46.04990093195375" lon="12.83301993732802"><ele>91.0</ele><time>2026-03-22T10:07:10Z</time></trkpt><trkpt lat="46.04977960894633" lon="12.833002767330282"><ele>91.0</ele><time>2026-03-22T10:07:11Z</time></trkpt><trkpt lat="46.0496543622318" lon="12.832971362414662"><ele>91.0</ele><time>2026-03-22T10:07:12Z</time></trkpt><trkpt lat="46.04952000496254" lon="12.83293090611757"><ele>91.0</ele><time>2026-03-22T10:07:13Z</time></trkpt><trkpt lat="46.049394649283045" lon="12.832891012681147"><ele>91.0</ele><time>2026-03-22T10:07:14Z</time></trkpt><trkpt lat="46.04927859463626" lon="12.832853126604485"><ele>91.0</ele><time>2026-03-22T10:07:15Z</time></trkpt><trkpt lat="46.049166983445836" lon="12.832816691095204"><ele>90.75</ele><time>2026-03-22T10:07:16Z</time></trkpt><trkpt lat="46.04905877887373" lon="12.83278136766741"><ele>90.5</ele><time>2026-03-22T10:07:17Z</time></trkpt><trkpt lat="46.04895029088574" lon="12.832744546593775"><ele>90.25</ele><time>2026-03-22T10:07:18.001Z</time></trkpt><trkpt lat="46.048836883614385" lon="12.83270258166511"><ele>90.0</ele><time>2026-03-22T10:07:19.001Z</time></trkpt><trkpt lat="46.04872180237519" lon="12.832674906661738"><ele>90.0</ele><time>2026-03-22T10:07:20.001Z</time></trkpt><trkpt lat="46.04861513804894" lon="12.832608887047373"><ele>90.0</ele><time>2026-03-22T10:07:21.001Z</time></trkpt><trkpt lat="46.048507609018706" lon="12.832543488871597"><ele>90.0</ele><time>2026-03-22T10:07:22.001Z</time></trkpt><trkpt lat="46.04840028036087" lon="12.832474006021286"><ele>90.0</ele><time>2026-03-22T10:07:23.001Z</time></trkpt><trkpt lat="46.048293413747075" lon="12.832406007933017"><ele>89.75</ele><time>2026-03-22T10:07:24.001Z</time></trkpt><trkpt lat="46.04818221041782" lon="12.832340288654013"><ele>89.5</ele><time>2026-03-22T10:07:25.001Z</time></trkpt><trkpt lat="46.04806540690984" lon="12.832275001196109"><ele>89.25</ele><time>2026-03-22T10:07:26.001Z</time></trkpt><trkpt lat="46.04794940343088" lon="12.832209208586711"><ele>89.0</ele><time>2026-03-22T10:07:27.001Z</time></trkpt><trkpt lat="46.0478344162277" lon="12.832135963637715"><ele>89.0</ele><time>2026-03-22T10:07:28.001Z</time></trkpt><trkpt lat="46.047712892141675" lon="12.832059376738378"><ele>89.0</ele><time>2026-03-22T10:07:29.001Z</time></trkpt><trkpt lat="46.047589112861495" lon="12.831979664755385"><ele>89.0</ele><time>2026-03-22T10:07:30.001Z</time></trkpt><trkpt lat="46.04746384330186" lon="12.83189866931602"><ele>89.0</ele><time>2026-03-22T10:07:31.001Z</time></trkpt><trkpt lat="46.047335910639006" lon="12.831818289324726"><ele>89.25</ele><time>2026-03-22T10:07:32.001Z</time></trkpt><trkpt lat="46.04720840319063" lon="12.831733525434467"><ele>89.5</ele><time>2026-03-22T10:07:33.001Z</time></trkpt><trkpt lat="46.04708186781444" lon="12.83164643300321"><ele>89.75</ele><time>2026-03-22T10:07:34.001Z</time></trkpt><trkpt lat="46.046952797884856" lon="12.831559773437878"><ele>90.0</ele><time>2026-03-22T10:07:35.001Z</time></trkpt><trkpt lat="46.04682423247271" lon="12.831472187386755"><ele>90.0</ele><time>2026-03-22T10:07:36.001Z</time></trkpt><trkpt lat="46.04669416544883" lon="12.831387403950908"><ele>90.0</ele><time>2026-03-22T10:07:37.001Z</time></trkpt><trkpt lat="46.046564670546914" lon="12.831309151900571"><ele>90.0</ele><time>2026-03-22T10:07:38.001Z</time></trkpt><trkpt lat="46.046443105465485" lon="12.83123182861403"><ele>90.0</ele><time>2026-03-22T10:07:39.001Z</time></trkpt><trkpt lat="46.04632931647268" lon="12.831161446130167"><ele>89.75</ele><time>2026-03-22T10:07:40.001Z</time></trkpt><trkpt lat="46.04622293687757" lon="12.831097635566008"><ele>89.5</ele><time>2026-03-22T10:07:41.001Z</time></trkpt><trkpt lat="46.04611462656856" lon="12.831035145785854"><ele>89.25</ele><time>2026-03-22T10:07:42.001Z</time></trkpt><trkpt lat="46.04600256431218" lon="12.830969243765464"><ele>89.0</ele><time>2026-03-22T10:07:43.001Z</time></trkpt><trkpt lat="46.04589172113117" lon="12.830901171919885"><ele>88.5</ele><time>2026-03-22T10:07:44.001Z</time></trkpt><trkpt lat="46.04577813086358" lon="12.830834507260402"><ele>88.0</ele><time>2026-03-22T10:07:45.001Z</time></trkpt><trkpt lat="46.04566980317173" lon="12.830739526220162"><ele>87.5</ele><time>2026-03-22T10:07:46.001Z</time></trkpt><trkpt lat="46.04555473862824" lon="12.830667600158394"><ele>87.0</ele><time>2026-03-22T10:07:47.001Z</time></trkpt><trkpt lat="46.04543987313997" lon="12.830597891715165"><ele>87.0</ele><time>2026-03-22T10:07:48.001Z</time></trkpt><trkpt lat="46.04532048712393" lon="12.830527624952456"><ele>87.0</ele><time>2026-03-22T10:07:49.001Z</time></trkpt><trkpt lat="46.045198513877075" lon="12.830456268419265"><ele>87.0</ele><time>2026-03-22T10:07:50.001Z</time></trkpt><trkpt lat="46.04508438209673" lon="12.830391116439394"><ele>87.0</ele><time>2026-03-22T10:07:51.001Z</time></trkpt><trkpt lat="46.04497075057818" lon="12.830331007822297"><ele>87.0</ele><time>2026-03-22T10:07:52.001Z</time></trkpt><trkpt lat="46.04485684634101" lon="12.830273223883331"><ele>87.0</ele><time>2026-03-22T10:07:53.001Z</time></trkpt><trkpt lat="46.04474364791992" lon="12.830217527839734"><ele>87.0</ele><time>2026-03-22T10:07:54.001Z</time></trkpt><trkpt lat="46.04463153559264" lon="12.830164750888336"><ele>87.0</ele><time>2026-03-22T10:07:55.001Z</time></trkpt><trkpt lat="46.04452511877966" lon="12.830115946773217"><ele>87.19999999999999</ele><time>2026-03-22T10:07:56.001Z</time></trkpt><trkpt lat="46.04442402446455" lon="12.830069531800104"><ele>87.4</ele><time>2026-03-22T10:07:57.001Z</time></trkpt><trkpt lat="46.04431866532489" lon="12.830045157369188"><ele>87.6</ele><time>2026-03-22T10:07:58.001Z</time></trkpt><trkpt lat="46.044227693385736" lon="12.830002857495318"><ele>87.80000000000001</ele><time>2026-03-22T10:07:59.001Z</time></trkpt><trkpt lat="46.044131947729895" lon="12.829963480116419"><ele>88.0</ele><time>2026-03-22T10:08:00.001Z</time></trkpt><trkpt lat="46.044031446305276" lon="12.829923022485156"><ele>87.60000000000001</ele><time>2026-03-22T10:08:01.001Z</time></trkpt><trkpt lat="46.043928785876766" lon="12.829878723895263"><ele>87.2</ele><time>2026-03-22T10:08:02.001Z</time></trkpt><trkpt lat="46.04382786456233" lon="12.829828118185487"><ele>86.8</ele><time>2026-03-22T10:08:03.001Z</time></trkpt><trkpt lat="46.04373302263829" lon="12.829789954394764"><ele>86.4</ele><time>2026-03-22T10:08:04.001Z</time></trkpt><trkpt lat="46.04364488593962" lon="12.829752780897696"><ele>86.0</ele><time>2026-03-22T10:08:05.001Z</time></trkpt><trkpt lat="46.043562721024166" lon="12.829716047330876"><ele>86.0</ele><time>2026-03-22T10:08:06.001Z</time></trkpt><trkpt lat="46.043500125823726" lon="12.829672392073558"><ele>86.0</ele><time>2026-03-22T10:08:07.001Z</time></trkpt><trkpt lat="46.04350118876191" lon="12.829469636168414"><ele>86.0</ele><time>2026-03-22T10:08:10.001Z</time></trkpt><trkpt lat="46.04352611685816" lon="12.829363393595797"><ele>86.0</ele><time>2026-03-22T10:08:11.001Z</time></trkpt><trkpt lat="46.04355252486611" lon="12.829229599557907"><ele>86.0</ele><time>2026-03-22T10:08:12.001Z</time></trkpt><trkpt lat="46.04358342603144" lon="12.82908778006083"><ele>86.0</ele><time>2026-03-22T10:08:13.001Z</time></trkpt><trkpt lat="46.04360476117405" lon="12.82895462505505"><ele>86.0</ele><time>2026-03-22T10:08:14.001Z</time></trkpt><trkpt lat="46.04363112363668" lon="12.828829310946103"><ele>86.0</ele><time>2026-03-22T10:08:15.001Z</time></trkpt><trkpt lat="46.04366225765663" lon="12.828699999020975"><ele>86.0</ele><time>2026-03-22T10:08:16.001Z</time></trkpt><trkpt lat="46.043695675959626" lon="12.828555900569324"><ele>86.0</ele><time>2026-03-22T10:08:17.001Z</time></trkpt><trkpt lat="46.04372205610693" lon="12.82839659954421"><ele>85.75</ele><time>2026-03-22T10:08:18.001Z</time></trkpt><trkpt lat="46.043753991005346" lon="12.828230162810573"><ele>85.5</ele><time>2026-03-22T10:08:19Z</time></trkpt><trkpt lat="46.0437861653265" lon="12.828066964531956"><ele>85.25</ele><time>2026-03-22T10:08:20Z</time></trkpt><trkpt lat="46.043813360176465" lon="12.827915321301985"><ele>85.0</ele><time>2026-03-22T10:08:21Z</time></trkpt><trkpt lat="46.043840735479264" lon="12.82776954575133"><ele>85.2</ele><time>2026-03-22T10:08:22Z</time></trkpt><trkpt lat="46.043865829968205" lon="12.827635054173335"><ele>85.4</ele><time>2026-03-22T10:08:23Z</time></trkpt><trkpt lat="46.043892956688225" lon="12.827506264993978"><ele>85.6</ele><time>2026-03-22T10:08:24Z</time></trkpt><trkpt lat="46.04392073069204" lon="12.827374431941541"><ele>85.8</ele><time>2026-03-22T10:08:25Z</time></trkpt><trkpt lat="46.043952292760814" lon="12.827237152512751"><ele>86.0</ele><time>2026-03-22T10:08:26Z</time></trkpt><trkpt lat="46.04398255222739" lon="12.827100734835005"><ele>86.0</ele><time>2026-03-22T10:08:27Z</time></trkpt><trkpt lat="46.04400557761838" lon="12.826974097424696"><ele>86.0</ele><time>2026-03-22T10:08:28Z</time></trkpt><trkpt lat="46.04402271071091" lon="12.826863457032816"><ele>86.0</ele><time>2026-03-22T10:08:29Z</time></trkpt><trkpt lat="46.04403296887118" lon="12.826754784232982"><ele>86.0</ele><time>2026-03-22T10:08:30Z</time></trkpt><trkpt lat="46.044041256700616" lon="12.826649562584182"><ele>86.0</ele><time>2026-03-22T10:08:31Z</time></trkpt><trkpt lat="46.04403001451691" lon="12.826536857580615"><ele>86.0</ele><time>2026-03-22T10:08:32Z</time></trkpt><trkpt lat="46.04401215186016" lon="12.826411223023202"><ele>85.8</ele><time>2026-03-22T10:08:33Z</time></trkpt><trkpt lat="46.043991503252585" lon="12.82627406777075"><ele>85.6</ele><time>2026-03-22T10:08:34Z</time></trkpt><trkpt lat="46.04397487191948" lon="12.826143882321839"><ele>85.4</ele><time>2026-03-22T10:08:35Z</time></trkpt><trkpt lat="46.043960080532244" lon="12.826028495688766"><ele>85.2</ele><time>2026-03-22T10:08:36Z</time></trkpt><trkpt lat="46.0439454206627" lon="12.825901533998795"><ele>85.0</ele><time>2026-03-22T10:08:38Z</time></trkpt><trkpt lat="46.043827312871386" lon="12.825878358146475"><ele>85.0</ele><time>2026-03-22T10:08:50Z</time></trkpt><trkpt lat="46.043712121133225" lon="12.82591243054726"><ele>85.0</ele><time>2026-03-22T10:08:51Z</time></trkpt><trkpt lat="46.04358068683374" lon="12.825971269718853"><ele>85.0</ele><time>2026-03-22T10:08:52Z</time></trkpt><trkpt lat="46.04343847557289" lon="12.826034933384623"><ele>85.0</ele><time>2026-03-22T10:08:53Z</time></trkpt><trkpt lat="46.043293776831725" lon="12.82610119137714"><ele>85.0</ele><time>2026-03-22T10:08:54Z</time></trkpt><trkpt lat="46.04313784051568" lon="12.82617245072264"><ele>85.0</ele><time>2026-03-22T10:08:55Z</time></trkpt><trkpt lat="46.042957438861066" lon="12.82625453504932"><ele>85.0</ele><time>2026-03-22T10:08:56Z</time></trkpt><trkpt lat="46.04278534178283" lon="12.826332840734795"><ele>85.0</ele><time>2026-03-22T10:08:57Z</time></trkpt><trkpt lat="46.04262338445351" lon="12.826407635579587"><ele>85.0</ele><time>2026-03-22T10:08:58Z</time></trkpt><trkpt lat="46.042469325221134" lon="12.826478980759997"><ele>85.0</ele><time>2026-03-22T10:08:59Z</time></trkpt><trkpt lat="46.04231765103094" lon="12.826548139502886"><ele>85.0</ele><time>2026-03-22T10:09:00Z</time></trkpt><trkpt lat="46.04216832287324" lon="12.82661539841213"><ele>85.0</ele><time>2026-03-22T10:09:01Z</time></trkpt><trkpt lat="46.04202127583289" lon="12.826682698563946"><ele>85.0</ele><time>2026-03-22T10:09:02Z</time></trkpt><trkpt lat="46.041875741676286" lon="12.826747332332268"><ele>85.0</ele><time>2026-03-22T10:09:03Z</time></trkpt><trkpt lat="46.04172901772135" lon="12.826813037914178"><ele>85.0</ele><time>2026-03-22T10:09:04Z</time></trkpt><trkpt lat="46.04158298976539" lon="12.826879363721753"><ele>85.0</ele><time>2026-03-22T10:09:05Z</time></trkpt><trkpt lat="46.041435627885306" lon="12.826946367459877"><ele>84.5</ele><time>2026-03-22T10:09:06Z</time></trkpt><trkpt lat="46.04129464400529" lon="12.827010663732896"><ele>84.0</ele><time>2026-03-22T10:09:07Z</time></trkpt><trkpt lat="46.041159138968936" lon="12.827070789738515"><ele>83.5</ele><time>2026-03-22T10:09:08Z</time></trkpt><trkpt lat="46.04103095130089" lon="12.827115571651658"><ele>83.0</ele><time>2026-03-22T10:09:09Z</time></trkpt><trkpt lat="46.040897328063444" lon="12.82714787339605"><ele>83.0</ele><time>2026-03-22T10:09:10Z</time></trkpt><trkpt lat="46.04076072699564" lon="12.827175250342043"><ele>83.0</ele><time>2026-03-22T10:09:11Z</time></trkpt><trkpt lat="46.040623841514815" lon="12.827202684270574"><ele>83.0</ele><time>2026-03-22T10:09:12Z</time></trkpt><trkpt lat="46.0404850457991" lon="12.827230501031655"><ele>83.0</ele><time>2026-03-22T10:09:13Z</time></trkpt><trkpt lat="46.04034736015333" lon="12.827258095351056"><ele>83.0</ele><time>2026-03-22T10:09:14Z</time></trkpt><trkpt lat="46.04023159811729" lon="12.827281295826788"><ele>83.0</ele><time>2026-03-22T10:09:15Z</time></trkpt><trkpt lat="46.04011727332067" lon="12.827301180335457"><ele>83.0</ele><time>2026-03-22T10:09:16Z</time></trkpt><trkpt lat="46.04001363706624" lon="12.82731816680117"><ele>83.0</ele><time>2026-03-22T10:09:17Z</time></trkpt><trkpt lat="46.03991541669234" lon="12.827334265582193"><ele>83.0</ele><time>2026-03-22T10:09:18Z</time></trkpt><trkpt lat="46.0398243987579" lon="12.827349183846056"><ele>83.0</ele><time>2026-03-22T10:09:19Z</time></trkpt><trkpt lat="46.03972890379046" lon="12.827364835916283"><ele>83.0</ele><time>2026-03-22T10:09:20Z</time></trkpt><trkpt lat="46.03962577637183" lon="12.827381738985885"><ele>83.0</ele><time>2026-03-22T10:09:21Z</time></trkpt><trkpt lat="46.03951393433114" lon="12.827400070429494"><ele>83.0</ele><time>2026-03-22T10:09:22Z</time></trkpt><trkpt lat="46.03941296473635" lon="12.827416619809338"><ele>83.0</ele><time>2026-03-22T10:09:23Z</time></trkpt><trkpt lat="46.0393191144548" lon="12.827453692773277"><ele>83.0</ele><time>2026-03-22T10:09:24Z</time></trkpt><trkpt lat="46.03922922014733" lon="12.82745569308375"><ele>83.0</ele><time>2026-03-22T10:09:25Z</time></trkpt><trkpt lat="46.03915037322374" lon="12.827467364680023"><ele>83.0</ele><time>2026-03-22T10:09:26Z</time></trkpt><trkpt lat="46.039083508174755" lon="12.827470682086432"><ele>83.0</ele><time>2026-03-22T10:09:28Z</time></trkpt><trkpt lat="46.03897153562737" lon="12.82727801131082"><ele>83.0</ele><time>2026-03-22T10:09:31.001Z</time></trkpt><trkpt lat="46.038909295606" lon="12.827134690506353"><ele>83.0</ele><time>2026-03-22T10:09:32.001Z</time></trkpt><trkpt lat="46.03884327043699" lon="12.826998615460626"><ele>83.0</ele><time>2026-03-22T10:09:33.001Z</time></trkpt><trkpt lat="46.03877594276862" lon="12.82684755176124"><ele>83.0</ele><time>2026-03-22T10:09:34.001Z</time></trkpt><trkpt lat="46.03870232065982" lon="12.826676703297808"><ele>83.0</ele><time>2026-03-22T10:09:35.001Z</time></trkpt><trkpt lat="46.038636236154" lon="12.826502841306478"><ele>82.80000000000001</ele><time>2026-03-22T10:09:36.001Z</time></trkpt><trkpt lat="46.03858054085075" lon="12.82634785002356"><ele>82.6</ele><time>2026-03-22T10:09:37.001Z</time></trkpt><trkpt lat="46.038521239823936" lon="12.826209081232244"><ele>82.4</ele><time>2026-03-22T10:09:38.001Z</time></trkpt><trkpt lat="46.03847174268134" lon="12.826084185472642"><ele>82.19999999999999</ele><time>2026-03-22T10:09:39.001Z</time></trkpt><trkpt lat="46.03842118315277" lon="12.825940007565608"><ele>82.0</ele><time>2026-03-22T10:09:40.001Z</time></trkpt><trkpt lat="46.0383621386091" lon="12.8257924599174"><ele>81.75</ele><time>2026-03-22T10:09:41.001Z</time></trkpt><trkpt lat="46.038302293471006" lon="12.825643792367858"><ele>81.5</ele><time>2026-03-22T10:09:42.001Z</time></trkpt><trkpt lat="46.03824147122257" lon="12.825485735632991"><ele>81.25</ele><time>2026-03-22T10:09:43.001Z</time></trkpt><trkpt lat="46.03818081583066" lon="12.825321860738185"><ele>81.0</ele><time>2026-03-22T10:09:44.001Z</time></trkpt><trkpt lat="46.03811036227992" lon="12.825155818213664"><ele>80.5</ele><time>2026-03-22T10:09:45.001Z</time></trkpt><trkpt lat="46.03803379695574" lon="12.82498636868352"><ele>80.0</ele><time>2026-03-22T10:09:46.001Z</time></trkpt><trkpt lat="46.03796125446006" lon="12.824829226286203"><ele>79.5</ele><time>2026-03-22T10:09:47.001Z</time></trkpt><trkpt lat="46.03788974967811" lon="12.824691290142615"><ele>79.0</ele><time>2026-03-22T10:09:48.001Z</time></trkpt><trkpt lat="46.037825282962224" lon="12.824552188189939"><ele>79.0</ele><time>2026-03-22T10:09:49.001Z</time></trkpt><trkpt lat="46.03775615386354" lon="12.824405888999"><ele>79.0</ele><time>2026-03-22T10:09:50.001Z</time></trkpt><trkpt lat="46.03768716241874" lon="12.824251498864207"><ele>79.0</ele><time>2026-03-22T10:09:51.001Z</time></trkpt><trkpt lat="46.037618622509804" lon="12.82409943083744"><ele>79.0</ele><time>2026-03-22T10:09:52.001Z</time></trkpt><trkpt lat="46.03755047826527" lon="12.823959544502943"><ele>79.25</ele><time>2026-03-22T10:09:53.001Z</time></trkpt><trkpt lat="46.03749044422485" lon="12.823826950401365"><ele>79.5</ele><time>2026-03-22T10:09:54.001Z</time></trkpt><trkpt lat="46.03743540195312" lon="12.823697493068542"><ele>79.75</ele><time>2026-03-22T10:09:55.001Z</time></trkpt><trkpt lat="46.037376431466605" lon="12.823560811509914"><ele>80.0</ele><time>2026-03-22T10:09:56.001Z</time></trkpt><trkpt lat="46.03731398050112" lon="12.823408817535878"><ele>79.5</ele><time>2026-03-22T10:09:57.001Z</time></trkpt><trkpt lat="46.037250936197765" lon="12.823230216904829"><ele>79.0</ele><time>2026-03-22T10:09:58.001Z</time></trkpt><trkpt lat="46.03721161620144" lon="12.823049927748468"><ele>78.5</ele><time>2026-03-22T10:09:59.001Z</time></trkpt><trkpt lat="46.03717888196604" lon="12.822871167438453"><ele>78.0</ele><time>2026-03-22T10:10:00.001Z</time></trkpt><trkpt lat="46.03714507003175" lon="12.822686839582163"><ele>78.25</ele><time>2026-03-22T10:10:01.001Z</time></trkpt><trkpt lat="46.037115812848405" lon="12.822516762035864"><ele>78.5</ele><time>2026-03-22T10:10:02.001Z</time></trkpt><trkpt lat="46.03708111721333" lon="12.822344991235054"><ele>78.75</ele><time>2026-03-22T10:10:03.001Z</time></trkpt><trkpt lat="46.03704344474688" lon="12.822167999111764"><ele>79.0</ele><time>2026-03-22T10:10:04.001Z</time></trkpt><trkpt lat="46.037004850406845" lon="12.82198098470162"><ele>79.0</ele><time>2026-03-22T10:10:05.001Z</time></trkpt><trkpt lat="46.03696097385543" lon="12.821769757634037"><ele>79.0</ele><time>2026-03-22T10:10:06.001Z</time></trkpt><trkpt lat="46.036912918334345" lon="12.821541681555992"><ele>79.0</ele><time>2026-03-22T10:10:07.001Z</time></trkpt><trkpt lat="46.03686145695191" lon="12.821297906080858"><ele>79.0</ele><time>2026-03-22T10:10:08.001Z</time></trkpt><trkpt lat="46.03681151584207" lon="12.821069707335921"><ele>79.0</ele><time>2026-03-22T10:10:09.001Z</time></trkpt><trkpt lat="46.0367742013801" lon="12.820859378114253"><ele>79.0</ele><time>2026-03-22T10:10:10.001Z</time></trkpt><trkpt lat="46.036736023210516" lon="12.82064314737936"><ele>79.0</ele><time>2026-03-22T10:10:11.001Z</time></trkpt><trkpt lat="46.03669930472712" lon="12.820442236887686"><ele>79.0</ele><time>2026-03-22T10:10:12.001Z</time></trkpt><trkpt lat="46.036663498581895" lon="12.820255775819794"><ele>79.0</ele><time>2026-03-22T10:10:13.001Z</time></trkpt><trkpt lat="46.036628126564786" lon="12.820077420780978"><ele>79.0</ele><time>2026-03-22T10:10:14.001Z</time></trkpt><trkpt lat="46.03659405864473" lon="12.819884646728857"><ele>79.25</ele><time>2026-03-22T10:10:15.001Z</time></trkpt><trkpt lat="46.03655491105581" lon="12.819695329848074"><ele>79.5</ele><time>2026-03-22T10:10:16.001Z</time></trkpt><trkpt lat="46.03656430684492" lon="12.81949281163302"><ele>79.75</ele><time>2026-03-22T10:10:17.001Z</time></trkpt><trkpt lat="46.036567202329095" lon="12.819298024201126"><ele>80.0</ele><time>2026-03-22T10:10:18.001Z</time></trkpt><trkpt lat="46.0365801256522" lon="12.819087527959013"><ele>80.0</ele><time>2026-03-22T10:10:19.001Z</time></trkpt><trkpt lat="46.03659942816195" lon="12.818876848375131"><ele>80.0</ele><time>2026-03-22T10:10:20.001Z</time></trkpt><trkpt lat="46.03662648130732" lon="12.818676084065538"><ele>80.0</ele><time>2026-03-22T10:10:21.001Z</time></trkpt><trkpt lat="46.036656454566554" lon="12.818486234492966"><ele>80.0</ele><time>2026-03-22T10:10:22.001Z</time></trkpt><trkpt lat="46.0366894542161" lon="12.81831280234797"><ele>80.0</ele><time>2026-03-22T10:10:23.001Z</time></trkpt><trkpt lat="46.03672655602796" lon="12.818143299008192"><ele>80.0</ele><time>2026-03-22T10:10:24.001Z</time></trkpt><trkpt lat="46.0367657137437" lon="12.817982823540863"><ele>80.0</ele><time>2026-03-22T10:10:25Z</time></trkpt><trkpt lat="46.03680355157099" lon="12.817834294824689"><ele>80.0</ele><time>2026-03-22T10:10:26Z</time></trkpt><trkpt lat="46.03683146913833" lon="12.817703138644593"><ele>80.0</ele><time>2026-03-22T10:10:27Z</time></trkpt><trkpt lat="46.03683822387207" lon="12.817584748964766"><ele>80.0</ele><time>2026-03-22T10:10:28Z</time></trkpt><trkpt lat="46.036824128771954" lon="12.817465596365262"><ele>80.0</ele><time>2026-03-22T10:10:29Z</time></trkpt><trkpt lat="46.03678665656821" lon="12.817354438304772"><ele>80.0</ele><time>2026-03-22T10:10:30Z</time></trkpt><trkpt lat="46.036741470991004" lon="12.817272336868028"><ele>80.0</ele><time>2026-03-22T10:10:31Z</time></trkpt><trkpt lat="46.03669472190103" lon="12.817209411794602"><ele>80.0</ele><time>2026-03-22T10:10:32Z</time></trkpt><trkpt lat="46.036606784596735" lon="12.817123229001991"><ele>80.0</ele><time>2026-03-22T10:10:34Z</time></trkpt><trkpt lat="46.03655722155995" lon="12.817043908435968"><ele>79.75</ele><time>2026-03-22T10:10:39Z</time></trkpt><trkpt lat="46.03644416120234" lon="12.816918923719744"><ele>79.5</ele><time>2026-03-22T10:10:41Z</time></trkpt><trkpt lat="46.03635172850008" lon="12.816808442116592"><ele>79.25</ele><time>2026-03-22T10:10:42Z</time></trkpt><trkpt lat="46.03626868851422" lon="12.816683927049235"><ele>79.0</ele><time>2026-03-22T10:10:43Z</time></trkpt><trkpt lat="46.03619772260066" lon="12.816531757497511"><ele>79.0</ele><time>2026-03-22T10:10:44Z</time></trkpt><trkpt lat="46.03614380517477" lon="12.8163504865161"><ele>79.0</ele><time>2026-03-22T10:10:45Z</time></trkpt><trkpt lat="46.03610187107811" lon="12.816148157107147"><ele>79.0</ele><time>2026-03-22T10:10:46Z</time></trkpt><trkpt lat="46.03605972594835" lon="12.815919474670208"><ele>79.0</ele><time>2026-03-22T10:10:47Z</time></trkpt><trkpt lat="46.03601503275668" lon="12.815680981080058"><ele>79.0</ele><time>2026-03-22T10:10:48Z</time></trkpt><trkpt lat="46.03597049830863" lon="12.815437576899361"><ele>79.0</ele><time>2026-03-22T10:10:49Z</time></trkpt><trkpt lat="46.03592668766527" lon="12.815191692189487"><ele>79.0</ele><time>2026-03-22T10:10:50Z</time></trkpt><trkpt lat="46.03588447885544" lon="12.814942360200021"><ele>79.33333333333333</ele><time>2026-03-22T10:10:51Z</time></trkpt><trkpt lat="46.0358398119868" lon="12.814659367210483"><ele>79.66666666666667</ele><time>2026-03-22T10:10:52Z</time></trkpt><trkpt lat="46.035795563375714" lon="12.814354284617611"><ele>80.0</ele><time>2026-03-22T10:10:53Z</time></trkpt><trkpt lat="46.03576505241791" lon="12.814086774853942"><ele>79.5</ele><time>2026-03-22T10:10:54Z</time></trkpt><trkpt lat="46.03574630897463" lon="12.813853257196465"><ele>79.0</ele><time>2026-03-22T10:10:55Z</time></trkpt><trkpt lat="46.035724780799086" lon="12.813648327231626"><ele>78.5</ele><time>2026-03-22T10:10:56Z</time></trkpt><trkpt lat="46.03568896583975" lon="12.81345731360046"><ele>78.0</ele><time>2026-03-22T10:10:57Z</time></trkpt><trkpt lat="46.03562474743841" lon="12.813245592582637"><ele>77.66666666666667</ele><time>2026-03-22T10:10:58Z</time></trkpt><trkpt lat="46.03552038986894" lon="12.81299326449441"><ele>77.33333333333334</ele><time>2026-03-22T10:10:59Z</time></trkpt><trkpt lat="46.03541408786214" lon="12.81274596573001"><ele>77.0</ele><time>2026-03-22T10:11:00Z</time></trkpt><trkpt lat="46.035325901356195" lon="12.812537548538822"><ele>77.66666666666667</ele><time>2026-03-22T10:11:01Z</time></trkpt><trkpt lat="46.03525514446366" lon="12.81234428971184"><ele>78.33333333333333</ele><time>2026-03-22T10:11:02Z</time></trkpt><trkpt lat="46.035200772744446" lon="12.81214159864971"><ele>79.0</ele><time>2026-03-22T10:11:03Z</time></trkpt><trkpt lat="46.0351463619715" lon="12.811877971730718"><ele>79.0</ele><time>2026-03-22T10:11:04Z</time></trkpt><trkpt lat="46.03508866434497" lon="12.811557638131127"><ele>79.0</ele><time>2026-03-22T10:11:05Z</time></trkpt><trkpt lat="46.03502705376394" lon="12.811191986123456"><ele>78.0</ele><time>2026-03-22T10:11:06Z</time></trkpt><trkpt lat="46.034949721845244" lon="12.810771812835746"><ele>77.0</ele><time>2026-03-22T10:11:07Z</time></trkpt><trkpt lat="46.034867443307384" lon="12.810352896193336"><ele>77.5</ele><time>2026-03-22T10:11:08Z</time></trkpt><trkpt lat="46.03480715621385" lon="12.809959933961705"><ele>78.0</ele><time>2026-03-22T10:11:09Z</time></trkpt><trkpt lat="46.03475949618354" lon="12.80969461061103"><ele>78.0</ele><time>2026-03-22T10:11:10Z</time></trkpt><trkpt lat="46.03470443037423" lon="12.809382090626125"><ele>78.0</ele><time>2026-03-22T10:11:11Z</time></trkpt><trkpt lat="46.03466283080467" lon="12.809131819862532"><ele>78.0</ele><time>2026-03-22T10:11:12Z</time></trkpt><trkpt lat="46.034630143051" lon="12.808932625493192"><ele>78.2</ele><time>2026-03-22T10:11:13Z</time></trkpt><trkpt lat="46.03460841005408" lon="12.808761332974246"><ele>78.4</ele><time>2026-03-22T10:11:14Z</time></trkpt><trkpt lat="46.03458757365482" lon="12.808624335878292"><ele>78.60000000000001</ele><time>2026-03-22T10:11:15Z</time></trkpt><trkpt lat="46.034567151602374" lon="12.80851119702704"><ele>78.8</ele><time>2026-03-22T10:11:16Z</time></trkpt><trkpt lat="46.034547940598586" lon="12.808400587843103"><ele>79.0</ele><time>2026-03-22T10:11:17Z</time></trkpt><trkpt lat="46.03451711527862" lon="12.808248445986905"><ele>79.0</ele><time>2026-03-22T10:11:18Z</time></trkpt><trkpt lat="46.03447752023036" lon="12.808065700845255"><ele>79.0</ele><time>2026-03-22T10:11:19Z</time></trkpt><trkpt lat="46.03443599369784" lon="12.807868246361988"><ele>79.0</ele><time>2026-03-22T10:11:20Z</time></trkpt><trkpt lat="46.03439308990415" lon="12.80765239555427"><ele>79.0</ele><time>2026-03-22T10:11:21Z</time></trkpt><trkpt lat="46.034353461780434" lon="12.807438974983317"><ele>78.66666666666666</ele><time>2026-03-22T10:11:22Z</time></trkpt><trkpt lat="46.034320075941174" lon="12.807221398635091"><ele>78.33333333333333</ele><time>2026-03-22T10:11:23Z</time></trkpt><trkpt lat="46.034284351388905" lon="12.806998622227729"><ele>78.0</ele><time>2026-03-22T10:11:24Z</time></trkpt><trkpt lat="46.03424820301548" lon="12.806760286172384"><ele>78.0</ele><time>2026-03-22T10:11:25Z</time></trkpt><trkpt lat="46.03421162164717" lon="12.806506596082258"><ele>78.0</ele><time>2026-03-22T10:11:26Z</time></trkpt><trkpt lat="46.034172955740104" lon="12.80626967058967"><ele>78.0</ele><time>2026-03-22T10:11:27Z</time></trkpt><trkpt lat="46.03414649519674" lon="12.806068201874306"><ele>78.25</ele><time>2026-03-22T10:11:28Z</time></trkpt><trkpt lat="46.0341211658887" lon="12.805893994731038"><ele>78.5</ele><time>2026-03-22T10:11:29Z</time></trkpt><trkpt lat="46.03408225469073" lon="12.805747910999369"><ele>78.75</ele><time>2026-03-22T10:11:30Z</time></trkpt><trkpt lat="46.0340248346459" lon="12.805591476452785"><ele>79.0</ele><time>2026-03-22T10:11:31Z</time></trkpt><trkpt lat="46.033949759013055" lon="12.805426970635825"><ele>79.0</ele><time>2026-03-22T10:11:32Z</time></trkpt><trkpt lat="46.03384988165367" lon="12.805246134287204"><ele>79.0</ele><time>2026-03-22T10:11:33Z</time></trkpt><trkpt lat="46.03372541762692" lon="12.805046212959123"><ele>79.0</ele><time>2026-03-22T10:11:34Z</time></trkpt><trkpt lat="46.03358160741887" lon="12.80482613856178"><ele>79.0</ele><time>2026-03-22T10:11:35Z</time></trkpt><trkpt lat="46.033442855477624" lon="12.804598080074198"><ele>79.0</ele><time>2026-03-22T10:11:36.001Z</time></trkpt><trkpt lat="46.03331809041958" lon="12.804384491421523"><ele>79.0</ele><time>2026-03-22T10:11:37.001Z</time></trkpt><trkpt lat="46.03319520704977" lon="12.804179244378243"><ele>79.0</ele><time>2026-03-22T10:11:38.001Z</time></trkpt><trkpt lat="46.03308051883788" lon="12.804002775164697"><ele>79.0</ele><time>2026-03-22T10:11:39.001Z</time></trkpt><trkpt lat="46.032984678935826" lon="12.803847235926476"><ele>79.0</ele><time>2026-03-22T10:11:40.001Z</time></trkpt><trkpt lat="46.03291990820651" lon="12.803735336818567"><ele>79.0</ele><time>2026-03-22T10:11:41.001Z</time></trkpt><trkpt lat="46.03285869104948" lon="12.803633255462708"><ele>79.0</ele><time>2026-03-22T10:11:42.001Z</time></trkpt><trkpt lat="46.032794163337876" lon="12.803516590980866"><ele>79.0</ele><time>2026-03-22T10:11:43.001Z</time></trkpt><trkpt lat="46.03270387388038" lon="12.803417050899176"><ele>79.0</ele><time>2026-03-22T10:11:44.001Z</time></trkpt><trkpt lat="46.032588165122284" lon="12.803318835643754"><ele>79.0</ele><time>2026-03-22T10:11:45.001Z</time></trkpt><trkpt lat="46.03243816401128" lon="12.80335770284719"><ele>78.0</ele><time>2026-03-22T10:11:46.001Z</time></trkpt><trkpt lat="46.032352220368345" lon="12.803605976059663"><ele>77.0</ele><time>2026-03-22T10:11:47.001Z</time></trkpt><trkpt lat="46.03220434071642" lon="12.803583181120743"><ele>76.0</ele><time>2026-03-22T10:11:48.001Z</time></trkpt><trkpt lat="46.03206859271413" lon="12.80354794544687"><ele>75.0</ele><time>2026-03-22T10:11:49.001Z</time></trkpt><trkpt lat="46.03198211128379" lon="12.802598499205413"><ele>75.0</ele><time>2026-03-22T10:11:50.001Z</time></trkpt><trkpt lat="46.031875598259305" lon="12.80245006866147"><ele>75.0</ele><time>2026-03-22T10:11:51.001Z</time></trkpt><trkpt lat="46.031777053945454" lon="12.802301177080443"><ele>75.0</ele><time>2026-03-22T10:11:52.001Z</time></trkpt><trkpt lat="46.031670554800115" lon="12.80215168603415"><ele>75.0</ele><time>2026-03-22T10:11:53.001Z</time></trkpt><trkpt lat="46.031570936881714" lon="12.80201349693319"><ele>75.0</ele><time>2026-03-22T10:11:54.001Z</time></trkpt><trkpt lat="46.031470657206505" lon="12.801890881013815"><ele>75.0</ele><time>2026-03-22T10:11:55.001Z</time></trkpt><trkpt lat="46.0313788594305" lon="12.801769772251758"><ele>75.0</ele><time>2026-03-22T10:11:56.001Z</time></trkpt><trkpt lat="46.03129635155451" lon="12.801641350790675"><ele>75.0</ele><time>2026-03-22T10:11:57.001Z</time></trkpt><trkpt lat="46.031228548591194" lon="12.8015157997559"><ele>75.25</ele><time>2026-03-22T10:11:58.001Z</time></trkpt><trkpt lat="46.03114664909938" lon="12.80138399196329"><ele>75.5</ele><time>2026-03-22T10:11:59.001Z</time></trkpt><trkpt lat="46.031056595153785" lon="12.801245472387846"><ele>75.75</ele><time>2026-03-22T10:12:00.001Z</time></trkpt><trkpt lat="46.03096743019305" lon="12.80109951352371"><ele>76.0</ele><time>2026-03-22T10:12:01.001Z</time></trkpt><trkpt lat="46.03088174853754" lon="12.80093751423221"><ele>76.25</ele><time>2026-03-22T10:12:02.001Z</time></trkpt><trkpt lat="46.030805543905785" lon="12.8007661277114"><ele>76.5</ele><time>2026-03-22T10:12:03.001Z</time></trkpt><trkpt lat="46.03074859313944" lon="12.800597899046004"><ele>76.75</ele><time>2026-03-22T10:12:04.001Z</time></trkpt><trkpt lat="46.030701355303464" lon="12.800431612810979"><ele>77.0</ele><time>2026-03-22T10:12:05.001Z</time></trkpt><trkpt lat="46.030664975964704" lon="12.800299703143983"><ele>77.0</ele><time>2026-03-22T10:12:06.001Z</time></trkpt><trkpt lat="46.03060964776068" lon="12.800207926844948"><ele>77.0</ele><time>2026-03-22T10:12:07.001Z</time></trkpt><trkpt lat="46.030527995694236" lon="12.80012321957271"><ele>77.0</ele><time>2026-03-22T10:12:08.001Z</time></trkpt><trkpt lat="46.03043505463398" lon="12.80006877495768"><ele>77.0</ele><time>2026-03-22T10:12:09.001Z</time></trkpt><trkpt lat="46.03031817896198" lon="12.80001025242832"><ele>77.0</ele><time>2026-03-22T10:12:10.001Z</time></trkpt><trkpt lat="46.030228030030564" lon="12.799973187670103"><ele>76.83333333333334</ele><time>2026-03-22T10:12:11.001Z</time></trkpt><trkpt lat="46.03016550805621" lon="12.7999306843682"><ele>76.66666666666667</ele><time>2026-03-22T10:12:12.001Z</time></trkpt><trkpt lat="46.03014425233198" lon="12.799837905307205"><ele>76.5</ele><time>2026-03-22T10:12:15.001Z</time></trkpt><trkpt lat="46.0302116383046" lon="12.799836991625265"><ele>76.33333333333333</ele><time>2026-03-22T10:12:17.001Z</time></trkpt><trkpt lat="46.03030170226628" lon="12.799836803095095"><ele>76.16666666666666</ele><time>2026-03-22T10:12:19.001Z</time></trkpt><trkpt lat="46.03032019606305" lon="12.79972943010983"><ele>76.0</ele><time>2026-03-22T10:12:20.001Z</time></trkpt><trkpt lat="46.030344893992904" lon="12.799571293100067"><ele>76.0</ele><time>2026-03-22T10:12:21.001Z</time></trkpt><trkpt lat="46.03037161257438" lon="12.799375294556098"><ele>76.0</ele><time>2026-03-22T10:12:22.001Z</time></trkpt><trkpt lat="46.03040361651027" lon="12.79919022618602"><ele>76.0</ele><time>2026-03-22T10:12:23.001Z</time></trkpt><trkpt lat="46.03043518241176" lon="12.79904259949339"><ele>76.0</ele><time>2026-03-22T10:12:24.001Z</time></trkpt><trkpt lat="46.03045831555431" lon="12.798923135107229"><ele>75.5</ele><time>2026-03-22T10:12:25.001Z</time></trkpt><trkpt lat="46.03047508074394" lon="12.79881979648198"><ele>75.0</ele><time>2026-03-22T10:12:26.001Z</time></trkpt><trkpt lat="46.03045706730268" lon="12.798694097953732"><ele>74.5</ele><time>2026-03-22T10:12:28.001Z</time></trkpt><trkpt lat="46.03028652147432" lon="12.798647922995933"><ele>74.0</ele><time>2026-03-22T10:12:30.001Z</time></trkpt><trkpt lat="46.030147198863176" lon="12.798616446036345"><ele>74.0</ele><time>2026-03-22T10:12:31Z</time></trkpt><trkpt lat="46.0299783189712" lon="12.798568211318631"><ele>74.0</ele><time>2026-03-22T10:12:32Z</time></trkpt><trkpt lat="46.02981532859091" lon="12.798512607155706"><ele>74.0</ele><time>2026-03-22T10:12:33Z</time></trkpt><trkpt lat="46.02969769823335" lon="12.798236571200654"><ele>73.66666666666667</ele><time>2026-03-22T10:12:34Z</time></trkpt><trkpt lat="46.029539030738235" lon="12.798185718868021"><ele>73.33333333333333</ele><time>2026-03-22T10:12:35Z</time></trkpt><trkpt lat="46.029356560377074" lon="12.798127738433898"><ele>73.0</ele><time>2026-03-22T10:12:36Z</time></trkpt><trkpt lat="46.029174362361715" lon="12.798070113814097"><ele>73.0</ele><time>2026-03-22T10:12:37Z</time></trkpt><trkpt lat="46.02897226564305" lon="12.798006195921028"><ele>73.0</ele><time>2026-03-22T10:12:38Z</time></trkpt><trkpt lat="46.02877368412803" lon="12.797943389837386"><ele>73.0</ele><time>2026-03-22T10:12:39Z</time></trkpt><trkpt lat="46.02857202234956" lon="12.797879609561164"><ele>73.0</ele><time>2026-03-22T10:12:40Z</time></trkpt><trkpt lat="46.0283729113254" lon="12.797816635953208"><ele>73.0</ele><time>2026-03-22T10:12:41Z</time></trkpt><trkpt lat="46.02819214821321" lon="12.797759465338364"><ele>73.0</ele><time>2026-03-22T10:12:42Z</time></trkpt><trkpt lat="46.02801435935138" lon="12.797703235391145"><ele>73.0</ele><time>2026-03-22T10:12:43Z</time></trkpt><trkpt lat="46.02784984633925" lon="12.797651204265962"><ele>73.0</ele><time>2026-03-22T10:12:44Z</time></trkpt><trkpt lat="46.0276829513397" lon="12.797598419751328"><ele>73.0</ele><time>2026-03-22T10:12:45Z</time></trkpt><trkpt lat="46.027486816502446" lon="12.797536393238929"><ele>72.66666666666666</ele><time>2026-03-22T10:12:46Z</time></trkpt><trkpt lat="46.02730672644441" lon="12.797478642301218"><ele>72.33333333333333</ele><time>2026-03-22T10:12:47Z</time></trkpt><trkpt lat="46.027134631813716" lon="12.797423455292776"><ele>72.0</ele><time>2026-03-22T10:12:48Z</time></trkpt><trkpt lat="46.02697430014941" lon="12.79737204044996"><ele>72.0</ele><time>2026-03-22T10:12:49Z</time></trkpt><trkpt lat="46.0268104885045" lon="12.797319509718601"><ele>72.0</ele><time>2026-03-22T10:12:50Z</time></trkpt><trkpt lat="46.026631480343866" lon="12.797264490899874"><ele>72.0</ele><time>2026-03-22T10:12:51Z</time></trkpt><trkpt lat="46.02645652078697" lon="12.797212957199383"><ele>71.33333333333333</ele><time>2026-03-22T10:12:52Z</time></trkpt><trkpt lat="46.026281713517186" lon="12.797164168410298"><ele>70.66666666666666</ele><time>2026-03-22T10:12:53Z</time></trkpt><trkpt lat="46.026113284996114" lon="12.797119485941455"><ele>70.0</ele><time>2026-03-22T10:12:54Z</time></trkpt><trkpt lat="46.025957653988556" lon="12.79707979479124"><ele>69.0</ele><time>2026-03-22T10:12:55Z</time></trkpt><trkpt lat="46.02580331853481" lon="12.797042182916838"><ele>68.0</ele><time>2026-03-22T10:12:56Z</time></trkpt><trkpt lat="46.02564763425276" lon="12.797004762700494"><ele>67.0</ele><time>2026-03-22T10:12:57Z</time></trkpt><trkpt lat="46.02550225131804" lon="12.796971499342913"><ele>67.0</ele><time>2026-03-22T10:12:58Z</time></trkpt><trkpt lat="46.025358025907295" lon="12.796939615377699"><ele>67.0</ele><time>2026-03-22T10:12:59Z</time></trkpt><trkpt lat="46.02521781088451" lon="12.796910176791965"><ele>67.0</ele><time>2026-03-22T10:13:00Z</time></trkpt><trkpt lat="46.02507949438237" lon="12.79688207005127"><ele>67.0</ele><time>2026-03-22T10:13:01Z</time></trkpt><trkpt lat="46.024963601499955" lon="12.796860463775998"><ele>67.4</ele><time>2026-03-22T10:13:02Z</time></trkpt><trkpt lat="46.0248509500104" lon="12.796839795734023"><ele>67.80000000000001</ele><time>2026-03-22T10:13:03Z</time></trkpt><trkpt lat="46.024735486661186" lon="12.796819593019226"><ele>68.2</ele><time>2026-03-22T10:13:04Z</time></trkpt><trkpt lat="46.02462522822494" lon="12.796802191593994"><ele>68.60000000000001</ele><time>2026-03-22T10:13:05Z</time></trkpt><trkpt lat="46.02451850309387" lon="12.796785864448369"><ele>69.0</ele><time>2026-03-22T10:13:06Z</time></trkpt><trkpt lat="46.02439524865501" lon="12.796767664445513"><ele>69.0</ele><time>2026-03-22T10:13:07Z</time></trkpt><trkpt lat="46.024273682472604" lon="12.796749976297495"><ele>69.0</ele><time>2026-03-22T10:13:08Z</time></trkpt><trkpt lat="46.02415733853572" lon="12.796733047966283"><ele>69.0</ele><time>2026-03-22T10:13:09Z</time></trkpt><trkpt lat="46.0240410097696" lon="12.796716121870638"><ele>69.0</ele><time>2026-03-22T10:13:10Z</time></trkpt><trkpt lat="46.023909135497625" lon="12.796696933845594"><ele>68.33333333333333</ele><time>2026-03-22T10:13:11Z</time></trkpt><trkpt lat="46.023747378981305" lon="12.796673397901447"><ele>67.66666666666666</ele><time>2026-03-22T10:13:12Z</time></trkpt><trkpt lat="46.02357911158235" lon="12.79664891456507"><ele>67.0</ele><time>2026-03-22T10:13:13Z</time></trkpt><trkpt lat="46.02339781344054" lon="12.79661957171364"><ele>67.0</ele><time>2026-03-22T10:13:14Z</time></trkpt><trkpt lat="46.02323955438956" lon="12.796591479023723"><ele>67.0</ele><time>2026-03-22T10:13:15Z</time></trkpt><trkpt lat="46.02307491846013" lon="12.796559741321241"><ele>67.0</ele><time>2026-03-22T10:13:16Z</time></trkpt><trkpt lat="46.022929022752244" lon="12.796530274815513"><ele>67.0</ele><time>2026-03-22T10:13:17Z</time></trkpt><trkpt lat="46.02278301661137" lon="12.796498862421966"><ele>67.0</ele><time>2026-03-22T10:13:18Z</time></trkpt><trkpt lat="46.02262653875016" lon="12.796462384652395"><ele>67.0</ele><time>2026-03-22T10:13:19Z</time></trkpt><trkpt lat="46.02246606359084" lon="12.796423864115038"><ele>67.25</ele><time>2026-03-22T10:13:20Z</time></trkpt><trkpt lat="46.022317277422545" lon="12.796384819657547"><ele>67.5</ele><time>2026-03-22T10:13:21Z</time></trkpt><trkpt lat="46.02218957291531" lon="12.796350798905904"><ele>67.75</ele><time>2026-03-22T10:13:22Z</time></trkpt><trkpt lat="46.02209644309013" lon="12.796324403463368"><ele>68.0</ele><time>2026-03-22T10:13:23Z</time></trkpt><trkpt lat="46.02198828825662" lon="12.79629380232376"><ele>68.0</ele><time>2026-03-22T10:13:24Z</time></trkpt><trkpt lat="46.02183830295021" lon="12.796250347920333"><ele>68.0</ele><time>2026-03-22T10:13:25Z</time></trkpt><trkpt lat="46.02169854797146" lon="12.796207995987384"><ele>68.0</ele><time>2026-03-22T10:13:26Z</time></trkpt><trkpt lat="46.02158483398651" lon="12.796172083991967"><ele>68.0</ele><time>2026-03-22T10:13:27Z</time></trkpt><trkpt lat="46.02146879651818" lon="12.796134103095595"><ele>67.6</ele><time>2026-03-22T10:13:28Z</time></trkpt><trkpt lat="46.0213581268039" lon="12.796095377216181"><ele>67.19999999999999</ele><time>2026-03-22T10:13:29Z</time></trkpt><trkpt lat="46.021254396364384" lon="12.79605747713737"><ele>66.8</ele><time>2026-03-22T10:13:30.001Z</time></trkpt><trkpt lat="46.02115794232395" lon="12.796022296132222"><ele>66.39999999999999</ele><time>2026-03-22T10:13:31.001Z</time></trkpt><trkpt lat="46.021067062444864" lon="12.795987586643156"><ele>66.0</ele><time>2026-03-22T10:13:32.001Z</time></trkpt><trkpt lat="46.020987062492324" lon="12.79595688993534"><ele>66.0</ele><time>2026-03-22T10:13:33.001Z</time></trkpt><trkpt lat="46.02090255370603" lon="12.795924463140453"><ele>66.0</ele><time>2026-03-22T10:13:35.001Z</time></trkpt><trkpt lat="46.02082199297106" lon="12.796256203985564"><ele>66.0</ele><time>2026-03-22T10:13:38.001Z</time></trkpt><trkpt lat="46.02087653624372" lon="12.796140743838267"><ele>66.0</ele><time>2026-03-22T10:13:39.001Z</time></trkpt><trkpt lat="46.020926673298284" lon="12.795982079430132"><ele>65.83333333333333</ele><time>2026-03-22T10:13:40.001Z</time></trkpt><trkpt lat="46.02096646220159" lon="12.795821412116789"><ele>65.66666666666667</ele><time>2026-03-22T10:13:41.001Z</time></trkpt><trkpt lat="46.02098414704735" lon="12.795686035641832"><ele>65.5</ele><time>2026-03-22T10:13:42.001Z</time></trkpt><trkpt lat="46.02099027078995" lon="12.79558403575565"><ele>65.33333333333334</ele><time>2026-03-22T10:13:43.001Z</time></trkpt><trkpt lat="46.02096956187534" lon="12.79547315290382"><ele>65.16666666666667</ele><time>2026-03-22T10:13:44.001Z</time></trkpt><trkpt lat="46.02092467163193" lon="12.795385679602493"><ele>65.0</ele><time>2026-03-22T10:13:45.001Z</time></trkpt><trkpt lat="46.020856072783275" lon="12.795314565399034"><ele>65.0</ele><time>2026-03-22T10:13:46.001Z</time></trkpt><trkpt lat="46.020772952699474" lon="12.795263439437193"><ele>65.0</ele><time>2026-03-22T10:13:47.001Z</time></trkpt><trkpt lat="46.0206536632984" lon="12.795240016357734"><ele>65.0</ele><time>2026-03-22T10:13:48.001Z</time></trkpt><trkpt lat="46.02050954466379" lon="12.795215986193615"><ele>65.0</ele><time>2026-03-22T10:13:49.001Z</time></trkpt><trkpt lat="46.020344035456745" lon="12.795181357179201"><ele>65.33333333333334</ele><time>2026-03-22T10:13:50.001Z</time></trkpt><trkpt lat="46.020149075967744" lon="12.795127214490412"><ele>65.66666666666667</ele><time>2026-03-22T10:13:51.001Z</time></trkpt><trkpt lat="46.01994554675095" lon="12.795069077057923"><ele>66.0</ele><time>2026-03-22T10:13:52.001Z</time></trkpt><trkpt lat="46.01973676934714" lon="12.795002552688821"><ele>66.0</ele><time>2026-03-22T10:13:53.001Z</time></trkpt><trkpt lat="46.01955459478594" lon="12.794945913376662"><ele>66.0</ele><time>2026-03-22T10:13:54.001Z</time></trkpt><trkpt lat="46.0193328504924" lon="12.795076417448133"><ele>66.0</ele><time>2026-03-22T10:13:55.001Z</time></trkpt><trkpt lat="46.019176133852966" lon="12.794998508875395"><ele>65.33333333333333</ele><time>2026-03-22T10:13:56.001Z</time></trkpt><trkpt lat="46.01902760949507" lon="12.79492470449309"><ele>64.66666666666666</ele><time>2026-03-22T10:13:57.001Z</time></trkpt><trkpt lat="46.01887803903592" lon="12.794852897703485"><ele>64.0</ele><time>2026-03-22T10:13:58.001Z</time></trkpt><trkpt lat="46.01874396440884" lon="12.794788530426562"><ele>64.0</ele><time>2026-03-22T10:13:59.001Z</time></trkpt><trkpt lat="46.018607594446195" lon="12.794724042171989"><ele>64.0</ele><time>2026-03-22T10:14:00.001Z</time></trkpt><trkpt lat="46.01846129200951" lon="12.794656728927215"><ele>64.0</ele><time>2026-03-22T10:14:01.001Z</time></trkpt><trkpt lat="46.018331066825475" lon="12.794598494901544"><ele>64.0</ele><time>2026-03-22T10:14:02.001Z</time></trkpt><trkpt lat="46.01820728354471" lon="12.794544371146014"><ele>63.800000000000004</ele><time>2026-03-22T10:14:03.001Z</time></trkpt><trkpt lat="46.0181002292953" lon="12.794498094009722"><ele>63.60000000000001</ele><time>2026-03-22T10:14:04.001Z</time></trkpt><trkpt lat="46.01802615862645" lon="12.794466898251889"><ele>63.4</ele><time>2026-03-22T10:14:05.001Z</time></trkpt><trkpt lat="46.01792400324678" lon="12.794423874451299"><ele>63.2</ele><time>2026-03-22T10:14:07.001Z</time></trkpt><trkpt lat="46.01784775778816" lon="12.79436356837516"><ele>63.0</ele><time>2026-03-22T10:14:09.001Z</time></trkpt><trkpt lat="46.01783297512148" lon="12.793758299955813"><ele>63.0</ele><time>2026-03-22T10:14:11.001Z</time></trkpt><trkpt lat="46.017793335165216" lon="12.79353953649593"><ele>63.0</ele><time>2026-03-22T10:14:12.001Z</time></trkpt><trkpt lat="46.017762459205166" lon="12.793347885569112"><ele>63.0</ele><time>2026-03-22T10:14:13.001Z</time></trkpt><trkpt lat="46.017732691758404" lon="12.793162468688198"><ele>63.0</ele><time>2026-03-22T10:14:14.001Z</time></trkpt><trkpt lat="46.01769753958282" lon="12.792962796137273"><ele>63.0</ele><time>2026-03-22T10:14:15.001Z</time></trkpt><trkpt lat="46.017663569949185" lon="12.792747888794063"><ele>63.0</ele><time>2026-03-22T10:14:16.001Z</time></trkpt><trkpt lat="46.017630430627975" lon="12.792552196514869"><ele>63.0</ele><time>2026-03-22T10:14:17.001Z</time></trkpt><trkpt lat="46.01758983341789" lon="12.792360754678118"><ele>63.0</ele><time>2026-03-22T10:14:18.001Z</time></trkpt><trkpt lat="46.01754796418098" lon="12.792167798790492"><ele>63.0</ele><time>2026-03-22T10:14:19.001Z</time></trkpt><trkpt lat="46.017511302604355" lon="12.791980958416607"><ele>63.0</ele><time>2026-03-22T10:14:20.001Z</time></trkpt><trkpt lat="46.01746111233961" lon="12.791792471710432"><ele>63.0</ele><time>2026-03-22T10:14:21.001Z</time></trkpt><trkpt lat="46.01740654093952" lon="12.791605296729271"><ele>63.0</ele><time>2026-03-22T10:14:22.001Z</time></trkpt><trkpt lat="46.0173546332532" lon="12.79140591552164"><ele>62.75</ele><time>2026-03-22T10:14:23.001Z</time></trkpt><trkpt lat="46.01730925252046" lon="12.791207611016734"><ele>62.5</ele><time>2026-03-22T10:14:24.001Z</time></trkpt><trkpt lat="46.017266302036546" lon="12.791015944154818"><ele>62.25</ele><time>2026-03-22T10:14:25.001Z</time></trkpt><trkpt lat="46.01721972045533" lon="12.790819884103644"><ele>62.0</ele><time>2026-03-22T10:14:26.001Z</time></trkpt><trkpt lat="46.01717364737203" lon="12.790648737969159"><ele>62.0</ele><time>2026-03-22T10:14:27.001Z</time></trkpt><trkpt lat="46.017124984966635" lon="12.79047841565104"><ele>62.0</ele><time>2026-03-22T10:14:28.001Z</time></trkpt><trkpt lat="46.01707697280084" lon="12.790299621792716"><ele>62.0</ele><time>2026-03-22T10:14:29.001Z</time></trkpt><trkpt lat="46.01704300157212" lon="12.790123286223114"><ele>62.0</ele><time>2026-03-22T10:14:30.001Z</time></trkpt><trkpt lat="46.017019459685244" lon="12.789952666242915"><ele>62.0</ele><time>2026-03-22T10:14:31.001Z</time></trkpt><trkpt lat="46.017004378145174" lon="12.78977962614934"><ele>62.0</ele><time>2026-03-22T10:14:32.001Z</time></trkpt><trkpt lat="46.01698489004326" lon="12.789620703320768"><ele>62.0</ele><time>2026-03-22T10:14:33.001Z</time></trkpt><trkpt lat="46.01694877160377" lon="12.789432809757622"><ele>62.0</ele><time>2026-03-22T10:14:34.001Z</time></trkpt><trkpt lat="46.01690234350644" lon="12.789230689106978"><ele>61.333333333333336</ele><time>2026-03-22T10:14:35.001Z</time></trkpt><trkpt lat="46.01685255009806" lon="12.789020178315566"><ele>60.66666666666667</ele><time>2026-03-22T10:14:36.001Z</time></trkpt><trkpt lat="46.01679905141997" lon="12.788799742770774"><ele>60.0</ele><time>2026-03-22T10:14:37Z</time></trkpt><trkpt lat="46.01674918538149" lon="12.788592085653221"><ele>59.66666666666667</ele><time>2026-03-22T10:14:38Z</time></trkpt><trkpt lat="46.016704587629775" lon="12.788385968140112"><ele>59.333333333333336</ele><time>2026-03-22T10:14:39Z</time></trkpt><trkpt lat="46.016658290079256" lon="12.788172421661475"><ele>59.0</ele><time>2026-03-22T10:14:40Z</time></trkpt><trkpt lat="46.01661321569167" lon="12.787955830186485"><ele>59.0</ele><time>2026-03-22T10:14:41Z</time></trkpt><trkpt lat="46.0165643358608" lon="12.787748494695062"><ele>59.0</ele><time>2026-03-22T10:14:42Z</time></trkpt><trkpt lat="46.01651516246416" lon="12.787549511103007"><ele>59.0</ele><time>2026-03-22T10:14:43Z</time></trkpt><trkpt lat="46.016462919736824" lon="12.787345170601098"><ele>59.0</ele><time>2026-03-22T10:14:44Z</time></trkpt><trkpt lat="46.016404885817536" lon="12.787132739718087"><ele>59.0</ele><time>2026-03-22T10:14:45Z</time></trkpt><trkpt lat="46.016339798144855" lon="12.78690669564777"><ele>59.0</ele><time>2026-03-22T10:14:46Z</time></trkpt><trkpt lat="46.016283459554714" lon="12.78667508757541"><ele>58.66666666666667</ele><time>2026-03-22T10:14:47Z</time></trkpt><trkpt lat="46.016240060321614" lon="12.786466739230606"><ele>58.33333333333333</ele><time>2026-03-22T10:14:48Z</time></trkpt><trkpt lat="46.01619846509542" lon="12.786269155341738"><ele>58.0</ele><time>2026-03-22T10:14:49Z</time></trkpt><trkpt lat="46.01615190062974" lon="12.786052343148821"><ele>58.0</ele><time>2026-03-22T10:14:50Z</time></trkpt><trkpt lat="46.016105346068265" lon="12.785827787399992"><ele>58.0</ele><time>2026-03-22T10:14:51Z</time></trkpt><trkpt lat="46.016060405564644" lon="12.785591168961187"><ele>58.0</ele><time>2026-03-22T10:14:52Z</time></trkpt><trkpt lat="46.015997314049535" lon="12.785339278111154"><ele>58.0</ele><time>2026-03-22T10:14:53Z</time></trkpt><trkpt lat="46.0159369489158" lon="12.785114732678137"><ele>58.0</ele><time>2026-03-22T10:14:54Z</time></trkpt><trkpt lat="46.01588793520213" lon="12.784923830369662"><ele>58.0</ele><time>2026-03-22T10:14:55Z</time></trkpt><trkpt lat="46.015844827494774" lon="12.784747099573917"><ele>58.0</ele><time>2026-03-22T10:14:56Z</time></trkpt><trkpt lat="46.0157975845371" lon="12.784559537373893"><ele>58.0</ele><time>2026-03-22T10:14:57Z</time></trkpt><trkpt lat="46.01573984378442" lon="12.784350243803324"><ele>58.0</ele><time>2026-03-22T10:14:58Z</time></trkpt><trkpt lat="46.015697785294" lon="12.784157262022434"><ele>58.0</ele><time>2026-03-22T10:14:59Z</time></trkpt><trkpt lat="46.01565068021821" lon="12.783949006271413"><ele>58.0</ele><time>2026-03-22T10:15:00Z</time></trkpt><trkpt lat="46.015597130337135" lon="12.783721201403713"><ele>57.666666666666664</ele><time>2026-03-22T10:15:01Z</time></trkpt><trkpt lat="46.015540957329634" lon="12.783485162022405"><ele>57.33333333333333</ele><time>2026-03-22T10:15:02Z</time></trkpt><trkpt lat="46.01548815635989" lon="12.783250655684483"><ele>57.0</ele><time>2026-03-22T10:15:03Z</time></trkpt><trkpt lat="46.015437432250806" lon="12.783000956821116"><ele>57.0</ele><time>2026-03-22T10:15:04Z</time></trkpt><trkpt lat="46.015394152335645" lon="12.782768182051232"><ele>57.0</ele><time>2026-03-22T10:15:05Z</time></trkpt><trkpt lat="46.015351738284366" lon="12.782559978677284"><ele>57.0</ele><time>2026-03-22T10:15:06Z</time></trkpt><trkpt lat="46.01532107791175" lon="12.782375434874652"><ele>57.25</ele><time>2026-03-22T10:15:07Z</time></trkpt><trkpt lat="46.01530394226827" lon="12.782205495364952"><ele>57.5</ele><time>2026-03-22T10:15:08Z</time></trkpt><trkpt lat="46.01527952079568" lon="12.782017102239056"><ele>57.75</ele><time>2026-03-22T10:15:09Z</time></trkpt><trkpt lat="46.01525296524818" lon="12.781848142576646"><ele>58.0</ele><time>2026-03-22T10:15:10Z</time></trkpt><trkpt lat="46.01523132345842" lon="12.781688174610036"><ele>58.5</ele><time>2026-03-22T10:15:11Z</time></trkpt><trkpt lat="46.01521170284745" lon="12.78151810107553"><ele>59.0</ele><time>2026-03-22T10:15:12Z</time></trkpt><trkpt lat="46.015181556474005" lon="12.781343436332952"><ele>59.5</ele><time>2026-03-22T10:15:13Z</time></trkpt><trkpt lat="46.015140630520854" lon="12.78116272342422"><ele>60.0</ele><time>2026-03-22T10:15:14Z</time></trkpt><trkpt lat="46.01509374692955" lon="12.780984169273665"><ele>60.25</ele><time>2026-03-22T10:15:15Z</time></trkpt><trkpt lat="46.01502327810037" lon="12.780799993083745"><ele>60.5</ele><time>2026-03-22T10:15:16Z</time></trkpt><trkpt lat="46.014935814943975" lon="12.78061974939405"><ele>60.75</ele><time>2026-03-22T10:15:17Z</time></trkpt><trkpt lat="46.014842061822506" lon="12.78048689595966"><ele>61.0</ele><time>2026-03-22T10:15:18Z</time></trkpt><trkpt lat="46.014728609982946" lon="12.780355661417223"><ele>61.0</ele><time>2026-03-22T10:15:19Z</time></trkpt><trkpt lat="46.01460372411059" lon="12.780245325745705"><ele>61.0</ele><time>2026-03-22T10:15:20Z</time></trkpt><trkpt lat="46.01447563328399" lon="12.780141713998649"><ele>61.0</ele><time>2026-03-22T10:15:21Z</time></trkpt><trkpt lat="46.014364219924474" lon="12.780019827481073"><ele>61.0</ele><time>2026-03-22T10:15:22Z</time></trkpt><trkpt lat="46.01426371629054" lon="12.779888654026877"><ele>61.0</ele><time>2026-03-22T10:15:23Z</time></trkpt><trkpt lat="46.01415799257997" lon="12.779739695407931"><ele>61.0</ele><time>2026-03-22T10:15:24Z</time></trkpt><trkpt lat="46.01405213188555" lon="12.779572873011036"><ele>61.0</ele><time>2026-03-22T10:15:25Z</time></trkpt><trkpt lat="46.01394842480376" lon="12.779396097712999"><ele>60.75</ele><time>2026-03-22T10:15:26Z</time></trkpt><trkpt lat="46.01385446561613" lon="12.779220554897545"><ele>60.5</ele><time>2026-03-22T10:15:27Z</time></trkpt><trkpt lat="46.013776721667504" lon="12.779046614369244"><ele>60.25</ele><time>2026-03-22T10:15:28Z</time></trkpt><trkpt lat="46.01369996684801" lon="12.778877993911477"><ele>60.0</ele><time>2026-03-22T10:15:29Z</time></trkpt><trkpt lat="46.01361369571892" lon="12.778707305024593"><ele>60.0</ele><time>2026-03-22T10:15:30Z</time></trkpt><trkpt lat="46.01351637335889" lon="12.778548094495086"><ele>60.0</ele><time>2026-03-22T10:15:31Z</time></trkpt><trkpt lat="46.013404928979206" lon="12.778375216262882"><ele>60.0</ele><time>2026-03-22T10:15:32Z</time></trkpt><trkpt lat="46.01330568795887" lon="12.778223445388944"><ele>59.8</ele><time>2026-03-22T10:15:33Z</time></trkpt><trkpt lat="46.01322950285811" lon="12.778101411764757"><ele>59.6</ele><time>2026-03-22T10:15:34Z</time></trkpt><trkpt lat="46.01316612101149" lon="12.777983937634161"><ele>59.400000000000006</ele><time>2026-03-22T10:15:35Z</time></trkpt><trkpt lat="46.0131205171588" lon="12.777878111841558"><ele>59.2</ele><time>2026-03-22T10:15:36Z</time></trkpt><trkpt lat="46.01308624148935" lon="12.777787869001573"><ele>59.0</ele><time>2026-03-22T10:15:37Z</time></trkpt><trkpt lat="46.013037733771874" lon="12.777693021941554"><ele>59.2</ele><time>2026-03-22T10:15:38Z</time></trkpt><trkpt lat="46.01296661481637" lon="12.777574566658894"><ele>59.400000000000006</ele><time>2026-03-22T10:15:39Z</time></trkpt><trkpt lat="46.01288800989859" lon="12.777433103657449"><ele>59.6</ele><time>2026-03-22T10:15:40Z</time></trkpt><trkpt lat="46.01281334446461" lon="12.777308315148849"><ele>59.8</ele><time>2026-03-22T10:15:41Z</time></trkpt><trkpt lat="46.01275560573846" lon="12.7772034340634"><ele>60.0</ele><time>2026-03-22T10:15:42Z</time></trkpt><trkpt lat="46.012715226142355" lon="12.777105983278771"><ele>60.0</ele><time>2026-03-22T10:15:43Z</time></trkpt><trkpt lat="46.01268750263247" lon="12.77698340965525"><ele>60.0</ele><time>2026-03-22T10:15:44Z</time></trkpt><trkpt lat="46.01266626960861" lon="12.77684194489014"><ele>60.0</ele><time>2026-03-22T10:15:45Z</time></trkpt><trkpt lat="46.01264430954459" lon="12.776672716632456"><ele>60.0</ele><time>2026-03-22T10:15:46.001Z</time></trkpt><trkpt lat="46.01260037695155" lon="12.776507605106637"><ele>60.0</ele><time>2026-03-22T10:15:47.001Z</time></trkpt><trkpt lat="46.012562171447065" lon="12.776335901921188"><ele>60.0</ele><time>2026-03-22T10:15:48.001Z</time></trkpt><trkpt lat="46.012545386892135" lon="12.77615826496323"><ele>60.0</ele><time>2026-03-22T10:15:49.001Z</time></trkpt><trkpt lat="46.0125270597598" lon="12.775980124673143"><ele>60.0</ele><time>2026-03-22T10:15:50.001Z</time></trkpt><trkpt lat="46.01249678093315" lon="12.775805478422246"><ele>60.0</ele><time>2026-03-22T10:15:51.001Z</time></trkpt><trkpt lat="46.01246397853933" lon="12.775686258848229"><ele>59.4</ele><time>2026-03-22T10:15:52.001Z</time></trkpt><trkpt lat="46.012419267622064" lon="12.775573953273142"><ele>58.8</ele><time>2026-03-22T10:15:53.001Z</time></trkpt><trkpt lat="46.01236455926674" lon="12.775511729690027"><ele>58.2</ele><time>2026-03-22T10:15:54.001Z</time></trkpt><trkpt lat="46.01228912821044" lon="12.775452625420675"><ele>57.6</ele><time>2026-03-22T10:15:55.001Z</time></trkpt><trkpt lat="46.01218774561947" lon="12.775381793465717"><ele>57.0</ele><time>2026-03-22T10:15:56.001Z</time></trkpt><trkpt lat="46.01210155821167" lon="12.775312185887747"><ele>57.0</ele><time>2026-03-22T10:15:57.001Z</time></trkpt><trkpt lat="46.012022431484844" lon="12.7752340785596"><ele>57.0</ele><time>2026-03-22T10:15:58.001Z</time></trkpt><trkpt lat="46.011960198756405" lon="12.77514696444805"><ele>57.0</ele><time>2026-03-22T10:15:59.001Z</time></trkpt><trkpt lat="46.01190216145283" lon="12.775031112111602"><ele>57.0</ele><time>2026-03-22T10:16:00.001Z</time></trkpt><trkpt lat="46.01184469079733" lon="12.774882684445194"><ele>57.0</ele><time>2026-03-22T10:16:01.001Z</time></trkpt><trkpt lat="46.01177809519015" lon="12.774730244531199"><ele>57.0</ele><time>2026-03-22T10:16:02.001Z</time></trkpt><trkpt lat="46.011697578067476" lon="12.774604330489208"><ele>57.0</ele><time>2026-03-22T10:16:03.001Z</time></trkpt><trkpt lat="46.01161714729607" lon="12.77447968078494"><ele>57.0</ele><time>2026-03-22T10:16:04.001Z</time></trkpt><trkpt lat="46.01154588590739" lon="12.774374943497607"><ele>57.0</ele><time>2026-03-22T10:16:05.001Z</time></trkpt><trkpt lat="46.01148101011041" lon="12.77428802728693"><ele>57.0</ele><time>2026-03-22T10:16:06.001Z</time></trkpt><trkpt lat="46.01140803074977" lon="12.774204775933374"><ele>57.166666666666664</ele><time>2026-03-22T10:16:07.001Z</time></trkpt><trkpt lat="46.01133893698298" lon="12.774141835614282"><ele>57.33333333333333</ele><time>2026-03-22T10:16:08.001Z</time></trkpt><trkpt lat="46.01126976624979" lon="12.774096164699145"><ele>57.5</ele><time>2026-03-22T10:16:09.001Z</time></trkpt><trkpt lat="46.01117710095441" lon="12.774077740146835"><ele>57.666666666666664</ele><time>2026-03-22T10:16:10.001Z</time></trkpt><trkpt lat="46.0110670660073" lon="12.77404456490411"><ele>57.83333333333333</ele><time>2026-03-22T10:16:11.001Z</time></trkpt><trkpt lat="46.01099220611615" lon="12.774009004068546"><ele>58.0</ele><time>2026-03-22T10:16:12.001Z</time></trkpt><trkpt lat="46.010921567491266" lon="12.77394827563113"><ele>57.99999999999999</ele><time>2026-03-22T10:16:13.001Z</time></trkpt><trkpt lat="46.01084949797983" lon="12.773881538262225"><ele>58.0</ele><time>2026-03-22T10:16:14.001Z</time></trkpt><trkpt lat="46.01078032014837" lon="12.773788434227832"><ele>58.0</ele><time>2026-03-22T10:16:15.001Z</time></trkpt><trkpt lat="46.01070873636681" lon="12.773717887278698"><ele>58.0</ele><time>2026-03-22T10:16:16.001Z</time></trkpt><trkpt lat="46.01063102898014" lon="12.77368096407897"><ele>57.99999999999999</ele><time>2026-03-22T10:16:17.001Z</time></trkpt><trkpt lat="46.010546325805855" lon="12.773648634240642"><ele>58.0</ele><time>2026-03-22T10:16:18.001Z</time></trkpt><trkpt lat="46.01047883710481" lon="12.773583447351001"><ele>57.83333333333333</ele><time>2026-03-22T10:16:19.001Z</time></trkpt><trkpt lat="46.01040629184736" lon="12.773514762888324"><ele>57.666666666666664</ele><time>2026-03-22T10:16:20.001Z</time></trkpt><trkpt lat="46.01032187096807" lon="12.773466086242887"><ele>57.5</ele><time>2026-03-22T10:16:21.001Z</time></trkpt><trkpt lat="46.01023557850115" lon="12.77343757067851"><ele>57.33333333333333</ele><time>2026-03-22T10:16:22.001Z</time></trkpt><trkpt lat="46.010170888693075" lon="12.773419506212058"><ele>57.166666666666664</ele><time>2026-03-22T10:16:23.001Z</time></trkpt><trkpt lat="46.01012728798202" lon="12.773315289354306"><ele>57.0</ele><time>2026-03-22T10:16:25.001Z</time></trkpt><trkpt lat="46.010122437962444" lon="12.773210757684346"><ele>57.0</ele><time>2026-03-22T10:16:26.001Z</time></trkpt><trkpt lat="46.01014109550652" lon="12.773107101870297"><ele>57.0</ele><time>2026-03-22T10:16:27.001Z</time></trkpt><trkpt lat="46.010163590462156" lon="12.772985895241948"><ele>57.0</ele><time>2026-03-22T10:16:28.001Z</time></trkpt><trkpt lat="46.01017472860302" lon="12.772863752698285"><ele>57.0</ele><time>2026-03-22T10:16:29.001Z</time></trkpt><trkpt lat="46.01016607054207" lon="12.772740116183305"><ele>57.0</ele><time>2026-03-22T10:16:30.001Z</time></trkpt><trkpt lat="46.01014062668988" lon="12.772618784632826"><ele>57.0</ele><time>2026-03-22T10:16:31.001Z</time></trkpt><trkpt lat="46.01011027516776" lon="12.772500375483313"><ele>57.166666666666664</ele><time>2026-03-22T10:16:32.001Z</time></trkpt><trkpt lat="46.01007319160587" lon="12.772383987407196"><ele>57.33333333333333</ele><time>2026-03-22T10:16:33.001Z</time></trkpt><trkpt lat="46.01002652784013" lon="12.77228491860486"><ele>57.5</ele><time>2026-03-22T10:16:34.001Z</time></trkpt><trkpt lat="46.0099687605458" lon="12.772190947098975"><ele>57.666666666666664</ele><time>2026-03-22T10:16:35.001Z</time></trkpt><trkpt lat="46.00989684812595" lon="12.772094946803989"><ele>57.83333333333333</ele><time>2026-03-22T10:16:36.001Z</time></trkpt><trkpt lat="46.00983337815503" lon="12.772003181376144"><ele>58.0</ele><time>2026-03-22T10:16:37.001Z</time></trkpt><trkpt lat="46.00978795753911" lon="12.771903003839519"><ele>57.599999999999994</ele><time>2026-03-22T10:16:38.001Z</time></trkpt><trkpt lat="46.00975077441809" lon="12.77179368221361"><ele>57.199999999999996</ele><time>2026-03-22T10:16:39.001Z</time></trkpt><trkpt lat="46.009711044246735" lon="12.771639775875547"><ele>56.8</ele><time>2026-03-22T10:16:40.001Z</time></trkpt><trkpt lat="46.00967380494322" lon="12.771498107285488"><ele>56.4</ele><time>2026-03-22T10:16:41.001Z</time></trkpt><trkpt lat="46.00961998648605" lon="12.771348953484212"><ele>56.0</ele><time>2026-03-22T10:16:42.001Z</time></trkpt><trkpt lat="46.00955636813302" lon="12.771197179256104"><ele>56.00000000000001</ele><time>2026-03-22T10:16:43Z</time></trkpt><trkpt lat="46.00949195228183" lon="12.77107069472605"><ele>56.0</ele><time>2026-03-22T10:16:44Z</time></trkpt><trkpt lat="46.009438270560416" lon="12.770982001162794"><ele>56.0</ele><time>2026-03-22T10:16:45Z</time></trkpt><trkpt lat="46.009408255504226" lon="12.770894712425173"><ele>56.0</ele><time>2026-03-22T10:16:46Z</time></trkpt><trkpt lat="46.00940761005698" lon="12.770798395626915"><ele>56.00000000000001</ele><time>2026-03-22T10:16:47Z</time></trkpt><trkpt lat="46.00940933005552" lon="12.770658441598687"><ele>56.0</ele><time>2026-03-22T10:16:48Z</time></trkpt><trkpt lat="46.00940726989136" lon="12.77050590847543"><ele>56.4</ele><time>2026-03-22T10:16:49Z</time></trkpt><trkpt lat="46.00940009222799" lon="12.77037552058281"><ele>56.8</ele><time>2026-03-22T10:16:50Z</time></trkpt><trkpt lat="46.00937891792872" lon="12.770266138235714"><ele>57.199999999999996</ele><time>2026-03-22T10:16:51Z</time></trkpt><trkpt lat="46.00933376340774" lon="12.770152376840977"><ele>57.599999999999994</ele><time>2026-03-22T10:16:52Z</time></trkpt><trkpt lat="46.00927680667173" lon="12.770029074333952"><ele>58.0</ele><time>2026-03-22T10:16:53Z</time></trkpt><trkpt lat="46.00920223364796" lon="12.769887653822932"><ele>58.33333333333333</ele><time>2026-03-22T10:16:54Z</time></trkpt><trkpt lat="46.009140578155375" lon="12.769768889379572"><ele>58.666666666666664</ele><time>2026-03-22T10:16:55Z</time></trkpt><trkpt lat="46.009086496353305" lon="12.769662314539405"><ele>59.0</ele><time>2026-03-22T10:16:56Z</time></trkpt><trkpt lat="46.00902724284189" lon="12.769552197575882"><ele>59.33333333333333</ele><time>2026-03-22T10:16:57Z</time></trkpt><trkpt lat="46.00896582053568" lon="12.769464570266793"><ele>59.666666666666664</ele><time>2026-03-22T10:16:58Z</time></trkpt><trkpt lat="46.008913072553824" lon="12.769407325776895"><ele>60.0</ele><time>2026-03-22T10:16:59Z</time></trkpt><trkpt lat="46.00884483154488" lon="12.769328110381368"><ele>60.0</ele><time>2026-03-22T10:17:00Z</time></trkpt><trkpt lat="46.008775204581816" lon="12.76923477213802"><ele>60.0</ele><time>2026-03-22T10:17:01Z</time></trkpt><trkpt lat="46.008728065070564" lon="12.769146530633405"><ele>60.0</ele><time>2026-03-22T10:17:02Z</time></trkpt><trkpt lat="46.00869909265035" lon="12.769064128628141"><ele>60.0</ele><time>2026-03-22T10:17:03Z</time></trkpt><trkpt lat="46.00868851070167" lon="12.768856167407248"><ele>60.0</ele><time>2026-03-22T10:17:05Z</time></trkpt><trkpt lat="46.008699134455775" lon="12.76870769135049"><ele>60.0</ele><time>2026-03-22T10:17:06Z</time></trkpt><trkpt lat="46.008720885063816" lon="12.768544582700914"><ele>60.0</ele><time>2026-03-22T10:17:07Z</time></trkpt><trkpt lat="46.008746470375364" lon="12.768416996002317"><ele>60.0</ele><time>2026-03-22T10:17:08Z</time></trkpt><trkpt lat="46.00877301431408" lon="12.768315674840311"><ele>60.0</ele><time>2026-03-22T10:17:09Z</time></trkpt><trkpt lat="46.008760989852185" lon="12.768137934137556"><ele>60.0</ele><time>2026-03-22T10:17:11Z</time></trkpt><trkpt lat="46.008742757459245" lon="12.768031622969929"><ele>60.0</ele><time>2026-03-22T10:17:12Z</time></trkpt><trkpt lat="46.00872549887227" lon="12.767923429596443"><ele>60.0</ele><time>2026-03-22T10:17:13Z</time></trkpt><trkpt lat="46.00871136484953" lon="12.76781734990241"><ele>60.0</ele><time>2026-03-22T10:17:14Z</time></trkpt><trkpt lat="46.00870346639152" lon="12.767725971198127"><ele>60.0</ele><time>2026-03-22T10:17:15Z</time></trkpt><trkpt lat="46.008715749967486" lon="12.767633061488656"><ele>60.0</ele><time>2026-03-22T10:17:16Z</time></trkpt><trkpt lat="46.00870580716472" lon="12.767518706119157"><ele>60.0</ele><time>2026-03-22T10:17:18Z</time></trkpt><trkpt lat="46.00867901892014" lon="12.767407527777246"><ele>60.0</ele><time>2026-03-22T10:17:21Z</time></trkpt><trkpt lat="46.00868675838872" lon="12.767512738072927"><ele>60.0</ele><time>2026-03-22T10:17:43Z</time></trkpt><trkpt lat="46.008718094616704" lon="12.76764279214023"><ele>60.0</ele><time>2026-03-22T10:17:45Z</time></trkpt><trkpt lat="46.00873971452386" lon="12.767786774976546"><ele>60.0</ele><time>2026-03-22T10:17:47Z</time></trkpt><trkpt lat="46.0087950770971" lon="12.767841362382473"><ele>60.0</ele><time>2026-03-22T10:17:52.001Z</time></trkpt><trkpt lat="46.008932798935874" lon="12.767930752630063"><ele>60.0</ele><time>2026-03-22T10:17:54.001Z</time></trkpt><trkpt lat="46.008947445908774" lon="12.768019513245482"><ele>60.0</ele><time>2026-03-22T10:17:55.001Z</time></trkpt><trkpt lat="46.00889679313497" lon="12.76812251370116"><ele>60.0</ele><time>2026-03-22T10:17:59.001Z</time></trkpt><trkpt lat="46.00880532145525" lon="12.768139519206123"><ele>60.0</ele><time>2026-03-22T10:18:01.001Z</time></trkpt><trkpt lat="46.008751478477464" lon="12.76809062394294"><ele>60.0</ele><time>2026-03-22T10:18:03.001Z</time></trkpt><trkpt lat="46.00871125019167" lon="12.767973901293868"><ele>60.0</ele><time>2026-03-22T10:18:05.001Z</time></trkpt><trkpt lat="46.00873456716671" lon="12.767859916986087"><ele>60.0</ele><time>2026-03-22T10:18:07.001Z</time></trkpt><trkpt lat="46.0088269181163" lon="12.767775959159913"><ele>60.0</ele><time>2026-03-22T10:18:09.001Z</time></trkpt><trkpt lat="46.008875690206146" lon="12.767710375166054"><ele>60.0</ele><time>2026-03-22T10:18:11.001Z</time></trkpt><trkpt lat="46.0088895690611" lon="12.76760532282125"><ele>60.0</ele><time>2026-03-22T10:18:14.001Z</time></trkpt><trkpt lat="46.008805123996325" lon="12.767661291639635"><ele>60.0</ele><time>2026-03-22T10:20:02.001Z</time></trkpt><trkpt lat="46.008727300983544" lon="12.76751910650444"><ele>60.0</ele><time>2026-03-22T10:20:04.001Z</time></trkpt><trkpt lat="46.00869392159981" lon="12.767401613017327"><ele>60.0</ele><time>2026-03-22T10:20:05.001Z</time></trkpt><trkpt lat="46.00865478052869" lon="12.767260243189863"><ele>60.0</ele><time>2026-03-22T10:20:06.001Z</time></trkpt><trkpt lat="46.00861334859643" lon="12.767127521336256"><ele>60.0</ele><time>2026-03-22T10:20:07.001Z</time></trkpt><trkpt lat="46.00856075398336" lon="12.767016521579215"><ele>60.0</ele><time>2026-03-22T10:20:08.001Z</time></trkpt><trkpt lat="46.008499568828135" lon="12.766919956303894"><ele>60.0</ele><time>2026-03-22T10:20:09.001Z</time></trkpt><trkpt lat="46.00844158709277" lon="12.76681511077573"><ele>60.0</ele><time>2026-03-22T10:20:10.001Z</time></trkpt><trkpt lat="46.008383659411976" lon="12.766715002442462"><ele>59.4</ele><time>2026-03-22T10:20:11.001Z</time></trkpt><trkpt lat="46.008318371060746" lon="12.766607308754688"><ele>58.8</ele><time>2026-03-22T10:20:12.001Z</time></trkpt><trkpt lat="46.00825261760859" lon="12.766519318546274"><ele>58.2</ele><time>2026-03-22T10:20:13.001Z</time></trkpt><trkpt lat="46.008184809224964" lon="12.766408352683403"><ele>57.6</ele><time>2026-03-22T10:20:14.001Z</time></trkpt><trkpt lat="46.00812302819669" lon="12.766295009333213"><ele>57.0</ele><time>2026-03-22T10:20:15.001Z</time></trkpt><trkpt lat="46.008072301245434" lon="12.766168629144977"><ele>57.0</ele><time>2026-03-22T10:20:16.001Z</time></trkpt><trkpt lat="46.0080294751117" lon="12.76605069992731"><ele>57.0</ele><time>2026-03-22T10:20:17.001Z</time></trkpt><trkpt lat="46.007991526361835" lon="12.765924466142822"><ele>57.0</ele><time>2026-03-22T10:20:18.001Z</time></trkpt><trkpt lat="46.00794327288514" lon="12.765783778239111"><ele>57.0</ele><time>2026-03-22T10:20:19.001Z</time></trkpt><trkpt lat="46.00787789372945" lon="12.765628255645614"><ele>57.0</ele><time>2026-03-22T10:20:20.001Z</time></trkpt><trkpt lat="46.00780539568485" lon="12.76546644229492"><ele>57.0</ele><time>2026-03-22T10:20:21.001Z</time></trkpt><trkpt lat="46.00773297398737" lon="12.765281721218782"><ele>57.0</ele><time>2026-03-22T10:20:22.001Z</time></trkpt><trkpt lat="46.007667059062626" lon="12.765094799206002"><ele>57.0</ele><time>2026-03-22T10:20:23.001Z</time></trkpt><trkpt lat="46.00759799537227" lon="12.764910055722229"><ele>57.0</ele><time>2026-03-22T10:20:24.001Z</time></trkpt><trkpt lat="46.00753369299302" lon="12.764723437448573"><ele>57.0</ele><time>2026-03-22T10:20:25.001Z</time></trkpt><trkpt lat="46.00747926808576" lon="12.764555331120315"><ele>57.0</ele><time>2026-03-22T10:20:26.001Z</time></trkpt><trkpt lat="46.00743107826979" lon="12.76437389867442"><ele>57.0</ele><time>2026-03-22T10:20:27.001Z</time></trkpt><trkpt lat="46.00738731286143" lon="12.764178467199528"><ele>57.0</ele><time>2026-03-22T10:20:28.001Z</time></trkpt><trkpt lat="46.007348202511785" lon="12.763998313061425"><ele>57.0</ele><time>2026-03-22T10:20:29.001Z</time></trkpt><trkpt lat="46.007309996693955" lon="12.7638046261874"><ele>57.0</ele><time>2026-03-22T10:20:30.001Z</time></trkpt><trkpt lat="46.00725950606647" lon="12.763608348750445"><ele>57.0</ele><time>2026-03-22T10:20:31.001Z</time></trkpt><trkpt lat="46.007204337473596" lon="12.763436612958317"><ele>57.0</ele><time>2026-03-22T10:20:32.001Z</time></trkpt><trkpt lat="46.00715035768026" lon="12.76326275919506"><ele>56.75</ele><time>2026-03-22T10:20:33.001Z</time></trkpt><trkpt lat="46.007100422683024" lon="12.763090959911018"><ele>56.5</ele><time>2026-03-22T10:20:34.001Z</time></trkpt><trkpt lat="46.00705837524038" lon="12.76292162575709"><ele>56.25</ele><time>2026-03-22T10:20:35.001Z</time></trkpt><trkpt lat="46.007008899638876" lon="12.762747573984264"><ele>56.0</ele><time>2026-03-22T10:20:36.001Z</time></trkpt><trkpt lat="46.006952654362905" lon="12.762570649737256"><ele>56.0</ele><time>2026-03-22T10:20:37.001Z</time></trkpt><trkpt lat="46.00690754705383" lon="12.76241287544071"><ele>55.99999999999999</ele><time>2026-03-22T10:20:38.001Z</time></trkpt><trkpt lat="46.00686769159359" lon="12.762282703107704"><ele>55.99999999999999</ele><time>2026-03-22T10:20:39.001Z</time></trkpt><trkpt lat="46.00682746742304" lon="12.762171449242663"><ele>56.0</ele><time>2026-03-22T10:20:40.001Z</time></trkpt><trkpt lat="46.00677978705464" lon="12.762039538622776"><ele>56.0</ele><time>2026-03-22T10:20:41.001Z</time></trkpt><trkpt lat="46.00672989877174" lon="12.761873552031966"><ele>56.0</ele><time>2026-03-22T10:20:42.001Z</time></trkpt><trkpt lat="46.00667220328755" lon="12.761717339323761"><ele>56.0</ele><time>2026-03-22T10:20:43.001Z</time></trkpt><trkpt lat="46.00662348689395" lon="12.761550602508999"><ele>56.0</ele><time>2026-03-22T10:20:44.001Z</time></trkpt><trkpt lat="46.006568407139774" lon="12.76137951024707"><ele>56.0</ele><time>2026-03-22T10:20:45.001Z</time></trkpt><trkpt lat="46.0065268276716" lon="12.761230072142155"><ele>55.75</ele><time>2026-03-22T10:20:46.001Z</time></trkpt><trkpt lat="46.00648596949652" lon="12.761078749334425"><ele>55.5</ele><time>2026-03-22T10:20:47.001Z</time></trkpt><trkpt lat="46.00644031112942" lon="12.760927615249248"><ele>55.25</ele><time>2026-03-22T10:20:48.001Z</time></trkpt><trkpt lat="46.00639003110979" lon="12.760760409086105"><ele>55.0</ele><time>2026-03-22T10:20:49.001Z</time></trkpt><trkpt lat="46.006356006341726" lon="12.760610997108783"><ele>55.0</ele><time>2026-03-22T10:20:50.001Z</time></trkpt><trkpt lat="46.006317876251" lon="12.760451085056545"><ele>55.0</ele><time>2026-03-22T10:20:51.001Z</time></trkpt><trkpt lat="46.00627746694637" lon="12.760279860167183"><ele>55.0</ele><time>2026-03-22T10:20:52.001Z</time></trkpt><trkpt lat="46.00622597835196" lon="12.760093849283377"><ele>55.0</ele><time>2026-03-22T10:20:53.001Z</time></trkpt><trkpt lat="46.006173475125145" lon="12.759905615453013"><ele>54.33333333333333</ele><time>2026-03-22T10:20:54.001Z</time></trkpt><trkpt lat="46.00612037303472" lon="12.75969427265109"><ele>53.66666666666667</ele><time>2026-03-22T10:20:55.001Z</time></trkpt><trkpt lat="46.00607161284978" lon="12.759485958015553"><ele>53.0</ele><time>2026-03-22T10:20:56.001Z</time></trkpt><trkpt lat="46.006019097882096" lon="12.759272292453792"><ele>53.0</ele><time>2026-03-22T10:20:57.001Z</time></trkpt><trkpt lat="46.0059685764525" lon="12.759049731507998"><ele>53.0</ele><time>2026-03-22T10:20:58.001Z</time></trkpt><trkpt lat="46.00592409698476" lon="12.75883073613793"><ele>53.0</ele><time>2026-03-22T10:20:59.001Z</time></trkpt><trkpt lat="46.00588932656416" lon="12.758641181429136"><ele>53.0</ele><time>2026-03-22T10:21:00.001Z</time></trkpt><trkpt lat="46.00584869824309" lon="12.75846556435654"><ele>53.0</ele><time>2026-03-22T10:21:01.001Z</time></trkpt><trkpt lat="46.00580549458112" lon="12.758290434080466"><ele>53.0</ele><time>2026-03-22T10:21:02.001Z</time></trkpt><trkpt lat="46.00575932380632" lon="12.758100985463358"><ele>53.0</ele><time>2026-03-22T10:21:03.001Z</time></trkpt><trkpt lat="46.00571337049476" lon="12.75789962578035"><ele>52.333333333333336</ele><time>2026-03-22T10:21:04.001Z</time></trkpt><trkpt lat="46.00566917823782" lon="12.757696903136441"><ele>51.66666666666667</ele><time>2026-03-22T10:21:05.001Z</time></trkpt><trkpt lat="46.005627026546605" lon="12.757494836365415"><ele>51.0</ele><time>2026-03-22T10:21:06.001Z</time></trkpt><trkpt lat="46.00558268066088" lon="12.757277531926722"><ele>51.0</ele><time>2026-03-22T10:21:07.001Z</time></trkpt><trkpt lat="46.00553964104776" lon="12.757049398439225"><ele>51.0</ele><time>2026-03-22T10:21:08.001Z</time></trkpt><trkpt lat="46.00549337866932" lon="12.756820063613839"><ele>51.0</ele><time>2026-03-22T10:21:09.001Z</time></trkpt><trkpt lat="46.00543995679719" lon="12.7565644387717"><ele>51.33333333333333</ele><time>2026-03-22T10:21:10.001Z</time></trkpt><trkpt lat="46.0053867542143" lon="12.756297464722863"><ele>51.666666666666664</ele><time>2026-03-22T10:21:11Z</time></trkpt><trkpt lat="46.00533762091143" lon="12.756036678688671"><ele>52.0</ele><time>2026-03-22T10:21:12Z</time></trkpt><trkpt lat="46.00529112679947" lon="12.75577907515457"><ele>53.0</ele><time>2026-03-22T10:21:13Z</time></trkpt><trkpt lat="46.005245830854776" lon="12.755512560325222"><ele>54.0</ele><time>2026-03-22T10:21:14Z</time></trkpt><trkpt lat="46.005206898245866" lon="12.755253847051675"><ele>55.0</ele><time>2026-03-22T10:21:15Z</time></trkpt><trkpt lat="46.00516862504116" lon="12.755006925760782"><ele>55.0</ele><time>2026-03-22T10:21:16Z</time></trkpt><trkpt lat="46.005134360281154" lon="12.75479856459044"><ele>55.0</ele><time>2026-03-22T10:21:17Z</time></trkpt><trkpt lat="46.00510292196564" lon="12.754622422945408"><ele>55.0</ele><time>2026-03-22T10:21:18Z</time></trkpt><trkpt lat="46.005071869380046" lon="12.75446763482112"><ele>55.0</ele><time>2026-03-22T10:21:19Z</time></trkpt><trkpt lat="46.005043602380624" lon="12.754318303792273"><ele>55.0</ele><time>2026-03-22T10:21:20Z</time></trkpt><trkpt lat="46.00501384061612" lon="12.754157238495237"><ele>55.0</ele><time>2026-03-22T10:21:21Z</time></trkpt><trkpt lat="46.00496494751668" lon="12.753975871887116"><ele>55.0</ele><time>2026-03-22T10:21:22Z</time></trkpt><trkpt lat="46.00490553093279" lon="12.753788656738163"><ele>55.0</ele><time>2026-03-22T10:21:23Z</time></trkpt><trkpt lat="46.004834084905" lon="12.753598454075767"><ele>54.33333333333333</ele><time>2026-03-22T10:21:24Z</time></trkpt><trkpt lat="46.004740354652384" lon="12.753412807988617"><ele>53.66666666666667</ele><time>2026-03-22T10:21:25Z</time></trkpt><trkpt lat="46.00464949939493" lon="12.753232438193537"><ele>53.0</ele><time>2026-03-22T10:21:26Z</time></trkpt><trkpt lat="46.00457151626637" lon="12.753056468978617"><ele>53.0</ele><time>2026-03-22T10:21:27Z</time></trkpt><trkpt lat="46.004506387284586" lon="12.752874882425584"><ele>53.0</ele><time>2026-03-22T10:21:28Z</time></trkpt><trkpt lat="46.004428193539134" lon="12.752680641089597"><ele>53.0</ele><time>2026-03-22T10:21:29Z</time></trkpt><trkpt lat="46.004380905694504" lon="12.752465350496891"><ele>53.0</ele><time>2026-03-22T10:21:30Z</time></trkpt><trkpt lat="46.0043589774608" lon="12.752251332234756"><ele>53.0</ele><time>2026-03-22T10:21:31Z</time></trkpt><trkpt lat="46.00437243639322" lon="12.75203039488988"><ele>53.0</ele><time>2026-03-22T10:21:32Z</time></trkpt><trkpt lat="46.004366683431684" lon="12.751731686176472"><ele>53.333333333333336</ele><time>2026-03-22T10:21:33Z</time></trkpt><trkpt lat="46.00434216411194" lon="12.751401511793715"><ele>53.66666666666667</ele><time>2026-03-22T10:21:34Z</time></trkpt><trkpt lat="46.004314418925276" lon="12.751110440554976"><ele>54.0</ele><time>2026-03-22T10:21:35Z</time></trkpt><trkpt lat="46.004282565515425" lon="12.750855101925788"><ele>53.5</ele><time>2026-03-22T10:21:36Z</time></trkpt><trkpt lat="46.004256846056386" lon="12.75062890979776"><ele>53.0</ele><time>2026-03-22T10:21:37Z</time></trkpt><trkpt lat="46.0042319676091" lon="12.750425806378928"><ele>52.5</ele><time>2026-03-22T10:21:38Z</time></trkpt><trkpt lat="46.00420672308188" lon="12.750245331083491"><ele>52.0</ele><time>2026-03-22T10:21:39Z</time></trkpt><trkpt lat="46.004180178219805" lon="12.75008053069768"><ele>51.83333333333333</ele><time>2026-03-22T10:21:40Z</time></trkpt><trkpt lat="46.00415643993856" lon="12.749934237714657"><ele>51.666666666666664</ele><time>2026-03-22T10:21:41Z</time></trkpt><trkpt lat="46.00414335130296" lon="12.749813632573561"><ele>51.5</ele><time>2026-03-22T10:21:42Z</time></trkpt><trkpt lat="46.00413115323037" lon="12.749709614287536"><ele>51.33333333333333</ele><time>2026-03-22T10:21:43Z</time></trkpt><trkpt lat="46.00410011344801" lon="12.749559057758049"><ele>51.166666666666664</ele><time>2026-03-22T10:21:45Z</time></trkpt><trkpt lat="46.00408418022485" lon="12.749468838413987"><ele>51.0</ele><time>2026-03-22T10:21:48Z</time></trkpt><trkpt lat="46.00403367364366" lon="12.749273345042564"><ele>51.0</ele><time>2026-03-22T10:24:51.001Z</time></trkpt><trkpt lat="46.00399229052308" lon="12.74913285296936"><ele>51.0</ele><time>2026-03-22T10:24:52.001Z</time></trkpt><trkpt lat="46.00395989836244" lon="12.74895383771219"><ele>51.0</ele><time>2026-03-22T10:24:53.001Z</time></trkpt><trkpt lat="46.0039187746824" lon="12.748736045752427"><ele>51.0</ele><time>2026-03-22T10:24:54.001Z</time></trkpt><trkpt lat="46.0038729116605" lon="12.748520098742345"><ele>51.33333333333333</ele><time>2026-03-22T10:24:55.001Z</time></trkpt><trkpt lat="46.003828593100906" lon="12.748301427704417"><ele>51.666666666666664</ele><time>2026-03-22T10:24:56.001Z</time></trkpt><trkpt lat="46.0037854159605" lon="12.748088591453298"><ele>52.0</ele><time>2026-03-22T10:24:57.001Z</time></trkpt><trkpt lat="46.003746172396966" lon="12.747898036423093"><ele>52.0</ele><time>2026-03-22T10:24:58.001Z</time></trkpt><trkpt lat="46.00371986623624" lon="12.74774455112634"><ele>52.0</ele><time>2026-03-22T10:24:59.001Z</time></trkpt><trkpt lat="46.003698987976776" lon="12.747616855993181"><ele>52.0</ele><time>2026-03-22T10:25:00.001Z</time></trkpt><trkpt lat="46.003676729980114" lon="12.747510847543994"><ele>52.0</ele><time>2026-03-22T10:25:01.001Z</time></trkpt><trkpt lat="46.00364460431578" lon="12.74739625645058"><ele>52.0</ele><time>2026-03-22T10:25:03.001Z</time></trkpt><trkpt lat="46.00360534187057" lon="12.747234109580667"><ele>52.0</ele><time>2026-03-22T10:26:22Z</time></trkpt><trkpt lat="46.003579138734125" lon="12.747093172101945"><ele>52.0</ele><time>2026-03-22T10:26:23Z</time></trkpt><trkpt lat="46.00353178094523" lon="12.746938875941678"><ele>52.0</ele><time>2026-03-22T10:26:24Z</time></trkpt><trkpt lat="46.00348753750978" lon="12.746784827659223"><ele>52.0</ele><time>2026-03-22T10:26:25Z</time></trkpt><trkpt lat="46.00343966651167" lon="12.746590975114545"><ele>52.0</ele><time>2026-03-22T10:26:26Z</time></trkpt><trkpt lat="46.00339726361413" lon="12.746375274765036"><ele>52.0</ele><time>2026-03-22T10:26:27Z</time></trkpt><trkpt lat="46.003359102426295" lon="12.746152270521348"><ele>52.0</ele><time>2026-03-22T10:26:28Z</time></trkpt><trkpt lat="46.00331341429885" lon="12.74592457696295"><ele>52.0</ele><time>2026-03-22T10:26:29Z</time></trkpt><trkpt lat="46.003267726219946" lon="12.745708601224797"><ele>52.0</ele><time>2026-03-22T10:26:30Z</time></trkpt><trkpt lat="46.00322649236412" lon="12.74549584151173"><ele>52.0</ele><time>2026-03-22T10:26:31Z</time></trkpt><trkpt lat="46.003182437978985" lon="12.745273891062023"><ele>51.0</ele><time>2026-03-22T10:26:32Z</time></trkpt><trkpt lat="46.00313680826576" lon="12.745044660649487"><ele>50.0</ele><time>2026-03-22T10:26:33Z</time></trkpt><trkpt lat="46.00307959532147" lon="12.744834735965465"><ele>49.0</ele><time>2026-03-22T10:26:34Z</time></trkpt><trkpt lat="46.003039220047384" lon="12.744631830124037"><ele>49.0</ele><time>2026-03-22T10:26:35Z</time></trkpt><trkpt lat="46.00300502098902" lon="12.74443793331188"><ele>49.0</ele><time>2026-03-22T10:26:36Z</time></trkpt><trkpt lat="46.00297444284891" lon="12.744248715800468"><ele>49.0</ele><time>2026-03-22T10:26:37Z</time></trkpt><trkpt lat="46.00294324318896" lon="12.744062364377228"><ele>49.0</ele><time>2026-03-22T10:26:38Z</time></trkpt><trkpt lat="46.00291190555456" lon="12.743884946533036"><ele>49.0</ele><time>2026-03-22T10:26:39Z</time></trkpt><trkpt lat="46.00289886256319" lon="12.743713270977443"><ele>49.0</ele><time>2026-03-22T10:26:40Z</time></trkpt><trkpt lat="46.00287248429727" lon="12.743554719896661"><ele>49.0</ele><time>2026-03-22T10:26:41Z</time></trkpt><trkpt lat="46.002842886129066" lon="12.743391774093295"><ele>49.0</ele><time>2026-03-22T10:26:42Z</time></trkpt><trkpt lat="46.00281388749045" lon="12.743226092089083"><ele>49.5</ele><time>2026-03-22T10:26:43Z</time></trkpt><trkpt lat="46.00278093820457" lon="12.743060760979217"><ele>50.0</ele><time>2026-03-22T10:26:44Z</time></trkpt><trkpt lat="46.002743444373884" lon="12.742893971870561"><ele>50.5</ele><time>2026-03-22T10:26:45Z</time></trkpt><trkpt lat="46.002709007711935" lon="12.74272489727526"><ele>51.0</ele><time>2026-03-22T10:26:46Z</time></trkpt><trkpt lat="46.00267866825543" lon="12.74255741412653"><ele>51.25</ele><time>2026-03-22T10:26:47Z</time></trkpt><trkpt lat="46.002648285198646" lon="12.742390832689448"><ele>51.5</ele><time>2026-03-22T10:26:48Z</time></trkpt><trkpt lat="46.00262382368574" lon="12.742223861967462"><ele>51.75</ele><time>2026-03-22T10:26:49Z</time></trkpt><trkpt lat="46.00260401436525" lon="12.742055354026501"><ele>52.0</ele><time>2026-03-22T10:26:50Z</time></trkpt><trkpt lat="46.0025818921527" lon="12.741886438002478"><ele>52.0</ele><time>2026-03-22T10:26:51Z</time></trkpt><trkpt lat="46.002552671716536" lon="12.741720612432896"><ele>52.0</ele><time>2026-03-22T10:26:52Z</time></trkpt><trkpt lat="46.00252599183563" lon="12.741563205180782"><ele>52.0</ele><time>2026-03-22T10:26:53Z</time></trkpt><trkpt lat="46.002500546636114" lon="12.741414429665168"><ele>52.0</ele><time>2026-03-22T10:26:54Z</time></trkpt><trkpt lat="46.00247611078977" lon="12.7412770455573"><ele>52.0</ele><time>2026-03-22T10:26:55Z</time></trkpt><trkpt lat="46.002449211618874" lon="12.741147286484852"><ele>51.666666666666664</ele><time>2026-03-22T10:26:56Z</time></trkpt><trkpt lat="46.00242280437884" lon="12.741027117621002"><ele>51.33333333333333</ele><time>2026-03-22T10:26:57Z</time></trkpt><trkpt lat="46.00239427734149" lon="12.740909782094922"><ele>51.0</ele><time>2026-03-22T10:26:58Z</time></trkpt><trkpt lat="46.00236551236551" lon="12.74078807102181"><ele>50.66666666666667</ele><time>2026-03-22T10:26:59Z</time></trkpt><trkpt lat="46.00234255858586" lon="12.740675604958422"><ele>50.333333333333336</ele><time>2026-03-22T10:27:00Z</time></trkpt><trkpt lat="46.002322396721425" lon="12.740578688896939"><ele>50.0</ele><time>2026-03-22T10:27:01Z</time></trkpt><trkpt lat="46.00229889931115" lon="12.740450290556268"><ele>50.0</ele><time>2026-03-22T10:27:03Z</time></trkpt><trkpt lat="46.00225819819363" lon="12.740354774913394"><ele>50.0</ele><time>2026-03-22T10:27:09Z</time></trkpt><trkpt lat="46.00222292949235" lon="12.740230286854509"><ele>50.0</ele><time>2026-03-22T10:27:10Z</time></trkpt><trkpt lat="46.00215871088119" lon="12.74006933565045"><ele>50.0</ele><time>2026-03-22T10:27:11Z</time></trkpt><trkpt lat="46.0020745513121" lon="12.73984621785724"><ele>50.333333333333336</ele><time>2026-03-22T10:27:12Z</time></trkpt><trkpt lat="46.00199799952916" lon="12.739608953050157"><ele>50.66666666666667</ele><time>2026-03-22T10:27:13Z</time></trkpt><trkpt lat="46.001925038801886" lon="12.73935677648467"><ele>51.0</ele><time>2026-03-22T10:27:14Z</time></trkpt><trkpt lat="46.001873160426676" lon="12.739120660246193"><ele>51.0</ele><time>2026-03-22T10:27:15Z</time></trkpt><trkpt lat="46.00180622294559" lon="12.738876458829509"><ele>51.0</ele><time>2026-03-22T10:27:16Z</time></trkpt><trkpt lat="46.00174441132459" lon="12.738620751001758"><ele>51.0</ele><time>2026-03-22T10:27:17Z</time></trkpt><trkpt lat="46.00168518708704" lon="12.738341053732718"><ele>50.33333333333333</ele><time>2026-03-22T10:27:18Z</time></trkpt><trkpt lat="46.001629395818945" lon="12.738055602662843"><ele>49.666666666666664</ele><time>2026-03-22T10:27:19Z</time></trkpt><trkpt lat="46.001577444473476" lon="12.737790957816856"><ele>49.0</ele><time>2026-03-22T10:27:20Z</time></trkpt><trkpt lat="46.00152916621884" lon="12.737547045013079"><ele>49.0</ele><time>2026-03-22T10:27:21Z</time></trkpt><trkpt lat="46.001481972272614" lon="12.737319742634963"><ele>49.0</ele><time>2026-03-22T10:27:22Z</time></trkpt><trkpt lat="46.0014365149397" lon="12.737105985269556"><ele>49.0</ele><time>2026-03-22T10:27:23Z</time></trkpt><trkpt lat="46.0013943030164" lon="12.736905277658224"><ele>48.75</ele><time>2026-03-22T10:27:24Z</time></trkpt><trkpt lat="46.00134554967388" lon="12.736710491716359"><ele>48.5</ele><time>2026-03-22T10:27:25Z</time></trkpt><trkpt lat="46.00128844953914" lon="12.736512162339102"><ele>48.25</ele><time>2026-03-22T10:27:26Z</time></trkpt><trkpt lat="46.00122387883309" lon="12.736315638754752"><ele>48.0</ele><time>2026-03-22T10:27:27Z</time></trkpt><trkpt lat="46.0011445843824" lon="12.73612309769989"><ele>48.0</ele><time>2026-03-22T10:27:28Z</time></trkpt><trkpt lat="46.00104850994586" lon="12.7359269128283"><ele>48.0</ele><time>2026-03-22T10:27:29Z</time></trkpt><trkpt lat="46.00093186939218" lon="12.735713957582917"><ele>48.0</ele><time>2026-03-22T10:27:30Z</time></trkpt><trkpt lat="46.000801453313244" lon="12.73549056295344"><ele>48.0</ele><time>2026-03-22T10:27:31Z</time></trkpt><trkpt lat="46.000659227966544" lon="12.735258115054437"><ele>48.0</ele><time>2026-03-22T10:27:32Z</time></trkpt><trkpt lat="46.000513541029775" lon="12.735021099003186"><ele>48.0</ele><time>2026-03-22T10:27:33Z</time></trkpt><trkpt lat="46.00038424257425" lon="12.734810322035743"><ele>48.33333333333333</ele><time>2026-03-22T10:27:34Z</time></trkpt><trkpt lat="46.00026162233619" lon="12.734614933434305"><ele>48.666666666666664</ele><time>2026-03-22T10:27:35Z</time></trkpt><trkpt lat="46.000146129245714" lon="12.734424855414185"><ele>49.0</ele><time>2026-03-22T10:27:36Z</time></trkpt><trkpt lat="46.00003176293085" lon="12.734218483621587"><ele>48.33333333333333</ele><time>2026-03-22T10:27:37Z</time></trkpt><trkpt lat="45.999926303778615" lon="12.73399680356919"><ele>47.666666666666664</ele><time>2026-03-22T10:27:38Z</time></trkpt><trkpt lat="45.999830589832946" lon="12.733764478910048"><ele>47.0</ele><time>2026-03-22T10:27:39Z</time></trkpt><trkpt lat="45.999737910585736" lon="12.733510614187272"><ele>47.0</ele><time>2026-03-22T10:27:40Z</time></trkpt><trkpt lat="45.999649340172134" lon="12.733219069934407"><ele>47.0</ele><time>2026-03-22T10:27:41Z</time></trkpt><trkpt lat="45.99956654768496" lon="12.732918434368841"><ele>47.0</ele><time>2026-03-22T10:27:42Z</time></trkpt><trkpt lat="45.999490962726355" lon="12.732651828331797"><ele>47.33333333333333</ele><time>2026-03-22T10:27:43Z</time></trkpt><trkpt lat="45.99940810074926" lon="12.73237734998764"><ele>47.666666666666664</ele><time>2026-03-22T10:27:44Z</time></trkpt><trkpt lat="45.9993203777765" lon="12.73209171928151"><ele>48.0</ele><time>2026-03-22T10:27:45Z</time></trkpt><trkpt lat="45.99921853925025" lon="12.731781604518366"><ele>47.5</ele><time>2026-03-22T10:27:46Z</time></trkpt><trkpt lat="45.99909858736827" lon="12.73145240379426"><ele>47.0</ele><time>2026-03-22T10:27:47Z</time></trkpt><trkpt lat="45.99898668507576" lon="12.731166370582779"><ele>46.666666666666664</ele><time>2026-03-22T10:27:48Z</time></trkpt><trkpt lat="45.9988807735825" lon="12.730905443228087"><ele>46.333333333333336</ele><time>2026-03-22T10:27:49Z</time></trkpt><trkpt lat="45.998781803968704" lon="12.730656067041032"><ele>46.0</ele><time>2026-03-22T10:27:50Z</time></trkpt><trkpt lat="45.9986848313937" lon="12.730418578766331"><ele>46.0</ele><time>2026-03-22T10:27:51Z</time></trkpt><trkpt lat="45.9985922418712" lon="12.730195978349272"><ele>46.0</ele><time>2026-03-22T10:27:52Z</time></trkpt><trkpt lat="45.99849811306581" lon="12.729978823676326"><ele>46.0</ele><time>2026-03-22T10:27:53Z</time></trkpt><trkpt lat="45.998404960231326" lon="12.729758193209168"><ele>45.66666666666667</ele><time>2026-03-22T10:27:54Z</time></trkpt><trkpt lat="45.998310119382595" lon="12.729534950887532"><ele>45.333333333333336</ele><time>2026-03-22T10:27:55Z</time></trkpt><trkpt lat="45.99821113442473" lon="12.72931226455696"><ele>45.0</ele><time>2026-03-22T10:27:56Z</time></trkpt><trkpt lat="45.99811070069877" lon="12.729085180482514"><ele>45.666666666666664</ele><time>2026-03-22T10:27:57Z</time></trkpt><trkpt lat="45.99801141317042" lon="12.728851466863262"><ele>46.33333333333333</ele><time>2026-03-22T10:27:58Z</time></trkpt><trkpt lat="45.99790827411779" lon="12.728614734332256"><ele>47.0</ele><time>2026-03-22T10:27:59Z</time></trkpt><trkpt lat="45.99780065188022" lon="12.728379310130883"><ele>47.0</ele><time>2026-03-22T10:28:00Z</time></trkpt><trkpt lat="45.99770072883562" lon="12.728156287410332"><ele>47.0</ele><time>2026-03-22T10:28:01Z</time></trkpt><trkpt lat="45.99760746205344" lon="12.727943985427416"><ele>47.0</ele><time>2026-03-22T10:28:02Z</time></trkpt><trkpt lat="45.997517196802995" lon="12.727744196575621"><ele>46.666666666666664</ele><time>2026-03-22T10:28:03Z</time></trkpt><trkpt lat="45.997432698175615" lon="12.727561331971668"><ele>46.333333333333336</ele><time>2026-03-22T10:28:04Z</time></trkpt><trkpt lat="45.99734283208973" lon="12.727400037660292"><ele>46.0</ele><time>2026-03-22T10:28:05Z</time></trkpt><trkpt lat="45.99723011590463" lon="12.727249651712725"><ele>46.0</ele><time>2026-03-22T10:28:06Z</time></trkpt><trkpt lat="45.99709114301418" lon="12.727102877109639"><ele>46.0</ele><time>2026-03-22T10:28:07Z</time></trkpt><trkpt lat="45.996923008205755" lon="12.726946064009757"><ele>46.0</ele><time>2026-03-22T10:28:08Z</time></trkpt><trkpt lat="45.99673244213888" lon="12.726773113310095"><ele>45.66666666666667</ele><time>2026-03-22T10:28:09Z</time></trkpt><trkpt lat="45.99654888658491" lon="12.726606883138611"><ele>45.333333333333336</ele><time>2026-03-22T10:28:10Z</time></trkpt><trkpt lat="45.99637536353458" lon="12.72644499969446"><ele>45.0</ele><time>2026-03-22T10:28:11Z</time></trkpt><trkpt lat="45.99620351673802" lon="12.72629495233704"><ele>45.0</ele><time>2026-03-22T10:28:12Z</time></trkpt><trkpt lat="45.9960375670411" lon="12.726147531910938"><ele>45.0</ele><time>2026-03-22T10:28:13Z</time></trkpt><trkpt lat="45.99587427828505" lon="12.725999279328484"><ele>45.0</ele><time>2026-03-22T10:28:14Z</time></trkpt><trkpt lat="45.995714156688734" lon="12.725847640647258"><ele>44.333333333333336</ele><time>2026-03-22T10:28:15Z</time></trkpt><trkpt lat="45.99555467040232" lon="12.725697145315749"><ele>43.66666666666667</ele><time>2026-03-22T10:28:16Z</time></trkpt><trkpt lat="45.99539753071827" lon="12.725548899853298"><ele>43.0</ele><time>2026-03-22T10:28:17Z</time></trkpt><trkpt lat="45.9952448066719" lon="12.72540738357223"><ele>43.0</ele><time>2026-03-22T10:28:18Z</time></trkpt><trkpt lat="45.99510036161093" lon="12.725269407682893"><ele>43.0</ele><time>2026-03-22T10:28:19Z</time></trkpt><trkpt lat="45.99495640549623" lon="12.72513335451861"><ele>43.0</ele><time>2026-03-22T10:28:20Z</time></trkpt><trkpt lat="45.99482253882994" lon="12.724992838870696"><ele>42.5</ele><time>2026-03-22T10:28:21Z</time></trkpt><trkpt lat="45.9946983194749" lon="12.724859427268173"><ele>42.0</ele><time>2026-03-22T10:28:22Z</time></trkpt><trkpt lat="45.99458243424469" lon="12.724726418716099"><ele>41.5</ele><time>2026-03-22T10:28:23Z</time></trkpt><trkpt lat="45.994474350109755" lon="12.72458613978565"><ele>41.0</ele><time>2026-03-22T10:28:24Z</time></trkpt><trkpt lat="45.99437029642393" lon="12.724434586311114"><ele>41.0</ele><time>2026-03-22T10:28:25Z</time></trkpt><trkpt lat="45.99428552229736" lon="12.724276346063498"><ele>41.0</ele><time>2026-03-22T10:28:26Z</time></trkpt><trkpt lat="45.99421877478525" lon="12.72410350906138"><ele>41.0</ele><time>2026-03-22T10:28:27Z</time></trkpt><trkpt lat="45.99415996759767" lon="12.723916705799896"><ele>41.0</ele><time>2026-03-22T10:28:28Z</time></trkpt><trkpt lat="45.99411960167153" lon="12.7237118958645"><ele>41.666666666666664</ele><time>2026-03-22T10:28:29Z</time></trkpt><trkpt lat="45.99405837204129" lon="12.723507506314144"><ele>42.333333333333336</ele><time>2026-03-22T10:28:30Z</time></trkpt><trkpt lat="45.99402485516825" lon="12.723287840164394"><ele>43.0</ele><time>2026-03-22T10:28:31Z</time></trkpt><trkpt lat="45.99397485140547" lon="12.723064842542932"><ele>43.0</ele><time>2026-03-22T10:28:32Z</time></trkpt><trkpt lat="45.99392570698757" lon="12.722839376328006"><ele>43.0</ele><time>2026-03-22T10:28:33Z</time></trkpt><trkpt lat="45.99387627171511" lon="12.722612821561777"><ele>43.0</ele><time>2026-03-22T10:28:34Z</time></trkpt><trkpt lat="45.993823611273434" lon="12.722391436474423"><ele>43.333333333333336</ele><time>2026-03-22T10:28:35Z</time></trkpt><trkpt lat="45.99376937305459" lon="12.722176770787714"><ele>43.666666666666664</ele><time>2026-03-22T10:28:36Z</time></trkpt><trkpt lat="45.99371567958185" lon="12.721970258870007"><ele>44.0</ele><time>2026-03-22T10:28:37Z</time></trkpt><trkpt lat="45.99366173570936" lon="12.721776417898846"><ele>44.0</ele><time>2026-03-22T10:28:38Z</time></trkpt><trkpt lat="45.993609522764416" lon="12.721588211599366"><ele>44.0</ele><time>2026-03-22T10:28:39Z</time></trkpt><trkpt lat="45.9935567752343" lon="12.721393125996949"><ele>44.0</ele><time>2026-03-22T10:28:40Z</time></trkpt><trkpt lat="45.993502262983924" lon="12.721198031789148"><ele>44.0</ele><time>2026-03-22T10:28:41Z</time></trkpt><trkpt lat="45.99344740001833" lon="12.720998844508918"><ele>44.0</ele><time>2026-03-22T10:28:42Z</time></trkpt><trkpt lat="45.99339210628207" lon="12.720798250025627"><ele>44.0</ele><time>2026-03-22T10:28:43Z</time></trkpt><trkpt lat="45.99333611442754" lon="12.720596944228527"><ele>44.0</ele><time>2026-03-22T10:28:44Z</time></trkpt><trkpt lat="45.99327805484262" lon="12.720396992114024"><ele>44.0</ele><time>2026-03-22T10:28:45Z</time></trkpt><trkpt lat="45.993219974562116" lon="12.720196424713052"><ele>44.0</ele><time>2026-03-22T10:28:46Z</time></trkpt><trkpt lat="45.99316383416946" lon="12.719996439260061"><ele>44.0</ele><time>2026-03-22T10:28:47Z</time></trkpt><trkpt lat="45.99310696949297" lon="12.719794082381643"><ele>44.0</ele><time>2026-03-22T10:28:48Z</time></trkpt><trkpt lat="45.9930510174695" lon="12.719592370955464"><ele>44.0</ele><time>2026-03-22T10:28:49Z</time></trkpt><trkpt lat="45.99299828038353" lon="12.719384643712257"><ele>44.0</ele><time>2026-03-22T10:28:50Z</time></trkpt><trkpt lat="45.99294361129174" lon="12.719179769602572"><ele>44.33333333333333</ele><time>2026-03-22T10:28:51Z</time></trkpt><trkpt lat="45.99288577873748" lon="12.718975615048668"><ele>44.666666666666664</ele><time>2026-03-22T10:28:52Z</time></trkpt><trkpt lat="45.99282596729922" lon="12.718770571032946"><ele>45.0</ele><time>2026-03-22T10:28:53Z</time></trkpt><trkpt lat="45.99276475064506" lon="12.718567061952585"><ele>45.0</ele><time>2026-03-22T10:28:54Z</time></trkpt><trkpt lat="45.992706917404185" lon="12.71836131233431"><ele>45.0</ele><time>2026-03-22T10:28:55Z</time></trkpt><trkpt lat="45.99265300139559" lon="12.71815447379975"><ele>45.0</ele><time>2026-03-22T10:28:56Z</time></trkpt><trkpt lat="45.99259814059974" lon="12.717949150046541"><ele>45.0</ele><time>2026-03-22T10:28:57Z</time></trkpt><trkpt lat="45.99254170707026" lon="12.717743150888202"><ele>45.0</ele><time>2026-03-22T10:28:58Z</time></trkpt><trkpt lat="45.99248360114343" lon="12.717537145455182"><ele>45.0</ele><time>2026-03-22T10:28:59Z</time></trkpt><trkpt lat="45.992427229176506" lon="12.717333109275497"><ele>44.75</ele><time>2026-03-22T10:29:00Z</time></trkpt><trkpt lat="45.99237154097225" lon="12.71713326927168"><ele>44.5</ele><time>2026-03-22T10:29:01Z</time></trkpt><trkpt lat="45.992316513062484" lon="12.71693455802091"><ele>44.25</ele><time>2026-03-22T10:29:02Z</time></trkpt><trkpt lat="45.99226166075505" lon="12.716737986045294"><ele>44.0</ele><time>2026-03-22T10:29:03Z</time></trkpt><trkpt lat="45.99220842210729" lon="12.716553330963547"><ele>44.0</ele><time>2026-03-22T10:29:04Z</time></trkpt><trkpt lat="45.99216253048084" lon="12.71637604809117"><ele>44.0</ele><time>2026-03-22T10:29:05Z</time></trkpt><trkpt lat="45.992113178352064" lon="12.71619537586741"><ele>44.0</ele><time>2026-03-22T10:29:06Z</time></trkpt><trkpt lat="45.992061641168675" lon="12.716016883268322"><ele>44.0</ele><time>2026-03-22T10:29:07Z</time></trkpt><trkpt lat="45.992010631726224" lon="12.715837733339976"><ele>44.5</ele><time>2026-03-22T10:29:08Z</time></trkpt><trkpt lat="45.99195883354883" lon="12.715659205686372"><ele>45.0</ele><time>2026-03-22T10:29:09Z</time></trkpt><trkpt lat="45.99190856520351" lon="12.715479314910452"><ele>45.5</ele><time>2026-03-22T10:29:10Z</time></trkpt><trkpt lat="45.991855698936845" lon="12.715303625326742"><ele>46.0</ele><time>2026-03-22T10:29:11Z</time></trkpt><trkpt lat="45.99180905783079" lon="12.715140534878767"><ele>46.0</ele><time>2026-03-22T10:29:12Z</time></trkpt><trkpt lat="45.99176582936616" lon="12.714981417781736"><ele>46.0</ele><time>2026-03-22T10:29:13Z</time></trkpt><trkpt lat="45.99172596017634" lon="12.714830169520072"><ele>46.0</ele><time>2026-03-22T10:29:14Z</time></trkpt><trkpt lat="45.9916874420183" lon="12.714683214735427"><ele>46.0</ele><time>2026-03-22T10:29:15Z</time></trkpt><trkpt lat="45.991650087795556" lon="12.714539077147368"><ele>46.0</ele><time>2026-03-22T10:29:16Z</time></trkpt><trkpt lat="45.991609519083916" lon="12.71439128268456"><ele>45.5</ele><time>2026-03-22T10:29:17Z</time></trkpt><trkpt lat="45.991566952664236" lon="12.714236886361851"><ele>45.0</ele><time>2026-03-22T10:29:18Z</time></trkpt><trkpt lat="45.991522677749614" lon="12.714078653152049"><ele>44.5</ele><time>2026-03-22T10:29:19Z</time></trkpt><trkpt lat="45.991477707913404" lon="12.713917730701835"><ele>44.0</ele><time>2026-03-22T10:29:20Z</time></trkpt><trkpt lat="45.9914338425386" lon="12.71375236141598"><ele>44.0</ele><time>2026-03-22T10:29:21Z</time></trkpt><trkpt lat="45.99138988210127" lon="12.713585238760928"><ele>44.0</ele><time>2026-03-22T10:29:22Z</time></trkpt><trkpt lat="45.99134532407328" lon="12.713418172786314"><ele>44.0</ele><time>2026-03-22T10:29:23Z</time></trkpt><trkpt lat="45.99130153005264" lon="12.713254023477301"><ele>44.0</ele><time>2026-03-22T10:29:24Z</time></trkpt><trkpt lat="45.99125863885253" lon="12.71309309626204"><ele>44.0</ele><time>2026-03-22T10:29:25Z</time></trkpt><trkpt lat="45.991216562997046" lon="12.712943177974147"><ele>44.0</ele><time>2026-03-22T10:29:26Z</time></trkpt><trkpt lat="45.99117772183086" lon="12.712799210594511"><ele>44.0</ele><time>2026-03-22T10:29:27Z</time></trkpt><trkpt lat="45.99114130732901" lon="12.712661240932634"><ele>44.0</ele><time>2026-03-22T10:29:28Z</time></trkpt><trkpt lat="45.991106020694524" lon="12.712516329029047"><ele>44.0</ele><time>2026-03-22T10:29:29Z</time></trkpt><trkpt lat="45.99107024684874" lon="12.712361383139312"><ele>44.0</ele><time>2026-03-22T10:29:30Z</time></trkpt><trkpt lat="45.99103899179377" lon="12.7121990797744"><ele>44.0</ele><time>2026-03-22T10:29:31Z</time></trkpt><trkpt lat="45.99101350564696" lon="12.71203114457317"><ele>44.0</ele><time>2026-03-22T10:29:32Z</time></trkpt><trkpt lat="45.99098962829482" lon="12.711881281179034"><ele>44.0</ele><time>2026-03-22T10:29:33Z</time></trkpt><trkpt lat="45.99096346677455" lon="12.711724166305169"><ele>44.25</ele><time>2026-03-22T10:29:34Z</time></trkpt><trkpt lat="45.990937367556846" lon="12.711556710508551"><ele>44.5</ele><time>2026-03-22T10:29:35Z</time></trkpt><trkpt lat="45.990913012881705" lon="12.711384992508235"><ele>44.75</ele><time>2026-03-22T10:29:36Z</time></trkpt><trkpt lat="45.99088107523036" lon="12.71120827532925"><ele>45.0</ele><time>2026-03-22T10:29:37Z</time></trkpt><trkpt lat="45.99083169538644" lon="12.711005004860525"><ele>44.5</ele><time>2026-03-22T10:29:38Z</time></trkpt><trkpt lat="45.99077056945314" lon="12.710823000017532"><ele>44.0</ele><time>2026-03-22T10:29:39Z</time></trkpt><trkpt lat="45.99070578409211" lon="12.710637307341788"><ele>43.5</ele><time>2026-03-22T10:29:40Z</time></trkpt><trkpt lat="45.99064140004806" lon="12.710462767846364"><ele>43.0</ele><time>2026-03-22T10:29:41Z</time></trkpt><trkpt lat="45.99057901920539" lon="12.710304662058386"><ele>43.599999999999994</ele><time>2026-03-22T10:29:42Z</time></trkpt><trkpt lat="45.990521680214414" lon="12.71016777370799"><ele>44.199999999999996</ele><time>2026-03-22T10:29:43Z</time></trkpt><trkpt lat="45.990478948106905" lon="12.710066880759383"><ele>44.8</ele><time>2026-03-22T10:29:44Z</time></trkpt><trkpt lat="45.99043153886452" lon="12.7099776058417"><ele>45.4</ele><time>2026-03-22T10:29:46Z</time></trkpt><trkpt lat="45.990536359566164" lon="12.709865796004049"><ele>46.0</ele><time>2026-03-22T10:29:47Z</time></trkpt><trkpt lat="45.99064437380421" lon="12.709818857422743"><ele>46.0</ele><time>2026-03-22T10:29:48Z</time></trkpt><trkpt lat="45.99082303715252" lon="12.709738887472449"><ele>46.0</ele><time>2026-03-22T10:29:49Z</time></trkpt><trkpt lat="45.990982884889775" lon="12.709693727276477"><ele>46.0</ele><time>2026-03-22T10:29:50Z</time></trkpt><trkpt lat="45.99112590851257" lon="12.709673330927197"><ele>46.0</ele><time>2026-03-22T10:29:51Z</time></trkpt><trkpt lat="45.991251392957906" lon="12.709645995534702"><ele>46.0</ele><time>2026-03-22T10:29:52Z</time></trkpt><trkpt lat="45.991367217472565" lon="12.709626559490012"><ele>46.0</ele><time>2026-03-22T10:29:53Z</time></trkpt><trkpt lat="45.99149146546992" lon="12.709611867383344"><ele>46.0</ele><time>2026-03-22T10:29:54Z</time></trkpt><trkpt lat="45.99161800577865" lon="12.709591055508351"><ele>46.0</ele><time>2026-03-22T10:29:55Z</time></trkpt><trkpt lat="45.991740450096145" lon="12.70953054592837"><ele>46.0</ele><time>2026-03-22T10:29:56Z</time></trkpt><trkpt lat="45.99187906799347" lon="12.709482205520917"><ele>46.0</ele><time>2026-03-22T10:29:57Z</time></trkpt><trkpt lat="45.991983257512175" lon="12.709402504905864"><ele>46.0</ele><time>2026-03-22T10:29:58Z</time></trkpt><trkpt lat="45.99209044223124" lon="12.709340105856292"><ele>46.0</ele><time>2026-03-22T10:29:59Z</time></trkpt><trkpt lat="45.99219424741679" lon="12.709242370350465"><ele>46.0</ele><time>2026-03-22T10:30:00Z</time></trkpt><trkpt lat="45.99229528422429" lon="12.709157227277615"><ele>46.0</ele><time>2026-03-22T10:30:01Z</time></trkpt><trkpt lat="45.99238782115442" lon="12.709063425707976"><ele>46.0</ele><time>2026-03-22T10:30:02Z</time></trkpt><trkpt lat="45.99245553994939" lon="12.708977261257239"><ele>46.0</ele><time>2026-03-22T10:30:03Z</time></trkpt><trkpt lat="45.99251647116474" lon="12.708937166075662"><ele>46.0</ele><time>2026-03-22T10:30:12Z</time></trkpt><trkpt lat="45.992438538456334" lon="12.708744641418779"><ele>46.0</ele><time>2026-03-22T10:30:14Z</time></trkpt><trkpt lat="45.99233795841407" lon="12.708608026743672"><ele>46.0</ele><time>2026-03-22T10:30:15Z</time></trkpt><trkpt lat="45.992224228061794" lon="12.708489690201674"><ele>46.0</ele><time>2026-03-22T10:30:16Z</time></trkpt><trkpt lat="45.99208608167477" lon="12.708373996578352"><ele>46.0</ele><time>2026-03-22T10:30:17Z</time></trkpt><trkpt lat="45.99198974469717" lon="12.708290485983992"><ele>46.0</ele><time>2026-03-22T10:30:18Z</time></trkpt><trkpt lat="45.99188909461962" lon="12.708201773819924"><ele>46.0</ele><time>2026-03-22T10:30:19Z</time></trkpt><trkpt lat="45.99179305874276" lon="12.708124228537518"><ele>46.0</ele><time>2026-03-22T10:30:20Z</time></trkpt><trkpt lat="45.99170792717679" lon="12.708045526691262"><ele>46.0</ele><time>2026-03-22T10:30:21Z</time></trkpt><trkpt lat="45.99161817370933" lon="12.707962743395031"><ele>46.0</ele><time>2026-03-22T10:30:22Z</time></trkpt><trkpt lat="45.99152320890074" lon="12.707871474864081"><ele>46.0</ele><time>2026-03-22T10:30:23Z</time></trkpt><trkpt lat="45.99143013182169" lon="12.707772412714434"><ele>46.0</ele><time>2026-03-22T10:30:24Z</time></trkpt><trkpt lat="45.991346750139506" lon="12.707680674865486"><ele>46.0</ele><time>2026-03-22T10:30:25Z</time></trkpt><trkpt lat="45.99124323604602" lon="12.707602301391553"><ele>45.75</ele><time>2026-03-22T10:30:26Z</time></trkpt><trkpt lat="45.991150730744295" lon="12.707515362842145"><ele>45.5</ele><time>2026-03-22T10:30:27Z</time></trkpt><trkpt lat="45.99104583615326" lon="12.707451685541955"><ele>45.25</ele><time>2026-03-22T10:30:28Z</time></trkpt><trkpt lat="45.990936169023115" lon="12.707395133766159"><ele>45.0</ele><time>2026-03-22T10:30:29Z</time></trkpt><trkpt lat="45.99082400765113" lon="12.707341866400945"><ele>45.0</ele><time>2026-03-22T10:30:30Z</time></trkpt><trkpt lat="45.99071098566495" lon="12.707290729165496"><ele>45.0</ele><time>2026-03-22T10:30:31Z</time></trkpt><trkpt lat="45.99060067242704" lon="12.707249503804302"><ele>45.0</ele><time>2026-03-22T10:30:32Z</time></trkpt><trkpt lat="45.990492838556584" lon="12.707224672853759"><ele>45.0</ele><time>2026-03-22T10:30:33Z</time></trkpt><trkpt lat="45.99038432113148" lon="12.707203873351633"><ele>45.0</ele><time>2026-03-22T10:30:34Z</time></trkpt><trkpt lat="45.990263840429776" lon="12.707185719635763"><ele>45.0</ele><time>2026-03-22T10:30:35Z</time></trkpt><trkpt lat="45.9901557454502" lon="12.707172420015686"><ele>45.0</ele><time>2026-03-22T10:30:36Z</time></trkpt><trkpt lat="45.99005773598342" lon="12.707165012921916"><ele>45.0</ele><time>2026-03-22T10:30:37Z</time></trkpt><trkpt lat="45.98996358051367" lon="12.707157733970766"><ele>45.0</ele><time>2026-03-22T10:30:38Z</time></trkpt><trkpt lat="45.98987320763981" lon="12.707151672888063"><ele>44.833333333333336</ele><time>2026-03-22T10:30:39Z</time></trkpt><trkpt lat="45.989777568294016" lon="12.707148902416398"><ele>44.666666666666664</ele><time>2026-03-22T10:30:40Z</time></trkpt><trkpt lat="45.98968273897177" lon="12.707156527002967"><ele>44.5</ele><time>2026-03-22T10:30:41Z</time></trkpt><trkpt lat="45.98959736826067" lon="12.707170424407156"><ele>44.33333333333333</ele><time>2026-03-22T10:30:42Z</time></trkpt><trkpt lat="45.98951518073027" lon="12.70718851269465"><ele>44.166666666666664</ele><time>2026-03-22T10:30:43Z</time></trkpt><trkpt lat="45.989428744174255" lon="12.707211410352485"><ele>44.0</ele><time>2026-03-22T10:30:44Z</time></trkpt><trkpt lat="45.98934157653215" lon="12.707236620010201"><ele>44.0</ele><time>2026-03-22T10:30:45Z</time></trkpt><trkpt lat="45.98926111228475" lon="12.70726707546718"><ele>44.0</ele><time>2026-03-22T10:30:46Z</time></trkpt><trkpt lat="45.98919674684872" lon="12.70729607647396"><ele>44.0</ele><time>2026-03-22T10:30:47Z</time></trkpt><trkpt lat="45.98913386031385" lon="12.707326927410397"><ele>44.0</ele><time>2026-03-22T10:30:48Z</time></trkpt><trkpt lat="45.98906586831345" lon="12.707369053603255"><ele>44.0</ele><time>2026-03-22T10:30:49Z</time></trkpt><trkpt lat="45.98896053384196" lon="12.707419121316487"><ele>44.0</ele><time>2026-03-22T10:30:51Z</time></trkpt><trkpt lat="45.9888677831664" lon="12.707464867748872"><ele>44.0</ele><time>2026-03-22T10:30:54Z</time></trkpt><trkpt lat="45.988742610682394" lon="12.707424826684125"><ele>44.0</ele><time>2026-03-22T10:30:56Z</time></trkpt><trkpt lat="45.98865183012691" lon="12.707343244954451"><ele>44.0</ele><time>2026-03-22T10:30:58Z</time></trkpt><trkpt lat="45.98859281686657" lon="12.707267784209964"><ele>44.0</ele><time>2026-03-22T10:31:00Z</time></trkpt><trkpt lat="45.98854906168522" lon="12.707180736308272"><ele>44.0</ele><time>2026-03-22T10:31:04Z</time></trkpt></trkseg></trk></gpx>